<?xml version="1.0" encoding="UTF-8" standalone="no" ?>
<gpx xmlns="http://www.topografix.com/GPX/1/1" xmlns:xsi="http://www.w3.org/2001/XMLSchema-instance" xsi:schemaLocation="http://www.topografix.com/GPX/1/1 http://www.topografix.com/GPX/1/1/gpx.xsd" version="1.1" creator="VisuGPX - https://www.visugpx.com">
  <metadata>
    <name>6364416-SR Baridür</name>
  </metadata>
  <trk>
    <name><![CDATA[6364416-SR Baridür]]></name>
    <trkseg>
      <trkpt lat="47.80991" lon="7.17304">
        <ele>300</ele>
        <time>2022-04-05T11:52:32Z</time>
      </trkpt>
      <trkpt lat="47.8099" lon="7.17305">
        <ele>300</ele>
        <time>2022-04-05T11:52:32Z</time>
      </trkpt>
      <trkpt lat="47.80989" lon="7.17318">
        <ele>300</ele>
        <time>2022-04-05T11:52:34Z</time>
      </trkpt>
      <trkpt lat="47.80986" lon="7.17328">
        <ele>300</ele>
        <time>2022-04-05T11:52:35Z</time>
      </trkpt>
      <trkpt lat="47.80982" lon="7.17329">
        <ele>300</ele>
        <time>2022-04-05T11:52:36Z</time>
      </trkpt>
      <trkpt lat="47.80983" lon="7.17311">
        <ele>300</ele>
        <time>2022-04-05T11:52:38Z</time>
      </trkpt>
      <trkpt lat="47.80985" lon="7.17301">
        <ele>300</ele>
        <time>2022-04-05T11:52:39Z</time>
      </trkpt>
      <trkpt lat="47.80995" lon="7.17274">
        <ele>300</ele>
        <time>2022-04-05T11:52:43Z</time>
      </trkpt>
      <trkpt lat="47.80998" lon="7.17256">
        <ele>300</ele>
        <time>2022-04-05T11:52:45Z</time>
      </trkpt>
      <trkpt lat="47.81001" lon="7.1724">
        <ele>300</ele>
        <time>2022-04-05T11:52:47Z</time>
      </trkpt>
      <trkpt lat="47.81011" lon="7.17172">
        <ele>300</ele>
        <time>2022-04-05T11:52:55Z</time>
      </trkpt>
      <trkpt lat="47.81016" lon="7.17142">
        <ele>300</ele>
        <time>2022-04-05T11:52:59Z</time>
      </trkpt>
      <trkpt lat="47.81022" lon="7.17115">
        <ele>301</ele>
        <time>2022-04-05T11:53:03Z</time>
      </trkpt>
      <trkpt lat="47.81027" lon="7.17076">
        <ele>302</ele>
        <time>2022-04-05T11:53:07Z</time>
      </trkpt>
      <trkpt lat="47.81032" lon="7.17024">
        <ele>302</ele>
        <time>2022-04-05T11:53:14Z</time>
      </trkpt>
      <trkpt lat="47.81043" lon="7.16914">
        <ele>304</ele>
        <time>2022-04-05T11:53:27Z</time>
      </trkpt>
      <trkpt lat="47.81044" lon="7.16885">
        <ele>304</ele>
        <time>2022-04-05T11:53:30Z</time>
      </trkpt>
      <trkpt lat="47.81044" lon="7.16876">
        <ele>304</ele>
        <time>2022-04-05T11:53:31Z</time>
      </trkpt>
      <trkpt lat="47.81041" lon="7.16853">
        <ele>304</ele>
        <time>2022-04-05T11:53:34Z</time>
      </trkpt>
      <trkpt lat="47.81036" lon="7.16772">
        <ele>305</ele>
        <time>2022-04-05T11:53:44Z</time>
      </trkpt>
      <trkpt lat="47.81037" lon="7.16757">
        <ele>306</ele>
        <time>2022-04-05T11:53:46Z</time>
      </trkpt>
      <trkpt lat="47.81039" lon="7.16743">
        <ele>306</ele>
        <time>2022-04-05T11:53:47Z</time>
      </trkpt>
      <trkpt lat="47.8105" lon="7.16706">
        <ele>307</ele>
        <time>2022-04-05T11:53:52Z</time>
      </trkpt>
      <trkpt lat="47.81067" lon="7.16656">
        <ele>307</ele>
        <time>2022-04-05T11:53:59Z</time>
      </trkpt>
      <trkpt lat="47.8107" lon="7.16647">
        <ele>308</ele>
        <time>2022-04-05T11:54:00Z</time>
      </trkpt>
      <trkpt lat="47.81077" lon="7.16615">
        <ele>308</ele>
        <time>2022-04-05T11:54:04Z</time>
      </trkpt>
      <trkpt lat="47.81077" lon="7.16607">
        <ele>308</ele>
        <time>2022-04-05T11:54:05Z</time>
      </trkpt>
      <trkpt lat="47.81081" lon="7.16587">
        <ele>309</ele>
        <time>2022-04-05T11:54:08Z</time>
      </trkpt>
      <trkpt lat="47.81084" lon="7.16566">
        <ele>309</ele>
        <time>2022-04-05T11:54:10Z</time>
      </trkpt>
      <trkpt lat="47.81088" lon="7.1655">
        <ele>309</ele>
        <time>2022-04-05T11:54:12Z</time>
      </trkpt>
      <trkpt lat="47.81093" lon="7.16506">
        <ele>309</ele>
        <time>2022-04-05T11:54:18Z</time>
      </trkpt>
      <trkpt lat="47.81096" lon="7.16439">
        <ele>308</ele>
        <time>2022-04-05T11:54:26Z</time>
      </trkpt>
      <trkpt lat="47.81095" lon="7.16414">
        <ele>307</ele>
        <time>2022-04-05T11:54:29Z</time>
      </trkpt>
      <trkpt lat="47.81096" lon="7.16403">
        <ele>307</ele>
        <time>2022-04-05T11:54:30Z</time>
      </trkpt>
      <trkpt lat="47.81103" lon="7.16311">
        <ele>306</ele>
        <time>2022-04-05T11:54:41Z</time>
      </trkpt>
      <trkpt lat="47.81107" lon="7.16268">
        <ele>306</ele>
        <time>2022-04-05T11:54:46Z</time>
      </trkpt>
      <trkpt lat="47.81126" lon="7.16103">
        <ele>308</ele>
        <time>2022-04-05T11:55:06Z</time>
      </trkpt>
      <trkpt lat="47.81131" lon="7.16058">
        <ele>308</ele>
        <time>2022-04-05T11:55:12Z</time>
      </trkpt>
      <trkpt lat="47.81133" lon="7.16046">
        <ele>308</ele>
        <time>2022-04-05T11:55:13Z</time>
      </trkpt>
      <trkpt lat="47.81147" lon="7.15928">
        <ele>309</ele>
        <time>2022-04-05T11:55:27Z</time>
      </trkpt>
      <trkpt lat="47.81154" lon="7.15861">
        <ele>309</ele>
        <time>2022-04-05T11:55:35Z</time>
      </trkpt>
      <trkpt lat="47.81163" lon="7.1579">
        <ele>308</ele>
        <time>2022-04-05T11:55:44Z</time>
      </trkpt>
      <trkpt lat="47.8117" lon="7.15732">
        <ele>308</ele>
        <time>2022-04-05T11:55:51Z</time>
      </trkpt>
      <trkpt lat="47.81174" lon="7.15672">
        <ele>308</ele>
        <time>2022-04-05T11:55:58Z</time>
      </trkpt>
      <trkpt lat="47.81177" lon="7.15554">
        <ele>309</ele>
        <time>2022-04-05T11:56:12Z</time>
      </trkpt>
      <trkpt lat="47.81176" lon="7.15491">
        <ele>310</ele>
        <time>2022-04-05T11:56:20Z</time>
      </trkpt>
      <trkpt lat="47.81174" lon="7.15441">
        <ele>309</ele>
        <time>2022-04-05T11:56:26Z</time>
      </trkpt>
      <trkpt lat="47.81171" lon="7.1539">
        <ele>309</ele>
        <time>2022-04-05T11:56:32Z</time>
      </trkpt>
      <trkpt lat="47.81159" lon="7.15284">
        <ele>310</ele>
        <time>2022-04-05T11:56:45Z</time>
      </trkpt>
      <trkpt lat="47.81153" lon="7.15246">
        <ele>310</ele>
        <time>2022-04-05T11:56:50Z</time>
      </trkpt>
      <trkpt lat="47.81146" lon="7.15204">
        <ele>310</ele>
        <time>2022-04-05T11:56:55Z</time>
      </trkpt>
      <trkpt lat="47.81135" lon="7.1515">
        <ele>310</ele>
        <time>2022-04-05T11:57:02Z</time>
      </trkpt>
      <trkpt lat="47.81122" lon="7.15094">
        <ele>310</ele>
        <time>2022-04-05T11:57:09Z</time>
      </trkpt>
      <trkpt lat="47.80987" lon="7.14579">
        <ele>316</ele>
        <time>2022-04-05T11:58:15Z</time>
      </trkpt>
      <trkpt lat="47.80946" lon="7.1442">
        <ele>317</ele>
        <time>2022-04-05T11:58:35Z</time>
      </trkpt>
      <trkpt lat="47.80906" lon="7.14263">
        <ele>316</ele>
        <time>2022-04-05T11:58:55Z</time>
      </trkpt>
      <trkpt lat="47.80883" lon="7.14175">
        <ele>319</ele>
        <time>2022-04-05T11:59:06Z</time>
      </trkpt>
      <trkpt lat="47.80868" lon="7.14122">
        <ele>321</ele>
        <time>2022-04-05T11:59:13Z</time>
      </trkpt>
      <trkpt lat="47.80849" lon="7.14059">
        <ele>322</ele>
        <time>2022-04-05T11:59:21Z</time>
      </trkpt>
      <trkpt lat="47.80794" lon="7.1388">
        <ele>324</ele>
        <time>2022-04-05T11:59:45Z</time>
      </trkpt>
      <trkpt lat="47.80781" lon="7.13841">
        <ele>324</ele>
        <time>2022-04-05T11:59:50Z</time>
      </trkpt>
      <trkpt lat="47.8076" lon="7.13767">
        <ele>322</ele>
        <time>2022-04-05T12:00:00Z</time>
      </trkpt>
      <trkpt lat="47.8076" lon="7.13757">
        <ele>323</ele>
        <time>2022-04-05T12:00:01Z</time>
      </trkpt>
      <trkpt lat="47.80756" lon="7.13725">
        <ele>323</ele>
        <time>2022-04-05T12:00:05Z</time>
      </trkpt>
      <trkpt lat="47.80755" lon="7.13708">
        <ele>324</ele>
        <time>2022-04-05T12:00:07Z</time>
      </trkpt>
      <trkpt lat="47.80751" lon="7.13673">
        <ele>324</ele>
        <time>2022-04-05T12:00:11Z</time>
      </trkpt>
      <trkpt lat="47.80744" lon="7.13608">
        <ele>325</ele>
        <time>2022-04-05T12:00:19Z</time>
      </trkpt>
      <trkpt lat="47.80742" lon="7.13593">
        <ele>326</ele>
        <time>2022-04-05T12:00:21Z</time>
      </trkpt>
      <trkpt lat="47.80735" lon="7.13511">
        <ele>328</ele>
        <time>2022-04-05T12:00:31Z</time>
      </trkpt>
      <trkpt lat="47.80733" lon="7.13498">
        <ele>328</ele>
        <time>2022-04-05T12:00:32Z</time>
      </trkpt>
      <trkpt lat="47.80727" lon="7.13432">
        <ele>327</ele>
        <time>2022-04-05T12:00:40Z</time>
      </trkpt>
      <trkpt lat="47.80724" lon="7.13415">
        <ele>326</ele>
        <time>2022-04-05T12:00:42Z</time>
      </trkpt>
      <trkpt lat="47.80726" lon="7.13381">
        <ele>327</ele>
        <time>2022-04-05T12:00:46Z</time>
      </trkpt>
      <trkpt lat="47.80729" lon="7.13348">
        <ele>327</ele>
        <time>2022-04-05T12:00:50Z</time>
      </trkpt>
      <trkpt lat="47.80748" lon="7.13226">
        <ele>327</ele>
        <time>2022-04-05T12:01:05Z</time>
      </trkpt>
      <trkpt lat="47.80752" lon="7.13187">
        <ele>327</ele>
        <time>2022-04-05T12:01:10Z</time>
      </trkpt>
      <trkpt lat="47.80753" lon="7.13164">
        <ele>327</ele>
        <time>2022-04-05T12:01:13Z</time>
      </trkpt>
      <trkpt lat="47.80751" lon="7.13129">
        <ele>327</ele>
        <time>2022-04-05T12:01:17Z</time>
      </trkpt>
      <trkpt lat="47.80747" lon="7.13079">
        <ele>327</ele>
        <time>2022-04-05T12:01:23Z</time>
      </trkpt>
      <trkpt lat="47.80745" lon="7.13039">
        <ele>329</ele>
        <time>2022-04-05T12:01:28Z</time>
      </trkpt>
      <trkpt lat="47.80743" lon="7.13006">
        <ele>330</ele>
        <time>2022-04-05T12:01:32Z</time>
      </trkpt>
      <trkpt lat="47.8074" lon="7.12987">
        <ele>331</ele>
        <time>2022-04-05T12:01:34Z</time>
      </trkpt>
      <trkpt lat="47.80739" lon="7.12974">
        <ele>331</ele>
        <time>2022-04-05T12:01:36Z</time>
      </trkpt>
      <trkpt lat="47.80742" lon="7.12849">
        <ele>330</ele>
        <time>2022-04-05T12:01:51Z</time>
      </trkpt>
      <trkpt lat="47.80744" lon="7.12833">
        <ele>330</ele>
        <time>2022-04-05T12:01:53Z</time>
      </trkpt>
      <trkpt lat="47.80747" lon="7.12803">
        <ele>329</ele>
        <time>2022-04-05T12:01:56Z</time>
      </trkpt>
      <trkpt lat="47.80751" lon="7.12699">
        <ele>328</ele>
        <time>2022-04-05T12:02:09Z</time>
      </trkpt>
      <trkpt lat="47.80753" lon="7.12664">
        <ele>327</ele>
        <time>2022-04-05T12:02:13Z</time>
      </trkpt>
      <trkpt lat="47.80752" lon="7.12645">
        <ele>327</ele>
        <time>2022-04-05T12:02:15Z</time>
      </trkpt>
      <trkpt lat="47.8075" lon="7.12634">
        <ele>326</ele>
        <time>2022-04-05T12:02:17Z</time>
      </trkpt>
      <trkpt lat="47.80743" lon="7.12586">
        <ele>325</ele>
        <time>2022-04-05T12:02:22Z</time>
      </trkpt>
      <trkpt lat="47.80737" lon="7.12545">
        <ele>326</ele>
        <time>2022-04-05T12:02:27Z</time>
      </trkpt>
      <trkpt lat="47.80734" lon="7.12522">
        <ele>326</ele>
        <time>2022-04-05T12:02:30Z</time>
      </trkpt>
      <trkpt lat="47.80732" lon="7.12514">
        <ele>326</ele>
        <time>2022-04-05T12:02:31Z</time>
      </trkpt>
      <trkpt lat="47.80727" lon="7.12488">
        <ele>326</ele>
        <time>2022-04-05T12:02:35Z</time>
      </trkpt>
      <trkpt lat="47.80713" lon="7.12447">
        <ele>326</ele>
        <time>2022-04-05T12:02:40Z</time>
      </trkpt>
      <trkpt lat="47.80708" lon="7.12434">
        <ele>326</ele>
        <time>2022-04-05T12:02:42Z</time>
      </trkpt>
      <trkpt lat="47.80698" lon="7.12412">
        <ele>326</ele>
        <time>2022-04-05T12:02:45Z</time>
      </trkpt>
      <trkpt lat="47.80696" lon="7.12405">
        <ele>326</ele>
        <time>2022-04-05T12:02:46Z</time>
      </trkpt>
      <trkpt lat="47.80696" lon="7.12382">
        <ele>326</ele>
        <time>2022-04-05T12:02:49Z</time>
      </trkpt>
      <trkpt lat="47.80704" lon="7.12292">
        <ele>325</ele>
        <time>2022-04-05T12:02:59Z</time>
      </trkpt>
      <trkpt lat="47.80704" lon="7.12281">
        <ele>325</ele>
        <time>2022-04-05T12:03:01Z</time>
      </trkpt>
      <trkpt lat="47.80703" lon="7.12271">
        <ele>325</ele>
        <time>2022-04-05T12:03:02Z</time>
      </trkpt>
      <trkpt lat="47.80699" lon="7.12235">
        <ele>325</ele>
        <time>2022-04-05T12:03:06Z</time>
      </trkpt>
      <trkpt lat="47.80699" lon="7.12231">
        <ele>325</ele>
        <time>2022-04-05T12:03:07Z</time>
      </trkpt>
      <trkpt lat="47.807" lon="7.12209">
        <ele>325</ele>
        <time>2022-04-05T12:03:09Z</time>
      </trkpt>
      <trkpt lat="47.80702" lon="7.1218">
        <ele>325</ele>
        <time>2022-04-05T12:03:13Z</time>
      </trkpt>
      <trkpt lat="47.80714" lon="7.1218">
        <ele>325</ele>
        <time>2022-04-05T12:03:15Z</time>
      </trkpt>
      <trkpt lat="47.80719" lon="7.12177">
        <ele>326</ele>
        <time>2022-04-05T12:03:16Z</time>
      </trkpt>
      <trkpt lat="47.80722" lon="7.12172">
        <ele>326</ele>
        <time>2022-04-05T12:03:17Z</time>
      </trkpt>
      <trkpt lat="47.80739" lon="7.12142">
        <ele>326</ele>
        <time>2022-04-05T12:03:22Z</time>
      </trkpt>
      <trkpt lat="47.80746" lon="7.12118">
        <ele>327</ele>
        <time>2022-04-05T12:03:25Z</time>
      </trkpt>
      <trkpt lat="47.80755" lon="7.12074">
        <ele>327</ele>
        <time>2022-04-05T12:03:30Z</time>
      </trkpt>
      <trkpt lat="47.80764" lon="7.12012">
        <ele>328</ele>
        <time>2022-04-05T12:03:38Z</time>
      </trkpt>
      <trkpt lat="47.80769" lon="7.11992">
        <ele>328</ele>
        <time>2022-04-05T12:03:40Z</time>
      </trkpt>
      <trkpt lat="47.80775" lon="7.11975">
        <ele>328</ele>
        <time>2022-04-05T12:03:43Z</time>
      </trkpt>
      <trkpt lat="47.80782" lon="7.11963">
        <ele>328</ele>
        <time>2022-04-05T12:03:44Z</time>
      </trkpt>
      <trkpt lat="47.8082" lon="7.11917">
        <ele>327</ele>
        <time>2022-04-05T12:03:53Z</time>
      </trkpt>
      <trkpt lat="47.80826" lon="7.11905">
        <ele>327</ele>
        <time>2022-04-05T12:03:55Z</time>
      </trkpt>
      <trkpt lat="47.80841" lon="7.11832">
        <ele>326</ele>
        <time>2022-04-05T12:04:04Z</time>
      </trkpt>
      <trkpt lat="47.80845" lon="7.11822">
        <ele>326</ele>
        <time>2022-04-05T12:04:06Z</time>
      </trkpt>
      <trkpt lat="47.80845" lon="7.1182">
        <ele>326</ele>
        <time>2022-04-05T12:04:06Z</time>
      </trkpt>
      <trkpt lat="47.80848" lon="7.1181">
        <ele>327</ele>
        <time>2022-04-05T12:04:07Z</time>
      </trkpt>
      <trkpt lat="47.80851" lon="7.11794">
        <ele>327</ele>
        <time>2022-04-05T12:04:09Z</time>
      </trkpt>
      <trkpt lat="47.80853" lon="7.11775">
        <ele>328</ele>
        <time>2022-04-05T12:04:11Z</time>
      </trkpt>
      <trkpt lat="47.80861" lon="7.11735">
        <ele>330</ele>
        <time>2022-04-05T12:04:16Z</time>
      </trkpt>
      <trkpt lat="47.80864" lon="7.11706">
        <ele>330</ele>
        <time>2022-04-05T12:04:20Z</time>
      </trkpt>
      <trkpt lat="47.80864" lon="7.11674">
        <ele>331</ele>
        <time>2022-04-05T12:04:24Z</time>
      </trkpt>
      <trkpt lat="47.80848" lon="7.11499">
        <ele>330</ele>
        <time>2022-04-05T12:04:45Z</time>
      </trkpt>
      <trkpt lat="47.8085" lon="7.11474">
        <ele>330</ele>
        <time>2022-04-05T12:04:48Z</time>
      </trkpt>
      <trkpt lat="47.80856" lon="7.11435">
        <ele>331</ele>
        <time>2022-04-05T12:04:53Z</time>
      </trkpt>
      <trkpt lat="47.8086" lon="7.11421">
        <ele>331</ele>
        <time>2022-04-05T12:04:54Z</time>
      </trkpt>
      <trkpt lat="47.80879" lon="7.11355">
        <ele>332</ele>
        <time>2022-04-05T12:05:03Z</time>
      </trkpt>
      <trkpt lat="47.80886" lon="7.1133">
        <ele>332</ele>
        <time>2022-04-05T12:05:06Z</time>
      </trkpt>
      <trkpt lat="47.80894" lon="7.1129">
        <ele>331</ele>
        <time>2022-04-05T12:05:11Z</time>
      </trkpt>
      <trkpt lat="47.80907" lon="7.1121">
        <ele>331</ele>
        <time>2022-04-05T12:05:21Z</time>
      </trkpt>
      <trkpt lat="47.80911" lon="7.11159">
        <ele>331</ele>
        <time>2022-04-05T12:05:27Z</time>
      </trkpt>
      <trkpt lat="47.80911" lon="7.11119">
        <ele>331</ele>
        <time>2022-04-05T12:05:32Z</time>
      </trkpt>
      <trkpt lat="47.80905" lon="7.11008">
        <ele>331</ele>
        <time>2022-04-05T12:05:45Z</time>
      </trkpt>
      <trkpt lat="47.80906" lon="7.10953">
        <ele>332</ele>
        <time>2022-04-05T12:05:52Z</time>
      </trkpt>
      <trkpt lat="47.80915" lon="7.10883">
        <ele>332</ele>
        <time>2022-04-05T12:06:00Z</time>
      </trkpt>
      <trkpt lat="47.80923" lon="7.10857">
        <ele>332</ele>
        <time>2022-04-05T12:06:04Z</time>
      </trkpt>
      <trkpt lat="47.80938" lon="7.10817">
        <ele>332</ele>
        <time>2022-04-05T12:06:09Z</time>
      </trkpt>
      <trkpt lat="47.80946" lon="7.10803">
        <ele>333</ele>
        <time>2022-04-05T12:06:11Z</time>
      </trkpt>
      <trkpt lat="47.81018" lon="7.10716">
        <ele>333</ele>
        <time>2022-04-05T12:06:28Z</time>
      </trkpt>
      <trkpt lat="47.8106" lon="7.10661">
        <ele>333</ele>
        <time>2022-04-05T12:06:38Z</time>
      </trkpt>
      <trkpt lat="47.81064" lon="7.10652">
        <ele>333</ele>
        <time>2022-04-05T12:06:39Z</time>
      </trkpt>
      <trkpt lat="47.81082" lon="7.10584">
        <ele>334</ele>
        <time>2022-04-05T12:06:48Z</time>
      </trkpt>
      <trkpt lat="47.81089" lon="7.10564">
        <ele>334</ele>
        <time>2022-04-05T12:06:51Z</time>
      </trkpt>
      <trkpt lat="47.8108" lon="7.10552">
        <ele>334</ele>
        <time>2022-04-05T12:06:53Z</time>
      </trkpt>
      <trkpt lat="47.81053" lon="7.10506">
        <ele>334</ele>
        <time>2022-04-05T12:07:00Z</time>
      </trkpt>
      <trkpt lat="47.81108" lon="7.10421">
        <ele>335</ele>
        <time>2022-04-05T12:07:14Z</time>
      </trkpt>
      <trkpt lat="47.81118" lon="7.10406">
        <ele>335</ele>
        <time>2022-04-05T12:07:17Z</time>
      </trkpt>
      <trkpt lat="47.81134" lon="7.10389">
        <ele>335</ele>
        <time>2022-04-05T12:07:20Z</time>
      </trkpt>
      <trkpt lat="47.81134" lon="7.10369">
        <ele>336</ele>
        <time>2022-04-05T12:07:23Z</time>
      </trkpt>
      <trkpt lat="47.81131" lon="7.1036">
        <ele>336</ele>
        <time>2022-04-05T12:07:24Z</time>
      </trkpt>
      <trkpt lat="47.81128" lon="7.10356">
        <ele>336</ele>
        <time>2022-04-05T12:07:24Z</time>
      </trkpt>
      <trkpt lat="47.81085" lon="7.10317">
        <ele>337</ele>
        <time>2022-04-05T12:07:33Z</time>
      </trkpt>
      <trkpt lat="47.81061" lon="7.10288">
        <ele>337</ele>
        <time>2022-04-05T12:07:39Z</time>
      </trkpt>
      <trkpt lat="47.80974" lon="7.10213">
        <ele>340</ele>
        <time>2022-04-05T12:07:57Z</time>
      </trkpt>
      <trkpt lat="47.80948" lon="7.102">
        <ele>342</ele>
        <time>2022-04-05T12:08:02Z</time>
      </trkpt>
      <trkpt lat="47.80902" lon="7.10188">
        <ele>343</ele>
        <time>2022-04-05T12:08:10Z</time>
      </trkpt>
      <trkpt lat="47.80847" lon="7.10179">
        <ele>342</ele>
        <time>2022-04-05T12:08:20Z</time>
      </trkpt>
      <trkpt lat="47.80838" lon="7.10184">
        <ele>342</ele>
        <time>2022-04-05T12:08:22Z</time>
      </trkpt>
      <trkpt lat="47.80831" lon="7.10174">
        <ele>342</ele>
        <time>2022-04-05T12:08:23Z</time>
      </trkpt>
      <trkpt lat="47.80732" lon="7.10151">
        <ele>343</ele>
        <time>2022-04-05T12:08:41Z</time>
      </trkpt>
      <trkpt lat="47.80688" lon="7.10137">
        <ele>344</ele>
        <time>2022-04-05T12:08:49Z</time>
      </trkpt>
      <trkpt lat="47.80687" lon="7.10127">
        <ele>344</ele>
        <time>2022-04-05T12:08:50Z</time>
      </trkpt>
      <trkpt lat="47.80666" lon="7.10031">
        <ele>347</ele>
        <time>2022-04-05T12:09:02Z</time>
      </trkpt>
      <trkpt lat="47.80658" lon="7.10006">
        <ele>348</ele>
        <time>2022-04-05T12:09:06Z</time>
      </trkpt>
      <trkpt lat="47.80624" lon="7.09934">
        <ele>351</ele>
        <time>2022-04-05T12:09:16Z</time>
      </trkpt>
      <trkpt lat="47.80606" lon="7.09886">
        <ele>352</ele>
        <time>2022-04-05T12:09:23Z</time>
      </trkpt>
      <trkpt lat="47.80598" lon="7.09842">
        <ele>353</ele>
        <time>2022-04-05T12:09:28Z</time>
      </trkpt>
      <trkpt lat="47.80587" lon="7.09749">
        <ele>356</ele>
        <time>2022-04-05T12:09:40Z</time>
      </trkpt>
      <trkpt lat="47.80561" lon="7.09586">
        <ele>364</ele>
        <time>2022-04-05T12:10:00Z</time>
      </trkpt>
      <trkpt lat="47.80557" lon="7.09574">
        <ele>364</ele>
        <time>2022-04-05T12:10:01Z</time>
      </trkpt>
      <trkpt lat="47.8056" lon="7.09566">
        <ele>364</ele>
        <time>2022-04-05T12:10:02Z</time>
      </trkpt>
      <trkpt lat="47.80562" lon="7.09458">
        <ele>367</ele>
        <time>2022-04-05T12:10:15Z</time>
      </trkpt>
      <trkpt lat="47.80569" lon="7.09373">
        <ele>369</ele>
        <time>2022-04-05T12:10:25Z</time>
      </trkpt>
      <trkpt lat="47.80565" lon="7.09364">
        <ele>369</ele>
        <time>2022-04-05T12:10:27Z</time>
      </trkpt>
      <trkpt lat="47.80607" lon="7.09221">
        <ele>376</ele>
        <time>2022-04-05T12:10:45Z</time>
      </trkpt>
      <trkpt lat="47.80691" lon="7.09015">
        <ele>384</ele>
        <time>2022-04-05T12:11:14Z</time>
      </trkpt>
      <trkpt lat="47.80712" lon="7.08948">
        <ele>390</ele>
        <time>2022-04-05T12:11:23Z</time>
      </trkpt>
      <trkpt lat="47.80729" lon="7.08852">
        <ele>393</ele>
        <time>2022-04-05T12:11:35Z</time>
      </trkpt>
      <trkpt lat="47.8075" lon="7.08755">
        <ele>388</ele>
        <time>2022-04-05T12:11:47Z</time>
      </trkpt>
      <trkpt lat="47.8075" lon="7.08736">
        <ele>388</ele>
        <time>2022-04-05T12:11:49Z</time>
      </trkpt>
      <trkpt lat="47.80733" lon="7.08428">
        <ele>413</ele>
        <time>2022-04-05T12:12:26Z</time>
      </trkpt>
      <trkpt lat="47.80733" lon="7.08395">
        <ele>416</ele>
        <time>2022-04-05T12:12:30Z</time>
      </trkpt>
      <trkpt lat="47.80739" lon="7.08333">
        <ele>419</ele>
        <time>2022-04-05T12:12:38Z</time>
      </trkpt>
      <trkpt lat="47.80749" lon="7.0828">
        <ele>419</ele>
        <time>2022-04-05T12:12:44Z</time>
      </trkpt>
      <trkpt lat="47.80779" lon="7.08184">
        <ele>427</ele>
        <time>2022-04-05T12:12:57Z</time>
      </trkpt>
      <trkpt lat="47.80791" lon="7.08126">
        <ele>431</ele>
        <time>2022-04-05T12:13:04Z</time>
      </trkpt>
      <trkpt lat="47.80796" lon="7.08088">
        <ele>434</ele>
        <time>2022-04-05T12:13:09Z</time>
      </trkpt>
      <trkpt lat="47.80799" lon="7.08051">
        <ele>433</ele>
        <time>2022-04-05T12:13:13Z</time>
      </trkpt>
      <trkpt lat="47.80798" lon="7.08013">
        <ele>433</ele>
        <time>2022-04-05T12:13:18Z</time>
      </trkpt>
      <trkpt lat="47.80783" lon="7.0795">
        <ele>436</ele>
        <time>2022-04-05T12:13:26Z</time>
      </trkpt>
      <trkpt lat="47.8077" lon="7.07855">
        <ele>441</ele>
        <time>2022-04-05T12:13:37Z</time>
      </trkpt>
      <trkpt lat="47.8076" lon="7.07815">
        <ele>442</ele>
        <time>2022-04-05T12:13:42Z</time>
      </trkpt>
      <trkpt lat="47.80723" lon="7.0772">
        <ele>452</ele>
        <time>2022-04-05T12:13:56Z</time>
      </trkpt>
      <trkpt lat="47.80695" lon="7.07641">
        <ele>454</ele>
        <time>2022-04-05T12:14:06Z</time>
      </trkpt>
      <trkpt lat="47.80686" lon="7.07603">
        <ele>454</ele>
        <time>2022-04-05T12:14:11Z</time>
      </trkpt>
      <trkpt lat="47.80675" lon="7.07519">
        <ele>457</ele>
        <time>2022-04-05T12:14:21Z</time>
      </trkpt>
      <trkpt lat="47.80677" lon="7.0749">
        <ele>459</ele>
        <time>2022-04-05T12:14:25Z</time>
      </trkpt>
      <trkpt lat="47.80683" lon="7.07446">
        <ele>463</ele>
        <time>2022-04-05T12:14:30Z</time>
      </trkpt>
      <trkpt lat="47.80701" lon="7.07404">
        <ele>468</ele>
        <time>2022-04-05T12:14:36Z</time>
      </trkpt>
      <trkpt lat="47.8072" lon="7.07371">
        <ele>470</ele>
        <time>2022-04-05T12:14:41Z</time>
      </trkpt>
      <trkpt lat="47.8075" lon="7.07337">
        <ele>467</ele>
        <time>2022-04-05T12:14:48Z</time>
      </trkpt>
      <trkpt lat="47.80791" lon="7.073">
        <ele>475</ele>
        <time>2022-04-05T12:14:56Z</time>
      </trkpt>
      <trkpt lat="47.80838" lon="7.07264">
        <ele>473</ele>
        <time>2022-04-05T12:15:06Z</time>
      </trkpt>
      <trkpt lat="47.80906" lon="7.07171">
        <ele>485</ele>
        <time>2022-04-05T12:15:22Z</time>
      </trkpt>
      <trkpt lat="47.80914" lon="7.07153">
        <ele>485</ele>
        <time>2022-04-05T12:15:25Z</time>
      </trkpt>
      <trkpt lat="47.8092" lon="7.07128">
        <ele>488</ele>
        <time>2022-04-05T12:15:28Z</time>
      </trkpt>
      <trkpt lat="47.8093" lon="7.07006">
        <ele>492</ele>
        <time>2022-04-05T12:15:43Z</time>
      </trkpt>
      <trkpt lat="47.80941" lon="7.06957">
        <ele>498</ele>
        <time>2022-04-05T12:15:49Z</time>
      </trkpt>
      <trkpt lat="47.80951" lon="7.06929">
        <ele>500</ele>
        <time>2022-04-05T12:15:53Z</time>
      </trkpt>
      <trkpt lat="47.80959" lon="7.06911">
        <ele>501</ele>
        <time>2022-04-05T12:15:55Z</time>
      </trkpt>
      <trkpt lat="47.81022" lon="7.06812">
        <ele>504</ele>
        <time>2022-04-05T12:16:12Z</time>
      </trkpt>
      <trkpt lat="47.81082" lon="7.06739">
        <ele>509</ele>
        <time>2022-04-05T12:16:25Z</time>
      </trkpt>
      <trkpt lat="47.81144" lon="7.06668">
        <ele>519</ele>
        <time>2022-04-05T12:16:39Z</time>
      </trkpt>
      <trkpt lat="47.81164" lon="7.0663">
        <ele>522</ele>
        <time>2022-04-05T12:16:45Z</time>
      </trkpt>
      <trkpt lat="47.81207" lon="7.06569">
        <ele>531</ele>
        <time>2022-04-05T12:16:56Z</time>
      </trkpt>
      <trkpt lat="47.81243" lon="7.06541">
        <ele>534</ele>
        <time>2022-04-05T12:17:03Z</time>
      </trkpt>
      <trkpt lat="47.81271" lon="7.06525">
        <ele>538</ele>
        <time>2022-04-05T12:17:08Z</time>
      </trkpt>
      <trkpt lat="47.81303" lon="7.06511">
        <ele>543</ele>
        <time>2022-04-05T12:17:14Z</time>
      </trkpt>
      <trkpt lat="47.81305" lon="7.06508">
        <ele>543</ele>
        <time>2022-04-05T12:17:15Z</time>
      </trkpt>
      <trkpt lat="47.81307" lon="7.06501">
        <ele>543</ele>
        <time>2022-04-05T12:17:16Z</time>
      </trkpt>
      <trkpt lat="47.81305" lon="7.06489">
        <ele>543</ele>
        <time>2022-04-05T12:17:17Z</time>
      </trkpt>
      <trkpt lat="47.81303" lon="7.06483">
        <ele>544</ele>
        <time>2022-04-05T12:17:18Z</time>
      </trkpt>
      <trkpt lat="47.81293" lon="7.06478">
        <ele>543</ele>
        <time>2022-04-05T12:17:20Z</time>
      </trkpt>
      <trkpt lat="47.81287" lon="7.06479">
        <ele>543</ele>
        <time>2022-04-05T12:17:21Z</time>
      </trkpt>
      <trkpt lat="47.81222" lon="7.06515">
        <ele>538</ele>
        <time>2022-04-05T12:17:33Z</time>
      </trkpt>
      <trkpt lat="47.81188" lon="7.06539">
        <ele>537</ele>
        <time>2022-04-05T12:17:40Z</time>
      </trkpt>
      <trkpt lat="47.81166" lon="7.06564">
        <ele>531</ele>
        <time>2022-04-05T12:17:45Z</time>
      </trkpt>
      <trkpt lat="47.81142" lon="7.06582">
        <ele>532</ele>
        <time>2022-04-05T12:17:50Z</time>
      </trkpt>
      <trkpt lat="47.81124" lon="7.06591">
        <ele>534</ele>
        <time>2022-04-05T12:17:53Z</time>
      </trkpt>
      <trkpt lat="47.81092" lon="7.06591">
        <ele>541</ele>
        <time>2022-04-05T12:17:59Z</time>
      </trkpt>
      <trkpt lat="47.8108" lon="7.06597">
        <ele>542</ele>
        <time>2022-04-05T12:18:01Z</time>
      </trkpt>
      <trkpt lat="47.8105" lon="7.06637">
        <ele>538</ele>
        <time>2022-04-05T12:18:08Z</time>
      </trkpt>
      <trkpt lat="47.81025" lon="7.06657">
        <ele>540</ele>
        <time>2022-04-05T12:18:13Z</time>
      </trkpt>
      <trkpt lat="47.80981" lon="7.06687">
        <ele>541</ele>
        <time>2022-04-05T12:18:22Z</time>
      </trkpt>
      <trkpt lat="47.80973" lon="7.06689">
        <ele>541</ele>
        <time>2022-04-05T12:18:23Z</time>
      </trkpt>
      <trkpt lat="47.80964" lon="7.06688">
        <ele>543</ele>
        <time>2022-04-05T12:18:25Z</time>
      </trkpt>
      <trkpt lat="47.80923" lon="7.06666">
        <ele>554</ele>
        <time>2022-04-05T12:18:32Z</time>
      </trkpt>
      <trkpt lat="47.80888" lon="7.0667">
        <ele>557</ele>
        <time>2022-04-05T12:18:39Z</time>
      </trkpt>
      <trkpt lat="47.80848" lon="7.06701">
        <ele>555</ele>
        <time>2022-04-05T12:18:47Z</time>
      </trkpt>
      <trkpt lat="47.80838" lon="7.06699">
        <ele>556</ele>
        <time>2022-04-05T12:18:49Z</time>
      </trkpt>
      <trkpt lat="47.80833" lon="7.0669">
        <ele>559</ele>
        <time>2022-04-05T12:18:50Z</time>
      </trkpt>
      <trkpt lat="47.80837" lon="7.06674">
        <ele>561</ele>
        <time>2022-04-05T12:18:52Z</time>
      </trkpt>
      <trkpt lat="47.80844" lon="7.06664">
        <ele>563</ele>
        <time>2022-04-05T12:18:54Z</time>
      </trkpt>
      <trkpt lat="47.80885" lon="7.06645">
        <ele>565</ele>
        <time>2022-04-05T12:19:01Z</time>
      </trkpt>
      <trkpt lat="47.80918" lon="7.06637">
        <ele>564</ele>
        <time>2022-04-05T12:19:07Z</time>
      </trkpt>
      <trkpt lat="47.80961" lon="7.0664">
        <ele>558</ele>
        <time>2022-04-05T12:19:15Z</time>
      </trkpt>
      <trkpt lat="47.80972" lon="7.06635">
        <ele>558</ele>
        <time>2022-04-05T12:19:17Z</time>
      </trkpt>
      <trkpt lat="47.80981" lon="7.06627">
        <ele>559</ele>
        <time>2022-04-05T12:19:19Z</time>
      </trkpt>
      <trkpt lat="47.81013" lon="7.06568">
        <ele>571</ele>
        <time>2022-04-05T12:19:28Z</time>
      </trkpt>
      <trkpt lat="47.81048" lon="7.06499">
        <ele>580</ele>
        <time>2022-04-05T12:19:38Z</time>
      </trkpt>
      <trkpt lat="47.81056" lon="7.06489">
        <ele>581</ele>
        <time>2022-04-05T12:19:40Z</time>
      </trkpt>
      <trkpt lat="47.81067" lon="7.06483">
        <ele>579</ele>
        <time>2022-04-05T12:19:42Z</time>
      </trkpt>
      <trkpt lat="47.81092" lon="7.06474">
        <ele>576</ele>
        <time>2022-04-05T12:19:47Z</time>
      </trkpt>
      <trkpt lat="47.8111" lon="7.06457">
        <ele>576</ele>
        <time>2022-04-05T12:19:51Z</time>
      </trkpt>
      <trkpt lat="47.81133" lon="7.06428">
        <ele>578</ele>
        <time>2022-04-05T12:19:56Z</time>
      </trkpt>
      <trkpt lat="47.81145" lon="7.06402">
        <ele>580</ele>
        <time>2022-04-05T12:20:00Z</time>
      </trkpt>
      <trkpt lat="47.81155" lon="7.06363">
        <ele>583</ele>
        <time>2022-04-05T12:20:05Z</time>
      </trkpt>
      <trkpt lat="47.81168" lon="7.06275">
        <ele>587</ele>
        <time>2022-04-05T12:20:15Z</time>
      </trkpt>
      <trkpt lat="47.81167" lon="7.06245">
        <ele>589</ele>
        <time>2022-04-05T12:20:19Z</time>
      </trkpt>
      <trkpt lat="47.81161" lon="7.06207">
        <ele>592</ele>
        <time>2022-04-05T12:20:24Z</time>
      </trkpt>
      <trkpt lat="47.81143" lon="7.06141">
        <ele>601</ele>
        <time>2022-04-05T12:20:32Z</time>
      </trkpt>
      <trkpt lat="47.81101" lon="7.05996">
        <ele>615</ele>
        <time>2022-04-05T12:20:51Z</time>
      </trkpt>
      <trkpt lat="47.81097" lon="7.05957">
        <ele>619</ele>
        <time>2022-04-05T12:20:56Z</time>
      </trkpt>
      <trkpt lat="47.811" lon="7.05946">
        <ele>621</ele>
        <time>2022-04-05T12:20:57Z</time>
      </trkpt>
      <trkpt lat="47.81105" lon="7.05938">
        <ele>622</ele>
        <time>2022-04-05T12:20:59Z</time>
      </trkpt>
      <trkpt lat="47.81111" lon="7.05931">
        <ele>623</ele>
        <time>2022-04-05T12:21:00Z</time>
      </trkpt>
      <trkpt lat="47.81131" lon="7.05932">
        <ele>624</ele>
        <time>2022-04-05T12:21:03Z</time>
      </trkpt>
      <trkpt lat="47.81182" lon="7.05974">
        <ele>614</ele>
        <time>2022-04-05T12:21:14Z</time>
      </trkpt>
      <trkpt lat="47.81206" lon="7.05983">
        <ele>612</ele>
        <time>2022-04-05T12:21:18Z</time>
      </trkpt>
      <trkpt lat="47.81221" lon="7.05984">
        <ele>612</ele>
        <time>2022-04-05T12:21:21Z</time>
      </trkpt>
      <trkpt lat="47.8123" lon="7.05979">
        <ele>613</ele>
        <time>2022-04-05T12:21:23Z</time>
      </trkpt>
      <trkpt lat="47.81281" lon="7.05936">
        <ele>623</ele>
        <time>2022-04-05T12:21:33Z</time>
      </trkpt>
      <trkpt lat="47.81379" lon="7.05866">
        <ele>629</ele>
        <time>2022-04-05T12:21:52Z</time>
      </trkpt>
      <trkpt lat="47.81403" lon="7.05843">
        <ele>629</ele>
        <time>2022-04-05T12:21:57Z</time>
      </trkpt>
      <trkpt lat="47.81414" lon="7.05825">
        <ele>630</ele>
        <time>2022-04-05T12:22:00Z</time>
      </trkpt>
      <trkpt lat="47.81422" lon="7.05807">
        <ele>633</ele>
        <time>2022-04-05T12:22:03Z</time>
      </trkpt>
      <trkpt lat="47.81417" lon="7.05794">
        <ele>636</ele>
        <time>2022-04-05T12:22:05Z</time>
      </trkpt>
      <trkpt lat="47.81416" lon="7.05776">
        <ele>640</ele>
        <time>2022-04-05T12:22:07Z</time>
      </trkpt>
      <trkpt lat="47.81419" lon="7.05728">
        <ele>648</ele>
        <time>2022-04-05T12:22:13Z</time>
      </trkpt>
      <trkpt lat="47.81428" lon="7.05685">
        <ele>654</ele>
        <time>2022-04-05T12:22:18Z</time>
      </trkpt>
      <trkpt lat="47.81439" lon="7.05643">
        <ele>656</ele>
        <time>2022-04-05T12:22:23Z</time>
      </trkpt>
      <trkpt lat="47.81488" lon="7.05532">
        <ele>644</ele>
        <time>2022-04-05T12:22:39Z</time>
      </trkpt>
      <trkpt lat="47.81489" lon="7.05514">
        <ele>643</ele>
        <time>2022-04-05T12:22:41Z</time>
      </trkpt>
      <trkpt lat="47.81485" lon="7.05502">
        <ele>644</ele>
        <time>2022-04-05T12:22:43Z</time>
      </trkpt>
      <trkpt lat="47.81478" lon="7.05491">
        <ele>645</ele>
        <time>2022-04-05T12:22:45Z</time>
      </trkpt>
      <trkpt lat="47.81445" lon="7.05472">
        <ele>653</ele>
        <time>2022-04-05T12:22:51Z</time>
      </trkpt>
      <trkpt lat="47.8142" lon="7.0545">
        <ele>658</ele>
        <time>2022-04-05T12:22:56Z</time>
      </trkpt>
      <trkpt lat="47.81388" lon="7.05416">
        <ele>666</ele>
        <time>2022-04-05T12:23:03Z</time>
      </trkpt>
      <trkpt lat="47.81374" lon="7.05395">
        <ele>670</ele>
        <time>2022-04-05T12:23:07Z</time>
      </trkpt>
      <trkpt lat="47.81359" lon="7.05358">
        <ele>672</ele>
        <time>2022-04-05T12:23:12Z</time>
      </trkpt>
      <trkpt lat="47.81341" lon="7.05253">
        <ele>671</ele>
        <time>2022-04-05T12:23:25Z</time>
      </trkpt>
      <trkpt lat="47.81313" lon="7.05146">
        <ele>672</ele>
        <time>2022-04-05T12:23:39Z</time>
      </trkpt>
      <trkpt lat="47.8129" lon="7.05094">
        <ele>673</ele>
        <time>2022-04-05T12:23:46Z</time>
      </trkpt>
      <trkpt lat="47.81253" lon="7.05036">
        <ele>677</ele>
        <time>2022-04-05T12:23:56Z</time>
      </trkpt>
      <trkpt lat="47.81217" lon="7.04985">
        <ele>681</ele>
        <time>2022-04-05T12:24:05Z</time>
      </trkpt>
      <trkpt lat="47.81118" lon="7.04851">
        <ele>694</ele>
        <time>2022-04-05T12:24:28Z</time>
      </trkpt>
      <trkpt lat="47.81091" lon="7.04821">
        <ele>695</ele>
        <time>2022-04-05T12:24:34Z</time>
      </trkpt>
      <trkpt lat="47.81074" lon="7.0481">
        <ele>697</ele>
        <time>2022-04-05T12:24:38Z</time>
      </trkpt>
      <trkpt lat="47.81059" lon="7.04808">
        <ele>701</ele>
        <time>2022-04-05T12:24:40Z</time>
      </trkpt>
      <trkpt lat="47.81006" lon="7.04809">
        <ele>718</ele>
        <time>2022-04-05T12:24:50Z</time>
      </trkpt>
      <trkpt lat="47.80991" lon="7.04807">
        <ele>724</ele>
        <time>2022-04-05T12:24:52Z</time>
      </trkpt>
      <trkpt lat="47.80977" lon="7.04799">
        <ele>728</ele>
        <time>2022-04-05T12:24:55Z</time>
      </trkpt>
      <trkpt lat="47.80971" lon="7.04787">
        <ele>728</ele>
        <time>2022-04-05T12:24:57Z</time>
      </trkpt>
      <trkpt lat="47.80961" lon="7.0473">
        <ele>720</ele>
        <time>2022-04-05T12:25:04Z</time>
      </trkpt>
      <trkpt lat="47.80951" lon="7.04703">
        <ele>720</ele>
        <time>2022-04-05T12:25:08Z</time>
      </trkpt>
      <trkpt lat="47.80934" lon="7.04676">
        <ele>723</ele>
        <time>2022-04-05T12:25:12Z</time>
      </trkpt>
      <trkpt lat="47.80853" lon="7.04586">
        <ele>726</ele>
        <time>2022-04-05T12:25:30Z</time>
      </trkpt>
      <trkpt lat="47.8084" lon="7.04581">
        <ele>730</ele>
        <time>2022-04-05T12:25:32Z</time>
      </trkpt>
      <trkpt lat="47.80819" lon="7.0458">
        <ele>739</ele>
        <time>2022-04-05T12:25:36Z</time>
      </trkpt>
      <trkpt lat="47.80805" lon="7.04577">
        <ele>745</ele>
        <time>2022-04-05T12:25:39Z</time>
      </trkpt>
      <trkpt lat="47.80797" lon="7.04571">
        <ele>747</ele>
        <time>2022-04-05T12:25:40Z</time>
      </trkpt>
      <trkpt lat="47.80791" lon="7.04564">
        <ele>748</ele>
        <time>2022-04-05T12:25:42Z</time>
      </trkpt>
      <trkpt lat="47.80745" lon="7.04465">
        <ele>748</ele>
        <time>2022-04-05T12:25:56Z</time>
      </trkpt>
      <trkpt lat="47.80718" lon="7.04393">
        <ele>749</ele>
        <time>2022-04-05T12:26:06Z</time>
      </trkpt>
      <trkpt lat="47.80689" lon="7.0433">
        <ele>747</ele>
        <time>2022-04-05T12:26:15Z</time>
      </trkpt>
      <trkpt lat="47.80668" lon="7.0429">
        <ele>752</ele>
        <time>2022-04-05T12:26:21Z</time>
      </trkpt>
      <trkpt lat="47.80659" lon="7.04276">
        <ele>751</ele>
        <time>2022-04-05T12:26:23Z</time>
      </trkpt>
      <trkpt lat="47.8065" lon="7.04265">
        <ele>750</ele>
        <time>2022-04-05T12:26:25Z</time>
      </trkpt>
      <trkpt lat="47.8063" lon="7.04246">
        <ele>746</ele>
        <time>2022-04-05T12:26:30Z</time>
      </trkpt>
      <trkpt lat="47.8062" lon="7.04233">
        <ele>745</ele>
        <time>2022-04-05T12:26:32Z</time>
      </trkpt>
      <trkpt lat="47.80575" lon="7.04146">
        <ele>739</ele>
        <time>2022-04-05T12:26:45Z</time>
      </trkpt>
      <trkpt lat="47.8055" lon="7.04076">
        <ele>737</ele>
        <time>2022-04-05T12:26:55Z</time>
      </trkpt>
      <trkpt lat="47.80523" lon="7.04012">
        <ele>734</ele>
        <time>2022-04-05T12:27:04Z</time>
      </trkpt>
      <trkpt lat="47.80482" lon="7.03948">
        <ele>728</ele>
        <time>2022-04-05T12:27:14Z</time>
      </trkpt>
      <trkpt lat="47.80448" lon="7.03891">
        <ele>721</ele>
        <time>2022-04-05T12:27:23Z</time>
      </trkpt>
      <trkpt lat="47.80435" lon="7.03861">
        <ele>719</ele>
        <time>2022-04-05T12:27:28Z</time>
      </trkpt>
      <trkpt lat="47.80423" lon="7.03818">
        <ele>716</ele>
        <time>2022-04-05T12:27:33Z</time>
      </trkpt>
      <trkpt lat="47.80419" lon="7.03792">
        <ele>714</ele>
        <time>2022-04-05T12:27:36Z</time>
      </trkpt>
      <trkpt lat="47.8042" lon="7.03765">
        <ele>715</ele>
        <time>2022-04-05T12:27:40Z</time>
      </trkpt>
      <trkpt lat="47.80422" lon="7.0372">
        <ele>711</ele>
        <time>2022-04-05T12:27:45Z</time>
      </trkpt>
      <trkpt lat="47.80426" lon="7.037">
        <ele>709</ele>
        <time>2022-04-05T12:27:47Z</time>
      </trkpt>
      <trkpt lat="47.80433" lon="7.03681">
        <ele>709</ele>
        <time>2022-04-05T12:27:50Z</time>
      </trkpt>
      <trkpt lat="47.8044" lon="7.0367">
        <ele>709</ele>
        <time>2022-04-05T12:27:52Z</time>
      </trkpt>
      <trkpt lat="47.80446" lon="7.03666">
        <ele>710</ele>
        <time>2022-04-05T12:27:53Z</time>
      </trkpt>
      <trkpt lat="47.80464" lon="7.03664">
        <ele>716</ele>
        <time>2022-04-05T12:27:56Z</time>
      </trkpt>
      <trkpt lat="47.80469" lon="7.03659">
        <ele>716</ele>
        <time>2022-04-05T12:27:57Z</time>
      </trkpt>
      <trkpt lat="47.8049" lon="7.03619">
        <ele>713</ele>
        <time>2022-04-05T12:28:03Z</time>
      </trkpt>
      <trkpt lat="47.80495" lon="7.03604">
        <ele>711</ele>
        <time>2022-04-05T12:28:05Z</time>
      </trkpt>
      <trkpt lat="47.80502" lon="7.03559">
        <ele>704</ele>
        <time>2022-04-05T12:28:11Z</time>
      </trkpt>
      <trkpt lat="47.80503" lon="7.03544">
        <ele>701</ele>
        <time>2022-04-05T12:28:13Z</time>
      </trkpt>
      <trkpt lat="47.80501" lon="7.03536">
        <ele>699</ele>
        <time>2022-04-05T12:28:14Z</time>
      </trkpt>
      <trkpt lat="47.80497" lon="7.03531">
        <ele>697</ele>
        <time>2022-04-05T12:28:15Z</time>
      </trkpt>
      <trkpt lat="47.80491" lon="7.0353">
        <ele>695</ele>
        <time>2022-04-05T12:28:16Z</time>
      </trkpt>
      <trkpt lat="47.80488" lon="7.03532">
        <ele>695</ele>
        <time>2022-04-05T12:28:16Z</time>
      </trkpt>
      <trkpt lat="47.80485" lon="7.03539">
        <ele>695</ele>
        <time>2022-04-05T12:28:17Z</time>
      </trkpt>
      <trkpt lat="47.80486" lon="7.0359">
        <ele>705</ele>
        <time>2022-04-05T12:28:23Z</time>
      </trkpt>
      <trkpt lat="47.80484" lon="7.03598">
        <ele>706</ele>
        <time>2022-04-05T12:28:24Z</time>
      </trkpt>
      <trkpt lat="47.80473" lon="7.03619">
        <ele>708</ele>
        <time>2022-04-05T12:28:28Z</time>
      </trkpt>
      <trkpt lat="47.80458" lon="7.03637">
        <ele>707</ele>
        <time>2022-04-05T12:28:31Z</time>
      </trkpt>
      <trkpt lat="47.80451" lon="7.03641">
        <ele>706</ele>
        <time>2022-04-05T12:28:32Z</time>
      </trkpt>
      <trkpt lat="47.80434" lon="7.03643">
        <ele>701</ele>
        <time>2022-04-05T12:28:35Z</time>
      </trkpt>
      <trkpt lat="47.80419" lon="7.03647">
        <ele>697</ele>
        <time>2022-04-05T12:28:38Z</time>
      </trkpt>
      <trkpt lat="47.804" lon="7.03661">
        <ele>694</ele>
        <time>2022-04-05T12:28:42Z</time>
      </trkpt>
      <trkpt lat="47.80393" lon="7.03678">
        <ele>694</ele>
        <time>2022-04-05T12:28:44Z</time>
      </trkpt>
      <trkpt lat="47.80368" lon="7.0379">
        <ele>692</ele>
        <time>2022-04-05T12:28:58Z</time>
      </trkpt>
      <trkpt lat="47.80366" lon="7.03814">
        <ele>690</ele>
        <time>2022-04-05T12:29:01Z</time>
      </trkpt>
      <trkpt lat="47.80367" lon="7.0383">
        <ele>690</ele>
        <time>2022-04-05T12:29:03Z</time>
      </trkpt>
      <trkpt lat="47.8037" lon="7.03848">
        <ele>690</ele>
        <time>2022-04-05T12:29:05Z</time>
      </trkpt>
      <trkpt lat="47.80374" lon="7.0387">
        <ele>690</ele>
        <time>2022-04-05T12:29:08Z</time>
      </trkpt>
      <trkpt lat="47.80396" lon="7.03953">
        <ele>690</ele>
        <time>2022-04-05T12:29:19Z</time>
      </trkpt>
      <trkpt lat="47.8041" lon="7.04022">
        <ele>686</ele>
        <time>2022-04-05T12:29:27Z</time>
      </trkpt>
      <trkpt lat="47.80423" lon="7.04056">
        <ele>687</ele>
        <time>2022-04-05T12:29:32Z</time>
      </trkpt>
      <trkpt lat="47.80423" lon="7.04067">
        <ele>686</ele>
        <time>2022-04-05T12:29:33Z</time>
      </trkpt>
      <trkpt lat="47.80418" lon="7.04075">
        <ele>683</ele>
        <time>2022-04-05T12:29:35Z</time>
      </trkpt>
      <trkpt lat="47.80416" lon="7.04076">
        <ele>683</ele>
        <time>2022-04-05T12:29:35Z</time>
      </trkpt>
      <trkpt lat="47.80413" lon="7.04077">
        <ele>682</ele>
        <time>2022-04-05T12:29:36Z</time>
      </trkpt>
      <trkpt lat="47.80407" lon="7.04073">
        <ele>681</ele>
        <time>2022-04-05T12:29:37Z</time>
      </trkpt>
      <trkpt lat="47.80404" lon="7.04067">
        <ele>681</ele>
        <time>2022-04-05T12:29:38Z</time>
      </trkpt>
      <trkpt lat="47.80371" lon="7.03954">
        <ele>679</ele>
        <time>2022-04-05T12:29:52Z</time>
      </trkpt>
      <trkpt lat="47.80354" lon="7.03908">
        <ele>677</ele>
        <time>2022-04-05T12:29:59Z</time>
      </trkpt>
      <trkpt lat="47.80337" lon="7.03856">
        <ele>674</ele>
        <time>2022-04-05T12:30:06Z</time>
      </trkpt>
      <trkpt lat="47.80324" lon="7.03828">
        <ele>672</ele>
        <time>2022-04-05T12:30:10Z</time>
      </trkpt>
      <trkpt lat="47.80304" lon="7.03805">
        <ele>668</ele>
        <time>2022-04-05T12:30:14Z</time>
      </trkpt>
      <trkpt lat="47.80287" lon="7.03797">
        <ele>665</ele>
        <time>2022-04-05T12:30:17Z</time>
      </trkpt>
      <trkpt lat="47.80275" lon="7.03795">
        <ele>662</ele>
        <time>2022-04-05T12:30:19Z</time>
      </trkpt>
      <trkpt lat="47.80246" lon="7.03801">
        <ele>654</ele>
        <time>2022-04-05T12:30:25Z</time>
      </trkpt>
      <trkpt lat="47.80233" lon="7.038">
        <ele>652</ele>
        <time>2022-04-05T12:30:27Z</time>
      </trkpt>
      <trkpt lat="47.80223" lon="7.03796">
        <ele>651</ele>
        <time>2022-04-05T12:30:29Z</time>
      </trkpt>
      <trkpt lat="47.80211" lon="7.03787">
        <ele>650</ele>
        <time>2022-04-05T12:30:31Z</time>
      </trkpt>
      <trkpt lat="47.80197" lon="7.03772">
        <ele>649</ele>
        <time>2022-04-05T12:30:34Z</time>
      </trkpt>
      <trkpt lat="47.80178" lon="7.03747">
        <ele>650</ele>
        <time>2022-04-05T12:30:39Z</time>
      </trkpt>
      <trkpt lat="47.80139" lon="7.03684">
        <ele>644</ele>
        <time>2022-04-05T12:30:49Z</time>
      </trkpt>
      <trkpt lat="47.80115" lon="7.03647">
        <ele>638</ele>
        <time>2022-04-05T12:30:55Z</time>
      </trkpt>
      <trkpt lat="47.80111" lon="7.03639">
        <ele>636</ele>
        <time>2022-04-05T12:30:56Z</time>
      </trkpt>
      <trkpt lat="47.80109" lon="7.0363">
        <ele>636</ele>
        <time>2022-04-05T12:30:58Z</time>
      </trkpt>
      <trkpt lat="47.80109" lon="7.03624">
        <ele>635</ele>
        <time>2022-04-05T12:30:58Z</time>
      </trkpt>
      <trkpt lat="47.80113" lon="7.03615">
        <ele>635</ele>
        <time>2022-04-05T12:31:00Z</time>
      </trkpt>
      <trkpt lat="47.80123" lon="7.03609">
        <ele>636</ele>
        <time>2022-04-05T12:31:01Z</time>
      </trkpt>
      <trkpt lat="47.80206" lon="7.0361">
        <ele>641</ele>
        <time>2022-04-05T12:31:16Z</time>
      </trkpt>
      <trkpt lat="47.80235" lon="7.03591">
        <ele>638</ele>
        <time>2022-04-05T12:31:22Z</time>
      </trkpt>
      <trkpt lat="47.80249" lon="7.03593">
        <ele>639</ele>
        <time>2022-04-05T12:31:24Z</time>
      </trkpt>
      <trkpt lat="47.80264" lon="7.03609">
        <ele>646</ele>
        <time>2022-04-05T12:31:28Z</time>
      </trkpt>
      <trkpt lat="47.80272" lon="7.03611">
        <ele>648</ele>
        <time>2022-04-05T12:31:29Z</time>
      </trkpt>
      <trkpt lat="47.80279" lon="7.03604">
        <ele>648</ele>
        <time>2022-04-05T12:31:31Z</time>
      </trkpt>
      <trkpt lat="47.80281" lon="7.03586">
        <ele>644</ele>
        <time>2022-04-05T12:31:33Z</time>
      </trkpt>
      <trkpt lat="47.80287" lon="7.03551">
        <ele>638</ele>
        <time>2022-04-05T12:31:37Z</time>
      </trkpt>
      <trkpt lat="47.80299" lon="7.03532">
        <ele>637</ele>
        <time>2022-04-05T12:31:40Z</time>
      </trkpt>
      <trkpt lat="47.80334" lon="7.03509">
        <ele>639</ele>
        <time>2022-04-05T12:31:47Z</time>
      </trkpt>
      <trkpt lat="47.80343" lon="7.03492">
        <ele>641</ele>
        <time>2022-04-05T12:31:50Z</time>
      </trkpt>
      <trkpt lat="47.80345" lon="7.0347">
        <ele>643</ele>
        <time>2022-04-05T12:31:52Z</time>
      </trkpt>
      <trkpt lat="47.80338" lon="7.03452">
        <ele>642</ele>
        <time>2022-04-05T12:31:55Z</time>
      </trkpt>
      <trkpt lat="47.80293" lon="7.0343">
        <ele>633</ele>
        <time>2022-04-05T12:32:03Z</time>
      </trkpt>
      <trkpt lat="47.8024" lon="7.0342">
        <ele>621</ele>
        <time>2022-04-05T12:32:13Z</time>
      </trkpt>
      <trkpt lat="47.80227" lon="7.03411">
        <ele>621</ele>
        <time>2022-04-05T12:32:15Z</time>
      </trkpt>
      <trkpt lat="47.80205" lon="7.03387">
        <ele>622</ele>
        <time>2022-04-05T12:32:20Z</time>
      </trkpt>
      <trkpt lat="47.8018" lon="7.03348">
        <ele>626</ele>
        <time>2022-04-05T12:32:26Z</time>
      </trkpt>
      <trkpt lat="47.80172" lon="7.0334">
        <ele>626</ele>
        <time>2022-04-05T12:32:28Z</time>
      </trkpt>
      <trkpt lat="47.80155" lon="7.03334">
        <ele>623</ele>
        <time>2022-04-05T12:32:31Z</time>
      </trkpt>
      <trkpt lat="47.80103" lon="7.03324">
        <ele>612</ele>
        <time>2022-04-05T12:32:41Z</time>
      </trkpt>
      <trkpt lat="47.80052" lon="7.03284">
        <ele>605</ele>
        <time>2022-04-05T12:32:51Z</time>
      </trkpt>
      <trkpt lat="47.80039" lon="7.03272">
        <ele>603</ele>
        <time>2022-04-05T12:32:54Z</time>
      </trkpt>
      <trkpt lat="47.80023" lon="7.03251">
        <ele>601</ele>
        <time>2022-04-05T12:32:57Z</time>
      </trkpt>
      <trkpt lat="47.79968" lon="7.03147">
        <ele>595</ele>
        <time>2022-04-05T12:33:13Z</time>
      </trkpt>
      <trkpt lat="47.7996" lon="7.03122">
        <ele>595</ele>
        <time>2022-04-05T12:33:17Z</time>
      </trkpt>
      <trkpt lat="47.79951" lon="7.03076">
        <ele>595</ele>
        <time>2022-04-05T12:33:22Z</time>
      </trkpt>
      <trkpt lat="47.79951" lon="7.03063">
        <ele>594</ele>
        <time>2022-04-05T12:33:24Z</time>
      </trkpt>
      <trkpt lat="47.79954" lon="7.03054">
        <ele>595</ele>
        <time>2022-04-05T12:33:25Z</time>
      </trkpt>
      <trkpt lat="47.79972" lon="7.03018">
        <ele>600</ele>
        <time>2022-04-05T12:33:30Z</time>
      </trkpt>
      <trkpt lat="47.79975" lon="7.02994">
        <ele>601</ele>
        <time>2022-04-05T12:33:33Z</time>
      </trkpt>
      <trkpt lat="47.79973" lon="7.02981">
        <ele>602</ele>
        <time>2022-04-05T12:33:35Z</time>
      </trkpt>
      <trkpt lat="47.79961" lon="7.02956">
        <ele>600</ele>
        <time>2022-04-05T12:33:39Z</time>
      </trkpt>
      <trkpt lat="47.79905" lon="7.02888">
        <ele>584</ele>
        <time>2022-04-05T12:33:51Z</time>
      </trkpt>
      <trkpt lat="47.79899" lon="7.02868">
        <ele>584</ele>
        <time>2022-04-05T12:33:54Z</time>
      </trkpt>
      <trkpt lat="47.79899" lon="7.02809">
        <ele>587</ele>
        <time>2022-04-05T12:34:01Z</time>
      </trkpt>
      <trkpt lat="47.7989" lon="7.02772">
        <ele>586</ele>
        <time>2022-04-05T12:34:06Z</time>
      </trkpt>
      <trkpt lat="47.79887" lon="7.02725">
        <ele>586</ele>
        <time>2022-04-05T12:34:11Z</time>
      </trkpt>
      <trkpt lat="47.79891" lon="7.02663">
        <ele>583</ele>
        <time>2022-04-05T12:34:19Z</time>
      </trkpt>
      <trkpt lat="47.79898" lon="7.02638">
        <ele>581</ele>
        <time>2022-04-05T12:34:22Z</time>
      </trkpt>
      <trkpt lat="47.79908" lon="7.0262">
        <ele>580</ele>
        <time>2022-04-05T12:34:25Z</time>
      </trkpt>
      <trkpt lat="47.79919" lon="7.02609">
        <ele>579</ele>
        <time>2022-04-05T12:34:27Z</time>
      </trkpt>
      <trkpt lat="47.79923" lon="7.02599">
        <ele>579</ele>
        <time>2022-04-05T12:34:29Z</time>
      </trkpt>
      <trkpt lat="47.79923" lon="7.0259">
        <ele>578</ele>
        <time>2022-04-05T12:34:30Z</time>
      </trkpt>
      <trkpt lat="47.79916" lon="7.02578">
        <ele>577</ele>
        <time>2022-04-05T12:34:32Z</time>
      </trkpt>
      <trkpt lat="47.79908" lon="7.02577">
        <ele>577</ele>
        <time>2022-04-05T12:34:33Z</time>
      </trkpt>
      <trkpt lat="47.79883" lon="7.02593">
        <ele>579</ele>
        <time>2022-04-05T12:34:38Z</time>
      </trkpt>
      <trkpt lat="47.79837" lon="7.02622">
        <ele>581</ele>
        <time>2022-04-05T12:34:47Z</time>
      </trkpt>
      <trkpt lat="47.79828" lon="7.02636">
        <ele>583</ele>
        <time>2022-04-05T12:34:49Z</time>
      </trkpt>
      <trkpt lat="47.79821" lon="7.02659">
        <ele>584</ele>
        <time>2022-04-05T12:34:52Z</time>
      </trkpt>
      <trkpt lat="47.79818" lon="7.02689">
        <ele>583</ele>
        <time>2022-04-05T12:34:56Z</time>
      </trkpt>
      <trkpt lat="47.79823" lon="7.02724">
        <ele>581</ele>
        <time>2022-04-05T12:35:00Z</time>
      </trkpt>
      <trkpt lat="47.79821" lon="7.0275">
        <ele>579</ele>
        <time>2022-04-05T12:35:03Z</time>
      </trkpt>
      <trkpt lat="47.79814" lon="7.02765">
        <ele>577</ele>
        <time>2022-04-05T12:35:05Z</time>
      </trkpt>
      <trkpt lat="47.79805" lon="7.02774">
        <ele>576</ele>
        <time>2022-04-05T12:35:07Z</time>
      </trkpt>
      <trkpt lat="47.79777" lon="7.02784">
        <ele>575</ele>
        <time>2022-04-05T12:35:12Z</time>
      </trkpt>
      <trkpt lat="47.79754" lon="7.028">
        <ele>573</ele>
        <time>2022-04-05T12:35:17Z</time>
      </trkpt>
      <trkpt lat="47.79748" lon="7.02809">
        <ele>572</ele>
        <time>2022-04-05T12:35:18Z</time>
      </trkpt>
      <trkpt lat="47.79735" lon="7.02837">
        <ele>568</ele>
        <time>2022-04-05T12:35:23Z</time>
      </trkpt>
      <trkpt lat="47.79718" lon="7.0286">
        <ele>565</ele>
        <time>2022-04-05T12:35:27Z</time>
      </trkpt>
      <trkpt lat="47.79695" lon="7.02875">
        <ele>563</ele>
        <time>2022-04-05T12:35:31Z</time>
      </trkpt>
      <trkpt lat="47.79657" lon="7.02884">
        <ele>563</ele>
        <time>2022-04-05T12:35:38Z</time>
      </trkpt>
      <trkpt lat="47.79635" lon="7.02895">
        <ele>562</ele>
        <time>2022-04-05T12:35:42Z</time>
      </trkpt>
      <trkpt lat="47.79575" lon="7.02947">
        <ele>558</ele>
        <time>2022-04-05T12:35:54Z</time>
      </trkpt>
      <trkpt lat="47.7954" lon="7.02959">
        <ele>555</ele>
        <time>2022-04-05T12:36:01Z</time>
      </trkpt>
      <trkpt lat="47.79532" lon="7.02968">
        <ele>553</ele>
        <time>2022-04-05T12:36:03Z</time>
      </trkpt>
      <trkpt lat="47.79526" lon="7.02983">
        <ele>552</ele>
        <time>2022-04-05T12:36:05Z</time>
      </trkpt>
      <trkpt lat="47.79522" lon="7.02986">
        <ele>551</ele>
        <time>2022-04-05T12:36:05Z</time>
      </trkpt>
      <trkpt lat="47.79518" lon="7.02985">
        <ele>551</ele>
        <time>2022-04-05T12:36:06Z</time>
      </trkpt>
      <trkpt lat="47.79503" lon="7.02959">
        <ele>552</ele>
        <time>2022-04-05T12:36:10Z</time>
      </trkpt>
      <trkpt lat="47.79492" lon="7.02933">
        <ele>552</ele>
        <time>2022-04-05T12:36:14Z</time>
      </trkpt>
      <trkpt lat="47.79451" lon="7.02867">
        <ele>552</ele>
        <time>2022-04-05T12:36:25Z</time>
      </trkpt>
      <trkpt lat="47.79447" lon="7.02852">
        <ele>553</ele>
        <time>2022-04-05T12:36:27Z</time>
      </trkpt>
      <trkpt lat="47.79448" lon="7.02837">
        <ele>555</ele>
        <time>2022-04-05T12:36:28Z</time>
      </trkpt>
      <trkpt lat="47.79453" lon="7.0282">
        <ele>558</ele>
        <time>2022-04-05T12:36:31Z</time>
      </trkpt>
      <trkpt lat="47.7948" lon="7.02786">
        <ele>563</ele>
        <time>2022-04-05T12:36:37Z</time>
      </trkpt>
      <trkpt lat="47.7949" lon="7.0277">
        <ele>564</ele>
        <time>2022-04-05T12:36:40Z</time>
      </trkpt>
      <trkpt lat="47.79495" lon="7.02757">
        <ele>564</ele>
        <time>2022-04-05T12:36:41Z</time>
      </trkpt>
      <trkpt lat="47.79498" lon="7.02734">
        <ele>566</ele>
        <time>2022-04-05T12:36:44Z</time>
      </trkpt>
      <trkpt lat="47.79497" lon="7.02699">
        <ele>570</ele>
        <time>2022-04-05T12:36:48Z</time>
      </trkpt>
      <trkpt lat="47.79492" lon="7.02671">
        <ele>574</ele>
        <time>2022-04-05T12:36:52Z</time>
      </trkpt>
      <trkpt lat="47.79484" lon="7.02639">
        <ele>577</ele>
        <time>2022-04-05T12:36:56Z</time>
      </trkpt>
      <trkpt lat="47.79471" lon="7.02621">
        <ele>581</ele>
        <time>2022-04-05T12:36:59Z</time>
      </trkpt>
      <trkpt lat="47.79456" lon="7.02621">
        <ele>583</ele>
        <time>2022-04-05T12:37:02Z</time>
      </trkpt>
      <trkpt lat="47.79444" lon="7.02638">
        <ele>584</ele>
        <time>2022-04-05T12:37:05Z</time>
      </trkpt>
      <trkpt lat="47.79422" lon="7.02715">
        <ele>577</ele>
        <time>2022-04-05T12:37:15Z</time>
      </trkpt>
      <trkpt lat="47.79409" lon="7.02741">
        <ele>573</ele>
        <time>2022-04-05T12:37:19Z</time>
      </trkpt>
      <trkpt lat="47.79397" lon="7.02754">
        <ele>571</ele>
        <time>2022-04-05T12:37:21Z</time>
      </trkpt>
      <trkpt lat="47.79378" lon="7.02757">
        <ele>572</ele>
        <time>2022-04-05T12:37:25Z</time>
      </trkpt>
      <trkpt lat="47.79355" lon="7.02751">
        <ele>575</ele>
        <time>2022-04-05T12:37:29Z</time>
      </trkpt>
      <trkpt lat="47.79324" lon="7.02737">
        <ele>579</ele>
        <time>2022-04-05T12:37:34Z</time>
      </trkpt>
      <trkpt lat="47.79311" lon="7.02724">
        <ele>581</ele>
        <time>2022-04-05T12:37:37Z</time>
      </trkpt>
      <trkpt lat="47.79296" lon="7.02697">
        <ele>587</ele>
        <time>2022-04-05T12:37:41Z</time>
      </trkpt>
      <trkpt lat="47.79284" lon="7.02684">
        <ele>589</ele>
        <time>2022-04-05T12:37:44Z</time>
      </trkpt>
      <trkpt lat="47.79245" lon="7.0266">
        <ele>592</ele>
        <time>2022-04-05T12:37:52Z</time>
      </trkpt>
      <trkpt lat="47.79224" lon="7.02654">
        <ele>593</ele>
        <time>2022-04-05T12:37:55Z</time>
      </trkpt>
      <trkpt lat="47.79191" lon="7.02653">
        <ele>592</ele>
        <time>2022-04-05T12:38:01Z</time>
      </trkpt>
      <trkpt lat="47.79167" lon="7.02646">
        <ele>594</ele>
        <time>2022-04-05T12:38:06Z</time>
      </trkpt>
      <trkpt lat="47.79083" lon="7.02596">
        <ele>599</ele>
        <time>2022-04-05T12:38:22Z</time>
      </trkpt>
      <trkpt lat="47.79047" lon="7.02587">
        <ele>596</ele>
        <time>2022-04-05T12:38:28Z</time>
      </trkpt>
      <trkpt lat="47.79031" lon="7.0258">
        <ele>595</ele>
        <time>2022-04-05T12:38:31Z</time>
      </trkpt>
      <trkpt lat="47.79006" lon="7.02554">
        <ele>598</ele>
        <time>2022-04-05T12:38:37Z</time>
      </trkpt>
      <trkpt lat="47.78992" lon="7.0253">
        <ele>602</ele>
        <time>2022-04-05T12:38:40Z</time>
      </trkpt>
      <trkpt lat="47.78982" lon="7.02509">
        <ele>606</ele>
        <time>2022-04-05T12:38:43Z</time>
      </trkpt>
      <trkpt lat="47.78968" lon="7.02491">
        <ele>609</ele>
        <time>2022-04-05T12:38:47Z</time>
      </trkpt>
      <trkpt lat="47.78948" lon="7.02477">
        <ele>610</ele>
        <time>2022-04-05T12:38:51Z</time>
      </trkpt>
      <trkpt lat="47.78936" lon="7.02476">
        <ele>609</ele>
        <time>2022-04-05T12:38:53Z</time>
      </trkpt>
      <trkpt lat="47.78926" lon="7.02483">
        <ele>607</ele>
        <time>2022-04-05T12:38:55Z</time>
      </trkpt>
      <trkpt lat="47.78918" lon="7.02493">
        <ele>604</ele>
        <time>2022-04-05T12:38:57Z</time>
      </trkpt>
      <trkpt lat="47.78904" lon="7.02532">
        <ele>598</ele>
        <time>2022-04-05T12:39:02Z</time>
      </trkpt>
      <trkpt lat="47.78899" lon="7.02541">
        <ele>596</ele>
        <time>2022-04-05T12:39:03Z</time>
      </trkpt>
      <trkpt lat="47.78888" lon="7.02546">
        <ele>596</ele>
        <time>2022-04-05T12:39:05Z</time>
      </trkpt>
      <trkpt lat="47.78855" lon="7.0254">
        <ele>599</ele>
        <time>2022-04-05T12:39:11Z</time>
      </trkpt>
      <trkpt lat="47.7883" lon="7.02533">
        <ele>602</ele>
        <time>2022-04-05T12:39:16Z</time>
      </trkpt>
      <trkpt lat="47.78805" lon="7.02514">
        <ele>604</ele>
        <time>2022-04-05T12:39:21Z</time>
      </trkpt>
      <trkpt lat="47.78782" lon="7.0248">
        <ele>604</ele>
        <time>2022-04-05T12:39:27Z</time>
      </trkpt>
      <trkpt lat="47.78779" lon="7.02472">
        <ele>604</ele>
        <time>2022-04-05T12:39:28Z</time>
      </trkpt>
      <trkpt lat="47.78776" lon="7.02453">
        <ele>604</ele>
        <time>2022-04-05T12:39:30Z</time>
      </trkpt>
      <trkpt lat="47.78775" lon="7.02421">
        <ele>604</ele>
        <time>2022-04-05T12:39:34Z</time>
      </trkpt>
      <trkpt lat="47.78781" lon="7.02384">
        <ele>603</ele>
        <time>2022-04-05T12:39:38Z</time>
      </trkpt>
      <trkpt lat="47.78788" lon="7.02362">
        <ele>602</ele>
        <time>2022-04-05T12:39:41Z</time>
      </trkpt>
      <trkpt lat="47.78837" lon="7.02245">
        <ele>597</ele>
        <time>2022-04-05T12:39:58Z</time>
      </trkpt>
      <trkpt lat="47.78858" lon="7.02167">
        <ele>591</ele>
        <time>2022-04-05T12:40:08Z</time>
      </trkpt>
      <trkpt lat="47.7887" lon="7.02144">
        <ele>591</ele>
        <time>2022-04-05T12:40:11Z</time>
      </trkpt>
      <trkpt lat="47.78894" lon="7.02121">
        <ele>594</ele>
        <time>2022-04-05T12:40:16Z</time>
      </trkpt>
      <trkpt lat="47.78904" lon="7.02108">
        <ele>595</ele>
        <time>2022-04-05T12:40:19Z</time>
      </trkpt>
      <trkpt lat="47.7891" lon="7.02097">
        <ele>595</ele>
        <time>2022-04-05T12:40:20Z</time>
      </trkpt>
      <trkpt lat="47.78911" lon="7.02084">
        <ele>593</ele>
        <time>2022-04-05T12:40:22Z</time>
      </trkpt>
      <trkpt lat="47.78909" lon="7.02071">
        <ele>594</ele>
        <time>2022-04-05T12:40:24Z</time>
      </trkpt>
      <trkpt lat="47.78878" lon="7.02004">
        <ele>587</ele>
        <time>2022-04-05T12:40:33Z</time>
      </trkpt>
      <trkpt lat="47.78847" lon="7.01956">
        <ele>581</ele>
        <time>2022-04-05T12:40:41Z</time>
      </trkpt>
      <trkpt lat="47.78825" lon="7.01932">
        <ele>576</ele>
        <time>2022-04-05T12:40:46Z</time>
      </trkpt>
      <trkpt lat="47.78815" lon="7.01913">
        <ele>573</ele>
        <time>2022-04-05T12:40:49Z</time>
      </trkpt>
      <trkpt lat="47.78783" lon="7.01812">
        <ele>563</ele>
        <time>2022-04-05T12:41:02Z</time>
      </trkpt>
      <trkpt lat="47.78781" lon="7.01784">
        <ele>562</ele>
        <time>2022-04-05T12:41:06Z</time>
      </trkpt>
      <trkpt lat="47.78806" lon="7.01645">
        <ele>562</ele>
        <time>2022-04-05T12:41:23Z</time>
      </trkpt>
      <trkpt lat="47.78829" lon="7.01525">
        <ele>553</ele>
        <time>2022-04-05T12:41:38Z</time>
      </trkpt>
      <trkpt lat="47.78835" lon="7.01508">
        <ele>552</ele>
        <time>2022-04-05T12:41:40Z</time>
      </trkpt>
      <trkpt lat="47.78845" lon="7.0149">
        <ele>550</ele>
        <time>2022-04-05T12:41:43Z</time>
      </trkpt>
      <trkpt lat="47.78871" lon="7.01468">
        <ele>551</ele>
        <time>2022-04-05T12:41:48Z</time>
      </trkpt>
      <trkpt lat="47.78887" lon="7.01462">
        <ele>552</ele>
        <time>2022-04-05T12:41:51Z</time>
      </trkpt>
      <trkpt lat="47.7892" lon="7.01468">
        <ele>558</ele>
        <time>2022-04-05T12:41:57Z</time>
      </trkpt>
      <trkpt lat="47.78932" lon="7.01467">
        <ele>560</ele>
        <time>2022-04-05T12:41:59Z</time>
      </trkpt>
      <trkpt lat="47.78941" lon="7.01461">
        <ele>562</ele>
        <time>2022-04-05T12:42:01Z</time>
      </trkpt>
      <trkpt lat="47.78948" lon="7.01443">
        <ele>563</ele>
        <time>2022-04-05T12:42:04Z</time>
      </trkpt>
      <trkpt lat="47.78951" lon="7.01429">
        <ele>564</ele>
        <time>2022-04-05T12:42:05Z</time>
      </trkpt>
      <trkpt lat="47.7895" lon="7.01418">
        <ele>564</ele>
        <time>2022-04-05T12:42:07Z</time>
      </trkpt>
      <trkpt lat="47.78942" lon="7.014">
        <ele>564</ele>
        <time>2022-04-05T12:42:09Z</time>
      </trkpt>
      <trkpt lat="47.78928" lon="7.01377">
        <ele>562</ele>
        <time>2022-04-05T12:42:13Z</time>
      </trkpt>
      <trkpt lat="47.78908" lon="7.01356">
        <ele>558</ele>
        <time>2022-04-05T12:42:17Z</time>
      </trkpt>
      <trkpt lat="47.78859" lon="7.01318">
        <ele>548</ele>
        <time>2022-04-05T12:42:27Z</time>
      </trkpt>
      <trkpt lat="47.78794" lon="7.01294">
        <ele>532</ele>
        <time>2022-04-05T12:42:39Z</time>
      </trkpt>
      <trkpt lat="47.78769" lon="7.01267">
        <ele>527</ele>
        <time>2022-04-05T12:42:44Z</time>
      </trkpt>
      <trkpt lat="47.78763" lon="7.01248">
        <ele>525</ele>
        <time>2022-04-05T12:42:47Z</time>
      </trkpt>
      <trkpt lat="47.78762" lon="7.01219">
        <ele>522</ele>
        <time>2022-04-05T12:42:50Z</time>
      </trkpt>
      <trkpt lat="47.78772" lon="7.01192">
        <ele>523</ele>
        <time>2022-04-05T12:42:54Z</time>
      </trkpt>
      <trkpt lat="47.78784" lon="7.01173">
        <ele>526</ele>
        <time>2022-04-05T12:42:57Z</time>
      </trkpt>
      <trkpt lat="47.78798" lon="7.0116">
        <ele>530</ele>
        <time>2022-04-05T12:43:00Z</time>
      </trkpt>
      <trkpt lat="47.78807" lon="7.01141">
        <ele>532</ele>
        <time>2022-04-05T12:43:03Z</time>
      </trkpt>
      <trkpt lat="47.78814" lon="7.01115">
        <ele>532</ele>
        <time>2022-04-05T12:43:06Z</time>
      </trkpt>
      <trkpt lat="47.78818" lon="7.01086">
        <ele>531</ele>
        <time>2022-04-05T12:43:10Z</time>
      </trkpt>
      <trkpt lat="47.78817" lon="7.01068">
        <ele>532</ele>
        <time>2022-04-05T12:43:12Z</time>
      </trkpt>
      <trkpt lat="47.78813" lon="7.01057">
        <ele>532</ele>
        <time>2022-04-05T12:43:14Z</time>
      </trkpt>
      <trkpt lat="47.78805" lon="7.01049">
        <ele>531</ele>
        <time>2022-04-05T12:43:15Z</time>
      </trkpt>
      <trkpt lat="47.78795" lon="7.01049">
        <ele>529</ele>
        <time>2022-04-05T12:43:17Z</time>
      </trkpt>
      <trkpt lat="47.78778" lon="7.01055">
        <ele>525</ele>
        <time>2022-04-05T12:43:20Z</time>
      </trkpt>
      <trkpt lat="47.7871" lon="7.01101">
        <ele>514</ele>
        <time>2022-04-05T12:43:33Z</time>
      </trkpt>
      <trkpt lat="47.78673" lon="7.01138">
        <ele>510</ele>
        <time>2022-04-05T12:43:41Z</time>
      </trkpt>
      <trkpt lat="47.78631" lon="7.01165">
        <ele>505</ele>
        <time>2022-04-05T12:43:50Z</time>
      </trkpt>
      <trkpt lat="47.78585" lon="7.0118">
        <ele>501</ele>
        <time>2022-04-05T12:43:58Z</time>
      </trkpt>
      <trkpt lat="47.78571" lon="7.0118">
        <ele>498</ele>
        <time>2022-04-05T12:44:00Z</time>
      </trkpt>
      <trkpt lat="47.78535" lon="7.01142">
        <ele>496</ele>
        <time>2022-04-05T12:44:08Z</time>
      </trkpt>
      <trkpt lat="47.78525" lon="7.01135">
        <ele>495</ele>
        <time>2022-04-05T12:44:10Z</time>
      </trkpt>
      <trkpt lat="47.78518" lon="7.01136">
        <ele>493</ele>
        <time>2022-04-05T12:44:11Z</time>
      </trkpt>
      <trkpt lat="47.78511" lon="7.01141">
        <ele>492</ele>
        <time>2022-04-05T12:44:13Z</time>
      </trkpt>
      <trkpt lat="47.78506" lon="7.01149">
        <ele>490</ele>
        <time>2022-04-05T12:44:14Z</time>
      </trkpt>
      <trkpt lat="47.78505" lon="7.01158">
        <ele>489</ele>
        <time>2022-04-05T12:44:15Z</time>
      </trkpt>
      <trkpt lat="47.78506" lon="7.01167">
        <ele>489</ele>
        <time>2022-04-05T12:44:16Z</time>
      </trkpt>
      <trkpt lat="47.78511" lon="7.01177">
        <ele>488</ele>
        <time>2022-04-05T12:44:18Z</time>
      </trkpt>
      <trkpt lat="47.78553" lon="7.01233">
        <ele>485</ele>
        <time>2022-04-05T12:44:28Z</time>
      </trkpt>
      <trkpt lat="47.78564" lon="7.01234">
        <ele>487</ele>
        <time>2022-04-05T12:44:30Z</time>
      </trkpt>
      <trkpt lat="47.78597" lon="7.01222">
        <ele>493</ele>
        <time>2022-04-05T12:44:36Z</time>
      </trkpt>
      <trkpt lat="47.78607" lon="7.01224">
        <ele>494</ele>
        <time>2022-04-05T12:44:38Z</time>
      </trkpt>
      <trkpt lat="47.78612" lon="7.01229">
        <ele>493</ele>
        <time>2022-04-05T12:44:39Z</time>
      </trkpt>
      <trkpt lat="47.78614" lon="7.01238">
        <ele>492</ele>
        <time>2022-04-05T12:44:40Z</time>
      </trkpt>
      <trkpt lat="47.78615" lon="7.01247">
        <ele>490</ele>
        <time>2022-04-05T12:44:41Z</time>
      </trkpt>
      <trkpt lat="47.78613" lon="7.01257">
        <ele>489</ele>
        <time>2022-04-05T12:44:42Z</time>
      </trkpt>
      <trkpt lat="47.786" lon="7.01287">
        <ele>487</ele>
        <time>2022-04-05T12:44:46Z</time>
      </trkpt>
      <trkpt lat="47.78585" lon="7.01308">
        <ele>484</ele>
        <time>2022-04-05T12:44:50Z</time>
      </trkpt>
      <trkpt lat="47.78579" lon="7.01311">
        <ele>483</ele>
        <time>2022-04-05T12:44:51Z</time>
      </trkpt>
      <trkpt lat="47.78571" lon="7.01309">
        <ele>482</ele>
        <time>2022-04-05T12:44:53Z</time>
      </trkpt>
      <trkpt lat="47.78567" lon="7.01306">
        <ele>482</ele>
        <time>2022-04-05T12:44:53Z</time>
      </trkpt>
      <trkpt lat="47.7855" lon="7.0128">
        <ele>480</ele>
        <time>2022-04-05T12:44:58Z</time>
      </trkpt>
      <trkpt lat="47.7854" lon="7.01271">
        <ele>479</ele>
        <time>2022-04-05T12:45:00Z</time>
      </trkpt>
      <trkpt lat="47.78521" lon="7.01262">
        <ele>476</ele>
        <time>2022-04-05T12:45:03Z</time>
      </trkpt>
      <trkpt lat="47.78498" lon="7.01253">
        <ele>473</ele>
        <time>2022-04-05T12:45:08Z</time>
      </trkpt>
      <trkpt lat="47.78476" lon="7.01249">
        <ele>470</ele>
        <time>2022-04-05T12:45:12Z</time>
      </trkpt>
      <trkpt lat="47.78464" lon="7.0125">
        <ele>468</ele>
        <time>2022-04-05T12:45:14Z</time>
      </trkpt>
      <trkpt lat="47.78402" lon="7.01257">
        <ele>460</ele>
        <time>2022-04-05T12:45:25Z</time>
      </trkpt>
      <trkpt lat="47.78378" lon="7.01251">
        <ele>456</ele>
        <time>2022-04-05T12:45:29Z</time>
      </trkpt>
      <trkpt lat="47.78365" lon="7.01245">
        <ele>455</ele>
        <time>2022-04-05T12:45:32Z</time>
      </trkpt>
      <trkpt lat="47.78356" lon="7.01237">
        <ele>454</ele>
        <time>2022-04-05T12:45:33Z</time>
      </trkpt>
      <trkpt lat="47.7835" lon="7.01226">
        <ele>454</ele>
        <time>2022-04-05T12:45:35Z</time>
      </trkpt>
      <trkpt lat="47.78344" lon="7.01208">
        <ele>454</ele>
        <time>2022-04-05T12:45:38Z</time>
      </trkpt>
      <trkpt lat="47.78329" lon="7.01138">
        <ele>452</ele>
        <time>2022-04-05T12:45:46Z</time>
      </trkpt>
      <trkpt lat="47.78322" lon="7.0112">
        <ele>452</ele>
        <time>2022-04-05T12:45:49Z</time>
      </trkpt>
      <trkpt lat="47.78288" lon="7.01056">
        <ele>450</ele>
        <time>2022-04-05T12:45:59Z</time>
      </trkpt>
      <trkpt lat="47.78275" lon="7.01027">
        <ele>451</ele>
        <time>2022-04-05T12:46:03Z</time>
      </trkpt>
      <trkpt lat="47.78246" lon="7.00913">
        <ele>455</ele>
        <time>2022-04-05T12:46:17Z</time>
      </trkpt>
      <trkpt lat="47.78231" lon="7.00859">
        <ele>454</ele>
        <time>2022-04-05T12:46:24Z</time>
      </trkpt>
      <trkpt lat="47.78221" lon="7.00816">
        <ele>455</ele>
        <time>2022-04-05T12:46:30Z</time>
      </trkpt>
      <trkpt lat="47.78213" lon="7.00793">
        <ele>456</ele>
        <time>2022-04-05T12:46:33Z</time>
      </trkpt>
      <trkpt lat="47.7818" lon="7.00731">
        <ele>458</ele>
        <time>2022-04-05T12:46:42Z</time>
      </trkpt>
      <trkpt lat="47.78168" lon="7.00717">
        <ele>458</ele>
        <time>2022-04-05T12:46:45Z</time>
      </trkpt>
      <trkpt lat="47.78156" lon="7.00708">
        <ele>458</ele>
        <time>2022-04-05T12:46:47Z</time>
      </trkpt>
      <trkpt lat="47.78106" lon="7.00687">
        <ele>454</ele>
        <time>2022-04-05T12:46:57Z</time>
      </trkpt>
      <trkpt lat="47.78089" lon="7.00671">
        <ele>454</ele>
        <time>2022-04-05T12:47:00Z</time>
      </trkpt>
      <trkpt lat="47.78075" lon="7.0065">
        <ele>454</ele>
        <time>2022-04-05T12:47:04Z</time>
      </trkpt>
      <trkpt lat="47.78028" lon="7.00552">
        <ele>448</ele>
        <time>2022-04-05T12:47:18Z</time>
      </trkpt>
      <trkpt lat="47.78011" lon="7.00512">
        <ele>444</ele>
        <time>2022-04-05T12:47:24Z</time>
      </trkpt>
      <trkpt lat="47.77987" lon="7.00426">
        <ele>439</ele>
        <time>2022-04-05T12:47:35Z</time>
      </trkpt>
      <trkpt lat="47.77976" lon="7.00396">
        <ele>439</ele>
        <time>2022-04-05T12:47:39Z</time>
      </trkpt>
      <trkpt lat="47.77964" lon="7.00378">
        <ele>438</ele>
        <time>2022-04-05T12:47:42Z</time>
      </trkpt>
      <trkpt lat="47.7789" lon="7.00281">
        <ele>433</ele>
        <time>2022-04-05T12:48:00Z</time>
      </trkpt>
      <trkpt lat="47.77881" lon="7.00272">
        <ele>432</ele>
        <time>2022-04-05T12:48:02Z</time>
      </trkpt>
      <trkpt lat="47.77876" lon="7.00267">
        <ele>432</ele>
        <time>2022-04-05T12:48:03Z</time>
      </trkpt>
      <trkpt lat="47.77871" lon="7.00262">
        <ele>432</ele>
        <time>2022-04-05T12:48:04Z</time>
      </trkpt>
      <trkpt lat="47.77858" lon="7.00251">
        <ele>431</ele>
        <time>2022-04-05T12:48:06Z</time>
      </trkpt>
      <trkpt lat="47.77842" lon="7.00237">
        <ele>430</ele>
        <time>2022-04-05T12:48:10Z</time>
      </trkpt>
      <trkpt lat="47.77743" lon="7.00164">
        <ele>420</ele>
        <time>2022-04-05T12:48:29Z</time>
      </trkpt>
      <trkpt lat="47.77725" lon="7.00149">
        <ele>419</ele>
        <time>2022-04-05T12:48:33Z</time>
      </trkpt>
      <trkpt lat="47.77716" lon="7.00138">
        <ele>417</ele>
        <time>2022-04-05T12:48:35Z</time>
      </trkpt>
      <trkpt lat="47.77673" lon="7.00084">
        <ele>412</ele>
        <time>2022-04-05T12:48:45Z</time>
      </trkpt>
      <trkpt lat="47.77647" lon="7.00044">
        <ele>409</ele>
        <time>2022-04-05T12:48:52Z</time>
      </trkpt>
      <trkpt lat="47.77782" lon="6.9977">
        <ele>410</ele>
        <time>2022-04-05T12:49:32Z</time>
      </trkpt>
      <trkpt lat="47.77794" lon="6.9974">
        <ele>411</ele>
        <time>2022-04-05T12:49:36Z</time>
      </trkpt>
      <trkpt lat="47.77917" lon="6.99488">
        <ele>413</ele>
        <time>2022-04-05T12:50:14Z</time>
      </trkpt>
      <trkpt lat="47.7794" lon="6.99436">
        <ele>415</ele>
        <time>2022-04-05T12:50:21Z</time>
      </trkpt>
      <trkpt lat="47.77949" lon="6.99412">
        <ele>415</ele>
        <time>2022-04-05T12:50:24Z</time>
      </trkpt>
      <trkpt lat="47.77965" lon="6.9936">
        <ele>415</ele>
        <time>2022-04-05T12:50:31Z</time>
      </trkpt>
      <trkpt lat="47.77967" lon="6.99339">
        <ele>415</ele>
        <time>2022-04-05T12:50:34Z</time>
      </trkpt>
      <trkpt lat="47.77968" lon="6.99321">
        <ele>415</ele>
        <time>2022-04-05T12:50:36Z</time>
      </trkpt>
      <trkpt lat="47.77967" lon="6.9931">
        <ele>415</ele>
        <time>2022-04-05T12:50:37Z</time>
      </trkpt>
      <trkpt lat="47.77966" lon="6.99273">
        <ele>415</ele>
        <time>2022-04-05T12:50:42Z</time>
      </trkpt>
      <trkpt lat="47.77968" lon="6.99242">
        <ele>415</ele>
        <time>2022-04-05T12:50:45Z</time>
      </trkpt>
      <trkpt lat="47.77975" lon="6.99178">
        <ele>414</ele>
        <time>2022-04-05T12:50:53Z</time>
      </trkpt>
      <trkpt lat="47.77978" lon="6.99087">
        <ele>414</ele>
        <time>2022-04-05T12:51:04Z</time>
      </trkpt>
      <trkpt lat="47.77978" lon="6.99081">
        <ele>414</ele>
        <time>2022-04-05T12:51:05Z</time>
      </trkpt>
      <trkpt lat="47.77978" lon="6.99071">
        <ele>414</ele>
        <time>2022-04-05T12:51:06Z</time>
      </trkpt>
      <trkpt lat="47.77975" lon="6.99024">
        <ele>415</ele>
        <time>2022-04-05T12:51:12Z</time>
      </trkpt>
      <trkpt lat="47.77959" lon="6.98936">
        <ele>415</ele>
        <time>2022-04-05T12:51:23Z</time>
      </trkpt>
      <trkpt lat="47.77914" lon="6.98795">
        <ele>415</ele>
        <time>2022-04-05T12:51:41Z</time>
      </trkpt>
      <trkpt lat="47.77902" lon="6.98741">
        <ele>416</ele>
        <time>2022-04-05T12:51:48Z</time>
      </trkpt>
      <trkpt lat="47.779" lon="6.98711">
        <ele>417</ele>
        <time>2022-04-05T12:51:52Z</time>
      </trkpt>
      <trkpt lat="47.77897" lon="6.98665">
        <ele>418</ele>
        <time>2022-04-05T12:51:57Z</time>
      </trkpt>
      <trkpt lat="47.779" lon="6.98605">
        <ele>418</ele>
        <time>2022-04-05T12:52:04Z</time>
      </trkpt>
      <trkpt lat="47.77939" lon="6.98408">
        <ele>424</ele>
        <time>2022-04-05T12:52:29Z</time>
      </trkpt>
      <trkpt lat="47.7799" lon="6.9818">
        <ele>426</ele>
        <time>2022-04-05T12:52:58Z</time>
      </trkpt>
      <trkpt lat="47.78019" lon="6.98089">
        <ele>428</ele>
        <time>2022-04-05T12:53:10Z</time>
      </trkpt>
      <trkpt lat="47.78091" lon="6.97958">
        <ele>428</ele>
        <time>2022-04-05T12:53:30Z</time>
      </trkpt>
      <trkpt lat="47.78114" lon="6.97922">
        <ele>425</ele>
        <time>2022-04-05T12:53:36Z</time>
      </trkpt>
      <trkpt lat="47.78126" lon="6.97916">
        <ele>424</ele>
        <time>2022-04-05T12:53:38Z</time>
      </trkpt>
      <trkpt lat="47.78127" lon="6.97914">
        <ele>424</ele>
        <time>2022-04-05T12:53:38Z</time>
      </trkpt>
      <trkpt lat="47.78127" lon="6.97908">
        <ele>424</ele>
        <time>2022-04-05T12:53:39Z</time>
      </trkpt>
      <trkpt lat="47.78127" lon="6.97905">
        <ele>424</ele>
        <time>2022-04-05T12:53:40Z</time>
      </trkpt>
      <trkpt lat="47.78127" lon="6.97899">
        <ele>424</ele>
        <time>2022-04-05T12:53:40Z</time>
      </trkpt>
      <trkpt lat="47.78127" lon="6.97894">
        <ele>424</ele>
        <time>2022-04-05T12:53:41Z</time>
      </trkpt>
      <trkpt lat="47.78168" lon="6.97788">
        <ele>423</ele>
        <time>2022-04-05T12:53:55Z</time>
      </trkpt>
      <trkpt lat="47.78264" lon="6.97557">
        <ele>425</ele>
        <time>2022-04-05T12:54:28Z</time>
      </trkpt>
      <trkpt lat="47.7833" lon="6.97389">
        <ele>426</ele>
        <time>2022-04-05T12:54:51Z</time>
      </trkpt>
      <trkpt lat="47.78344" lon="6.97352">
        <ele>427</ele>
        <time>2022-04-05T12:54:56Z</time>
      </trkpt>
      <trkpt lat="47.78387" lon="6.97242">
        <ele>432</ele>
        <time>2022-04-05T12:55:11Z</time>
      </trkpt>
      <trkpt lat="47.78414" lon="6.9717">
        <ele>435</ele>
        <time>2022-04-05T12:55:21Z</time>
      </trkpt>
      <trkpt lat="47.78441" lon="6.97113">
        <ele>435</ele>
        <time>2022-04-05T12:55:30Z</time>
      </trkpt>
      <trkpt lat="47.78544" lon="6.96859">
        <ele>431</ele>
        <time>2022-04-05T12:56:05Z</time>
      </trkpt>
      <trkpt lat="47.78551" lon="6.96841">
        <ele>432</ele>
        <time>2022-04-05T12:56:08Z</time>
      </trkpt>
      <trkpt lat="47.78568" lon="6.96801">
        <ele>432</ele>
        <time>2022-04-05T12:56:13Z</time>
      </trkpt>
      <trkpt lat="47.7861" lon="6.96738">
        <ele>434</ele>
        <time>2022-04-05T12:56:24Z</time>
      </trkpt>
      <trkpt lat="47.78628" lon="6.96715">
        <ele>435</ele>
        <time>2022-04-05T12:56:28Z</time>
      </trkpt>
      <trkpt lat="47.78688" lon="6.96649">
        <ele>440</ele>
        <time>2022-04-05T12:56:41Z</time>
      </trkpt>
      <trkpt lat="47.78712" lon="6.96617">
        <ele>441</ele>
        <time>2022-04-05T12:56:47Z</time>
      </trkpt>
      <trkpt lat="47.78789" lon="6.96535">
        <ele>440</ele>
        <time>2022-04-05T12:57:04Z</time>
      </trkpt>
      <trkpt lat="47.78819" lon="6.96509">
        <ele>438</ele>
        <time>2022-04-05T12:57:10Z</time>
      </trkpt>
      <trkpt lat="47.78936" lon="6.96431">
        <ele>441</ele>
        <time>2022-04-05T12:57:33Z</time>
      </trkpt>
      <trkpt lat="47.78992" lon="6.96395">
        <ele>442</ele>
        <time>2022-04-05T12:57:44Z</time>
      </trkpt>
      <trkpt lat="47.79038" lon="6.96365">
        <ele>445</ele>
        <time>2022-04-05T12:57:53Z</time>
      </trkpt>
      <trkpt lat="47.79083" lon="6.96339">
        <ele>446</ele>
        <time>2022-04-05T12:58:01Z</time>
      </trkpt>
      <trkpt lat="47.79114" lon="6.96321">
        <ele>449</ele>
        <time>2022-04-05T12:58:07Z</time>
      </trkpt>
      <trkpt lat="47.79157" lon="6.96295">
        <ele>450</ele>
        <time>2022-04-05T12:58:16Z</time>
      </trkpt>
      <trkpt lat="47.79249" lon="6.96241">
        <ele>454</ele>
        <time>2022-04-05T12:58:33Z</time>
      </trkpt>
      <trkpt lat="47.79293" lon="6.96217">
        <ele>456</ele>
        <time>2022-04-05T12:58:41Z</time>
      </trkpt>
      <trkpt lat="47.79338" lon="6.96205">
        <ele>457</ele>
        <time>2022-04-05T12:58:50Z</time>
      </trkpt>
      <trkpt lat="47.7936" lon="6.96205">
        <ele>457</ele>
        <time>2022-04-05T12:58:53Z</time>
      </trkpt>
      <trkpt lat="47.79364" lon="6.96205">
        <ele>457</ele>
        <time>2022-04-05T12:58:54Z</time>
      </trkpt>
      <trkpt lat="47.79435" lon="6.96213">
        <ele>458</ele>
        <time>2022-04-05T12:59:07Z</time>
      </trkpt>
      <trkpt lat="47.79499" lon="6.96236">
        <ele>458</ele>
        <time>2022-04-05T12:59:19Z</time>
      </trkpt>
      <trkpt lat="47.79525" lon="6.9624">
        <ele>458</ele>
        <time>2022-04-05T12:59:23Z</time>
      </trkpt>
      <trkpt lat="47.79628" lon="6.96237">
        <ele>457</ele>
        <time>2022-04-05T12:59:42Z</time>
      </trkpt>
      <trkpt lat="47.79684" lon="6.96232">
        <ele>456</ele>
        <time>2022-04-05T12:59:52Z</time>
      </trkpt>
      <trkpt lat="47.79723" lon="6.96222">
        <ele>455</ele>
        <time>2022-04-05T12:59:59Z</time>
      </trkpt>
      <trkpt lat="47.79769" lon="6.96201">
        <ele>453</ele>
        <time>2022-04-05T13:00:07Z</time>
      </trkpt>
      <trkpt lat="47.79801" lon="6.96179">
        <ele>451</ele>
        <time>2022-04-05T13:00:13Z</time>
      </trkpt>
      <trkpt lat="47.79848" lon="6.96137">
        <ele>448</ele>
        <time>2022-04-05T13:00:23Z</time>
      </trkpt>
      <trkpt lat="47.7986" lon="6.96125">
        <ele>448</ele>
        <time>2022-04-05T13:00:26Z</time>
      </trkpt>
      <trkpt lat="47.79879" lon="6.961">
        <ele>449</ele>
        <time>2022-04-05T13:00:30Z</time>
      </trkpt>
      <trkpt lat="47.79902" lon="6.96067">
        <ele>450</ele>
        <time>2022-04-05T13:00:36Z</time>
      </trkpt>
      <trkpt lat="47.79931" lon="6.96017">
        <ele>454</ele>
        <time>2022-04-05T13:00:44Z</time>
      </trkpt>
      <trkpt lat="47.7995" lon="6.95973">
        <ele>456</ele>
        <time>2022-04-05T13:00:50Z</time>
      </trkpt>
      <trkpt lat="47.79978" lon="6.95887">
        <ele>452</ele>
        <time>2022-04-05T13:01:02Z</time>
      </trkpt>
      <trkpt lat="47.79979" lon="6.9588">
        <ele>452</ele>
        <time>2022-04-05T13:01:02Z</time>
      </trkpt>
      <trkpt lat="47.79984" lon="6.95868">
        <ele>451</ele>
        <time>2022-04-05T13:01:04Z</time>
      </trkpt>
      <trkpt lat="47.79994" lon="6.95849">
        <ele>451</ele>
        <time>2022-04-05T13:01:07Z</time>
      </trkpt>
      <trkpt lat="47.80008" lon="6.95813">
        <ele>452</ele>
        <time>2022-04-05T13:01:12Z</time>
      </trkpt>
      <trkpt lat="47.80015" lon="6.95777">
        <ele>453</ele>
        <time>2022-04-05T13:01:16Z</time>
      </trkpt>
      <trkpt lat="47.80056" lon="6.95666">
        <ele>454</ele>
        <time>2022-04-05T13:01:32Z</time>
      </trkpt>
      <trkpt lat="47.80059" lon="6.95659">
        <ele>454</ele>
        <time>2022-04-05T13:01:33Z</time>
      </trkpt>
      <trkpt lat="47.80086" lon="6.95591">
        <ele>453</ele>
        <time>2022-04-05T13:01:42Z</time>
      </trkpt>
      <trkpt lat="47.8009" lon="6.95581">
        <ele>452</ele>
        <time>2022-04-05T13:01:43Z</time>
      </trkpt>
      <trkpt lat="47.80118" lon="6.95514">
        <ele>452</ele>
        <time>2022-04-05T13:01:53Z</time>
      </trkpt>
      <trkpt lat="47.80182" lon="6.95417">
        <ele>450</ele>
        <time>2022-04-05T13:02:09Z</time>
      </trkpt>
      <trkpt lat="47.80317" lon="6.95222">
        <ele>454</ele>
        <time>2022-04-05T13:02:43Z</time>
      </trkpt>
      <trkpt lat="47.80367" lon="6.95141">
        <ele>457</ele>
        <time>2022-04-05T13:02:56Z</time>
      </trkpt>
      <trkpt lat="47.804" lon="6.95063">
        <ele>456</ele>
        <time>2022-04-05T13:03:07Z</time>
      </trkpt>
      <trkpt lat="47.80566" lon="6.94649">
        <ele>464</ele>
        <time>2022-04-05T13:04:04Z</time>
      </trkpt>
      <trkpt lat="47.80579" lon="6.94621">
        <ele>464</ele>
        <time>2022-04-05T13:04:08Z</time>
      </trkpt>
      <trkpt lat="47.80645" lon="6.94504">
        <ele>466</ele>
        <time>2022-04-05T13:04:27Z</time>
      </trkpt>
      <trkpt lat="47.80656" lon="6.94482">
        <ele>466</ele>
        <time>2022-04-05T13:04:30Z</time>
      </trkpt>
      <trkpt lat="47.80668" lon="6.94453">
        <ele>467</ele>
        <time>2022-04-05T13:04:34Z</time>
      </trkpt>
      <trkpt lat="47.80678" lon="6.94423">
        <ele>466</ele>
        <time>2022-04-05T13:04:38Z</time>
      </trkpt>
      <trkpt lat="47.80692" lon="6.94361">
        <ele>465</ele>
        <time>2022-04-05T13:04:46Z</time>
      </trkpt>
      <trkpt lat="47.80695" lon="6.94347">
        <ele>465</ele>
        <time>2022-04-05T13:04:48Z</time>
      </trkpt>
      <trkpt lat="47.807" lon="6.94319">
        <ele>465</ele>
        <time>2022-04-05T13:04:51Z</time>
      </trkpt>
      <trkpt lat="47.80711" lon="6.94251">
        <ele>463</ele>
        <time>2022-04-05T13:04:59Z</time>
      </trkpt>
      <trkpt lat="47.80714" lon="6.94234">
        <ele>463</ele>
        <time>2022-04-05T13:05:01Z</time>
      </trkpt>
      <trkpt lat="47.80718" lon="6.94203">
        <ele>463</ele>
        <time>2022-04-05T13:05:05Z</time>
      </trkpt>
      <trkpt lat="47.80741" lon="6.94019">
        <ele>464</ele>
        <time>2022-04-05T13:05:28Z</time>
      </trkpt>
      <trkpt lat="47.80754" lon="6.93917">
        <ele>468</ele>
        <time>2022-04-05T13:05:40Z</time>
      </trkpt>
      <trkpt lat="47.80755" lon="6.93907">
        <ele>469</ele>
        <time>2022-04-05T13:05:41Z</time>
      </trkpt>
      <trkpt lat="47.80756" lon="6.93895">
        <ele>470</ele>
        <time>2022-04-05T13:05:43Z</time>
      </trkpt>
      <trkpt lat="47.80761" lon="6.9386">
        <ele>473</ele>
        <time>2022-04-05T13:05:47Z</time>
      </trkpt>
      <trkpt lat="47.80782" lon="6.937">
        <ele>481</ele>
        <time>2022-04-05T13:06:06Z</time>
      </trkpt>
      <trkpt lat="47.80813" lon="6.93432">
        <ele>479</ele>
        <time>2022-04-05T13:06:39Z</time>
      </trkpt>
      <trkpt lat="47.80828" lon="6.93211">
        <ele>480</ele>
        <time>2022-04-05T13:07:05Z</time>
      </trkpt>
      <trkpt lat="47.80831" lon="6.9316">
        <ele>482</ele>
        <time>2022-04-05T13:07:12Z</time>
      </trkpt>
      <trkpt lat="47.8084" lon="6.93054">
        <ele>485</ele>
        <time>2022-04-05T13:07:24Z</time>
      </trkpt>
      <trkpt lat="47.8087" lon="6.9282">
        <ele>487</ele>
        <time>2022-04-05T13:07:53Z</time>
      </trkpt>
      <trkpt lat="47.80885" lon="6.92712">
        <ele>486</ele>
        <time>2022-04-05T13:08:06Z</time>
      </trkpt>
      <trkpt lat="47.80892" lon="6.92654">
        <ele>486</ele>
        <time>2022-04-05T13:08:13Z</time>
      </trkpt>
      <trkpt lat="47.80896" lon="6.92527">
        <ele>493</ele>
        <time>2022-04-05T13:08:28Z</time>
      </trkpt>
      <trkpt lat="47.80882" lon="6.92136">
        <ele>494</ele>
        <time>2022-04-05T13:09:15Z</time>
      </trkpt>
      <trkpt lat="47.80872" lon="6.92043">
        <ele>493</ele>
        <time>2022-04-05T13:09:26Z</time>
      </trkpt>
      <trkpt lat="47.80869" lon="6.92022">
        <ele>492</ele>
        <time>2022-04-05T13:09:29Z</time>
      </trkpt>
      <trkpt lat="47.80854" lon="6.91909">
        <ele>497</ele>
        <time>2022-04-05T13:09:43Z</time>
      </trkpt>
      <trkpt lat="47.8085" lon="6.91896">
        <ele>496</ele>
        <time>2022-04-05T13:09:44Z</time>
      </trkpt>
      <trkpt lat="47.80845" lon="6.9189">
        <ele>495</ele>
        <time>2022-04-05T13:09:45Z</time>
      </trkpt>
      <trkpt lat="47.80842" lon="6.91886">
        <ele>494</ele>
        <time>2022-04-05T13:09:46Z</time>
      </trkpt>
      <trkpt lat="47.80834" lon="6.91867">
        <ele>492</ele>
        <time>2022-04-05T13:09:49Z</time>
      </trkpt>
      <trkpt lat="47.80827" lon="6.91802">
        <ele>491</ele>
        <time>2022-04-05T13:09:57Z</time>
      </trkpt>
      <trkpt lat="47.80819" lon="6.91747">
        <ele>491</ele>
        <time>2022-04-05T13:10:03Z</time>
      </trkpt>
      <trkpt lat="47.80797" lon="6.91623">
        <ele>498</ele>
        <time>2022-04-05T13:10:19Z</time>
      </trkpt>
      <trkpt lat="47.80789" lon="6.91588">
        <ele>499</ele>
        <time>2022-04-05T13:10:23Z</time>
      </trkpt>
      <trkpt lat="47.80786" lon="6.91578">
        <ele>499</ele>
        <time>2022-04-05T13:10:24Z</time>
      </trkpt>
      <trkpt lat="47.8078" lon="6.91566">
        <ele>498</ele>
        <time>2022-04-05T13:10:26Z</time>
      </trkpt>
      <trkpt lat="47.80773" lon="6.91564">
        <ele>496</ele>
        <time>2022-04-05T13:10:28Z</time>
      </trkpt>
      <trkpt lat="47.80764" lon="6.91489">
        <ele>497</ele>
        <time>2022-04-05T13:10:37Z</time>
      </trkpt>
      <trkpt lat="47.80756" lon="6.91463">
        <ele>496</ele>
        <time>2022-04-05T13:10:40Z</time>
      </trkpt>
      <trkpt lat="47.8073" lon="6.91411">
        <ele>495</ele>
        <time>2022-04-05T13:10:48Z</time>
      </trkpt>
      <trkpt lat="47.80725" lon="6.91392">
        <ele>495</ele>
        <time>2022-04-05T13:10:50Z</time>
      </trkpt>
      <trkpt lat="47.80718" lon="6.9134">
        <ele>495</ele>
        <time>2022-04-05T13:10:57Z</time>
      </trkpt>
      <trkpt lat="47.80709" lon="6.91297">
        <ele>495</ele>
        <time>2022-04-05T13:11:02Z</time>
      </trkpt>
      <trkpt lat="47.80663" lon="6.91127">
        <ele>496</ele>
        <time>2022-04-05T13:11:24Z</time>
      </trkpt>
      <trkpt lat="47.80662" lon="6.91111">
        <ele>496</ele>
        <time>2022-04-05T13:11:26Z</time>
      </trkpt>
      <trkpt lat="47.8066" lon="6.91086">
        <ele>497</ele>
        <time>2022-04-05T13:11:29Z</time>
      </trkpt>
      <trkpt lat="47.80662" lon="6.91053">
        <ele>498</ele>
        <time>2022-04-05T13:11:33Z</time>
      </trkpt>
      <trkpt lat="47.80681" lon="6.90948">
        <ele>502</ele>
        <time>2022-04-05T13:11:46Z</time>
      </trkpt>
      <trkpt lat="47.80683" lon="6.90928">
        <ele>503</ele>
        <time>2022-04-05T13:11:48Z</time>
      </trkpt>
      <trkpt lat="47.80679" lon="6.90833">
        <ele>503</ele>
        <time>2022-04-05T13:12:00Z</time>
      </trkpt>
      <trkpt lat="47.8068" lon="6.90819">
        <ele>503</ele>
        <time>2022-04-05T13:12:01Z</time>
      </trkpt>
      <trkpt lat="47.80694" lon="6.9076">
        <ele>502</ele>
        <time>2022-04-05T13:12:09Z</time>
      </trkpt>
      <trkpt lat="47.80697" lon="6.90724">
        <ele>502</ele>
        <time>2022-04-05T13:12:13Z</time>
      </trkpt>
      <trkpt lat="47.80697" lon="6.90697">
        <ele>502</ele>
        <time>2022-04-05T13:12:16Z</time>
      </trkpt>
      <trkpt lat="47.80694" lon="6.9067">
        <ele>501</ele>
        <time>2022-04-05T13:12:20Z</time>
      </trkpt>
      <trkpt lat="47.80694" lon="6.90655">
        <ele>501</ele>
        <time>2022-04-05T13:12:21Z</time>
      </trkpt>
      <trkpt lat="47.80695" lon="6.90615">
        <ele>501</ele>
        <time>2022-04-05T13:12:26Z</time>
      </trkpt>
      <trkpt lat="47.80697" lon="6.906">
        <ele>501</ele>
        <time>2022-04-05T13:12:28Z</time>
      </trkpt>
      <trkpt lat="47.80702" lon="6.90576">
        <ele>501</ele>
        <time>2022-04-05T13:12:31Z</time>
      </trkpt>
      <trkpt lat="47.80706" lon="6.90564">
        <ele>501</ele>
        <time>2022-04-05T13:12:33Z</time>
      </trkpt>
      <trkpt lat="47.80708" lon="6.90559">
        <ele>501</ele>
        <time>2022-04-05T13:12:33Z</time>
      </trkpt>
      <trkpt lat="47.80716" lon="6.90551">
        <ele>502</ele>
        <time>2022-04-05T13:12:35Z</time>
      </trkpt>
      <trkpt lat="47.8072" lon="6.90547">
        <ele>502</ele>
        <time>2022-04-05T13:12:36Z</time>
      </trkpt>
      <trkpt lat="47.80757" lon="6.90516">
        <ele>502</ele>
        <time>2022-04-05T13:12:43Z</time>
      </trkpt>
      <trkpt lat="47.80786" lon="6.90493">
        <ele>503</ele>
        <time>2022-04-05T13:12:49Z</time>
      </trkpt>
      <trkpt lat="47.80793" lon="6.90485">
        <ele>503</ele>
        <time>2022-04-05T13:12:51Z</time>
      </trkpt>
      <trkpt lat="47.80798" lon="6.90477">
        <ele>503</ele>
        <time>2022-04-05T13:12:52Z</time>
      </trkpt>
      <trkpt lat="47.80804" lon="6.90465">
        <ele>503</ele>
        <time>2022-04-05T13:12:54Z</time>
      </trkpt>
      <trkpt lat="47.8082" lon="6.90421">
        <ele>503</ele>
        <time>2022-04-05T13:13:00Z</time>
      </trkpt>
      <trkpt lat="47.80821" lon="6.90409">
        <ele>503</ele>
        <time>2022-04-05T13:13:01Z</time>
      </trkpt>
      <trkpt lat="47.80819" lon="6.90396">
        <ele>504</ele>
        <time>2022-04-05T13:13:03Z</time>
      </trkpt>
      <trkpt lat="47.80807" lon="6.90369">
        <ele>504</ele>
        <time>2022-04-05T13:13:07Z</time>
      </trkpt>
      <trkpt lat="47.80792" lon="6.90343">
        <ele>505</ele>
        <time>2022-04-05T13:13:11Z</time>
      </trkpt>
      <trkpt lat="47.80787" lon="6.9033">
        <ele>505</ele>
        <time>2022-04-05T13:13:13Z</time>
      </trkpt>
      <trkpt lat="47.80787" lon="6.90316">
        <ele>506</ele>
        <time>2022-04-05T13:13:14Z</time>
      </trkpt>
      <trkpt lat="47.80813" lon="6.90215">
        <ele>507</ele>
        <time>2022-04-05T13:13:27Z</time>
      </trkpt>
      <trkpt lat="47.8082" lon="6.90189">
        <ele>507</ele>
        <time>2022-04-05T13:13:31Z</time>
      </trkpt>
      <trkpt lat="47.80821" lon="6.90186">
        <ele>507</ele>
        <time>2022-04-05T13:13:31Z</time>
      </trkpt>
      <trkpt lat="47.80832" lon="6.90169">
        <ele>506</ele>
        <time>2022-04-05T13:13:34Z</time>
      </trkpt>
      <trkpt lat="47.80844" lon="6.90156">
        <ele>507</ele>
        <time>2022-04-05T13:13:36Z</time>
      </trkpt>
      <trkpt lat="47.80857" lon="6.90149">
        <ele>507</ele>
        <time>2022-04-05T13:13:39Z</time>
      </trkpt>
      <trkpt lat="47.80861" lon="6.90145">
        <ele>507</ele>
        <time>2022-04-05T13:13:40Z</time>
      </trkpt>
      <trkpt lat="47.80875" lon="6.90127">
        <ele>508</ele>
        <time>2022-04-05T13:13:43Z</time>
      </trkpt>
      <trkpt lat="47.80878" lon="6.90123">
        <ele>509</ele>
        <time>2022-04-05T13:13:44Z</time>
      </trkpt>
      <trkpt lat="47.80888" lon="6.90112">
        <ele>509</ele>
        <time>2022-04-05T13:13:46Z</time>
      </trkpt>
      <trkpt lat="47.80915" lon="6.90088">
        <ele>507</ele>
        <time>2022-04-05T13:13:52Z</time>
      </trkpt>
      <trkpt lat="47.80955" lon="6.9004">
        <ele>508</ele>
        <time>2022-04-05T13:14:01Z</time>
      </trkpt>
      <trkpt lat="47.80966" lon="6.90024">
        <ele>508</ele>
        <time>2022-04-05T13:14:03Z</time>
      </trkpt>
      <trkpt lat="47.80974" lon="6.9">
        <ele>508</ele>
        <time>2022-04-05T13:14:07Z</time>
      </trkpt>
      <trkpt lat="47.80986" lon="6.89944">
        <ele>511</ele>
        <time>2022-04-05T13:14:14Z</time>
      </trkpt>
      <trkpt lat="47.80989" lon="6.89933">
        <ele>511</ele>
        <time>2022-04-05T13:14:15Z</time>
      </trkpt>
      <trkpt lat="47.80997" lon="6.89918">
        <ele>511</ele>
        <time>2022-04-05T13:14:17Z</time>
      </trkpt>
      <trkpt lat="47.81002" lon="6.89912">
        <ele>510</ele>
        <time>2022-04-05T13:14:19Z</time>
      </trkpt>
      <trkpt lat="47.81009" lon="6.89903">
        <ele>511</ele>
        <time>2022-04-05T13:14:20Z</time>
      </trkpt>
      <trkpt lat="47.81021" lon="6.89887">
        <ele>511</ele>
        <time>2022-04-05T13:14:23Z</time>
      </trkpt>
      <trkpt lat="47.81046" lon="6.89829">
        <ele>512</ele>
        <time>2022-04-05T13:14:31Z</time>
      </trkpt>
      <trkpt lat="47.81051" lon="6.89821">
        <ele>512</ele>
        <time>2022-04-05T13:14:33Z</time>
      </trkpt>
      <trkpt lat="47.81061" lon="6.8981">
        <ele>511</ele>
        <time>2022-04-05T13:14:35Z</time>
      </trkpt>
      <trkpt lat="47.81093" lon="6.89784">
        <ele>507</ele>
        <time>2022-04-05T13:14:41Z</time>
      </trkpt>
      <trkpt lat="47.81098" lon="6.89778">
        <ele>507</ele>
        <time>2022-04-05T13:14:42Z</time>
      </trkpt>
      <trkpt lat="47.81103" lon="6.89762">
        <ele>508</ele>
        <time>2022-04-05T13:14:45Z</time>
      </trkpt>
      <trkpt lat="47.81109" lon="6.89723">
        <ele>508</ele>
        <time>2022-04-05T13:14:49Z</time>
      </trkpt>
      <trkpt lat="47.8111" lon="6.89708">
        <ele>509</ele>
        <time>2022-04-05T13:14:51Z</time>
      </trkpt>
      <trkpt lat="47.81109" lon="6.89684">
        <ele>510</ele>
        <time>2022-04-05T13:14:54Z</time>
      </trkpt>
      <trkpt lat="47.81101" lon="6.89619">
        <ele>513</ele>
        <time>2022-04-05T13:15:02Z</time>
      </trkpt>
      <trkpt lat="47.81095" lon="6.89558">
        <ele>516</ele>
        <time>2022-04-05T13:15:09Z</time>
      </trkpt>
      <trkpt lat="47.81096" lon="6.89513">
        <ele>516</ele>
        <time>2022-04-05T13:15:15Z</time>
      </trkpt>
      <trkpt lat="47.81102" lon="6.89326">
        <ele>512</ele>
        <time>2022-04-05T13:15:37Z</time>
      </trkpt>
      <trkpt lat="47.81107" lon="6.89307">
        <ele>512</ele>
        <time>2022-04-05T13:15:39Z</time>
      </trkpt>
      <trkpt lat="47.81115" lon="6.89282">
        <ele>512</ele>
        <time>2022-04-05T13:15:43Z</time>
      </trkpt>
      <trkpt lat="47.81149" lon="6.89206">
        <ele>510</ele>
        <time>2022-04-05T13:15:54Z</time>
      </trkpt>
      <trkpt lat="47.81152" lon="6.89193">
        <ele>511</ele>
        <time>2022-04-05T13:15:55Z</time>
      </trkpt>
      <trkpt lat="47.81174" lon="6.89019">
        <ele>515</ele>
        <time>2022-04-05T13:16:16Z</time>
      </trkpt>
      <trkpt lat="47.81191" lon="6.88976">
        <ele>514</ele>
        <time>2022-04-05T13:16:22Z</time>
      </trkpt>
      <trkpt lat="47.81198" lon="6.88954">
        <ele>514</ele>
        <time>2022-04-05T13:16:25Z</time>
      </trkpt>
      <trkpt lat="47.81213" lon="6.88876">
        <ele>517</ele>
        <time>2022-04-05T13:16:35Z</time>
      </trkpt>
      <trkpt lat="47.81231" lon="6.88824">
        <ele>516</ele>
        <time>2022-04-05T13:16:42Z</time>
      </trkpt>
      <trkpt lat="47.81233" lon="6.88812">
        <ele>517</ele>
        <time>2022-04-05T13:16:44Z</time>
      </trkpt>
      <trkpt lat="47.81237" lon="6.88777">
        <ele>519</ele>
        <time>2022-04-05T13:16:48Z</time>
      </trkpt>
      <trkpt lat="47.8124" lon="6.88761">
        <ele>520</ele>
        <time>2022-04-05T13:16:50Z</time>
      </trkpt>
      <trkpt lat="47.8125" lon="6.88739">
        <ele>519</ele>
        <time>2022-04-05T13:16:53Z</time>
      </trkpt>
      <trkpt lat="47.81296" lon="6.8865">
        <ele>519</ele>
        <time>2022-04-05T13:17:06Z</time>
      </trkpt>
      <trkpt lat="47.81316" lon="6.88584">
        <ele>515</ele>
        <time>2022-04-05T13:17:15Z</time>
      </trkpt>
      <trkpt lat="47.81341" lon="6.88519">
        <ele>514</ele>
        <time>2022-04-05T13:17:24Z</time>
      </trkpt>
      <trkpt lat="47.81347" lon="6.88485">
        <ele>517</ele>
        <time>2022-04-05T13:17:28Z</time>
      </trkpt>
      <trkpt lat="47.81347" lon="6.88467">
        <ele>517</ele>
        <time>2022-04-05T13:17:30Z</time>
      </trkpt>
      <trkpt lat="47.81341" lon="6.88391">
        <ele>521</ele>
        <time>2022-04-05T13:17:39Z</time>
      </trkpt>
      <trkpt lat="47.81336" lon="6.8831">
        <ele>525</ele>
        <time>2022-04-05T13:17:49Z</time>
      </trkpt>
      <trkpt lat="47.81337" lon="6.88293">
        <ele>526</ele>
        <time>2022-04-05T13:17:51Z</time>
      </trkpt>
      <trkpt lat="47.81343" lon="6.88248">
        <ele>529</ele>
        <time>2022-04-05T13:17:57Z</time>
      </trkpt>
      <trkpt lat="47.81347" lon="6.88234">
        <ele>530</ele>
        <time>2022-04-05T13:17:58Z</time>
      </trkpt>
      <trkpt lat="47.81358" lon="6.88203">
        <ele>531</ele>
        <time>2022-04-05T13:18:03Z</time>
      </trkpt>
      <trkpt lat="47.81369" lon="6.88158">
        <ele>533</ele>
        <time>2022-04-05T13:18:08Z</time>
      </trkpt>
      <trkpt lat="47.81372" lon="6.88135">
        <ele>533</ele>
        <time>2022-04-05T13:18:11Z</time>
      </trkpt>
      <trkpt lat="47.81375" lon="6.88059">
        <ele>536</ele>
        <time>2022-04-05T13:18:20Z</time>
      </trkpt>
      <trkpt lat="47.81374" lon="6.88036">
        <ele>537</ele>
        <time>2022-04-05T13:18:23Z</time>
      </trkpt>
      <trkpt lat="47.81371" lon="6.88014">
        <ele>539</ele>
        <time>2022-04-05T13:18:26Z</time>
      </trkpt>
      <trkpt lat="47.8136" lon="6.87964">
        <ele>545</ele>
        <time>2022-04-05T13:18:32Z</time>
      </trkpt>
      <trkpt lat="47.81357" lon="6.87937">
        <ele>548</ele>
        <time>2022-04-05T13:18:35Z</time>
      </trkpt>
      <trkpt lat="47.81354" lon="6.87879">
        <ele>552</ele>
        <time>2022-04-05T13:18:42Z</time>
      </trkpt>
      <trkpt lat="47.81356" lon="6.87854">
        <ele>553</ele>
        <time>2022-04-05T13:18:45Z</time>
      </trkpt>
      <trkpt lat="47.81363" lon="6.87815">
        <ele>554</ele>
        <time>2022-04-05T13:18:50Z</time>
      </trkpt>
      <trkpt lat="47.81366" lon="6.87805">
        <ele>555</ele>
        <time>2022-04-05T13:18:51Z</time>
      </trkpt>
      <trkpt lat="47.8137" lon="6.87788">
        <ele>556</ele>
        <time>2022-04-05T13:18:54Z</time>
      </trkpt>
      <trkpt lat="47.81376" lon="6.87766">
        <ele>557</ele>
        <time>2022-04-05T13:18:56Z</time>
      </trkpt>
      <trkpt lat="47.81386" lon="6.87748">
        <ele>558</ele>
        <time>2022-04-05T13:18:59Z</time>
      </trkpt>
      <trkpt lat="47.81402" lon="6.87733">
        <ele>560</ele>
        <time>2022-04-05T13:19:03Z</time>
      </trkpt>
      <trkpt lat="47.81414" lon="6.87729">
        <ele>559</ele>
        <time>2022-04-05T13:19:05Z</time>
      </trkpt>
      <trkpt lat="47.8145" lon="6.87723">
        <ele>560</ele>
        <time>2022-04-05T13:19:11Z</time>
      </trkpt>
      <trkpt lat="47.81477" lon="6.87726">
        <ele>560</ele>
        <time>2022-04-05T13:19:16Z</time>
      </trkpt>
      <trkpt lat="47.81487" lon="6.87724">
        <ele>560</ele>
        <time>2022-04-05T13:19:18Z</time>
      </trkpt>
      <trkpt lat="47.81508" lon="6.87713">
        <ele>562</ele>
        <time>2022-04-05T13:19:22Z</time>
      </trkpt>
      <trkpt lat="47.81516" lon="6.87713">
        <ele>563</ele>
        <time>2022-04-05T13:19:23Z</time>
      </trkpt>
      <trkpt lat="47.81532" lon="6.87718">
        <ele>563</ele>
        <time>2022-04-05T13:19:26Z</time>
      </trkpt>
      <trkpt lat="47.81543" lon="6.87716">
        <ele>564</ele>
        <time>2022-04-05T13:19:28Z</time>
      </trkpt>
      <trkpt lat="47.81562" lon="6.87701">
        <ele>566</ele>
        <time>2022-04-05T13:19:32Z</time>
      </trkpt>
      <trkpt lat="47.81582" lon="6.87693">
        <ele>567</ele>
        <time>2022-04-05T13:19:36Z</time>
      </trkpt>
      <trkpt lat="47.816" lon="6.87669">
        <ele>570</ele>
        <time>2022-04-05T13:19:40Z</time>
      </trkpt>
      <trkpt lat="47.81602" lon="6.87662">
        <ele>571</ele>
        <time>2022-04-05T13:19:41Z</time>
      </trkpt>
      <trkpt lat="47.816" lon="6.87651">
        <ele>573</ele>
        <time>2022-04-05T13:19:42Z</time>
      </trkpt>
      <trkpt lat="47.81575" lon="6.87635">
        <ele>574</ele>
        <time>2022-04-05T13:19:47Z</time>
      </trkpt>
      <trkpt lat="47.81566" lon="6.87634">
        <ele>574</ele>
        <time>2022-04-05T13:19:49Z</time>
      </trkpt>
      <trkpt lat="47.81558" lon="6.87639">
        <ele>574</ele>
        <time>2022-04-05T13:19:50Z</time>
      </trkpt>
      <trkpt lat="47.8154" lon="6.87662">
        <ele>571</ele>
        <time>2022-04-05T13:19:54Z</time>
      </trkpt>
      <trkpt lat="47.81534" lon="6.87665">
        <ele>570</ele>
        <time>2022-04-05T13:19:55Z</time>
      </trkpt>
      <trkpt lat="47.81529" lon="6.87663">
        <ele>571</ele>
        <time>2022-04-05T13:19:56Z</time>
      </trkpt>
      <trkpt lat="47.81526" lon="6.87657">
        <ele>572</ele>
        <time>2022-04-05T13:19:57Z</time>
      </trkpt>
      <trkpt lat="47.81525" lon="6.87643">
        <ele>575</ele>
        <time>2022-04-05T13:19:59Z</time>
      </trkpt>
      <trkpt lat="47.81526" lon="6.87634">
        <ele>577</ele>
        <time>2022-04-05T13:20:00Z</time>
      </trkpt>
      <trkpt lat="47.8153" lon="6.87624">
        <ele>578</ele>
        <time>2022-04-05T13:20:01Z</time>
      </trkpt>
      <trkpt lat="47.81541" lon="6.87617">
        <ele>579</ele>
        <time>2022-04-05T13:20:04Z</time>
      </trkpt>
      <trkpt lat="47.8156" lon="6.87613">
        <ele>578</ele>
        <time>2022-04-05T13:20:07Z</time>
      </trkpt>
      <trkpt lat="47.81564" lon="6.8761">
        <ele>578</ele>
        <time>2022-04-05T13:20:08Z</time>
      </trkpt>
      <trkpt lat="47.81566" lon="6.87605">
        <ele>579</ele>
        <time>2022-04-05T13:20:08Z</time>
      </trkpt>
      <trkpt lat="47.81567" lon="6.87599">
        <ele>579</ele>
        <time>2022-04-05T13:20:09Z</time>
      </trkpt>
      <trkpt lat="47.81565" lon="6.87594">
        <ele>580</ele>
        <time>2022-04-05T13:20:10Z</time>
      </trkpt>
      <trkpt lat="47.81544" lon="6.87574">
        <ele>586</ele>
        <time>2022-04-05T13:20:14Z</time>
      </trkpt>
      <trkpt lat="47.81537" lon="6.87565">
        <ele>588</ele>
        <time>2022-04-05T13:20:16Z</time>
      </trkpt>
      <trkpt lat="47.81537" lon="6.8755">
        <ele>591</ele>
        <time>2022-04-05T13:20:18Z</time>
      </trkpt>
      <trkpt lat="47.81541" lon="6.87544">
        <ele>591</ele>
        <time>2022-04-05T13:20:19Z</time>
      </trkpt>
      <trkpt lat="47.8155" lon="6.87542">
        <ele>591</ele>
        <time>2022-04-05T13:20:20Z</time>
      </trkpt>
      <trkpt lat="47.81575" lon="6.87544">
        <ele>588</ele>
        <time>2022-04-05T13:20:25Z</time>
      </trkpt>
      <trkpt lat="47.81585" lon="6.87541">
        <ele>588</ele>
        <time>2022-04-05T13:20:27Z</time>
      </trkpt>
      <trkpt lat="47.816" lon="6.87531">
        <ele>590</ele>
        <time>2022-04-05T13:20:30Z</time>
      </trkpt>
      <trkpt lat="47.81609" lon="6.8753">
        <ele>590</ele>
        <time>2022-04-05T13:20:31Z</time>
      </trkpt>
      <trkpt lat="47.81635" lon="6.87551">
        <ele>588</ele>
        <time>2022-04-05T13:20:36Z</time>
      </trkpt>
      <trkpt lat="47.81642" lon="6.87553">
        <ele>589</ele>
        <time>2022-04-05T13:20:38Z</time>
      </trkpt>
      <trkpt lat="47.81653" lon="6.87552">
        <ele>589</ele>
        <time>2022-04-05T13:20:40Z</time>
      </trkpt>
      <trkpt lat="47.81658" lon="6.87547">
        <ele>590</ele>
        <time>2022-04-05T13:20:41Z</time>
      </trkpt>
      <trkpt lat="47.81662" lon="6.8754">
        <ele>591</ele>
        <time>2022-04-05T13:20:42Z</time>
      </trkpt>
      <trkpt lat="47.81679" lon="6.87505">
        <ele>595</ele>
        <time>2022-04-05T13:20:47Z</time>
      </trkpt>
      <trkpt lat="47.81685" lon="6.87497">
        <ele>596</ele>
        <time>2022-04-05T13:20:48Z</time>
      </trkpt>
      <trkpt lat="47.817" lon="6.87495">
        <ele>596</ele>
        <time>2022-04-05T13:20:51Z</time>
      </trkpt>
      <trkpt lat="47.81715" lon="6.87501">
        <ele>597</ele>
        <time>2022-04-05T13:20:54Z</time>
      </trkpt>
      <trkpt lat="47.81719" lon="6.87501">
        <ele>597</ele>
        <time>2022-04-05T13:20:55Z</time>
      </trkpt>
      <trkpt lat="47.81722" lon="6.87499">
        <ele>597</ele>
        <time>2022-04-05T13:20:55Z</time>
      </trkpt>
      <trkpt lat="47.81725" lon="6.8749">
        <ele>597</ele>
        <time>2022-04-05T13:20:56Z</time>
      </trkpt>
      <trkpt lat="47.81725" lon="6.87486">
        <ele>597</ele>
        <time>2022-04-05T13:20:57Z</time>
      </trkpt>
      <trkpt lat="47.81719" lon="6.87477">
        <ele>597</ele>
        <time>2022-04-05T13:20:58Z</time>
      </trkpt>
      <trkpt lat="47.81714" lon="6.87475">
        <ele>597</ele>
        <time>2022-04-05T13:20:59Z</time>
      </trkpt>
      <trkpt lat="47.81675" lon="6.87476">
        <ele>597</ele>
        <time>2022-04-05T13:21:06Z</time>
      </trkpt>
      <trkpt lat="47.81667" lon="6.87474">
        <ele>597</ele>
        <time>2022-04-05T13:21:08Z</time>
      </trkpt>
      <trkpt lat="47.81658" lon="6.87469">
        <ele>598</ele>
        <time>2022-04-05T13:21:09Z</time>
      </trkpt>
      <trkpt lat="47.8165" lon="6.87459">
        <ele>599</ele>
        <time>2022-04-05T13:21:11Z</time>
      </trkpt>
      <trkpt lat="47.81649" lon="6.87453">
        <ele>599</ele>
        <time>2022-04-05T13:21:12Z</time>
      </trkpt>
      <trkpt lat="47.8165" lon="6.87436">
        <ele>601</ele>
        <time>2022-04-05T13:21:14Z</time>
      </trkpt>
      <trkpt lat="47.81655" lon="6.87413">
        <ele>602</ele>
        <time>2022-04-05T13:21:17Z</time>
      </trkpt>
      <trkpt lat="47.81656" lon="6.87407">
        <ele>603</ele>
        <time>2022-04-05T13:21:18Z</time>
      </trkpt>
      <trkpt lat="47.81652" lon="6.87396">
        <ele>605</ele>
        <time>2022-04-05T13:21:19Z</time>
      </trkpt>
      <trkpt lat="47.81649" lon="6.87391">
        <ele>605</ele>
        <time>2022-04-05T13:21:20Z</time>
      </trkpt>
      <trkpt lat="47.81597" lon="6.87364">
        <ele>612</ele>
        <time>2022-04-05T13:21:30Z</time>
      </trkpt>
      <trkpt lat="47.81582" lon="6.87359">
        <ele>614</ele>
        <time>2022-04-05T13:21:33Z</time>
      </trkpt>
      <trkpt lat="47.81576" lon="6.87361">
        <ele>615</ele>
        <time>2022-04-05T13:21:34Z</time>
      </trkpt>
      <trkpt lat="47.8156" lon="6.87387">
        <ele>615</ele>
        <time>2022-04-05T13:21:38Z</time>
      </trkpt>
      <trkpt lat="47.8155" lon="6.87401">
        <ele>614</ele>
        <time>2022-04-05T13:21:40Z</time>
      </trkpt>
      <trkpt lat="47.8154" lon="6.87406">
        <ele>614</ele>
        <time>2022-04-05T13:21:42Z</time>
      </trkpt>
      <trkpt lat="47.81527" lon="6.87404">
        <ele>616</ele>
        <time>2022-04-05T13:21:44Z</time>
      </trkpt>
      <trkpt lat="47.8152" lon="6.87401">
        <ele>617</ele>
        <time>2022-04-05T13:21:46Z</time>
      </trkpt>
      <trkpt lat="47.81514" lon="6.87394">
        <ele>620</ele>
        <time>2022-04-05T13:21:47Z</time>
      </trkpt>
      <trkpt lat="47.8151" lon="6.87384">
        <ele>624</ele>
        <time>2022-04-05T13:21:48Z</time>
      </trkpt>
      <trkpt lat="47.81508" lon="6.8737">
        <ele>628</ele>
        <time>2022-04-05T13:21:50Z</time>
      </trkpt>
      <trkpt lat="47.81513" lon="6.87351">
        <ele>632</ele>
        <time>2022-04-05T13:21:53Z</time>
      </trkpt>
      <trkpt lat="47.81526" lon="6.87334">
        <ele>633</ele>
        <time>2022-04-05T13:21:56Z</time>
      </trkpt>
      <trkpt lat="47.81542" lon="6.87305">
        <ele>635</ele>
        <time>2022-04-05T13:22:00Z</time>
      </trkpt>
      <trkpt lat="47.81555" lon="6.87273">
        <ele>635</ele>
        <time>2022-04-05T13:22:05Z</time>
      </trkpt>
      <trkpt lat="47.81573" lon="6.87202">
        <ele>642</ele>
        <time>2022-04-05T13:22:14Z</time>
      </trkpt>
      <trkpt lat="47.8159" lon="6.87164">
        <ele>643</ele>
        <time>2022-04-05T13:22:19Z</time>
      </trkpt>
      <trkpt lat="47.81615" lon="6.87119">
        <ele>639</ele>
        <time>2022-04-05T13:22:26Z</time>
      </trkpt>
      <trkpt lat="47.81619" lon="6.87103">
        <ele>639</ele>
        <time>2022-04-05T13:22:28Z</time>
      </trkpt>
      <trkpt lat="47.81616" lon="6.87007">
        <ele>649</ele>
        <time>2022-04-05T13:22:40Z</time>
      </trkpt>
      <trkpt lat="47.81623" lon="6.86986">
        <ele>649</ele>
        <time>2022-04-05T13:22:43Z</time>
      </trkpt>
      <trkpt lat="47.81639" lon="6.86959">
        <ele>645</ele>
        <time>2022-04-05T13:22:47Z</time>
      </trkpt>
      <trkpt lat="47.81653" lon="6.86915">
        <ele>645</ele>
        <time>2022-04-05T13:22:53Z</time>
      </trkpt>
      <trkpt lat="47.81656" lon="6.86883">
        <ele>647</ele>
        <time>2022-04-05T13:22:56Z</time>
      </trkpt>
      <trkpt lat="47.81654" lon="6.86837">
        <ele>651</ele>
        <time>2022-04-05T13:23:02Z</time>
      </trkpt>
      <trkpt lat="47.81646" lon="6.86774">
        <ele>657</ele>
        <time>2022-04-05T13:23:10Z</time>
      </trkpt>
      <trkpt lat="47.81637" lon="6.86731">
        <ele>661</ele>
        <time>2022-04-05T13:23:15Z</time>
      </trkpt>
      <trkpt lat="47.81623" lon="6.86692">
        <ele>666</ele>
        <time>2022-04-05T13:23:20Z</time>
      </trkpt>
      <trkpt lat="47.81604" lon="6.86642">
        <ele>673</ele>
        <time>2022-04-05T13:23:27Z</time>
      </trkpt>
      <trkpt lat="47.81602" lon="6.8663">
        <ele>673</ele>
        <time>2022-04-05T13:23:29Z</time>
      </trkpt>
      <trkpt lat="47.81603" lon="6.8662">
        <ele>673</ele>
        <time>2022-04-05T13:23:30Z</time>
      </trkpt>
      <trkpt lat="47.81616" lon="6.86595">
        <ele>669</ele>
        <time>2022-04-05T13:23:34Z</time>
      </trkpt>
      <trkpt lat="47.81618" lon="6.86584">
        <ele>668</ele>
        <time>2022-04-05T13:23:35Z</time>
      </trkpt>
      <trkpt lat="47.81615" lon="6.86543">
        <ele>670</ele>
        <time>2022-04-05T13:23:40Z</time>
      </trkpt>
      <trkpt lat="47.81611" lon="6.8653">
        <ele>671</ele>
        <time>2022-04-05T13:23:42Z</time>
      </trkpt>
      <trkpt lat="47.81601" lon="6.86504">
        <ele>674</ele>
        <time>2022-04-05T13:23:45Z</time>
      </trkpt>
      <trkpt lat="47.81582" lon="6.86474">
        <ele>678</ele>
        <time>2022-04-05T13:23:50Z</time>
      </trkpt>
      <trkpt lat="47.81543" lon="6.86401">
        <ele>690</ele>
        <time>2022-04-05T13:24:01Z</time>
      </trkpt>
      <trkpt lat="47.81481" lon="6.86298">
        <ele>701</ele>
        <time>2022-04-05T13:24:18Z</time>
      </trkpt>
      <trkpt lat="47.81468" lon="6.86268">
        <ele>704</ele>
        <time>2022-04-05T13:24:22Z</time>
      </trkpt>
      <trkpt lat="47.81456" lon="6.86202">
        <ele>705</ele>
        <time>2022-04-05T13:24:30Z</time>
      </trkpt>
      <trkpt lat="47.81459" lon="6.86176">
        <ele>704</ele>
        <time>2022-04-05T13:24:33Z</time>
      </trkpt>
      <trkpt lat="47.81466" lon="6.86139">
        <ele>701</ele>
        <time>2022-04-05T13:24:38Z</time>
      </trkpt>
      <trkpt lat="47.81465" lon="6.86106">
        <ele>700</ele>
        <time>2022-04-05T13:24:42Z</time>
      </trkpt>
      <trkpt lat="47.81467" lon="6.86086">
        <ele>699</ele>
        <time>2022-04-05T13:24:44Z</time>
      </trkpt>
      <trkpt lat="47.81472" lon="6.86083">
        <ele>698</ele>
        <time>2022-04-05T13:24:45Z</time>
      </trkpt>
      <trkpt lat="47.81483" lon="6.86081">
        <ele>696</ele>
        <time>2022-04-05T13:24:47Z</time>
      </trkpt>
      <trkpt lat="47.81508" lon="6.86074">
        <ele>696</ele>
        <time>2022-04-05T13:24:52Z</time>
      </trkpt>
      <trkpt lat="47.81512" lon="6.86068">
        <ele>697</ele>
        <time>2022-04-05T13:24:53Z</time>
      </trkpt>
      <trkpt lat="47.81517" lon="6.86054">
        <ele>699</ele>
        <time>2022-04-05T13:24:55Z</time>
      </trkpt>
      <trkpt lat="47.81525" lon="6.86005">
        <ele>704</ele>
        <time>2022-04-05T13:25:01Z</time>
      </trkpt>
      <trkpt lat="47.81527" lon="6.85973">
        <ele>706</ele>
        <time>2022-04-05T13:25:05Z</time>
      </trkpt>
      <trkpt lat="47.8153" lon="6.85962">
        <ele>707</ele>
        <time>2022-04-05T13:25:06Z</time>
      </trkpt>
      <trkpt lat="47.81538" lon="6.85944">
        <ele>710</ele>
        <time>2022-04-05T13:25:09Z</time>
      </trkpt>
      <trkpt lat="47.81551" lon="6.85927">
        <ele>715</ele>
        <time>2022-04-05T13:25:12Z</time>
      </trkpt>
      <trkpt lat="47.81554" lon="6.85921">
        <ele>716</ele>
        <time>2022-04-05T13:25:13Z</time>
      </trkpt>
      <trkpt lat="47.81556" lon="6.85905">
        <ele>717</ele>
        <time>2022-04-05T13:25:15Z</time>
      </trkpt>
      <trkpt lat="47.81559" lon="6.8585">
        <ele>720</ele>
        <time>2022-04-05T13:25:21Z</time>
      </trkpt>
      <trkpt lat="47.81563" lon="6.85831">
        <ele>721</ele>
        <time>2022-04-05T13:25:23Z</time>
      </trkpt>
      <trkpt lat="47.81588" lon="6.85769">
        <ele>724</ele>
        <time>2022-04-05T13:25:32Z</time>
      </trkpt>
      <trkpt lat="47.81595" lon="6.85723">
        <ele>723</ele>
        <time>2022-04-05T13:25:38Z</time>
      </trkpt>
      <trkpt lat="47.81612" lon="6.85685">
        <ele>728</ele>
        <time>2022-04-05T13:25:43Z</time>
      </trkpt>
      <trkpt lat="47.8163" lon="6.85652">
        <ele>734</ele>
        <time>2022-04-05T13:25:48Z</time>
      </trkpt>
      <trkpt lat="47.81669" lon="6.85524">
        <ele>740</ele>
        <time>2022-04-05T13:26:05Z</time>
      </trkpt>
      <trkpt lat="47.8167" lon="6.85507">
        <ele>739</ele>
        <time>2022-04-05T13:26:07Z</time>
      </trkpt>
      <trkpt lat="47.81668" lon="6.85431">
        <ele>743</ele>
        <time>2022-04-05T13:26:16Z</time>
      </trkpt>
      <trkpt lat="47.8167" lon="6.85422">
        <ele>744</ele>
        <time>2022-04-05T13:26:17Z</time>
      </trkpt>
      <trkpt lat="47.8168" lon="6.85402">
        <ele>753</ele>
        <time>2022-04-05T13:26:20Z</time>
      </trkpt>
      <trkpt lat="47.8168" lon="6.85397">
        <ele>754</ele>
        <time>2022-04-05T13:26:21Z</time>
      </trkpt>
      <trkpt lat="47.81677" lon="6.85382">
        <ele>755</ele>
        <time>2022-04-05T13:26:23Z</time>
      </trkpt>
      <trkpt lat="47.81659" lon="6.85373">
        <ele>750</ele>
        <time>2022-04-05T13:26:26Z</time>
      </trkpt>
      <trkpt lat="47.81655" lon="6.85369">
        <ele>750</ele>
        <time>2022-04-05T13:26:27Z</time>
      </trkpt>
      <trkpt lat="47.81651" lon="6.85358">
        <ele>751</ele>
        <time>2022-04-05T13:26:29Z</time>
      </trkpt>
      <trkpt lat="47.81644" lon="6.85331">
        <ele>756</ele>
        <time>2022-04-05T13:26:32Z</time>
      </trkpt>
      <trkpt lat="47.81629" lon="6.8529">
        <ele>764</ele>
        <time>2022-04-05T13:26:38Z</time>
      </trkpt>
      <trkpt lat="47.81613" lon="6.85258">
        <ele>769</ele>
        <time>2022-04-05T13:26:42Z</time>
      </trkpt>
      <trkpt lat="47.81599" lon="6.85242">
        <ele>771</ele>
        <time>2022-04-05T13:26:45Z</time>
      </trkpt>
      <trkpt lat="47.81587" lon="6.85238">
        <ele>769</ele>
        <time>2022-04-05T13:26:48Z</time>
      </trkpt>
      <trkpt lat="47.8156" lon="6.85243">
        <ele>772</ele>
        <time>2022-04-05T13:26:52Z</time>
      </trkpt>
      <trkpt lat="47.8153" lon="6.85251">
        <ele>776</ele>
        <time>2022-04-05T13:26:58Z</time>
      </trkpt>
      <trkpt lat="47.81513" lon="6.85265">
        <ele>776</ele>
        <time>2022-04-05T13:27:01Z</time>
      </trkpt>
      <trkpt lat="47.81494" lon="6.85302">
        <ele>768</ele>
        <time>2022-04-05T13:27:07Z</time>
      </trkpt>
      <trkpt lat="47.81476" lon="6.85309">
        <ele>772</ele>
        <time>2022-04-05T13:27:10Z</time>
      </trkpt>
      <trkpt lat="47.81451" lon="6.85328">
        <ele>774</ele>
        <time>2022-04-05T13:27:15Z</time>
      </trkpt>
      <trkpt lat="47.81428" lon="6.85326">
        <ele>782</ele>
        <time>2022-04-05T13:27:19Z</time>
      </trkpt>
      <trkpt lat="47.81413" lon="6.85337">
        <ele>783</ele>
        <time>2022-04-05T13:27:22Z</time>
      </trkpt>
      <trkpt lat="47.81396" lon="6.85353">
        <ele>784</ele>
        <time>2022-04-05T13:27:26Z</time>
      </trkpt>
      <trkpt lat="47.81361" lon="6.85375">
        <ele>789</ele>
        <time>2022-04-05T13:27:33Z</time>
      </trkpt>
      <trkpt lat="47.81342" lon="6.85393">
        <ele>791</ele>
        <time>2022-04-05T13:27:37Z</time>
      </trkpt>
      <trkpt lat="47.81333" lon="6.85424">
        <ele>788</ele>
        <time>2022-04-05T13:27:41Z</time>
      </trkpt>
      <trkpt lat="47.81315" lon="6.85453">
        <ele>795</ele>
        <time>2022-04-05T13:27:45Z</time>
      </trkpt>
      <trkpt lat="47.81305" lon="6.85522">
        <ele>800</ele>
        <time>2022-04-05T13:27:54Z</time>
      </trkpt>
      <trkpt lat="47.81304" lon="6.85571">
        <ele>802</ele>
        <time>2022-04-05T13:28:00Z</time>
      </trkpt>
      <trkpt lat="47.81297" lon="6.85627">
        <ele>806</ele>
        <time>2022-04-05T13:28:07Z</time>
      </trkpt>
      <trkpt lat="47.81282" lon="6.85653">
        <ele>815</ele>
        <time>2022-04-05T13:28:11Z</time>
      </trkpt>
      <trkpt lat="47.81274" lon="6.85683">
        <ele>819</ele>
        <time>2022-04-05T13:28:14Z</time>
      </trkpt>
      <trkpt lat="47.81269" lon="6.85736">
        <ele>822</ele>
        <time>2022-04-05T13:28:21Z</time>
      </trkpt>
      <trkpt lat="47.81267" lon="6.85794">
        <ele>821</ele>
        <time>2022-04-05T13:28:28Z</time>
      </trkpt>
      <trkpt lat="47.81261" lon="6.85861">
        <ele>822</ele>
        <time>2022-04-05T13:28:36Z</time>
      </trkpt>
      <trkpt lat="47.81226" lon="6.86056">
        <ele>835</ele>
        <time>2022-04-05T13:29:00Z</time>
      </trkpt>
      <trkpt lat="47.81204" lon="6.86143">
        <ele>847</ele>
        <time>2022-04-05T13:29:11Z</time>
      </trkpt>
      <trkpt lat="47.81199" lon="6.86207">
        <ele>853</ele>
        <time>2022-04-05T13:29:19Z</time>
      </trkpt>
      <trkpt lat="47.81214" lon="6.86277">
        <ele>848</ele>
        <time>2022-04-05T13:29:28Z</time>
      </trkpt>
      <trkpt lat="47.81221" lon="6.8633">
        <ele>848</ele>
        <time>2022-04-05T13:29:34Z</time>
      </trkpt>
      <trkpt lat="47.81225" lon="6.86465">
        <ele>858</ele>
        <time>2022-04-05T13:29:50Z</time>
      </trkpt>
      <trkpt lat="47.81217" lon="6.86514">
        <ele>866</ele>
        <time>2022-04-05T13:29:56Z</time>
      </trkpt>
      <trkpt lat="47.81225" lon="6.86572">
        <ele>866</ele>
        <time>2022-04-05T13:30:03Z</time>
      </trkpt>
      <trkpt lat="47.81234" lon="6.86605">
        <ele>863</ele>
        <time>2022-04-05T13:30:08Z</time>
      </trkpt>
      <trkpt lat="47.81252" lon="6.86713">
        <ele>868</ele>
        <time>2022-04-05T13:30:21Z</time>
      </trkpt>
      <trkpt lat="47.81261" lon="6.86757">
        <ele>873</ele>
        <time>2022-04-05T13:30:26Z</time>
      </trkpt>
      <trkpt lat="47.81281" lon="6.8682">
        <ele>870</ele>
        <time>2022-04-05T13:30:35Z</time>
      </trkpt>
      <trkpt lat="47.8128" lon="6.8684">
        <ele>873</ele>
        <time>2022-04-05T13:30:37Z</time>
      </trkpt>
      <trkpt lat="47.81268" lon="6.86876">
        <ele>882</ele>
        <time>2022-04-05T13:30:42Z</time>
      </trkpt>
      <trkpt lat="47.81235" lon="6.87002">
        <ele>892</ele>
        <time>2022-04-05T13:30:58Z</time>
      </trkpt>
      <trkpt lat="47.81212" lon="6.87043">
        <ele>895</ele>
        <time>2022-04-05T13:31:04Z</time>
      </trkpt>
      <trkpt lat="47.81199" lon="6.87077">
        <ele>895</ele>
        <time>2022-04-05T13:31:09Z</time>
      </trkpt>
      <trkpt lat="47.81191" lon="6.87105">
        <ele>891</ele>
        <time>2022-04-05T13:31:13Z</time>
      </trkpt>
      <trkpt lat="47.81184" lon="6.87116">
        <ele>890</ele>
        <time>2022-04-05T13:31:15Z</time>
      </trkpt>
      <trkpt lat="47.81176" lon="6.87118">
        <ele>892</ele>
        <time>2022-04-05T13:31:16Z</time>
      </trkpt>
      <trkpt lat="47.81128" lon="6.87123">
        <ele>899</ele>
        <time>2022-04-05T13:31:25Z</time>
      </trkpt>
      <trkpt lat="47.8112" lon="6.87122">
        <ele>900</ele>
        <time>2022-04-05T13:31:26Z</time>
      </trkpt>
      <trkpt lat="47.81103" lon="6.87112">
        <ele>906</ele>
        <time>2022-04-05T13:31:29Z</time>
      </trkpt>
      <trkpt lat="47.81083" lon="6.87107">
        <ele>910</ele>
        <time>2022-04-05T13:31:33Z</time>
      </trkpt>
      <trkpt lat="47.81032" lon="6.8712">
        <ele>908</ele>
        <time>2022-04-05T13:31:42Z</time>
      </trkpt>
      <trkpt lat="47.81019" lon="6.87119">
        <ele>909</ele>
        <time>2022-04-05T13:31:44Z</time>
      </trkpt>
      <trkpt lat="47.81009" lon="6.87107">
        <ele>912</ele>
        <time>2022-04-05T13:31:47Z</time>
      </trkpt>
      <trkpt lat="47.80991" lon="6.87076">
        <ele>921</ele>
        <time>2022-04-05T13:31:52Z</time>
      </trkpt>
      <trkpt lat="47.80981" lon="6.87061">
        <ele>924</ele>
        <time>2022-04-05T13:31:54Z</time>
      </trkpt>
      <trkpt lat="47.80972" lon="6.87059">
        <ele>925</ele>
        <time>2022-04-05T13:31:56Z</time>
      </trkpt>
      <trkpt lat="47.80944" lon="6.87063">
        <ele>922</ele>
        <time>2022-04-05T13:32:01Z</time>
      </trkpt>
      <trkpt lat="47.80935" lon="6.87061">
        <ele>922</ele>
        <time>2022-04-05T13:32:02Z</time>
      </trkpt>
      <trkpt lat="47.80882" lon="6.87027">
        <ele>930</ele>
        <time>2022-04-05T13:32:13Z</time>
      </trkpt>
      <trkpt lat="47.80847" lon="6.87017">
        <ele>931</ele>
        <time>2022-04-05T13:32:19Z</time>
      </trkpt>
      <trkpt lat="47.80824" lon="6.87008">
        <ele>933</ele>
        <time>2022-04-05T13:32:23Z</time>
      </trkpt>
      <trkpt lat="47.80796" lon="6.8702">
        <ele>938</ele>
        <time>2022-04-05T13:32:28Z</time>
      </trkpt>
      <trkpt lat="47.80775" lon="6.87035">
        <ele>942</ele>
        <time>2022-04-05T13:32:32Z</time>
      </trkpt>
      <trkpt lat="47.80739" lon="6.87089">
        <ele>946</ele>
        <time>2022-04-05T13:32:42Z</time>
      </trkpt>
      <trkpt lat="47.807" lon="6.87128">
        <ele>949</ele>
        <time>2022-04-05T13:32:50Z</time>
      </trkpt>
      <trkpt lat="47.80669" lon="6.87169">
        <ele>950</ele>
        <time>2022-04-05T13:32:57Z</time>
      </trkpt>
      <trkpt lat="47.80642" lon="6.87182">
        <ele>952</ele>
        <time>2022-04-05T13:33:02Z</time>
      </trkpt>
      <trkpt lat="47.80608" lon="6.87188">
        <ele>958</ele>
        <time>2022-04-05T13:33:08Z</time>
      </trkpt>
      <trkpt lat="47.80598" lon="6.87191">
        <ele>959</ele>
        <time>2022-04-05T13:33:10Z</time>
      </trkpt>
      <trkpt lat="47.80577" lon="6.87206">
        <ele>959</ele>
        <time>2022-04-05T13:33:14Z</time>
      </trkpt>
      <trkpt lat="47.80554" lon="6.8723">
        <ele>954</ele>
        <time>2022-04-05T13:33:19Z</time>
      </trkpt>
      <trkpt lat="47.80547" lon="6.87235">
        <ele>953</ele>
        <time>2022-04-05T13:33:21Z</time>
      </trkpt>
      <trkpt lat="47.80539" lon="6.87237">
        <ele>953</ele>
        <time>2022-04-05T13:33:22Z</time>
      </trkpt>
      <trkpt lat="47.80533" lon="6.87235">
        <ele>954</ele>
        <time>2022-04-05T13:33:23Z</time>
      </trkpt>
      <trkpt lat="47.80527" lon="6.87228">
        <ele>955</ele>
        <time>2022-04-05T13:33:25Z</time>
      </trkpt>
      <trkpt lat="47.80522" lon="6.87213">
        <ele>956</ele>
        <time>2022-04-05T13:33:27Z</time>
      </trkpt>
      <trkpt lat="47.80514" lon="6.8712">
        <ele>963</ele>
        <time>2022-04-05T13:33:38Z</time>
      </trkpt>
      <trkpt lat="47.80517" lon="6.87091">
        <ele>964</ele>
        <time>2022-04-05T13:33:41Z</time>
      </trkpt>
      <trkpt lat="47.8053" lon="6.87034">
        <ele>966</ele>
        <time>2022-04-05T13:33:49Z</time>
      </trkpt>
      <trkpt lat="47.80538" lon="6.87016">
        <ele>967</ele>
        <time>2022-04-05T13:33:51Z</time>
      </trkpt>
      <trkpt lat="47.80546" lon="6.87004">
        <ele>968</ele>
        <time>2022-04-05T13:33:53Z</time>
      </trkpt>
      <trkpt lat="47.80616" lon="6.86913">
        <ele>978</ele>
        <time>2022-04-05T13:34:10Z</time>
      </trkpt>
      <trkpt lat="47.80633" lon="6.86887">
        <ele>981</ele>
        <time>2022-04-05T13:34:14Z</time>
      </trkpt>
      <trkpt lat="47.80636" lon="6.86877">
        <ele>982</ele>
        <time>2022-04-05T13:34:15Z</time>
      </trkpt>
      <trkpt lat="47.80639" lon="6.86855">
        <ele>984</ele>
        <time>2022-04-05T13:34:18Z</time>
      </trkpt>
      <trkpt lat="47.80639" lon="6.86843">
        <ele>985</ele>
        <time>2022-04-05T13:34:19Z</time>
      </trkpt>
      <trkpt lat="47.80616" lon="6.8669">
        <ele>998</ele>
        <time>2022-04-05T13:34:38Z</time>
      </trkpt>
      <trkpt lat="47.80608" lon="6.86614">
        <ele>1004</ele>
        <time>2022-04-05T13:34:47Z</time>
      </trkpt>
      <trkpt lat="47.80596" lon="6.86386">
        <ele>1023</ele>
        <time>2022-04-05T13:35:15Z</time>
      </trkpt>
      <trkpt lat="47.80601" lon="6.862">
        <ele>1037</ele>
        <time>2022-04-05T13:35:37Z</time>
      </trkpt>
      <trkpt lat="47.80585" lon="6.85938">
        <ele>1049</ele>
        <time>2022-04-05T13:36:08Z</time>
      </trkpt>
      <trkpt lat="47.80591" lon="6.85834">
        <ele>1049</ele>
        <time>2022-04-05T13:36:21Z</time>
      </trkpt>
      <trkpt lat="47.80589" lon="6.85795">
        <ele>1049</ele>
        <time>2022-04-05T13:36:26Z</time>
      </trkpt>
      <trkpt lat="47.80585" lon="6.85765">
        <ele>1049</ele>
        <time>2022-04-05T13:36:29Z</time>
      </trkpt>
      <trkpt lat="47.80573" lon="6.85698">
        <ele>1050</ele>
        <time>2022-04-05T13:36:38Z</time>
      </trkpt>
      <trkpt lat="47.80554" lon="6.8561">
        <ele>1052</ele>
        <time>2022-04-05T13:36:49Z</time>
      </trkpt>
      <trkpt lat="47.80546" lon="6.85543">
        <ele>1055</ele>
        <time>2022-04-05T13:36:57Z</time>
      </trkpt>
      <trkpt lat="47.80541" lon="6.85477">
        <ele>1059</ele>
        <time>2022-04-05T13:37:05Z</time>
      </trkpt>
      <trkpt lat="47.80526" lon="6.85409">
        <ele>1061</ele>
        <time>2022-04-05T13:37:13Z</time>
      </trkpt>
      <trkpt lat="47.80505" lon="6.85364">
        <ele>1062</ele>
        <time>2022-04-05T13:37:20Z</time>
      </trkpt>
      <trkpt lat="47.80469" lon="6.85298">
        <ele>1063</ele>
        <time>2022-04-05T13:37:30Z</time>
      </trkpt>
      <trkpt lat="47.80425" lon="6.85227">
        <ele>1062</ele>
        <time>2022-04-05T13:37:41Z</time>
      </trkpt>
      <trkpt lat="47.80408" lon="6.8519">
        <ele>1062</ele>
        <time>2022-04-05T13:37:47Z</time>
      </trkpt>
      <trkpt lat="47.80384" lon="6.85124">
        <ele>1068</ele>
        <time>2022-04-05T13:37:56Z</time>
      </trkpt>
      <trkpt lat="47.80363" lon="6.85074">
        <ele>1071</ele>
        <time>2022-04-05T13:38:03Z</time>
      </trkpt>
      <trkpt lat="47.80341" lon="6.8504">
        <ele>1070</ele>
        <time>2022-04-05T13:38:08Z</time>
      </trkpt>
      <trkpt lat="47.80305" lon="6.84999">
        <ele>1069</ele>
        <time>2022-04-05T13:38:17Z</time>
      </trkpt>
      <trkpt lat="47.80296" lon="6.84983">
        <ele>1068</ele>
        <time>2022-04-05T13:38:19Z</time>
      </trkpt>
      <trkpt lat="47.8029" lon="6.84969">
        <ele>1068</ele>
        <time>2022-04-05T13:38:21Z</time>
      </trkpt>
      <trkpt lat="47.80281" lon="6.8493">
        <ele>1069</ele>
        <time>2022-04-05T13:38:26Z</time>
      </trkpt>
      <trkpt lat="47.80279" lon="6.84895">
        <ele>1071</ele>
        <time>2022-04-05T13:38:30Z</time>
      </trkpt>
      <trkpt lat="47.80279" lon="6.84866">
        <ele>1072</ele>
        <time>2022-04-05T13:38:34Z</time>
      </trkpt>
      <trkpt lat="47.8028" lon="6.84845">
        <ele>1074</ele>
        <time>2022-04-05T13:38:36Z</time>
      </trkpt>
      <trkpt lat="47.80282" lon="6.84819">
        <ele>1074</ele>
        <time>2022-04-05T13:38:39Z</time>
      </trkpt>
      <trkpt lat="47.80286" lon="6.84798">
        <ele>1075</ele>
        <time>2022-04-05T13:38:42Z</time>
      </trkpt>
      <trkpt lat="47.80292" lon="6.84778">
        <ele>1075</ele>
        <time>2022-04-05T13:38:44Z</time>
      </trkpt>
      <trkpt lat="47.80297" lon="6.84765">
        <ele>1076</ele>
        <time>2022-04-05T13:38:46Z</time>
      </trkpt>
      <trkpt lat="47.80303" lon="6.84754">
        <ele>1077</ele>
        <time>2022-04-05T13:38:48Z</time>
      </trkpt>
      <trkpt lat="47.80314" lon="6.84735">
        <ele>1077</ele>
        <time>2022-04-05T13:38:51Z</time>
      </trkpt>
      <trkpt lat="47.80338" lon="6.84707">
        <ele>1076</ele>
        <time>2022-04-05T13:38:56Z</time>
      </trkpt>
      <trkpt lat="47.80362" lon="6.84694">
        <ele>1075</ele>
        <time>2022-04-05T13:39:01Z</time>
      </trkpt>
      <trkpt lat="47.80377" lon="6.84692">
        <ele>1075</ele>
        <time>2022-04-05T13:39:04Z</time>
      </trkpt>
      <trkpt lat="47.8039" lon="6.84693">
        <ele>1076</ele>
        <time>2022-04-05T13:39:06Z</time>
      </trkpt>
      <trkpt lat="47.80407" lon="6.84699">
        <ele>1078</ele>
        <time>2022-04-05T13:39:09Z</time>
      </trkpt>
      <trkpt lat="47.80503" lon="6.84768">
        <ele>1090</ele>
        <time>2022-04-05T13:39:28Z</time>
      </trkpt>
      <trkpt lat="47.80554" lon="6.84798">
        <ele>1093</ele>
        <time>2022-04-05T13:39:38Z</time>
      </trkpt>
      <trkpt lat="47.80571" lon="6.84804">
        <ele>1094</ele>
        <time>2022-04-05T13:39:41Z</time>
      </trkpt>
      <trkpt lat="47.80602" lon="6.84815">
        <ele>1094</ele>
        <time>2022-04-05T13:39:47Z</time>
      </trkpt>
      <trkpt lat="47.80653" lon="6.84826">
        <ele>1093</ele>
        <time>2022-04-05T13:39:56Z</time>
      </trkpt>
      <trkpt lat="47.80689" lon="6.8483">
        <ele>1091</ele>
        <time>2022-04-05T13:40:02Z</time>
      </trkpt>
      <trkpt lat="47.80724" lon="6.84831">
        <ele>1090</ele>
        <time>2022-04-05T13:40:08Z</time>
      </trkpt>
      <trkpt lat="47.80757" lon="6.84829">
        <ele>1088</ele>
        <time>2022-04-05T13:40:14Z</time>
      </trkpt>
      <trkpt lat="47.80774" lon="6.84826">
        <ele>1087</ele>
        <time>2022-04-05T13:40:17Z</time>
      </trkpt>
      <trkpt lat="47.80776" lon="6.84825">
        <ele>1087</ele>
        <time>2022-04-05T13:40:18Z</time>
      </trkpt>
      <trkpt lat="47.80806" lon="6.84819">
        <ele>1086</ele>
        <time>2022-04-05T13:40:23Z</time>
      </trkpt>
      <trkpt lat="47.80821" lon="6.84815">
        <ele>1085</ele>
        <time>2022-04-05T13:40:26Z</time>
      </trkpt>
      <trkpt lat="47.80876" lon="6.84802">
        <ele>1086</ele>
        <time>2022-04-05T13:40:36Z</time>
      </trkpt>
      <trkpt lat="47.80897" lon="6.84798">
        <ele>1087</ele>
        <time>2022-04-05T13:40:39Z</time>
      </trkpt>
      <trkpt lat="47.80912" lon="6.84794">
        <ele>1088</ele>
        <time>2022-04-05T13:40:42Z</time>
      </trkpt>
      <trkpt lat="47.80929" lon="6.84787">
        <ele>1089</ele>
        <time>2022-04-05T13:40:45Z</time>
      </trkpt>
      <trkpt lat="47.80956" lon="6.84767">
        <ele>1091</ele>
        <time>2022-04-05T13:40:51Z</time>
      </trkpt>
      <trkpt lat="47.80971" lon="6.8475">
        <ele>1094</ele>
        <time>2022-04-05T13:40:54Z</time>
      </trkpt>
      <trkpt lat="47.80994" lon="6.8472">
        <ele>1092</ele>
        <time>2022-04-05T13:40:59Z</time>
      </trkpt>
      <trkpt lat="47.81015" lon="6.84683">
        <ele>1089</ele>
        <time>2022-04-05T13:41:05Z</time>
      </trkpt>
      <trkpt lat="47.81015" lon="6.84672">
        <ele>1088</ele>
        <time>2022-04-05T13:41:07Z</time>
      </trkpt>
      <trkpt lat="47.81012" lon="6.84662">
        <ele>1087</ele>
        <time>2022-04-05T13:41:08Z</time>
      </trkpt>
      <trkpt lat="47.81006" lon="6.84652">
        <ele>1086</ele>
        <time>2022-04-05T13:41:09Z</time>
      </trkpt>
      <trkpt lat="47.81002" lon="6.84648">
        <ele>1086</ele>
        <time>2022-04-05T13:41:10Z</time>
      </trkpt>
      <trkpt lat="47.81011" lon="6.8463">
        <ele>1086</ele>
        <time>2022-04-05T13:41:13Z</time>
      </trkpt>
      <trkpt lat="47.81016" lon="6.84617">
        <ele>1086</ele>
        <time>2022-04-05T13:41:15Z</time>
      </trkpt>
      <trkpt lat="47.81019" lon="6.84604">
        <ele>1086</ele>
        <time>2022-04-05T13:41:16Z</time>
      </trkpt>
      <trkpt lat="47.81021" lon="6.8459">
        <ele>1086</ele>
        <time>2022-04-05T13:41:18Z</time>
      </trkpt>
      <trkpt lat="47.81026" lon="6.84532">
        <ele>1092</ele>
        <time>2022-04-05T13:41:25Z</time>
      </trkpt>
      <trkpt lat="47.81029" lon="6.84499">
        <ele>1096</ele>
        <time>2022-04-05T13:41:29Z</time>
      </trkpt>
      <trkpt lat="47.81032" lon="6.84459">
        <ele>1098</ele>
        <time>2022-04-05T13:41:34Z</time>
      </trkpt>
      <trkpt lat="47.81032" lon="6.844">
        <ele>1101</ele>
        <time>2022-04-05T13:41:41Z</time>
      </trkpt>
      <trkpt lat="47.81023" lon="6.84284">
        <ele>1107</ele>
        <time>2022-04-05T13:41:55Z</time>
      </trkpt>
      <trkpt lat="47.81025" lon="6.84234">
        <ele>1113</ele>
        <time>2022-04-05T13:42:01Z</time>
      </trkpt>
      <trkpt lat="47.81024" lon="6.84213">
        <ele>1114</ele>
        <time>2022-04-05T13:42:03Z</time>
      </trkpt>
      <trkpt lat="47.81018" lon="6.842">
        <ele>1114</ele>
        <time>2022-04-05T13:42:05Z</time>
      </trkpt>
      <trkpt lat="47.8098" lon="6.84177">
        <ele>1107</ele>
        <time>2022-04-05T13:42:13Z</time>
      </trkpt>
      <trkpt lat="47.80973" lon="6.8417">
        <ele>1106</ele>
        <time>2022-04-05T13:42:14Z</time>
      </trkpt>
      <trkpt lat="47.80968" lon="6.8416">
        <ele>1106</ele>
        <time>2022-04-05T13:42:16Z</time>
      </trkpt>
      <trkpt lat="47.80956" lon="6.8413">
        <ele>1106</ele>
        <time>2022-04-05T13:42:20Z</time>
      </trkpt>
      <trkpt lat="47.80952" lon="6.84113">
        <ele>1107</ele>
        <time>2022-04-05T13:42:22Z</time>
      </trkpt>
      <trkpt lat="47.80947" lon="6.84078">
        <ele>1110</ele>
        <time>2022-04-05T13:42:26Z</time>
      </trkpt>
      <trkpt lat="47.80946" lon="6.84061">
        <ele>1110</ele>
        <time>2022-04-05T13:42:28Z</time>
      </trkpt>
      <trkpt lat="47.80946" lon="6.84044">
        <ele>1110</ele>
        <time>2022-04-05T13:42:30Z</time>
      </trkpt>
      <trkpt lat="47.80951" lon="6.84015">
        <ele>1111</ele>
        <time>2022-04-05T13:42:34Z</time>
      </trkpt>
      <trkpt lat="47.80959" lon="6.83989">
        <ele>1112</ele>
        <time>2022-04-05T13:42:37Z</time>
      </trkpt>
      <trkpt lat="47.80971" lon="6.83974">
        <ele>1114</ele>
        <time>2022-04-05T13:42:40Z</time>
      </trkpt>
      <trkpt lat="47.80982" lon="6.83967">
        <ele>1115</ele>
        <time>2022-04-05T13:42:42Z</time>
      </trkpt>
      <trkpt lat="47.80984" lon="6.83965">
        <ele>1115</ele>
        <time>2022-04-05T13:42:43Z</time>
      </trkpt>
      <trkpt lat="47.81003" lon="6.83954">
        <ele>1117</ele>
        <time>2022-04-05T13:42:46Z</time>
      </trkpt>
      <trkpt lat="47.81032" lon="6.83938">
        <ele>1119</ele>
        <time>2022-04-05T13:42:52Z</time>
      </trkpt>
      <trkpt lat="47.81057" lon="6.83929">
        <ele>1120</ele>
        <time>2022-04-05T13:42:56Z</time>
      </trkpt>
      <trkpt lat="47.81069" lon="6.8393">
        <ele>1121</ele>
        <time>2022-04-05T13:42:58Z</time>
      </trkpt>
      <trkpt lat="47.81095" lon="6.83932">
        <ele>1123</ele>
        <time>2022-04-05T13:43:03Z</time>
      </trkpt>
      <trkpt lat="47.8112" lon="6.83937">
        <ele>1124</ele>
        <time>2022-04-05T13:43:08Z</time>
      </trkpt>
      <trkpt lat="47.81144" lon="6.83948">
        <ele>1125</ele>
        <time>2022-04-05T13:43:12Z</time>
      </trkpt>
      <trkpt lat="47.81163" lon="6.83959">
        <ele>1127</ele>
        <time>2022-04-05T13:43:16Z</time>
      </trkpt>
      <trkpt lat="47.81179" lon="6.83969">
        <ele>1129</ele>
        <time>2022-04-05T13:43:19Z</time>
      </trkpt>
      <trkpt lat="47.81198" lon="6.83983">
        <ele>1130</ele>
        <time>2022-04-05T13:43:22Z</time>
      </trkpt>
      <trkpt lat="47.81341" lon="6.84119">
        <ele>1137</ele>
        <time>2022-04-05T13:43:53Z</time>
      </trkpt>
      <trkpt lat="47.81365" lon="6.84143">
        <ele>1136</ele>
        <time>2022-04-05T13:43:58Z</time>
      </trkpt>
      <trkpt lat="47.81426" lon="6.84208">
        <ele>1133</ele>
        <time>2022-04-05T13:44:11Z</time>
      </trkpt>
      <trkpt lat="47.8144" lon="6.84221">
        <ele>1133</ele>
        <time>2022-04-05T13:44:14Z</time>
      </trkpt>
      <trkpt lat="47.81456" lon="6.84231">
        <ele>1133</ele>
        <time>2022-04-05T13:44:17Z</time>
      </trkpt>
      <trkpt lat="47.81467" lon="6.84235">
        <ele>1133</ele>
        <time>2022-04-05T13:44:19Z</time>
      </trkpt>
      <trkpt lat="47.8149" lon="6.84238">
        <ele>1132</ele>
        <time>2022-04-05T13:44:23Z</time>
      </trkpt>
      <trkpt lat="47.81627" lon="6.84228">
        <ele>1139</ele>
        <time>2022-04-05T13:44:48Z</time>
      </trkpt>
      <trkpt lat="47.81689" lon="6.84219">
        <ele>1142</ele>
        <time>2022-04-05T13:44:59Z</time>
      </trkpt>
      <trkpt lat="47.81736" lon="6.84201">
        <ele>1146</ele>
        <time>2022-04-05T13:45:07Z</time>
      </trkpt>
      <trkpt lat="47.81794" lon="6.84172">
        <ele>1152</ele>
        <time>2022-04-05T13:45:18Z</time>
      </trkpt>
      <trkpt lat="47.81837" lon="6.84147">
        <ele>1156</ele>
        <time>2022-04-05T13:45:27Z</time>
      </trkpt>
      <trkpt lat="47.81884" lon="6.84113">
        <ele>1161</ele>
        <time>2022-04-05T13:45:36Z</time>
      </trkpt>
      <trkpt lat="47.81908" lon="6.84094">
        <ele>1163</ele>
        <time>2022-04-05T13:45:41Z</time>
      </trkpt>
      <trkpt lat="47.81946" lon="6.84062">
        <ele>1166</ele>
        <time>2022-04-05T13:45:48Z</time>
      </trkpt>
      <trkpt lat="47.8197" lon="6.84043">
        <ele>1166</ele>
        <time>2022-04-05T13:45:53Z</time>
      </trkpt>
      <trkpt lat="47.81985" lon="6.84031">
        <ele>1167</ele>
        <time>2022-04-05T13:45:56Z</time>
      </trkpt>
      <trkpt lat="47.81997" lon="6.8402">
        <ele>1167</ele>
        <time>2022-04-05T13:45:59Z</time>
      </trkpt>
      <trkpt lat="47.82005" lon="6.84011">
        <ele>1167</ele>
        <time>2022-04-05T13:46:01Z</time>
      </trkpt>
      <trkpt lat="47.82013" lon="6.84002">
        <ele>1168</ele>
        <time>2022-04-05T13:46:02Z</time>
      </trkpt>
      <trkpt lat="47.82022" lon="6.8399">
        <ele>1168</ele>
        <time>2022-04-05T13:46:05Z</time>
      </trkpt>
      <trkpt lat="47.8203" lon="6.83977">
        <ele>1169</ele>
        <time>2022-04-05T13:46:07Z</time>
      </trkpt>
      <trkpt lat="47.82038" lon="6.83962">
        <ele>1169</ele>
        <time>2022-04-05T13:46:09Z</time>
      </trkpt>
      <trkpt lat="47.82046" lon="6.83946">
        <ele>1169</ele>
        <time>2022-04-05T13:46:11Z</time>
      </trkpt>
      <trkpt lat="47.82054" lon="6.83926">
        <ele>1169</ele>
        <time>2022-04-05T13:46:14Z</time>
      </trkpt>
      <trkpt lat="47.82059" lon="6.83914">
        <ele>1169</ele>
        <time>2022-04-05T13:46:16Z</time>
      </trkpt>
      <trkpt lat="47.82066" lon="6.83888">
        <ele>1169</ele>
        <time>2022-04-05T13:46:19Z</time>
      </trkpt>
      <trkpt lat="47.82075" lon="6.83849">
        <ele>1170</ele>
        <time>2022-04-05T13:46:24Z</time>
      </trkpt>
      <trkpt lat="47.82079" lon="6.83817">
        <ele>1170</ele>
        <time>2022-04-05T13:46:28Z</time>
      </trkpt>
      <trkpt lat="47.82086" lon="6.83738">
        <ele>1171</ele>
        <time>2022-04-05T13:46:37Z</time>
      </trkpt>
      <trkpt lat="47.82086" lon="6.83691">
        <ele>1172</ele>
        <time>2022-04-05T13:46:43Z</time>
      </trkpt>
      <trkpt lat="47.82075" lon="6.8363">
        <ele>1170</ele>
        <time>2022-04-05T13:46:51Z</time>
      </trkpt>
      <trkpt lat="47.82067" lon="6.83599">
        <ele>1169</ele>
        <time>2022-04-05T13:46:55Z</time>
      </trkpt>
      <trkpt lat="47.8204" lon="6.83521">
        <ele>1170</ele>
        <time>2022-04-05T13:47:05Z</time>
      </trkpt>
      <trkpt lat="47.82036" lon="6.83505">
        <ele>1171</ele>
        <time>2022-04-05T13:47:07Z</time>
      </trkpt>
      <trkpt lat="47.82036" lon="6.83495">
        <ele>1171</ele>
        <time>2022-04-05T13:47:08Z</time>
      </trkpt>
      <trkpt lat="47.82037" lon="6.83486">
        <ele>1171</ele>
        <time>2022-04-05T13:47:09Z</time>
      </trkpt>
      <trkpt lat="47.82053" lon="6.83468">
        <ele>1171</ele>
        <time>2022-04-05T13:47:13Z</time>
      </trkpt>
      <trkpt lat="47.82075" lon="6.83455">
        <ele>1171</ele>
        <time>2022-04-05T13:47:17Z</time>
      </trkpt>
      <trkpt lat="47.82075" lon="6.83455">
        <ele>1171</ele>
        <time>2022-04-05T13:47:17Z</time>
      </trkpt>
      <trkpt lat="47.82044" lon="6.83478">
        <ele>1171</ele>
        <time>2022-04-05T13:47:23Z</time>
      </trkpt>
      <trkpt lat="47.82044" lon="6.83478">
        <ele>1171</ele>
        <time>2022-04-05T13:47:23Z</time>
      </trkpt>
      <trkpt lat="47.82037" lon="6.83486">
        <ele>1171</ele>
        <time>2022-04-05T13:47:25Z</time>
      </trkpt>
      <trkpt lat="47.82036" lon="6.83495">
        <ele>1171</ele>
        <time>2022-04-05T13:47:26Z</time>
      </trkpt>
      <trkpt lat="47.82036" lon="6.83505">
        <ele>1171</ele>
        <time>2022-04-05T13:47:27Z</time>
      </trkpt>
      <trkpt lat="47.82067" lon="6.83599">
        <ele>1169</ele>
        <time>2022-04-05T13:47:40Z</time>
      </trkpt>
      <trkpt lat="47.82075" lon="6.8363">
        <ele>1170</ele>
        <time>2022-04-05T13:47:44Z</time>
      </trkpt>
      <trkpt lat="47.82086" lon="6.83691">
        <ele>1172</ele>
        <time>2022-04-05T13:47:51Z</time>
      </trkpt>
      <trkpt lat="47.82086" lon="6.83738">
        <ele>1171</ele>
        <time>2022-04-05T13:47:57Z</time>
      </trkpt>
      <trkpt lat="47.82079" lon="6.83817">
        <ele>1170</ele>
        <time>2022-04-05T13:48:06Z</time>
      </trkpt>
      <trkpt lat="47.82075" lon="6.83849">
        <ele>1170</ele>
        <time>2022-04-05T13:48:10Z</time>
      </trkpt>
      <trkpt lat="47.82066" lon="6.83888">
        <ele>1169</ele>
        <time>2022-04-05T13:48:15Z</time>
      </trkpt>
      <trkpt lat="47.82059" lon="6.83914">
        <ele>1169</ele>
        <time>2022-04-05T13:48:19Z</time>
      </trkpt>
      <trkpt lat="47.82054" lon="6.83926">
        <ele>1169</ele>
        <time>2022-04-05T13:48:20Z</time>
      </trkpt>
      <trkpt lat="47.8203" lon="6.83977">
        <ele>1169</ele>
        <time>2022-04-05T13:48:28Z</time>
      </trkpt>
      <trkpt lat="47.82013" lon="6.84002">
        <ele>1168</ele>
        <time>2022-04-05T13:48:32Z</time>
      </trkpt>
      <trkpt lat="47.81997" lon="6.8402">
        <ele>1167</ele>
        <time>2022-04-05T13:48:35Z</time>
      </trkpt>
      <trkpt lat="47.81884" lon="6.84113">
        <ele>1161</ele>
        <time>2022-04-05T13:48:58Z</time>
      </trkpt>
      <trkpt lat="47.81837" lon="6.84147">
        <ele>1156</ele>
        <time>2022-04-05T13:49:08Z</time>
      </trkpt>
      <trkpt lat="47.81794" lon="6.84172">
        <ele>1152</ele>
        <time>2022-04-05T13:49:16Z</time>
      </trkpt>
      <trkpt lat="47.81736" lon="6.84201">
        <ele>1146</ele>
        <time>2022-04-05T13:49:27Z</time>
      </trkpt>
      <trkpt lat="47.81689" lon="6.84219">
        <ele>1142</ele>
        <time>2022-04-05T13:49:35Z</time>
      </trkpt>
      <trkpt lat="47.81627" lon="6.84228">
        <ele>1139</ele>
        <time>2022-04-05T13:49:47Z</time>
      </trkpt>
      <trkpt lat="47.8149" lon="6.84238">
        <ele>1132</ele>
        <time>2022-04-05T13:50:11Z</time>
      </trkpt>
      <trkpt lat="47.81467" lon="6.84235">
        <ele>1133</ele>
        <time>2022-04-05T13:50:15Z</time>
      </trkpt>
      <trkpt lat="47.81456" lon="6.84231">
        <ele>1133</ele>
        <time>2022-04-05T13:50:17Z</time>
      </trkpt>
      <trkpt lat="47.8144" lon="6.84221">
        <ele>1133</ele>
        <time>2022-04-05T13:50:20Z</time>
      </trkpt>
      <trkpt lat="47.81426" lon="6.84208">
        <ele>1133</ele>
        <time>2022-04-05T13:50:23Z</time>
      </trkpt>
      <trkpt lat="47.81341" lon="6.84119">
        <ele>1137</ele>
        <time>2022-04-05T13:50:42Z</time>
      </trkpt>
      <trkpt lat="47.81198" lon="6.83983">
        <ele>1130</ele>
        <time>2022-04-05T13:51:12Z</time>
      </trkpt>
      <trkpt lat="47.81144" lon="6.83948">
        <ele>1125</ele>
        <time>2022-04-05T13:51:22Z</time>
      </trkpt>
      <trkpt lat="47.8112" lon="6.83937">
        <ele>1124</ele>
        <time>2022-04-05T13:51:27Z</time>
      </trkpt>
      <trkpt lat="47.81095" lon="6.83932">
        <ele>1123</ele>
        <time>2022-04-05T13:51:31Z</time>
      </trkpt>
      <trkpt lat="47.81057" lon="6.83929">
        <ele>1120</ele>
        <time>2022-04-05T13:51:38Z</time>
      </trkpt>
      <trkpt lat="47.81032" lon="6.83938">
        <ele>1119</ele>
        <time>2022-04-05T13:51:43Z</time>
      </trkpt>
      <trkpt lat="47.80971" lon="6.83974">
        <ele>1114</ele>
        <time>2022-04-05T13:51:54Z</time>
      </trkpt>
      <trkpt lat="47.80959" lon="6.83989">
        <ele>1112</ele>
        <time>2022-04-05T13:51:57Z</time>
      </trkpt>
      <trkpt lat="47.80951" lon="6.84015">
        <ele>1111</ele>
        <time>2022-04-05T13:52:00Z</time>
      </trkpt>
      <trkpt lat="47.80946" lon="6.84044">
        <ele>1110</ele>
        <time>2022-04-05T13:52:04Z</time>
      </trkpt>
      <trkpt lat="47.80946" lon="6.84061">
        <ele>1110</ele>
        <time>2022-04-05T13:52:06Z</time>
      </trkpt>
      <trkpt lat="47.80947" lon="6.84078">
        <ele>1110</ele>
        <time>2022-04-05T13:52:08Z</time>
      </trkpt>
      <trkpt lat="47.80952" lon="6.84113">
        <ele>1107</ele>
        <time>2022-04-05T13:52:12Z</time>
      </trkpt>
      <trkpt lat="47.80956" lon="6.8413">
        <ele>1106</ele>
        <time>2022-04-05T13:52:15Z</time>
      </trkpt>
      <trkpt lat="47.80968" lon="6.8416">
        <ele>1106</ele>
        <time>2022-04-05T13:52:19Z</time>
      </trkpt>
      <trkpt lat="47.80973" lon="6.8417">
        <ele>1106</ele>
        <time>2022-04-05T13:52:20Z</time>
      </trkpt>
      <trkpt lat="47.8098" lon="6.84177">
        <ele>1107</ele>
        <time>2022-04-05T13:52:22Z</time>
      </trkpt>
      <trkpt lat="47.81018" lon="6.842">
        <ele>1114</ele>
        <time>2022-04-05T13:52:29Z</time>
      </trkpt>
      <trkpt lat="47.81024" lon="6.84213">
        <ele>1114</ele>
        <time>2022-04-05T13:52:31Z</time>
      </trkpt>
      <trkpt lat="47.81025" lon="6.84234">
        <ele>1113</ele>
        <time>2022-04-05T13:52:33Z</time>
      </trkpt>
      <trkpt lat="47.81023" lon="6.84284">
        <ele>1107</ele>
        <time>2022-04-05T13:52:39Z</time>
      </trkpt>
      <trkpt lat="47.81032" lon="6.844">
        <ele>1101</ele>
        <time>2022-04-05T13:52:53Z</time>
      </trkpt>
      <trkpt lat="47.81032" lon="6.84459">
        <ele>1098</ele>
        <time>2022-04-05T13:53:00Z</time>
      </trkpt>
      <trkpt lat="47.81029" lon="6.84499">
        <ele>1096</ele>
        <time>2022-04-05T13:53:05Z</time>
      </trkpt>
      <trkpt lat="47.81021" lon="6.8459">
        <ele>1086</ele>
        <time>2022-04-05T13:53:16Z</time>
      </trkpt>
      <trkpt lat="47.81016" lon="6.84617">
        <ele>1086</ele>
        <time>2022-04-05T13:53:19Z</time>
      </trkpt>
      <trkpt lat="47.81002" lon="6.84648">
        <ele>1086</ele>
        <time>2022-04-05T13:53:24Z</time>
      </trkpt>
      <trkpt lat="47.80993" lon="6.84663">
        <ele>1086</ele>
        <time>2022-04-05T13:53:26Z</time>
      </trkpt>
      <trkpt lat="47.80975" lon="6.84682">
        <ele>1086</ele>
        <time>2022-04-05T13:53:30Z</time>
      </trkpt>
      <trkpt lat="47.80964" lon="6.84689">
        <ele>1085</ele>
        <time>2022-04-05T13:53:32Z</time>
      </trkpt>
      <trkpt lat="47.80895" lon="6.84706">
        <ele>1080</ele>
        <time>2022-04-05T13:53:45Z</time>
      </trkpt>
      <trkpt lat="47.80821" lon="6.84746">
        <ele>1078</ele>
        <time>2022-04-05T13:53:59Z</time>
      </trkpt>
      <trkpt lat="47.80786" lon="6.84753">
        <ele>1077</ele>
        <time>2022-04-05T13:54:05Z</time>
      </trkpt>
      <trkpt lat="47.80742" lon="6.84751">
        <ele>1074</ele>
        <time>2022-04-05T13:54:13Z</time>
      </trkpt>
      <trkpt lat="47.80717" lon="6.84747">
        <ele>1074</ele>
        <time>2022-04-05T13:54:17Z</time>
      </trkpt>
      <trkpt lat="47.80684" lon="6.84737">
        <ele>1073</ele>
        <time>2022-04-05T13:54:23Z</time>
      </trkpt>
      <trkpt lat="47.80642" lon="6.8471">
        <ele>1067</ele>
        <time>2022-04-05T13:54:32Z</time>
      </trkpt>
      <trkpt lat="47.80604" lon="6.84691">
        <ele>1064</ele>
        <time>2022-04-05T13:54:39Z</time>
      </trkpt>
      <trkpt lat="47.80584" lon="6.84682">
        <ele>1062</ele>
        <time>2022-04-05T13:54:42Z</time>
      </trkpt>
      <trkpt lat="47.80528" lon="6.84666">
        <ele>1065</ele>
        <time>2022-04-05T13:54:53Z</time>
      </trkpt>
      <trkpt lat="47.80523" lon="6.84661">
        <ele>1065</ele>
        <time>2022-04-05T13:54:54Z</time>
      </trkpt>
      <trkpt lat="47.80522" lon="6.84656">
        <ele>1063</ele>
        <time>2022-04-05T13:54:54Z</time>
      </trkpt>
      <trkpt lat="47.80524" lon="6.84645">
        <ele>1060</ele>
        <time>2022-04-05T13:54:56Z</time>
      </trkpt>
      <trkpt lat="47.80527" lon="6.8464">
        <ele>1059</ele>
        <time>2022-04-05T13:54:56Z</time>
      </trkpt>
      <trkpt lat="47.80532" lon="6.84639">
        <ele>1058</ele>
        <time>2022-04-05T13:54:57Z</time>
      </trkpt>
      <trkpt lat="47.80571" lon="6.84655">
        <ele>1056</ele>
        <time>2022-04-05T13:55:05Z</time>
      </trkpt>
      <trkpt lat="47.80591" lon="6.84662">
        <ele>1056</ele>
        <time>2022-04-05T13:55:08Z</time>
      </trkpt>
      <trkpt lat="47.80633" lon="6.84668">
        <ele>1057</ele>
        <time>2022-04-05T13:55:16Z</time>
      </trkpt>
      <trkpt lat="47.80671" lon="6.8467">
        <ele>1056</ele>
        <time>2022-04-05T13:55:22Z</time>
      </trkpt>
      <trkpt lat="47.80697" lon="6.84668">
        <ele>1055</ele>
        <time>2022-04-05T13:55:27Z</time>
      </trkpt>
      <trkpt lat="47.80723" lon="6.84665">
        <ele>1054</ele>
        <time>2022-04-05T13:55:32Z</time>
      </trkpt>
      <trkpt lat="47.80754" lon="6.84658">
        <ele>1052</ele>
        <time>2022-04-05T13:55:37Z</time>
      </trkpt>
      <trkpt lat="47.80776" lon="6.84647">
        <ele>1053</ele>
        <time>2022-04-05T13:55:41Z</time>
      </trkpt>
      <trkpt lat="47.8079" lon="6.84635">
        <ele>1051</ele>
        <time>2022-04-05T13:55:44Z</time>
      </trkpt>
      <trkpt lat="47.80817" lon="6.84594">
        <ele>1045</ele>
        <time>2022-04-05T13:55:51Z</time>
      </trkpt>
      <trkpt lat="47.80858" lon="6.84548">
        <ele>1044</ele>
        <time>2022-04-05T13:56:00Z</time>
      </trkpt>
      <trkpt lat="47.80899" lon="6.8449">
        <ele>1048</ele>
        <time>2022-04-05T13:56:10Z</time>
      </trkpt>
      <trkpt lat="47.80902" lon="6.84482">
        <ele>1048</ele>
        <time>2022-04-05T13:56:11Z</time>
      </trkpt>
      <trkpt lat="47.80902" lon="6.84473">
        <ele>1047</ele>
        <time>2022-04-05T13:56:13Z</time>
      </trkpt>
      <trkpt lat="47.80897" lon="6.84461">
        <ele>1045</ele>
        <time>2022-04-05T13:56:14Z</time>
      </trkpt>
      <trkpt lat="47.80893" lon="6.84459">
        <ele>1043</ele>
        <time>2022-04-05T13:56:15Z</time>
      </trkpt>
      <trkpt lat="47.80889" lon="6.84459">
        <ele>1041</ele>
        <time>2022-04-05T13:56:16Z</time>
      </trkpt>
      <trkpt lat="47.80882" lon="6.84466">
        <ele>1039</ele>
        <time>2022-04-05T13:56:17Z</time>
      </trkpt>
      <trkpt lat="47.80869" lon="6.84497">
        <ele>1038</ele>
        <time>2022-04-05T13:56:22Z</time>
      </trkpt>
      <trkpt lat="47.80862" lon="6.84511">
        <ele>1038</ele>
        <time>2022-04-05T13:56:24Z</time>
      </trkpt>
      <trkpt lat="47.80852" lon="6.84523">
        <ele>1037</ele>
        <time>2022-04-05T13:56:26Z</time>
      </trkpt>
      <trkpt lat="47.80801" lon="6.84561">
        <ele>1034</ele>
        <time>2022-04-05T13:56:36Z</time>
      </trkpt>
      <trkpt lat="47.80771" lon="6.84591">
        <ele>1036</ele>
        <time>2022-04-05T13:56:43Z</time>
      </trkpt>
      <trkpt lat="47.80755" lon="6.84599">
        <ele>1035</ele>
        <time>2022-04-05T13:56:46Z</time>
      </trkpt>
      <trkpt lat="47.80738" lon="6.84599">
        <ele>1034</ele>
        <time>2022-04-05T13:56:49Z</time>
      </trkpt>
      <trkpt lat="47.8065" lon="6.84574">
        <ele>1024</ele>
        <time>2022-04-05T13:57:04Z</time>
      </trkpt>
      <trkpt lat="47.8063" lon="6.84565">
        <ele>1024</ele>
        <time>2022-04-05T13:57:08Z</time>
      </trkpt>
      <trkpt lat="47.80582" lon="6.84535">
        <ele>1021</ele>
        <time>2022-04-05T13:57:17Z</time>
      </trkpt>
      <trkpt lat="47.80481" lon="6.84452">
        <ele>1012</ele>
        <time>2022-04-05T13:57:38Z</time>
      </trkpt>
      <trkpt lat="47.80443" lon="6.84429">
        <ele>1008</ele>
        <time>2022-04-05T13:57:45Z</time>
      </trkpt>
      <trkpt lat="47.80387" lon="6.84409">
        <ele>1005</ele>
        <time>2022-04-05T13:57:56Z</time>
      </trkpt>
      <trkpt lat="47.80366" lon="6.84404">
        <ele>1004</ele>
        <time>2022-04-05T13:57:59Z</time>
      </trkpt>
      <trkpt lat="47.80308" lon="6.84399">
        <ele>1004</ele>
        <time>2022-04-05T13:58:10Z</time>
      </trkpt>
      <trkpt lat="47.80279" lon="6.84394">
        <ele>1004</ele>
        <time>2022-04-05T13:58:15Z</time>
      </trkpt>
      <trkpt lat="47.80247" lon="6.8438">
        <ele>1002</ele>
        <time>2022-04-05T13:58:21Z</time>
      </trkpt>
      <trkpt lat="47.802" lon="6.84353">
        <ele>991</ele>
        <time>2022-04-05T13:58:30Z</time>
      </trkpt>
      <trkpt lat="47.80188" lon="6.8435">
        <ele>989</ele>
        <time>2022-04-05T13:58:32Z</time>
      </trkpt>
      <trkpt lat="47.80169" lon="6.84356">
        <ele>989</ele>
        <time>2022-04-05T13:58:35Z</time>
      </trkpt>
      <trkpt lat="47.80159" lon="6.84365">
        <ele>988</ele>
        <time>2022-04-05T13:58:37Z</time>
      </trkpt>
      <trkpt lat="47.80146" lon="6.84386">
        <ele>987</ele>
        <time>2022-04-05T13:58:41Z</time>
      </trkpt>
      <trkpt lat="47.8014" lon="6.844">
        <ele>988</ele>
        <time>2022-04-05T13:58:43Z</time>
      </trkpt>
      <trkpt lat="47.80102" lon="6.84502">
        <ele>990</ele>
        <time>2022-04-05T13:58:57Z</time>
      </trkpt>
      <trkpt lat="47.80095" lon="6.84515">
        <ele>990</ele>
        <time>2022-04-05T13:58:59Z</time>
      </trkpt>
      <trkpt lat="47.80083" lon="6.84531">
        <ele>990</ele>
        <time>2022-04-05T13:59:02Z</time>
      </trkpt>
      <trkpt lat="47.80065" lon="6.84545">
        <ele>990</ele>
        <time>2022-04-05T13:59:05Z</time>
      </trkpt>
      <trkpt lat="47.80032" lon="6.84556">
        <ele>987</ele>
        <time>2022-04-05T13:59:11Z</time>
      </trkpt>
      <trkpt lat="47.80004" lon="6.84562">
        <ele>984</ele>
        <time>2022-04-05T13:59:16Z</time>
      </trkpt>
      <trkpt lat="47.79975" lon="6.84564">
        <ele>987</ele>
        <time>2022-04-05T13:59:21Z</time>
      </trkpt>
      <trkpt lat="47.79954" lon="6.84559">
        <ele>987</ele>
        <time>2022-04-05T13:59:25Z</time>
      </trkpt>
      <trkpt lat="47.79935" lon="6.84548">
        <ele>986</ele>
        <time>2022-04-05T13:59:29Z</time>
      </trkpt>
      <trkpt lat="47.79812" lon="6.84388">
        <ele>973</ele>
        <time>2022-04-05T13:59:58Z</time>
      </trkpt>
      <trkpt lat="47.79798" lon="6.84376">
        <ele>972</ele>
        <time>2022-04-05T14:00:01Z</time>
      </trkpt>
      <trkpt lat="47.79765" lon="6.84359">
        <ele>973</ele>
        <time>2022-04-05T14:00:07Z</time>
      </trkpt>
      <trkpt lat="47.79713" lon="6.84318">
        <ele>969</ele>
        <time>2022-04-05T14:00:18Z</time>
      </trkpt>
      <trkpt lat="47.79683" lon="6.843">
        <ele>969</ele>
        <time>2022-04-05T14:00:23Z</time>
      </trkpt>
      <trkpt lat="47.79667" lon="6.84285">
        <ele>968</ele>
        <time>2022-04-05T14:00:27Z</time>
      </trkpt>
      <trkpt lat="47.79649" lon="6.84265">
        <ele>968</ele>
        <time>2022-04-05T14:00:31Z</time>
      </trkpt>
      <trkpt lat="47.79643" lon="6.84255">
        <ele>968</ele>
        <time>2022-04-05T14:00:32Z</time>
      </trkpt>
      <trkpt lat="47.79642" lon="6.84243">
        <ele>965</ele>
        <time>2022-04-05T14:00:34Z</time>
      </trkpt>
      <trkpt lat="47.79643" lon="6.84235">
        <ele>963</ele>
        <time>2022-04-05T14:00:35Z</time>
      </trkpt>
      <trkpt lat="47.79649" lon="6.84228">
        <ele>960</ele>
        <time>2022-04-05T14:00:36Z</time>
      </trkpt>
      <trkpt lat="47.79654" lon="6.84227">
        <ele>958</ele>
        <time>2022-04-05T14:00:37Z</time>
      </trkpt>
      <trkpt lat="47.7966" lon="6.8423">
        <ele>957</ele>
        <time>2022-04-05T14:00:38Z</time>
      </trkpt>
      <trkpt lat="47.79673" lon="6.84254">
        <ele>959</ele>
        <time>2022-04-05T14:00:42Z</time>
      </trkpt>
      <trkpt lat="47.79684" lon="6.84268">
        <ele>961</ele>
        <time>2022-04-05T14:00:44Z</time>
      </trkpt>
      <trkpt lat="47.79695" lon="6.84278">
        <ele>961</ele>
        <time>2022-04-05T14:00:47Z</time>
      </trkpt>
      <trkpt lat="47.79778" lon="6.84314">
        <ele>957</ele>
        <time>2022-04-05T14:01:02Z</time>
      </trkpt>
      <trkpt lat="47.7981" lon="6.84319">
        <ele>952</ele>
        <time>2022-04-05T14:01:08Z</time>
      </trkpt>
      <trkpt lat="47.79838" lon="6.84328">
        <ele>949</ele>
        <time>2022-04-05T14:01:13Z</time>
      </trkpt>
      <trkpt lat="47.79867" lon="6.84347">
        <ele>948</ele>
        <time>2022-04-05T14:01:18Z</time>
      </trkpt>
      <trkpt lat="47.79955" lon="6.84424">
        <ele>950</ele>
        <time>2022-04-05T14:01:37Z</time>
      </trkpt>
      <trkpt lat="47.79966" lon="6.8443">
        <ele>950</ele>
        <time>2022-04-05T14:01:39Z</time>
      </trkpt>
      <trkpt lat="47.79993" lon="6.84432">
        <ele>948</ele>
        <time>2022-04-05T14:01:43Z</time>
      </trkpt>
      <trkpt lat="47.80018" lon="6.84429">
        <ele>952</ele>
        <time>2022-04-05T14:01:48Z</time>
      </trkpt>
      <trkpt lat="47.80027" lon="6.84424">
        <ele>953</ele>
        <time>2022-04-05T14:01:50Z</time>
      </trkpt>
      <trkpt lat="47.80031" lon="6.8442">
        <ele>954</ele>
        <time>2022-04-05T14:01:51Z</time>
      </trkpt>
      <trkpt lat="47.80035" lon="6.84404">
        <ele>952</ele>
        <time>2022-04-05T14:01:53Z</time>
      </trkpt>
      <trkpt lat="47.80053" lon="6.84292">
        <ele>933</ele>
        <time>2022-04-05T14:02:06Z</time>
      </trkpt>
      <trkpt lat="47.8006" lon="6.84261">
        <ele>929</ele>
        <time>2022-04-05T14:02:10Z</time>
      </trkpt>
      <trkpt lat="47.80071" lon="6.84229">
        <ele>925</ele>
        <time>2022-04-05T14:02:15Z</time>
      </trkpt>
      <trkpt lat="47.8008" lon="6.84213">
        <ele>925</ele>
        <time>2022-04-05T14:02:17Z</time>
      </trkpt>
      <trkpt lat="47.80087" lon="6.84202">
        <ele>925</ele>
        <time>2022-04-05T14:02:19Z</time>
      </trkpt>
      <trkpt lat="47.80145" lon="6.8414">
        <ele>919</ele>
        <time>2022-04-05T14:02:32Z</time>
      </trkpt>
      <trkpt lat="47.80158" lon="6.84131">
        <ele>919</ele>
        <time>2022-04-05T14:02:34Z</time>
      </trkpt>
      <trkpt lat="47.80179" lon="6.84124">
        <ele>917</ele>
        <time>2022-04-05T14:02:38Z</time>
      </trkpt>
      <trkpt lat="47.80194" lon="6.84123">
        <ele>917</ele>
        <time>2022-04-05T14:02:41Z</time>
      </trkpt>
      <trkpt lat="47.8021" lon="6.84125">
        <ele>917</ele>
        <time>2022-04-05T14:02:43Z</time>
      </trkpt>
      <trkpt lat="47.80289" lon="6.84157">
        <ele>922</ele>
        <time>2022-04-05T14:02:58Z</time>
      </trkpt>
      <trkpt lat="47.80403" lon="6.8416">
        <ele>904</ele>
        <time>2022-04-05T14:03:18Z</time>
      </trkpt>
      <trkpt lat="47.80492" lon="6.84178">
        <ele>904</ele>
        <time>2022-04-05T14:03:34Z</time>
      </trkpt>
      <trkpt lat="47.80529" lon="6.84196">
        <ele>913</ele>
        <time>2022-04-05T14:03:41Z</time>
      </trkpt>
      <trkpt lat="47.80536" lon="6.84195">
        <ele>913</ele>
        <time>2022-04-05T14:03:42Z</time>
      </trkpt>
      <trkpt lat="47.8054" lon="6.84191">
        <ele>912</ele>
        <time>2022-04-05T14:03:43Z</time>
      </trkpt>
      <trkpt lat="47.80543" lon="6.84187">
        <ele>912</ele>
        <time>2022-04-05T14:03:44Z</time>
      </trkpt>
      <trkpt lat="47.80543" lon="6.8418">
        <ele>910</ele>
        <time>2022-04-05T14:03:45Z</time>
      </trkpt>
      <trkpt lat="47.80543" lon="6.84174">
        <ele>909</ele>
        <time>2022-04-05T14:03:46Z</time>
      </trkpt>
      <trkpt lat="47.80536" lon="6.84164">
        <ele>905</ele>
        <time>2022-04-05T14:03:47Z</time>
      </trkpt>
      <trkpt lat="47.80406" lon="6.84122">
        <ele>889</ele>
        <time>2022-04-05T14:04:11Z</time>
      </trkpt>
      <trkpt lat="47.80373" lon="6.84106">
        <ele>889</ele>
        <time>2022-04-05T14:04:17Z</time>
      </trkpt>
      <trkpt lat="47.80336" lon="6.84085">
        <ele>888</ele>
        <time>2022-04-05T14:04:24Z</time>
      </trkpt>
      <trkpt lat="47.80287" lon="6.8407">
        <ele>890</ele>
        <time>2022-04-05T14:04:33Z</time>
      </trkpt>
      <trkpt lat="47.80263" lon="6.84056">
        <ele>887</ele>
        <time>2022-04-05T14:04:38Z</time>
      </trkpt>
      <trkpt lat="47.8023" lon="6.84027">
        <ele>877</ele>
        <time>2022-04-05T14:04:44Z</time>
      </trkpt>
      <trkpt lat="47.80188" lon="6.84013">
        <ele>873</ele>
        <time>2022-04-05T14:04:52Z</time>
      </trkpt>
      <trkpt lat="47.80094" lon="6.84006">
        <ele>864</ele>
        <time>2022-04-05T14:05:09Z</time>
      </trkpt>
      <trkpt lat="47.80079" lon="6.84006">
        <ele>862</ele>
        <time>2022-04-05T14:05:12Z</time>
      </trkpt>
      <trkpt lat="47.80063" lon="6.8401">
        <ele>860</ele>
        <time>2022-04-05T14:05:14Z</time>
      </trkpt>
      <trkpt lat="47.80054" lon="6.84016">
        <ele>861</ele>
        <time>2022-04-05T14:05:16Z</time>
      </trkpt>
      <trkpt lat="47.8003" lon="6.84044">
        <ele>864</ele>
        <time>2022-04-05T14:05:22Z</time>
      </trkpt>
      <trkpt lat="47.80026" lon="6.84046">
        <ele>863</ele>
        <time>2022-04-05T14:05:22Z</time>
      </trkpt>
      <trkpt lat="47.79995" lon="6.84046">
        <ele>857</ele>
        <time>2022-04-05T14:05:28Z</time>
      </trkpt>
      <trkpt lat="47.79989" lon="6.84051">
        <ele>858</ele>
        <time>2022-04-05T14:05:29Z</time>
      </trkpt>
      <trkpt lat="47.79984" lon="6.84058">
        <ele>860</ele>
        <time>2022-04-05T14:05:30Z</time>
      </trkpt>
      <trkpt lat="47.79979" lon="6.8407">
        <ele>863</ele>
        <time>2022-04-05T14:05:32Z</time>
      </trkpt>
      <trkpt lat="47.79974" lon="6.84101">
        <ele>871</ele>
        <time>2022-04-05T14:05:36Z</time>
      </trkpt>
      <trkpt lat="47.79969" lon="6.8411">
        <ele>874</ele>
        <time>2022-04-05T14:05:37Z</time>
      </trkpt>
      <trkpt lat="47.79964" lon="6.84114">
        <ele>875</ele>
        <time>2022-04-05T14:05:38Z</time>
      </trkpt>
      <trkpt lat="47.79958" lon="6.84114">
        <ele>875</ele>
        <time>2022-04-05T14:05:39Z</time>
      </trkpt>
      <trkpt lat="47.79952" lon="6.84109">
        <ele>874</ele>
        <time>2022-04-05T14:05:41Z</time>
      </trkpt>
      <trkpt lat="47.79946" lon="6.841">
        <ele>872</ele>
        <time>2022-04-05T14:05:42Z</time>
      </trkpt>
      <trkpt lat="47.79935" lon="6.84075">
        <ele>866</ele>
        <time>2022-04-05T14:05:46Z</time>
      </trkpt>
      <trkpt lat="47.79918" lon="6.84044">
        <ele>858</ele>
        <time>2022-04-05T14:05:50Z</time>
      </trkpt>
      <trkpt lat="47.79897" lon="6.8402">
        <ele>854</ele>
        <time>2022-04-05T14:05:55Z</time>
      </trkpt>
      <trkpt lat="47.79877" lon="6.84007">
        <ele>852</ele>
        <time>2022-04-05T14:05:59Z</time>
      </trkpt>
      <trkpt lat="47.79868" lon="6.84003">
        <ele>852</ele>
        <time>2022-04-05T14:06:01Z</time>
      </trkpt>
      <trkpt lat="47.79858" lon="6.84001">
        <ele>853</ele>
        <time>2022-04-05T14:06:02Z</time>
      </trkpt>
      <trkpt lat="47.79827" lon="6.84002">
        <ele>857</ele>
        <time>2022-04-05T14:06:08Z</time>
      </trkpt>
      <trkpt lat="47.79821" lon="6.83999">
        <ele>857</ele>
        <time>2022-04-05T14:06:09Z</time>
      </trkpt>
      <trkpt lat="47.79813" lon="6.83991">
        <ele>856</ele>
        <time>2022-04-05T14:06:11Z</time>
      </trkpt>
      <trkpt lat="47.79798" lon="6.83951">
        <ele>843</ele>
        <time>2022-04-05T14:06:16Z</time>
      </trkpt>
      <trkpt lat="47.79785" lon="6.83938">
        <ele>840</ele>
        <time>2022-04-05T14:06:19Z</time>
      </trkpt>
      <trkpt lat="47.7977" lon="6.8393">
        <ele>839</ele>
        <time>2022-04-05T14:06:22Z</time>
      </trkpt>
      <trkpt lat="47.79758" lon="6.83929">
        <ele>840</ele>
        <time>2022-04-05T14:06:24Z</time>
      </trkpt>
      <trkpt lat="47.79725" lon="6.83934">
        <ele>847</ele>
        <time>2022-04-05T14:06:30Z</time>
      </trkpt>
      <trkpt lat="47.79719" lon="6.83932">
        <ele>847</ele>
        <time>2022-04-05T14:06:31Z</time>
      </trkpt>
      <trkpt lat="47.79715" lon="6.83928">
        <ele>846</ele>
        <time>2022-04-05T14:06:32Z</time>
      </trkpt>
      <trkpt lat="47.79713" lon="6.83922">
        <ele>843</ele>
        <time>2022-04-05T14:06:33Z</time>
      </trkpt>
      <trkpt lat="47.79713" lon="6.83908">
        <ele>837</ele>
        <time>2022-04-05T14:06:34Z</time>
      </trkpt>
      <trkpt lat="47.79716" lon="6.83903">
        <ele>835</ele>
        <time>2022-04-05T14:06:35Z</time>
      </trkpt>
      <trkpt lat="47.79723" lon="6.83899">
        <ele>832</ele>
        <time>2022-04-05T14:06:37Z</time>
      </trkpt>
      <trkpt lat="47.79728" lon="6.83899">
        <ele>832</ele>
        <time>2022-04-05T14:06:37Z</time>
      </trkpt>
      <trkpt lat="47.79804" lon="6.83916">
        <ele>829</ele>
        <time>2022-04-05T14:06:51Z</time>
      </trkpt>
      <trkpt lat="47.79816" lon="6.83925">
        <ele>830</ele>
        <time>2022-04-05T14:06:53Z</time>
      </trkpt>
      <trkpt lat="47.79831" lon="6.83942">
        <ele>834</ele>
        <time>2022-04-05T14:06:57Z</time>
      </trkpt>
      <trkpt lat="47.79838" lon="6.83944">
        <ele>834</ele>
        <time>2022-04-05T14:06:58Z</time>
      </trkpt>
      <trkpt lat="47.79866" lon="6.83937">
        <ele>830</ele>
        <time>2022-04-05T14:07:03Z</time>
      </trkpt>
      <trkpt lat="47.79884" lon="6.83937">
        <ele>829</ele>
        <time>2022-04-05T14:07:06Z</time>
      </trkpt>
      <trkpt lat="47.79896" lon="6.83939">
        <ele>828</ele>
        <time>2022-04-05T14:07:09Z</time>
      </trkpt>
      <trkpt lat="47.79921" lon="6.83952">
        <ele>831</ele>
        <time>2022-04-05T14:07:13Z</time>
      </trkpt>
      <trkpt lat="47.79929" lon="6.83954">
        <ele>832</ele>
        <time>2022-04-05T14:07:15Z</time>
      </trkpt>
      <trkpt lat="47.79936" lon="6.83953">
        <ele>831</ele>
        <time>2022-04-05T14:07:16Z</time>
      </trkpt>
      <trkpt lat="47.79942" lon="6.8395">
        <ele>831</ele>
        <time>2022-04-05T14:07:17Z</time>
      </trkpt>
      <trkpt lat="47.79954" lon="6.83939">
        <ele>828</ele>
        <time>2022-04-05T14:07:20Z</time>
      </trkpt>
      <trkpt lat="47.80002" lon="6.83884">
        <ele>815</ele>
        <time>2022-04-05T14:07:30Z</time>
      </trkpt>
      <trkpt lat="47.80011" lon="6.83878">
        <ele>814</ele>
        <time>2022-04-05T14:07:32Z</time>
      </trkpt>
      <trkpt lat="47.80159" lon="6.83836">
        <ele>801</ele>
        <time>2022-04-05T14:07:59Z</time>
      </trkpt>
      <trkpt lat="47.80171" lon="6.83825">
        <ele>799</ele>
        <time>2022-04-05T14:08:01Z</time>
      </trkpt>
      <trkpt lat="47.80175" lon="6.83816">
        <ele>799</ele>
        <time>2022-04-05T14:08:03Z</time>
      </trkpt>
      <trkpt lat="47.80179" lon="6.83793">
        <ele>799</ele>
        <time>2022-04-05T14:08:06Z</time>
      </trkpt>
      <trkpt lat="47.80179" lon="6.8378">
        <ele>799</ele>
        <time>2022-04-05T14:08:07Z</time>
      </trkpt>
      <trkpt lat="47.80179" lon="6.8377">
        <ele>798</ele>
        <time>2022-04-05T14:08:08Z</time>
      </trkpt>
      <trkpt lat="47.80176" lon="6.83753">
        <ele>797</ele>
        <time>2022-04-05T14:08:10Z</time>
      </trkpt>
      <trkpt lat="47.80163" lon="6.83721">
        <ele>794</ele>
        <time>2022-04-05T14:08:15Z</time>
      </trkpt>
      <trkpt lat="47.80157" lon="6.83701">
        <ele>793</ele>
        <time>2022-04-05T14:08:17Z</time>
      </trkpt>
      <trkpt lat="47.80151" lon="6.8366">
        <ele>791</ele>
        <time>2022-04-05T14:08:22Z</time>
      </trkpt>
      <trkpt lat="47.80138" lon="6.83601">
        <ele>787</ele>
        <time>2022-04-05T14:08:30Z</time>
      </trkpt>
      <trkpt lat="47.80119" lon="6.83489">
        <ele>782</ele>
        <time>2022-04-05T14:08:44Z</time>
      </trkpt>
      <trkpt lat="47.8012" lon="6.83465">
        <ele>782</ele>
        <time>2022-04-05T14:08:47Z</time>
      </trkpt>
      <trkpt lat="47.80123" lon="6.83451">
        <ele>783</ele>
        <time>2022-04-05T14:08:48Z</time>
      </trkpt>
      <trkpt lat="47.8013" lon="6.83429">
        <ele>786</ele>
        <time>2022-04-05T14:08:51Z</time>
      </trkpt>
      <trkpt lat="47.80138" lon="6.83415">
        <ele>789</ele>
        <time>2022-04-05T14:08:53Z</time>
      </trkpt>
      <trkpt lat="47.80139" lon="6.83398">
        <ele>789</ele>
        <time>2022-04-05T14:08:55Z</time>
      </trkpt>
      <trkpt lat="47.80134" lon="6.83391">
        <ele>786</ele>
        <time>2022-04-05T14:08:57Z</time>
      </trkpt>
      <trkpt lat="47.8013" lon="6.83389">
        <ele>784</ele>
        <time>2022-04-05T14:08:57Z</time>
      </trkpt>
      <trkpt lat="47.80122" lon="6.83396">
        <ele>782</ele>
        <time>2022-04-05T14:08:59Z</time>
      </trkpt>
      <trkpt lat="47.80101" lon="6.83428">
        <ele>775</ele>
        <time>2022-04-05T14:09:04Z</time>
      </trkpt>
      <trkpt lat="47.80065" lon="6.83463">
        <ele>766</ele>
        <time>2022-04-05T14:09:12Z</time>
      </trkpt>
      <trkpt lat="47.80052" lon="6.83484">
        <ele>765</ele>
        <time>2022-04-05T14:09:16Z</time>
      </trkpt>
      <trkpt lat="47.80045" lon="6.83506">
        <ele>765</ele>
        <time>2022-04-05T14:09:18Z</time>
      </trkpt>
      <trkpt lat="47.80042" lon="6.83535">
        <ele>766</ele>
        <time>2022-04-05T14:09:22Z</time>
      </trkpt>
      <trkpt lat="47.80043" lon="6.83555">
        <ele>766</ele>
        <time>2022-04-05T14:09:24Z</time>
      </trkpt>
      <trkpt lat="47.80051" lon="6.83615">
        <ele>770</ele>
        <time>2022-04-05T14:09:32Z</time>
      </trkpt>
      <trkpt lat="47.80046" lon="6.83646">
        <ele>770</ele>
        <time>2022-04-05T14:09:35Z</time>
      </trkpt>
      <trkpt lat="47.80043" lon="6.83656">
        <ele>770</ele>
        <time>2022-04-05T14:09:37Z</time>
      </trkpt>
      <trkpt lat="47.80039" lon="6.83663">
        <ele>770</ele>
        <time>2022-04-05T14:09:38Z</time>
      </trkpt>
      <trkpt lat="47.80031" lon="6.83674">
        <ele>770</ele>
        <time>2022-04-05T14:09:40Z</time>
      </trkpt>
      <trkpt lat="47.80024" lon="6.83677">
        <ele>769</ele>
        <time>2022-04-05T14:09:41Z</time>
      </trkpt>
      <trkpt lat="47.80004" lon="6.83678">
        <ele>767</ele>
        <time>2022-04-05T14:09:45Z</time>
      </trkpt>
      <trkpt lat="47.79998" lon="6.83681">
        <ele>766</ele>
        <time>2022-04-05T14:09:46Z</time>
      </trkpt>
      <trkpt lat="47.79974" lon="6.83707">
        <ele>768</ele>
        <time>2022-04-05T14:09:51Z</time>
      </trkpt>
      <trkpt lat="47.79963" lon="6.83713">
        <ele>768</ele>
        <time>2022-04-05T14:09:53Z</time>
      </trkpt>
      <trkpt lat="47.79938" lon="6.83714">
        <ele>764</ele>
        <time>2022-04-05T14:09:58Z</time>
      </trkpt>
      <trkpt lat="47.79923" lon="6.83712">
        <ele>762</ele>
        <time>2022-04-05T14:10:00Z</time>
      </trkpt>
      <trkpt lat="47.79889" lon="6.83704">
        <ele>759</ele>
        <time>2022-04-05T14:10:06Z</time>
      </trkpt>
      <trkpt lat="47.79848" lon="6.83684">
        <ele>752</ele>
        <time>2022-04-05T14:10:14Z</time>
      </trkpt>
      <trkpt lat="47.79833" lon="6.8368">
        <ele>749</ele>
        <time>2022-04-05T14:10:17Z</time>
      </trkpt>
      <trkpt lat="47.79743" lon="6.8368">
        <ele>743</ele>
        <time>2022-04-05T14:10:33Z</time>
      </trkpt>
      <trkpt lat="47.79733" lon="6.83678">
        <ele>743</ele>
        <time>2022-04-05T14:10:35Z</time>
      </trkpt>
      <trkpt lat="47.7973" lon="6.83673">
        <ele>741</ele>
        <time>2022-04-05T14:10:35Z</time>
      </trkpt>
      <trkpt lat="47.79728" lon="6.83667">
        <ele>739</ele>
        <time>2022-04-05T14:10:36Z</time>
      </trkpt>
      <trkpt lat="47.79728" lon="6.83657">
        <ele>736</ele>
        <time>2022-04-05T14:10:37Z</time>
      </trkpt>
      <trkpt lat="47.7973" lon="6.83651">
        <ele>734</ele>
        <time>2022-04-05T14:10:38Z</time>
      </trkpt>
      <trkpt lat="47.79734" lon="6.83647">
        <ele>732</ele>
        <time>2022-04-05T14:10:39Z</time>
      </trkpt>
      <trkpt lat="47.79773" lon="6.83641">
        <ele>731</ele>
        <time>2022-04-05T14:10:46Z</time>
      </trkpt>
      <trkpt lat="47.79799" lon="6.83633">
        <ele>732</ele>
        <time>2022-04-05T14:10:51Z</time>
      </trkpt>
      <trkpt lat="47.79833" lon="6.83613">
        <ele>730</ele>
        <time>2022-04-05T14:10:57Z</time>
      </trkpt>
      <trkpt lat="47.79871" lon="6.83597">
        <ele>731</ele>
        <time>2022-04-05T14:11:04Z</time>
      </trkpt>
      <trkpt lat="47.79882" lon="6.8359">
        <ele>732</ele>
        <time>2022-04-05T14:11:06Z</time>
      </trkpt>
      <trkpt lat="47.79888" lon="6.83582">
        <ele>731</ele>
        <time>2022-04-05T14:11:08Z</time>
      </trkpt>
      <trkpt lat="47.79895" lon="6.83568">
        <ele>730</ele>
        <time>2022-04-05T14:11:10Z</time>
      </trkpt>
      <trkpt lat="47.79897" lon="6.83559">
        <ele>730</ele>
        <time>2022-04-05T14:11:11Z</time>
      </trkpt>
      <trkpt lat="47.79897" lon="6.83508">
        <ele>722</ele>
        <time>2022-04-05T14:11:17Z</time>
      </trkpt>
      <trkpt lat="47.79899" lon="6.83488">
        <ele>720</ele>
        <time>2022-04-05T14:11:20Z</time>
      </trkpt>
      <trkpt lat="47.79922" lon="6.83403">
        <ele>716</ele>
        <time>2022-04-05T14:11:31Z</time>
      </trkpt>
      <trkpt lat="47.79934" lon="6.83377">
        <ele>715</ele>
        <time>2022-04-05T14:11:34Z</time>
      </trkpt>
      <trkpt lat="47.79951" lon="6.83358">
        <ele>717</ele>
        <time>2022-04-05T14:11:38Z</time>
      </trkpt>
      <trkpt lat="47.79996" lon="6.83312">
        <ele>722</ele>
        <time>2022-04-05T14:11:48Z</time>
      </trkpt>
      <trkpt lat="47.80005" lon="6.83298">
        <ele>723</ele>
        <time>2022-04-05T14:11:50Z</time>
      </trkpt>
      <trkpt lat="47.80011" lon="6.83283">
        <ele>722</ele>
        <time>2022-04-05T14:11:52Z</time>
      </trkpt>
      <trkpt lat="47.80013" lon="6.83265">
        <ele>720</ele>
        <time>2022-04-05T14:11:54Z</time>
      </trkpt>
      <trkpt lat="47.80012" lon="6.83255">
        <ele>718</ele>
        <time>2022-04-05T14:11:56Z</time>
      </trkpt>
      <trkpt lat="47.80007" lon="6.83238">
        <ele>717</ele>
        <time>2022-04-05T14:11:58Z</time>
      </trkpt>
      <trkpt lat="47.79997" lon="6.83219">
        <ele>716</ele>
        <time>2022-04-05T14:12:01Z</time>
      </trkpt>
      <trkpt lat="47.79989" lon="6.83205">
        <ele>716</ele>
        <time>2022-04-05T14:12:03Z</time>
      </trkpt>
      <trkpt lat="47.79973" lon="6.83187">
        <ele>716</ele>
        <time>2022-04-05T14:12:06Z</time>
      </trkpt>
      <trkpt lat="47.79955" lon="6.83175">
        <ele>714</ele>
        <time>2022-04-05T14:12:10Z</time>
      </trkpt>
      <trkpt lat="47.79944" lon="6.83171">
        <ele>713</ele>
        <time>2022-04-05T14:12:12Z</time>
      </trkpt>
      <trkpt lat="47.79924" lon="6.83171">
        <ele>709</ele>
        <time>2022-04-05T14:12:16Z</time>
      </trkpt>
      <trkpt lat="47.7992" lon="6.83172">
        <ele>709</ele>
        <time>2022-04-05T14:12:16Z</time>
      </trkpt>
      <trkpt lat="47.79911" lon="6.83181">
        <ele>706</ele>
        <time>2022-04-05T14:12:18Z</time>
      </trkpt>
      <trkpt lat="47.79886" lon="6.83223">
        <ele>697</ele>
        <time>2022-04-05T14:12:25Z</time>
      </trkpt>
      <trkpt lat="47.79881" lon="6.8323">
        <ele>695</ele>
        <time>2022-04-05T14:12:26Z</time>
      </trkpt>
      <trkpt lat="47.79875" lon="6.83233">
        <ele>694</ele>
        <time>2022-04-05T14:12:27Z</time>
      </trkpt>
      <trkpt lat="47.79862" lon="6.83232">
        <ele>694</ele>
        <time>2022-04-05T14:12:30Z</time>
      </trkpt>
      <trkpt lat="47.79775" lon="6.83208">
        <ele>697</ele>
        <time>2022-04-05T14:12:45Z</time>
      </trkpt>
      <trkpt lat="47.79737" lon="6.83188">
        <ele>701</ele>
        <time>2022-04-05T14:12:52Z</time>
      </trkpt>
      <trkpt lat="47.79729" lon="6.83187">
        <ele>700</ele>
        <time>2022-04-05T14:12:54Z</time>
      </trkpt>
      <trkpt lat="47.79703" lon="6.8319">
        <ele>695</ele>
        <time>2022-04-05T14:12:59Z</time>
      </trkpt>
      <trkpt lat="47.79691" lon="6.83189">
        <ele>693</ele>
        <time>2022-04-05T14:13:01Z</time>
      </trkpt>
      <trkpt lat="47.7961" lon="6.83143">
        <ele>691</ele>
        <time>2022-04-05T14:13:16Z</time>
      </trkpt>
      <trkpt lat="47.79572" lon="6.83112">
        <ele>696</ele>
        <time>2022-04-05T14:13:24Z</time>
      </trkpt>
      <trkpt lat="47.79565" lon="6.8311">
        <ele>696</ele>
        <time>2022-04-05T14:13:25Z</time>
      </trkpt>
      <trkpt lat="47.79544" lon="6.83111">
        <ele>692</ele>
        <time>2022-04-05T14:13:29Z</time>
      </trkpt>
      <trkpt lat="47.79486" lon="6.83124">
        <ele>677</ele>
        <time>2022-04-05T14:13:39Z</time>
      </trkpt>
      <trkpt lat="47.79476" lon="6.83126">
        <ele>674</ele>
        <time>2022-04-05T14:13:41Z</time>
      </trkpt>
      <trkpt lat="47.79464" lon="6.83124">
        <ele>673</ele>
        <time>2022-04-05T14:13:43Z</time>
      </trkpt>
      <trkpt lat="47.79446" lon="6.83114">
        <ele>674</ele>
        <time>2022-04-05T14:13:47Z</time>
      </trkpt>
      <trkpt lat="47.79414" lon="6.83081">
        <ele>681</ele>
        <time>2022-04-05T14:13:54Z</time>
      </trkpt>
      <trkpt lat="47.794" lon="6.83074">
        <ele>680</ele>
        <time>2022-04-05T14:13:56Z</time>
      </trkpt>
      <trkpt lat="47.79365" lon="6.83061">
        <ele>674</ele>
        <time>2022-04-05T14:14:03Z</time>
      </trkpt>
      <trkpt lat="47.79331" lon="6.83056">
        <ele>665</ele>
        <time>2022-04-05T14:14:09Z</time>
      </trkpt>
      <trkpt lat="47.7932" lon="6.83052">
        <ele>663</ele>
        <time>2022-04-05T14:14:11Z</time>
      </trkpt>
      <trkpt lat="47.79311" lon="6.83042">
        <ele>663</ele>
        <time>2022-04-05T14:14:13Z</time>
      </trkpt>
      <trkpt lat="47.79267" lon="6.82979">
        <ele>664</ele>
        <time>2022-04-05T14:14:24Z</time>
      </trkpt>
      <trkpt lat="47.79214" lon="6.82897">
        <ele>677</ele>
        <time>2022-04-05T14:14:37Z</time>
      </trkpt>
      <trkpt lat="47.79209" lon="6.82891">
        <ele>679</ele>
        <time>2022-04-05T14:14:38Z</time>
      </trkpt>
      <trkpt lat="47.792" lon="6.82886">
        <ele>680</ele>
        <time>2022-04-05T14:14:40Z</time>
      </trkpt>
      <trkpt lat="47.79189" lon="6.82887">
        <ele>678</ele>
        <time>2022-04-05T14:14:42Z</time>
      </trkpt>
      <trkpt lat="47.79183" lon="6.82889">
        <ele>677</ele>
        <time>2022-04-05T14:14:43Z</time>
      </trkpt>
      <trkpt lat="47.79145" lon="6.82925">
        <ele>664</ele>
        <time>2022-04-05T14:14:51Z</time>
      </trkpt>
      <trkpt lat="47.79095" lon="6.82958">
        <ele>653</ele>
        <time>2022-04-05T14:15:01Z</time>
      </trkpt>
      <trkpt lat="47.79077" lon="6.82966">
        <ele>650</ele>
        <time>2022-04-05T14:15:04Z</time>
      </trkpt>
      <trkpt lat="47.79065" lon="6.82966">
        <ele>650</ele>
        <time>2022-04-05T14:15:06Z</time>
      </trkpt>
      <trkpt lat="47.7903" lon="6.82946">
        <ele>661</ele>
        <time>2022-04-05T14:15:13Z</time>
      </trkpt>
      <trkpt lat="47.79017" lon="6.82943">
        <ele>662</ele>
        <time>2022-04-05T14:15:15Z</time>
      </trkpt>
      <trkpt lat="47.78985" lon="6.82947">
        <ele>662</ele>
        <time>2022-04-05T14:15:21Z</time>
      </trkpt>
      <trkpt lat="47.78961" lon="6.82953">
        <ele>662</ele>
        <time>2022-04-05T14:15:25Z</time>
      </trkpt>
      <trkpt lat="47.78926" lon="6.82965">
        <ele>660</ele>
        <time>2022-04-05T14:15:32Z</time>
      </trkpt>
      <trkpt lat="47.78895" lon="6.82979">
        <ele>658</ele>
        <time>2022-04-05T14:15:37Z</time>
      </trkpt>
      <trkpt lat="47.78789" lon="6.8305">
        <ele>645</ele>
        <time>2022-04-05T14:15:58Z</time>
      </trkpt>
      <trkpt lat="47.78772" lon="6.83064">
        <ele>642</ele>
        <time>2022-04-05T14:16:02Z</time>
      </trkpt>
      <trkpt lat="47.78629" lon="6.832">
        <ele>635</ele>
        <time>2022-04-05T14:16:32Z</time>
      </trkpt>
      <trkpt lat="47.78611" lon="6.83221">
        <ele>632</ele>
        <time>2022-04-05T14:16:36Z</time>
      </trkpt>
      <trkpt lat="47.7859" lon="6.83248">
        <ele>625</ele>
        <time>2022-04-05T14:16:41Z</time>
      </trkpt>
      <trkpt lat="47.78508" lon="6.83373">
        <ele>605</ele>
        <time>2022-04-05T14:17:02Z</time>
      </trkpt>
      <trkpt lat="47.7849" lon="6.83395">
        <ele>600</ele>
        <time>2022-04-05T14:17:06Z</time>
      </trkpt>
      <trkpt lat="47.78472" lon="6.83402">
        <ele>599</ele>
        <time>2022-04-05T14:17:09Z</time>
      </trkpt>
      <trkpt lat="47.78456" lon="6.83405">
        <ele>598</ele>
        <time>2022-04-05T14:17:12Z</time>
      </trkpt>
      <trkpt lat="47.78331" lon="6.83417">
        <ele>592</ele>
        <time>2022-04-05T14:17:34Z</time>
      </trkpt>
      <trkpt lat="47.78316" lon="6.83416">
        <ele>591</ele>
        <time>2022-04-05T14:17:37Z</time>
      </trkpt>
      <trkpt lat="47.78288" lon="6.83401">
        <ele>591</ele>
        <time>2022-04-05T14:17:42Z</time>
      </trkpt>
      <trkpt lat="47.7824" lon="6.83366">
        <ele>593</ele>
        <time>2022-04-05T14:17:52Z</time>
      </trkpt>
      <trkpt lat="47.78184" lon="6.83317">
        <ele>598</ele>
        <time>2022-04-05T14:18:03Z</time>
      </trkpt>
      <trkpt lat="47.78165" lon="6.83313">
        <ele>597</ele>
        <time>2022-04-05T14:18:07Z</time>
      </trkpt>
      <trkpt lat="47.78156" lon="6.83315">
        <ele>597</ele>
        <time>2022-04-05T14:18:08Z</time>
      </trkpt>
      <trkpt lat="47.78141" lon="6.83322">
        <ele>596</ele>
        <time>2022-04-05T14:18:11Z</time>
      </trkpt>
      <trkpt lat="47.7809" lon="6.83355">
        <ele>590</ele>
        <time>2022-04-05T14:18:21Z</time>
      </trkpt>
      <trkpt lat="47.78051" lon="6.83372">
        <ele>588</ele>
        <time>2022-04-05T14:18:28Z</time>
      </trkpt>
      <trkpt lat="47.78031" lon="6.83381">
        <ele>588</ele>
        <time>2022-04-05T14:18:32Z</time>
      </trkpt>
      <trkpt lat="47.78014" lon="6.83388">
        <ele>588</ele>
        <time>2022-04-05T14:18:35Z</time>
      </trkpt>
      <trkpt lat="47.77958" lon="6.83387">
        <ele>583</ele>
        <time>2022-04-05T14:18:45Z</time>
      </trkpt>
      <trkpt lat="47.77936" lon="6.83392">
        <ele>580</ele>
        <time>2022-04-05T14:18:49Z</time>
      </trkpt>
      <trkpt lat="47.77882" lon="6.83414">
        <ele>568</ele>
        <time>2022-04-05T14:18:59Z</time>
      </trkpt>
      <trkpt lat="47.77867" lon="6.83425">
        <ele>566</ele>
        <time>2022-04-05T14:19:02Z</time>
      </trkpt>
      <trkpt lat="47.77853" lon="6.83445">
        <ele>565</ele>
        <time>2022-04-05T14:19:05Z</time>
      </trkpt>
      <trkpt lat="47.77843" lon="6.83469">
        <ele>566</ele>
        <time>2022-04-05T14:19:09Z</time>
      </trkpt>
      <trkpt lat="47.77839" lon="6.83482">
        <ele>567</ele>
        <time>2022-04-05T14:19:11Z</time>
      </trkpt>
      <trkpt lat="47.77835" lon="6.83511">
        <ele>571</ele>
        <time>2022-04-05T14:19:14Z</time>
      </trkpt>
      <trkpt lat="47.77831" lon="6.83557">
        <ele>579</ele>
        <time>2022-04-05T14:19:20Z</time>
      </trkpt>
      <trkpt lat="47.77824" lon="6.83571">
        <ele>580</ele>
        <time>2022-04-05T14:19:22Z</time>
      </trkpt>
      <trkpt lat="47.77814" lon="6.83577">
        <ele>580</ele>
        <time>2022-04-05T14:19:24Z</time>
      </trkpt>
      <trkpt lat="47.77802" lon="6.83575">
        <ele>577</ele>
        <time>2022-04-05T14:19:26Z</time>
      </trkpt>
      <trkpt lat="47.77724" lon="6.83536">
        <ele>559</ele>
        <time>2022-04-05T14:19:40Z</time>
      </trkpt>
      <trkpt lat="47.77716" lon="6.83527">
        <ele>557</ele>
        <time>2022-04-05T14:19:42Z</time>
      </trkpt>
      <trkpt lat="47.77666" lon="6.83459">
        <ele>548</ele>
        <time>2022-04-05T14:19:54Z</time>
      </trkpt>
      <trkpt lat="47.77643" lon="6.83431">
        <ele>548</ele>
        <time>2022-04-05T14:20:00Z</time>
      </trkpt>
      <trkpt lat="47.77638" lon="6.83424">
        <ele>548</ele>
        <time>2022-04-05T14:20:01Z</time>
      </trkpt>
      <trkpt lat="47.77634" lon="6.8342">
        <ele>548</ele>
        <time>2022-04-05T14:20:02Z</time>
      </trkpt>
      <trkpt lat="47.77626" lon="6.83409">
        <ele>548</ele>
        <time>2022-04-05T14:20:04Z</time>
      </trkpt>
      <trkpt lat="47.7761" lon="6.8339">
        <ele>547</ele>
        <time>2022-04-05T14:20:07Z</time>
      </trkpt>
      <trkpt lat="47.77594" lon="6.83372">
        <ele>547</ele>
        <time>2022-04-05T14:20:11Z</time>
      </trkpt>
      <trkpt lat="47.7758" lon="6.83355">
        <ele>547</ele>
        <time>2022-04-05T14:20:14Z</time>
      </trkpt>
      <trkpt lat="47.77552" lon="6.83322">
        <ele>552</ele>
        <time>2022-04-05T14:20:20Z</time>
      </trkpt>
      <trkpt lat="47.77532" lon="6.83297">
        <ele>553</ele>
        <time>2022-04-05T14:20:25Z</time>
      </trkpt>
      <trkpt lat="47.77521" lon="6.83281">
        <ele>553</ele>
        <time>2022-04-05T14:20:28Z</time>
      </trkpt>
      <trkpt lat="47.77503" lon="6.83247">
        <ele>549</ele>
        <time>2022-04-05T14:20:33Z</time>
      </trkpt>
      <trkpt lat="47.77442" lon="6.83088">
        <ele>544</ele>
        <time>2022-04-05T14:20:55Z</time>
      </trkpt>
      <trkpt lat="47.77433" lon="6.83067">
        <ele>543</ele>
        <time>2022-04-05T14:20:58Z</time>
      </trkpt>
      <trkpt lat="47.77405" lon="6.83011">
        <ele>537</ele>
        <time>2022-04-05T14:21:06Z</time>
      </trkpt>
      <trkpt lat="47.7738" lon="6.82965">
        <ele>535</ele>
        <time>2022-04-05T14:21:13Z</time>
      </trkpt>
      <trkpt lat="47.7737" lon="6.82952">
        <ele>535</ele>
        <time>2022-04-05T14:21:16Z</time>
      </trkpt>
      <trkpt lat="47.7736" lon="6.82942">
        <ele>534</ele>
        <time>2022-04-05T14:21:18Z</time>
      </trkpt>
      <trkpt lat="47.77334" lon="6.82921">
        <ele>533</ele>
        <time>2022-04-05T14:21:23Z</time>
      </trkpt>
      <trkpt lat="47.77314" lon="6.8291">
        <ele>533</ele>
        <time>2022-04-05T14:21:27Z</time>
      </trkpt>
      <trkpt lat="47.77302" lon="6.82906">
        <ele>533</ele>
        <time>2022-04-05T14:21:29Z</time>
      </trkpt>
      <trkpt lat="47.77293" lon="6.82904">
        <ele>533</ele>
        <time>2022-04-05T14:21:31Z</time>
      </trkpt>
      <trkpt lat="47.77276" lon="6.82903">
        <ele>533</ele>
        <time>2022-04-05T14:21:34Z</time>
      </trkpt>
      <trkpt lat="47.7725" lon="6.82904">
        <ele>533</ele>
        <time>2022-04-05T14:21:38Z</time>
      </trkpt>
      <trkpt lat="47.77232" lon="6.82906">
        <ele>534</ele>
        <time>2022-04-05T14:21:41Z</time>
      </trkpt>
      <trkpt lat="47.77227" lon="6.82906">
        <ele>534</ele>
        <time>2022-04-05T14:21:42Z</time>
      </trkpt>
      <trkpt lat="47.77214" lon="6.82906">
        <ele>535</ele>
        <time>2022-04-05T14:21:45Z</time>
      </trkpt>
      <trkpt lat="47.77209" lon="6.82905">
        <ele>535</ele>
        <time>2022-04-05T14:21:46Z</time>
      </trkpt>
      <trkpt lat="47.77198" lon="6.82902">
        <ele>535</ele>
        <time>2022-04-05T14:21:48Z</time>
      </trkpt>
      <trkpt lat="47.77194" lon="6.82901">
        <ele>536</ele>
        <time>2022-04-05T14:21:48Z</time>
      </trkpt>
      <trkpt lat="47.77188" lon="6.82898">
        <ele>536</ele>
        <time>2022-04-05T14:21:49Z</time>
      </trkpt>
      <trkpt lat="47.77176" lon="6.82891">
        <ele>535</ele>
        <time>2022-04-05T14:21:52Z</time>
      </trkpt>
      <trkpt lat="47.7717" lon="6.82889">
        <ele>536</ele>
        <time>2022-04-05T14:21:53Z</time>
      </trkpt>
      <trkpt lat="47.77104" lon="6.8285">
        <ele>536</ele>
        <time>2022-04-05T14:22:05Z</time>
      </trkpt>
      <trkpt lat="47.77101" lon="6.82849">
        <ele>536</ele>
        <time>2022-04-05T14:22:06Z</time>
      </trkpt>
      <trkpt lat="47.77088" lon="6.82844">
        <ele>535</ele>
        <time>2022-04-05T14:22:08Z</time>
      </trkpt>
      <trkpt lat="47.77065" lon="6.82837">
        <ele>533</ele>
        <time>2022-04-05T14:22:13Z</time>
      </trkpt>
      <trkpt lat="47.77036" lon="6.82828">
        <ele>530</ele>
        <time>2022-04-05T14:22:18Z</time>
      </trkpt>
      <trkpt lat="47.77028" lon="6.82825">
        <ele>530</ele>
        <time>2022-04-05T14:22:19Z</time>
      </trkpt>
      <trkpt lat="47.76981" lon="6.8281">
        <ele>527</ele>
        <time>2022-04-05T14:22:28Z</time>
      </trkpt>
      <trkpt lat="47.76964" lon="6.82805">
        <ele>527</ele>
        <time>2022-04-05T14:22:31Z</time>
      </trkpt>
      <trkpt lat="47.76954" lon="6.82802">
        <ele>527</ele>
        <time>2022-04-05T14:22:33Z</time>
      </trkpt>
      <trkpt lat="47.76938" lon="6.82795">
        <ele>526</ele>
        <time>2022-04-05T14:22:36Z</time>
      </trkpt>
      <trkpt lat="47.7693" lon="6.8279">
        <ele>526</ele>
        <time>2022-04-05T14:22:37Z</time>
      </trkpt>
      <trkpt lat="47.76927" lon="6.82788">
        <ele>526</ele>
        <time>2022-04-05T14:22:38Z</time>
      </trkpt>
      <trkpt lat="47.76909" lon="6.82773">
        <ele>526</ele>
        <time>2022-04-05T14:22:41Z</time>
      </trkpt>
      <trkpt lat="47.76864" lon="6.82722">
        <ele>527</ele>
        <time>2022-04-05T14:22:52Z</time>
      </trkpt>
      <trkpt lat="47.7686" lon="6.82716">
        <ele>527</ele>
        <time>2022-04-05T14:22:53Z</time>
      </trkpt>
      <trkpt lat="47.76835" lon="6.82686">
        <ele>527</ele>
        <time>2022-04-05T14:22:58Z</time>
      </trkpt>
      <trkpt lat="47.76825" lon="6.82676">
        <ele>527</ele>
        <time>2022-04-05T14:23:00Z</time>
      </trkpt>
      <trkpt lat="47.76788" lon="6.82647">
        <ele>527</ele>
        <time>2022-04-05T14:23:08Z</time>
      </trkpt>
      <trkpt lat="47.76769" lon="6.82631">
        <ele>527</ele>
        <time>2022-04-05T14:23:12Z</time>
      </trkpt>
      <trkpt lat="47.76762" lon="6.82627">
        <ele>527</ele>
        <time>2022-04-05T14:23:13Z</time>
      </trkpt>
      <trkpt lat="47.76754" lon="6.82621">
        <ele>527</ele>
        <time>2022-04-05T14:23:15Z</time>
      </trkpt>
      <trkpt lat="47.76746" lon="6.82614">
        <ele>527</ele>
        <time>2022-04-05T14:23:16Z</time>
      </trkpt>
      <trkpt lat="47.76727" lon="6.82603">
        <ele>528</ele>
        <time>2022-04-05T14:23:20Z</time>
      </trkpt>
      <trkpt lat="47.76719" lon="6.82597">
        <ele>528</ele>
        <time>2022-04-05T14:23:22Z</time>
      </trkpt>
      <trkpt lat="47.76714" lon="6.82594">
        <ele>528</ele>
        <time>2022-04-05T14:23:23Z</time>
      </trkpt>
      <trkpt lat="47.76708" lon="6.82589">
        <ele>528</ele>
        <time>2022-04-05T14:23:24Z</time>
      </trkpt>
      <trkpt lat="47.76705" lon="6.82587">
        <ele>528</ele>
        <time>2022-04-05T14:23:24Z</time>
      </trkpt>
      <trkpt lat="47.76699" lon="6.8258">
        <ele>527</ele>
        <time>2022-04-05T14:23:26Z</time>
      </trkpt>
      <trkpt lat="47.76677" lon="6.82543">
        <ele>525</ele>
        <time>2022-04-05T14:23:32Z</time>
      </trkpt>
      <trkpt lat="47.76675" lon="6.82541">
        <ele>524</ele>
        <time>2022-04-05T14:23:32Z</time>
      </trkpt>
      <trkpt lat="47.76672" lon="6.82536">
        <ele>524</ele>
        <time>2022-04-05T14:23:33Z</time>
      </trkpt>
      <trkpt lat="47.76665" lon="6.82529">
        <ele>523</ele>
        <time>2022-04-05T14:23:34Z</time>
      </trkpt>
      <trkpt lat="47.76652" lon="6.82519">
        <ele>523</ele>
        <time>2022-04-05T14:23:37Z</time>
      </trkpt>
      <trkpt lat="47.76649" lon="6.82517">
        <ele>523</ele>
        <time>2022-04-05T14:23:38Z</time>
      </trkpt>
      <trkpt lat="47.7664" lon="6.82513">
        <ele>523</ele>
        <time>2022-04-05T14:23:39Z</time>
      </trkpt>
      <trkpt lat="47.76607" lon="6.82501">
        <ele>523</ele>
        <time>2022-04-05T14:23:45Z</time>
      </trkpt>
      <trkpt lat="47.76546" lon="6.82472">
        <ele>522</ele>
        <time>2022-04-05T14:23:57Z</time>
      </trkpt>
      <trkpt lat="47.76524" lon="6.82457">
        <ele>521</ele>
        <time>2022-04-05T14:24:01Z</time>
      </trkpt>
      <trkpt lat="47.76515" lon="6.82446">
        <ele>519</ele>
        <time>2022-04-05T14:24:03Z</time>
      </trkpt>
      <trkpt lat="47.7651" lon="6.82441">
        <ele>518</ele>
        <time>2022-04-05T14:24:04Z</time>
      </trkpt>
      <trkpt lat="47.76509" lon="6.82438">
        <ele>517</ele>
        <time>2022-04-05T14:24:04Z</time>
      </trkpt>
      <trkpt lat="47.76501" lon="6.82425">
        <ele>515</ele>
        <time>2022-04-05T14:24:07Z</time>
      </trkpt>
      <trkpt lat="47.76493" lon="6.82409">
        <ele>513</ele>
        <time>2022-04-05T14:24:09Z</time>
      </trkpt>
      <trkpt lat="47.76483" lon="6.82384">
        <ele>512</ele>
        <time>2022-04-05T14:24:12Z</time>
      </trkpt>
      <trkpt lat="47.76482" lon="6.82381">
        <ele>512</ele>
        <time>2022-04-05T14:24:13Z</time>
      </trkpt>
      <trkpt lat="47.76479" lon="6.82384">
        <ele>512</ele>
        <time>2022-04-05T14:24:13Z</time>
      </trkpt>
      <trkpt lat="47.76475" lon="6.82371">
        <ele>512</ele>
        <time>2022-04-05T14:24:15Z</time>
      </trkpt>
      <trkpt lat="47.76473" lon="6.82364">
        <ele>511</ele>
        <time>2022-04-05T14:24:16Z</time>
      </trkpt>
      <trkpt lat="47.76469" lon="6.82351">
        <ele>511</ele>
        <time>2022-04-05T14:24:18Z</time>
      </trkpt>
      <trkpt lat="47.76455" lon="6.82322">
        <ele>510</ele>
        <time>2022-04-05T14:24:22Z</time>
      </trkpt>
      <trkpt lat="47.76443" lon="6.82304">
        <ele>510</ele>
        <time>2022-04-05T14:24:25Z</time>
      </trkpt>
      <trkpt lat="47.76431" lon="6.82292">
        <ele>510</ele>
        <time>2022-04-05T14:24:28Z</time>
      </trkpt>
      <trkpt lat="47.76411" lon="6.82276">
        <ele>510</ele>
        <time>2022-04-05T14:24:32Z</time>
      </trkpt>
      <trkpt lat="47.76406" lon="6.82273">
        <ele>510</ele>
        <time>2022-04-05T14:24:33Z</time>
      </trkpt>
      <trkpt lat="47.76393" lon="6.82265">
        <ele>510</ele>
        <time>2022-04-05T14:24:35Z</time>
      </trkpt>
      <trkpt lat="47.76367" lon="6.82249">
        <ele>509</ele>
        <time>2022-04-05T14:24:40Z</time>
      </trkpt>
      <trkpt lat="47.7635" lon="6.82239">
        <ele>508</ele>
        <time>2022-04-05T14:24:43Z</time>
      </trkpt>
      <trkpt lat="47.76336" lon="6.82233">
        <ele>508</ele>
        <time>2022-04-05T14:24:46Z</time>
      </trkpt>
      <trkpt lat="47.7632" lon="6.82228">
        <ele>507</ele>
        <time>2022-04-05T14:24:49Z</time>
      </trkpt>
      <trkpt lat="47.7629" lon="6.82218">
        <ele>506</ele>
        <time>2022-04-05T14:24:54Z</time>
      </trkpt>
      <trkpt lat="47.76267" lon="6.82211">
        <ele>506</ele>
        <time>2022-04-05T14:24:59Z</time>
      </trkpt>
      <trkpt lat="47.76254" lon="6.82206">
        <ele>505</ele>
        <time>2022-04-05T14:25:01Z</time>
      </trkpt>
      <trkpt lat="47.76244" lon="6.822">
        <ele>505</ele>
        <time>2022-04-05T14:25:03Z</time>
      </trkpt>
      <trkpt lat="47.76236" lon="6.82194">
        <ele>505</ele>
        <time>2022-04-05T14:25:05Z</time>
      </trkpt>
      <trkpt lat="47.76217" lon="6.82179">
        <ele>505</ele>
        <time>2022-04-05T14:25:08Z</time>
      </trkpt>
      <trkpt lat="47.76193" lon="6.82159">
        <ele>504</ele>
        <time>2022-04-05T14:25:13Z</time>
      </trkpt>
      <trkpt lat="47.76183" lon="6.82151">
        <ele>504</ele>
        <time>2022-04-05T14:25:15Z</time>
      </trkpt>
      <trkpt lat="47.76171" lon="6.82143">
        <ele>503</ele>
        <time>2022-04-05T14:25:18Z</time>
      </trkpt>
      <trkpt lat="47.76162" lon="6.82137">
        <ele>504</ele>
        <time>2022-04-05T14:25:19Z</time>
      </trkpt>
      <trkpt lat="47.76159" lon="6.8213">
        <ele>504</ele>
        <time>2022-04-05T14:25:20Z</time>
      </trkpt>
      <trkpt lat="47.76147" lon="6.82123">
        <ele>504</ele>
        <time>2022-04-05T14:25:23Z</time>
      </trkpt>
      <trkpt lat="47.76126" lon="6.82111">
        <ele>504</ele>
        <time>2022-04-05T14:25:27Z</time>
      </trkpt>
      <trkpt lat="47.76082" lon="6.82086">
        <ele>504</ele>
        <time>2022-04-05T14:25:35Z</time>
      </trkpt>
      <trkpt lat="47.76064" lon="6.82075">
        <ele>504</ele>
        <time>2022-04-05T14:25:38Z</time>
      </trkpt>
      <trkpt lat="47.76047" lon="6.82063">
        <ele>505</ele>
        <time>2022-04-05T14:25:42Z</time>
      </trkpt>
      <trkpt lat="47.76035" lon="6.82054">
        <ele>504</ele>
        <time>2022-04-05T14:25:44Z</time>
      </trkpt>
      <trkpt lat="47.76029" lon="6.82051">
        <ele>504</ele>
        <time>2022-04-05T14:25:45Z</time>
      </trkpt>
      <trkpt lat="47.76028" lon="6.8205">
        <ele>504</ele>
        <time>2022-04-05T14:25:46Z</time>
      </trkpt>
      <trkpt lat="47.76018" lon="6.82043">
        <ele>504</ele>
        <time>2022-04-05T14:25:48Z</time>
      </trkpt>
      <trkpt lat="47.75998" lon="6.8203">
        <ele>503</ele>
        <time>2022-04-05T14:25:51Z</time>
      </trkpt>
      <trkpt lat="47.7599" lon="6.82027">
        <ele>503</ele>
        <time>2022-04-05T14:25:53Z</time>
      </trkpt>
      <trkpt lat="47.75988" lon="6.82026">
        <ele>504</ele>
        <time>2022-04-05T14:25:53Z</time>
      </trkpt>
      <trkpt lat="47.75985" lon="6.82024">
        <ele>504</ele>
        <time>2022-04-05T14:25:54Z</time>
      </trkpt>
      <trkpt lat="47.75977" lon="6.82021">
        <ele>504</ele>
        <time>2022-04-05T14:25:55Z</time>
      </trkpt>
      <trkpt lat="47.75953" lon="6.82012">
        <ele>504</ele>
        <time>2022-04-05T14:26:00Z</time>
      </trkpt>
      <trkpt lat="47.7595" lon="6.8201">
        <ele>503</ele>
        <time>2022-04-05T14:26:00Z</time>
      </trkpt>
      <trkpt lat="47.75945" lon="6.82008">
        <ele>503</ele>
        <time>2022-04-05T14:26:01Z</time>
      </trkpt>
      <trkpt lat="47.75934" lon="6.82003">
        <ele>503</ele>
        <time>2022-04-05T14:26:03Z</time>
      </trkpt>
      <trkpt lat="47.75919" lon="6.81996">
        <ele>503</ele>
        <time>2022-04-05T14:26:06Z</time>
      </trkpt>
      <trkpt lat="47.75915" lon="6.81994">
        <ele>503</ele>
        <time>2022-04-05T14:26:07Z</time>
      </trkpt>
      <trkpt lat="47.75906" lon="6.8199">
        <ele>503</ele>
        <time>2022-04-05T14:26:08Z</time>
      </trkpt>
      <trkpt lat="47.75904" lon="6.81989">
        <ele>503</ele>
        <time>2022-04-05T14:26:09Z</time>
      </trkpt>
      <trkpt lat="47.75882" lon="6.81974">
        <ele>502</ele>
        <time>2022-04-05T14:26:13Z</time>
      </trkpt>
      <trkpt lat="47.75876" lon="6.81968">
        <ele>502</ele>
        <time>2022-04-05T14:26:14Z</time>
      </trkpt>
      <trkpt lat="47.7585" lon="6.81944">
        <ele>501</ele>
        <time>2022-04-05T14:26:20Z</time>
      </trkpt>
      <trkpt lat="47.75847" lon="6.8194">
        <ele>501</ele>
        <time>2022-04-05T14:26:21Z</time>
      </trkpt>
      <trkpt lat="47.75841" lon="6.81935">
        <ele>501</ele>
        <time>2022-04-05T14:26:22Z</time>
      </trkpt>
      <trkpt lat="47.75832" lon="6.81933">
        <ele>501</ele>
        <time>2022-04-05T14:26:23Z</time>
      </trkpt>
      <trkpt lat="47.75827" lon="6.81933">
        <ele>501</ele>
        <time>2022-04-05T14:26:24Z</time>
      </trkpt>
      <trkpt lat="47.75814" lon="6.81931">
        <ele>501</ele>
        <time>2022-04-05T14:26:27Z</time>
      </trkpt>
      <trkpt lat="47.75805" lon="6.81928">
        <ele>500</ele>
        <time>2022-04-05T14:26:28Z</time>
      </trkpt>
      <trkpt lat="47.75779" lon="6.81919">
        <ele>500</ele>
        <time>2022-04-05T14:26:33Z</time>
      </trkpt>
      <trkpt lat="47.75778" lon="6.81918">
        <ele>500</ele>
        <time>2022-04-05T14:26:33Z</time>
      </trkpt>
      <trkpt lat="47.75717" lon="6.81899">
        <ele>499</ele>
        <time>2022-04-05T14:26:44Z</time>
      </trkpt>
      <trkpt lat="47.75702" lon="6.81897">
        <ele>500</ele>
        <time>2022-04-05T14:26:47Z</time>
      </trkpt>
      <trkpt lat="47.757" lon="6.81897">
        <ele>500</ele>
        <time>2022-04-05T14:26:47Z</time>
      </trkpt>
      <trkpt lat="47.75658" lon="6.81896">
        <ele>500</ele>
        <time>2022-04-05T14:26:55Z</time>
      </trkpt>
      <trkpt lat="47.75646" lon="6.81897">
        <ele>500</ele>
        <time>2022-04-05T14:26:57Z</time>
      </trkpt>
      <trkpt lat="47.75619" lon="6.81901">
        <ele>500</ele>
        <time>2022-04-05T14:27:02Z</time>
      </trkpt>
      <trkpt lat="47.75617" lon="6.81902">
        <ele>500</ele>
        <time>2022-04-05T14:27:02Z</time>
      </trkpt>
      <trkpt lat="47.7556" lon="6.8192">
        <ele>500</ele>
        <time>2022-04-05T14:27:13Z</time>
      </trkpt>
      <trkpt lat="47.75528" lon="6.8193">
        <ele>500</ele>
        <time>2022-04-05T14:27:18Z</time>
      </trkpt>
      <trkpt lat="47.75511" lon="6.81936">
        <ele>500</ele>
        <time>2022-04-05T14:27:22Z</time>
      </trkpt>
      <trkpt lat="47.75501" lon="6.81937">
        <ele>500</ele>
        <time>2022-04-05T14:27:23Z</time>
      </trkpt>
      <trkpt lat="47.75497" lon="6.81938">
        <ele>500</ele>
        <time>2022-04-05T14:27:24Z</time>
      </trkpt>
      <trkpt lat="47.75484" lon="6.81938">
        <ele>499</ele>
        <time>2022-04-05T14:27:26Z</time>
      </trkpt>
      <trkpt lat="47.75474" lon="6.81935">
        <ele>498</ele>
        <time>2022-04-05T14:27:28Z</time>
      </trkpt>
      <trkpt lat="47.75456" lon="6.81923">
        <ele>497</ele>
        <time>2022-04-05T14:27:32Z</time>
      </trkpt>
      <trkpt lat="47.7545" lon="6.81917">
        <ele>496</ele>
        <time>2022-04-05T14:27:33Z</time>
      </trkpt>
      <trkpt lat="47.75427" lon="6.81895">
        <ele>495</ele>
        <time>2022-04-05T14:27:38Z</time>
      </trkpt>
      <trkpt lat="47.75425" lon="6.81894">
        <ele>495</ele>
        <time>2022-04-05T14:27:38Z</time>
      </trkpt>
      <trkpt lat="47.7542" lon="6.81891">
        <ele>494</ele>
        <time>2022-04-05T14:27:39Z</time>
      </trkpt>
      <trkpt lat="47.75395" lon="6.81884">
        <ele>495</ele>
        <time>2022-04-05T14:27:44Z</time>
      </trkpt>
      <trkpt lat="47.75361" lon="6.81884">
        <ele>495</ele>
        <time>2022-04-05T14:27:50Z</time>
      </trkpt>
      <trkpt lat="47.75355" lon="6.81884">
        <ele>495</ele>
        <time>2022-04-05T14:27:51Z</time>
      </trkpt>
      <trkpt lat="47.75352" lon="6.81885">
        <ele>495</ele>
        <time>2022-04-05T14:27:51Z</time>
      </trkpt>
      <trkpt lat="47.75343" lon="6.81885">
        <ele>495</ele>
        <time>2022-04-05T14:27:53Z</time>
      </trkpt>
      <trkpt lat="47.7534" lon="6.81886">
        <ele>495</ele>
        <time>2022-04-05T14:27:53Z</time>
      </trkpt>
      <trkpt lat="47.75326" lon="6.81889">
        <ele>495</ele>
        <time>2022-04-05T14:27:56Z</time>
      </trkpt>
      <trkpt lat="47.75322" lon="6.81891">
        <ele>495</ele>
        <time>2022-04-05T14:27:57Z</time>
      </trkpt>
      <trkpt lat="47.75318" lon="6.81893">
        <ele>495</ele>
        <time>2022-04-05T14:27:57Z</time>
      </trkpt>
      <trkpt lat="47.75278" lon="6.81916">
        <ele>496</ele>
        <time>2022-04-05T14:28:05Z</time>
      </trkpt>
      <trkpt lat="47.75273" lon="6.81919">
        <ele>496</ele>
        <time>2022-04-05T14:28:06Z</time>
      </trkpt>
      <trkpt lat="47.75261" lon="6.81926">
        <ele>496</ele>
        <time>2022-04-05T14:28:08Z</time>
      </trkpt>
      <trkpt lat="47.75188" lon="6.81965">
        <ele>495</ele>
        <time>2022-04-05T14:28:22Z</time>
      </trkpt>
      <trkpt lat="47.75177" lon="6.81969">
        <ele>495</ele>
        <time>2022-04-05T14:28:24Z</time>
      </trkpt>
      <trkpt lat="47.75171" lon="6.81971">
        <ele>494</ele>
        <time>2022-04-05T14:28:25Z</time>
      </trkpt>
      <trkpt lat="47.75151" lon="6.8197">
        <ele>494</ele>
        <time>2022-04-05T14:28:29Z</time>
      </trkpt>
      <trkpt lat="47.75136" lon="6.81965">
        <ele>494</ele>
        <time>2022-04-05T14:28:32Z</time>
      </trkpt>
      <trkpt lat="47.75122" lon="6.81958">
        <ele>494</ele>
        <time>2022-04-05T14:28:34Z</time>
      </trkpt>
      <trkpt lat="47.75117" lon="6.81956">
        <ele>494</ele>
        <time>2022-04-05T14:28:35Z</time>
      </trkpt>
      <trkpt lat="47.75096" lon="6.81947">
        <ele>494</ele>
        <time>2022-04-05T14:28:39Z</time>
      </trkpt>
      <trkpt lat="47.75072" lon="6.81943">
        <ele>494</ele>
        <time>2022-04-05T14:28:43Z</time>
      </trkpt>
      <trkpt lat="47.75056" lon="6.81943">
        <ele>494</ele>
        <time>2022-04-05T14:28:46Z</time>
      </trkpt>
      <trkpt lat="47.75042" lon="6.81944">
        <ele>494</ele>
        <time>2022-04-05T14:28:49Z</time>
      </trkpt>
      <trkpt lat="47.75033" lon="6.81947">
        <ele>494</ele>
        <time>2022-04-05T14:28:50Z</time>
      </trkpt>
      <trkpt lat="47.75029" lon="6.81948">
        <ele>494</ele>
        <time>2022-04-05T14:28:51Z</time>
      </trkpt>
      <trkpt lat="47.75016" lon="6.81956">
        <ele>494</ele>
        <time>2022-04-05T14:28:54Z</time>
      </trkpt>
      <trkpt lat="47.75009" lon="6.81961">
        <ele>494</ele>
        <time>2022-04-05T14:28:55Z</time>
      </trkpt>
      <trkpt lat="47.75008" lon="6.81962">
        <ele>494</ele>
        <time>2022-04-05T14:28:55Z</time>
      </trkpt>
      <trkpt lat="47.74994" lon="6.81972">
        <ele>494</ele>
        <time>2022-04-05T14:28:58Z</time>
      </trkpt>
      <trkpt lat="47.74985" lon="6.81979">
        <ele>494</ele>
        <time>2022-04-05T14:29:00Z</time>
      </trkpt>
      <trkpt lat="47.74979" lon="6.81984">
        <ele>494</ele>
        <time>2022-04-05T14:29:01Z</time>
      </trkpt>
      <trkpt lat="47.74971" lon="6.8199">
        <ele>494</ele>
        <time>2022-04-05T14:29:03Z</time>
      </trkpt>
      <trkpt lat="47.74969" lon="6.81985">
        <ele>494</ele>
        <time>2022-04-05T14:29:03Z</time>
      </trkpt>
      <trkpt lat="47.74965" lon="6.81982">
        <ele>494</ele>
        <time>2022-04-05T14:29:04Z</time>
      </trkpt>
      <trkpt lat="47.74959" lon="6.81981">
        <ele>494</ele>
        <time>2022-04-05T14:29:05Z</time>
      </trkpt>
      <trkpt lat="47.74908" lon="6.81985">
        <ele>495</ele>
        <time>2022-04-05T14:29:14Z</time>
      </trkpt>
      <trkpt lat="47.74872" lon="6.82006">
        <ele>495</ele>
        <time>2022-04-05T14:29:21Z</time>
      </trkpt>
      <trkpt lat="47.74837" lon="6.82022">
        <ele>495</ele>
        <time>2022-04-05T14:29:28Z</time>
      </trkpt>
      <trkpt lat="47.74714" lon="6.82052">
        <ele>496</ele>
        <time>2022-04-05T14:29:50Z</time>
      </trkpt>
      <trkpt lat="47.74641" lon="6.82047">
        <ele>496</ele>
        <time>2022-04-05T14:30:03Z</time>
      </trkpt>
      <trkpt lat="47.74605" lon="6.82042">
        <ele>495</ele>
        <time>2022-04-05T14:30:09Z</time>
      </trkpt>
      <trkpt lat="47.7459" lon="6.82047">
        <ele>495</ele>
        <time>2022-04-05T14:30:12Z</time>
      </trkpt>
      <trkpt lat="47.74577" lon="6.82059">
        <ele>494</ele>
        <time>2022-04-05T14:30:15Z</time>
      </trkpt>
      <trkpt lat="47.74554" lon="6.82088">
        <ele>493</ele>
        <time>2022-04-05T14:30:20Z</time>
      </trkpt>
      <trkpt lat="47.74548" lon="6.82093">
        <ele>493</ele>
        <time>2022-04-05T14:30:21Z</time>
      </trkpt>
      <trkpt lat="47.74513" lon="6.821">
        <ele>491</ele>
        <time>2022-04-05T14:30:27Z</time>
      </trkpt>
      <trkpt lat="47.74491" lon="6.82107">
        <ele>491</ele>
        <time>2022-04-05T14:30:32Z</time>
      </trkpt>
      <trkpt lat="47.74456" lon="6.82129">
        <ele>491</ele>
        <time>2022-04-05T14:30:38Z</time>
      </trkpt>
      <trkpt lat="47.74444" lon="6.82134">
        <ele>491</ele>
        <time>2022-04-05T14:30:40Z</time>
      </trkpt>
      <trkpt lat="47.74434" lon="6.82132">
        <ele>492</ele>
        <time>2022-04-05T14:30:42Z</time>
      </trkpt>
      <trkpt lat="47.74384" lon="6.82108">
        <ele>491</ele>
        <time>2022-04-05T14:30:52Z</time>
      </trkpt>
      <trkpt lat="47.74337" lon="6.82105">
        <ele>490</ele>
        <time>2022-04-05T14:31:00Z</time>
      </trkpt>
      <trkpt lat="47.74337" lon="6.82101">
        <ele>490</ele>
        <time>2022-04-05T14:31:00Z</time>
      </trkpt>
      <trkpt lat="47.74337" lon="6.82089">
        <ele>491</ele>
        <time>2022-04-05T14:31:02Z</time>
      </trkpt>
      <trkpt lat="47.74335" lon="6.82081">
        <ele>491</ele>
        <time>2022-04-05T14:31:03Z</time>
      </trkpt>
      <trkpt lat="47.74334" lon="6.82078">
        <ele>491</ele>
        <time>2022-04-05T14:31:03Z</time>
      </trkpt>
      <trkpt lat="47.74332" lon="6.82074">
        <ele>491</ele>
        <time>2022-04-05T14:31:04Z</time>
      </trkpt>
      <trkpt lat="47.74331" lon="6.82071">
        <ele>491</ele>
        <time>2022-04-05T14:31:04Z</time>
      </trkpt>
      <trkpt lat="47.74325" lon="6.82057">
        <ele>491</ele>
        <time>2022-04-05T14:31:06Z</time>
      </trkpt>
      <trkpt lat="47.74318" lon="6.82049">
        <ele>491</ele>
        <time>2022-04-05T14:31:08Z</time>
      </trkpt>
      <trkpt lat="47.74306" lon="6.82024">
        <ele>491</ele>
        <time>2022-04-05T14:31:12Z</time>
      </trkpt>
      <trkpt lat="47.74303" lon="6.82018">
        <ele>491</ele>
        <time>2022-04-05T14:31:12Z</time>
      </trkpt>
      <trkpt lat="47.74293" lon="6.81998">
        <ele>491</ele>
        <time>2022-04-05T14:31:15Z</time>
      </trkpt>
      <trkpt lat="47.74288" lon="6.81989">
        <ele>491</ele>
        <time>2022-04-05T14:31:17Z</time>
      </trkpt>
      <trkpt lat="47.74283" lon="6.81971">
        <ele>492</ele>
        <time>2022-04-05T14:31:19Z</time>
      </trkpt>
      <trkpt lat="47.74272" lon="6.8193">
        <ele>494</ele>
        <time>2022-04-05T14:31:24Z</time>
      </trkpt>
      <trkpt lat="47.74261" lon="6.81902">
        <ele>494</ele>
        <time>2022-04-05T14:31:28Z</time>
      </trkpt>
      <trkpt lat="47.74246" lon="6.81878">
        <ele>495</ele>
        <time>2022-04-05T14:31:32Z</time>
      </trkpt>
      <trkpt lat="47.7424" lon="6.81871">
        <ele>495</ele>
        <time>2022-04-05T14:31:34Z</time>
      </trkpt>
      <trkpt lat="47.74238" lon="6.81867">
        <ele>495</ele>
        <time>2022-04-05T14:31:34Z</time>
      </trkpt>
      <trkpt lat="47.74229" lon="6.81852">
        <ele>496</ele>
        <time>2022-04-05T14:31:37Z</time>
      </trkpt>
      <trkpt lat="47.74221" lon="6.8184">
        <ele>496</ele>
        <time>2022-04-05T14:31:39Z</time>
      </trkpt>
      <trkpt lat="47.74214" lon="6.8183">
        <ele>496</ele>
        <time>2022-04-05T14:31:40Z</time>
      </trkpt>
      <trkpt lat="47.74177" lon="6.81792">
        <ele>498</ele>
        <time>2022-04-05T14:31:48Z</time>
      </trkpt>
      <trkpt lat="47.7417" lon="6.81785">
        <ele>499</ele>
        <time>2022-04-05T14:31:50Z</time>
      </trkpt>
      <trkpt lat="47.74163" lon="6.8177">
        <ele>500</ele>
        <time>2022-04-05T14:31:52Z</time>
      </trkpt>
      <trkpt lat="47.74149" lon="6.8174">
        <ele>503</ele>
        <time>2022-04-05T14:31:56Z</time>
      </trkpt>
      <trkpt lat="47.74143" lon="6.81726">
        <ele>504</ele>
        <time>2022-04-05T14:31:58Z</time>
      </trkpt>
      <trkpt lat="47.74123" lon="6.81683">
        <ele>506</ele>
        <time>2022-04-05T14:32:05Z</time>
      </trkpt>
      <trkpt lat="47.74121" lon="6.81678">
        <ele>507</ele>
        <time>2022-04-05T14:32:05Z</time>
      </trkpt>
      <trkpt lat="47.74117" lon="6.81675">
        <ele>507</ele>
        <time>2022-04-05T14:32:06Z</time>
      </trkpt>
      <trkpt lat="47.74116" lon="6.81668">
        <ele>507</ele>
        <time>2022-04-05T14:32:07Z</time>
      </trkpt>
      <trkpt lat="47.74113" lon="6.81662">
        <ele>508</ele>
        <time>2022-04-05T14:32:08Z</time>
      </trkpt>
      <trkpt lat="47.74111" lon="6.81658">
        <ele>508</ele>
        <time>2022-04-05T14:32:08Z</time>
      </trkpt>
      <trkpt lat="47.7411" lon="6.81653">
        <ele>508</ele>
        <time>2022-04-05T14:32:09Z</time>
      </trkpt>
      <trkpt lat="47.74107" lon="6.81649">
        <ele>508</ele>
        <time>2022-04-05T14:32:10Z</time>
      </trkpt>
      <trkpt lat="47.741" lon="6.81634">
        <ele>509</ele>
        <time>2022-04-05T14:32:12Z</time>
      </trkpt>
      <trkpt lat="47.74083" lon="6.81594">
        <ele>510</ele>
        <time>2022-04-05T14:32:18Z</time>
      </trkpt>
      <trkpt lat="47.74082" lon="6.81589">
        <ele>511</ele>
        <time>2022-04-05T14:32:18Z</time>
      </trkpt>
      <trkpt lat="47.74081" lon="6.81584">
        <ele>511</ele>
        <time>2022-04-05T14:32:19Z</time>
      </trkpt>
      <trkpt lat="47.7408" lon="6.81579">
        <ele>511</ele>
        <time>2022-04-05T14:32:20Z</time>
      </trkpt>
      <trkpt lat="47.74079" lon="6.81573">
        <ele>511</ele>
        <time>2022-04-05T14:32:20Z</time>
      </trkpt>
      <trkpt lat="47.74079" lon="6.81564">
        <ele>512</ele>
        <time>2022-04-05T14:32:21Z</time>
      </trkpt>
      <trkpt lat="47.7408" lon="6.81547">
        <ele>512</ele>
        <time>2022-04-05T14:32:23Z</time>
      </trkpt>
      <trkpt lat="47.74083" lon="6.81527">
        <ele>513</ele>
        <time>2022-04-05T14:32:26Z</time>
      </trkpt>
      <trkpt lat="47.74103" lon="6.8146">
        <ele>516</ele>
        <time>2022-04-05T14:32:35Z</time>
      </trkpt>
      <trkpt lat="47.74132" lon="6.81364">
        <ele>517</ele>
        <time>2022-04-05T14:32:47Z</time>
      </trkpt>
      <trkpt lat="47.74138" lon="6.81346">
        <ele>518</ele>
        <time>2022-04-05T14:32:50Z</time>
      </trkpt>
      <trkpt lat="47.74141" lon="6.81335">
        <ele>518</ele>
        <time>2022-04-05T14:32:51Z</time>
      </trkpt>
      <trkpt lat="47.74143" lon="6.81311">
        <ele>518</ele>
        <time>2022-04-05T14:32:54Z</time>
      </trkpt>
      <trkpt lat="47.74143" lon="6.81309">
        <ele>518</ele>
        <time>2022-04-05T14:32:54Z</time>
      </trkpt>
      <trkpt lat="47.74143" lon="6.81294">
        <ele>519</ele>
        <time>2022-04-05T14:32:56Z</time>
      </trkpt>
      <trkpt lat="47.74137" lon="6.81204">
        <ele>521</ele>
        <time>2022-04-05T14:33:07Z</time>
      </trkpt>
      <trkpt lat="47.74129" lon="6.8111">
        <ele>524</ele>
        <time>2022-04-05T14:33:18Z</time>
      </trkpt>
      <trkpt lat="47.7413" lon="6.81089">
        <ele>524</ele>
        <time>2022-04-05T14:33:21Z</time>
      </trkpt>
      <trkpt lat="47.7413" lon="6.81086">
        <ele>525</ele>
        <time>2022-04-05T14:33:21Z</time>
      </trkpt>
      <trkpt lat="47.74131" lon="6.81076">
        <ele>524</ele>
        <time>2022-04-05T14:33:22Z</time>
      </trkpt>
      <trkpt lat="47.7414" lon="6.81027">
        <ele>523</ele>
        <time>2022-04-05T14:33:28Z</time>
      </trkpt>
      <trkpt lat="47.74153" lon="6.80959">
        <ele>522</ele>
        <time>2022-04-05T14:33:37Z</time>
      </trkpt>
      <trkpt lat="47.74165" lon="6.80895">
        <ele>522</ele>
        <time>2022-04-05T14:33:45Z</time>
      </trkpt>
      <trkpt lat="47.74171" lon="6.80858">
        <ele>523</ele>
        <time>2022-04-05T14:33:49Z</time>
      </trkpt>
      <trkpt lat="47.74172" lon="6.80836">
        <ele>523</ele>
        <time>2022-04-05T14:33:52Z</time>
      </trkpt>
      <trkpt lat="47.74163" lon="6.80776">
        <ele>528</ele>
        <time>2022-04-05T14:33:59Z</time>
      </trkpt>
      <trkpt lat="47.74162" lon="6.80765">
        <ele>529</ele>
        <time>2022-04-05T14:34:01Z</time>
      </trkpt>
      <trkpt lat="47.74159" lon="6.80743">
        <ele>529</ele>
        <time>2022-04-05T14:34:03Z</time>
      </trkpt>
      <trkpt lat="47.74156" lon="6.80681">
        <ele>528</ele>
        <time>2022-04-05T14:34:11Z</time>
      </trkpt>
      <trkpt lat="47.74153" lon="6.80572">
        <ele>525</ele>
        <time>2022-04-05T14:34:24Z</time>
      </trkpt>
      <trkpt lat="47.74151" lon="6.80548">
        <ele>524</ele>
        <time>2022-04-05T14:34:27Z</time>
      </trkpt>
      <trkpt lat="47.7415" lon="6.80534">
        <ele>524</ele>
        <time>2022-04-05T14:34:28Z</time>
      </trkpt>
      <trkpt lat="47.74147" lon="6.80521">
        <ele>524</ele>
        <time>2022-04-05T14:34:30Z</time>
      </trkpt>
      <trkpt lat="47.74144" lon="6.80507">
        <ele>523</ele>
        <time>2022-04-05T14:34:32Z</time>
      </trkpt>
      <trkpt lat="47.7414" lon="6.8049">
        <ele>523</ele>
        <time>2022-04-05T14:34:34Z</time>
      </trkpt>
      <trkpt lat="47.74135" lon="6.80476">
        <ele>523</ele>
        <time>2022-04-05T14:34:36Z</time>
      </trkpt>
      <trkpt lat="47.74125" lon="6.80445">
        <ele>523</ele>
        <time>2022-04-05T14:34:40Z</time>
      </trkpt>
      <trkpt lat="47.74118" lon="6.8042">
        <ele>523</ele>
        <time>2022-04-05T14:34:43Z</time>
      </trkpt>
      <trkpt lat="47.74112" lon="6.80374">
        <ele>524</ele>
        <time>2022-04-05T14:34:49Z</time>
      </trkpt>
      <trkpt lat="47.7411" lon="6.80358">
        <ele>524</ele>
        <time>2022-04-05T14:34:51Z</time>
      </trkpt>
      <trkpt lat="47.74107" lon="6.80332">
        <ele>524</ele>
        <time>2022-04-05T14:34:54Z</time>
      </trkpt>
      <trkpt lat="47.74105" lon="6.8031">
        <ele>523</ele>
        <time>2022-04-05T14:34:57Z</time>
      </trkpt>
      <trkpt lat="47.74105" lon="6.80283">
        <ele>523</ele>
        <time>2022-04-05T14:35:00Z</time>
      </trkpt>
      <trkpt lat="47.74106" lon="6.80259">
        <ele>524</ele>
        <time>2022-04-05T14:35:03Z</time>
      </trkpt>
      <trkpt lat="47.74114" lon="6.80204">
        <ele>525</ele>
        <time>2022-04-05T14:35:09Z</time>
      </trkpt>
      <trkpt lat="47.74149" lon="6.80063">
        <ele>526</ele>
        <time>2022-04-05T14:35:27Z</time>
      </trkpt>
      <trkpt lat="47.74159" lon="6.80026">
        <ele>524</ele>
        <time>2022-04-05T14:35:32Z</time>
      </trkpt>
      <trkpt lat="47.74187" lon="6.79962">
        <ele>531</ele>
        <time>2022-04-05T14:35:41Z</time>
      </trkpt>
      <trkpt lat="47.74196" lon="6.79936">
        <ele>534</ele>
        <time>2022-04-05T14:35:45Z</time>
      </trkpt>
      <trkpt lat="47.74197" lon="6.79923">
        <ele>534</ele>
        <time>2022-04-05T14:35:46Z</time>
      </trkpt>
      <trkpt lat="47.74197" lon="6.79912">
        <ele>535</ele>
        <time>2022-04-05T14:35:48Z</time>
      </trkpt>
      <trkpt lat="47.74194" lon="6.79898">
        <ele>536</ele>
        <time>2022-04-05T14:35:49Z</time>
      </trkpt>
      <trkpt lat="47.74188" lon="6.7989">
        <ele>536</ele>
        <time>2022-04-05T14:35:51Z</time>
      </trkpt>
      <trkpt lat="47.74181" lon="6.79884">
        <ele>536</ele>
        <time>2022-04-05T14:35:52Z</time>
      </trkpt>
      <trkpt lat="47.74179" lon="6.79882">
        <ele>535</ele>
        <time>2022-04-05T14:35:53Z</time>
      </trkpt>
      <trkpt lat="47.74176" lon="6.79882">
        <ele>535</ele>
        <time>2022-04-05T14:35:53Z</time>
      </trkpt>
      <trkpt lat="47.7417" lon="6.79881">
        <ele>534</ele>
        <time>2022-04-05T14:35:54Z</time>
      </trkpt>
      <trkpt lat="47.74115" lon="6.79885">
        <ele>530</ele>
        <time>2022-04-05T14:36:04Z</time>
      </trkpt>
      <trkpt lat="47.74104" lon="6.79882">
        <ele>530</ele>
        <time>2022-04-05T14:36:06Z</time>
      </trkpt>
      <trkpt lat="47.74087" lon="6.79869">
        <ele>531</ele>
        <time>2022-04-05T14:36:09Z</time>
      </trkpt>
      <trkpt lat="47.74075" lon="6.79853">
        <ele>534</ele>
        <time>2022-04-05T14:36:12Z</time>
      </trkpt>
      <trkpt lat="47.74031" lon="6.79762">
        <ele>545</ele>
        <time>2022-04-05T14:36:26Z</time>
      </trkpt>
      <trkpt lat="47.74017" lon="6.7974">
        <ele>547</ele>
        <time>2022-04-05T14:36:29Z</time>
      </trkpt>
      <trkpt lat="47.73977" lon="6.79688">
        <ele>548</ele>
        <time>2022-04-05T14:36:39Z</time>
      </trkpt>
      <trkpt lat="47.73967" lon="6.7967">
        <ele>549</ele>
        <time>2022-04-05T14:36:42Z</time>
      </trkpt>
      <trkpt lat="47.73959" lon="6.7965">
        <ele>549</ele>
        <time>2022-04-05T14:36:44Z</time>
      </trkpt>
      <trkpt lat="47.73949" lon="6.79613">
        <ele>549</ele>
        <time>2022-04-05T14:36:49Z</time>
      </trkpt>
      <trkpt lat="47.73934" lon="6.79531">
        <ele>546</ele>
        <time>2022-04-05T14:36:59Z</time>
      </trkpt>
      <trkpt lat="47.73933" lon="6.79523">
        <ele>546</ele>
        <time>2022-04-05T14:37:00Z</time>
      </trkpt>
      <trkpt lat="47.73923" lon="6.79464">
        <ele>543</ele>
        <time>2022-04-05T14:37:08Z</time>
      </trkpt>
      <trkpt lat="47.73913" lon="6.79417">
        <ele>541</ele>
        <time>2022-04-05T14:37:14Z</time>
      </trkpt>
      <trkpt lat="47.73904" lon="6.79393">
        <ele>541</ele>
        <time>2022-04-05T14:37:17Z</time>
      </trkpt>
      <trkpt lat="47.73859" lon="6.79298">
        <ele>537</ele>
        <time>2022-04-05T14:37:31Z</time>
      </trkpt>
      <trkpt lat="47.73837" lon="6.79244">
        <ele>535</ele>
        <time>2022-04-05T14:37:38Z</time>
      </trkpt>
      <trkpt lat="47.73819" lon="6.79196">
        <ele>533</ele>
        <time>2022-04-05T14:37:45Z</time>
      </trkpt>
      <trkpt lat="47.73809" lon="6.7916">
        <ele>531</ele>
        <time>2022-04-05T14:37:49Z</time>
      </trkpt>
      <trkpt lat="47.73801" lon="6.79118">
        <ele>529</ele>
        <time>2022-04-05T14:37:55Z</time>
      </trkpt>
      <trkpt lat="47.7378" lon="6.7895">
        <ele>523</ele>
        <time>2022-04-05T14:38:15Z</time>
      </trkpt>
      <trkpt lat="47.73776" lon="6.78922">
        <ele>522</ele>
        <time>2022-04-05T14:38:19Z</time>
      </trkpt>
      <trkpt lat="47.73772" lon="6.78898">
        <ele>522</ele>
        <time>2022-04-05T14:38:22Z</time>
      </trkpt>
      <trkpt lat="47.73761" lon="6.78839">
        <ele>522</ele>
        <time>2022-04-05T14:38:29Z</time>
      </trkpt>
      <trkpt lat="47.73749" lon="6.78787">
        <ele>523</ele>
        <time>2022-04-05T14:38:35Z</time>
      </trkpt>
      <trkpt lat="47.73747" lon="6.78778">
        <ele>523</ele>
        <time>2022-04-05T14:38:37Z</time>
      </trkpt>
      <trkpt lat="47.7373" lon="6.7871">
        <ele>523</ele>
        <time>2022-04-05T14:38:45Z</time>
      </trkpt>
      <trkpt lat="47.73721" lon="6.78676">
        <ele>523</ele>
        <time>2022-04-05T14:38:50Z</time>
      </trkpt>
      <trkpt lat="47.73706" lon="6.78621">
        <ele>520</ele>
        <time>2022-04-05T14:38:57Z</time>
      </trkpt>
      <trkpt lat="47.73686" lon="6.78547">
        <ele>517</ele>
        <time>2022-04-05T14:39:06Z</time>
      </trkpt>
      <trkpt lat="47.73673" lon="6.78512">
        <ele>516</ele>
        <time>2022-04-05T14:39:11Z</time>
      </trkpt>
      <trkpt lat="47.73662" lon="6.78491">
        <ele>514</ele>
        <time>2022-04-05T14:39:14Z</time>
      </trkpt>
      <trkpt lat="47.73646" lon="6.78467">
        <ele>512</ele>
        <time>2022-04-05T14:39:18Z</time>
      </trkpt>
      <trkpt lat="47.7364" lon="6.78459">
        <ele>511</ele>
        <time>2022-04-05T14:39:20Z</time>
      </trkpt>
      <trkpt lat="47.73639" lon="6.78456">
        <ele>511</ele>
        <time>2022-04-05T14:39:20Z</time>
      </trkpt>
      <trkpt lat="47.73632" lon="6.78443">
        <ele>511</ele>
        <time>2022-04-05T14:39:22Z</time>
      </trkpt>
      <trkpt lat="47.73605" lon="6.78402">
        <ele>508</ele>
        <time>2022-04-05T14:39:29Z</time>
      </trkpt>
      <trkpt lat="47.73598" lon="6.78395">
        <ele>507</ele>
        <time>2022-04-05T14:39:30Z</time>
      </trkpt>
      <trkpt lat="47.73562" lon="6.78341">
        <ele>506</ele>
        <time>2022-04-05T14:39:40Z</time>
      </trkpt>
      <trkpt lat="47.73549" lon="6.78329">
        <ele>506</ele>
        <time>2022-04-05T14:39:42Z</time>
      </trkpt>
      <trkpt lat="47.7354" lon="6.78323">
        <ele>505</ele>
        <time>2022-04-05T14:39:44Z</time>
      </trkpt>
      <trkpt lat="47.73527" lon="6.78321">
        <ele>504</ele>
        <time>2022-04-05T14:39:46Z</time>
      </trkpt>
      <trkpt lat="47.7351" lon="6.78323">
        <ele>503</ele>
        <time>2022-04-05T14:39:49Z</time>
      </trkpt>
      <trkpt lat="47.73498" lon="6.78328">
        <ele>503</ele>
        <time>2022-04-05T14:39:52Z</time>
      </trkpt>
      <trkpt lat="47.73482" lon="6.78341">
        <ele>502</ele>
        <time>2022-04-05T14:39:55Z</time>
      </trkpt>
      <trkpt lat="47.73475" lon="6.78355">
        <ele>502</ele>
        <time>2022-04-05T14:39:57Z</time>
      </trkpt>
      <trkpt lat="47.73457" lon="6.78411">
        <ele>499</ele>
        <time>2022-04-05T14:40:04Z</time>
      </trkpt>
      <trkpt lat="47.73447" lon="6.78426">
        <ele>498</ele>
        <time>2022-04-05T14:40:07Z</time>
      </trkpt>
      <trkpt lat="47.73432" lon="6.78436">
        <ele>498</ele>
        <time>2022-04-05T14:40:10Z</time>
      </trkpt>
      <trkpt lat="47.73385" lon="6.78446">
        <ele>498</ele>
        <time>2022-04-05T14:40:18Z</time>
      </trkpt>
      <trkpt lat="47.7338" lon="6.78448">
        <ele>498</ele>
        <time>2022-04-05T14:40:19Z</time>
      </trkpt>
      <trkpt lat="47.73359" lon="6.78447">
        <ele>498</ele>
        <time>2022-04-05T14:40:23Z</time>
      </trkpt>
      <trkpt lat="47.73345" lon="6.78438">
        <ele>499</ele>
        <time>2022-04-05T14:40:26Z</time>
      </trkpt>
      <trkpt lat="47.7334" lon="6.78432">
        <ele>499</ele>
        <time>2022-04-05T14:40:27Z</time>
      </trkpt>
      <trkpt lat="47.73337" lon="6.78427">
        <ele>499</ele>
        <time>2022-04-05T14:40:28Z</time>
      </trkpt>
      <trkpt lat="47.73336" lon="6.78426">
        <ele>499</ele>
        <time>2022-04-05T14:40:28Z</time>
      </trkpt>
      <trkpt lat="47.73335" lon="6.7842">
        <ele>499</ele>
        <time>2022-04-05T14:40:29Z</time>
      </trkpt>
      <trkpt lat="47.73333" lon="6.78415">
        <ele>499</ele>
        <time>2022-04-05T14:40:29Z</time>
      </trkpt>
      <trkpt lat="47.73332" lon="6.78411">
        <ele>499</ele>
        <time>2022-04-05T14:40:30Z</time>
      </trkpt>
      <trkpt lat="47.73331" lon="6.78403">
        <ele>499</ele>
        <time>2022-04-05T14:40:31Z</time>
      </trkpt>
      <trkpt lat="47.73331" lon="6.78384">
        <ele>499</ele>
        <time>2022-04-05T14:40:33Z</time>
      </trkpt>
      <trkpt lat="47.73335" lon="6.78325">
        <ele>499</ele>
        <time>2022-04-05T14:40:40Z</time>
      </trkpt>
      <trkpt lat="47.73333" lon="6.78297">
        <ele>497</ele>
        <time>2022-04-05T14:40:44Z</time>
      </trkpt>
      <trkpt lat="47.73329" lon="6.78278">
        <ele>495</ele>
        <time>2022-04-05T14:40:46Z</time>
      </trkpt>
      <trkpt lat="47.73326" lon="6.78276">
        <ele>494</ele>
        <time>2022-04-05T14:40:46Z</time>
      </trkpt>
      <trkpt lat="47.73329" lon="6.78288">
        <ele>496</ele>
        <time>2022-04-05T14:40:48Z</time>
      </trkpt>
      <trkpt lat="47.73326" lon="6.78276">
        <ele>494</ele>
        <time>2022-04-05T14:40:50Z</time>
      </trkpt>
      <trkpt lat="47.73329" lon="6.78278">
        <ele>495</ele>
        <time>2022-04-05T14:40:50Z</time>
      </trkpt>
      <trkpt lat="47.73326" lon="6.78268">
        <ele>494</ele>
        <time>2022-04-05T14:40:51Z</time>
      </trkpt>
      <trkpt lat="47.73315" lon="6.78227">
        <ele>491</ele>
        <time>2022-04-05T14:40:57Z</time>
      </trkpt>
      <trkpt lat="47.73312" lon="6.7822">
        <ele>490</ele>
        <time>2022-04-05T14:40:58Z</time>
      </trkpt>
      <trkpt lat="47.73315" lon="6.7822">
        <ele>490</ele>
        <time>2022-04-05T14:40:58Z</time>
      </trkpt>
      <trkpt lat="47.73318" lon="6.78218">
        <ele>490</ele>
        <time>2022-04-05T14:40:59Z</time>
      </trkpt>
      <trkpt lat="47.73321" lon="6.78215">
        <ele>490</ele>
        <time>2022-04-05T14:40:59Z</time>
      </trkpt>
      <trkpt lat="47.73323" lon="6.78211">
        <ele>490</ele>
        <time>2022-04-05T14:41:00Z</time>
      </trkpt>
      <trkpt lat="47.73324" lon="6.78206">
        <ele>489</ele>
        <time>2022-04-05T14:41:01Z</time>
      </trkpt>
      <trkpt lat="47.73324" lon="6.78201">
        <ele>489</ele>
        <time>2022-04-05T14:41:01Z</time>
      </trkpt>
      <trkpt lat="47.73323" lon="6.78196">
        <ele>489</ele>
        <time>2022-04-05T14:41:02Z</time>
      </trkpt>
      <trkpt lat="47.73321" lon="6.78192">
        <ele>488</ele>
        <time>2022-04-05T14:41:03Z</time>
      </trkpt>
      <trkpt lat="47.73318" lon="6.7819">
        <ele>488</ele>
        <time>2022-04-05T14:41:03Z</time>
      </trkpt>
      <trkpt lat="47.73313" lon="6.78189">
        <ele>488</ele>
        <time>2022-04-05T14:41:04Z</time>
      </trkpt>
      <trkpt lat="47.7331" lon="6.7819">
        <ele>488</ele>
        <time>2022-04-05T14:41:05Z</time>
      </trkpt>
      <trkpt lat="47.73309" lon="6.78185">
        <ele>488</ele>
        <time>2022-04-05T14:41:05Z</time>
      </trkpt>
      <trkpt lat="47.73308" lon="6.78178">
        <ele>487</ele>
        <time>2022-04-05T14:41:06Z</time>
      </trkpt>
      <trkpt lat="47.73305" lon="6.78107">
        <ele>487</ele>
        <time>2022-04-05T14:41:15Z</time>
      </trkpt>
      <trkpt lat="47.7331" lon="6.78064">
        <ele>488</ele>
        <time>2022-04-05T14:41:20Z</time>
      </trkpt>
      <trkpt lat="47.73321" lon="6.78026">
        <ele>488</ele>
        <time>2022-04-05T14:41:25Z</time>
      </trkpt>
      <trkpt lat="47.73394" lon="6.77842">
        <ele>492</ele>
        <time>2022-04-05T14:41:50Z</time>
      </trkpt>
      <trkpt lat="47.73437" lon="6.77713">
        <ele>495</ele>
        <time>2022-04-05T14:42:07Z</time>
      </trkpt>
      <trkpt lat="47.73443" lon="6.77693">
        <ele>495</ele>
        <time>2022-04-05T14:42:10Z</time>
      </trkpt>
      <trkpt lat="47.73447" lon="6.77663">
        <ele>495</ele>
        <time>2022-04-05T14:42:14Z</time>
      </trkpt>
      <trkpt lat="47.73447" lon="6.77637">
        <ele>496</ele>
        <time>2022-04-05T14:42:17Z</time>
      </trkpt>
      <trkpt lat="47.73444" lon="6.77616">
        <ele>496</ele>
        <time>2022-04-05T14:42:19Z</time>
      </trkpt>
      <trkpt lat="47.73433" lon="6.77587">
        <ele>496</ele>
        <time>2022-04-05T14:42:23Z</time>
      </trkpt>
      <trkpt lat="47.73427" lon="6.77576">
        <ele>496</ele>
        <time>2022-04-05T14:42:25Z</time>
      </trkpt>
      <trkpt lat="47.73376" lon="6.77515">
        <ele>495</ele>
        <time>2022-04-05T14:42:37Z</time>
      </trkpt>
      <trkpt lat="47.73362" lon="6.77497">
        <ele>494</ele>
        <time>2022-04-05T14:42:40Z</time>
      </trkpt>
      <trkpt lat="47.73355" lon="6.77482">
        <ele>494</ele>
        <time>2022-04-05T14:42:42Z</time>
      </trkpt>
      <trkpt lat="47.73345" lon="6.77452">
        <ele>494</ele>
        <time>2022-04-05T14:42:46Z</time>
      </trkpt>
      <trkpt lat="47.73341" lon="6.77435">
        <ele>494</ele>
        <time>2022-04-05T14:42:48Z</time>
      </trkpt>
      <trkpt lat="47.73307" lon="6.77219">
        <ele>500</ele>
        <time>2022-04-05T14:43:15Z</time>
      </trkpt>
      <trkpt lat="47.73294" lon="6.77162">
        <ele>503</ele>
        <time>2022-04-05T14:43:22Z</time>
      </trkpt>
      <trkpt lat="47.73239" lon="6.76966">
        <ele>509</ele>
        <time>2022-04-05T14:43:48Z</time>
      </trkpt>
      <trkpt lat="47.73221" lon="6.76889">
        <ele>512</ele>
        <time>2022-04-05T14:43:57Z</time>
      </trkpt>
      <trkpt lat="47.732" lon="6.76824">
        <ele>514</ele>
        <time>2022-04-05T14:44:06Z</time>
      </trkpt>
      <trkpt lat="47.73189" lon="6.76795">
        <ele>515</ele>
        <time>2022-04-05T14:44:10Z</time>
      </trkpt>
      <trkpt lat="47.73182" lon="6.76781">
        <ele>515</ele>
        <time>2022-04-05T14:44:12Z</time>
      </trkpt>
      <trkpt lat="47.73134" lon="6.76667">
        <ele>515</ele>
        <time>2022-04-05T14:44:28Z</time>
      </trkpt>
      <trkpt lat="47.73072" lon="6.76559">
        <ele>509</ele>
        <time>2022-04-05T14:44:45Z</time>
      </trkpt>
      <trkpt lat="47.73064" lon="6.76551">
        <ele>508</ele>
        <time>2022-04-05T14:44:47Z</time>
      </trkpt>
      <trkpt lat="47.73056" lon="6.76545">
        <ele>507</ele>
        <time>2022-04-05T14:44:48Z</time>
      </trkpt>
      <trkpt lat="47.73046" lon="6.76542">
        <ele>506</ele>
        <time>2022-04-05T14:44:50Z</time>
      </trkpt>
      <trkpt lat="47.73036" lon="6.76542">
        <ele>505</ele>
        <time>2022-04-05T14:44:52Z</time>
      </trkpt>
      <trkpt lat="47.72971" lon="6.76559">
        <ele>503</ele>
        <time>2022-04-05T14:45:04Z</time>
      </trkpt>
      <trkpt lat="47.72955" lon="6.76558">
        <ele>504</ele>
        <time>2022-04-05T14:45:07Z</time>
      </trkpt>
      <trkpt lat="47.72933" lon="6.76547">
        <ele>505</ele>
        <time>2022-04-05T14:45:11Z</time>
      </trkpt>
      <trkpt lat="47.72924" lon="6.7654">
        <ele>504</ele>
        <time>2022-04-05T14:45:13Z</time>
      </trkpt>
      <trkpt lat="47.72913" lon="6.76521">
        <ele>503</ele>
        <time>2022-04-05T14:45:16Z</time>
      </trkpt>
      <trkpt lat="47.72901" lon="6.76495">
        <ele>503</ele>
        <time>2022-04-05T14:45:19Z</time>
      </trkpt>
      <trkpt lat="47.72881" lon="6.76441">
        <ele>502</ele>
        <time>2022-04-05T14:45:27Z</time>
      </trkpt>
      <trkpt lat="47.72859" lon="6.76373">
        <ele>499</ele>
        <time>2022-04-05T14:45:36Z</time>
      </trkpt>
      <trkpt lat="47.72838" lon="6.76289">
        <ele>492</ele>
        <time>2022-04-05T14:45:46Z</time>
      </trkpt>
      <trkpt lat="47.72826" lon="6.76228">
        <ele>487</ele>
        <time>2022-04-05T14:45:54Z</time>
      </trkpt>
      <trkpt lat="47.72799" lon="6.76111">
        <ele>481</ele>
        <time>2022-04-05T14:46:09Z</time>
      </trkpt>
      <trkpt lat="47.72769" lon="6.76007">
        <ele>476</ele>
        <time>2022-04-05T14:46:22Z</time>
      </trkpt>
      <trkpt lat="47.72738" lon="6.75927">
        <ele>471</ele>
        <time>2022-04-05T14:46:33Z</time>
      </trkpt>
      <trkpt lat="47.72715" lon="6.75874">
        <ele>469</ele>
        <time>2022-04-05T14:46:41Z</time>
      </trkpt>
      <trkpt lat="47.727" lon="6.75844">
        <ele>466</ele>
        <time>2022-04-05T14:46:46Z</time>
      </trkpt>
      <trkpt lat="47.72689" lon="6.75827">
        <ele>465</ele>
        <time>2022-04-05T14:46:48Z</time>
      </trkpt>
      <trkpt lat="47.72682" lon="6.75819">
        <ele>465</ele>
        <time>2022-04-05T14:46:50Z</time>
      </trkpt>
      <trkpt lat="47.72654" lon="6.75797">
        <ele>464</ele>
        <time>2022-04-05T14:46:56Z</time>
      </trkpt>
      <trkpt lat="47.72613" lon="6.75777">
        <ele>462</ele>
        <time>2022-04-05T14:47:03Z</time>
      </trkpt>
      <trkpt lat="47.72577" lon="6.75771">
        <ele>463</ele>
        <time>2022-04-05T14:47:10Z</time>
      </trkpt>
      <trkpt lat="47.72559" lon="6.75762">
        <ele>462</ele>
        <time>2022-04-05T14:47:13Z</time>
      </trkpt>
      <trkpt lat="47.72533" lon="6.75741">
        <ele>461</ele>
        <time>2022-04-05T14:47:18Z</time>
      </trkpt>
      <trkpt lat="47.72513" lon="6.75717">
        <ele>459</ele>
        <time>2022-04-05T14:47:23Z</time>
      </trkpt>
      <trkpt lat="47.72502" lon="6.75696">
        <ele>456</ele>
        <time>2022-04-05T14:47:26Z</time>
      </trkpt>
      <trkpt lat="47.72491" lon="6.7567">
        <ele>453</ele>
        <time>2022-04-05T14:47:30Z</time>
      </trkpt>
      <trkpt lat="47.72487" lon="6.75646">
        <ele>452</ele>
        <time>2022-04-05T14:47:33Z</time>
      </trkpt>
      <trkpt lat="47.72487" lon="6.75631">
        <ele>452</ele>
        <time>2022-04-05T14:47:34Z</time>
      </trkpt>
      <trkpt lat="47.72505" lon="6.75542">
        <ele>451</ele>
        <time>2022-04-05T14:47:46Z</time>
      </trkpt>
      <trkpt lat="47.72507" lon="6.75525">
        <ele>452</ele>
        <time>2022-04-05T14:47:48Z</time>
      </trkpt>
      <trkpt lat="47.72508" lon="6.75487">
        <ele>453</ele>
        <time>2022-04-05T14:47:52Z</time>
      </trkpt>
      <trkpt lat="47.72501" lon="6.75441">
        <ele>452</ele>
        <time>2022-04-05T14:47:58Z</time>
      </trkpt>
      <trkpt lat="47.72493" lon="6.75405">
        <ele>453</ele>
        <time>2022-04-05T14:48:02Z</time>
      </trkpt>
      <trkpt lat="47.72442" lon="6.75201">
        <ele>452</ele>
        <time>2022-04-05T14:48:28Z</time>
      </trkpt>
      <trkpt lat="47.72435" lon="6.75165">
        <ele>451</ele>
        <time>2022-04-05T14:48:33Z</time>
      </trkpt>
      <trkpt lat="47.72424" lon="6.75092">
        <ele>448</ele>
        <time>2022-04-05T14:48:42Z</time>
      </trkpt>
      <trkpt lat="47.72406" lon="6.74966">
        <ele>446</ele>
        <time>2022-04-05T14:48:57Z</time>
      </trkpt>
      <trkpt lat="47.72402" lon="6.74912">
        <ele>443</ele>
        <time>2022-04-05T14:49:04Z</time>
      </trkpt>
      <trkpt lat="47.72402" lon="6.74887">
        <ele>443</ele>
        <time>2022-04-05T14:49:07Z</time>
      </trkpt>
      <trkpt lat="47.72406" lon="6.74852">
        <ele>442</ele>
        <time>2022-04-05T14:49:11Z</time>
      </trkpt>
      <trkpt lat="47.72419" lon="6.74764">
        <ele>440</ele>
        <time>2022-04-05T14:49:22Z</time>
      </trkpt>
      <trkpt lat="47.72422" lon="6.74742">
        <ele>440</ele>
        <time>2022-04-05T14:49:25Z</time>
      </trkpt>
      <trkpt lat="47.72423" lon="6.74723">
        <ele>440</ele>
        <time>2022-04-05T14:49:27Z</time>
      </trkpt>
      <trkpt lat="47.72423" lon="6.74713">
        <ele>440</ele>
        <time>2022-04-05T14:49:28Z</time>
      </trkpt>
      <trkpt lat="47.72422" lon="6.74692">
        <ele>439</ele>
        <time>2022-04-05T14:49:31Z</time>
      </trkpt>
      <trkpt lat="47.72419" lon="6.74671">
        <ele>438</ele>
        <time>2022-04-05T14:49:33Z</time>
      </trkpt>
      <trkpt lat="47.72411" lon="6.74646">
        <ele>439</ele>
        <time>2022-04-05T14:49:36Z</time>
      </trkpt>
      <trkpt lat="47.7239" lon="6.74589">
        <ele>440</ele>
        <time>2022-04-05T14:49:44Z</time>
      </trkpt>
      <trkpt lat="47.72342" lon="6.7446">
        <ele>441</ele>
        <time>2022-04-05T14:50:02Z</time>
      </trkpt>
      <trkpt lat="47.72243" lon="6.7419">
        <ele>438</ele>
        <time>2022-04-05T14:50:39Z</time>
      </trkpt>
      <trkpt lat="47.72234" lon="6.74171">
        <ele>437</ele>
        <time>2022-04-05T14:50:41Z</time>
      </trkpt>
      <trkpt lat="47.72227" lon="6.74159">
        <ele>437</ele>
        <time>2022-04-05T14:50:43Z</time>
      </trkpt>
      <trkpt lat="47.72222" lon="6.74151">
        <ele>436</ele>
        <time>2022-04-05T14:50:45Z</time>
      </trkpt>
      <trkpt lat="47.72095" lon="6.73979">
        <ele>431</ele>
        <time>2022-04-05T14:51:15Z</time>
      </trkpt>
      <trkpt lat="47.72076" lon="6.73955">
        <ele>434</ele>
        <time>2022-04-05T14:51:20Z</time>
      </trkpt>
      <trkpt lat="47.72064" lon="6.73946">
        <ele>434</ele>
        <time>2022-04-05T14:51:22Z</time>
      </trkpt>
      <trkpt lat="47.72052" lon="6.73941">
        <ele>434</ele>
        <time>2022-04-05T14:51:24Z</time>
      </trkpt>
      <trkpt lat="47.72041" lon="6.73939">
        <ele>434</ele>
        <time>2022-04-05T14:51:26Z</time>
      </trkpt>
      <trkpt lat="47.71967" lon="6.73938">
        <ele>430</ele>
        <time>2022-04-05T14:51:39Z</time>
      </trkpt>
      <trkpt lat="47.71932" lon="6.73934">
        <ele>429</ele>
        <time>2022-04-05T14:51:46Z</time>
      </trkpt>
      <trkpt lat="47.71898" lon="6.73925">
        <ele>428</ele>
        <time>2022-04-05T14:51:52Z</time>
      </trkpt>
      <trkpt lat="47.71882" lon="6.73914">
        <ele>427</ele>
        <time>2022-04-05T14:51:55Z</time>
      </trkpt>
      <trkpt lat="47.71866" lon="6.73898">
        <ele>427</ele>
        <time>2022-04-05T14:51:58Z</time>
      </trkpt>
      <trkpt lat="47.7184" lon="6.73866">
        <ele>427</ele>
        <time>2022-04-05T14:52:04Z</time>
      </trkpt>
      <trkpt lat="47.71796" lon="6.73812">
        <ele>427</ele>
        <time>2022-04-05T14:52:15Z</time>
      </trkpt>
      <trkpt lat="47.7179" lon="6.73805">
        <ele>427</ele>
        <time>2022-04-05T14:52:16Z</time>
      </trkpt>
      <trkpt lat="47.71778" lon="6.73791">
        <ele>427</ele>
        <time>2022-04-05T14:52:19Z</time>
      </trkpt>
      <trkpt lat="47.71764" lon="6.7377">
        <ele>426</ele>
        <time>2022-04-05T14:52:22Z</time>
      </trkpt>
      <trkpt lat="47.71752" lon="6.73745">
        <ele>426</ele>
        <time>2022-04-05T14:52:26Z</time>
      </trkpt>
      <trkpt lat="47.71742" lon="6.7372">
        <ele>425</ele>
        <time>2022-04-05T14:52:29Z</time>
      </trkpt>
      <trkpt lat="47.71739" lon="6.73711">
        <ele>425</ele>
        <time>2022-04-05T14:52:30Z</time>
      </trkpt>
      <trkpt lat="47.71733" lon="6.73684">
        <ele>425</ele>
        <time>2022-04-05T14:52:34Z</time>
      </trkpt>
      <trkpt lat="47.7173" lon="6.73666">
        <ele>424</ele>
        <time>2022-04-05T14:52:36Z</time>
      </trkpt>
      <trkpt lat="47.71729" lon="6.73661">
        <ele>424</ele>
        <time>2022-04-05T14:52:37Z</time>
      </trkpt>
      <trkpt lat="47.71731" lon="6.73638">
        <ele>424</ele>
        <time>2022-04-05T14:52:40Z</time>
      </trkpt>
      <trkpt lat="47.71733" lon="6.73634">
        <ele>424</ele>
        <time>2022-04-05T14:52:40Z</time>
      </trkpt>
      <trkpt lat="47.71735" lon="6.73629">
        <ele>424</ele>
        <time>2022-04-05T14:52:41Z</time>
      </trkpt>
      <trkpt lat="47.71742" lon="6.73619">
        <ele>424</ele>
        <time>2022-04-05T14:52:43Z</time>
      </trkpt>
      <trkpt lat="47.71746" lon="6.73614">
        <ele>424</ele>
        <time>2022-04-05T14:52:43Z</time>
      </trkpt>
      <trkpt lat="47.71756" lon="6.73612">
        <ele>424</ele>
        <time>2022-04-05T14:52:45Z</time>
      </trkpt>
      <trkpt lat="47.7177" lon="6.73611">
        <ele>424</ele>
        <time>2022-04-05T14:52:48Z</time>
      </trkpt>
      <trkpt lat="47.71774" lon="6.73612">
        <ele>424</ele>
        <time>2022-04-05T14:52:48Z</time>
      </trkpt>
      <trkpt lat="47.71785" lon="6.73614">
        <ele>425</ele>
        <time>2022-04-05T14:52:50Z</time>
      </trkpt>
      <trkpt lat="47.71805" lon="6.73624">
        <ele>425</ele>
        <time>2022-04-05T14:52:54Z</time>
      </trkpt>
      <trkpt lat="47.71837" lon="6.73636">
        <ele>426</ele>
        <time>2022-04-05T14:53:00Z</time>
      </trkpt>
      <trkpt lat="47.71859" lon="6.73639">
        <ele>427</ele>
        <time>2022-04-05T14:53:04Z</time>
      </trkpt>
      <trkpt lat="47.71879" lon="6.73636">
        <ele>428</ele>
        <time>2022-04-05T14:53:08Z</time>
      </trkpt>
      <trkpt lat="47.71907" lon="6.73627">
        <ele>429</ele>
        <time>2022-04-05T14:53:13Z</time>
      </trkpt>
      <trkpt lat="47.7193" lon="6.73611">
        <ele>429</ele>
        <time>2022-04-05T14:53:17Z</time>
      </trkpt>
      <trkpt lat="47.71964" lon="6.73581">
        <ele>430</ele>
        <time>2022-04-05T14:53:24Z</time>
      </trkpt>
      <trkpt lat="47.72009" lon="6.73537">
        <ele>431</ele>
        <time>2022-04-05T14:53:34Z</time>
      </trkpt>
      <trkpt lat="47.72127" lon="6.73427">
        <ele>433</ele>
        <time>2022-04-05T14:53:59Z</time>
      </trkpt>
      <trkpt lat="47.72156" lon="6.73404">
        <ele>434</ele>
        <time>2022-04-05T14:54:04Z</time>
      </trkpt>
      <trkpt lat="47.7216" lon="6.73401">
        <ele>434</ele>
        <time>2022-04-05T14:54:05Z</time>
      </trkpt>
      <trkpt lat="47.7225" lon="6.73326">
        <ele>436</ele>
        <time>2022-04-05T14:54:24Z</time>
      </trkpt>
      <trkpt lat="47.72277" lon="6.73305">
        <ele>435</ele>
        <time>2022-04-05T14:54:29Z</time>
      </trkpt>
      <trkpt lat="47.723" lon="6.73295">
        <ele>435</ele>
        <time>2022-04-05T14:54:33Z</time>
      </trkpt>
      <trkpt lat="47.72322" lon="6.73293">
        <ele>436</ele>
        <time>2022-04-05T14:54:37Z</time>
      </trkpt>
      <trkpt lat="47.72374" lon="6.73289">
        <ele>438</ele>
        <time>2022-04-05T14:54:46Z</time>
      </trkpt>
      <trkpt lat="47.72446" lon="6.73278">
        <ele>443</ele>
        <time>2022-04-05T14:54:59Z</time>
      </trkpt>
      <trkpt lat="47.72612" lon="6.73226">
        <ele>445</ele>
        <time>2022-04-05T14:55:30Z</time>
      </trkpt>
      <trkpt lat="47.7264" lon="6.73221">
        <ele>446</ele>
        <time>2022-04-05T14:55:35Z</time>
      </trkpt>
      <trkpt lat="47.72662" lon="6.73219">
        <ele>447</ele>
        <time>2022-04-05T14:55:38Z</time>
      </trkpt>
      <trkpt lat="47.72693" lon="6.73217">
        <ele>447</ele>
        <time>2022-04-05T14:55:44Z</time>
      </trkpt>
      <trkpt lat="47.72697" lon="6.73217">
        <ele>447</ele>
        <time>2022-04-05T14:55:45Z</time>
      </trkpt>
      <trkpt lat="47.72782" lon="6.73216">
        <ele>445</ele>
        <time>2022-04-05T14:56:00Z</time>
      </trkpt>
      <trkpt lat="47.72873" lon="6.73227">
        <ele>444</ele>
        <time>2022-04-05T14:56:16Z</time>
      </trkpt>
      <trkpt lat="47.72892" lon="6.73228">
        <ele>444</ele>
        <time>2022-04-05T14:56:19Z</time>
      </trkpt>
      <trkpt lat="47.72911" lon="6.7322">
        <ele>444</ele>
        <time>2022-04-05T14:56:23Z</time>
      </trkpt>
      <trkpt lat="47.72927" lon="6.73209">
        <ele>444</ele>
        <time>2022-04-05T14:56:26Z</time>
      </trkpt>
      <trkpt lat="47.72947" lon="6.73195">
        <ele>444</ele>
        <time>2022-04-05T14:56:30Z</time>
      </trkpt>
      <trkpt lat="47.7297" lon="6.73175">
        <ele>444</ele>
        <time>2022-04-05T14:56:35Z</time>
      </trkpt>
      <trkpt lat="47.72979" lon="6.73167">
        <ele>444</ele>
        <time>2022-04-05T14:56:37Z</time>
      </trkpt>
      <trkpt lat="47.73021" lon="6.7314">
        <ele>445</ele>
        <time>2022-04-05T14:56:45Z</time>
      </trkpt>
      <trkpt lat="47.73048" lon="6.73114">
        <ele>445</ele>
        <time>2022-04-05T14:56:51Z</time>
      </trkpt>
      <trkpt lat="47.73082" lon="6.73072">
        <ele>445</ele>
        <time>2022-04-05T14:56:58Z</time>
      </trkpt>
      <trkpt lat="47.73104" lon="6.73045">
        <ele>446</ele>
        <time>2022-04-05T14:57:03Z</time>
      </trkpt>
      <trkpt lat="47.73113" lon="6.73036">
        <ele>446</ele>
        <time>2022-04-05T14:57:05Z</time>
      </trkpt>
      <trkpt lat="47.73139" lon="6.73016">
        <ele>446</ele>
        <time>2022-04-05T14:57:11Z</time>
      </trkpt>
      <trkpt lat="47.73178" lon="6.72998">
        <ele>446</ele>
        <time>2022-04-05T14:57:18Z</time>
      </trkpt>
      <trkpt lat="47.73235" lon="6.72985">
        <ele>448</ele>
        <time>2022-04-05T14:57:28Z</time>
      </trkpt>
      <trkpt lat="47.73255" lon="6.72979">
        <ele>449</ele>
        <time>2022-04-05T14:57:32Z</time>
      </trkpt>
      <trkpt lat="47.73348" lon="6.72951">
        <ele>451</ele>
        <time>2022-04-05T14:57:49Z</time>
      </trkpt>
      <trkpt lat="47.734" lon="6.72926">
        <ele>451</ele>
        <time>2022-04-05T14:57:58Z</time>
      </trkpt>
      <trkpt lat="47.73515" lon="6.72859">
        <ele>453</ele>
        <time>2022-04-05T14:58:20Z</time>
      </trkpt>
      <trkpt lat="47.73533" lon="6.72855">
        <ele>453</ele>
        <time>2022-04-05T14:58:24Z</time>
      </trkpt>
      <trkpt lat="47.73596" lon="6.72867">
        <ele>454</ele>
        <time>2022-04-05T14:58:35Z</time>
      </trkpt>
      <trkpt lat="47.73664" lon="6.72862">
        <ele>456</ele>
        <time>2022-04-05T14:58:47Z</time>
      </trkpt>
      <trkpt lat="47.73685" lon="6.72853">
        <ele>456</ele>
        <time>2022-04-05T14:58:51Z</time>
      </trkpt>
      <trkpt lat="47.7369" lon="6.72851">
        <ele>456</ele>
        <time>2022-04-05T14:58:52Z</time>
      </trkpt>
      <trkpt lat="47.73723" lon="6.72834">
        <ele>456</ele>
        <time>2022-04-05T14:58:58Z</time>
      </trkpt>
      <trkpt lat="47.73793" lon="6.72818">
        <ele>458</ele>
        <time>2022-04-05T14:59:11Z</time>
      </trkpt>
      <trkpt lat="47.73903" lon="6.72797">
        <ele>461</ele>
        <time>2022-04-05T14:59:30Z</time>
      </trkpt>
      <trkpt lat="47.73948" lon="6.72797">
        <ele>461</ele>
        <time>2022-04-05T14:59:38Z</time>
      </trkpt>
      <trkpt lat="47.74009" lon="6.72812">
        <ele>462</ele>
        <time>2022-04-05T14:59:49Z</time>
      </trkpt>
      <trkpt lat="47.7405" lon="6.72822">
        <ele>462</ele>
        <time>2022-04-05T14:59:57Z</time>
      </trkpt>
      <trkpt lat="47.74052" lon="6.72822">
        <ele>462</ele>
        <time>2022-04-05T14:59:57Z</time>
      </trkpt>
      <trkpt lat="47.74087" lon="6.72831">
        <ele>462</ele>
        <time>2022-04-05T15:00:03Z</time>
      </trkpt>
      <trkpt lat="47.74139" lon="6.72847">
        <ele>464</ele>
        <time>2022-04-05T15:00:13Z</time>
      </trkpt>
      <trkpt lat="47.74161" lon="6.72855">
        <ele>464</ele>
        <time>2022-04-05T15:00:17Z</time>
      </trkpt>
      <trkpt lat="47.74285" lon="6.72894">
        <ele>467</ele>
        <time>2022-04-05T15:00:39Z</time>
      </trkpt>
      <trkpt lat="47.74297" lon="6.72896">
        <ele>467</ele>
        <time>2022-04-05T15:00:42Z</time>
      </trkpt>
      <trkpt lat="47.74315" lon="6.72894">
        <ele>468</ele>
        <time>2022-04-05T15:00:45Z</time>
      </trkpt>
      <trkpt lat="47.74319" lon="6.72893">
        <ele>468</ele>
        <time>2022-04-05T15:00:46Z</time>
      </trkpt>
      <trkpt lat="47.74343" lon="6.72887">
        <ele>468</ele>
        <time>2022-04-05T15:00:50Z</time>
      </trkpt>
      <trkpt lat="47.74356" lon="6.72886">
        <ele>468</ele>
        <time>2022-04-05T15:00:52Z</time>
      </trkpt>
      <trkpt lat="47.74394" lon="6.72892">
        <ele>468</ele>
        <time>2022-04-05T15:00:59Z</time>
      </trkpt>
      <trkpt lat="47.74462" lon="6.72923">
        <ele>467</ele>
        <time>2022-04-05T15:01:12Z</time>
      </trkpt>
      <trkpt lat="47.74489" lon="6.72929">
        <ele>466</ele>
        <time>2022-04-05T15:01:16Z</time>
      </trkpt>
      <trkpt lat="47.74508" lon="6.7293">
        <ele>466</ele>
        <time>2022-04-05T15:01:20Z</time>
      </trkpt>
      <trkpt lat="47.74525" lon="6.72927">
        <ele>465</ele>
        <time>2022-04-05T15:01:23Z</time>
      </trkpt>
      <trkpt lat="47.74555" lon="6.72913">
        <ele>465</ele>
        <time>2022-04-05T15:01:29Z</time>
      </trkpt>
      <trkpt lat="47.74583" lon="6.72905">
        <ele>465</ele>
        <time>2022-04-05T15:01:34Z</time>
      </trkpt>
      <trkpt lat="47.74597" lon="6.72905">
        <ele>466</ele>
        <time>2022-04-05T15:01:36Z</time>
      </trkpt>
      <trkpt lat="47.74612" lon="6.72908">
        <ele>466</ele>
        <time>2022-04-05T15:01:39Z</time>
      </trkpt>
      <trkpt lat="47.74646" lon="6.72932">
        <ele>467</ele>
        <time>2022-04-05T15:01:45Z</time>
      </trkpt>
      <trkpt lat="47.74752" lon="6.73053">
        <ele>470</ele>
        <time>2022-04-05T15:02:09Z</time>
      </trkpt>
      <trkpt lat="47.74768" lon="6.73056">
        <ele>470</ele>
        <time>2022-04-05T15:02:12Z</time>
      </trkpt>
      <trkpt lat="47.74837" lon="6.73039">
        <ele>473</ele>
        <time>2022-04-05T15:02:25Z</time>
      </trkpt>
      <trkpt lat="47.74858" lon="6.73037">
        <ele>473</ele>
        <time>2022-04-05T15:02:28Z</time>
      </trkpt>
      <trkpt lat="47.74906" lon="6.73041">
        <ele>473</ele>
        <time>2022-04-05T15:02:37Z</time>
      </trkpt>
      <trkpt lat="47.74984" lon="6.73074">
        <ele>473</ele>
        <time>2022-04-05T15:02:51Z</time>
      </trkpt>
      <trkpt lat="47.75009" lon="6.73077">
        <ele>473</ele>
        <time>2022-04-05T15:02:56Z</time>
      </trkpt>
      <trkpt lat="47.75036" lon="6.73076">
        <ele>475</ele>
        <time>2022-04-05T15:03:01Z</time>
      </trkpt>
      <trkpt lat="47.7507" lon="6.73082">
        <ele>477</ele>
        <time>2022-04-05T15:03:07Z</time>
      </trkpt>
      <trkpt lat="47.75124" lon="6.73106">
        <ele>479</ele>
        <time>2022-04-05T15:03:17Z</time>
      </trkpt>
      <trkpt lat="47.75161" lon="6.7313">
        <ele>480</ele>
        <time>2022-04-05T15:03:24Z</time>
      </trkpt>
      <trkpt lat="47.75255" lon="6.73215">
        <ele>480</ele>
        <time>2022-04-05T15:03:43Z</time>
      </trkpt>
      <trkpt lat="47.75279" lon="6.7323">
        <ele>481</ele>
        <time>2022-04-05T15:03:48Z</time>
      </trkpt>
      <trkpt lat="47.75356" lon="6.73269">
        <ele>485</ele>
        <time>2022-04-05T15:04:03Z</time>
      </trkpt>
      <trkpt lat="47.75388" lon="6.73293">
        <ele>488</ele>
        <time>2022-04-05T15:04:09Z</time>
      </trkpt>
      <trkpt lat="47.75407" lon="6.73311">
        <ele>489</ele>
        <time>2022-04-05T15:04:13Z</time>
      </trkpt>
      <trkpt lat="47.75458" lon="6.73396">
        <ele>489</ele>
        <time>2022-04-05T15:04:27Z</time>
      </trkpt>
      <trkpt lat="47.7551" lon="6.73477">
        <ele>487</ele>
        <time>2022-04-05T15:04:40Z</time>
      </trkpt>
      <trkpt lat="47.75538" lon="6.73542">
        <ele>487</ele>
        <time>2022-04-05T15:04:49Z</time>
      </trkpt>
      <trkpt lat="47.75544" lon="6.7357">
        <ele>487</ele>
        <time>2022-04-05T15:04:53Z</time>
      </trkpt>
      <trkpt lat="47.75551" lon="6.73649">
        <ele>489</ele>
        <time>2022-04-05T15:05:02Z</time>
      </trkpt>
      <trkpt lat="47.75561" lon="6.73726">
        <ele>487</ele>
        <time>2022-04-05T15:05:12Z</time>
      </trkpt>
      <trkpt lat="47.75565" lon="6.73747">
        <ele>486</ele>
        <time>2022-04-05T15:05:14Z</time>
      </trkpt>
      <trkpt lat="47.75574" lon="6.73763">
        <ele>486</ele>
        <time>2022-04-05T15:05:17Z</time>
      </trkpt>
      <trkpt lat="47.75587" lon="6.73779">
        <ele>486</ele>
        <time>2022-04-05T15:05:20Z</time>
      </trkpt>
      <trkpt lat="47.75602" lon="6.73791">
        <ele>487</ele>
        <time>2022-04-05T15:05:23Z</time>
      </trkpt>
      <trkpt lat="47.75617" lon="6.738">
        <ele>488</ele>
        <time>2022-04-05T15:05:26Z</time>
      </trkpt>
      <trkpt lat="47.75692" lon="6.73807">
        <ele>490</ele>
        <time>2022-04-05T15:05:39Z</time>
      </trkpt>
      <trkpt lat="47.75706" lon="6.7381">
        <ele>490</ele>
        <time>2022-04-05T15:05:42Z</time>
      </trkpt>
      <trkpt lat="47.75719" lon="6.73817">
        <ele>490</ele>
        <time>2022-04-05T15:05:44Z</time>
      </trkpt>
      <trkpt lat="47.75737" lon="6.73834">
        <ele>490</ele>
        <time>2022-04-05T15:05:48Z</time>
      </trkpt>
      <trkpt lat="47.75777" lon="6.73891">
        <ele>489</ele>
        <time>2022-04-05T15:05:58Z</time>
      </trkpt>
      <trkpt lat="47.75844" lon="6.73968">
        <ele>489</ele>
        <time>2022-04-05T15:06:13Z</time>
      </trkpt>
      <trkpt lat="47.75899" lon="6.74004">
        <ele>490</ele>
        <time>2022-04-05T15:06:23Z</time>
      </trkpt>
      <trkpt lat="47.75992" lon="6.74108">
        <ele>492</ele>
        <time>2022-04-05T15:06:44Z</time>
      </trkpt>
      <trkpt lat="47.7602" lon="6.74119">
        <ele>493</ele>
        <time>2022-04-05T15:06:49Z</time>
      </trkpt>
      <trkpt lat="47.76073" lon="6.74149">
        <ele>495</ele>
        <time>2022-04-05T15:06:59Z</time>
      </trkpt>
      <trkpt lat="47.76088" lon="6.74163">
        <ele>496</ele>
        <time>2022-04-05T15:07:02Z</time>
      </trkpt>
      <trkpt lat="47.76113" lon="6.74206">
        <ele>497</ele>
        <time>2022-04-05T15:07:09Z</time>
      </trkpt>
      <trkpt lat="47.7612" lon="6.74222">
        <ele>498</ele>
        <time>2022-04-05T15:07:12Z</time>
      </trkpt>
      <trkpt lat="47.76144" lon="6.74245">
        <ele>499</ele>
        <time>2022-04-05T15:07:17Z</time>
      </trkpt>
      <trkpt lat="47.76163" lon="6.74251">
        <ele>501</ele>
        <time>2022-04-05T15:07:20Z</time>
      </trkpt>
      <trkpt lat="47.76173" lon="6.7425">
        <ele>501</ele>
        <time>2022-04-05T15:07:22Z</time>
      </trkpt>
      <trkpt lat="47.76247" lon="6.7422">
        <ele>502</ele>
        <time>2022-04-05T15:07:36Z</time>
      </trkpt>
      <trkpt lat="47.76311" lon="6.74216">
        <ele>503</ele>
        <time>2022-04-05T15:07:47Z</time>
      </trkpt>
      <trkpt lat="47.76365" lon="6.74204">
        <ele>503</ele>
        <time>2022-04-05T15:07:57Z</time>
      </trkpt>
      <trkpt lat="47.76412" lon="6.74178">
        <ele>502</ele>
        <time>2022-04-05T15:08:06Z</time>
      </trkpt>
      <trkpt lat="47.76435" lon="6.74171">
        <ele>502</ele>
        <time>2022-04-05T15:08:10Z</time>
      </trkpt>
      <trkpt lat="47.76501" lon="6.74156">
        <ele>505</ele>
        <time>2022-04-05T15:08:22Z</time>
      </trkpt>
      <trkpt lat="47.76565" lon="6.74132">
        <ele>507</ele>
        <time>2022-04-05T15:08:33Z</time>
      </trkpt>
      <trkpt lat="47.76578" lon="6.74134">
        <ele>507</ele>
        <time>2022-04-05T15:08:36Z</time>
      </trkpt>
      <trkpt lat="47.76631" lon="6.74149">
        <ele>504</ele>
        <time>2022-04-05T15:08:45Z</time>
      </trkpt>
      <trkpt lat="47.76646" lon="6.7416">
        <ele>503</ele>
        <time>2022-04-05T15:08:48Z</time>
      </trkpt>
      <trkpt lat="47.76726" lon="6.74248">
        <ele>504</ele>
        <time>2022-04-05T15:09:06Z</time>
      </trkpt>
      <trkpt lat="47.76744" lon="6.74264">
        <ele>505</ele>
        <time>2022-04-05T15:09:10Z</time>
      </trkpt>
      <trkpt lat="47.7676" lon="6.74272">
        <ele>505</ele>
        <time>2022-04-05T15:09:13Z</time>
      </trkpt>
      <trkpt lat="47.76798" lon="6.74276">
        <ele>506</ele>
        <time>2022-04-05T15:09:19Z</time>
      </trkpt>
      <trkpt lat="47.76813" lon="6.74269">
        <ele>507</ele>
        <time>2022-04-05T15:09:22Z</time>
      </trkpt>
      <trkpt lat="47.76826" lon="6.74257">
        <ele>508</ele>
        <time>2022-04-05T15:09:25Z</time>
      </trkpt>
      <trkpt lat="47.76855" lon="6.74223">
        <ele>511</ele>
        <time>2022-04-05T15:09:32Z</time>
      </trkpt>
      <trkpt lat="47.76869" lon="6.74213">
        <ele>512</ele>
        <time>2022-04-05T15:09:34Z</time>
      </trkpt>
      <trkpt lat="47.76885" lon="6.74206">
        <ele>513</ele>
        <time>2022-04-05T15:09:37Z</time>
      </trkpt>
      <trkpt lat="47.76915" lon="6.74208">
        <ele>513</ele>
        <time>2022-04-05T15:09:43Z</time>
      </trkpt>
      <trkpt lat="47.76935" lon="6.74214">
        <ele>514</ele>
        <time>2022-04-05T15:09:46Z</time>
      </trkpt>
      <trkpt lat="47.76963" lon="6.74226">
        <ele>515</ele>
        <time>2022-04-05T15:09:51Z</time>
      </trkpt>
      <trkpt lat="47.76999" lon="6.74237">
        <ele>516</ele>
        <time>2022-04-05T15:09:58Z</time>
      </trkpt>
      <trkpt lat="47.77033" lon="6.74253">
        <ele>518</ele>
        <time>2022-04-05T15:10:04Z</time>
      </trkpt>
      <trkpt lat="47.77046" lon="6.7427">
        <ele>518</ele>
        <time>2022-04-05T15:10:07Z</time>
      </trkpt>
      <trkpt lat="47.77057" lon="6.74293">
        <ele>517</ele>
        <time>2022-04-05T15:10:11Z</time>
      </trkpt>
      <trkpt lat="47.77061" lon="6.74309">
        <ele>516</ele>
        <time>2022-04-05T15:10:13Z</time>
      </trkpt>
      <trkpt lat="47.7707" lon="6.74361">
        <ele>513</ele>
        <time>2022-04-05T15:10:19Z</time>
      </trkpt>
      <trkpt lat="47.77076" lon="6.74385">
        <ele>513</ele>
        <time>2022-04-05T15:10:22Z</time>
      </trkpt>
      <trkpt lat="47.77086" lon="6.74406">
        <ele>513</ele>
        <time>2022-04-05T15:10:25Z</time>
      </trkpt>
      <trkpt lat="47.77102" lon="6.74434">
        <ele>515</ele>
        <time>2022-04-05T15:10:30Z</time>
      </trkpt>
      <trkpt lat="47.77105" lon="6.74443">
        <ele>516</ele>
        <time>2022-04-05T15:10:31Z</time>
      </trkpt>
      <trkpt lat="47.77124" lon="6.74478">
        <ele>519</ele>
        <time>2022-04-05T15:10:36Z</time>
      </trkpt>
      <trkpt lat="47.77128" lon="6.74494">
        <ele>520</ele>
        <time>2022-04-05T15:10:38Z</time>
      </trkpt>
      <trkpt lat="47.77129" lon="6.74516">
        <ele>521</ele>
        <time>2022-04-05T15:10:41Z</time>
      </trkpt>
      <trkpt lat="47.77112" lon="6.74562">
        <ele>522</ele>
        <time>2022-04-05T15:10:47Z</time>
      </trkpt>
      <trkpt lat="47.77103" lon="6.7459">
        <ele>524</ele>
        <time>2022-04-05T15:10:51Z</time>
      </trkpt>
      <trkpt lat="47.771" lon="6.74613">
        <ele>528</ele>
        <time>2022-04-05T15:10:54Z</time>
      </trkpt>
      <trkpt lat="47.77102" lon="6.74637">
        <ele>531</ele>
        <time>2022-04-05T15:10:57Z</time>
      </trkpt>
      <trkpt lat="47.77113" lon="6.74666">
        <ele>533</ele>
        <time>2022-04-05T15:11:01Z</time>
      </trkpt>
      <trkpt lat="47.77141" lon="6.74695">
        <ele>530</ele>
        <time>2022-04-05T15:11:07Z</time>
      </trkpt>
      <trkpt lat="47.77157" lon="6.74718">
        <ele>529</ele>
        <time>2022-04-05T15:11:11Z</time>
      </trkpt>
      <trkpt lat="47.77171" lon="6.74748">
        <ele>528</ele>
        <time>2022-04-05T15:11:15Z</time>
      </trkpt>
      <trkpt lat="47.77186" lon="6.7479">
        <ele>533</ele>
        <time>2022-04-05T15:11:21Z</time>
      </trkpt>
      <trkpt lat="47.77189" lon="6.74806">
        <ele>535</ele>
        <time>2022-04-05T15:11:23Z</time>
      </trkpt>
      <trkpt lat="47.77194" lon="6.74867">
        <ele>542</ele>
        <time>2022-04-05T15:11:30Z</time>
      </trkpt>
      <trkpt lat="47.77199" lon="6.7489">
        <ele>544</ele>
        <time>2022-04-05T15:11:33Z</time>
      </trkpt>
      <trkpt lat="47.77255" lon="6.75107">
        <ele>543</ele>
        <time>2022-04-05T15:12:01Z</time>
      </trkpt>
      <trkpt lat="47.7726" lon="6.75132">
        <ele>545</ele>
        <time>2022-04-05T15:12:04Z</time>
      </trkpt>
      <trkpt lat="47.77262" lon="6.75153">
        <ele>546</ele>
        <time>2022-04-05T15:12:06Z</time>
      </trkpt>
      <trkpt lat="47.77282" lon="6.75163">
        <ele>542</ele>
        <time>2022-04-05T15:12:10Z</time>
      </trkpt>
      <trkpt lat="47.77286" lon="6.75171">
        <ele>542</ele>
        <time>2022-04-05T15:12:11Z</time>
      </trkpt>
      <trkpt lat="47.77288" lon="6.75181">
        <ele>542</ele>
        <time>2022-04-05T15:12:13Z</time>
      </trkpt>
      <trkpt lat="47.77285" lon="6.75216">
        <ele>546</ele>
        <time>2022-04-05T15:12:17Z</time>
      </trkpt>
      <trkpt lat="47.77286" lon="6.75227">
        <ele>546</ele>
        <time>2022-04-05T15:12:18Z</time>
      </trkpt>
      <trkpt lat="47.77302" lon="6.75303">
        <ele>546</ele>
        <time>2022-04-05T15:12:28Z</time>
      </trkpt>
      <trkpt lat="47.77308" lon="6.75341">
        <ele>545</ele>
        <time>2022-04-05T15:12:32Z</time>
      </trkpt>
      <trkpt lat="47.77323" lon="6.75418">
        <ele>546</ele>
        <time>2022-04-05T15:12:42Z</time>
      </trkpt>
      <trkpt lat="47.77335" lon="6.75494">
        <ele>550</ele>
        <time>2022-04-05T15:12:51Z</time>
      </trkpt>
      <trkpt lat="47.77364" lon="6.75559">
        <ele>552</ele>
        <time>2022-04-05T15:13:01Z</time>
      </trkpt>
      <trkpt lat="47.77374" lon="6.75589">
        <ele>554</ele>
        <time>2022-04-05T15:13:05Z</time>
      </trkpt>
      <trkpt lat="47.7739" lon="6.75649">
        <ele>560</ele>
        <time>2022-04-05T15:13:12Z</time>
      </trkpt>
      <trkpt lat="47.77424" lon="6.75743">
        <ele>564</ele>
        <time>2022-04-05T15:13:25Z</time>
      </trkpt>
      <trkpt lat="47.7744" lon="6.75814">
        <ele>568</ele>
        <time>2022-04-05T15:13:34Z</time>
      </trkpt>
      <trkpt lat="47.77445" lon="6.75829">
        <ele>568</ele>
        <time>2022-04-05T15:13:36Z</time>
      </trkpt>
      <trkpt lat="47.77451" lon="6.75843">
        <ele>568</ele>
        <time>2022-04-05T15:13:38Z</time>
      </trkpt>
      <trkpt lat="47.7746" lon="6.75857">
        <ele>568</ele>
        <time>2022-04-05T15:13:40Z</time>
      </trkpt>
      <trkpt lat="47.77503" lon="6.7589">
        <ele>561</ele>
        <time>2022-04-05T15:13:49Z</time>
      </trkpt>
      <trkpt lat="47.77521" lon="6.7591">
        <ele>562</ele>
        <time>2022-04-05T15:13:53Z</time>
      </trkpt>
      <trkpt lat="47.77545" lon="6.75941">
        <ele>563</ele>
        <time>2022-04-05T15:13:59Z</time>
      </trkpt>
      <trkpt lat="47.77608" lon="6.7604">
        <ele>565</ele>
        <time>2022-04-05T15:14:15Z</time>
      </trkpt>
      <trkpt lat="47.77681" lon="6.76144">
        <ele>570</ele>
        <time>2022-04-05T15:14:33Z</time>
      </trkpt>
      <trkpt lat="47.7769" lon="6.76163">
        <ele>571</ele>
        <time>2022-04-05T15:14:36Z</time>
      </trkpt>
      <trkpt lat="47.77708" lon="6.76223">
        <ele>575</ele>
        <time>2022-04-05T15:14:44Z</time>
      </trkpt>
      <trkpt lat="47.77736" lon="6.76307">
        <ele>580</ele>
        <time>2022-04-05T15:14:55Z</time>
      </trkpt>
      <trkpt lat="47.77743" lon="6.76331">
        <ele>581</ele>
        <time>2022-04-05T15:14:58Z</time>
      </trkpt>
      <trkpt lat="47.77754" lon="6.76361">
        <ele>585</ele>
        <time>2022-04-05T15:15:02Z</time>
      </trkpt>
      <trkpt lat="47.77832" lon="6.76433">
        <ele>589</ele>
        <time>2022-04-05T15:15:18Z</time>
      </trkpt>
      <trkpt lat="47.7788" lon="6.76467">
        <ele>591</ele>
        <time>2022-04-05T15:15:28Z</time>
      </trkpt>
      <trkpt lat="47.77946" lon="6.76507">
        <ele>590</ele>
        <time>2022-04-05T15:15:40Z</time>
      </trkpt>
      <trkpt lat="47.77964" lon="6.76522">
        <ele>590</ele>
        <time>2022-04-05T15:15:44Z</time>
      </trkpt>
      <trkpt lat="47.7801" lon="6.76578">
        <ele>594</ele>
        <time>2022-04-05T15:15:55Z</time>
      </trkpt>
      <trkpt lat="47.78094" lon="6.7667">
        <ele>588</ele>
        <time>2022-04-05T15:16:13Z</time>
      </trkpt>
      <trkpt lat="47.78104" lon="6.76684">
        <ele>588</ele>
        <time>2022-04-05T15:16:16Z</time>
      </trkpt>
      <trkpt lat="47.78114" lon="6.76705">
        <ele>588</ele>
        <time>2022-04-05T15:16:19Z</time>
      </trkpt>
      <trkpt lat="47.78122" lon="6.76727">
        <ele>589</ele>
        <time>2022-04-05T15:16:22Z</time>
      </trkpt>
      <trkpt lat="47.78128" lon="6.76745">
        <ele>590</ele>
        <time>2022-04-05T15:16:24Z</time>
      </trkpt>
      <trkpt lat="47.78135" lon="6.7678">
        <ele>594</ele>
        <time>2022-04-05T15:16:29Z</time>
      </trkpt>
      <trkpt lat="47.78147" lon="6.76805">
        <ele>594</ele>
        <time>2022-04-05T15:16:32Z</time>
      </trkpt>
      <trkpt lat="47.78157" lon="6.76815">
        <ele>593</ele>
        <time>2022-04-05T15:16:34Z</time>
      </trkpt>
      <trkpt lat="47.78195" lon="6.76846">
        <ele>593</ele>
        <time>2022-04-05T15:16:42Z</time>
      </trkpt>
      <trkpt lat="47.78244" lon="6.76891">
        <ele>596</ele>
        <time>2022-04-05T15:16:52Z</time>
      </trkpt>
      <trkpt lat="47.78258" lon="6.76902">
        <ele>598</ele>
        <time>2022-04-05T15:16:55Z</time>
      </trkpt>
      <trkpt lat="47.78272" lon="6.76909">
        <ele>599</ele>
        <time>2022-04-05T15:16:58Z</time>
      </trkpt>
      <trkpt lat="47.78291" lon="6.76915">
        <ele>601</ele>
        <time>2022-04-05T15:17:01Z</time>
      </trkpt>
      <trkpt lat="47.78327" lon="6.76911">
        <ele>603</ele>
        <time>2022-04-05T15:17:08Z</time>
      </trkpt>
      <trkpt lat="47.78355" lon="6.76898">
        <ele>608</ele>
        <time>2022-04-05T15:17:13Z</time>
      </trkpt>
      <trkpt lat="47.78405" lon="6.76869">
        <ele>616</ele>
        <time>2022-04-05T15:17:22Z</time>
      </trkpt>
      <trkpt lat="47.78426" lon="6.76864">
        <ele>618</ele>
        <time>2022-04-05T15:17:26Z</time>
      </trkpt>
      <trkpt lat="47.78449" lon="6.76867">
        <ele>621</ele>
        <time>2022-04-05T15:17:30Z</time>
      </trkpt>
      <trkpt lat="47.78461" lon="6.76872">
        <ele>623</ele>
        <time>2022-04-05T15:17:33Z</time>
      </trkpt>
      <trkpt lat="47.78475" lon="6.76884">
        <ele>625</ele>
        <time>2022-04-05T15:17:35Z</time>
      </trkpt>
      <trkpt lat="47.78495" lon="6.76903">
        <ele>627</ele>
        <time>2022-04-05T15:17:40Z</time>
      </trkpt>
      <trkpt lat="47.78534" lon="6.7695">
        <ele>633</ele>
        <time>2022-04-05T15:17:49Z</time>
      </trkpt>
      <trkpt lat="47.78559" lon="6.76994">
        <ele>632</ele>
        <time>2022-04-05T15:17:55Z</time>
      </trkpt>
      <trkpt lat="47.78629" lon="6.7719">
        <ele>641</ele>
        <time>2022-04-05T15:18:22Z</time>
      </trkpt>
      <trkpt lat="47.78661" lon="6.77256">
        <ele>636</ele>
        <time>2022-04-05T15:18:32Z</time>
      </trkpt>
      <trkpt lat="47.78669" lon="6.77289">
        <ele>636</ele>
        <time>2022-04-05T15:18:36Z</time>
      </trkpt>
      <trkpt lat="47.78681" lon="6.77378">
        <ele>642</ele>
        <time>2022-04-05T15:18:47Z</time>
      </trkpt>
      <trkpt lat="47.78684" lon="6.77392">
        <ele>643</ele>
        <time>2022-04-05T15:18:49Z</time>
      </trkpt>
      <trkpt lat="47.7869" lon="6.77409">
        <ele>643</ele>
        <time>2022-04-05T15:18:51Z</time>
      </trkpt>
      <trkpt lat="47.78703" lon="6.77429">
        <ele>644</ele>
        <time>2022-04-05T15:18:54Z</time>
      </trkpt>
      <trkpt lat="47.7881" lon="6.77563">
        <ele>649</ele>
        <time>2022-04-05T15:19:19Z</time>
      </trkpt>
      <trkpt lat="47.78879" lon="6.77615">
        <ele>647</ele>
        <time>2022-04-05T15:19:33Z</time>
      </trkpt>
      <trkpt lat="47.78906" lon="6.77643">
        <ele>644</ele>
        <time>2022-04-05T15:19:39Z</time>
      </trkpt>
      <trkpt lat="47.78931" lon="6.77683">
        <ele>643</ele>
        <time>2022-04-05T15:19:45Z</time>
      </trkpt>
      <trkpt lat="47.78953" lon="6.7773">
        <ele>644</ele>
        <time>2022-04-05T15:19:52Z</time>
      </trkpt>
      <trkpt lat="47.79058" lon="6.77907">
        <ele>650</ele>
        <time>2022-04-05T15:20:20Z</time>
      </trkpt>
      <trkpt lat="47.79081" lon="6.77937">
        <ele>650</ele>
        <time>2022-04-05T15:20:26Z</time>
      </trkpt>
      <trkpt lat="47.79108" lon="6.7796">
        <ele>652</ele>
        <time>2022-04-05T15:20:31Z</time>
      </trkpt>
      <trkpt lat="47.79196" lon="6.78022">
        <ele>655</ele>
        <time>2022-04-05T15:20:49Z</time>
      </trkpt>
      <trkpt lat="47.79205" lon="6.78032">
        <ele>656</ele>
        <time>2022-04-05T15:20:51Z</time>
      </trkpt>
      <trkpt lat="47.79218" lon="6.78053">
        <ele>657</ele>
        <time>2022-04-05T15:20:54Z</time>
      </trkpt>
      <trkpt lat="47.79283" lon="6.7818">
        <ele>660</ele>
        <time>2022-04-05T15:21:13Z</time>
      </trkpt>
      <trkpt lat="47.79293" lon="6.78186">
        <ele>660</ele>
        <time>2022-04-05T15:21:15Z</time>
      </trkpt>
      <trkpt lat="47.79347" lon="6.78204">
        <ele>661</ele>
        <time>2022-04-05T15:21:25Z</time>
      </trkpt>
      <trkpt lat="47.79385" lon="6.78224">
        <ele>663</ele>
        <time>2022-04-05T15:21:32Z</time>
      </trkpt>
      <trkpt lat="47.79431" lon="6.78254">
        <ele>662</ele>
        <time>2022-04-05T15:21:41Z</time>
      </trkpt>
      <trkpt lat="47.79439" lon="6.78263">
        <ele>664</ele>
        <time>2022-04-05T15:21:43Z</time>
      </trkpt>
      <trkpt lat="47.79453" lon="6.78289">
        <ele>666</ele>
        <time>2022-04-05T15:21:47Z</time>
      </trkpt>
      <trkpt lat="47.79483" lon="6.78381">
        <ele>670</ele>
        <time>2022-04-05T15:21:59Z</time>
      </trkpt>
      <trkpt lat="47.79496" lon="6.78404">
        <ele>671</ele>
        <time>2022-04-05T15:22:02Z</time>
      </trkpt>
      <trkpt lat="47.79505" lon="6.78415">
        <ele>670</ele>
        <time>2022-04-05T15:22:05Z</time>
      </trkpt>
      <trkpt lat="47.79526" lon="6.78434">
        <ele>671</ele>
        <time>2022-04-05T15:22:09Z</time>
      </trkpt>
      <trkpt lat="47.79533" lon="6.78439">
        <ele>671</ele>
        <time>2022-04-05T15:22:10Z</time>
      </trkpt>
      <trkpt lat="47.79556" lon="6.78446">
        <ele>670</ele>
        <time>2022-04-05T15:22:14Z</time>
      </trkpt>
      <trkpt lat="47.79608" lon="6.78504">
        <ele>672</ele>
        <time>2022-04-05T15:22:26Z</time>
      </trkpt>
      <trkpt lat="47.79642" lon="6.78517">
        <ele>673</ele>
        <time>2022-04-05T15:22:32Z</time>
      </trkpt>
      <trkpt lat="47.79663" lon="6.78545">
        <ele>674</ele>
        <time>2022-04-05T15:22:37Z</time>
      </trkpt>
      <trkpt lat="47.79684" lon="6.78582">
        <ele>675</ele>
        <time>2022-04-05T15:22:43Z</time>
      </trkpt>
      <trkpt lat="47.79736" lon="6.78691">
        <ele>679</ele>
        <time>2022-04-05T15:22:59Z</time>
      </trkpt>
      <trkpt lat="47.79786" lon="6.78791">
        <ele>684</ele>
        <time>2022-04-05T15:23:14Z</time>
      </trkpt>
      <trkpt lat="47.79809" lon="6.78846">
        <ele>683</ele>
        <time>2022-04-05T15:23:22Z</time>
      </trkpt>
      <trkpt lat="47.79858" lon="6.78972">
        <ele>696</ele>
        <time>2022-04-05T15:23:39Z</time>
      </trkpt>
      <trkpt lat="47.79941" lon="6.7916">
        <ele>705</ele>
        <time>2022-04-05T15:24:06Z</time>
      </trkpt>
      <trkpt lat="47.79949" lon="6.79173">
        <ele>706</ele>
        <time>2022-04-05T15:24:08Z</time>
      </trkpt>
      <trkpt lat="47.79996" lon="6.79228">
        <ele>708</ele>
        <time>2022-04-05T15:24:19Z</time>
      </trkpt>
      <trkpt lat="47.80005" lon="6.7924">
        <ele>709</ele>
        <time>2022-04-05T15:24:21Z</time>
      </trkpt>
      <trkpt lat="47.80016" lon="6.79265">
        <ele>712</ele>
        <time>2022-04-05T15:24:24Z</time>
      </trkpt>
      <trkpt lat="47.80025" lon="6.79291">
        <ele>715</ele>
        <time>2022-04-05T15:24:28Z</time>
      </trkpt>
      <trkpt lat="47.80029" lon="6.79313">
        <ele>716</ele>
        <time>2022-04-05T15:24:31Z</time>
      </trkpt>
      <trkpt lat="47.80032" lon="6.79352">
        <ele>716</ele>
        <time>2022-04-05T15:24:35Z</time>
      </trkpt>
      <trkpt lat="47.80035" lon="6.79357">
        <ele>716</ele>
        <time>2022-04-05T15:24:36Z</time>
      </trkpt>
      <trkpt lat="47.80043" lon="6.7936">
        <ele>718</ele>
        <time>2022-04-05T15:24:38Z</time>
      </trkpt>
      <trkpt lat="47.80048" lon="6.79357">
        <ele>720</ele>
        <time>2022-04-05T15:24:39Z</time>
      </trkpt>
      <trkpt lat="47.80052" lon="6.79352">
        <ele>721</ele>
        <time>2022-04-05T15:24:40Z</time>
      </trkpt>
      <trkpt lat="47.80055" lon="6.79345">
        <ele>722</ele>
        <time>2022-04-05T15:24:41Z</time>
      </trkpt>
      <trkpt lat="47.80057" lon="6.79336">
        <ele>724</ele>
        <time>2022-04-05T15:24:42Z</time>
      </trkpt>
      <trkpt lat="47.80055" lon="6.7928">
        <ele>726</ele>
        <time>2022-04-05T15:24:48Z</time>
      </trkpt>
      <trkpt lat="47.8005" lon="6.79242">
        <ele>727</ele>
        <time>2022-04-05T15:24:53Z</time>
      </trkpt>
      <trkpt lat="47.80038" lon="6.7918">
        <ele>729</ele>
        <time>2022-04-05T15:25:01Z</time>
      </trkpt>
      <trkpt lat="47.80009" lon="6.7906">
        <ele>734</ele>
        <time>2022-04-05T15:25:16Z</time>
      </trkpt>
      <trkpt lat="47.80002" lon="6.79042">
        <ele>733</ele>
        <time>2022-04-05T15:25:18Z</time>
      </trkpt>
      <trkpt lat="47.79995" lon="6.79031">
        <ele>732</ele>
        <time>2022-04-05T15:25:20Z</time>
      </trkpt>
      <trkpt lat="47.79978" lon="6.79017">
        <ele>728</ele>
        <time>2022-04-05T15:25:24Z</time>
      </trkpt>
      <trkpt lat="47.79973" lon="6.79007">
        <ele>727</ele>
        <time>2022-04-05T15:25:25Z</time>
      </trkpt>
      <trkpt lat="47.79972" lon="6.78993">
        <ele>728</ele>
        <time>2022-04-05T15:25:27Z</time>
      </trkpt>
      <trkpt lat="47.79972" lon="6.78982">
        <ele>729</ele>
        <time>2022-04-05T15:25:28Z</time>
      </trkpt>
      <trkpt lat="47.79974" lon="6.78973">
        <ele>730</ele>
        <time>2022-04-05T15:25:29Z</time>
      </trkpt>
      <trkpt lat="47.79984" lon="6.78963">
        <ele>735</ele>
        <time>2022-04-05T15:25:31Z</time>
      </trkpt>
      <trkpt lat="47.79996" lon="6.78963">
        <ele>739</ele>
        <time>2022-04-05T15:25:34Z</time>
      </trkpt>
      <trkpt lat="47.80003" lon="6.78969">
        <ele>742</ele>
        <time>2022-04-05T15:25:35Z</time>
      </trkpt>
      <trkpt lat="47.80008" lon="6.7898">
        <ele>743</ele>
        <time>2022-04-05T15:25:37Z</time>
      </trkpt>
      <trkpt lat="47.80013" lon="6.78999">
        <ele>744</ele>
        <time>2022-04-05T15:25:39Z</time>
      </trkpt>
      <trkpt lat="47.80018" lon="6.79037">
        <ele>742</ele>
        <time>2022-04-05T15:25:44Z</time>
      </trkpt>
      <trkpt lat="47.80024" lon="6.79056">
        <ele>742</ele>
        <time>2022-04-05T15:25:46Z</time>
      </trkpt>
      <trkpt lat="47.80048" lon="6.79113">
        <ele>744</ele>
        <time>2022-04-05T15:25:54Z</time>
      </trkpt>
      <trkpt lat="47.80115" lon="6.79235">
        <ele>757</ele>
        <time>2022-04-05T15:26:13Z</time>
      </trkpt>
      <trkpt lat="47.80146" lon="6.79302">
        <ele>761</ele>
        <time>2022-04-05T15:26:23Z</time>
      </trkpt>
      <trkpt lat="47.80168" lon="6.79362">
        <ele>762</ele>
        <time>2022-04-05T15:26:31Z</time>
      </trkpt>
      <trkpt lat="47.8018" lon="6.79391">
        <ele>764</ele>
        <time>2022-04-05T15:26:35Z</time>
      </trkpt>
      <trkpt lat="47.80197" lon="6.79417">
        <ele>767</ele>
        <time>2022-04-05T15:26:39Z</time>
      </trkpt>
      <trkpt lat="47.80216" lon="6.79436">
        <ele>771</ele>
        <time>2022-04-05T15:26:43Z</time>
      </trkpt>
      <trkpt lat="47.8026" lon="6.79463">
        <ele>778</ele>
        <time>2022-04-05T15:26:52Z</time>
      </trkpt>
      <trkpt lat="47.80321" lon="6.79498">
        <ele>780</ele>
        <time>2022-04-05T15:27:04Z</time>
      </trkpt>
      <trkpt lat="47.80382" lon="6.79518">
        <ele>782</ele>
        <time>2022-04-05T15:27:15Z</time>
      </trkpt>
      <trkpt lat="47.80399" lon="6.79521">
        <ele>783</ele>
        <time>2022-04-05T15:27:18Z</time>
      </trkpt>
      <trkpt lat="47.80466" lon="6.79512">
        <ele>789</ele>
        <time>2022-04-05T15:27:30Z</time>
      </trkpt>
      <trkpt lat="47.80576" lon="6.79482">
        <ele>804</ele>
        <time>2022-04-05T15:27:50Z</time>
      </trkpt>
      <trkpt lat="47.80587" lon="6.79475">
        <ele>807</ele>
        <time>2022-04-05T15:27:52Z</time>
      </trkpt>
      <trkpt lat="47.80602" lon="6.79459">
        <ele>811</ele>
        <time>2022-04-05T15:27:55Z</time>
      </trkpt>
      <trkpt lat="47.80617" lon="6.79455">
        <ele>811</ele>
        <time>2022-04-05T15:27:58Z</time>
      </trkpt>
      <trkpt lat="47.80657" lon="6.79462">
        <ele>804</ele>
        <time>2022-04-05T15:28:05Z</time>
      </trkpt>
      <trkpt lat="47.80716" lon="6.79466">
        <ele>807</ele>
        <time>2022-04-05T15:28:15Z</time>
      </trkpt>
      <trkpt lat="47.80725" lon="6.79464">
        <ele>809</ele>
        <time>2022-04-05T15:28:17Z</time>
      </trkpt>
      <trkpt lat="47.80765" lon="6.79446">
        <ele>820</ele>
        <time>2022-04-05T15:28:24Z</time>
      </trkpt>
      <trkpt lat="47.80772" lon="6.79446">
        <ele>823</ele>
        <time>2022-04-05T15:28:26Z</time>
      </trkpt>
      <trkpt lat="47.80788" lon="6.79454">
        <ele>826</ele>
        <time>2022-04-05T15:28:29Z</time>
      </trkpt>
      <trkpt lat="47.80856" lon="6.7951">
        <ele>829</ele>
        <time>2022-04-05T15:28:43Z</time>
      </trkpt>
      <trkpt lat="47.80869" lon="6.79515">
        <ele>831</ele>
        <time>2022-04-05T15:28:45Z</time>
      </trkpt>
      <trkpt lat="47.8096" lon="6.79531">
        <ele>839</ele>
        <time>2022-04-05T15:29:01Z</time>
      </trkpt>
      <trkpt lat="47.81035" lon="6.79554">
        <ele>840</ele>
        <time>2022-04-05T15:29:15Z</time>
      </trkpt>
      <trkpt lat="47.8106" lon="6.79559">
        <ele>842</ele>
        <time>2022-04-05T15:29:19Z</time>
      </trkpt>
      <trkpt lat="47.81081" lon="6.79568">
        <ele>842</ele>
        <time>2022-04-05T15:29:23Z</time>
      </trkpt>
      <trkpt lat="47.81169" lon="6.79615">
        <ele>859</ele>
        <time>2022-04-05T15:29:40Z</time>
      </trkpt>
      <trkpt lat="47.8118" lon="6.79623">
        <ele>862</ele>
        <time>2022-04-05T15:29:42Z</time>
      </trkpt>
      <trkpt lat="47.812" lon="6.79646">
        <ele>865</ele>
        <time>2022-04-05T15:29:47Z</time>
      </trkpt>
      <trkpt lat="47.81208" lon="6.79663">
        <ele>864</ele>
        <time>2022-04-05T15:29:49Z</time>
      </trkpt>
      <trkpt lat="47.8122" lon="6.79695">
        <ele>863</ele>
        <time>2022-04-05T15:29:53Z</time>
      </trkpt>
      <trkpt lat="47.81242" lon="6.79778">
        <ele>864</ele>
        <time>2022-04-05T15:30:04Z</time>
      </trkpt>
      <trkpt lat="47.81243" lon="6.79791">
        <ele>864</ele>
        <time>2022-04-05T15:30:06Z</time>
      </trkpt>
      <trkpt lat="47.81239" lon="6.79835">
        <ele>864</ele>
        <time>2022-04-05T15:30:11Z</time>
      </trkpt>
      <trkpt lat="47.81243" lon="6.799">
        <ele>871</ele>
        <time>2022-04-05T15:30:19Z</time>
      </trkpt>
      <trkpt lat="47.81249" lon="6.79925">
        <ele>874</ele>
        <time>2022-04-05T15:30:22Z</time>
      </trkpt>
      <trkpt lat="47.81263" lon="6.79952">
        <ele>878</ele>
        <time>2022-04-05T15:30:26Z</time>
      </trkpt>
      <trkpt lat="47.8129" lon="6.7997">
        <ele>885</ele>
        <time>2022-04-05T15:30:31Z</time>
      </trkpt>
      <trkpt lat="47.81318" lon="6.80007">
        <ele>889</ele>
        <time>2022-04-05T15:30:38Z</time>
      </trkpt>
      <trkpt lat="47.81325" lon="6.80012">
        <ele>890</ele>
        <time>2022-04-05T15:30:39Z</time>
      </trkpt>
      <trkpt lat="47.81364" lon="6.80021">
        <ele>895</ele>
        <time>2022-04-05T15:30:46Z</time>
      </trkpt>
      <trkpt lat="47.81371" lon="6.80025">
        <ele>896</ele>
        <time>2022-04-05T15:30:48Z</time>
      </trkpt>
      <trkpt lat="47.81392" lon="6.80043">
        <ele>898</ele>
        <time>2022-04-05T15:30:52Z</time>
      </trkpt>
      <trkpt lat="47.81407" lon="6.80041">
        <ele>900</ele>
        <time>2022-04-05T15:30:55Z</time>
      </trkpt>
      <trkpt lat="47.81419" lon="6.80037">
        <ele>902</ele>
        <time>2022-04-05T15:30:57Z</time>
      </trkpt>
      <trkpt lat="47.81433" lon="6.8003">
        <ele>906</ele>
        <time>2022-04-05T15:30:59Z</time>
      </trkpt>
      <trkpt lat="47.81456" lon="6.80015">
        <ele>914</ele>
        <time>2022-04-05T15:31:04Z</time>
      </trkpt>
      <trkpt lat="47.81468" lon="6.80013">
        <ele>917</ele>
        <time>2022-04-05T15:31:06Z</time>
      </trkpt>
      <trkpt lat="47.81477" lon="6.80016">
        <ele>919</ele>
        <time>2022-04-05T15:31:08Z</time>
      </trkpt>
      <trkpt lat="47.81506" lon="6.80055">
        <ele>917</ele>
        <time>2022-04-05T15:31:15Z</time>
      </trkpt>
      <trkpt lat="47.81515" lon="6.80065">
        <ele>916</ele>
        <time>2022-04-05T15:31:17Z</time>
      </trkpt>
      <trkpt lat="47.81535" lon="6.80072">
        <ele>918</ele>
        <time>2022-04-05T15:31:20Z</time>
      </trkpt>
      <trkpt lat="47.8156" lon="6.80065">
        <ele>922</ele>
        <time>2022-04-05T15:31:25Z</time>
      </trkpt>
      <trkpt lat="47.81573" lon="6.80054">
        <ele>925</ele>
        <time>2022-04-05T15:31:27Z</time>
      </trkpt>
      <trkpt lat="47.81593" lon="6.79969">
        <ele>936</ele>
        <time>2022-04-05T15:31:38Z</time>
      </trkpt>
      <trkpt lat="47.81598" lon="6.7996">
        <ele>938</ele>
        <time>2022-04-05T15:31:40Z</time>
      </trkpt>
      <trkpt lat="47.81604" lon="6.79954">
        <ele>938</ele>
        <time>2022-04-05T15:31:41Z</time>
      </trkpt>
      <trkpt lat="47.81635" lon="6.79933">
        <ele>940</ele>
        <time>2022-04-05T15:31:47Z</time>
      </trkpt>
      <trkpt lat="47.81636" lon="6.79926">
        <ele>942</ele>
        <time>2022-04-05T15:31:48Z</time>
      </trkpt>
      <trkpt lat="47.81634" lon="6.79918">
        <ele>944</ele>
        <time>2022-04-05T15:31:49Z</time>
      </trkpt>
      <trkpt lat="47.81631" lon="6.79912">
        <ele>946</ele>
        <time>2022-04-05T15:31:50Z</time>
      </trkpt>
      <trkpt lat="47.81626" lon="6.7991">
        <ele>947</ele>
        <time>2022-04-05T15:31:51Z</time>
      </trkpt>
      <trkpt lat="47.81615" lon="6.79914">
        <ele>947</ele>
        <time>2022-04-05T15:31:53Z</time>
      </trkpt>
      <trkpt lat="47.81592" lon="6.79929">
        <ele>946</ele>
        <time>2022-04-05T15:31:57Z</time>
      </trkpt>
      <trkpt lat="47.8157" lon="6.79936">
        <ele>945</ele>
        <time>2022-04-05T15:32:01Z</time>
      </trkpt>
      <trkpt lat="47.81551" lon="6.79939">
        <ele>943</ele>
        <time>2022-04-05T15:32:05Z</time>
      </trkpt>
      <trkpt lat="47.81532" lon="6.79934">
        <ele>944</ele>
        <time>2022-04-05T15:32:08Z</time>
      </trkpt>
      <trkpt lat="47.81519" lon="6.79927">
        <ele>945</ele>
        <time>2022-04-05T15:32:10Z</time>
      </trkpt>
      <trkpt lat="47.81508" lon="6.79913">
        <ele>947</ele>
        <time>2022-04-05T15:32:13Z</time>
      </trkpt>
      <trkpt lat="47.815" lon="6.79899">
        <ele>949</ele>
        <time>2022-04-05T15:32:15Z</time>
      </trkpt>
      <trkpt lat="47.81493" lon="6.79877">
        <ele>951</ele>
        <time>2022-04-05T15:32:18Z</time>
      </trkpt>
      <trkpt lat="47.81474" lon="6.79775">
        <ele>961</ele>
        <time>2022-04-05T15:32:31Z</time>
      </trkpt>
      <trkpt lat="47.81464" lon="6.79711">
        <ele>967</ele>
        <time>2022-04-05T15:32:39Z</time>
      </trkpt>
      <trkpt lat="47.81456" lon="6.79626">
        <ele>977</ele>
        <time>2022-04-05T15:32:49Z</time>
      </trkpt>
      <trkpt lat="47.8145" lon="6.79591">
        <ele>980</ele>
        <time>2022-04-05T15:32:53Z</time>
      </trkpt>
      <trkpt lat="47.8142" lon="6.79484">
        <ele>987</ele>
        <time>2022-04-05T15:33:07Z</time>
      </trkpt>
      <trkpt lat="47.81379" lon="6.79372">
        <ele>992</ele>
        <time>2022-04-05T15:33:22Z</time>
      </trkpt>
      <trkpt lat="47.81372" lon="6.79345">
        <ele>993</ele>
        <time>2022-04-05T15:33:26Z</time>
      </trkpt>
      <trkpt lat="47.81367" lon="6.79321">
        <ele>994</ele>
        <time>2022-04-05T15:33:29Z</time>
      </trkpt>
      <trkpt lat="47.81366" lon="6.79304">
        <ele>996</ele>
        <time>2022-04-05T15:33:31Z</time>
      </trkpt>
      <trkpt lat="47.81365" lon="6.79236">
        <ele>1004</ele>
        <time>2022-04-05T15:33:39Z</time>
      </trkpt>
      <trkpt lat="47.81364" lon="6.79219">
        <ele>1006</ele>
        <time>2022-04-05T15:33:41Z</time>
      </trkpt>
      <trkpt lat="47.8136" lon="6.79196">
        <ele>1007</ele>
        <time>2022-04-05T15:33:44Z</time>
      </trkpt>
      <trkpt lat="47.81348" lon="6.79155">
        <ele>1009</ele>
        <time>2022-04-05T15:33:49Z</time>
      </trkpt>
      <trkpt lat="47.81303" lon="6.79065">
        <ele>1018</ele>
        <time>2022-04-05T15:34:03Z</time>
      </trkpt>
      <trkpt lat="47.8128" lon="6.79038">
        <ele>1021</ele>
        <time>2022-04-05T15:34:08Z</time>
      </trkpt>
      <trkpt lat="47.81262" lon="6.79023">
        <ele>1020</ele>
        <time>2022-04-05T15:34:11Z</time>
      </trkpt>
      <trkpt lat="47.81228" lon="6.78986">
        <ele>1025</ele>
        <time>2022-04-05T15:34:19Z</time>
      </trkpt>
      <trkpt lat="47.81152" lon="6.78914">
        <ele>1041</ele>
        <time>2022-04-05T15:34:35Z</time>
      </trkpt>
      <trkpt lat="47.81134" lon="6.78906">
        <ele>1044</ele>
        <time>2022-04-05T15:34:38Z</time>
      </trkpt>
      <trkpt lat="47.81116" lon="6.78905">
        <ele>1045</ele>
        <time>2022-04-05T15:34:41Z</time>
      </trkpt>
      <trkpt lat="47.81102" lon="6.78908">
        <ele>1044</ele>
        <time>2022-04-05T15:34:44Z</time>
      </trkpt>
      <trkpt lat="47.81087" lon="6.78916">
        <ele>1042</ele>
        <time>2022-04-05T15:34:47Z</time>
      </trkpt>
      <trkpt lat="47.81044" lon="6.78952">
        <ele>1038</ele>
        <time>2022-04-05T15:34:56Z</time>
      </trkpt>
      <trkpt lat="47.81013" lon="6.78982">
        <ele>1037</ele>
        <time>2022-04-05T15:35:02Z</time>
      </trkpt>
      <trkpt lat="47.80988" lon="6.78992">
        <ele>1035</ele>
        <time>2022-04-05T15:35:07Z</time>
      </trkpt>
      <trkpt lat="47.8097" lon="6.78991">
        <ele>1031</ele>
        <time>2022-04-05T15:35:10Z</time>
      </trkpt>
      <trkpt lat="47.80964" lon="6.78986">
        <ele>1031</ele>
        <time>2022-04-05T15:35:11Z</time>
      </trkpt>
      <trkpt lat="47.80961" lon="6.7898">
        <ele>1031</ele>
        <time>2022-04-05T15:35:12Z</time>
      </trkpt>
      <trkpt lat="47.80958" lon="6.78961">
        <ele>1034</ele>
        <time>2022-04-05T15:35:14Z</time>
      </trkpt>
      <trkpt lat="47.8096" lon="6.78946">
        <ele>1038</ele>
        <time>2022-04-05T15:35:16Z</time>
      </trkpt>
      <trkpt lat="47.80966" lon="6.78941">
        <ele>1040</ele>
        <time>2022-04-05T15:35:18Z</time>
      </trkpt>
      <trkpt lat="47.80972" lon="6.7894">
        <ele>1041</ele>
        <time>2022-04-05T15:35:19Z</time>
      </trkpt>
      <trkpt lat="47.81" lon="6.78959">
        <ele>1043</ele>
        <time>2022-04-05T15:35:24Z</time>
      </trkpt>
      <trkpt lat="47.81006" lon="6.7896">
        <ele>1042</ele>
        <time>2022-04-05T15:35:25Z</time>
      </trkpt>
      <trkpt lat="47.81012" lon="6.78958">
        <ele>1042</ele>
        <time>2022-04-05T15:35:26Z</time>
      </trkpt>
      <trkpt lat="47.81025" lon="6.78947">
        <ele>1042</ele>
        <time>2022-04-05T15:35:29Z</time>
      </trkpt>
      <trkpt lat="47.81048" lon="6.78923">
        <ele>1044</ele>
        <time>2022-04-05T15:35:34Z</time>
      </trkpt>
      <trkpt lat="47.81077" lon="6.78883">
        <ele>1054</ele>
        <time>2022-04-05T15:35:41Z</time>
      </trkpt>
      <trkpt lat="47.81094" lon="6.78868">
        <ele>1058</ele>
        <time>2022-04-05T15:35:44Z</time>
      </trkpt>
      <trkpt lat="47.81109" lon="6.78863">
        <ele>1060</ele>
        <time>2022-04-05T15:35:47Z</time>
      </trkpt>
      <trkpt lat="47.81133" lon="6.78858">
        <ele>1062</ele>
        <time>2022-04-05T15:35:51Z</time>
      </trkpt>
      <trkpt lat="47.81154" lon="6.78857">
        <ele>1063</ele>
        <time>2022-04-05T15:35:55Z</time>
      </trkpt>
      <trkpt lat="47.81166" lon="6.78858">
        <ele>1062</ele>
        <time>2022-04-05T15:35:57Z</time>
      </trkpt>
      <trkpt lat="47.81191" lon="6.78868">
        <ele>1062</ele>
        <time>2022-04-05T15:36:02Z</time>
      </trkpt>
      <trkpt lat="47.81214" lon="6.7886">
        <ele>1069</ele>
        <time>2022-04-05T15:36:06Z</time>
      </trkpt>
      <trkpt lat="47.81227" lon="6.78861">
        <ele>1070</ele>
        <time>2022-04-05T15:36:08Z</time>
      </trkpt>
      <trkpt lat="47.8127" lon="6.78877">
        <ele>1074</ele>
        <time>2022-04-05T15:36:16Z</time>
      </trkpt>
      <trkpt lat="47.81317" lon="6.78926">
        <ele>1069</ele>
        <time>2022-04-05T15:36:27Z</time>
      </trkpt>
      <trkpt lat="47.81385" lon="6.78956">
        <ele>1079</ele>
        <time>2022-04-05T15:36:39Z</time>
      </trkpt>
      <trkpt lat="47.81403" lon="6.78968">
        <ele>1081</ele>
        <time>2022-04-05T15:36:43Z</time>
      </trkpt>
      <trkpt lat="47.81446" lon="6.79">
        <ele>1086</ele>
        <time>2022-04-05T15:36:51Z</time>
      </trkpt>
      <trkpt lat="47.81451" lon="6.79006">
        <ele>1086</ele>
        <time>2022-04-05T15:36:52Z</time>
      </trkpt>
      <trkpt lat="47.81456" lon="6.79016">
        <ele>1086</ele>
        <time>2022-04-05T15:36:54Z</time>
      </trkpt>
      <trkpt lat="47.81462" lon="6.79042">
        <ele>1084</ele>
        <time>2022-04-05T15:36:57Z</time>
      </trkpt>
      <trkpt lat="47.81465" lon="6.79051">
        <ele>1084</ele>
        <time>2022-04-05T15:36:58Z</time>
      </trkpt>
      <trkpt lat="47.81473" lon="6.79064">
        <ele>1086</ele>
        <time>2022-04-05T15:37:00Z</time>
      </trkpt>
      <trkpt lat="47.81488" lon="6.79081">
        <ele>1091</ele>
        <time>2022-04-05T15:37:04Z</time>
      </trkpt>
      <trkpt lat="47.81497" lon="6.79101">
        <ele>1093</ele>
        <time>2022-04-05T15:37:07Z</time>
      </trkpt>
      <trkpt lat="47.81504" lon="6.79124">
        <ele>1094</ele>
        <time>2022-04-05T15:37:10Z</time>
      </trkpt>
      <trkpt lat="47.81508" lon="6.79166">
        <ele>1090</ele>
        <time>2022-04-05T15:37:15Z</time>
      </trkpt>
      <trkpt lat="47.81512" lon="6.79181">
        <ele>1090</ele>
        <time>2022-04-05T15:37:17Z</time>
      </trkpt>
      <trkpt lat="47.81563" lon="6.79271">
        <ele>1096</ele>
        <time>2022-04-05T15:37:31Z</time>
      </trkpt>
      <trkpt lat="47.81575" lon="6.79284">
        <ele>1097</ele>
        <time>2022-04-05T15:37:33Z</time>
      </trkpt>
      <trkpt lat="47.81598" lon="6.79301">
        <ele>1100</ele>
        <time>2022-04-05T15:37:38Z</time>
      </trkpt>
      <trkpt lat="47.81644" lon="6.79318">
        <ele>1109</ele>
        <time>2022-04-05T15:37:46Z</time>
      </trkpt>
      <trkpt lat="47.81691" lon="6.79331">
        <ele>1116</ele>
        <time>2022-04-05T15:37:55Z</time>
      </trkpt>
      <trkpt lat="47.81776" lon="6.7937">
        <ele>1115</ele>
        <time>2022-04-05T15:38:11Z</time>
      </trkpt>
      <trkpt lat="47.81788" lon="6.7938">
        <ele>1114</ele>
        <time>2022-04-05T15:38:13Z</time>
      </trkpt>
      <trkpt lat="47.81839" lon="6.79446">
        <ele>1114</ele>
        <time>2022-04-05T15:38:25Z</time>
      </trkpt>
      <trkpt lat="47.81846" lon="6.79455">
        <ele>1114</ele>
        <time>2022-04-05T15:38:27Z</time>
      </trkpt>
      <trkpt lat="47.81854" lon="6.7946">
        <ele>1114</ele>
        <time>2022-04-05T15:38:28Z</time>
      </trkpt>
      <trkpt lat="47.81861" lon="6.79461">
        <ele>1115</ele>
        <time>2022-04-05T15:38:30Z</time>
      </trkpt>
      <trkpt lat="47.81882" lon="6.79451">
        <ele>1118</ele>
        <time>2022-04-05T15:38:34Z</time>
      </trkpt>
      <trkpt lat="47.81894" lon="6.79452">
        <ele>1118</ele>
        <time>2022-04-05T15:38:36Z</time>
      </trkpt>
      <trkpt lat="47.81917" lon="6.79464">
        <ele>1119</ele>
        <time>2022-04-05T15:38:40Z</time>
      </trkpt>
      <trkpt lat="47.81925" lon="6.79467">
        <ele>1118</ele>
        <time>2022-04-05T15:38:42Z</time>
      </trkpt>
      <trkpt lat="47.81951" lon="6.79466">
        <ele>1116</ele>
        <time>2022-04-05T15:38:46Z</time>
      </trkpt>
      <trkpt lat="47.81966" lon="6.79461">
        <ele>1116</ele>
        <time>2022-04-05T15:38:49Z</time>
      </trkpt>
      <trkpt lat="47.81982" lon="6.79448">
        <ele>1117</ele>
        <time>2022-04-05T15:38:52Z</time>
      </trkpt>
      <trkpt lat="47.8199" lon="6.79438">
        <ele>1119</ele>
        <time>2022-04-05T15:38:54Z</time>
      </trkpt>
      <trkpt lat="47.81999" lon="6.79424">
        <ele>1121</ele>
        <time>2022-04-05T15:38:56Z</time>
      </trkpt>
      <trkpt lat="47.82017" lon="6.79384">
        <ele>1124</ele>
        <time>2022-04-05T15:39:02Z</time>
      </trkpt>
      <trkpt lat="47.82026" lon="6.7937">
        <ele>1125</ele>
        <time>2022-04-05T15:39:04Z</time>
      </trkpt>
      <trkpt lat="47.82032" lon="6.79364">
        <ele>1125</ele>
        <time>2022-04-05T15:39:06Z</time>
      </trkpt>
      <trkpt lat="47.82039" lon="6.7936">
        <ele>1125</ele>
        <time>2022-04-05T15:39:07Z</time>
      </trkpt>
      <trkpt lat="47.82048" lon="6.79358">
        <ele>1125</ele>
        <time>2022-04-05T15:39:09Z</time>
      </trkpt>
      <trkpt lat="47.82073" lon="6.79363">
        <ele>1124</ele>
        <time>2022-04-05T15:39:13Z</time>
      </trkpt>
      <trkpt lat="47.82093" lon="6.79356">
        <ele>1125</ele>
        <time>2022-04-05T15:39:17Z</time>
      </trkpt>
      <trkpt lat="47.82107" lon="6.79348">
        <ele>1125</ele>
        <time>2022-04-05T15:39:19Z</time>
      </trkpt>
      <trkpt lat="47.82115" lon="6.79338">
        <ele>1126</ele>
        <time>2022-04-05T15:39:21Z</time>
      </trkpt>
      <trkpt lat="47.8213" lon="6.79312">
        <ele>1125</ele>
        <time>2022-04-05T15:39:25Z</time>
      </trkpt>
      <trkpt lat="47.82144" lon="6.79298">
        <ele>1125</ele>
        <time>2022-04-05T15:39:28Z</time>
      </trkpt>
      <trkpt lat="47.82168" lon="6.79283">
        <ele>1127</ele>
        <time>2022-04-05T15:39:33Z</time>
      </trkpt>
      <trkpt lat="47.82212" lon="6.79261">
        <ele>1133</ele>
        <time>2022-04-05T15:39:41Z</time>
      </trkpt>
      <trkpt lat="47.82219" lon="6.79251">
        <ele>1136</ele>
        <time>2022-04-05T15:39:43Z</time>
      </trkpt>
      <trkpt lat="47.82224" lon="6.79228">
        <ele>1137</ele>
        <time>2022-04-05T15:39:46Z</time>
      </trkpt>
      <trkpt lat="47.82233" lon="6.79165">
        <ele>1139</ele>
        <time>2022-04-05T15:39:54Z</time>
      </trkpt>
      <trkpt lat="47.82237" lon="6.79146">
        <ele>1141</ele>
        <time>2022-04-05T15:39:56Z</time>
      </trkpt>
      <trkpt lat="47.82255" lon="6.79097">
        <ele>1147</ele>
        <time>2022-04-05T15:40:03Z</time>
      </trkpt>
      <trkpt lat="47.82259" lon="6.79085">
        <ele>1149</ele>
        <time>2022-04-05T15:40:04Z</time>
      </trkpt>
      <trkpt lat="47.8226" lon="6.79072">
        <ele>1150</ele>
        <time>2022-04-05T15:40:06Z</time>
      </trkpt>
      <trkpt lat="47.82261" lon="6.79051">
        <ele>1151</ele>
        <time>2022-04-05T15:40:08Z</time>
      </trkpt>
      <trkpt lat="47.82252" lon="6.78953">
        <ele>1153</ele>
        <time>2022-04-05T15:40:20Z</time>
      </trkpt>
      <trkpt lat="47.82251" lon="6.78916">
        <ele>1153</ele>
        <time>2022-04-05T15:40:25Z</time>
      </trkpt>
      <trkpt lat="47.82253" lon="6.78892">
        <ele>1154</ele>
        <time>2022-04-05T15:40:27Z</time>
      </trkpt>
      <trkpt lat="47.82252" lon="6.78848">
        <ele>1154</ele>
        <time>2022-04-05T15:40:33Z</time>
      </trkpt>
      <trkpt lat="47.82262" lon="6.78773">
        <ele>1150</ele>
        <time>2022-04-05T15:40:42Z</time>
      </trkpt>
      <trkpt lat="47.82254" lon="6.78735">
        <ele>1148</ele>
        <time>2022-04-05T15:40:47Z</time>
      </trkpt>
      <trkpt lat="47.82255" lon="6.78715">
        <ele>1147</ele>
        <time>2022-04-05T15:40:49Z</time>
      </trkpt>
      <trkpt lat="47.82258" lon="6.78705">
        <ele>1146</ele>
        <time>2022-04-05T15:40:50Z</time>
      </trkpt>
      <trkpt lat="47.82263" lon="6.78698">
        <ele>1146</ele>
        <time>2022-04-05T15:40:52Z</time>
      </trkpt>
      <trkpt lat="47.82271" lon="6.7869">
        <ele>1145</ele>
        <time>2022-04-05T15:40:53Z</time>
      </trkpt>
      <trkpt lat="47.82281" lon="6.78689">
        <ele>1144</ele>
        <time>2022-04-05T15:40:55Z</time>
      </trkpt>
      <trkpt lat="47.82288" lon="6.78693">
        <ele>1145</ele>
        <time>2022-04-05T15:40:56Z</time>
      </trkpt>
      <trkpt lat="47.82343" lon="6.78754">
        <ele>1150</ele>
        <time>2022-04-05T15:41:09Z</time>
      </trkpt>
      <trkpt lat="47.82367" lon="6.78777">
        <ele>1149</ele>
        <time>2022-04-05T15:41:14Z</time>
      </trkpt>
      <trkpt lat="47.82374" lon="6.78782">
        <ele>1149</ele>
        <time>2022-04-05T15:41:15Z</time>
      </trkpt>
      <trkpt lat="47.82393" lon="6.78786">
        <ele>1148</ele>
        <time>2022-04-05T15:41:18Z</time>
      </trkpt>
      <trkpt lat="47.82413" lon="6.78786">
        <ele>1145</ele>
        <time>2022-04-05T15:41:22Z</time>
      </trkpt>
      <trkpt lat="47.8249" lon="6.7876">
        <ele>1139</ele>
        <time>2022-04-05T15:41:36Z</time>
      </trkpt>
      <trkpt lat="47.826" lon="6.78739">
        <ele>1137</ele>
        <time>2022-04-05T15:41:56Z</time>
      </trkpt>
      <trkpt lat="47.8261" lon="6.78729">
        <ele>1137</ele>
        <time>2022-04-05T15:41:58Z</time>
      </trkpt>
      <trkpt lat="47.82616" lon="6.78711">
        <ele>1135</ele>
        <time>2022-04-05T15:42:00Z</time>
      </trkpt>
      <trkpt lat="47.82619" lon="6.78647">
        <ele>1125</ele>
        <time>2022-04-05T15:42:08Z</time>
      </trkpt>
      <trkpt lat="47.82622" lon="6.78619">
        <ele>1122</ele>
        <time>2022-04-05T15:42:11Z</time>
      </trkpt>
      <trkpt lat="47.82644" lon="6.78463">
        <ele>1100</ele>
        <time>2022-04-05T15:42:30Z</time>
      </trkpt>
      <trkpt lat="47.82647" lon="6.78456">
        <ele>1099</ele>
        <time>2022-04-05T15:42:31Z</time>
      </trkpt>
      <trkpt lat="47.82655" lon="6.78445">
        <ele>1099</ele>
        <time>2022-04-05T15:42:33Z</time>
      </trkpt>
      <trkpt lat="47.82665" lon="6.7844">
        <ele>1100</ele>
        <time>2022-04-05T15:42:35Z</time>
      </trkpt>
      <trkpt lat="47.82677" lon="6.78441">
        <ele>1101</ele>
        <time>2022-04-05T15:42:37Z</time>
      </trkpt>
      <trkpt lat="47.82696" lon="6.78455">
        <ele>1106</ele>
        <time>2022-04-05T15:42:41Z</time>
      </trkpt>
      <trkpt lat="47.82712" lon="6.78457">
        <ele>1107</ele>
        <time>2022-04-05T15:42:44Z</time>
      </trkpt>
      <trkpt lat="47.82777" lon="6.78445">
        <ele>1100</ele>
        <time>2022-04-05T15:42:56Z</time>
      </trkpt>
      <trkpt lat="47.828" lon="6.78443">
        <ele>1096</ele>
        <time>2022-04-05T15:43:00Z</time>
      </trkpt>
      <trkpt lat="47.8282" lon="6.78451">
        <ele>1096</ele>
        <time>2022-04-05T15:43:03Z</time>
      </trkpt>
      <trkpt lat="47.82926" lon="6.78511">
        <ele>1092</ele>
        <time>2022-04-05T15:43:24Z</time>
      </trkpt>
      <trkpt lat="47.82934" lon="6.78512">
        <ele>1093</ele>
        <time>2022-04-05T15:43:25Z</time>
      </trkpt>
      <trkpt lat="47.82943" lon="6.7851">
        <ele>1093</ele>
        <time>2022-04-05T15:43:27Z</time>
      </trkpt>
      <trkpt lat="47.8295" lon="6.78505">
        <ele>1092</ele>
        <time>2022-04-05T15:43:28Z</time>
      </trkpt>
      <trkpt lat="47.83053" lon="6.78412">
        <ele>1065</ele>
        <time>2022-04-05T15:43:49Z</time>
      </trkpt>
      <trkpt lat="47.8308" lon="6.78403">
        <ele>1066</ele>
        <time>2022-04-05T15:43:54Z</time>
      </trkpt>
      <trkpt lat="47.83171" lon="6.78379">
        <ele>1059</ele>
        <time>2022-04-05T15:44:11Z</time>
      </trkpt>
      <trkpt lat="47.83182" lon="6.78378">
        <ele>1057</ele>
        <time>2022-04-05T15:44:13Z</time>
      </trkpt>
      <trkpt lat="47.83201" lon="6.78382">
        <ele>1055</ele>
        <time>2022-04-05T15:44:16Z</time>
      </trkpt>
      <trkpt lat="47.83229" lon="6.78398">
        <ele>1056</ele>
        <time>2022-04-05T15:44:22Z</time>
      </trkpt>
      <trkpt lat="47.83253" lon="6.78418">
        <ele>1058</ele>
        <time>2022-04-05T15:44:26Z</time>
      </trkpt>
      <trkpt lat="47.83278" lon="6.7845">
        <ele>1063</ele>
        <time>2022-04-05T15:44:32Z</time>
      </trkpt>
      <trkpt lat="47.83289" lon="6.78459">
        <ele>1064</ele>
        <time>2022-04-05T15:44:35Z</time>
      </trkpt>
      <trkpt lat="47.83304" lon="6.7846">
        <ele>1063</ele>
        <time>2022-04-05T15:44:37Z</time>
      </trkpt>
      <trkpt lat="47.83325" lon="6.78448">
        <ele>1057</ele>
        <time>2022-04-05T15:44:41Z</time>
      </trkpt>
      <trkpt lat="47.83335" lon="6.78439">
        <ele>1054</ele>
        <time>2022-04-05T15:44:43Z</time>
      </trkpt>
      <trkpt lat="47.83354" lon="6.78413">
        <ele>1051</ele>
        <time>2022-04-05T15:44:48Z</time>
      </trkpt>
      <trkpt lat="47.83367" lon="6.78391">
        <ele>1049</ele>
        <time>2022-04-05T15:44:51Z</time>
      </trkpt>
      <trkpt lat="47.83384" lon="6.78353">
        <ele>1045</ele>
        <time>2022-04-05T15:44:57Z</time>
      </trkpt>
      <trkpt lat="47.83401" lon="6.78263">
        <ele>1034</ele>
        <time>2022-04-05T15:45:08Z</time>
      </trkpt>
      <trkpt lat="47.83404" lon="6.78233">
        <ele>1032</ele>
        <time>2022-04-05T15:45:12Z</time>
      </trkpt>
      <trkpt lat="47.83405" lon="6.78202">
        <ele>1030</ele>
        <time>2022-04-05T15:45:15Z</time>
      </trkpt>
      <trkpt lat="47.83405" lon="6.78191">
        <ele>1029</ele>
        <time>2022-04-05T15:45:17Z</time>
      </trkpt>
      <trkpt lat="47.83398" lon="6.78155">
        <ele>1024</ele>
        <time>2022-04-05T15:45:21Z</time>
      </trkpt>
      <trkpt lat="47.83388" lon="6.78123">
        <ele>1019</ele>
        <time>2022-04-05T15:45:25Z</time>
      </trkpt>
      <trkpt lat="47.83299" lon="6.77888">
        <ele>999</ele>
        <time>2022-04-05T15:45:58Z</time>
      </trkpt>
      <trkpt lat="47.83298" lon="6.77876">
        <ele>998</ele>
        <time>2022-04-05T15:45:59Z</time>
      </trkpt>
      <trkpt lat="47.83299" lon="6.77866">
        <ele>999</ele>
        <time>2022-04-05T15:46:00Z</time>
      </trkpt>
      <trkpt lat="47.83302" lon="6.77857">
        <ele>999</ele>
        <time>2022-04-05T15:46:01Z</time>
      </trkpt>
      <trkpt lat="47.83307" lon="6.77851">
        <ele>1000</ele>
        <time>2022-04-05T15:46:03Z</time>
      </trkpt>
      <trkpt lat="47.83318" lon="6.77845">
        <ele>1001</ele>
        <time>2022-04-05T15:46:05Z</time>
      </trkpt>
      <trkpt lat="47.83329" lon="6.77849">
        <ele>1003</ele>
        <time>2022-04-05T15:46:07Z</time>
      </trkpt>
      <trkpt lat="47.83334" lon="6.77854">
        <ele>1004</ele>
        <time>2022-04-05T15:46:08Z</time>
      </trkpt>
      <trkpt lat="47.83357" lon="6.77896">
        <ele>1007</ele>
        <time>2022-04-05T15:46:14Z</time>
      </trkpt>
      <trkpt lat="47.83364" lon="6.77905">
        <ele>1007</ele>
        <time>2022-04-05T15:46:16Z</time>
      </trkpt>
      <trkpt lat="47.83384" lon="6.77921">
        <ele>1008</ele>
        <time>2022-04-05T15:46:20Z</time>
      </trkpt>
      <trkpt lat="47.83403" lon="6.77942">
        <ele>1009</ele>
        <time>2022-04-05T15:46:24Z</time>
      </trkpt>
      <trkpt lat="47.83414" lon="6.77962">
        <ele>1010</ele>
        <time>2022-04-05T15:46:27Z</time>
      </trkpt>
      <trkpt lat="47.83433" lon="6.78013">
        <ele>1008</ele>
        <time>2022-04-05T15:46:34Z</time>
      </trkpt>
      <trkpt lat="47.83443" lon="6.78032">
        <ele>1007</ele>
        <time>2022-04-05T15:46:37Z</time>
      </trkpt>
      <trkpt lat="47.83449" lon="6.78043">
        <ele>1007</ele>
        <time>2022-04-05T15:46:39Z</time>
      </trkpt>
      <trkpt lat="47.83485" lon="6.78097">
        <ele>1005</ele>
        <time>2022-04-05T15:46:48Z</time>
      </trkpt>
      <trkpt lat="47.83502" lon="6.78119">
        <ele>1005</ele>
        <time>2022-04-05T15:46:52Z</time>
      </trkpt>
      <trkpt lat="47.83534" lon="6.7815">
        <ele>999</ele>
        <time>2022-04-05T15:46:59Z</time>
      </trkpt>
      <trkpt lat="47.83553" lon="6.78178">
        <ele>997</ele>
        <time>2022-04-05T15:47:03Z</time>
      </trkpt>
      <trkpt lat="47.83648" lon="6.78275">
        <ele>991</ele>
        <time>2022-04-05T15:47:24Z</time>
      </trkpt>
      <trkpt lat="47.83663" lon="6.78285">
        <ele>990</ele>
        <time>2022-04-05T15:47:27Z</time>
      </trkpt>
      <trkpt lat="47.83708" lon="6.78301">
        <ele>985</ele>
        <time>2022-04-05T15:47:35Z</time>
      </trkpt>
      <trkpt lat="47.8372" lon="6.78304">
        <ele>984</ele>
        <time>2022-04-05T15:47:37Z</time>
      </trkpt>
      <trkpt lat="47.83727" lon="6.78302">
        <ele>981</ele>
        <time>2022-04-05T15:47:38Z</time>
      </trkpt>
      <trkpt lat="47.83773" lon="6.78281">
        <ele>970</ele>
        <time>2022-04-05T15:47:47Z</time>
      </trkpt>
      <trkpt lat="47.83785" lon="6.78273">
        <ele>968</ele>
        <time>2022-04-05T15:47:49Z</time>
      </trkpt>
      <trkpt lat="47.83798" lon="6.78259">
        <ele>964</ele>
        <time>2022-04-05T15:47:52Z</time>
      </trkpt>
      <trkpt lat="47.83853" lon="6.78168">
        <ele>953</ele>
        <time>2022-04-05T15:48:07Z</time>
      </trkpt>
      <trkpt lat="47.83866" lon="6.78153">
        <ele>951</ele>
        <time>2022-04-05T15:48:10Z</time>
      </trkpt>
      <trkpt lat="47.83873" lon="6.78149">
        <ele>950</ele>
        <time>2022-04-05T15:48:11Z</time>
      </trkpt>
      <trkpt lat="47.83893" lon="6.78152">
        <ele>951</ele>
        <time>2022-04-05T15:48:15Z</time>
      </trkpt>
      <trkpt lat="47.83909" lon="6.78162">
        <ele>952</ele>
        <time>2022-04-05T15:48:18Z</time>
      </trkpt>
      <trkpt lat="47.83921" lon="6.78179">
        <ele>953</ele>
        <time>2022-04-05T15:48:21Z</time>
      </trkpt>
      <trkpt lat="47.83945" lon="6.78218">
        <ele>949</ele>
        <time>2022-04-05T15:48:27Z</time>
      </trkpt>
      <trkpt lat="47.83972" lon="6.78278">
        <ele>947</ele>
        <time>2022-04-05T15:48:36Z</time>
      </trkpt>
      <trkpt lat="47.83993" lon="6.78331">
        <ele>946</ele>
        <time>2022-04-05T15:48:43Z</time>
      </trkpt>
      <trkpt lat="47.84012" lon="6.78408">
        <ele>945</ele>
        <time>2022-04-05T15:48:53Z</time>
      </trkpt>
      <trkpt lat="47.84021" lon="6.78427">
        <ele>945</ele>
        <time>2022-04-05T15:48:56Z</time>
      </trkpt>
      <trkpt lat="47.84027" lon="6.78435">
        <ele>945</ele>
        <time>2022-04-05T15:48:57Z</time>
      </trkpt>
      <trkpt lat="47.8404" lon="6.78441">
        <ele>944</ele>
        <time>2022-04-05T15:48:59Z</time>
      </trkpt>
      <trkpt lat="47.84073" lon="6.78439">
        <ele>939</ele>
        <time>2022-04-05T15:49:05Z</time>
      </trkpt>
      <trkpt lat="47.84081" lon="6.78441">
        <ele>938</ele>
        <time>2022-04-05T15:49:07Z</time>
      </trkpt>
      <trkpt lat="47.84087" lon="6.78445">
        <ele>938</ele>
        <time>2022-04-05T15:49:08Z</time>
      </trkpt>
      <trkpt lat="47.84094" lon="6.78454">
        <ele>937</ele>
        <time>2022-04-05T15:49:10Z</time>
      </trkpt>
      <trkpt lat="47.84107" lon="6.78479">
        <ele>938</ele>
        <time>2022-04-05T15:49:13Z</time>
      </trkpt>
      <trkpt lat="47.84139" lon="6.78564">
        <ele>941</ele>
        <time>2022-04-05T15:49:25Z</time>
      </trkpt>
      <trkpt lat="47.84147" lon="6.78582">
        <ele>941</ele>
        <time>2022-04-05T15:49:28Z</time>
      </trkpt>
      <trkpt lat="47.84156" lon="6.78595">
        <ele>940</ele>
        <time>2022-04-05T15:49:30Z</time>
      </trkpt>
      <trkpt lat="47.84184" lon="6.78618">
        <ele>937</ele>
        <time>2022-04-05T15:49:35Z</time>
      </trkpt>
      <trkpt lat="47.84191" lon="6.78626">
        <ele>936</ele>
        <time>2022-04-05T15:49:37Z</time>
      </trkpt>
      <trkpt lat="47.84205" lon="6.78657">
        <ele>937</ele>
        <time>2022-04-05T15:49:42Z</time>
      </trkpt>
      <trkpt lat="47.84216" lon="6.78674">
        <ele>937</ele>
        <time>2022-04-05T15:49:44Z</time>
      </trkpt>
      <trkpt lat="47.84247" lon="6.78694">
        <ele>934</ele>
        <time>2022-04-05T15:49:50Z</time>
      </trkpt>
      <trkpt lat="47.84262" lon="6.78705">
        <ele>932</ele>
        <time>2022-04-05T15:49:53Z</time>
      </trkpt>
      <trkpt lat="47.84283" lon="6.78731">
        <ele>930</ele>
        <time>2022-04-05T15:49:58Z</time>
      </trkpt>
      <trkpt lat="47.84291" lon="6.78745">
        <ele>930</ele>
        <time>2022-04-05T15:50:00Z</time>
      </trkpt>
      <trkpt lat="47.84307" lon="6.78788">
        <ele>932</ele>
        <time>2022-04-05T15:50:06Z</time>
      </trkpt>
      <trkpt lat="47.84351" lon="6.78838">
        <ele>927</ele>
        <time>2022-04-05T15:50:16Z</time>
      </trkpt>
      <trkpt lat="47.84383" lon="6.7889">
        <ele>927</ele>
        <time>2022-04-05T15:50:25Z</time>
      </trkpt>
      <trkpt lat="47.84423" lon="6.78934">
        <ele>924</ele>
        <time>2022-04-05T15:50:33Z</time>
      </trkpt>
      <trkpt lat="47.84432" lon="6.78938">
        <ele>924</ele>
        <time>2022-04-05T15:50:35Z</time>
      </trkpt>
      <trkpt lat="47.84444" lon="6.78936">
        <ele>924</ele>
        <time>2022-04-05T15:50:37Z</time>
      </trkpt>
      <trkpt lat="47.84452" lon="6.78926">
        <ele>922</ele>
        <time>2022-04-05T15:50:39Z</time>
      </trkpt>
      <trkpt lat="47.84463" lon="6.78891">
        <ele>919</ele>
        <time>2022-04-05T15:50:44Z</time>
      </trkpt>
      <trkpt lat="47.84475" lon="6.78874">
        <ele>918</ele>
        <time>2022-04-05T15:50:47Z</time>
      </trkpt>
      <trkpt lat="47.84515" lon="6.78831">
        <ele>915</ele>
        <time>2022-04-05T15:50:55Z</time>
      </trkpt>
      <trkpt lat="47.84525" lon="6.78823">
        <ele>915</ele>
        <time>2022-04-05T15:50:57Z</time>
      </trkpt>
      <trkpt lat="47.84537" lon="6.78816">
        <ele>916</ele>
        <time>2022-04-05T15:51:00Z</time>
      </trkpt>
      <trkpt lat="47.84552" lon="6.78816">
        <ele>916</ele>
        <time>2022-04-05T15:51:02Z</time>
      </trkpt>
      <trkpt lat="47.84582" lon="6.78834">
        <ele>915</ele>
        <time>2022-04-05T15:51:08Z</time>
      </trkpt>
      <trkpt lat="47.84591" lon="6.78837">
        <ele>914</ele>
        <time>2022-04-05T15:51:10Z</time>
      </trkpt>
      <trkpt lat="47.84625" lon="6.78842">
        <ele>911</ele>
        <time>2022-04-05T15:51:16Z</time>
      </trkpt>
      <trkpt lat="47.84662" lon="6.78837">
        <ele>910</ele>
        <time>2022-04-05T15:51:22Z</time>
      </trkpt>
      <trkpt lat="47.84683" lon="6.78828">
        <ele>908</ele>
        <time>2022-04-05T15:51:26Z</time>
      </trkpt>
      <trkpt lat="47.84695" lon="6.78821">
        <ele>908</ele>
        <time>2022-04-05T15:51:29Z</time>
      </trkpt>
      <trkpt lat="47.8473" lon="6.7879">
        <ele>908</ele>
        <time>2022-04-05T15:51:36Z</time>
      </trkpt>
      <trkpt lat="47.84742" lon="6.78776">
        <ele>908</ele>
        <time>2022-04-05T15:51:39Z</time>
      </trkpt>
      <trkpt lat="47.84751" lon="6.78762">
        <ele>910</ele>
        <time>2022-04-05T15:51:41Z</time>
      </trkpt>
      <trkpt lat="47.84822" lon="6.78628">
        <ele>901</ele>
        <time>2022-04-05T15:52:01Z</time>
      </trkpt>
      <trkpt lat="47.84828" lon="6.78619">
        <ele>901</ele>
        <time>2022-04-05T15:52:03Z</time>
      </trkpt>
      <trkpt lat="47.84843" lon="6.78606">
        <ele>899</ele>
        <time>2022-04-05T15:52:06Z</time>
      </trkpt>
      <trkpt lat="47.84861" lon="6.78598">
        <ele>898</ele>
        <time>2022-04-05T15:52:09Z</time>
      </trkpt>
      <trkpt lat="47.8487" lon="6.78596">
        <ele>897</ele>
        <time>2022-04-05T15:52:11Z</time>
      </trkpt>
      <trkpt lat="47.84903" lon="6.78601">
        <ele>893</ele>
        <time>2022-04-05T15:52:17Z</time>
      </trkpt>
      <trkpt lat="47.84913" lon="6.78601">
        <ele>892</ele>
        <time>2022-04-05T15:52:19Z</time>
      </trkpt>
      <trkpt lat="47.84919" lon="6.78597">
        <ele>892</ele>
        <time>2022-04-05T15:52:20Z</time>
      </trkpt>
      <trkpt lat="47.84925" lon="6.7859">
        <ele>892</ele>
        <time>2022-04-05T15:52:21Z</time>
      </trkpt>
      <trkpt lat="47.84933" lon="6.78576">
        <ele>892</ele>
        <time>2022-04-05T15:52:23Z</time>
      </trkpt>
      <trkpt lat="47.84946" lon="6.78542">
        <ele>891</ele>
        <time>2022-04-05T15:52:28Z</time>
      </trkpt>
      <trkpt lat="47.84964" lon="6.78443">
        <ele>893</ele>
        <time>2022-04-05T15:52:40Z</time>
      </trkpt>
      <trkpt lat="47.84963" lon="6.78421">
        <ele>892</ele>
        <time>2022-04-05T15:52:43Z</time>
      </trkpt>
      <trkpt lat="47.84956" lon="6.78396">
        <ele>891</ele>
        <time>2022-04-05T15:52:46Z</time>
      </trkpt>
      <trkpt lat="47.84891" lon="6.78248">
        <ele>881</ele>
        <time>2022-04-05T15:53:07Z</time>
      </trkpt>
      <trkpt lat="47.84873" lon="6.782">
        <ele>878</ele>
        <time>2022-04-05T15:53:14Z</time>
      </trkpt>
      <trkpt lat="47.8485" lon="6.78124">
        <ele>875</ele>
        <time>2022-04-05T15:53:24Z</time>
      </trkpt>
      <trkpt lat="47.84845" lon="6.781">
        <ele>875</ele>
        <time>2022-04-05T15:53:27Z</time>
      </trkpt>
      <trkpt lat="47.84837" lon="6.7804">
        <ele>876</ele>
        <time>2022-04-05T15:53:34Z</time>
      </trkpt>
      <trkpt lat="47.84825" lon="6.7799">
        <ele>876</ele>
        <time>2022-04-05T15:53:40Z</time>
      </trkpt>
      <trkpt lat="47.84819" lon="6.7797">
        <ele>877</ele>
        <time>2022-04-05T15:53:43Z</time>
      </trkpt>
      <trkpt lat="47.84809" lon="6.7795">
        <ele>876</ele>
        <time>2022-04-05T15:53:46Z</time>
      </trkpt>
      <trkpt lat="47.84776" lon="6.77894">
        <ele>873</ele>
        <time>2022-04-05T15:53:55Z</time>
      </trkpt>
      <trkpt lat="47.84766" lon="6.77863">
        <ele>873</ele>
        <time>2022-04-05T15:53:59Z</time>
      </trkpt>
      <trkpt lat="47.84754" lon="6.77806">
        <ele>874</ele>
        <time>2022-04-05T15:54:06Z</time>
      </trkpt>
      <trkpt lat="47.84747" lon="6.77737">
        <ele>879</ele>
        <time>2022-04-05T15:54:14Z</time>
      </trkpt>
      <trkpt lat="47.84741" lon="6.77716">
        <ele>880</ele>
        <time>2022-04-05T15:54:17Z</time>
      </trkpt>
      <trkpt lat="47.84704" lon="6.77643">
        <ele>878</ele>
        <time>2022-04-05T15:54:28Z</time>
      </trkpt>
      <trkpt lat="47.84602" lon="6.77372">
        <ele>872</ele>
        <time>2022-04-05T15:55:05Z</time>
      </trkpt>
      <trkpt lat="47.84566" lon="6.7726">
        <ele>872</ele>
        <time>2022-04-05T15:55:20Z</time>
      </trkpt>
      <trkpt lat="47.84551" lon="6.77225">
        <ele>873</ele>
        <time>2022-04-05T15:55:25Z</time>
      </trkpt>
      <trkpt lat="47.84512" lon="6.77178">
        <ele>871</ele>
        <time>2022-04-05T15:55:34Z</time>
      </trkpt>
      <trkpt lat="47.84429" lon="6.77088">
        <ele>867</ele>
        <time>2022-04-05T15:55:52Z</time>
      </trkpt>
      <trkpt lat="47.84308" lon="6.76892">
        <ele>848</ele>
        <time>2022-04-05T15:56:24Z</time>
      </trkpt>
      <trkpt lat="47.84302" lon="6.76879">
        <ele>846</ele>
        <time>2022-04-05T15:56:26Z</time>
      </trkpt>
      <trkpt lat="47.84294" lon="6.76841">
        <ele>845</ele>
        <time>2022-04-05T15:56:31Z</time>
      </trkpt>
      <trkpt lat="47.84293" lon="6.76808">
        <ele>841</ele>
        <time>2022-04-05T15:56:34Z</time>
      </trkpt>
      <trkpt lat="47.84296" lon="6.76796">
        <ele>840</ele>
        <time>2022-04-05T15:56:36Z</time>
      </trkpt>
      <trkpt lat="47.843" lon="6.76786">
        <ele>840</ele>
        <time>2022-04-05T15:56:37Z</time>
      </trkpt>
      <trkpt lat="47.84309" lon="6.76774">
        <ele>841</ele>
        <time>2022-04-05T15:56:40Z</time>
      </trkpt>
      <trkpt lat="47.84341" lon="6.76758">
        <ele>849</ele>
        <time>2022-04-05T15:56:46Z</time>
      </trkpt>
      <trkpt lat="47.84349" lon="6.76751">
        <ele>849</ele>
        <time>2022-04-05T15:56:47Z</time>
      </trkpt>
      <trkpt lat="47.84369" lon="6.76728">
        <ele>847</ele>
        <time>2022-04-05T15:56:52Z</time>
      </trkpt>
      <trkpt lat="47.84376" lon="6.76717">
        <ele>846</ele>
        <time>2022-04-05T15:56:54Z</time>
      </trkpt>
      <trkpt lat="47.84396" lon="6.76678">
        <ele>841</ele>
        <time>2022-04-05T15:56:59Z</time>
      </trkpt>
      <trkpt lat="47.84412" lon="6.76669">
        <ele>843</ele>
        <time>2022-04-05T15:57:02Z</time>
      </trkpt>
      <trkpt lat="47.84434" lon="6.76645">
        <ele>840</ele>
        <time>2022-04-05T15:57:07Z</time>
      </trkpt>
      <trkpt lat="47.84453" lon="6.76631">
        <ele>840</ele>
        <time>2022-04-05T15:57:11Z</time>
      </trkpt>
      <trkpt lat="47.84493" lon="6.7661">
        <ele>844</ele>
        <time>2022-04-05T15:57:19Z</time>
      </trkpt>
      <trkpt lat="47.84506" lon="6.76596">
        <ele>844</ele>
        <time>2022-04-05T15:57:21Z</time>
      </trkpt>
      <trkpt lat="47.84518" lon="6.76577">
        <ele>843</ele>
        <time>2022-04-05T15:57:25Z</time>
      </trkpt>
      <trkpt lat="47.84543" lon="6.7647">
        <ele>833</ele>
        <time>2022-04-05T15:57:38Z</time>
      </trkpt>
      <trkpt lat="47.8455" lon="6.76449">
        <ele>833</ele>
        <time>2022-04-05T15:57:41Z</time>
      </trkpt>
      <trkpt lat="47.84561" lon="6.76427">
        <ele>834</ele>
        <time>2022-04-05T15:57:44Z</time>
      </trkpt>
      <trkpt lat="47.8459" lon="6.76389">
        <ele>841</ele>
        <time>2022-04-05T15:57:51Z</time>
      </trkpt>
      <trkpt lat="47.84598" lon="6.76364">
        <ele>840</ele>
        <time>2022-04-05T15:57:54Z</time>
      </trkpt>
      <trkpt lat="47.84612" lon="6.76266">
        <ele>835</ele>
        <time>2022-04-05T15:58:06Z</time>
      </trkpt>
      <trkpt lat="47.84614" lon="6.76236">
        <ele>836</ele>
        <time>2022-04-05T15:58:10Z</time>
      </trkpt>
      <trkpt lat="47.84612" lon="6.76201">
        <ele>838</ele>
        <time>2022-04-05T15:58:14Z</time>
      </trkpt>
      <trkpt lat="47.84598" lon="6.76153">
        <ele>836</ele>
        <time>2022-04-05T15:58:20Z</time>
      </trkpt>
      <trkpt lat="47.84573" lon="6.76107">
        <ele>833</ele>
        <time>2022-04-05T15:58:27Z</time>
      </trkpt>
      <trkpt lat="47.84539" lon="6.76009">
        <ele>831</ele>
        <time>2022-04-05T15:58:41Z</time>
      </trkpt>
      <trkpt lat="47.84528" lon="6.75957">
        <ele>828</ele>
        <time>2022-04-05T15:58:47Z</time>
      </trkpt>
      <trkpt lat="47.84531" lon="6.75923">
        <ele>830</ele>
        <time>2022-04-05T15:58:51Z</time>
      </trkpt>
      <trkpt lat="47.84539" lon="6.75885">
        <ele>829</ele>
        <time>2022-04-05T15:58:56Z</time>
      </trkpt>
      <trkpt lat="47.84561" lon="6.75839">
        <ele>831</ele>
        <time>2022-04-05T15:59:03Z</time>
      </trkpt>
      <trkpt lat="47.84618" lon="6.75731">
        <ele>838</ele>
        <time>2022-04-05T15:59:19Z</time>
      </trkpt>
      <trkpt lat="47.84621" lon="6.75718">
        <ele>839</ele>
        <time>2022-04-05T15:59:21Z</time>
      </trkpt>
      <trkpt lat="47.84622" lon="6.75693">
        <ele>837</ele>
        <time>2022-04-05T15:59:24Z</time>
      </trkpt>
      <trkpt lat="47.84616" lon="6.75654">
        <ele>834</ele>
        <time>2022-04-05T15:59:29Z</time>
      </trkpt>
      <trkpt lat="47.84611" lon="6.75604">
        <ele>831</ele>
        <time>2022-04-05T15:59:35Z</time>
      </trkpt>
      <trkpt lat="47.8461" lon="6.75552">
        <ele>829</ele>
        <time>2022-04-05T15:59:41Z</time>
      </trkpt>
      <trkpt lat="47.84601" lon="6.75498">
        <ele>824</ele>
        <time>2022-04-05T15:59:47Z</time>
      </trkpt>
      <trkpt lat="47.84595" lon="6.7543">
        <ele>817</ele>
        <time>2022-04-05T15:59:56Z</time>
      </trkpt>
      <trkpt lat="47.84597" lon="6.75407">
        <ele>815</ele>
        <time>2022-04-05T15:59:58Z</time>
      </trkpt>
      <trkpt lat="47.84601" lon="6.75385">
        <ele>814</ele>
        <time>2022-04-05T16:00:01Z</time>
      </trkpt>
      <trkpt lat="47.84607" lon="6.7537">
        <ele>814</ele>
        <time>2022-04-05T16:00:03Z</time>
      </trkpt>
      <trkpt lat="47.84626" lon="6.75342">
        <ele>815</ele>
        <time>2022-04-05T16:00:08Z</time>
      </trkpt>
      <trkpt lat="47.84636" lon="6.75334">
        <ele>815</ele>
        <time>2022-04-05T16:00:10Z</time>
      </trkpt>
      <trkpt lat="47.84666" lon="6.75318">
        <ele>816</ele>
        <time>2022-04-05T16:00:16Z</time>
      </trkpt>
      <trkpt lat="47.84705" lon="6.75301">
        <ele>813</ele>
        <time>2022-04-05T16:00:23Z</time>
      </trkpt>
      <trkpt lat="47.84718" lon="6.75299">
        <ele>813</ele>
        <time>2022-04-05T16:00:25Z</time>
      </trkpt>
      <trkpt lat="47.84744" lon="6.75304">
        <ele>815</ele>
        <time>2022-04-05T16:00:30Z</time>
      </trkpt>
      <trkpt lat="47.84775" lon="6.75318">
        <ele>818</ele>
        <time>2022-04-05T16:00:36Z</time>
      </trkpt>
      <trkpt lat="47.84786" lon="6.7532">
        <ele>818</ele>
        <time>2022-04-05T16:00:38Z</time>
      </trkpt>
      <trkpt lat="47.84799" lon="6.75319">
        <ele>818</ele>
        <time>2022-04-05T16:00:40Z</time>
      </trkpt>
      <trkpt lat="47.8482" lon="6.75309">
        <ele>815</ele>
        <time>2022-04-05T16:00:44Z</time>
      </trkpt>
      <trkpt lat="47.84868" lon="6.75276">
        <ele>808</ele>
        <time>2022-04-05T16:00:53Z</time>
      </trkpt>
      <trkpt lat="47.84881" lon="6.75272">
        <ele>808</ele>
        <time>2022-04-05T16:00:56Z</time>
      </trkpt>
      <trkpt lat="47.84893" lon="6.7527">
        <ele>807</ele>
        <time>2022-04-05T16:00:58Z</time>
      </trkpt>
      <trkpt lat="47.84992" lon="6.75264">
        <ele>799</ele>
        <time>2022-04-05T16:01:15Z</time>
      </trkpt>
      <trkpt lat="47.85008" lon="6.75268">
        <ele>797</ele>
        <time>2022-04-05T16:01:18Z</time>
      </trkpt>
      <trkpt lat="47.85024" lon="6.75277">
        <ele>796</ele>
        <time>2022-04-05T16:01:21Z</time>
      </trkpt>
      <trkpt lat="47.85045" lon="6.75298">
        <ele>795</ele>
        <time>2022-04-05T16:01:26Z</time>
      </trkpt>
      <trkpt lat="47.85063" lon="6.75331">
        <ele>795</ele>
        <time>2022-04-05T16:01:31Z</time>
      </trkpt>
      <trkpt lat="47.85069" lon="6.75348">
        <ele>794</ele>
        <time>2022-04-05T16:01:33Z</time>
      </trkpt>
      <trkpt lat="47.85084" lon="6.754">
        <ele>792</ele>
        <time>2022-04-05T16:01:40Z</time>
      </trkpt>
      <trkpt lat="47.85092" lon="6.75453">
        <ele>790</ele>
        <time>2022-04-05T16:01:46Z</time>
      </trkpt>
      <trkpt lat="47.85091" lon="6.75489">
        <ele>791</ele>
        <time>2022-04-05T16:01:51Z</time>
      </trkpt>
      <trkpt lat="47.85085" lon="6.75564">
        <ele>790</ele>
        <time>2022-04-05T16:02:00Z</time>
      </trkpt>
      <trkpt lat="47.85086" lon="6.75605">
        <ele>790</ele>
        <time>2022-04-05T16:02:05Z</time>
      </trkpt>
      <trkpt lat="47.85091" lon="6.75625">
        <ele>789</ele>
        <time>2022-04-05T16:02:07Z</time>
      </trkpt>
      <trkpt lat="47.85126" lon="6.75755">
        <ele>788</ele>
        <time>2022-04-05T16:02:24Z</time>
      </trkpt>
      <trkpt lat="47.85195" lon="6.75934">
        <ele>779</ele>
        <time>2022-04-05T16:02:49Z</time>
      </trkpt>
      <trkpt lat="47.85206" lon="6.75951">
        <ele>780</ele>
        <time>2022-04-05T16:02:51Z</time>
      </trkpt>
      <trkpt lat="47.85211" lon="6.75955">
        <ele>781</ele>
        <time>2022-04-05T16:02:52Z</time>
      </trkpt>
      <trkpt lat="47.85215" lon="6.75957">
        <ele>780</ele>
        <time>2022-04-05T16:02:53Z</time>
      </trkpt>
      <trkpt lat="47.85288" lon="6.75986">
        <ele>775</ele>
        <time>2022-04-05T16:03:07Z</time>
      </trkpt>
      <trkpt lat="47.85344" lon="6.76005">
        <ele>771</ele>
        <time>2022-04-05T16:03:17Z</time>
      </trkpt>
      <trkpt lat="47.85384" lon="6.76014">
        <ele>770</ele>
        <time>2022-04-05T16:03:24Z</time>
      </trkpt>
      <trkpt lat="47.85408" lon="6.76022">
        <ele>771</ele>
        <time>2022-04-05T16:03:28Z</time>
      </trkpt>
      <trkpt lat="47.85445" lon="6.76035">
        <ele>773</ele>
        <time>2022-04-05T16:03:35Z</time>
      </trkpt>
      <trkpt lat="47.85449" lon="6.76036">
        <ele>773</ele>
        <time>2022-04-05T16:03:36Z</time>
      </trkpt>
      <trkpt lat="47.85457" lon="6.76035">
        <ele>772</ele>
        <time>2022-04-05T16:03:37Z</time>
      </trkpt>
      <trkpt lat="47.8547" lon="6.76035">
        <ele>772</ele>
        <time>2022-04-05T16:03:40Z</time>
      </trkpt>
      <trkpt lat="47.85477" lon="6.76034">
        <ele>771</ele>
        <time>2022-04-05T16:03:41Z</time>
      </trkpt>
      <trkpt lat="47.85505" lon="6.76024">
        <ele>766</ele>
        <time>2022-04-05T16:03:46Z</time>
      </trkpt>
      <trkpt lat="47.85535" lon="6.76027">
        <ele>769</ele>
        <time>2022-04-05T16:03:51Z</time>
      </trkpt>
      <trkpt lat="47.85548" lon="6.76024">
        <ele>769</ele>
        <time>2022-04-05T16:03:54Z</time>
      </trkpt>
      <trkpt lat="47.85558" lon="6.76018">
        <ele>768</ele>
        <time>2022-04-05T16:03:56Z</time>
      </trkpt>
      <trkpt lat="47.85565" lon="6.76009">
        <ele>765</ele>
        <time>2022-04-05T16:03:57Z</time>
      </trkpt>
      <trkpt lat="47.85577" lon="6.75985">
        <ele>759</ele>
        <time>2022-04-05T16:04:01Z</time>
      </trkpt>
      <trkpt lat="47.85587" lon="6.75969">
        <ele>757</ele>
        <time>2022-04-05T16:04:03Z</time>
      </trkpt>
      <trkpt lat="47.85595" lon="6.75963">
        <ele>756</ele>
        <time>2022-04-05T16:04:05Z</time>
      </trkpt>
      <trkpt lat="47.85602" lon="6.75959">
        <ele>755</ele>
        <time>2022-04-05T16:04:06Z</time>
      </trkpt>
      <trkpt lat="47.85705" lon="6.75937">
        <ele>760</ele>
        <time>2022-04-05T16:04:25Z</time>
      </trkpt>
      <trkpt lat="47.85724" lon="6.75923">
        <ele>761</ele>
        <time>2022-04-05T16:04:29Z</time>
      </trkpt>
      <trkpt lat="47.85736" lon="6.75904">
        <ele>759</ele>
        <time>2022-04-05T16:04:32Z</time>
      </trkpt>
      <trkpt lat="47.85744" lon="6.75871">
        <ele>754</ele>
        <time>2022-04-05T16:04:36Z</time>
      </trkpt>
      <trkpt lat="47.85744" lon="6.7584">
        <ele>747</ele>
        <time>2022-04-05T16:04:40Z</time>
      </trkpt>
      <trkpt lat="47.85746" lon="6.75792">
        <ele>740</ele>
        <time>2022-04-05T16:04:45Z</time>
      </trkpt>
      <trkpt lat="47.85765" lon="6.75725">
        <ele>740</ele>
        <time>2022-04-05T16:04:54Z</time>
      </trkpt>
      <trkpt lat="47.85771" lon="6.75699">
        <ele>741</ele>
        <time>2022-04-05T16:04:57Z</time>
      </trkpt>
      <trkpt lat="47.85769" lon="6.7568">
        <ele>739</ele>
        <time>2022-04-05T16:05:00Z</time>
      </trkpt>
      <trkpt lat="47.85761" lon="6.7565">
        <ele>734</ele>
        <time>2022-04-05T16:05:03Z</time>
      </trkpt>
      <trkpt lat="47.85758" lon="6.75634">
        <ele>732</ele>
        <time>2022-04-05T16:05:05Z</time>
      </trkpt>
      <trkpt lat="47.85767" lon="6.7545">
        <ele>726</ele>
        <time>2022-04-05T16:05:27Z</time>
      </trkpt>
      <trkpt lat="47.85767" lon="6.75427">
        <ele>724</ele>
        <time>2022-04-05T16:05:30Z</time>
      </trkpt>
      <trkpt lat="47.85756" lon="6.75376">
        <ele>717</ele>
        <time>2022-04-05T16:05:37Z</time>
      </trkpt>
      <trkpt lat="47.85752" lon="6.75348">
        <ele>714</ele>
        <time>2022-04-05T16:05:40Z</time>
      </trkpt>
      <trkpt lat="47.85753" lon="6.7532">
        <ele>712</ele>
        <time>2022-04-05T16:05:43Z</time>
      </trkpt>
      <trkpt lat="47.85756" lon="6.75308">
        <ele>711</ele>
        <time>2022-04-05T16:05:45Z</time>
      </trkpt>
      <trkpt lat="47.85762" lon="6.75294">
        <ele>711</ele>
        <time>2022-04-05T16:05:47Z</time>
      </trkpt>
      <trkpt lat="47.85797" lon="6.75254">
        <ele>716</ele>
        <time>2022-04-05T16:05:55Z</time>
      </trkpt>
      <trkpt lat="47.85811" lon="6.75214">
        <ele>716</ele>
        <time>2022-04-05T16:06:00Z</time>
      </trkpt>
      <trkpt lat="47.8582" lon="6.75201">
        <ele>717</ele>
        <time>2022-04-05T16:06:02Z</time>
      </trkpt>
      <trkpt lat="47.85829" lon="6.75186">
        <ele>718</ele>
        <time>2022-04-05T16:06:05Z</time>
      </trkpt>
      <trkpt lat="47.85833" lon="6.75176">
        <ele>717</ele>
        <time>2022-04-05T16:06:06Z</time>
      </trkpt>
      <trkpt lat="47.85834" lon="6.75165">
        <ele>716</ele>
        <time>2022-04-05T16:06:07Z</time>
      </trkpt>
      <trkpt lat="47.85833" lon="6.75155">
        <ele>718</ele>
        <time>2022-04-05T16:06:09Z</time>
      </trkpt>
      <trkpt lat="47.85829" lon="6.75145">
        <ele>718</ele>
        <time>2022-04-05T16:06:10Z</time>
      </trkpt>
      <trkpt lat="47.85823" lon="6.75137">
        <ele>718</ele>
        <time>2022-04-05T16:06:12Z</time>
      </trkpt>
      <trkpt lat="47.85808" lon="6.7512">
        <ele>716</ele>
        <time>2022-04-05T16:06:15Z</time>
      </trkpt>
      <trkpt lat="47.85791" lon="6.75109">
        <ele>712</ele>
        <time>2022-04-05T16:06:18Z</time>
      </trkpt>
      <trkpt lat="47.85787" lon="6.75103">
        <ele>712</ele>
        <time>2022-04-05T16:06:19Z</time>
      </trkpt>
      <trkpt lat="47.85782" lon="6.75087">
        <ele>713</ele>
        <time>2022-04-05T16:06:21Z</time>
      </trkpt>
      <trkpt lat="47.85783" lon="6.75059">
        <ele>717</ele>
        <time>2022-04-05T16:06:25Z</time>
      </trkpt>
      <trkpt lat="47.85781" lon="6.75048">
        <ele>717</ele>
        <time>2022-04-05T16:06:26Z</time>
      </trkpt>
      <trkpt lat="47.85777" lon="6.75032">
        <ele>718</ele>
        <time>2022-04-05T16:06:28Z</time>
      </trkpt>
      <trkpt lat="47.85766" lon="6.75018">
        <ele>716</ele>
        <time>2022-04-05T16:06:31Z</time>
      </trkpt>
      <trkpt lat="47.85745" lon="6.75001">
        <ele>711</ele>
        <time>2022-04-05T16:06:35Z</time>
      </trkpt>
      <trkpt lat="47.85738" lon="6.74987">
        <ele>707</ele>
        <time>2022-04-05T16:06:37Z</time>
      </trkpt>
      <trkpt lat="47.85733" lon="6.74965">
        <ele>704</ele>
        <time>2022-04-05T16:06:40Z</time>
      </trkpt>
      <trkpt lat="47.85734" lon="6.74949">
        <ele>703</ele>
        <time>2022-04-05T16:06:42Z</time>
      </trkpt>
      <trkpt lat="47.85741" lon="6.74925">
        <ele>704</ele>
        <time>2022-04-05T16:06:45Z</time>
      </trkpt>
      <trkpt lat="47.85764" lon="6.74878">
        <ele>700</ele>
        <time>2022-04-05T16:06:52Z</time>
      </trkpt>
      <trkpt lat="47.85775" lon="6.74867">
        <ele>700</ele>
        <time>2022-04-05T16:06:54Z</time>
      </trkpt>
      <trkpt lat="47.85801" lon="6.74862">
        <ele>706</ele>
        <time>2022-04-05T16:06:59Z</time>
      </trkpt>
      <trkpt lat="47.85808" lon="6.74857">
        <ele>707</ele>
        <time>2022-04-05T16:07:00Z</time>
      </trkpt>
      <trkpt lat="47.85816" lon="6.74842">
        <ele>706</ele>
        <time>2022-04-05T16:07:02Z</time>
      </trkpt>
      <trkpt lat="47.85819" lon="6.74833">
        <ele>705</ele>
        <time>2022-04-05T16:07:04Z</time>
      </trkpt>
      <trkpt lat="47.85823" lon="6.7481">
        <ele>700</ele>
        <time>2022-04-05T16:07:06Z</time>
      </trkpt>
      <trkpt lat="47.85819" lon="6.7476">
        <ele>688</ele>
        <time>2022-04-05T16:07:12Z</time>
      </trkpt>
      <trkpt lat="47.85822" lon="6.74747">
        <ele>686</ele>
        <time>2022-04-05T16:07:14Z</time>
      </trkpt>
      <trkpt lat="47.85831" lon="6.74736">
        <ele>686</ele>
        <time>2022-04-05T16:07:16Z</time>
      </trkpt>
      <trkpt lat="47.85844" lon="6.74733">
        <ele>686</ele>
        <time>2022-04-05T16:07:19Z</time>
      </trkpt>
      <trkpt lat="47.85861" lon="6.74735">
        <ele>687</ele>
        <time>2022-04-05T16:07:22Z</time>
      </trkpt>
      <trkpt lat="47.85889" lon="6.74731">
        <ele>687</ele>
        <time>2022-04-05T16:07:27Z</time>
      </trkpt>
      <trkpt lat="47.85924" lon="6.74716">
        <ele>687</ele>
        <time>2022-04-05T16:07:33Z</time>
      </trkpt>
      <trkpt lat="47.85944" lon="6.74715">
        <ele>687</ele>
        <time>2022-04-05T16:07:37Z</time>
      </trkpt>
      <trkpt lat="47.85967" lon="6.74721">
        <ele>686</ele>
        <time>2022-04-05T16:07:41Z</time>
      </trkpt>
      <trkpt lat="47.85977" lon="6.74722">
        <ele>686</ele>
        <time>2022-04-05T16:07:43Z</time>
      </trkpt>
      <trkpt lat="47.85986" lon="6.74723">
        <ele>685</ele>
        <time>2022-04-05T16:07:44Z</time>
      </trkpt>
      <trkpt lat="47.85996" lon="6.7472">
        <ele>685</ele>
        <time>2022-04-05T16:07:46Z</time>
      </trkpt>
      <trkpt lat="47.86" lon="6.74713">
        <ele>686</ele>
        <time>2022-04-05T16:07:47Z</time>
      </trkpt>
      <trkpt lat="47.86001" lon="6.74709">
        <ele>687</ele>
        <time>2022-04-05T16:07:48Z</time>
      </trkpt>
      <trkpt lat="47.86001" lon="6.74703">
        <ele>688</ele>
        <time>2022-04-05T16:07:48Z</time>
      </trkpt>
      <trkpt lat="47.86008" lon="6.74694">
        <ele>689</ele>
        <time>2022-04-05T16:07:50Z</time>
      </trkpt>
      <trkpt lat="47.86066" lon="6.74664">
        <ele>692</ele>
        <time>2022-04-05T16:08:01Z</time>
      </trkpt>
      <trkpt lat="47.86073" lon="6.74656">
        <ele>694</ele>
        <time>2022-04-05T16:08:02Z</time>
      </trkpt>
      <trkpt lat="47.8608" lon="6.74648">
        <ele>695</ele>
        <time>2022-04-05T16:08:04Z</time>
      </trkpt>
      <trkpt lat="47.86093" lon="6.74619">
        <ele>696</ele>
        <time>2022-04-05T16:08:08Z</time>
      </trkpt>
      <trkpt lat="47.86105" lon="6.74584">
        <ele>697</ele>
        <time>2022-04-05T16:08:13Z</time>
      </trkpt>
      <trkpt lat="47.86112" lon="6.74548">
        <ele>697</ele>
        <time>2022-04-05T16:08:17Z</time>
      </trkpt>
      <trkpt lat="47.86116" lon="6.7451">
        <ele>698</ele>
        <time>2022-04-05T16:08:22Z</time>
      </trkpt>
      <trkpt lat="47.86123" lon="6.74336">
        <ele>697</ele>
        <time>2022-04-05T16:08:43Z</time>
      </trkpt>
      <trkpt lat="47.86144" lon="6.74251">
        <ele>692</ele>
        <time>2022-04-05T16:08:54Z</time>
      </trkpt>
      <trkpt lat="47.86184" lon="6.74119">
        <ele>694</ele>
        <time>2022-04-05T16:09:11Z</time>
      </trkpt>
      <trkpt lat="47.86186" lon="6.74102">
        <ele>696</ele>
        <time>2022-04-05T16:09:13Z</time>
      </trkpt>
      <trkpt lat="47.86188" lon="6.74083">
        <ele>698</ele>
        <time>2022-04-05T16:09:15Z</time>
      </trkpt>
      <trkpt lat="47.86184" lon="6.74065">
        <ele>701</ele>
        <time>2022-04-05T16:09:17Z</time>
      </trkpt>
      <trkpt lat="47.86179" lon="6.74048">
        <ele>703</ele>
        <time>2022-04-05T16:09:20Z</time>
      </trkpt>
      <trkpt lat="47.86163" lon="6.74031">
        <ele>704</ele>
        <time>2022-04-05T16:09:23Z</time>
      </trkpt>
      <trkpt lat="47.86142" lon="6.74019">
        <ele>703</ele>
        <time>2022-04-05T16:09:27Z</time>
      </trkpt>
      <trkpt lat="47.86134" lon="6.74011">
        <ele>702</ele>
        <time>2022-04-05T16:09:29Z</time>
      </trkpt>
      <trkpt lat="47.86127" lon="6.74001">
        <ele>702</ele>
        <time>2022-04-05T16:09:31Z</time>
      </trkpt>
      <trkpt lat="47.86121" lon="6.73981">
        <ele>702</ele>
        <time>2022-04-05T16:09:33Z</time>
      </trkpt>
      <trkpt lat="47.86121" lon="6.7397">
        <ele>704</ele>
        <time>2022-04-05T16:09:35Z</time>
      </trkpt>
      <trkpt lat="47.86129" lon="6.73945">
        <ele>709</ele>
        <time>2022-04-05T16:09:38Z</time>
      </trkpt>
      <trkpt lat="47.86131" lon="6.7393">
        <ele>711</ele>
        <time>2022-04-05T16:09:40Z</time>
      </trkpt>
      <trkpt lat="47.86129" lon="6.73886">
        <ele>713</ele>
        <time>2022-04-05T16:09:45Z</time>
      </trkpt>
      <trkpt lat="47.86131" lon="6.7385">
        <ele>715</ele>
        <time>2022-04-05T16:09:49Z</time>
      </trkpt>
      <trkpt lat="47.86131" lon="6.73833">
        <ele>716</ele>
        <time>2022-04-05T16:09:51Z</time>
      </trkpt>
      <trkpt lat="47.86129" lon="6.73822">
        <ele>715</ele>
        <time>2022-04-05T16:09:53Z</time>
      </trkpt>
      <trkpt lat="47.86098" lon="6.73748">
        <ele>709</ele>
        <time>2022-04-05T16:10:03Z</time>
      </trkpt>
      <trkpt lat="47.86097" lon="6.73733">
        <ele>707</ele>
        <time>2022-04-05T16:10:05Z</time>
      </trkpt>
      <trkpt lat="47.86099" lon="6.73722">
        <ele>706</ele>
        <time>2022-04-05T16:10:06Z</time>
      </trkpt>
      <trkpt lat="47.86104" lon="6.73714">
        <ele>706</ele>
        <time>2022-04-05T16:10:07Z</time>
      </trkpt>
      <trkpt lat="47.8611" lon="6.73713">
        <ele>707</ele>
        <time>2022-04-05T16:10:09Z</time>
      </trkpt>
      <trkpt lat="47.86117" lon="6.73714">
        <ele>708</ele>
        <time>2022-04-05T16:10:10Z</time>
      </trkpt>
      <trkpt lat="47.86128" lon="6.73726">
        <ele>710</ele>
        <time>2022-04-05T16:10:12Z</time>
      </trkpt>
      <trkpt lat="47.86142" lon="6.7375">
        <ele>714</ele>
        <time>2022-04-05T16:10:16Z</time>
      </trkpt>
      <trkpt lat="47.86166" lon="6.73784">
        <ele>720</ele>
        <time>2022-04-05T16:10:22Z</time>
      </trkpt>
      <trkpt lat="47.86172" lon="6.73785">
        <ele>721</ele>
        <time>2022-04-05T16:10:23Z</time>
      </trkpt>
      <trkpt lat="47.86183" lon="6.73783">
        <ele>722</ele>
        <time>2022-04-05T16:10:25Z</time>
      </trkpt>
      <trkpt lat="47.86213" lon="6.73763">
        <ele>723</ele>
        <time>2022-04-05T16:10:31Z</time>
      </trkpt>
      <trkpt lat="47.86257" lon="6.7376">
        <ele>726</ele>
        <time>2022-04-05T16:10:39Z</time>
      </trkpt>
      <trkpt lat="47.86302" lon="6.73717">
        <ele>732</ele>
        <time>2022-04-05T16:10:48Z</time>
      </trkpt>
      <trkpt lat="47.86313" lon="6.73709">
        <ele>734</ele>
        <time>2022-04-05T16:10:50Z</time>
      </trkpt>
      <trkpt lat="47.86321" lon="6.73705">
        <ele>735</ele>
        <time>2022-04-05T16:10:52Z</time>
      </trkpt>
      <trkpt lat="47.86404" lon="6.73688">
        <ele>745</ele>
        <time>2022-04-05T16:11:07Z</time>
      </trkpt>
      <trkpt lat="47.86422" lon="6.7369">
        <ele>746</ele>
        <time>2022-04-05T16:11:10Z</time>
      </trkpt>
      <trkpt lat="47.86468" lon="6.73706">
        <ele>748</ele>
        <time>2022-04-05T16:11:18Z</time>
      </trkpt>
      <trkpt lat="47.8651" lon="6.73728">
        <ele>748</ele>
        <time>2022-04-05T16:11:26Z</time>
      </trkpt>
      <trkpt lat="47.86527" lon="6.73733">
        <ele>747</ele>
        <time>2022-04-05T16:11:29Z</time>
      </trkpt>
      <trkpt lat="47.86543" lon="6.73735">
        <ele>747</ele>
        <time>2022-04-05T16:11:32Z</time>
      </trkpt>
      <trkpt lat="47.8655" lon="6.73729">
        <ele>747</ele>
        <time>2022-04-05T16:11:34Z</time>
      </trkpt>
      <trkpt lat="47.86556" lon="6.7372">
        <ele>748</ele>
        <time>2022-04-05T16:11:35Z</time>
      </trkpt>
      <trkpt lat="47.86563" lon="6.7369">
        <ele>750</ele>
        <time>2022-04-05T16:11:39Z</time>
      </trkpt>
      <trkpt lat="47.86561" lon="6.73671">
        <ele>752</ele>
        <time>2022-04-05T16:11:41Z</time>
      </trkpt>
      <trkpt lat="47.86558" lon="6.73656">
        <ele>754</ele>
        <time>2022-04-05T16:11:43Z</time>
      </trkpt>
      <trkpt lat="47.86513" lon="6.7358">
        <ele>759</ele>
        <time>2022-04-05T16:11:55Z</time>
      </trkpt>
      <trkpt lat="47.86502" lon="6.73553">
        <ele>759</ele>
        <time>2022-04-05T16:11:59Z</time>
      </trkpt>
      <trkpt lat="47.86504" lon="6.73535">
        <ele>760</ele>
        <time>2022-04-05T16:12:01Z</time>
      </trkpt>
      <trkpt lat="47.8651" lon="6.73516">
        <ele>760</ele>
        <time>2022-04-05T16:12:04Z</time>
      </trkpt>
      <trkpt lat="47.86519" lon="6.73481">
        <ele>760</ele>
        <time>2022-04-05T16:12:08Z</time>
      </trkpt>
      <trkpt lat="47.86535" lon="6.73292">
        <ele>760</ele>
        <time>2022-04-05T16:12:31Z</time>
      </trkpt>
      <trkpt lat="47.86594" lon="6.73155">
        <ele>766</ele>
        <time>2022-04-05T16:12:50Z</time>
      </trkpt>
      <trkpt lat="47.86609" lon="6.73079">
        <ele>769</ele>
        <time>2022-04-05T16:13:00Z</time>
      </trkpt>
      <trkpt lat="47.86621" lon="6.73059">
        <ele>768</ele>
        <time>2022-04-05T16:13:03Z</time>
      </trkpt>
      <trkpt lat="47.86692" lon="6.73045">
        <ele>765</ele>
        <time>2022-04-05T16:13:16Z</time>
      </trkpt>
      <trkpt lat="47.86756" lon="6.73033">
        <ele>762</ele>
        <time>2022-04-05T16:13:27Z</time>
      </trkpt>
      <trkpt lat="47.86792" lon="6.73023">
        <ele>761</ele>
        <time>2022-04-05T16:13:34Z</time>
      </trkpt>
      <trkpt lat="47.86805" lon="6.73015">
        <ele>761</ele>
        <time>2022-04-05T16:13:36Z</time>
      </trkpt>
      <trkpt lat="47.86829" lon="6.72992">
        <ele>761</ele>
        <time>2022-04-05T16:13:41Z</time>
      </trkpt>
      <trkpt lat="47.86874" lon="6.72937">
        <ele>763</ele>
        <time>2022-04-05T16:13:52Z</time>
      </trkpt>
      <trkpt lat="47.86883" lon="6.72922">
        <ele>763</ele>
        <time>2022-04-05T16:13:54Z</time>
      </trkpt>
      <trkpt lat="47.86886" lon="6.72907">
        <ele>764</ele>
        <time>2022-04-05T16:13:56Z</time>
      </trkpt>
      <trkpt lat="47.86894" lon="6.72786">
        <ele>762</ele>
        <time>2022-04-05T16:14:10Z</time>
      </trkpt>
      <trkpt lat="47.86897" lon="6.7277">
        <ele>761</ele>
        <time>2022-04-05T16:14:12Z</time>
      </trkpt>
      <trkpt lat="47.86904" lon="6.72755">
        <ele>761</ele>
        <time>2022-04-05T16:14:15Z</time>
      </trkpt>
      <trkpt lat="47.8694" lon="6.72735">
        <ele>761</ele>
        <time>2022-04-05T16:14:21Z</time>
      </trkpt>
      <trkpt lat="47.86947" lon="6.72723">
        <ele>762</ele>
        <time>2022-04-05T16:14:23Z</time>
      </trkpt>
      <trkpt lat="47.86952" lon="6.72707">
        <ele>761</ele>
        <time>2022-04-05T16:14:25Z</time>
      </trkpt>
      <trkpt lat="47.8695" lon="6.72612">
        <ele>757</ele>
        <time>2022-04-05T16:14:37Z</time>
      </trkpt>
      <trkpt lat="47.86946" lon="6.72543">
        <ele>752</ele>
        <time>2022-04-05T16:14:45Z</time>
      </trkpt>
      <trkpt lat="47.86948" lon="6.72526">
        <ele>752</ele>
        <time>2022-04-05T16:14:47Z</time>
      </trkpt>
      <trkpt lat="47.86952" lon="6.72509">
        <ele>751</ele>
        <time>2022-04-05T16:14:49Z</time>
      </trkpt>
      <trkpt lat="47.86991" lon="6.72412">
        <ele>755</ele>
        <time>2022-04-05T16:15:03Z</time>
      </trkpt>
      <trkpt lat="47.87039" lon="6.72346">
        <ele>758</ele>
        <time>2022-04-05T16:15:14Z</time>
      </trkpt>
      <trkpt lat="47.87062" lon="6.72327">
        <ele>760</ele>
        <time>2022-04-05T16:15:19Z</time>
      </trkpt>
      <trkpt lat="47.87064" lon="6.72325">
        <ele>761</ele>
        <time>2022-04-05T16:15:19Z</time>
      </trkpt>
      <trkpt lat="47.87141" lon="6.72288">
        <ele>762</ele>
        <time>2022-04-05T16:15:34Z</time>
      </trkpt>
      <trkpt lat="47.87149" lon="6.72283">
        <ele>762</ele>
        <time>2022-04-05T16:15:35Z</time>
      </trkpt>
      <trkpt lat="47.87158" lon="6.72272">
        <ele>762</ele>
        <time>2022-04-05T16:15:38Z</time>
      </trkpt>
      <trkpt lat="47.87171" lon="6.72241">
        <ele>763</ele>
        <time>2022-04-05T16:15:42Z</time>
      </trkpt>
      <trkpt lat="47.87205" lon="6.72109">
        <ele>766</ele>
        <time>2022-04-05T16:15:59Z</time>
      </trkpt>
      <trkpt lat="47.87217" lon="6.72082">
        <ele>767</ele>
        <time>2022-04-05T16:16:03Z</time>
      </trkpt>
      <trkpt lat="47.87258" lon="6.72005">
        <ele>767</ele>
        <time>2022-04-05T16:16:14Z</time>
      </trkpt>
      <trkpt lat="47.8726" lon="6.71997">
        <ele>768</ele>
        <time>2022-04-05T16:16:15Z</time>
      </trkpt>
      <trkpt lat="47.87284" lon="6.71847">
        <ele>769</ele>
        <time>2022-04-05T16:16:34Z</time>
      </trkpt>
      <trkpt lat="47.87299" lon="6.71779">
        <ele>768</ele>
        <time>2022-04-05T16:16:42Z</time>
      </trkpt>
      <trkpt lat="47.87317" lon="6.71717">
        <ele>765</ele>
        <time>2022-04-05T16:16:50Z</time>
      </trkpt>
      <trkpt lat="47.87324" lon="6.71661">
        <ele>763</ele>
        <time>2022-04-05T16:16:57Z</time>
      </trkpt>
      <trkpt lat="47.87325" lon="6.71638">
        <ele>762</ele>
        <time>2022-04-05T16:17:00Z</time>
      </trkpt>
      <trkpt lat="47.87323" lon="6.71601">
        <ele>762</ele>
        <time>2022-04-05T16:17:04Z</time>
      </trkpt>
      <trkpt lat="47.873" lon="6.71474">
        <ele>764</ele>
        <time>2022-04-05T16:17:20Z</time>
      </trkpt>
      <trkpt lat="47.87298" lon="6.71459">
        <ele>764</ele>
        <time>2022-04-05T16:17:22Z</time>
      </trkpt>
      <trkpt lat="47.87299" lon="6.71443">
        <ele>763</ele>
        <time>2022-04-05T16:17:24Z</time>
      </trkpt>
      <trkpt lat="47.87301" lon="6.71436">
        <ele>763</ele>
        <time>2022-04-05T16:17:25Z</time>
      </trkpt>
      <trkpt lat="47.87304" lon="6.71432">
        <ele>762</ele>
        <time>2022-04-05T16:17:25Z</time>
      </trkpt>
      <trkpt lat="47.87316" lon="6.71421">
        <ele>760</ele>
        <time>2022-04-05T16:17:28Z</time>
      </trkpt>
      <trkpt lat="47.87335" lon="6.71414">
        <ele>758</ele>
        <time>2022-04-05T16:17:31Z</time>
      </trkpt>
      <trkpt lat="47.87423" lon="6.71392">
        <ele>753</ele>
        <time>2022-04-05T16:17:47Z</time>
      </trkpt>
      <trkpt lat="47.87437" lon="6.71386">
        <ele>752</ele>
        <time>2022-04-05T16:17:50Z</time>
      </trkpt>
      <trkpt lat="47.87443" lon="6.71382">
        <ele>751</ele>
        <time>2022-04-05T16:17:51Z</time>
      </trkpt>
      <trkpt lat="47.87451" lon="6.7137">
        <ele>751</ele>
        <time>2022-04-05T16:17:53Z</time>
      </trkpt>
      <trkpt lat="47.87497" lon="6.71217">
        <ele>750</ele>
        <time>2022-04-05T16:18:13Z</time>
      </trkpt>
      <trkpt lat="47.87532" lon="6.71101">
        <ele>751</ele>
        <time>2022-04-05T16:18:28Z</time>
      </trkpt>
      <trkpt lat="47.87541" lon="6.71084">
        <ele>751</ele>
        <time>2022-04-05T16:18:31Z</time>
      </trkpt>
      <trkpt lat="47.87571" lon="6.71056">
        <ele>753</ele>
        <time>2022-04-05T16:18:37Z</time>
      </trkpt>
      <trkpt lat="47.87676" lon="6.70974">
        <ele>755</ele>
        <time>2022-04-05T16:18:58Z</time>
      </trkpt>
      <trkpt lat="47.8768" lon="6.70968">
        <ele>755</ele>
        <time>2022-04-05T16:18:59Z</time>
      </trkpt>
      <trkpt lat="47.87686" lon="6.70953">
        <ele>756</ele>
        <time>2022-04-05T16:19:01Z</time>
      </trkpt>
      <trkpt lat="47.87687" lon="6.70937">
        <ele>756</ele>
        <time>2022-04-05T16:19:03Z</time>
      </trkpt>
      <trkpt lat="47.87686" lon="6.70929">
        <ele>756</ele>
        <time>2022-04-05T16:19:04Z</time>
      </trkpt>
      <trkpt lat="47.87649" lon="6.70805">
        <ele>757</ele>
        <time>2022-04-05T16:19:20Z</time>
      </trkpt>
      <trkpt lat="47.87648" lon="6.70791">
        <ele>756</ele>
        <time>2022-04-05T16:19:22Z</time>
      </trkpt>
      <trkpt lat="47.8765" lon="6.70781">
        <ele>756</ele>
        <time>2022-04-05T16:19:23Z</time>
      </trkpt>
      <trkpt lat="47.87683" lon="6.70713">
        <ele>754</ele>
        <time>2022-04-05T16:19:33Z</time>
      </trkpt>
      <trkpt lat="47.87693" lon="6.70697">
        <ele>753</ele>
        <time>2022-04-05T16:19:36Z</time>
      </trkpt>
      <trkpt lat="47.87704" lon="6.70683">
        <ele>752</ele>
        <time>2022-04-05T16:19:39Z</time>
      </trkpt>
      <trkpt lat="47.87705" lon="6.70681">
        <ele>752</ele>
        <time>2022-04-05T16:19:39Z</time>
      </trkpt>
      <trkpt lat="47.87771" lon="6.70609">
        <ele>751</ele>
        <time>2022-04-05T16:19:53Z</time>
      </trkpt>
      <trkpt lat="47.87779" lon="6.70602">
        <ele>750</ele>
        <time>2022-04-05T16:19:55Z</time>
      </trkpt>
      <trkpt lat="47.87788" lon="6.70599">
        <ele>750</ele>
        <time>2022-04-05T16:19:57Z</time>
      </trkpt>
      <trkpt lat="47.87802" lon="6.70603">
        <ele>749</ele>
        <time>2022-04-05T16:19:59Z</time>
      </trkpt>
      <trkpt lat="47.87812" lon="6.7061">
        <ele>749</ele>
        <time>2022-04-05T16:20:01Z</time>
      </trkpt>
      <trkpt lat="47.87835" lon="6.70627">
        <ele>748</ele>
        <time>2022-04-05T16:20:06Z</time>
      </trkpt>
      <trkpt lat="47.87851" lon="6.70628">
        <ele>747</ele>
        <time>2022-04-05T16:20:09Z</time>
      </trkpt>
      <trkpt lat="47.8794" lon="6.70585">
        <ele>745</ele>
        <time>2022-04-05T16:20:25Z</time>
      </trkpt>
      <trkpt lat="47.87954" lon="6.70572">
        <ele>747</ele>
        <time>2022-04-05T16:20:28Z</time>
      </trkpt>
      <trkpt lat="47.87969" lon="6.70554">
        <ele>748</ele>
        <time>2022-04-05T16:20:32Z</time>
      </trkpt>
      <trkpt lat="47.88014" lon="6.70494">
        <ele>753</ele>
        <time>2022-04-05T16:20:42Z</time>
      </trkpt>
      <trkpt lat="47.88018" lon="6.70484">
        <ele>754</ele>
        <time>2022-04-05T16:20:44Z</time>
      </trkpt>
      <trkpt lat="47.8802" lon="6.70471">
        <ele>755</ele>
        <time>2022-04-05T16:20:45Z</time>
      </trkpt>
      <trkpt lat="47.88012" lon="6.7035">
        <ele>763</ele>
        <time>2022-04-05T16:21:00Z</time>
      </trkpt>
      <trkpt lat="47.88012" lon="6.70325">
        <ele>763</ele>
        <time>2022-04-05T16:21:03Z</time>
      </trkpt>
      <trkpt lat="47.88015" lon="6.70297">
        <ele>763</ele>
        <time>2022-04-05T16:21:06Z</time>
      </trkpt>
      <trkpt lat="47.8802" lon="6.70273">
        <ele>763</ele>
        <time>2022-04-05T16:21:09Z</time>
      </trkpt>
      <trkpt lat="47.88026" lon="6.70256">
        <ele>763</ele>
        <time>2022-04-05T16:21:11Z</time>
      </trkpt>
      <trkpt lat="47.88142" lon="6.69982">
        <ele>753</ele>
        <time>2022-04-05T16:21:50Z</time>
      </trkpt>
      <trkpt lat="47.88158" lon="6.6994">
        <ele>751</ele>
        <time>2022-04-05T16:21:56Z</time>
      </trkpt>
      <trkpt lat="47.88166" lon="6.69906">
        <ele>750</ele>
        <time>2022-04-05T16:22:00Z</time>
      </trkpt>
      <trkpt lat="47.88175" lon="6.69832">
        <ele>751</ele>
        <time>2022-04-05T16:22:09Z</time>
      </trkpt>
      <trkpt lat="47.88183" lon="6.69801">
        <ele>749</ele>
        <time>2022-04-05T16:22:13Z</time>
      </trkpt>
      <trkpt lat="47.88196" lon="6.69764">
        <ele>747</ele>
        <time>2022-04-05T16:22:18Z</time>
      </trkpt>
      <trkpt lat="47.88201" lon="6.69757">
        <ele>747</ele>
        <time>2022-04-05T16:22:19Z</time>
      </trkpt>
      <trkpt lat="47.88214" lon="6.69749">
        <ele>747</ele>
        <time>2022-04-05T16:22:22Z</time>
      </trkpt>
      <trkpt lat="47.88232" lon="6.69747">
        <ele>747</ele>
        <time>2022-04-05T16:22:25Z</time>
      </trkpt>
      <trkpt lat="47.88243" lon="6.69742">
        <ele>747</ele>
        <time>2022-04-05T16:22:27Z</time>
      </trkpt>
      <trkpt lat="47.88256" lon="6.69729">
        <ele>745</ele>
        <time>2022-04-05T16:22:30Z</time>
      </trkpt>
      <trkpt lat="47.88271" lon="6.69705">
        <ele>743</ele>
        <time>2022-04-05T16:22:34Z</time>
      </trkpt>
      <trkpt lat="47.88282" lon="6.69687">
        <ele>742</ele>
        <time>2022-04-05T16:22:37Z</time>
      </trkpt>
      <trkpt lat="47.8829" lon="6.69675">
        <ele>741</ele>
        <time>2022-04-05T16:22:39Z</time>
      </trkpt>
      <trkpt lat="47.88296" lon="6.69663">
        <ele>741</ele>
        <time>2022-04-05T16:22:41Z</time>
      </trkpt>
      <trkpt lat="47.88326" lon="6.69614">
        <ele>740</ele>
        <time>2022-04-05T16:22:48Z</time>
      </trkpt>
      <trkpt lat="47.88375" lon="6.69533">
        <ele>741</ele>
        <time>2022-04-05T16:23:01Z</time>
      </trkpt>
      <trkpt lat="47.88464" lon="6.69337">
        <ele>749</ele>
        <time>2022-04-05T16:23:30Z</time>
      </trkpt>
      <trkpt lat="47.88475" lon="6.69317">
        <ele>749</ele>
        <time>2022-04-05T16:23:33Z</time>
      </trkpt>
      <trkpt lat="47.88483" lon="6.69305">
        <ele>748</ele>
        <time>2022-04-05T16:23:35Z</time>
      </trkpt>
      <trkpt lat="47.88491" lon="6.69299">
        <ele>748</ele>
        <time>2022-04-05T16:23:36Z</time>
      </trkpt>
      <trkpt lat="47.88555" lon="6.69272">
        <ele>748</ele>
        <time>2022-04-05T16:23:48Z</time>
      </trkpt>
      <trkpt lat="47.88561" lon="6.69266">
        <ele>748</ele>
        <time>2022-04-05T16:23:50Z</time>
      </trkpt>
      <trkpt lat="47.88567" lon="6.69256">
        <ele>748</ele>
        <time>2022-04-05T16:23:51Z</time>
      </trkpt>
      <trkpt lat="47.88574" lon="6.69236">
        <ele>748</ele>
        <time>2022-04-05T16:23:54Z</time>
      </trkpt>
      <trkpt lat="47.88589" lon="6.69182">
        <ele>749</ele>
        <time>2022-04-05T16:24:01Z</time>
      </trkpt>
      <trkpt lat="47.8864" lon="6.68978">
        <ele>757</ele>
        <time>2022-04-05T16:24:27Z</time>
      </trkpt>
      <trkpt lat="47.88645" lon="6.68964">
        <ele>757</ele>
        <time>2022-04-05T16:24:29Z</time>
      </trkpt>
      <trkpt lat="47.88652" lon="6.68957">
        <ele>758</ele>
        <time>2022-04-05T16:24:30Z</time>
      </trkpt>
      <trkpt lat="47.88672" lon="6.68951">
        <ele>759</ele>
        <time>2022-04-05T16:24:34Z</time>
      </trkpt>
      <trkpt lat="47.88743" lon="6.6894">
        <ele>760</ele>
        <time>2022-04-05T16:24:47Z</time>
      </trkpt>
      <trkpt lat="47.88753" lon="6.68935">
        <ele>760</ele>
        <time>2022-04-05T16:24:48Z</time>
      </trkpt>
      <trkpt lat="47.88764" lon="6.68923">
        <ele>760</ele>
        <time>2022-04-05T16:24:51Z</time>
      </trkpt>
      <trkpt lat="47.88768" lon="6.68913">
        <ele>761</ele>
        <time>2022-04-05T16:24:52Z</time>
      </trkpt>
      <trkpt lat="47.88807" lon="6.68803">
        <ele>765</ele>
        <time>2022-04-05T16:25:07Z</time>
      </trkpt>
      <trkpt lat="47.88852" lon="6.68684">
        <ele>768</ele>
        <time>2022-04-05T16:25:23Z</time>
      </trkpt>
      <trkpt lat="47.88866" lon="6.6865">
        <ele>768</ele>
        <time>2022-04-05T16:25:28Z</time>
      </trkpt>
      <trkpt lat="47.88882" lon="6.68607">
        <ele>765</ele>
        <time>2022-04-05T16:25:34Z</time>
      </trkpt>
      <trkpt lat="47.88892" lon="6.68591">
        <ele>763</ele>
        <time>2022-04-05T16:25:37Z</time>
      </trkpt>
      <trkpt lat="47.889" lon="6.68586">
        <ele>762</ele>
        <time>2022-04-05T16:25:38Z</time>
      </trkpt>
      <trkpt lat="47.88917" lon="6.68585">
        <ele>760</ele>
        <time>2022-04-05T16:25:41Z</time>
      </trkpt>
      <trkpt lat="47.88951" lon="6.68598">
        <ele>758</ele>
        <time>2022-04-05T16:25:47Z</time>
      </trkpt>
      <trkpt lat="47.88993" lon="6.68609">
        <ele>755</ele>
        <time>2022-04-05T16:25:55Z</time>
      </trkpt>
      <trkpt lat="47.89003" lon="6.6861">
        <ele>754</ele>
        <time>2022-04-05T16:25:57Z</time>
      </trkpt>
      <trkpt lat="47.89011" lon="6.68608">
        <ele>752</ele>
        <time>2022-04-05T16:25:58Z</time>
      </trkpt>
      <trkpt lat="47.89018" lon="6.68604">
        <ele>751</ele>
        <time>2022-04-05T16:26:00Z</time>
      </trkpt>
      <trkpt lat="47.89025" lon="6.68594">
        <ele>749</ele>
        <time>2022-04-05T16:26:01Z</time>
      </trkpt>
      <trkpt lat="47.89057" lon="6.68505">
        <ele>741</ele>
        <time>2022-04-05T16:26:13Z</time>
      </trkpt>
      <trkpt lat="47.89066" lon="6.68475">
        <ele>739</ele>
        <time>2022-04-05T16:26:17Z</time>
      </trkpt>
      <trkpt lat="47.89065" lon="6.68438">
        <ele>739</ele>
        <time>2022-04-05T16:26:22Z</time>
      </trkpt>
      <trkpt lat="47.89055" lon="6.68391">
        <ele>740</ele>
        <time>2022-04-05T16:26:28Z</time>
      </trkpt>
      <trkpt lat="47.89036" lon="6.68317">
        <ele>740</ele>
        <time>2022-04-05T16:26:37Z</time>
      </trkpt>
      <trkpt lat="47.89033" lon="6.68292">
        <ele>738</ele>
        <time>2022-04-05T16:26:40Z</time>
      </trkpt>
      <trkpt lat="47.89021" lon="6.67927">
        <ele>722</ele>
        <time>2022-04-05T16:27:24Z</time>
      </trkpt>
      <trkpt lat="47.89032" lon="6.67618">
        <ele>707</ele>
        <time>2022-04-05T16:28:01Z</time>
      </trkpt>
      <trkpt lat="47.89041" lon="6.67549">
        <ele>701</ele>
        <time>2022-04-05T16:28:09Z</time>
      </trkpt>
      <trkpt lat="47.89069" lon="6.6744">
        <ele>696</ele>
        <time>2022-04-05T16:28:23Z</time>
      </trkpt>
      <trkpt lat="47.89083" lon="6.6741">
        <ele>695</ele>
        <time>2022-04-05T16:28:27Z</time>
      </trkpt>
      <trkpt lat="47.89097" lon="6.67387">
        <ele>693</ele>
        <time>2022-04-05T16:28:31Z</time>
      </trkpt>
      <trkpt lat="47.89115" lon="6.67354">
        <ele>691</ele>
        <time>2022-04-05T16:28:36Z</time>
      </trkpt>
      <trkpt lat="47.89154" lon="6.67269">
        <ele>686</ele>
        <time>2022-04-05T16:28:48Z</time>
      </trkpt>
      <trkpt lat="47.89162" lon="6.67247">
        <ele>685</ele>
        <time>2022-04-05T16:28:51Z</time>
      </trkpt>
      <trkpt lat="47.89165" lon="6.67237">
        <ele>683</ele>
        <time>2022-04-05T16:28:53Z</time>
      </trkpt>
      <trkpt lat="47.89169" lon="6.67208">
        <ele>680</ele>
        <time>2022-04-05T16:28:56Z</time>
      </trkpt>
      <trkpt lat="47.89161" lon="6.67131">
        <ele>674</ele>
        <time>2022-04-05T16:29:05Z</time>
      </trkpt>
      <trkpt lat="47.89151" lon="6.67086">
        <ele>671</ele>
        <time>2022-04-05T16:29:11Z</time>
      </trkpt>
      <trkpt lat="47.89136" lon="6.6707">
        <ele>675</ele>
        <time>2022-04-05T16:29:14Z</time>
      </trkpt>
      <trkpt lat="47.89138" lon="6.67052">
        <ele>673</ele>
        <time>2022-04-05T16:29:17Z</time>
      </trkpt>
      <trkpt lat="47.89141" lon="6.67042">
        <ele>672</ele>
        <time>2022-04-05T16:29:18Z</time>
      </trkpt>
      <trkpt lat="47.8915" lon="6.6704">
        <ele>669</ele>
        <time>2022-04-05T16:29:19Z</time>
      </trkpt>
      <trkpt lat="47.89161" lon="6.6705">
        <ele>666</ele>
        <time>2022-04-05T16:29:22Z</time>
      </trkpt>
      <trkpt lat="47.89201" lon="6.67214">
        <ele>672</ele>
        <time>2022-04-05T16:29:43Z</time>
      </trkpt>
      <trkpt lat="47.89214" lon="6.67249">
        <ele>669</ele>
        <time>2022-04-05T16:29:47Z</time>
      </trkpt>
      <trkpt lat="47.89223" lon="6.67249">
        <ele>666</ele>
        <time>2022-04-05T16:29:49Z</time>
      </trkpt>
      <trkpt lat="47.89233" lon="6.67243">
        <ele>663</ele>
        <time>2022-04-05T16:29:51Z</time>
      </trkpt>
      <trkpt lat="47.8924" lon="6.6723">
        <ele>661</ele>
        <time>2022-04-05T16:29:53Z</time>
      </trkpt>
      <trkpt lat="47.89247" lon="6.67206">
        <ele>659</ele>
        <time>2022-04-05T16:29:56Z</time>
      </trkpt>
      <trkpt lat="47.89257" lon="6.67081">
        <ele>656</ele>
        <time>2022-04-05T16:30:11Z</time>
      </trkpt>
      <trkpt lat="47.89258" lon="6.67046">
        <ele>657</ele>
        <time>2022-04-05T16:30:15Z</time>
      </trkpt>
      <trkpt lat="47.89234" lon="6.66922">
        <ele>661</ele>
        <time>2022-04-05T16:30:31Z</time>
      </trkpt>
      <trkpt lat="47.89226" lon="6.66892">
        <ele>662</ele>
        <time>2022-04-05T16:30:34Z</time>
      </trkpt>
      <trkpt lat="47.89215" lon="6.66864">
        <ele>663</ele>
        <time>2022-04-05T16:30:38Z</time>
      </trkpt>
      <trkpt lat="47.89208" lon="6.66839">
        <ele>662</ele>
        <time>2022-04-05T16:30:42Z</time>
      </trkpt>
      <trkpt lat="47.89206" lon="6.66789">
        <ele>661</ele>
        <time>2022-04-05T16:30:47Z</time>
      </trkpt>
      <trkpt lat="47.89202" lon="6.66763">
        <ele>660</ele>
        <time>2022-04-05T16:30:51Z</time>
      </trkpt>
      <trkpt lat="47.89192" lon="6.66725">
        <ele>657</ele>
        <time>2022-04-05T16:30:56Z</time>
      </trkpt>
      <trkpt lat="47.89187" lon="6.66699">
        <ele>656</ele>
        <time>2022-04-05T16:30:59Z</time>
      </trkpt>
      <trkpt lat="47.89189" lon="6.66676">
        <ele>656</ele>
        <time>2022-04-05T16:31:02Z</time>
      </trkpt>
      <trkpt lat="47.89201" lon="6.66604">
        <ele>659</ele>
        <time>2022-04-05T16:31:10Z</time>
      </trkpt>
      <trkpt lat="47.892" lon="6.66576">
        <ele>659</ele>
        <time>2022-04-05T16:31:14Z</time>
      </trkpt>
      <trkpt lat="47.89203" lon="6.66473">
        <ele>662</ele>
        <time>2022-04-05T16:31:26Z</time>
      </trkpt>
      <trkpt lat="47.89198" lon="6.66436">
        <ele>662</ele>
        <time>2022-04-05T16:31:31Z</time>
      </trkpt>
      <trkpt lat="47.89177" lon="6.6636">
        <ele>664</ele>
        <time>2022-04-05T16:31:40Z</time>
      </trkpt>
      <trkpt lat="47.89177" lon="6.66335">
        <ele>667</ele>
        <time>2022-04-05T16:31:43Z</time>
      </trkpt>
      <trkpt lat="47.89187" lon="6.66308">
        <ele>670</ele>
        <time>2022-04-05T16:31:47Z</time>
      </trkpt>
      <trkpt lat="47.89215" lon="6.66255">
        <ele>677</ele>
        <time>2022-04-05T16:31:55Z</time>
      </trkpt>
      <trkpt lat="47.89222" lon="6.66236">
        <ele>678</ele>
        <time>2022-04-05T16:31:58Z</time>
      </trkpt>
      <trkpt lat="47.89233" lon="6.66208">
        <ele>681</ele>
        <time>2022-04-05T16:32:02Z</time>
      </trkpt>
      <trkpt lat="47.89247" lon="6.66173">
        <ele>683</ele>
        <time>2022-04-05T16:32:06Z</time>
      </trkpt>
      <trkpt lat="47.89266" lon="6.66126">
        <ele>682</ele>
        <time>2022-04-05T16:32:13Z</time>
      </trkpt>
      <trkpt lat="47.89282" lon="6.661">
        <ele>680</ele>
        <time>2022-04-05T16:32:17Z</time>
      </trkpt>
      <trkpt lat="47.89301" lon="6.66085">
        <ele>680</ele>
        <time>2022-04-05T16:32:21Z</time>
      </trkpt>
      <trkpt lat="47.89329" lon="6.66084">
        <ele>681</ele>
        <time>2022-04-05T16:32:26Z</time>
      </trkpt>
      <trkpt lat="47.89358" lon="6.66077">
        <ele>680</ele>
        <time>2022-04-05T16:32:31Z</time>
      </trkpt>
      <trkpt lat="47.89377" lon="6.66068">
        <ele>678</ele>
        <time>2022-04-05T16:32:35Z</time>
      </trkpt>
      <trkpt lat="47.89405" lon="6.66061">
        <ele>676</ele>
        <time>2022-04-05T16:32:40Z</time>
      </trkpt>
      <trkpt lat="47.89424" lon="6.6606">
        <ele>675</ele>
        <time>2022-04-05T16:32:43Z</time>
      </trkpt>
      <trkpt lat="47.89436" lon="6.66067">
        <ele>677</ele>
        <time>2022-04-05T16:32:45Z</time>
      </trkpt>
      <trkpt lat="47.89449" lon="6.66089">
        <ele>681</ele>
        <time>2022-04-05T16:32:49Z</time>
      </trkpt>
      <trkpt lat="47.89463" lon="6.66108">
        <ele>684</ele>
        <time>2022-04-05T16:32:52Z</time>
      </trkpt>
      <trkpt lat="47.89487" lon="6.6612">
        <ele>686</ele>
        <time>2022-04-05T16:32:57Z</time>
      </trkpt>
      <trkpt lat="47.89507" lon="6.66122">
        <ele>686</ele>
        <time>2022-04-05T16:33:00Z</time>
      </trkpt>
      <trkpt lat="47.89519" lon="6.6611">
        <ele>685</ele>
        <time>2022-04-05T16:33:03Z</time>
      </trkpt>
      <trkpt lat="47.89531" lon="6.66096">
        <ele>683</ele>
        <time>2022-04-05T16:33:06Z</time>
      </trkpt>
      <trkpt lat="47.89539" lon="6.6609">
        <ele>683</ele>
        <time>2022-04-05T16:33:07Z</time>
      </trkpt>
      <trkpt lat="47.89554" lon="6.66089">
        <ele>685</ele>
        <time>2022-04-05T16:33:10Z</time>
      </trkpt>
      <trkpt lat="47.89602" lon="6.66092">
        <ele>688</ele>
        <time>2022-04-05T16:33:18Z</time>
      </trkpt>
      <trkpt lat="47.89609" lon="6.66088">
        <ele>688</ele>
        <time>2022-04-05T16:33:20Z</time>
      </trkpt>
      <trkpt lat="47.89618" lon="6.66075">
        <ele>686</ele>
        <time>2022-04-05T16:33:22Z</time>
      </trkpt>
      <trkpt lat="47.89627" lon="6.66056">
        <ele>684</ele>
        <time>2022-04-05T16:33:25Z</time>
      </trkpt>
      <trkpt lat="47.8964" lon="6.66019">
        <ele>679</ele>
        <time>2022-04-05T16:33:30Z</time>
      </trkpt>
      <trkpt lat="47.89644" lon="6.66012">
        <ele>678</ele>
        <time>2022-04-05T16:33:31Z</time>
      </trkpt>
      <trkpt lat="47.89652" lon="6.66009">
        <ele>679</ele>
        <time>2022-04-05T16:33:32Z</time>
      </trkpt>
      <trkpt lat="47.89683" lon="6.66022">
        <ele>683</ele>
        <time>2022-04-05T16:33:38Z</time>
      </trkpt>
      <trkpt lat="47.89689" lon="6.6602">
        <ele>683</ele>
        <time>2022-04-05T16:33:39Z</time>
      </trkpt>
      <trkpt lat="47.897" lon="6.66007">
        <ele>683</ele>
        <time>2022-04-05T16:33:42Z</time>
      </trkpt>
      <trkpt lat="47.8971" lon="6.65987">
        <ele>682</ele>
        <time>2022-04-05T16:33:45Z</time>
      </trkpt>
      <trkpt lat="47.89716" lon="6.65979">
        <ele>683</ele>
        <time>2022-04-05T16:33:46Z</time>
      </trkpt>
      <trkpt lat="47.89726" lon="6.65977">
        <ele>684</ele>
        <time>2022-04-05T16:33:48Z</time>
      </trkpt>
      <trkpt lat="47.89737" lon="6.65984">
        <ele>685</ele>
        <time>2022-04-05T16:33:50Z</time>
      </trkpt>
      <trkpt lat="47.89749" lon="6.65998">
        <ele>687</ele>
        <time>2022-04-05T16:33:53Z</time>
      </trkpt>
      <trkpt lat="47.89756" lon="6.66003">
        <ele>687</ele>
        <time>2022-04-05T16:33:54Z</time>
      </trkpt>
      <trkpt lat="47.89763" lon="6.66001">
        <ele>687</ele>
        <time>2022-04-05T16:33:55Z</time>
      </trkpt>
      <trkpt lat="47.8977" lon="6.65995">
        <ele>687</ele>
        <time>2022-04-05T16:33:57Z</time>
      </trkpt>
      <trkpt lat="47.89779" lon="6.65984">
        <ele>687</ele>
        <time>2022-04-05T16:33:59Z</time>
      </trkpt>
      <trkpt lat="47.89787" lon="6.65966">
        <ele>687</ele>
        <time>2022-04-05T16:34:01Z</time>
      </trkpt>
      <trkpt lat="47.89795" lon="6.65942">
        <ele>687</ele>
        <time>2022-04-05T16:34:05Z</time>
      </trkpt>
      <trkpt lat="47.89812" lon="6.65905">
        <ele>687</ele>
        <time>2022-04-05T16:34:10Z</time>
      </trkpt>
      <trkpt lat="47.89844" lon="6.65846">
        <ele>688</ele>
        <time>2022-04-05T16:34:19Z</time>
      </trkpt>
      <trkpt lat="47.89857" lon="6.65826">
        <ele>688</ele>
        <time>2022-04-05T16:34:22Z</time>
      </trkpt>
      <trkpt lat="47.89871" lon="6.65807">
        <ele>689</ele>
        <time>2022-04-05T16:34:26Z</time>
      </trkpt>
      <trkpt lat="47.89956" lon="6.65711">
        <ele>688</ele>
        <time>2022-04-05T16:34:45Z</time>
      </trkpt>
      <trkpt lat="47.89978" lon="6.65673">
        <ele>689</ele>
        <time>2022-04-05T16:34:51Z</time>
      </trkpt>
      <trkpt lat="47.89995" lon="6.65634">
        <ele>690</ele>
        <time>2022-04-05T16:34:56Z</time>
      </trkpt>
      <trkpt lat="47.9" lon="6.65617">
        <ele>691</ele>
        <time>2022-04-05T16:34:58Z</time>
      </trkpt>
      <trkpt lat="47.90001" lon="6.65605">
        <ele>692</ele>
        <time>2022-04-05T16:35:00Z</time>
      </trkpt>
      <trkpt lat="47.90001" lon="6.65541">
        <ele>694</ele>
        <time>2022-04-05T16:35:08Z</time>
      </trkpt>
      <trkpt lat="47.89993" lon="6.65355">
        <ele>688</ele>
        <time>2022-04-05T16:35:30Z</time>
      </trkpt>
      <trkpt lat="47.89985" lon="6.65317">
        <ele>686</ele>
        <time>2022-04-05T16:35:35Z</time>
      </trkpt>
      <trkpt lat="47.89973" lon="6.65283">
        <ele>684</ele>
        <time>2022-04-05T16:35:39Z</time>
      </trkpt>
      <trkpt lat="47.89959" lon="6.65258">
        <ele>682</ele>
        <time>2022-04-05T16:35:43Z</time>
      </trkpt>
      <trkpt lat="47.89949" lon="6.65234">
        <ele>680</ele>
        <time>2022-04-05T16:35:46Z</time>
      </trkpt>
      <trkpt lat="47.89944" lon="6.65211">
        <ele>677</ele>
        <time>2022-04-05T16:35:49Z</time>
      </trkpt>
      <trkpt lat="47.89944" lon="6.65189">
        <ele>674</ele>
        <time>2022-04-05T16:35:52Z</time>
      </trkpt>
      <trkpt lat="47.89949" lon="6.65164">
        <ele>672</ele>
        <time>2022-04-05T16:35:55Z</time>
      </trkpt>
      <trkpt lat="47.89951" lon="6.65142">
        <ele>671</ele>
        <time>2022-04-05T16:35:58Z</time>
      </trkpt>
      <trkpt lat="47.89946" lon="6.65097">
        <ele>667</ele>
        <time>2022-04-05T16:36:03Z</time>
      </trkpt>
      <trkpt lat="47.89897" lon="6.64912">
        <ele>660</ele>
        <time>2022-04-05T16:36:27Z</time>
      </trkpt>
      <trkpt lat="47.89887" lon="6.64846">
        <ele>657</ele>
        <time>2022-04-05T16:36:35Z</time>
      </trkpt>
      <trkpt lat="47.89889" lon="6.64745">
        <ele>654</ele>
        <time>2022-04-05T16:36:47Z</time>
      </trkpt>
      <trkpt lat="47.89907" lon="6.64673">
        <ele>654</ele>
        <time>2022-04-05T16:36:56Z</time>
      </trkpt>
      <trkpt lat="47.8992" lon="6.64638">
        <ele>652</ele>
        <time>2022-04-05T16:37:01Z</time>
      </trkpt>
      <trkpt lat="47.89938" lon="6.64604">
        <ele>649</ele>
        <time>2022-04-05T16:37:06Z</time>
      </trkpt>
      <trkpt lat="47.90008" lon="6.64561">
        <ele>647</ele>
        <time>2022-04-05T16:37:20Z</time>
      </trkpt>
      <trkpt lat="47.90043" lon="6.64544">
        <ele>640</ele>
        <time>2022-04-05T16:37:26Z</time>
      </trkpt>
      <trkpt lat="47.90065" lon="6.64545">
        <ele>638</ele>
        <time>2022-04-05T16:37:30Z</time>
      </trkpt>
      <trkpt lat="47.90143" lon="6.64586">
        <ele>638</ele>
        <time>2022-04-05T16:37:45Z</time>
      </trkpt>
      <trkpt lat="47.90168" lon="6.64595">
        <ele>636</ele>
        <time>2022-04-05T16:37:49Z</time>
      </trkpt>
      <trkpt lat="47.90189" lon="6.64597">
        <ele>635</ele>
        <time>2022-04-05T16:37:53Z</time>
      </trkpt>
      <trkpt lat="47.90226" lon="6.64592">
        <ele>633</ele>
        <time>2022-04-05T16:38:00Z</time>
      </trkpt>
      <trkpt lat="47.90248" lon="6.64586">
        <ele>631</ele>
        <time>2022-04-05T16:38:04Z</time>
      </trkpt>
      <trkpt lat="47.90262" lon="6.64576">
        <ele>631</ele>
        <time>2022-04-05T16:38:06Z</time>
      </trkpt>
      <trkpt lat="47.90267" lon="6.64568">
        <ele>630</ele>
        <time>2022-04-05T16:38:08Z</time>
      </trkpt>
      <trkpt lat="47.9027" lon="6.64557">
        <ele>630</ele>
        <time>2022-04-05T16:38:09Z</time>
      </trkpt>
      <trkpt lat="47.9027" lon="6.64538">
        <ele>628</ele>
        <time>2022-04-05T16:38:11Z</time>
      </trkpt>
      <trkpt lat="47.9027" lon="6.64518">
        <ele>626</ele>
        <time>2022-04-05T16:38:14Z</time>
      </trkpt>
      <trkpt lat="47.90274" lon="6.64502">
        <ele>625</ele>
        <time>2022-04-05T16:38:16Z</time>
      </trkpt>
      <trkpt lat="47.90296" lon="6.64478">
        <ele>627</ele>
        <time>2022-04-05T16:38:21Z</time>
      </trkpt>
      <trkpt lat="47.90321" lon="6.64459">
        <ele>631</ele>
        <time>2022-04-05T16:38:26Z</time>
      </trkpt>
      <trkpt lat="47.90328" lon="6.64451">
        <ele>632</ele>
        <time>2022-04-05T16:38:27Z</time>
      </trkpt>
      <trkpt lat="47.90387" lon="6.64482">
        <ele>631</ele>
        <time>2022-04-05T16:38:38Z</time>
      </trkpt>
      <trkpt lat="47.90386" lon="6.64471">
        <ele>633</ele>
        <time>2022-04-05T16:38:40Z</time>
      </trkpt>
      <trkpt lat="47.90375" lon="6.64457">
        <ele>635</ele>
        <time>2022-04-05T16:38:42Z</time>
      </trkpt>
      <trkpt lat="47.90345" lon="6.64441">
        <ele>635</ele>
        <time>2022-04-05T16:38:48Z</time>
      </trkpt>
      <trkpt lat="47.9032" lon="6.64424">
        <ele>632</ele>
        <time>2022-04-05T16:38:53Z</time>
      </trkpt>
      <trkpt lat="47.903" lon="6.64404">
        <ele>629</ele>
        <time>2022-04-05T16:38:57Z</time>
      </trkpt>
      <trkpt lat="47.90285" lon="6.64379">
        <ele>629</ele>
        <time>2022-04-05T16:39:01Z</time>
      </trkpt>
      <trkpt lat="47.90277" lon="6.64351">
        <ele>631</ele>
        <time>2022-04-05T16:39:05Z</time>
      </trkpt>
      <trkpt lat="47.90256" lon="6.64253">
        <ele>640</ele>
        <time>2022-04-05T16:39:17Z</time>
      </trkpt>
      <trkpt lat="47.90218" lon="6.64136">
        <ele>648</ele>
        <time>2022-04-05T16:39:32Z</time>
      </trkpt>
      <trkpt lat="47.9017" lon="6.64003">
        <ele>652</ele>
        <time>2022-04-05T16:39:50Z</time>
      </trkpt>
      <trkpt lat="47.90169" lon="6.6398">
        <ele>653</ele>
        <time>2022-04-05T16:39:53Z</time>
      </trkpt>
      <trkpt lat="47.90173" lon="6.63951">
        <ele>655</ele>
        <time>2022-04-05T16:39:57Z</time>
      </trkpt>
      <trkpt lat="47.90201" lon="6.63872">
        <ele>661</ele>
        <time>2022-04-05T16:40:07Z</time>
      </trkpt>
      <trkpt lat="47.90213" lon="6.63852">
        <ele>663</ele>
        <time>2022-04-05T16:40:11Z</time>
      </trkpt>
      <trkpt lat="47.90225" lon="6.63841">
        <ele>664</ele>
        <time>2022-04-05T16:40:13Z</time>
      </trkpt>
      <trkpt lat="47.90237" lon="6.63835">
        <ele>665</ele>
        <time>2022-04-05T16:40:15Z</time>
      </trkpt>
      <trkpt lat="47.90254" lon="6.63821">
        <ele>666</ele>
        <time>2022-04-05T16:40:19Z</time>
      </trkpt>
      <trkpt lat="47.90268" lon="6.63807">
        <ele>667</ele>
        <time>2022-04-05T16:40:22Z</time>
      </trkpt>
      <trkpt lat="47.90297" lon="6.6377">
        <ele>669</ele>
        <time>2022-04-05T16:40:29Z</time>
      </trkpt>
      <trkpt lat="47.90339" lon="6.63729">
        <ele>673</ele>
        <time>2022-04-05T16:40:38Z</time>
      </trkpt>
      <trkpt lat="47.90373" lon="6.63683">
        <ele>670</ele>
        <time>2022-04-05T16:40:46Z</time>
      </trkpt>
      <trkpt lat="47.90382" lon="6.63666">
        <ele>669</ele>
        <time>2022-04-05T16:40:48Z</time>
      </trkpt>
      <trkpt lat="47.90402" lon="6.63651">
        <ele>670</ele>
        <time>2022-04-05T16:40:52Z</time>
      </trkpt>
      <trkpt lat="47.90422" lon="6.63646">
        <ele>672</ele>
        <time>2022-04-05T16:40:56Z</time>
      </trkpt>
      <trkpt lat="47.90435" lon="6.63639">
        <ele>673</ele>
        <time>2022-04-05T16:40:58Z</time>
      </trkpt>
      <trkpt lat="47.90445" lon="6.6362">
        <ele>674</ele>
        <time>2022-04-05T16:41:01Z</time>
      </trkpt>
      <trkpt lat="47.90449" lon="6.636">
        <ele>675</ele>
        <time>2022-04-05T16:41:04Z</time>
      </trkpt>
      <trkpt lat="47.90448" lon="6.63457">
        <ele>674</ele>
        <time>2022-04-05T16:41:21Z</time>
      </trkpt>
      <trkpt lat="47.90451" lon="6.63433">
        <ele>675</ele>
        <time>2022-04-05T16:41:24Z</time>
      </trkpt>
      <trkpt lat="47.90457" lon="6.63413">
        <ele>676</ele>
        <time>2022-04-05T16:41:26Z</time>
      </trkpt>
      <trkpt lat="47.90478" lon="6.63356">
        <ele>681</ele>
        <time>2022-04-05T16:41:34Z</time>
      </trkpt>
      <trkpt lat="47.90497" lon="6.63321">
        <ele>684</ele>
        <time>2022-04-05T16:41:39Z</time>
      </trkpt>
      <trkpt lat="47.90522" lon="6.63295">
        <ele>685</ele>
        <time>2022-04-05T16:41:45Z</time>
      </trkpt>
      <trkpt lat="47.90617" lon="6.63232">
        <ele>687</ele>
        <time>2022-04-05T16:42:03Z</time>
      </trkpt>
      <trkpt lat="47.90632" lon="6.6322">
        <ele>689</ele>
        <time>2022-04-05T16:42:06Z</time>
      </trkpt>
      <trkpt lat="47.90644" lon="6.63197">
        <ele>690</ele>
        <time>2022-04-05T16:42:10Z</time>
      </trkpt>
      <trkpt lat="47.90649" lon="6.63181">
        <ele>691</ele>
        <time>2022-04-05T16:42:12Z</time>
      </trkpt>
      <trkpt lat="47.90655" lon="6.63132">
        <ele>691</ele>
        <time>2022-04-05T16:42:18Z</time>
      </trkpt>
      <trkpt lat="47.90659" lon="6.63077">
        <ele>689</ele>
        <time>2022-04-05T16:42:25Z</time>
      </trkpt>
      <trkpt lat="47.90668" lon="6.63059">
        <ele>688</ele>
        <time>2022-04-05T16:42:27Z</time>
      </trkpt>
      <trkpt lat="47.90692" lon="6.63046">
        <ele>689</ele>
        <time>2022-04-05T16:42:32Z</time>
      </trkpt>
      <trkpt lat="47.90716" lon="6.63047">
        <ele>692</ele>
        <time>2022-04-05T16:42:36Z</time>
      </trkpt>
      <trkpt lat="47.90752" lon="6.63055">
        <ele>697</ele>
        <time>2022-04-05T16:42:42Z</time>
      </trkpt>
      <trkpt lat="47.90773" lon="6.63066">
        <ele>698</ele>
        <time>2022-04-05T16:42:46Z</time>
      </trkpt>
      <trkpt lat="47.90874" lon="6.63164">
        <ele>706</ele>
        <time>2022-04-05T16:43:08Z</time>
      </trkpt>
      <trkpt lat="47.90898" lon="6.63203">
        <ele>703</ele>
        <time>2022-04-05T16:43:14Z</time>
      </trkpt>
      <trkpt lat="47.90919" lon="6.63271">
        <ele>700</ele>
        <time>2022-04-05T16:43:23Z</time>
      </trkpt>
      <trkpt lat="47.90933" lon="6.63309">
        <ele>701</ele>
        <time>2022-04-05T16:43:28Z</time>
      </trkpt>
      <trkpt lat="47.90948" lon="6.63328">
        <ele>700</ele>
        <time>2022-04-05T16:43:32Z</time>
      </trkpt>
      <trkpt lat="47.90966" lon="6.6334">
        <ele>699</ele>
        <time>2022-04-05T16:43:35Z</time>
      </trkpt>
      <trkpt lat="47.91053" lon="6.63373">
        <ele>701</ele>
        <time>2022-04-05T16:43:51Z</time>
      </trkpt>
      <trkpt lat="47.91086" lon="6.6339">
        <ele>703</ele>
        <time>2022-04-05T16:43:57Z</time>
      </trkpt>
      <trkpt lat="47.91113" lon="6.63411">
        <ele>705</ele>
        <time>2022-04-05T16:44:03Z</time>
      </trkpt>
      <trkpt lat="47.91138" lon="6.63441">
        <ele>708</ele>
        <time>2022-04-05T16:44:09Z</time>
      </trkpt>
      <trkpt lat="47.91171" lon="6.63467">
        <ele>710</ele>
        <time>2022-04-05T16:44:15Z</time>
      </trkpt>
      <trkpt lat="47.91261" lon="6.6352">
        <ele>712</ele>
        <time>2022-04-05T16:44:32Z</time>
      </trkpt>
      <trkpt lat="47.91288" lon="6.63543">
        <ele>710</ele>
        <time>2022-04-05T16:44:38Z</time>
      </trkpt>
      <trkpt lat="47.91328" lon="6.63581">
        <ele>707</ele>
        <time>2022-04-05T16:44:46Z</time>
      </trkpt>
      <trkpt lat="47.9134" lon="6.63587">
        <ele>708</ele>
        <time>2022-04-05T16:44:49Z</time>
      </trkpt>
      <trkpt lat="47.91363" lon="6.6359">
        <ele>711</ele>
        <time>2022-04-05T16:44:53Z</time>
      </trkpt>
      <trkpt lat="47.91372" lon="6.63586">
        <ele>712</ele>
        <time>2022-04-05T16:44:54Z</time>
      </trkpt>
      <trkpt lat="47.91397" lon="6.63554">
        <ele>715</ele>
        <time>2022-04-05T16:45:00Z</time>
      </trkpt>
      <trkpt lat="47.91423" lon="6.63509">
        <ele>719</ele>
        <time>2022-04-05T16:45:07Z</time>
      </trkpt>
      <trkpt lat="47.91432" lon="6.63484">
        <ele>718</ele>
        <time>2022-04-05T16:45:11Z</time>
      </trkpt>
      <trkpt lat="47.91439" lon="6.63449">
        <ele>716</ele>
        <time>2022-04-05T16:45:15Z</time>
      </trkpt>
      <trkpt lat="47.91446" lon="6.6343">
        <ele>715</ele>
        <time>2022-04-05T16:45:18Z</time>
      </trkpt>
      <trkpt lat="47.91494" lon="6.63356">
        <ele>721</ele>
        <time>2022-04-05T16:45:30Z</time>
      </trkpt>
      <trkpt lat="47.91551" lon="6.63254">
        <ele>730</ele>
        <time>2022-04-05T16:45:46Z</time>
      </trkpt>
      <trkpt lat="47.91625" lon="6.63143">
        <ele>736</ele>
        <time>2022-04-05T16:46:05Z</time>
      </trkpt>
      <trkpt lat="47.91673" lon="6.63078">
        <ele>741</ele>
        <time>2022-04-05T16:46:16Z</time>
      </trkpt>
      <trkpt lat="47.91729" lon="6.63023">
        <ele>742</ele>
        <time>2022-04-05T16:46:28Z</time>
      </trkpt>
      <trkpt lat="47.91753" lon="6.63004">
        <ele>742</ele>
        <time>2022-04-05T16:46:33Z</time>
      </trkpt>
      <trkpt lat="47.91772" lon="6.62995">
        <ele>742</ele>
        <time>2022-04-05T16:46:36Z</time>
      </trkpt>
      <trkpt lat="47.91836" lon="6.6298">
        <ele>746</ele>
        <time>2022-04-05T16:46:48Z</time>
      </trkpt>
      <trkpt lat="47.91844" lon="6.62985">
        <ele>749</ele>
        <time>2022-04-05T16:46:49Z</time>
      </trkpt>
      <trkpt lat="47.91854" lon="6.62996">
        <ele>752</ele>
        <time>2022-04-05T16:46:52Z</time>
      </trkpt>
      <trkpt lat="47.91854" lon="6.63017">
        <ele>755</ele>
        <time>2022-04-05T16:46:54Z</time>
      </trkpt>
      <trkpt lat="47.9185" lon="6.63031">
        <ele>756</ele>
        <time>2022-04-05T16:46:56Z</time>
      </trkpt>
      <trkpt lat="47.91839" lon="6.63053">
        <ele>757</ele>
        <time>2022-04-05T16:46:59Z</time>
      </trkpt>
      <trkpt lat="47.91812" lon="6.63098">
        <ele>760</ele>
        <time>2022-04-05T16:47:06Z</time>
      </trkpt>
      <trkpt lat="47.91763" lon="6.63227">
        <ele>770</ele>
        <time>2022-04-05T16:47:24Z</time>
      </trkpt>
      <trkpt lat="47.91754" lon="6.63265">
        <ele>772</ele>
        <time>2022-04-05T16:47:29Z</time>
      </trkpt>
      <trkpt lat="47.91752" lon="6.63293">
        <ele>773</ele>
        <time>2022-04-05T16:47:32Z</time>
      </trkpt>
      <trkpt lat="47.91759" lon="6.63394">
        <ele>773</ele>
        <time>2022-04-05T16:47:44Z</time>
      </trkpt>
      <trkpt lat="47.91762" lon="6.63409">
        <ele>773</ele>
        <time>2022-04-05T16:47:46Z</time>
      </trkpt>
      <trkpt lat="47.91764" lon="6.63413">
        <ele>773</ele>
        <time>2022-04-05T16:47:47Z</time>
      </trkpt>
      <trkpt lat="47.91771" lon="6.63415">
        <ele>774</ele>
        <time>2022-04-05T16:47:48Z</time>
      </trkpt>
      <trkpt lat="47.91774" lon="6.63405">
        <ele>774</ele>
        <time>2022-04-05T16:47:49Z</time>
      </trkpt>
      <trkpt lat="47.9179" lon="6.63338">
        <ele>776</ele>
        <time>2022-04-05T16:47:58Z</time>
      </trkpt>
      <trkpt lat="47.91806" lon="6.63308">
        <ele>777</ele>
        <time>2022-04-05T16:48:02Z</time>
      </trkpt>
      <trkpt lat="47.91843" lon="6.63269">
        <ele>780</ele>
        <time>2022-04-05T16:48:11Z</time>
      </trkpt>
      <trkpt lat="47.91959" lon="6.63156">
        <ele>788</ele>
        <time>2022-04-05T16:48:35Z</time>
      </trkpt>
      <trkpt lat="47.91998" lon="6.63131">
        <ele>793</ele>
        <time>2022-04-05T16:48:43Z</time>
      </trkpt>
      <trkpt lat="47.92145" lon="6.6309">
        <ele>798</ele>
        <time>2022-04-05T16:49:09Z</time>
      </trkpt>
      <trkpt lat="47.92224" lon="6.63066">
        <ele>802</ele>
        <time>2022-04-05T16:49:24Z</time>
      </trkpt>
      <trkpt lat="47.92248" lon="6.63048">
        <ele>804</ele>
        <time>2022-04-05T16:49:28Z</time>
      </trkpt>
      <trkpt lat="47.9227" lon="6.63024">
        <ele>805</ele>
        <time>2022-04-05T16:49:33Z</time>
      </trkpt>
      <trkpt lat="47.92318" lon="6.62953">
        <ele>808</ele>
        <time>2022-04-05T16:49:45Z</time>
      </trkpt>
      <trkpt lat="47.9264" lon="6.62363">
        <ele>814</ele>
        <time>2022-04-05T16:51:16Z</time>
      </trkpt>
      <trkpt lat="47.92681" lon="6.62291">
        <ele>814</ele>
        <time>2022-04-05T16:51:27Z</time>
      </trkpt>
      <trkpt lat="47.92854" lon="6.62067">
        <ele>813</ele>
        <time>2022-04-05T16:52:08Z</time>
      </trkpt>
      <trkpt lat="47.92901" lon="6.61991">
        <ele>813</ele>
        <time>2022-04-05T16:52:20Z</time>
      </trkpt>
      <trkpt lat="47.92922" lon="6.61954">
        <ele>812</ele>
        <time>2022-04-05T16:52:26Z</time>
      </trkpt>
      <trkpt lat="47.92954" lon="6.61892">
        <ele>809</ele>
        <time>2022-04-05T16:52:36Z</time>
      </trkpt>
      <trkpt lat="47.92964" lon="6.61844">
        <ele>810</ele>
        <time>2022-04-05T16:52:42Z</time>
      </trkpt>
      <trkpt lat="47.92978" lon="6.61806">
        <ele>808</ele>
        <time>2022-04-05T16:52:47Z</time>
      </trkpt>
      <trkpt lat="47.92997" lon="6.61769">
        <ele>806</ele>
        <time>2022-04-05T16:52:52Z</time>
      </trkpt>
      <trkpt lat="47.93032" lon="6.61742">
        <ele>805</ele>
        <time>2022-04-05T16:52:59Z</time>
      </trkpt>
      <trkpt lat="47.93093" lon="6.61718">
        <ele>801</ele>
        <time>2022-04-05T16:53:11Z</time>
      </trkpt>
      <trkpt lat="47.93127" lon="6.61695">
        <ele>799</ele>
        <time>2022-04-05T16:53:17Z</time>
      </trkpt>
      <trkpt lat="47.93154" lon="6.61661">
        <ele>797</ele>
        <time>2022-04-05T16:53:23Z</time>
      </trkpt>
      <trkpt lat="47.93187" lon="6.61605">
        <ele>797</ele>
        <time>2022-04-05T16:53:32Z</time>
      </trkpt>
      <trkpt lat="47.93227" lon="6.6153">
        <ele>798</ele>
        <time>2022-04-05T16:53:44Z</time>
      </trkpt>
      <trkpt lat="47.93245" lon="6.61484">
        <ele>800</ele>
        <time>2022-04-05T16:53:50Z</time>
      </trkpt>
      <trkpt lat="47.93283" lon="6.61349">
        <ele>799</ele>
        <time>2022-04-05T16:54:08Z</time>
      </trkpt>
      <trkpt lat="47.93292" lon="6.61298">
        <ele>800</ele>
        <time>2022-04-05T16:54:14Z</time>
      </trkpt>
      <trkpt lat="47.93293" lon="6.61241">
        <ele>801</ele>
        <time>2022-04-05T16:54:21Z</time>
      </trkpt>
      <trkpt lat="47.93284" lon="6.60958">
        <ele>801</ele>
        <time>2022-04-05T16:54:54Z</time>
      </trkpt>
      <trkpt lat="47.93286" lon="6.60934">
        <ele>800</ele>
        <time>2022-04-05T16:54:57Z</time>
      </trkpt>
      <trkpt lat="47.9329" lon="6.60916">
        <ele>799</ele>
        <time>2022-04-05T16:55:00Z</time>
      </trkpt>
      <trkpt lat="47.93299" lon="6.60895">
        <ele>799</ele>
        <time>2022-04-05T16:55:03Z</time>
      </trkpt>
      <trkpt lat="47.93312" lon="6.6088">
        <ele>800</ele>
        <time>2022-04-05T16:55:05Z</time>
      </trkpt>
      <trkpt lat="47.9333" lon="6.60876">
        <ele>801</ele>
        <time>2022-04-05T16:55:09Z</time>
      </trkpt>
      <trkpt lat="47.93362" lon="6.60874">
        <ele>801</ele>
        <time>2022-04-05T16:55:14Z</time>
      </trkpt>
      <trkpt lat="47.93389" lon="6.60868">
        <ele>802</ele>
        <time>2022-04-05T16:55:19Z</time>
      </trkpt>
      <trkpt lat="47.93404" lon="6.60858">
        <ele>802</ele>
        <time>2022-04-05T16:55:22Z</time>
      </trkpt>
      <trkpt lat="47.93412" lon="6.60845">
        <ele>802</ele>
        <time>2022-04-05T16:55:24Z</time>
      </trkpt>
      <trkpt lat="47.93425" lon="6.60804">
        <ele>801</ele>
        <time>2022-04-05T16:55:30Z</time>
      </trkpt>
      <trkpt lat="47.93434" lon="6.6079">
        <ele>801</ele>
        <time>2022-04-05T16:55:32Z</time>
      </trkpt>
      <trkpt lat="47.9346" lon="6.60774">
        <ele>799</ele>
        <time>2022-04-05T16:55:37Z</time>
      </trkpt>
      <trkpt lat="47.93491" lon="6.60764">
        <ele>797</ele>
        <time>2022-04-05T16:55:43Z</time>
      </trkpt>
      <trkpt lat="47.93513" lon="6.60758">
        <ele>795</ele>
        <time>2022-04-05T16:55:47Z</time>
      </trkpt>
      <trkpt lat="47.9353" lon="6.60758">
        <ele>794</ele>
        <time>2022-04-05T16:55:50Z</time>
      </trkpt>
      <trkpt lat="47.93568" lon="6.60774">
        <ele>792</ele>
        <time>2022-04-05T16:55:57Z</time>
      </trkpt>
      <trkpt lat="47.93595" lon="6.6079">
        <ele>792</ele>
        <time>2022-04-05T16:56:02Z</time>
      </trkpt>
      <trkpt lat="47.93616" lon="6.60805">
        <ele>794</ele>
        <time>2022-04-05T16:56:06Z</time>
      </trkpt>
      <trkpt lat="47.93652" lon="6.60835">
        <ele>798</ele>
        <time>2022-04-05T16:56:13Z</time>
      </trkpt>
      <trkpt lat="47.93831" lon="6.60957">
        <ele>803</ele>
        <time>2022-04-05T16:56:48Z</time>
      </trkpt>
      <trkpt lat="47.9386" lon="6.60972">
        <ele>803</ele>
        <time>2022-04-05T16:56:54Z</time>
      </trkpt>
      <trkpt lat="47.93886" lon="6.60976">
        <ele>804</ele>
        <time>2022-04-05T16:56:58Z</time>
      </trkpt>
      <trkpt lat="47.93906" lon="6.60971">
        <ele>804</ele>
        <time>2022-04-05T16:57:02Z</time>
      </trkpt>
      <trkpt lat="47.93944" lon="6.60939">
        <ele>806</ele>
        <time>2022-04-05T16:57:10Z</time>
      </trkpt>
      <trkpt lat="47.94014" lon="6.60889">
        <ele>809</ele>
        <time>2022-04-05T16:57:24Z</time>
      </trkpt>
      <trkpt lat="47.94089" lon="6.60843">
        <ele>813</ele>
        <time>2022-04-05T16:57:38Z</time>
      </trkpt>
      <trkpt lat="47.94119" lon="6.60816">
        <ele>813</ele>
        <time>2022-04-05T16:57:44Z</time>
      </trkpt>
      <trkpt lat="47.94205" lon="6.60685">
        <ele>806</ele>
        <time>2022-04-05T16:58:06Z</time>
      </trkpt>
      <trkpt lat="47.94218" lon="6.60655">
        <ele>805</ele>
        <time>2022-04-05T16:58:10Z</time>
      </trkpt>
      <trkpt lat="47.94239" lon="6.60596">
        <ele>806</ele>
        <time>2022-04-05T16:58:18Z</time>
      </trkpt>
      <trkpt lat="47.94265" lon="6.60553">
        <ele>803</ele>
        <time>2022-04-05T16:58:25Z</time>
      </trkpt>
      <trkpt lat="47.94292" lon="6.60491">
        <ele>798</ele>
        <time>2022-04-05T16:58:34Z</time>
      </trkpt>
      <trkpt lat="47.94303" lon="6.60478">
        <ele>796</ele>
        <time>2022-04-05T16:58:37Z</time>
      </trkpt>
      <trkpt lat="47.94312" lon="6.60476">
        <ele>795</ele>
        <time>2022-04-05T16:58:38Z</time>
      </trkpt>
      <trkpt lat="47.9432" lon="6.6048">
        <ele>794</ele>
        <time>2022-04-05T16:58:40Z</time>
      </trkpt>
      <trkpt lat="47.94331" lon="6.60496">
        <ele>793</ele>
        <time>2022-04-05T16:58:42Z</time>
      </trkpt>
      <trkpt lat="47.94338" lon="6.6051">
        <ele>792</ele>
        <time>2022-04-05T16:58:45Z</time>
      </trkpt>
      <trkpt lat="47.94343" lon="6.60526">
        <ele>791</ele>
        <time>2022-04-05T16:58:47Z</time>
      </trkpt>
      <trkpt lat="47.94346" lon="6.6055">
        <ele>790</ele>
        <time>2022-04-05T16:58:50Z</time>
      </trkpt>
      <trkpt lat="47.94346" lon="6.60592">
        <ele>789</ele>
        <time>2022-04-05T16:58:55Z</time>
      </trkpt>
      <trkpt lat="47.94336" lon="6.6065">
        <ele>786</ele>
        <time>2022-04-05T16:59:02Z</time>
      </trkpt>
      <trkpt lat="47.94337" lon="6.60664">
        <ele>785</ele>
        <time>2022-04-05T16:59:03Z</time>
      </trkpt>
      <trkpt lat="47.94344" lon="6.60677">
        <ele>783</ele>
        <time>2022-04-05T16:59:05Z</time>
      </trkpt>
      <trkpt lat="47.94353" lon="6.60681">
        <ele>781</ele>
        <time>2022-04-05T16:59:07Z</time>
      </trkpt>
      <trkpt lat="47.94369" lon="6.60678">
        <ele>778</ele>
        <time>2022-04-05T16:59:10Z</time>
      </trkpt>
      <trkpt lat="47.94374" lon="6.60672">
        <ele>777</ele>
        <time>2022-04-05T16:59:11Z</time>
      </trkpt>
      <trkpt lat="47.94378" lon="6.60664">
        <ele>777</ele>
        <time>2022-04-05T16:59:12Z</time>
      </trkpt>
      <trkpt lat="47.9438" lon="6.60655">
        <ele>776</ele>
        <time>2022-04-05T16:59:13Z</time>
      </trkpt>
      <trkpt lat="47.94378" lon="6.60591">
        <ele>779</ele>
        <time>2022-04-05T16:59:21Z</time>
      </trkpt>
      <trkpt lat="47.94379" lon="6.60563">
        <ele>779</ele>
        <time>2022-04-05T16:59:24Z</time>
      </trkpt>
      <trkpt lat="47.94384" lon="6.60549">
        <ele>778</ele>
        <time>2022-04-05T16:59:26Z</time>
      </trkpt>
      <trkpt lat="47.94394" lon="6.60498">
        <ele>777</ele>
        <time>2022-04-05T16:59:33Z</time>
      </trkpt>
      <trkpt lat="47.94416" lon="6.6035">
        <ele>772</ele>
        <time>2022-04-05T16:59:51Z</time>
      </trkpt>
      <trkpt lat="47.94438" lon="6.60283">
        <ele>766</ele>
        <time>2022-04-05T17:00:00Z</time>
      </trkpt>
      <trkpt lat="47.9444" lon="6.60225">
        <ele>765</ele>
        <time>2022-04-05T17:00:06Z</time>
      </trkpt>
      <trkpt lat="47.94438" lon="6.60174">
        <ele>765</ele>
        <time>2022-04-05T17:00:13Z</time>
      </trkpt>
      <trkpt lat="47.94443" lon="6.60138">
        <ele>762</ele>
        <time>2022-04-05T17:00:17Z</time>
      </trkpt>
      <trkpt lat="47.9445" lon="6.60114">
        <ele>760</ele>
        <time>2022-04-05T17:00:20Z</time>
      </trkpt>
      <trkpt lat="47.94467" lon="6.60088">
        <ele>758</ele>
        <time>2022-04-05T17:00:24Z</time>
      </trkpt>
      <trkpt lat="47.94509" lon="6.60035">
        <ele>758</ele>
        <time>2022-04-05T17:00:34Z</time>
      </trkpt>
      <trkpt lat="47.94631" lon="6.59875">
        <ele>756</ele>
        <time>2022-04-05T17:01:03Z</time>
      </trkpt>
      <trkpt lat="47.94682" lon="6.59818">
        <ele>755</ele>
        <time>2022-04-05T17:01:14Z</time>
      </trkpt>
      <trkpt lat="47.94734" lon="6.59746">
        <ele>751</ele>
        <time>2022-04-05T17:01:27Z</time>
      </trkpt>
      <trkpt lat="47.94778" lon="6.59676">
        <ele>743</ele>
        <time>2022-04-05T17:01:38Z</time>
      </trkpt>
      <trkpt lat="47.948" lon="6.596">
        <ele>739</ele>
        <time>2022-04-05T17:01:48Z</time>
      </trkpt>
      <trkpt lat="47.94816" lon="6.59484">
        <ele>739</ele>
        <time>2022-04-05T17:02:02Z</time>
      </trkpt>
      <trkpt lat="47.94815" lon="6.59397">
        <ele>738</ele>
        <time>2022-04-05T17:02:13Z</time>
      </trkpt>
      <trkpt lat="47.94806" lon="6.59327">
        <ele>739</ele>
        <time>2022-04-05T17:02:21Z</time>
      </trkpt>
      <trkpt lat="47.94809" lon="6.5931">
        <ele>737</ele>
        <time>2022-04-05T17:02:23Z</time>
      </trkpt>
      <trkpt lat="47.94823" lon="6.59296">
        <ele>732</ele>
        <time>2022-04-05T17:02:26Z</time>
      </trkpt>
      <trkpt lat="47.94835" lon="6.59384">
        <ele>732</ele>
        <time>2022-04-05T17:02:37Z</time>
      </trkpt>
      <trkpt lat="47.9484" lon="6.59396">
        <ele>731</ele>
        <time>2022-04-05T17:02:39Z</time>
      </trkpt>
      <trkpt lat="47.94858" lon="6.59414">
        <ele>728</ele>
        <time>2022-04-05T17:02:43Z</time>
      </trkpt>
      <trkpt lat="47.94866" lon="6.59418">
        <ele>727</ele>
        <time>2022-04-05T17:02:44Z</time>
      </trkpt>
      <trkpt lat="47.94932" lon="6.59407">
        <ele>718</ele>
        <time>2022-04-05T17:02:56Z</time>
      </trkpt>
      <trkpt lat="47.94955" lon="6.59406">
        <ele>719</ele>
        <time>2022-04-05T17:03:00Z</time>
      </trkpt>
      <trkpt lat="47.94975" lon="6.5941">
        <ele>719</ele>
        <time>2022-04-05T17:03:04Z</time>
      </trkpt>
      <trkpt lat="47.94986" lon="6.59419">
        <ele>720</ele>
        <time>2022-04-05T17:03:06Z</time>
      </trkpt>
      <trkpt lat="47.95007" lon="6.59451">
        <ele>722</ele>
        <time>2022-04-05T17:03:11Z</time>
      </trkpt>
      <trkpt lat="47.95066" lon="6.59564">
        <ele>730</ele>
        <time>2022-04-05T17:03:28Z</time>
      </trkpt>
      <trkpt lat="47.95079" lon="6.59584">
        <ele>732</ele>
        <time>2022-04-05T17:03:32Z</time>
      </trkpt>
      <trkpt lat="47.95093" lon="6.59602">
        <ele>732</ele>
        <time>2022-04-05T17:03:35Z</time>
      </trkpt>
      <trkpt lat="47.95146" lon="6.59654">
        <ele>732</ele>
        <time>2022-04-05T17:03:46Z</time>
      </trkpt>
      <trkpt lat="47.952" lon="6.59717">
        <ele>731</ele>
        <time>2022-04-05T17:03:58Z</time>
      </trkpt>
      <trkpt lat="47.95212" lon="6.59729">
        <ele>731</ele>
        <time>2022-04-05T17:04:01Z</time>
      </trkpt>
      <trkpt lat="47.95222" lon="6.59747">
        <ele>730</ele>
        <time>2022-04-05T17:04:04Z</time>
      </trkpt>
      <trkpt lat="47.9523" lon="6.5977">
        <ele>730</ele>
        <time>2022-04-05T17:04:07Z</time>
      </trkpt>
      <trkpt lat="47.95236" lon="6.59782">
        <ele>730</ele>
        <time>2022-04-05T17:04:09Z</time>
      </trkpt>
      <trkpt lat="47.95242" lon="6.59816">
        <ele>731</ele>
        <time>2022-04-05T17:04:13Z</time>
      </trkpt>
      <trkpt lat="47.9525" lon="6.59876">
        <ele>732</ele>
        <time>2022-04-05T17:04:20Z</time>
      </trkpt>
      <trkpt lat="47.95257" lon="6.59892">
        <ele>731</ele>
        <time>2022-04-05T17:04:22Z</time>
      </trkpt>
      <trkpt lat="47.95285" lon="6.59929">
        <ele>730</ele>
        <time>2022-04-05T17:04:29Z</time>
      </trkpt>
      <trkpt lat="47.95343" lon="6.59987">
        <ele>727</ele>
        <time>2022-04-05T17:04:41Z</time>
      </trkpt>
      <trkpt lat="47.95384" lon="6.60015">
        <ele>722</ele>
        <time>2022-04-05T17:04:49Z</time>
      </trkpt>
      <trkpt lat="47.95411" lon="6.60042">
        <ele>719</ele>
        <time>2022-04-05T17:04:55Z</time>
      </trkpt>
      <trkpt lat="47.95422" lon="6.6005">
        <ele>717</ele>
        <time>2022-04-05T17:04:57Z</time>
      </trkpt>
      <trkpt lat="47.95475" lon="6.60127">
        <ele>712</ele>
        <time>2022-04-05T17:05:11Z</time>
      </trkpt>
      <trkpt lat="47.95485" lon="6.60139">
        <ele>712</ele>
        <time>2022-04-05T17:05:13Z</time>
      </trkpt>
      <trkpt lat="47.95513" lon="6.60166">
        <ele>709</ele>
        <time>2022-04-05T17:05:19Z</time>
      </trkpt>
      <trkpt lat="47.95531" lon="6.60193">
        <ele>705</ele>
        <time>2022-04-05T17:05:23Z</time>
      </trkpt>
      <trkpt lat="47.95559" lon="6.60243">
        <ele>699</ele>
        <time>2022-04-05T17:05:31Z</time>
      </trkpt>
      <trkpt lat="47.95618" lon="6.60332">
        <ele>696</ele>
        <time>2022-04-05T17:05:46Z</time>
      </trkpt>
      <trkpt lat="47.95629" lon="6.60342">
        <ele>696</ele>
        <time>2022-04-05T17:05:48Z</time>
      </trkpt>
      <trkpt lat="47.95643" lon="6.60349">
        <ele>695</ele>
        <time>2022-04-05T17:05:51Z</time>
      </trkpt>
      <trkpt lat="47.95723" lon="6.60367">
        <ele>699</ele>
        <time>2022-04-05T17:06:05Z</time>
      </trkpt>
      <trkpt lat="47.95778" lon="6.60367">
        <ele>701</ele>
        <time>2022-04-05T17:06:15Z</time>
      </trkpt>
      <trkpt lat="47.95831" lon="6.60377">
        <ele>701</ele>
        <time>2022-04-05T17:06:25Z</time>
      </trkpt>
      <trkpt lat="47.95872" lon="6.60379">
        <ele>701</ele>
        <time>2022-04-05T17:06:32Z</time>
      </trkpt>
      <trkpt lat="47.95986" lon="6.60378">
        <ele>703</ele>
        <time>2022-04-05T17:06:52Z</time>
      </trkpt>
      <trkpt lat="47.96003" lon="6.60372">
        <ele>705</ele>
        <time>2022-04-05T17:06:55Z</time>
      </trkpt>
      <trkpt lat="47.96012" lon="6.60365">
        <ele>706</ele>
        <time>2022-04-05T17:06:57Z</time>
      </trkpt>
      <trkpt lat="47.96021" lon="6.60354">
        <ele>708</ele>
        <time>2022-04-05T17:06:59Z</time>
      </trkpt>
      <trkpt lat="47.96053" lon="6.60299">
        <ele>716</ele>
        <time>2022-04-05T17:07:08Z</time>
      </trkpt>
      <trkpt lat="47.9608" lon="6.6024">
        <ele>721</ele>
        <time>2022-04-05T17:07:16Z</time>
      </trkpt>
      <trkpt lat="47.9609" lon="6.60199">
        <ele>723</ele>
        <time>2022-04-05T17:07:22Z</time>
      </trkpt>
      <trkpt lat="47.96104" lon="6.60163">
        <ele>725</ele>
        <time>2022-04-05T17:07:27Z</time>
      </trkpt>
      <trkpt lat="47.96113" lon="6.60121">
        <ele>727</ele>
        <time>2022-04-05T17:07:32Z</time>
      </trkpt>
      <trkpt lat="47.96118" lon="6.60088">
        <ele>728</ele>
        <time>2022-04-05T17:07:36Z</time>
      </trkpt>
      <trkpt lat="47.96134" lon="6.60028">
        <ele>728</ele>
        <time>2022-04-05T17:07:43Z</time>
      </trkpt>
      <trkpt lat="47.96149" lon="6.59993">
        <ele>729</ele>
        <time>2022-04-05T17:07:48Z</time>
      </trkpt>
      <trkpt lat="47.96174" lon="6.5995">
        <ele>731</ele>
        <time>2022-04-05T17:07:55Z</time>
      </trkpt>
      <trkpt lat="47.96184" lon="6.59944">
        <ele>732</ele>
        <time>2022-04-05T17:07:57Z</time>
      </trkpt>
      <trkpt lat="47.96196" lon="6.59939">
        <ele>732</ele>
        <time>2022-04-05T17:07:59Z</time>
      </trkpt>
      <trkpt lat="47.96217" lon="6.59945">
        <ele>734</ele>
        <time>2022-04-05T17:08:03Z</time>
      </trkpt>
      <trkpt lat="47.9624" lon="6.59962">
        <ele>736</ele>
        <time>2022-04-05T17:08:08Z</time>
      </trkpt>
      <trkpt lat="47.96256" lon="6.5999">
        <ele>738</ele>
        <time>2022-04-05T17:08:12Z</time>
      </trkpt>
      <trkpt lat="47.96267" lon="6.6002">
        <ele>739</ele>
        <time>2022-04-05T17:08:16Z</time>
      </trkpt>
      <trkpt lat="47.96272" lon="6.60039">
        <ele>740</ele>
        <time>2022-04-05T17:08:19Z</time>
      </trkpt>
      <trkpt lat="47.96286" lon="6.60075">
        <ele>743</ele>
        <time>2022-04-05T17:08:24Z</time>
      </trkpt>
      <trkpt lat="47.96299" lon="6.60101">
        <ele>744</ele>
        <time>2022-04-05T17:08:27Z</time>
      </trkpt>
      <trkpt lat="47.96305" lon="6.60118">
        <ele>744</ele>
        <time>2022-04-05T17:08:30Z</time>
      </trkpt>
      <trkpt lat="47.96325" lon="6.60154">
        <ele>746</ele>
        <time>2022-04-05T17:08:35Z</time>
      </trkpt>
      <trkpt lat="47.96338" lon="6.60183">
        <ele>747</ele>
        <time>2022-04-05T17:08:39Z</time>
      </trkpt>
      <trkpt lat="47.96342" lon="6.60199">
        <ele>747</ele>
        <time>2022-04-05T17:08:42Z</time>
      </trkpt>
      <trkpt lat="47.96354" lon="6.60229">
        <ele>746</ele>
        <time>2022-04-05T17:08:46Z</time>
      </trkpt>
      <trkpt lat="47.96361" lon="6.6024">
        <ele>746</ele>
        <time>2022-04-05T17:08:47Z</time>
      </trkpt>
      <trkpt lat="47.96386" lon="6.60267">
        <ele>745</ele>
        <time>2022-04-05T17:08:53Z</time>
      </trkpt>
      <trkpt lat="47.96414" lon="6.60287">
        <ele>744</ele>
        <time>2022-04-05T17:08:58Z</time>
      </trkpt>
      <trkpt lat="47.96449" lon="6.60301">
        <ele>741</ele>
        <time>2022-04-05T17:09:05Z</time>
      </trkpt>
      <trkpt lat="47.96468" lon="6.60297">
        <ele>738</ele>
        <time>2022-04-05T17:09:08Z</time>
      </trkpt>
      <trkpt lat="47.96482" lon="6.60289">
        <ele>735</ele>
        <time>2022-04-05T17:09:11Z</time>
      </trkpt>
      <trkpt lat="47.96495" lon="6.60278">
        <ele>733</ele>
        <time>2022-04-05T17:09:14Z</time>
      </trkpt>
      <trkpt lat="47.96508" lon="6.60271">
        <ele>731</ele>
        <time>2022-04-05T17:09:16Z</time>
      </trkpt>
      <trkpt lat="47.9653" lon="6.6025">
        <ele>728</ele>
        <time>2022-04-05T17:09:21Z</time>
      </trkpt>
      <trkpt lat="47.96556" lon="6.60199">
        <ele>720</ele>
        <time>2022-04-05T17:09:28Z</time>
      </trkpt>
      <trkpt lat="47.96579" lon="6.60179">
        <ele>717</ele>
        <time>2022-04-05T17:09:33Z</time>
      </trkpt>
      <trkpt lat="47.9659" lon="6.60174">
        <ele>717</ele>
        <time>2022-04-05T17:09:35Z</time>
      </trkpt>
      <trkpt lat="47.96636" lon="6.60142">
        <ele>714</ele>
        <time>2022-04-05T17:09:44Z</time>
      </trkpt>
      <trkpt lat="47.96709" lon="6.60115">
        <ele>710</ele>
        <time>2022-04-05T17:09:58Z</time>
      </trkpt>
      <trkpt lat="47.96746" lon="6.60086">
        <ele>707</ele>
        <time>2022-04-05T17:10:05Z</time>
      </trkpt>
      <trkpt lat="47.96747" lon="6.6009">
        <ele>707</ele>
        <time>2022-04-05T17:10:06Z</time>
      </trkpt>
      <trkpt lat="47.96746" lon="6.601">
        <ele>707</ele>
        <time>2022-04-05T17:10:07Z</time>
      </trkpt>
      <trkpt lat="47.96743" lon="6.60107">
        <ele>707</ele>
        <time>2022-04-05T17:10:08Z</time>
      </trkpt>
      <trkpt lat="47.96735" lon="6.60196">
        <ele>709</ele>
        <time>2022-04-05T17:10:18Z</time>
      </trkpt>
      <trkpt lat="47.96743" lon="6.60219">
        <ele>708</ele>
        <time>2022-04-05T17:10:22Z</time>
      </trkpt>
      <trkpt lat="47.96756" lon="6.60238">
        <ele>707</ele>
        <time>2022-04-05T17:10:25Z</time>
      </trkpt>
      <trkpt lat="47.96771" lon="6.60256">
        <ele>706</ele>
        <time>2022-04-05T17:10:28Z</time>
      </trkpt>
      <trkpt lat="47.9678" lon="6.60258">
        <ele>704</ele>
        <time>2022-04-05T17:10:30Z</time>
      </trkpt>
      <trkpt lat="47.96786" lon="6.60256">
        <ele>704</ele>
        <time>2022-04-05T17:10:31Z</time>
      </trkpt>
      <trkpt lat="47.96795" lon="6.60246">
        <ele>703</ele>
        <time>2022-04-05T17:10:33Z</time>
      </trkpt>
      <trkpt lat="47.96815" lon="6.60204">
        <ele>701</ele>
        <time>2022-04-05T17:10:39Z</time>
      </trkpt>
      <trkpt lat="47.96835" lon="6.60191">
        <ele>700</ele>
        <time>2022-04-05T17:10:43Z</time>
      </trkpt>
      <trkpt lat="47.9685" lon="6.6019">
        <ele>700</ele>
        <time>2022-04-05T17:10:46Z</time>
      </trkpt>
      <trkpt lat="47.96862" lon="6.60195">
        <ele>699</ele>
        <time>2022-04-05T17:10:48Z</time>
      </trkpt>
      <trkpt lat="47.96875" lon="6.60207">
        <ele>698</ele>
        <time>2022-04-05T17:10:51Z</time>
      </trkpt>
      <trkpt lat="47.96889" lon="6.60224">
        <ele>695</ele>
        <time>2022-04-05T17:10:54Z</time>
      </trkpt>
      <trkpt lat="47.96919" lon="6.60282">
        <ele>687</ele>
        <time>2022-04-05T17:11:02Z</time>
      </trkpt>
      <trkpt lat="47.96925" lon="6.6029">
        <ele>686</ele>
        <time>2022-04-05T17:11:04Z</time>
      </trkpt>
      <trkpt lat="47.96935" lon="6.60293">
        <ele>684</ele>
        <time>2022-04-05T17:11:06Z</time>
      </trkpt>
      <trkpt lat="47.96941" lon="6.60292">
        <ele>684</ele>
        <time>2022-04-05T17:11:07Z</time>
      </trkpt>
      <trkpt lat="47.96965" lon="6.60278">
        <ele>682</ele>
        <time>2022-04-05T17:11:11Z</time>
      </trkpt>
      <trkpt lat="47.96984" lon="6.60275">
        <ele>679</ele>
        <time>2022-04-05T17:11:15Z</time>
      </trkpt>
      <trkpt lat="47.96999" lon="6.60284">
        <ele>676</ele>
        <time>2022-04-05T17:11:18Z</time>
      </trkpt>
      <trkpt lat="47.97026" lon="6.60309">
        <ele>674</ele>
        <time>2022-04-05T17:11:23Z</time>
      </trkpt>
      <trkpt lat="47.97056" lon="6.60402">
        <ele>666</ele>
        <time>2022-04-05T17:11:36Z</time>
      </trkpt>
      <trkpt lat="47.97067" lon="6.60425">
        <ele>663</ele>
        <time>2022-04-05T17:11:39Z</time>
      </trkpt>
      <trkpt lat="47.97076" lon="6.60437">
        <ele>662</ele>
        <time>2022-04-05T17:11:41Z</time>
      </trkpt>
      <trkpt lat="47.97125" lon="6.60474">
        <ele>654</ele>
        <time>2022-04-05T17:11:51Z</time>
      </trkpt>
      <trkpt lat="47.97131" lon="6.60489">
        <ele>652</ele>
        <time>2022-04-05T17:11:53Z</time>
      </trkpt>
      <trkpt lat="47.97133" lon="6.60506">
        <ele>651</ele>
        <time>2022-04-05T17:11:55Z</time>
      </trkpt>
      <trkpt lat="47.97127" lon="6.60552">
        <ele>651</ele>
        <time>2022-04-05T17:12:01Z</time>
      </trkpt>
      <trkpt lat="47.9713" lon="6.60613">
        <ele>652</ele>
        <time>2022-04-05T17:12:08Z</time>
      </trkpt>
      <trkpt lat="47.97132" lon="6.60631">
        <ele>652</ele>
        <time>2022-04-05T17:12:10Z</time>
      </trkpt>
      <trkpt lat="47.97135" lon="6.6064">
        <ele>652</ele>
        <time>2022-04-05T17:12:11Z</time>
      </trkpt>
      <trkpt lat="47.97149" lon="6.6066">
        <ele>651</ele>
        <time>2022-04-05T17:12:15Z</time>
      </trkpt>
      <trkpt lat="47.97164" lon="6.60675">
        <ele>651</ele>
        <time>2022-04-05T17:12:18Z</time>
      </trkpt>
      <trkpt lat="47.97187" lon="6.60701">
        <ele>648</ele>
        <time>2022-04-05T17:12:23Z</time>
      </trkpt>
      <trkpt lat="47.97196" lon="6.60714">
        <ele>647</ele>
        <time>2022-04-05T17:12:25Z</time>
      </trkpt>
      <trkpt lat="47.97209" lon="6.60737">
        <ele>646</ele>
        <time>2022-04-05T17:12:29Z</time>
      </trkpt>
      <trkpt lat="47.97253" lon="6.60825">
        <ele>644</ele>
        <time>2022-04-05T17:12:42Z</time>
      </trkpt>
      <trkpt lat="47.97265" lon="6.6086">
        <ele>642</ele>
        <time>2022-04-05T17:12:47Z</time>
      </trkpt>
      <trkpt lat="47.97271" lon="6.60888">
        <ele>641</ele>
        <time>2022-04-05T17:12:50Z</time>
      </trkpt>
      <trkpt lat="47.97288" lon="6.60933">
        <ele>636</ele>
        <time>2022-04-05T17:12:56Z</time>
      </trkpt>
      <trkpt lat="47.97295" lon="6.60948">
        <ele>634</ele>
        <time>2022-04-05T17:12:58Z</time>
      </trkpt>
      <trkpt lat="47.97303" lon="6.60956">
        <ele>632</ele>
        <time>2022-04-05T17:13:00Z</time>
      </trkpt>
      <trkpt lat="47.97331" lon="6.60974">
        <ele>626</ele>
        <time>2022-04-05T17:13:06Z</time>
      </trkpt>
      <trkpt lat="47.97337" lon="6.60981">
        <ele>626</ele>
        <time>2022-04-05T17:13:07Z</time>
      </trkpt>
      <trkpt lat="47.97352" lon="6.6099">
        <ele>626</ele>
        <time>2022-04-05T17:13:10Z</time>
      </trkpt>
      <trkpt lat="47.97368" lon="6.60991">
        <ele>627</ele>
        <time>2022-04-05T17:13:13Z</time>
      </trkpt>
      <trkpt lat="47.97375" lon="6.60982">
        <ele>627</ele>
        <time>2022-04-05T17:13:14Z</time>
      </trkpt>
      <trkpt lat="47.97386" lon="6.60943">
        <ele>629</ele>
        <time>2022-04-05T17:13:19Z</time>
      </trkpt>
      <trkpt lat="47.97392" lon="6.60899">
        <ele>630</ele>
        <time>2022-04-05T17:13:25Z</time>
      </trkpt>
      <trkpt lat="47.97404" lon="6.60832">
        <ele>631</ele>
        <time>2022-04-05T17:13:33Z</time>
      </trkpt>
      <trkpt lat="47.97426" lon="6.60763">
        <ele>627</ele>
        <time>2022-04-05T17:13:42Z</time>
      </trkpt>
      <trkpt lat="47.97482" lon="6.60641">
        <ele>621</ele>
        <time>2022-04-05T17:14:00Z</time>
      </trkpt>
      <trkpt lat="47.97507" lon="6.6062">
        <ele>618</ele>
        <time>2022-04-05T17:14:05Z</time>
      </trkpt>
      <trkpt lat="47.97518" lon="6.60618">
        <ele>616</ele>
        <time>2022-04-05T17:14:07Z</time>
      </trkpt>
      <trkpt lat="47.9754" lon="6.60618">
        <ele>614</ele>
        <time>2022-04-05T17:14:11Z</time>
      </trkpt>
      <trkpt lat="47.97552" lon="6.60615">
        <ele>612</ele>
        <time>2022-04-05T17:14:13Z</time>
      </trkpt>
      <trkpt lat="47.9767" lon="6.60558">
        <ele>596</ele>
        <time>2022-04-05T17:14:35Z</time>
      </trkpt>
      <trkpt lat="47.97723" lon="6.60506">
        <ele>591</ele>
        <time>2022-04-05T17:14:46Z</time>
      </trkpt>
      <trkpt lat="47.97745" lon="6.60489">
        <ele>587</ele>
        <time>2022-04-05T17:14:51Z</time>
      </trkpt>
      <trkpt lat="47.97782" lon="6.60475">
        <ele>582</ele>
        <time>2022-04-05T17:14:57Z</time>
      </trkpt>
      <trkpt lat="47.97801" lon="6.60475">
        <ele>581</ele>
        <time>2022-04-05T17:15:01Z</time>
      </trkpt>
      <trkpt lat="47.97849" lon="6.60488">
        <ele>576</ele>
        <time>2022-04-05T17:15:09Z</time>
      </trkpt>
      <trkpt lat="47.97941" lon="6.60489">
        <ele>570</ele>
        <time>2022-04-05T17:15:26Z</time>
      </trkpt>
      <trkpt lat="47.97963" lon="6.60483">
        <ele>569</ele>
        <time>2022-04-05T17:15:30Z</time>
      </trkpt>
      <trkpt lat="47.98" lon="6.60468">
        <ele>568</ele>
        <time>2022-04-05T17:15:37Z</time>
      </trkpt>
      <trkpt lat="47.98018" lon="6.60466">
        <ele>566</ele>
        <time>2022-04-05T17:15:40Z</time>
      </trkpt>
      <trkpt lat="47.98042" lon="6.60468">
        <ele>565</ele>
        <time>2022-04-05T17:15:44Z</time>
      </trkpt>
      <trkpt lat="47.98058" lon="6.60464">
        <ele>563</ele>
        <time>2022-04-05T17:15:47Z</time>
      </trkpt>
      <trkpt lat="47.98101" lon="6.60436">
        <ele>554</ele>
        <time>2022-04-05T17:15:55Z</time>
      </trkpt>
      <trkpt lat="47.98119" lon="6.6043">
        <ele>550</ele>
        <time>2022-04-05T17:15:59Z</time>
      </trkpt>
      <trkpt lat="47.98137" lon="6.60429">
        <ele>546</ele>
        <time>2022-04-05T17:16:02Z</time>
      </trkpt>
      <trkpt lat="47.98167" lon="6.6044">
        <ele>540</ele>
        <time>2022-04-05T17:16:07Z</time>
      </trkpt>
      <trkpt lat="47.98205" lon="6.60446">
        <ele>537</ele>
        <time>2022-04-05T17:16:14Z</time>
      </trkpt>
      <trkpt lat="47.98234" lon="6.60446">
        <ele>534</ele>
        <time>2022-04-05T17:16:19Z</time>
      </trkpt>
      <trkpt lat="47.98266" lon="6.60449">
        <ele>532</ele>
        <time>2022-04-05T17:16:25Z</time>
      </trkpt>
      <trkpt lat="47.98284" lon="6.60457">
        <ele>531</ele>
        <time>2022-04-05T17:16:28Z</time>
      </trkpt>
      <trkpt lat="47.98308" lon="6.60475">
        <ele>529</ele>
        <time>2022-04-05T17:16:33Z</time>
      </trkpt>
      <trkpt lat="47.9833" lon="6.60517">
        <ele>525</ele>
        <time>2022-04-05T17:16:39Z</time>
      </trkpt>
      <trkpt lat="47.98346" lon="6.60539">
        <ele>525</ele>
        <time>2022-04-05T17:16:43Z</time>
      </trkpt>
      <trkpt lat="47.98377" lon="6.60572">
        <ele>520</ele>
        <time>2022-04-05T17:16:50Z</time>
      </trkpt>
      <trkpt lat="47.98412" lon="6.60596">
        <ele>513</ele>
        <time>2022-04-05T17:16:57Z</time>
      </trkpt>
      <trkpt lat="47.98426" lon="6.60612">
        <ele>513</ele>
        <time>2022-04-05T17:17:00Z</time>
      </trkpt>
      <trkpt lat="47.98458" lon="6.60678">
        <ele>510</ele>
        <time>2022-04-05T17:17:10Z</time>
      </trkpt>
      <trkpt lat="47.98471" lon="6.60714">
        <ele>507</ele>
        <time>2022-04-05T17:17:15Z</time>
      </trkpt>
      <trkpt lat="47.985" lon="6.60809">
        <ele>500</ele>
        <time>2022-04-05T17:17:27Z</time>
      </trkpt>
      <trkpt lat="47.98509" lon="6.60852">
        <ele>498</ele>
        <time>2022-04-05T17:17:32Z</time>
      </trkpt>
      <trkpt lat="47.98515" lon="6.60899">
        <ele>497</ele>
        <time>2022-04-05T17:17:38Z</time>
      </trkpt>
      <trkpt lat="47.98517" lon="6.61002">
        <ele>493</ele>
        <time>2022-04-05T17:17:50Z</time>
      </trkpt>
      <trkpt lat="47.98523" lon="6.61022">
        <ele>493</ele>
        <time>2022-04-05T17:17:53Z</time>
      </trkpt>
      <trkpt lat="47.98548" lon="6.61068">
        <ele>491</ele>
        <time>2022-04-05T17:18:00Z</time>
      </trkpt>
      <trkpt lat="47.98583" lon="6.61146">
        <ele>493</ele>
        <time>2022-04-05T17:18:11Z</time>
      </trkpt>
      <trkpt lat="47.98603" lon="6.61165">
        <ele>491</ele>
        <time>2022-04-05T17:18:16Z</time>
      </trkpt>
      <trkpt lat="47.98618" lon="6.61188">
        <ele>489</ele>
        <time>2022-04-05T17:18:19Z</time>
      </trkpt>
      <trkpt lat="47.98638" lon="6.61245">
        <ele>487</ele>
        <time>2022-04-05T17:18:27Z</time>
      </trkpt>
      <trkpt lat="47.98648" lon="6.61279">
        <ele>484</ele>
        <time>2022-04-05T17:18:31Z</time>
      </trkpt>
      <trkpt lat="47.98653" lon="6.61314">
        <ele>482</ele>
        <time>2022-04-05T17:18:36Z</time>
      </trkpt>
      <trkpt lat="47.98652" lon="6.61343">
        <ele>481</ele>
        <time>2022-04-05T17:18:39Z</time>
      </trkpt>
      <trkpt lat="47.98648" lon="6.61374">
        <ele>480</ele>
        <time>2022-04-05T17:18:43Z</time>
      </trkpt>
      <trkpt lat="47.98626" lon="6.61451">
        <ele>475</ele>
        <time>2022-04-05T17:18:53Z</time>
      </trkpt>
      <trkpt lat="47.98624" lon="6.61469">
        <ele>473</ele>
        <time>2022-04-05T17:18:55Z</time>
      </trkpt>
      <trkpt lat="47.98631" lon="6.61495">
        <ele>470</ele>
        <time>2022-04-05T17:18:58Z</time>
      </trkpt>
      <trkpt lat="47.98635" lon="6.61515">
        <ele>468</ele>
        <time>2022-04-05T17:19:01Z</time>
      </trkpt>
      <trkpt lat="47.98638" lon="6.61611">
        <ele>456</ele>
        <time>2022-04-05T17:19:12Z</time>
      </trkpt>
      <trkpt lat="47.98633" lon="6.61636">
        <ele>454</ele>
        <time>2022-04-05T17:19:15Z</time>
      </trkpt>
      <trkpt lat="47.98618" lon="6.61676">
        <ele>452</ele>
        <time>2022-04-05T17:19:21Z</time>
      </trkpt>
      <trkpt lat="47.98619" lon="6.61689">
        <ele>451</ele>
        <time>2022-04-05T17:19:22Z</time>
      </trkpt>
      <trkpt lat="47.98644" lon="6.61784">
        <ele>442</ele>
        <time>2022-04-05T17:19:35Z</time>
      </trkpt>
      <trkpt lat="47.98655" lon="6.61791">
        <ele>441</ele>
        <time>2022-04-05T17:19:37Z</time>
      </trkpt>
      <trkpt lat="47.9868" lon="6.6179">
        <ele>438</ele>
        <time>2022-04-05T17:19:41Z</time>
      </trkpt>
      <trkpt lat="47.98684" lon="6.61796">
        <ele>437</ele>
        <time>2022-04-05T17:19:42Z</time>
      </trkpt>
      <trkpt lat="47.98686" lon="6.61806">
        <ele>437</ele>
        <time>2022-04-05T17:19:43Z</time>
      </trkpt>
      <trkpt lat="47.98686" lon="6.61813">
        <ele>437</ele>
        <time>2022-04-05T17:19:44Z</time>
      </trkpt>
      <trkpt lat="47.98674" lon="6.61839">
        <ele>437</ele>
        <time>2022-04-05T17:19:48Z</time>
      </trkpt>
      <trkpt lat="47.98671" lon="6.61855">
        <ele>436</ele>
        <time>2022-04-05T17:19:50Z</time>
      </trkpt>
      <trkpt lat="47.98673" lon="6.61884">
        <ele>432</ele>
        <time>2022-04-05T17:19:53Z</time>
      </trkpt>
      <trkpt lat="47.98671" lon="6.61895">
        <ele>431</ele>
        <time>2022-04-05T17:19:55Z</time>
      </trkpt>
      <trkpt lat="47.98667" lon="6.61902">
        <ele>431</ele>
        <time>2022-04-05T17:19:56Z</time>
      </trkpt>
      <trkpt lat="47.98658" lon="6.61909">
        <ele>430</ele>
        <time>2022-04-05T17:19:58Z</time>
      </trkpt>
      <trkpt lat="47.98621" lon="6.61931">
        <ele>430</ele>
        <time>2022-04-05T17:20:05Z</time>
      </trkpt>
      <trkpt lat="47.986" lon="6.61951">
        <ele>428</ele>
        <time>2022-04-05T17:20:09Z</time>
      </trkpt>
      <trkpt lat="47.98548" lon="6.62036">
        <ele>415</ele>
        <time>2022-04-05T17:20:23Z</time>
      </trkpt>
      <trkpt lat="47.9854" lon="6.62064">
        <ele>411</ele>
        <time>2022-04-05T17:20:27Z</time>
      </trkpt>
      <trkpt lat="47.98537" lon="6.62102">
        <ele>405</ele>
        <time>2022-04-05T17:20:31Z</time>
      </trkpt>
      <trkpt lat="47.98538" lon="6.62133">
        <ele>401</ele>
        <time>2022-04-05T17:20:35Z</time>
      </trkpt>
      <trkpt lat="47.98621" lon="6.62112">
        <ele>403</ele>
        <time>2022-04-05T17:20:50Z</time>
      </trkpt>
      <trkpt lat="47.98683" lon="6.62082">
        <ele>404</ele>
        <time>2022-04-05T17:21:01Z</time>
      </trkpt>
      <trkpt lat="47.98771" lon="6.62062">
        <ele>398</ele>
        <time>2022-04-05T17:21:17Z</time>
      </trkpt>
      <trkpt lat="47.98795" lon="6.62057">
        <ele>397</ele>
        <time>2022-04-05T17:21:22Z</time>
      </trkpt>
      <trkpt lat="47.98816" lon="6.62053">
        <ele>396</ele>
        <time>2022-04-05T17:21:25Z</time>
      </trkpt>
      <trkpt lat="47.98837" lon="6.62053">
        <ele>396</ele>
        <time>2022-04-05T17:21:29Z</time>
      </trkpt>
      <trkpt lat="47.9885" lon="6.62058">
        <ele>396</ele>
        <time>2022-04-05T17:21:31Z</time>
      </trkpt>
      <trkpt lat="47.98861" lon="6.62067">
        <ele>395</ele>
        <time>2022-04-05T17:21:34Z</time>
      </trkpt>
      <trkpt lat="47.9887" lon="6.62078">
        <ele>395</ele>
        <time>2022-04-05T17:21:36Z</time>
      </trkpt>
      <trkpt lat="47.98877" lon="6.6209">
        <ele>395</ele>
        <time>2022-04-05T17:21:38Z</time>
      </trkpt>
      <trkpt lat="47.98884" lon="6.62116">
        <ele>395</ele>
        <time>2022-04-05T17:21:41Z</time>
      </trkpt>
      <trkpt lat="47.9889" lon="6.62167">
        <ele>396</ele>
        <time>2022-04-05T17:21:47Z</time>
      </trkpt>
      <trkpt lat="47.98889" lon="6.62191">
        <ele>395</ele>
        <time>2022-04-05T17:21:50Z</time>
      </trkpt>
      <trkpt lat="47.98882" lon="6.62212">
        <ele>395</ele>
        <time>2022-04-05T17:21:53Z</time>
      </trkpt>
      <trkpt lat="47.98866" lon="6.62232">
        <ele>395</ele>
        <time>2022-04-05T17:21:57Z</time>
      </trkpt>
      <trkpt lat="47.98854" lon="6.62238">
        <ele>395</ele>
        <time>2022-04-05T17:21:59Z</time>
      </trkpt>
      <trkpt lat="47.98832" lon="6.62239">
        <ele>395</ele>
        <time>2022-04-05T17:22:03Z</time>
      </trkpt>
      <trkpt lat="47.98663" lon="6.62186">
        <ele>396</ele>
        <time>2022-04-05T17:22:33Z</time>
      </trkpt>
      <trkpt lat="47.98653" lon="6.62185">
        <ele>396</ele>
        <time>2022-04-05T17:22:35Z</time>
      </trkpt>
      <trkpt lat="47.98647" lon="6.62203">
        <ele>395</ele>
        <time>2022-04-05T17:22:38Z</time>
      </trkpt>
      <trkpt lat="47.98639" lon="6.62243">
        <ele>394</ele>
        <time>2022-04-05T17:22:43Z</time>
      </trkpt>
      <trkpt lat="47.98633" lon="6.6226">
        <ele>394</ele>
        <time>2022-04-05T17:22:45Z</time>
      </trkpt>
      <trkpt lat="47.98629" lon="6.62272">
        <ele>394</ele>
        <time>2022-04-05T17:22:46Z</time>
      </trkpt>
      <trkpt lat="47.98579" lon="6.62352">
        <ele>393</ele>
        <time>2022-04-05T17:22:59Z</time>
      </trkpt>
      <trkpt lat="47.98513" lon="6.62452">
        <ele>395</ele>
        <time>2022-04-05T17:23:16Z</time>
      </trkpt>
      <trkpt lat="47.98504" lon="6.62471">
        <ele>395</ele>
        <time>2022-04-05T17:23:19Z</time>
      </trkpt>
      <trkpt lat="47.98505" lon="6.62476">
        <ele>395</ele>
        <time>2022-04-05T17:23:20Z</time>
      </trkpt>
      <trkpt lat="47.98506" lon="6.62539">
        <ele>396</ele>
        <time>2022-04-05T17:23:27Z</time>
      </trkpt>
      <trkpt lat="47.98511" lon="6.62553">
        <ele>396</ele>
        <time>2022-04-05T17:23:29Z</time>
      </trkpt>
      <trkpt lat="47.9852" lon="6.62565">
        <ele>396</ele>
        <time>2022-04-05T17:23:31Z</time>
      </trkpt>
      <trkpt lat="47.98594" lon="6.62638">
        <ele>395</ele>
        <time>2022-04-05T17:23:47Z</time>
      </trkpt>
      <trkpt lat="47.98668" lon="6.627">
        <ele>393</ele>
        <time>2022-04-05T17:24:02Z</time>
      </trkpt>
      <trkpt lat="47.98687" lon="6.62712">
        <ele>394</ele>
        <time>2022-04-05T17:24:06Z</time>
      </trkpt>
      <trkpt lat="47.98734" lon="6.62735">
        <ele>394</ele>
        <time>2022-04-05T17:24:14Z</time>
      </trkpt>
      <trkpt lat="47.98746" lon="6.62744">
        <ele>394</ele>
        <time>2022-04-05T17:24:17Z</time>
      </trkpt>
      <trkpt lat="47.98761" lon="6.62763">
        <ele>395</ele>
        <time>2022-04-05T17:24:20Z</time>
      </trkpt>
      <trkpt lat="47.98774" lon="6.62783">
        <ele>396</ele>
        <time>2022-04-05T17:24:24Z</time>
      </trkpt>
      <trkpt lat="47.98786" lon="6.62808">
        <ele>397</ele>
        <time>2022-04-05T17:24:27Z</time>
      </trkpt>
      <trkpt lat="47.98813" lon="6.62876">
        <ele>399</ele>
        <time>2022-04-05T17:24:37Z</time>
      </trkpt>
      <trkpt lat="47.98829" lon="6.62927">
        <ele>400</ele>
        <time>2022-04-05T17:24:43Z</time>
      </trkpt>
      <trkpt lat="47.98864" lon="6.63046">
        <ele>402</ele>
        <time>2022-04-05T17:24:59Z</time>
      </trkpt>
      <trkpt lat="47.9888" lon="6.63077">
        <ele>401</ele>
        <time>2022-04-05T17:25:04Z</time>
      </trkpt>
      <trkpt lat="47.98895" lon="6.63097">
        <ele>399</ele>
        <time>2022-04-05T17:25:07Z</time>
      </trkpt>
      <trkpt lat="47.98914" lon="6.63115">
        <ele>397</ele>
        <time>2022-04-05T17:25:11Z</time>
      </trkpt>
      <trkpt lat="47.98964" lon="6.63152">
        <ele>397</ele>
        <time>2022-04-05T17:25:21Z</time>
      </trkpt>
      <trkpt lat="47.98985" lon="6.63172">
        <ele>398</ele>
        <time>2022-04-05T17:25:26Z</time>
      </trkpt>
      <trkpt lat="47.99003" lon="6.63186">
        <ele>398</ele>
        <time>2022-04-05T17:25:29Z</time>
      </trkpt>
      <trkpt lat="47.9903" lon="6.63201">
        <ele>397</ele>
        <time>2022-04-05T17:25:34Z</time>
      </trkpt>
      <trkpt lat="47.99067" lon="6.63208">
        <ele>396</ele>
        <time>2022-04-05T17:25:41Z</time>
      </trkpt>
      <trkpt lat="47.99072" lon="6.63202">
        <ele>396</ele>
        <time>2022-04-05T17:25:42Z</time>
      </trkpt>
      <trkpt lat="47.99087" lon="6.63196">
        <ele>396</ele>
        <time>2022-04-05T17:25:45Z</time>
      </trkpt>
      <trkpt lat="47.99185" lon="6.63199">
        <ele>394</ele>
        <time>2022-04-05T17:26:02Z</time>
      </trkpt>
      <trkpt lat="47.99224" lon="6.63195">
        <ele>394</ele>
        <time>2022-04-05T17:26:09Z</time>
      </trkpt>
      <trkpt lat="47.99245" lon="6.63197">
        <ele>393</ele>
        <time>2022-04-05T17:26:13Z</time>
      </trkpt>
      <trkpt lat="47.99386" lon="6.63255">
        <ele>392</ele>
        <time>2022-04-05T17:26:39Z</time>
      </trkpt>
      <trkpt lat="47.99415" lon="6.63269">
        <ele>392</ele>
        <time>2022-04-05T17:26:44Z</time>
      </trkpt>
      <trkpt lat="47.99522" lon="6.63333">
        <ele>393</ele>
        <time>2022-04-05T17:27:05Z</time>
      </trkpt>
      <trkpt lat="47.99569" lon="6.63356">
        <ele>392</ele>
        <time>2022-04-05T17:27:14Z</time>
      </trkpt>
      <trkpt lat="47.99575" lon="6.63361">
        <ele>392</ele>
        <time>2022-04-05T17:27:15Z</time>
      </trkpt>
      <trkpt lat="47.99581" lon="6.63371">
        <ele>392</ele>
        <time>2022-04-05T17:27:17Z</time>
      </trkpt>
      <trkpt lat="47.99604" lon="6.63419">
        <ele>394</ele>
        <time>2022-04-05T17:27:24Z</time>
      </trkpt>
      <trkpt lat="47.99657" lon="6.63511">
        <ele>396</ele>
        <time>2022-04-05T17:27:38Z</time>
      </trkpt>
      <trkpt lat="47.99682" lon="6.63563">
        <ele>396</ele>
        <time>2022-04-05T17:27:46Z</time>
      </trkpt>
      <trkpt lat="47.99743" lon="6.63698">
        <ele>396</ele>
        <time>2022-04-05T17:28:05Z</time>
      </trkpt>
      <trkpt lat="47.99783" lon="6.63796">
        <ele>396</ele>
        <time>2022-04-05T17:28:19Z</time>
      </trkpt>
      <trkpt lat="47.99789" lon="6.63817">
        <ele>396</ele>
        <time>2022-04-05T17:28:21Z</time>
      </trkpt>
      <trkpt lat="47.99791" lon="6.63835">
        <ele>397</ele>
        <time>2022-04-05T17:28:24Z</time>
      </trkpt>
      <trkpt lat="47.99791" lon="6.63849">
        <ele>397</ele>
        <time>2022-04-05T17:28:25Z</time>
      </trkpt>
      <trkpt lat="47.99778" lon="6.64072">
        <ele>400</ele>
        <time>2022-04-05T17:28:52Z</time>
      </trkpt>
      <trkpt lat="47.9978" lon="6.64093">
        <ele>401</ele>
        <time>2022-04-05T17:28:54Z</time>
      </trkpt>
      <trkpt lat="47.99801" lon="6.64178">
        <ele>400</ele>
        <time>2022-04-05T17:29:05Z</time>
      </trkpt>
      <trkpt lat="47.99832" lon="6.64287">
        <ele>401</ele>
        <time>2022-04-05T17:29:19Z</time>
      </trkpt>
      <trkpt lat="47.99853" lon="6.64401">
        <ele>402</ele>
        <time>2022-04-05T17:29:33Z</time>
      </trkpt>
      <trkpt lat="47.9986" lon="6.64473">
        <ele>402</ele>
        <time>2022-04-05T17:29:42Z</time>
      </trkpt>
      <trkpt lat="47.99872" lon="6.64708">
        <ele>402</ele>
        <time>2022-04-05T17:30:10Z</time>
      </trkpt>
      <trkpt lat="47.99877" lon="6.64735">
        <ele>402</ele>
        <time>2022-04-05T17:30:13Z</time>
      </trkpt>
      <trkpt lat="47.99889" lon="6.64768">
        <ele>401</ele>
        <time>2022-04-05T17:30:18Z</time>
      </trkpt>
      <trkpt lat="47.99918" lon="6.64825">
        <ele>398</ele>
        <time>2022-04-05T17:30:26Z</time>
      </trkpt>
      <trkpt lat="47.99957" lon="6.64887">
        <ele>399</ele>
        <time>2022-04-05T17:30:37Z</time>
      </trkpt>
      <trkpt lat="48.00051" lon="6.65042">
        <ele>399</ele>
        <time>2022-04-05T17:31:02Z</time>
      </trkpt>
      <trkpt lat="48.00075" lon="6.65088">
        <ele>399</ele>
        <time>2022-04-05T17:31:08Z</time>
      </trkpt>
      <trkpt lat="48.00087" lon="6.65114">
        <ele>397</ele>
        <time>2022-04-05T17:31:12Z</time>
      </trkpt>
      <trkpt lat="48.00152" lon="6.65278">
        <ele>395</ele>
        <time>2022-04-05T17:31:35Z</time>
      </trkpt>
      <trkpt lat="48.00167" lon="6.65315">
        <ele>395</ele>
        <time>2022-04-05T17:31:40Z</time>
      </trkpt>
      <trkpt lat="48.00176" lon="6.6533">
        <ele>396</ele>
        <time>2022-04-05T17:31:42Z</time>
      </trkpt>
      <trkpt lat="48.00187" lon="6.65344">
        <ele>396</ele>
        <time>2022-04-05T17:31:45Z</time>
      </trkpt>
      <trkpt lat="48.00242" lon="6.65389">
        <ele>396</ele>
        <time>2022-04-05T17:31:56Z</time>
      </trkpt>
      <trkpt lat="48.00258" lon="6.65394">
        <ele>396</ele>
        <time>2022-04-05T17:31:59Z</time>
      </trkpt>
      <trkpt lat="48.00321" lon="6.65385">
        <ele>398</ele>
        <time>2022-04-05T17:32:10Z</time>
      </trkpt>
      <trkpt lat="48.00332" lon="6.65386">
        <ele>399</ele>
        <time>2022-04-05T17:32:12Z</time>
      </trkpt>
      <trkpt lat="48.00342" lon="6.65389">
        <ele>399</ele>
        <time>2022-04-05T17:32:14Z</time>
      </trkpt>
      <trkpt lat="48.00355" lon="6.65398">
        <ele>399</ele>
        <time>2022-04-05T17:32:17Z</time>
      </trkpt>
      <trkpt lat="48.00388" lon="6.65429">
        <ele>399</ele>
        <time>2022-04-05T17:32:24Z</time>
      </trkpt>
      <trkpt lat="48.00423" lon="6.65457">
        <ele>400</ele>
        <time>2022-04-05T17:32:31Z</time>
      </trkpt>
      <trkpt lat="48.00469" lon="6.65502">
        <ele>401</ele>
        <time>2022-04-05T17:32:40Z</time>
      </trkpt>
      <trkpt lat="48.00451" lon="6.65564">
        <ele>402</ele>
        <time>2022-04-05T17:32:49Z</time>
      </trkpt>
      <trkpt lat="48.00428" lon="6.65602">
        <ele>403</ele>
        <time>2022-04-05T17:32:55Z</time>
      </trkpt>
      <trkpt lat="48.00408" lon="6.6563">
        <ele>405</ele>
        <time>2022-04-05T17:32:59Z</time>
      </trkpt>
      <trkpt lat="48.00364" lon="6.65657">
        <ele>407</ele>
        <time>2022-04-05T17:33:08Z</time>
      </trkpt>
      <trkpt lat="48.00334" lon="6.65737">
        <ele>416</ele>
        <time>2022-04-05T17:33:19Z</time>
      </trkpt>
      <trkpt lat="48.00315" lon="6.65781">
        <ele>419</ele>
        <time>2022-04-05T17:33:25Z</time>
      </trkpt>
      <trkpt lat="48.00249" lon="6.65873">
        <ele>421</ele>
        <time>2022-04-05T17:33:41Z</time>
      </trkpt>
      <trkpt lat="48.00236" lon="6.65903">
        <ele>422</ele>
        <time>2022-04-05T17:33:45Z</time>
      </trkpt>
      <trkpt lat="48.00213" lon="6.66039">
        <ele>427</ele>
        <time>2022-04-05T17:34:02Z</time>
      </trkpt>
      <trkpt lat="48.00203" lon="6.66103">
        <ele>427</ele>
        <time>2022-04-05T17:34:10Z</time>
      </trkpt>
      <trkpt lat="48.00202" lon="6.66172">
        <ele>430</ele>
        <time>2022-04-05T17:34:18Z</time>
      </trkpt>
      <trkpt lat="48.00207" lon="6.6629">
        <ele>436</ele>
        <time>2022-04-05T17:34:32Z</time>
      </trkpt>
      <trkpt lat="48.00219" lon="6.66369">
        <ele>442</ele>
        <time>2022-04-05T17:34:42Z</time>
      </trkpt>
      <trkpt lat="48.00222" lon="6.6643">
        <ele>446</ele>
        <time>2022-04-05T17:34:49Z</time>
      </trkpt>
      <trkpt lat="48.00221" lon="6.66465">
        <ele>449</ele>
        <time>2022-04-05T17:34:53Z</time>
      </trkpt>
      <trkpt lat="48.00222" lon="6.6649">
        <ele>451</ele>
        <time>2022-04-05T17:34:56Z</time>
      </trkpt>
      <trkpt lat="48.0024" lon="6.66594">
        <ele>455</ele>
        <time>2022-04-05T17:35:09Z</time>
      </trkpt>
      <trkpt lat="48.00269" lon="6.66725">
        <ele>461</ele>
        <time>2022-04-05T17:35:26Z</time>
      </trkpt>
      <trkpt lat="48.00277" lon="6.66777">
        <ele>464</ele>
        <time>2022-04-05T17:35:32Z</time>
      </trkpt>
      <trkpt lat="48.00275" lon="6.66885">
        <ele>467</ele>
        <time>2022-04-05T17:35:45Z</time>
      </trkpt>
      <trkpt lat="48.00297" lon="6.66986">
        <ele>472</ele>
        <time>2022-04-05T17:35:57Z</time>
      </trkpt>
      <trkpt lat="48.0031" lon="6.67118">
        <ele>479</ele>
        <time>2022-04-05T17:36:13Z</time>
      </trkpt>
      <trkpt lat="48.0033" lon="6.67189">
        <ele>479</ele>
        <time>2022-04-05T17:36:22Z</time>
      </trkpt>
      <trkpt lat="48.00339" lon="6.67239">
        <ele>484</ele>
        <time>2022-04-05T17:36:29Z</time>
      </trkpt>
      <trkpt lat="48.00346" lon="6.67307">
        <ele>485</ele>
        <time>2022-04-05T17:36:37Z</time>
      </trkpt>
      <trkpt lat="48.00347" lon="6.67403">
        <ele>490</ele>
        <time>2022-04-05T17:36:48Z</time>
      </trkpt>
      <trkpt lat="48.00342" lon="6.67479">
        <ele>490</ele>
        <time>2022-04-05T17:36:57Z</time>
      </trkpt>
      <trkpt lat="48.0034" lon="6.67559">
        <ele>494</ele>
        <time>2022-04-05T17:37:07Z</time>
      </trkpt>
      <trkpt lat="48.00341" lon="6.67601">
        <ele>497</ele>
        <time>2022-04-05T17:37:12Z</time>
      </trkpt>
      <trkpt lat="48.00333" lon="6.67655">
        <ele>499</ele>
        <time>2022-04-05T17:37:18Z</time>
      </trkpt>
      <trkpt lat="48.00337" lon="6.67781">
        <ele>508</ele>
        <time>2022-04-05T17:37:33Z</time>
      </trkpt>
      <trkpt lat="48.00377" lon="6.68168">
        <ele>529</ele>
        <time>2022-04-05T17:38:20Z</time>
      </trkpt>
      <trkpt lat="48.00386" lon="6.6824">
        <ele>530</ele>
        <time>2022-04-05T17:38:29Z</time>
      </trkpt>
      <trkpt lat="48.00405" lon="6.68313">
        <ele>532</ele>
        <time>2022-04-05T17:38:38Z</time>
      </trkpt>
      <trkpt lat="48.00408" lon="6.68339">
        <ele>532</ele>
        <time>2022-04-05T17:38:41Z</time>
      </trkpt>
      <trkpt lat="48.00408" lon="6.68367">
        <ele>533</ele>
        <time>2022-04-05T17:38:45Z</time>
      </trkpt>
      <trkpt lat="48.0041" lon="6.68425">
        <ele>536</ele>
        <time>2022-04-05T17:38:52Z</time>
      </trkpt>
      <trkpt lat="48.00417" lon="6.68485">
        <ele>539</ele>
        <time>2022-04-05T17:38:59Z</time>
      </trkpt>
      <trkpt lat="48.00432" lon="6.68546">
        <ele>549</ele>
        <time>2022-04-05T17:39:06Z</time>
      </trkpt>
      <trkpt lat="48.00436" lon="6.68576">
        <ele>553</ele>
        <time>2022-04-05T17:39:10Z</time>
      </trkpt>
      <trkpt lat="48.00436" lon="6.68592">
        <ele>553</ele>
        <time>2022-04-05T17:39:12Z</time>
      </trkpt>
      <trkpt lat="48.0043" lon="6.68629">
        <ele>550</ele>
        <time>2022-04-05T17:39:17Z</time>
      </trkpt>
      <trkpt lat="48.00399" lon="6.68733">
        <ele>545</ele>
        <time>2022-04-05T17:39:30Z</time>
      </trkpt>
      <trkpt lat="48.00396" lon="6.68766">
        <ele>541</ele>
        <time>2022-04-05T17:39:34Z</time>
      </trkpt>
      <trkpt lat="48.00401" lon="6.68824">
        <ele>531</ele>
        <time>2022-04-05T17:39:41Z</time>
      </trkpt>
      <trkpt lat="48.00401" lon="6.68851">
        <ele>527</ele>
        <time>2022-04-05T17:39:44Z</time>
      </trkpt>
      <trkpt lat="48.00399" lon="6.68896">
        <ele>520</ele>
        <time>2022-04-05T17:39:50Z</time>
      </trkpt>
      <trkpt lat="48.00393" lon="6.68967">
        <ele>512</ele>
        <time>2022-04-05T17:39:58Z</time>
      </trkpt>
      <trkpt lat="48.00428" lon="6.69135">
        <ele>495</ele>
        <time>2022-04-05T17:40:19Z</time>
      </trkpt>
      <trkpt lat="48.00483" lon="6.69288">
        <ele>484</ele>
        <time>2022-04-05T17:40:40Z</time>
      </trkpt>
      <trkpt lat="48.00518" lon="6.69375">
        <ele>478</ele>
        <time>2022-04-05T17:40:52Z</time>
      </trkpt>
      <trkpt lat="48.00534" lon="6.69432">
        <ele>475</ele>
        <time>2022-04-05T17:40:59Z</time>
      </trkpt>
      <trkpt lat="48.00537" lon="6.69459">
        <ele>472</ele>
        <time>2022-04-05T17:41:02Z</time>
      </trkpt>
      <trkpt lat="48.00534" lon="6.69477">
        <ele>470</ele>
        <time>2022-04-05T17:41:05Z</time>
      </trkpt>
      <trkpt lat="48.0053" lon="6.69494">
        <ele>468</ele>
        <time>2022-04-05T17:41:07Z</time>
      </trkpt>
      <trkpt lat="48.00517" lon="6.69508">
        <ele>466</ele>
        <time>2022-04-05T17:41:10Z</time>
      </trkpt>
      <trkpt lat="48.00497" lon="6.69519">
        <ele>464</ele>
        <time>2022-04-05T17:41:13Z</time>
      </trkpt>
      <trkpt lat="48.00474" lon="6.69525">
        <ele>465</ele>
        <time>2022-04-05T17:41:18Z</time>
      </trkpt>
      <trkpt lat="48.00469" lon="6.69535">
        <ele>465</ele>
        <time>2022-04-05T17:41:19Z</time>
      </trkpt>
      <trkpt lat="48.00468" lon="6.69553">
        <ele>465</ele>
        <time>2022-04-05T17:41:21Z</time>
      </trkpt>
      <trkpt lat="48.00475" lon="6.69569">
        <ele>463</ele>
        <time>2022-04-05T17:41:24Z</time>
      </trkpt>
      <trkpt lat="48.00531" lon="6.6965">
        <ele>449</ele>
        <time>2022-04-05T17:41:37Z</time>
      </trkpt>
      <trkpt lat="48.00545" lon="6.69664">
        <ele>447</ele>
        <time>2022-04-05T17:41:40Z</time>
      </trkpt>
      <trkpt lat="48.00576" lon="6.69678">
        <ele>446</ele>
        <time>2022-04-05T17:41:46Z</time>
      </trkpt>
      <trkpt lat="48.00626" lon="6.69719">
        <ele>447</ele>
        <time>2022-04-05T17:41:56Z</time>
      </trkpt>
      <trkpt lat="48.00639" lon="6.69735">
        <ele>445</ele>
        <time>2022-04-05T17:41:59Z</time>
      </trkpt>
      <trkpt lat="48.00659" lon="6.69797">
        <ele>438</ele>
        <time>2022-04-05T17:42:08Z</time>
      </trkpt>
      <trkpt lat="48.00668" lon="6.69816">
        <ele>436</ele>
        <time>2022-04-05T17:42:10Z</time>
      </trkpt>
      <trkpt lat="48.00679" lon="6.69832">
        <ele>433</ele>
        <time>2022-04-05T17:42:13Z</time>
      </trkpt>
      <trkpt lat="48.00697" lon="6.69848">
        <ele>432</ele>
        <time>2022-04-05T17:42:17Z</time>
      </trkpt>
      <trkpt lat="48.00701" lon="6.69854">
        <ele>431</ele>
        <time>2022-04-05T17:42:18Z</time>
      </trkpt>
      <trkpt lat="48.00705" lon="6.69863">
        <ele>430</ele>
        <time>2022-04-05T17:42:19Z</time>
      </trkpt>
      <trkpt lat="48.00705" lon="6.69871">
        <ele>429</ele>
        <time>2022-04-05T17:42:20Z</time>
      </trkpt>
      <trkpt lat="48.00704" lon="6.69881">
        <ele>429</ele>
        <time>2022-04-05T17:42:21Z</time>
      </trkpt>
      <trkpt lat="48.00689" lon="6.69907">
        <ele>427</ele>
        <time>2022-04-05T17:42:25Z</time>
      </trkpt>
      <trkpt lat="48.00683" lon="6.69929">
        <ele>425</ele>
        <time>2022-04-05T17:42:28Z</time>
      </trkpt>
      <trkpt lat="48.00679" lon="6.69993">
        <ele>419</ele>
        <time>2022-04-05T17:42:36Z</time>
      </trkpt>
      <trkpt lat="48.00674" lon="6.70009">
        <ele>418</ele>
        <time>2022-04-05T17:42:38Z</time>
      </trkpt>
      <trkpt lat="48.00636" lon="6.70063">
        <ele>416</ele>
        <time>2022-04-05T17:42:47Z</time>
      </trkpt>
      <trkpt lat="48.00569" lon="6.70121">
        <ele>415</ele>
        <time>2022-04-05T17:43:01Z</time>
      </trkpt>
      <trkpt lat="48.00565" lon="6.7013">
        <ele>415</ele>
        <time>2022-04-05T17:43:02Z</time>
      </trkpt>
      <trkpt lat="48.00563" lon="6.70139">
        <ele>414</ele>
        <time>2022-04-05T17:43:03Z</time>
      </trkpt>
      <trkpt lat="48.00564" lon="6.7015">
        <ele>413</ele>
        <time>2022-04-05T17:43:05Z</time>
      </trkpt>
      <trkpt lat="48.00602" lon="6.70362">
        <ele>405</ele>
        <time>2022-04-05T17:43:31Z</time>
      </trkpt>
      <trkpt lat="48.00642" lon="6.70366">
        <ele>404</ele>
        <time>2022-04-05T17:43:38Z</time>
      </trkpt>
      <trkpt lat="48.00643" lon="6.70375">
        <ele>404</ele>
        <time>2022-04-05T17:43:39Z</time>
      </trkpt>
      <trkpt lat="48.00644" lon="6.70385">
        <ele>404</ele>
        <time>2022-04-05T17:43:40Z</time>
      </trkpt>
      <trkpt lat="48.00652" lon="6.70422">
        <ele>403</ele>
        <time>2022-04-05T17:43:45Z</time>
      </trkpt>
      <trkpt lat="48.00654" lon="6.7043">
        <ele>403</ele>
        <time>2022-04-05T17:43:46Z</time>
      </trkpt>
      <trkpt lat="48.00662" lon="6.70466">
        <ele>404</ele>
        <time>2022-04-05T17:43:50Z</time>
      </trkpt>
      <trkpt lat="48.00665" lon="6.70499">
        <ele>404</ele>
        <time>2022-04-05T17:43:54Z</time>
      </trkpt>
      <trkpt lat="48.00668" lon="6.70536">
        <ele>404</ele>
        <time>2022-04-05T17:43:59Z</time>
      </trkpt>
      <trkpt lat="48.00677" lon="6.70643">
        <ele>403</ele>
        <time>2022-04-05T17:44:12Z</time>
      </trkpt>
      <trkpt lat="48.00679" lon="6.70663">
        <ele>402</ele>
        <time>2022-04-05T17:44:14Z</time>
      </trkpt>
      <trkpt lat="48.00682" lon="6.70705">
        <ele>402</ele>
        <time>2022-04-05T17:44:19Z</time>
      </trkpt>
      <trkpt lat="48.00686" lon="6.70754">
        <ele>401</ele>
        <time>2022-04-05T17:44:25Z</time>
      </trkpt>
      <trkpt lat="48.00691" lon="6.7082">
        <ele>402</ele>
        <time>2022-04-05T17:44:33Z</time>
      </trkpt>
      <trkpt lat="48.00692" lon="6.70837">
        <ele>402</ele>
        <time>2022-04-05T17:44:35Z</time>
      </trkpt>
      <trkpt lat="48.00695" lon="6.70873">
        <ele>402</ele>
        <time>2022-04-05T17:44:39Z</time>
      </trkpt>
      <trkpt lat="48.00697" lon="6.70906">
        <ele>402</ele>
        <time>2022-04-05T17:44:43Z</time>
      </trkpt>
      <trkpt lat="48.00702" lon="6.70968">
        <ele>402</ele>
        <time>2022-04-05T17:44:51Z</time>
      </trkpt>
      <trkpt lat="48.00703" lon="6.70981">
        <ele>402</ele>
        <time>2022-04-05T17:44:52Z</time>
      </trkpt>
      <trkpt lat="48.00707" lon="6.71031">
        <ele>402</ele>
        <time>2022-04-05T17:44:58Z</time>
      </trkpt>
      <trkpt lat="48.00709" lon="6.71056">
        <ele>402</ele>
        <time>2022-04-05T17:45:01Z</time>
      </trkpt>
      <trkpt lat="48.00711" lon="6.71082">
        <ele>402</ele>
        <time>2022-04-05T17:45:04Z</time>
      </trkpt>
      <trkpt lat="48.00709" lon="6.71094">
        <ele>402</ele>
        <time>2022-04-05T17:45:06Z</time>
      </trkpt>
      <trkpt lat="48.00709" lon="6.711">
        <ele>402</ele>
        <time>2022-04-05T17:45:06Z</time>
      </trkpt>
      <trkpt lat="48.00708" lon="6.71107">
        <ele>403</ele>
        <time>2022-04-05T17:45:07Z</time>
      </trkpt>
      <trkpt lat="48.00704" lon="6.71113">
        <ele>403</ele>
        <time>2022-04-05T17:45:08Z</time>
      </trkpt>
      <trkpt lat="48.00702" lon="6.71121">
        <ele>403</ele>
        <time>2022-04-05T17:45:09Z</time>
      </trkpt>
      <trkpt lat="48.00702" lon="6.7113">
        <ele>403</ele>
        <time>2022-04-05T17:45:10Z</time>
      </trkpt>
      <trkpt lat="48.00708" lon="6.71139">
        <ele>403</ele>
        <time>2022-04-05T17:45:12Z</time>
      </trkpt>
      <trkpt lat="48.00714" lon="6.71153">
        <ele>402</ele>
        <time>2022-04-05T17:45:14Z</time>
      </trkpt>
      <trkpt lat="48.00718" lon="6.7117">
        <ele>402</ele>
        <time>2022-04-05T17:45:16Z</time>
      </trkpt>
      <trkpt lat="48.00719" lon="6.71182">
        <ele>402</ele>
        <time>2022-04-05T17:45:17Z</time>
      </trkpt>
      <trkpt lat="48.00719" lon="6.71187">
        <ele>402</ele>
        <time>2022-04-05T17:45:18Z</time>
      </trkpt>
      <trkpt lat="48.00721" lon="6.71216">
        <ele>402</ele>
        <time>2022-04-05T17:45:22Z</time>
      </trkpt>
      <trkpt lat="48.00725" lon="6.71249">
        <ele>402</ele>
        <time>2022-04-05T17:45:26Z</time>
      </trkpt>
      <trkpt lat="48.00731" lon="6.71282">
        <ele>402</ele>
        <time>2022-04-05T17:45:30Z</time>
      </trkpt>
      <trkpt lat="48.00752" lon="6.7135">
        <ele>404</ele>
        <time>2022-04-05T17:45:39Z</time>
      </trkpt>
      <trkpt lat="48.00763" lon="6.71404">
        <ele>405</ele>
        <time>2022-04-05T17:45:45Z</time>
      </trkpt>
      <trkpt lat="48.00771" lon="6.71444">
        <ele>405</ele>
        <time>2022-04-05T17:45:50Z</time>
      </trkpt>
      <trkpt lat="48.00773" lon="6.71453">
        <ele>405</ele>
        <time>2022-04-05T17:45:51Z</time>
      </trkpt>
      <trkpt lat="48.00775" lon="6.71467">
        <ele>405</ele>
        <time>2022-04-05T17:45:53Z</time>
      </trkpt>
      <trkpt lat="48.00776" lon="6.71491">
        <ele>405</ele>
        <time>2022-04-05T17:45:56Z</time>
      </trkpt>
      <trkpt lat="48.00776" lon="6.71509">
        <ele>405</ele>
        <time>2022-04-05T17:45:58Z</time>
      </trkpt>
      <trkpt lat="48.00775" lon="6.71519">
        <ele>405</ele>
        <time>2022-04-05T17:45:59Z</time>
      </trkpt>
      <trkpt lat="48.00774" lon="6.71535">
        <ele>405</ele>
        <time>2022-04-05T17:46:01Z</time>
      </trkpt>
      <trkpt lat="48.00777" lon="6.71597">
        <ele>406</ele>
        <time>2022-04-05T17:46:09Z</time>
      </trkpt>
      <trkpt lat="48.0078" lon="6.71653">
        <ele>406</ele>
        <time>2022-04-05T17:46:15Z</time>
      </trkpt>
      <trkpt lat="48.0078" lon="6.71658">
        <ele>406</ele>
        <time>2022-04-05T17:46:16Z</time>
      </trkpt>
      <trkpt lat="48.00739" lon="6.7168">
        <ele>406</ele>
        <time>2022-04-05T17:46:24Z</time>
      </trkpt>
      <trkpt lat="48.00593" lon="6.71774">
        <ele>405</ele>
        <time>2022-04-05T17:46:52Z</time>
      </trkpt>
      <trkpt lat="48.00594" lon="6.71778">
        <ele>405</ele>
        <time>2022-04-05T17:46:52Z</time>
      </trkpt>
      <trkpt lat="48.0059" lon="6.71787">
        <ele>405</ele>
        <time>2022-04-05T17:46:54Z</time>
      </trkpt>
      <trkpt lat="48.00579" lon="6.71799">
        <ele>405</ele>
        <time>2022-04-05T17:46:56Z</time>
      </trkpt>
      <trkpt lat="48.00438" lon="6.71923">
        <ele>407</ele>
        <time>2022-04-05T17:47:25Z</time>
      </trkpt>
      <trkpt lat="48.00422" lon="6.71933">
        <ele>407</ele>
        <time>2022-04-05T17:47:28Z</time>
      </trkpt>
      <trkpt lat="48.00392" lon="6.71949">
        <ele>407</ele>
        <time>2022-04-05T17:47:34Z</time>
      </trkpt>
      <trkpt lat="48.00192" lon="6.72033">
        <ele>411</ele>
        <time>2022-04-05T17:48:11Z</time>
      </trkpt>
      <trkpt lat="48.00142" lon="6.72066">
        <ele>410</ele>
        <time>2022-04-05T17:48:21Z</time>
      </trkpt>
      <trkpt lat="48.00092" lon="6.72111">
        <ele>408</ele>
        <time>2022-04-05T17:48:31Z</time>
      </trkpt>
      <trkpt lat="48" lon="6.72203">
        <ele>409</ele>
        <time>2022-04-05T17:48:51Z</time>
      </trkpt>
      <trkpt lat="47.99992" lon="6.72213">
        <ele>409</ele>
        <time>2022-04-05T17:48:53Z</time>
      </trkpt>
      <trkpt lat="47.99966" lon="6.72257">
        <ele>409</ele>
        <time>2022-04-05T17:49:00Z</time>
      </trkpt>
      <trkpt lat="47.99953" lon="6.72289">
        <ele>410</ele>
        <time>2022-04-05T17:49:04Z</time>
      </trkpt>
      <trkpt lat="47.99936" lon="6.72358">
        <ele>413</ele>
        <time>2022-04-05T17:49:13Z</time>
      </trkpt>
      <trkpt lat="47.99906" lon="6.72462">
        <ele>417</ele>
        <time>2022-04-05T17:49:26Z</time>
      </trkpt>
      <trkpt lat="47.99893" lon="6.72496">
        <ele>418</ele>
        <time>2022-04-05T17:49:31Z</time>
      </trkpt>
      <trkpt lat="47.99817" lon="6.72642">
        <ele>423</ele>
        <time>2022-04-05T17:49:53Z</time>
      </trkpt>
      <trkpt lat="47.99764" lon="6.72838">
        <ele>431</ele>
        <time>2022-04-05T17:50:18Z</time>
      </trkpt>
      <trkpt lat="47.99762" lon="6.72857">
        <ele>433</ele>
        <time>2022-04-05T17:50:20Z</time>
      </trkpt>
      <trkpt lat="47.99762" lon="6.72868">
        <ele>434</ele>
        <time>2022-04-05T17:50:22Z</time>
      </trkpt>
      <trkpt lat="47.9977" lon="6.72934">
        <ele>438</ele>
        <time>2022-04-05T17:50:30Z</time>
      </trkpt>
      <trkpt lat="47.99773" lon="6.73018">
        <ele>443</ele>
        <time>2022-04-05T17:50:40Z</time>
      </trkpt>
      <trkpt lat="47.99784" lon="6.73071">
        <ele>445</ele>
        <time>2022-04-05T17:50:46Z</time>
      </trkpt>
      <trkpt lat="47.99789" lon="6.73112">
        <ele>447</ele>
        <time>2022-04-05T17:50:51Z</time>
      </trkpt>
      <trkpt lat="47.99787" lon="6.73152">
        <ele>450</ele>
        <time>2022-04-05T17:50:56Z</time>
      </trkpt>
      <trkpt lat="47.99794" lon="6.73234">
        <ele>453</ele>
        <time>2022-04-05T17:51:06Z</time>
      </trkpt>
      <trkpt lat="47.99794" lon="6.73254">
        <ele>453</ele>
        <time>2022-04-05T17:51:08Z</time>
      </trkpt>
      <trkpt lat="47.99792" lon="6.73273">
        <ele>454</ele>
        <time>2022-04-05T17:51:11Z</time>
      </trkpt>
      <trkpt lat="47.99783" lon="6.73301">
        <ele>456</ele>
        <time>2022-04-05T17:51:14Z</time>
      </trkpt>
      <trkpt lat="47.99758" lon="6.73348">
        <ele>459</ele>
        <time>2022-04-05T17:51:21Z</time>
      </trkpt>
      <trkpt lat="47.99743" lon="6.73389">
        <ele>459</ele>
        <time>2022-04-05T17:51:27Z</time>
      </trkpt>
      <trkpt lat="47.99736" lon="6.73402">
        <ele>460</ele>
        <time>2022-04-05T17:51:29Z</time>
      </trkpt>
      <trkpt lat="47.9973" lon="6.73411">
        <ele>460</ele>
        <time>2022-04-05T17:51:30Z</time>
      </trkpt>
      <trkpt lat="47.99724" lon="6.73413">
        <ele>461</ele>
        <time>2022-04-05T17:51:32Z</time>
      </trkpt>
      <trkpt lat="47.99712" lon="6.73414">
        <ele>462</ele>
        <time>2022-04-05T17:51:34Z</time>
      </trkpt>
      <trkpt lat="47.99706" lon="6.7341">
        <ele>463</ele>
        <time>2022-04-05T17:51:35Z</time>
      </trkpt>
      <trkpt lat="47.99699" lon="6.73398">
        <ele>465</ele>
        <time>2022-04-05T17:51:37Z</time>
      </trkpt>
      <trkpt lat="47.99689" lon="6.73371">
        <ele>467</ele>
        <time>2022-04-05T17:51:40Z</time>
      </trkpt>
      <trkpt lat="47.99668" lon="6.73297">
        <ele>472</ele>
        <time>2022-04-05T17:51:50Z</time>
      </trkpt>
      <trkpt lat="47.99662" lon="6.73283">
        <ele>473</ele>
        <time>2022-04-05T17:51:52Z</time>
      </trkpt>
      <trkpt lat="47.99657" lon="6.73275">
        <ele>474</ele>
        <time>2022-04-05T17:51:53Z</time>
      </trkpt>
      <trkpt lat="47.99648" lon="6.7327">
        <ele>476</ele>
        <time>2022-04-05T17:51:55Z</time>
      </trkpt>
      <trkpt lat="47.99639" lon="6.73267">
        <ele>478</ele>
        <time>2022-04-05T17:51:57Z</time>
      </trkpt>
      <trkpt lat="47.99624" lon="6.73271">
        <ele>480</ele>
        <time>2022-04-05T17:51:59Z</time>
      </trkpt>
      <trkpt lat="47.99615" lon="6.73278">
        <ele>482</ele>
        <time>2022-04-05T17:52:01Z</time>
      </trkpt>
      <trkpt lat="47.99566" lon="6.73325">
        <ele>488</ele>
        <time>2022-04-05T17:52:12Z</time>
      </trkpt>
      <trkpt lat="47.99522" lon="6.73359">
        <ele>490</ele>
        <time>2022-04-05T17:52:20Z</time>
      </trkpt>
      <trkpt lat="47.9951" lon="6.73378">
        <ele>490</ele>
        <time>2022-04-05T17:52:23Z</time>
      </trkpt>
      <trkpt lat="47.99504" lon="6.73409">
        <ele>491</ele>
        <time>2022-04-05T17:52:27Z</time>
      </trkpt>
      <trkpt lat="47.99489" lon="6.73466">
        <ele>492</ele>
        <time>2022-04-05T17:52:35Z</time>
      </trkpt>
      <trkpt lat="47.99477" lon="6.73508">
        <ele>493</ele>
        <time>2022-04-05T17:52:40Z</time>
      </trkpt>
      <trkpt lat="47.99461" lon="6.73548">
        <ele>497</ele>
        <time>2022-04-05T17:52:46Z</time>
      </trkpt>
      <trkpt lat="47.99454" lon="6.73561">
        <ele>499</ele>
        <time>2022-04-05T17:52:48Z</time>
      </trkpt>
      <trkpt lat="47.99445" lon="6.73572">
        <ele>499</ele>
        <time>2022-04-05T17:52:50Z</time>
      </trkpt>
      <trkpt lat="47.99422" lon="6.73595">
        <ele>500</ele>
        <time>2022-04-05T17:52:55Z</time>
      </trkpt>
      <trkpt lat="47.99413" lon="6.73608">
        <ele>501</ele>
        <time>2022-04-05T17:52:57Z</time>
      </trkpt>
      <trkpt lat="47.99381" lon="6.73677">
        <ele>507</ele>
        <time>2022-04-05T17:53:07Z</time>
      </trkpt>
      <trkpt lat="47.99329" lon="6.73756">
        <ele>518</ele>
        <time>2022-04-05T17:53:20Z</time>
      </trkpt>
      <trkpt lat="47.99299" lon="6.73806">
        <ele>522</ele>
        <time>2022-04-05T17:53:28Z</time>
      </trkpt>
      <trkpt lat="47.99251" lon="6.73906">
        <ele>525</ele>
        <time>2022-04-05T17:53:43Z</time>
      </trkpt>
      <trkpt lat="47.99207" lon="6.74021">
        <ele>528</ele>
        <time>2022-04-05T17:53:58Z</time>
      </trkpt>
      <trkpt lat="47.99185" lon="6.74132">
        <ele>532</ele>
        <time>2022-04-05T17:54:12Z</time>
      </trkpt>
      <trkpt lat="47.99125" lon="6.74415">
        <ele>551</ele>
        <time>2022-04-05T17:54:48Z</time>
      </trkpt>
      <trkpt lat="47.99064" lon="6.74579">
        <ele>549</ele>
        <time>2022-04-05T17:55:10Z</time>
      </trkpt>
      <trkpt lat="47.99059" lon="6.746">
        <ele>549</ele>
        <time>2022-04-05T17:55:13Z</time>
      </trkpt>
      <trkpt lat="47.99057" lon="6.74618">
        <ele>550</ele>
        <time>2022-04-05T17:55:15Z</time>
      </trkpt>
      <trkpt lat="47.99058" lon="6.74639">
        <ele>551</ele>
        <time>2022-04-05T17:55:17Z</time>
      </trkpt>
      <trkpt lat="47.99065" lon="6.74669">
        <ele>553</ele>
        <time>2022-04-05T17:55:21Z</time>
      </trkpt>
      <trkpt lat="47.99095" lon="6.74772">
        <ele>560</ele>
        <time>2022-04-05T17:55:34Z</time>
      </trkpt>
      <trkpt lat="47.99097" lon="6.7479">
        <ele>562</ele>
        <time>2022-04-05T17:55:37Z</time>
      </trkpt>
      <trkpt lat="47.99094" lon="6.74819">
        <ele>563</ele>
        <time>2022-04-05T17:55:40Z</time>
      </trkpt>
      <trkpt lat="47.99068" lon="6.74923">
        <ele>566</ele>
        <time>2022-04-05T17:55:53Z</time>
      </trkpt>
      <trkpt lat="47.99063" lon="6.74954">
        <ele>567</ele>
        <time>2022-04-05T17:55:57Z</time>
      </trkpt>
      <trkpt lat="47.99063" lon="6.75">
        <ele>570</ele>
        <time>2022-04-05T17:56:03Z</time>
      </trkpt>
      <trkpt lat="47.99074" lon="6.75109">
        <ele>575</ele>
        <time>2022-04-05T17:56:16Z</time>
      </trkpt>
      <trkpt lat="47.99074" lon="6.75132">
        <ele>576</ele>
        <time>2022-04-05T17:56:18Z</time>
      </trkpt>
      <trkpt lat="47.99071" lon="6.75165">
        <ele>577</ele>
        <time>2022-04-05T17:56:22Z</time>
      </trkpt>
      <trkpt lat="47.99028" lon="6.75462">
        <ele>593</ele>
        <time>2022-04-05T17:56:59Z</time>
      </trkpt>
      <trkpt lat="47.99019" lon="6.75509">
        <ele>596</ele>
        <time>2022-04-05T17:57:04Z</time>
      </trkpt>
      <trkpt lat="47.98943" lon="6.75722">
        <ele>607</ele>
        <time>2022-04-05T17:57:33Z</time>
      </trkpt>
      <trkpt lat="47.989" lon="6.75806">
        <ele>612</ele>
        <time>2022-04-05T17:57:46Z</time>
      </trkpt>
      <trkpt lat="47.98867" lon="6.75867">
        <ele>614</ele>
        <time>2022-04-05T17:57:55Z</time>
      </trkpt>
      <trkpt lat="47.98862" lon="6.75884">
        <ele>615</ele>
        <time>2022-04-05T17:57:57Z</time>
      </trkpt>
      <trkpt lat="47.98854" lon="6.75996">
        <ele>622</ele>
        <time>2022-04-05T17:58:11Z</time>
      </trkpt>
      <trkpt lat="47.98843" lon="6.76115">
        <ele>628</ele>
        <time>2022-04-05T17:58:25Z</time>
      </trkpt>
      <trkpt lat="47.98841" lon="6.76147">
        <ele>629</ele>
        <time>2022-04-05T17:58:29Z</time>
      </trkpt>
      <trkpt lat="47.98842" lon="6.76166">
        <ele>630</ele>
        <time>2022-04-05T17:58:31Z</time>
      </trkpt>
      <trkpt lat="47.98868" lon="6.76368">
        <ele>638</ele>
        <time>2022-04-05T17:58:56Z</time>
      </trkpt>
      <trkpt lat="47.98864" lon="6.76478">
        <ele>642</ele>
        <time>2022-04-05T17:59:09Z</time>
      </trkpt>
      <trkpt lat="47.98864" lon="6.76517">
        <ele>643</ele>
        <time>2022-04-05T17:59:13Z</time>
      </trkpt>
      <trkpt lat="47.9888" lon="6.76601">
        <ele>647</ele>
        <time>2022-04-05T17:59:24Z</time>
      </trkpt>
      <trkpt lat="47.98907" lon="6.76672">
        <ele>649</ele>
        <time>2022-04-05T17:59:33Z</time>
      </trkpt>
      <trkpt lat="47.9893" lon="6.7674">
        <ele>655</ele>
        <time>2022-04-05T17:59:43Z</time>
      </trkpt>
      <trkpt lat="47.98968" lon="6.7687">
        <ele>669</ele>
        <time>2022-04-05T17:59:59Z</time>
      </trkpt>
      <trkpt lat="47.9897" lon="6.76884">
        <ele>669</ele>
        <time>2022-04-05T18:00:01Z</time>
      </trkpt>
      <trkpt lat="47.98975" lon="6.76951">
        <ele>672</ele>
        <time>2022-04-05T18:00:09Z</time>
      </trkpt>
      <trkpt lat="47.98991" lon="6.77079">
        <ele>679</ele>
        <time>2022-04-05T18:00:25Z</time>
      </trkpt>
      <trkpt lat="47.98991" lon="6.77101">
        <ele>681</ele>
        <time>2022-04-05T18:00:27Z</time>
      </trkpt>
      <trkpt lat="47.98989" lon="6.77127">
        <ele>682</ele>
        <time>2022-04-05T18:00:30Z</time>
      </trkpt>
      <trkpt lat="47.98975" lon="6.77181">
        <ele>684</ele>
        <time>2022-04-05T18:00:37Z</time>
      </trkpt>
      <trkpt lat="47.98962" lon="6.77261">
        <ele>690</ele>
        <time>2022-04-05T18:00:47Z</time>
      </trkpt>
      <trkpt lat="47.98952" lon="6.77279">
        <ele>692</ele>
        <time>2022-04-05T18:00:50Z</time>
      </trkpt>
      <trkpt lat="47.98928" lon="6.77316">
        <ele>695</ele>
        <time>2022-04-05T18:00:56Z</time>
      </trkpt>
      <trkpt lat="47.9892" lon="6.77341">
        <ele>698</ele>
        <time>2022-04-05T18:00:59Z</time>
      </trkpt>
      <trkpt lat="47.98901" lon="6.77445">
        <ele>707</ele>
        <time>2022-04-05T18:01:12Z</time>
      </trkpt>
      <trkpt lat="47.98886" lon="6.77585">
        <ele>716</ele>
        <time>2022-04-05T18:01:29Z</time>
      </trkpt>
      <trkpt lat="47.9888" lon="6.77623">
        <ele>718</ele>
        <time>2022-04-05T18:01:34Z</time>
      </trkpt>
      <trkpt lat="47.98845" lon="6.77769">
        <ele>722</ele>
        <time>2022-04-05T18:01:52Z</time>
      </trkpt>
      <trkpt lat="47.98841" lon="6.77797">
        <ele>722</ele>
        <time>2022-04-05T18:01:56Z</time>
      </trkpt>
      <trkpt lat="47.98833" lon="6.77902">
        <ele>728</ele>
        <time>2022-04-05T18:02:08Z</time>
      </trkpt>
      <trkpt lat="47.98834" lon="6.78155">
        <ele>743</ele>
        <time>2022-04-05T18:02:38Z</time>
      </trkpt>
      <trkpt lat="47.98821" lon="6.78263">
        <ele>748</ele>
        <time>2022-04-05T18:02:51Z</time>
      </trkpt>
      <trkpt lat="47.98819" lon="6.78309">
        <ele>751</ele>
        <time>2022-04-05T18:02:57Z</time>
      </trkpt>
      <trkpt lat="47.98821" lon="6.78357">
        <ele>755</ele>
        <time>2022-04-05T18:03:03Z</time>
      </trkpt>
      <trkpt lat="47.98821" lon="6.78384">
        <ele>758</ele>
        <time>2022-04-05T18:03:06Z</time>
      </trkpt>
      <trkpt lat="47.98814" lon="6.78456">
        <ele>764</ele>
        <time>2022-04-05T18:03:14Z</time>
      </trkpt>
      <trkpt lat="47.9881" lon="6.78483">
        <ele>766</ele>
        <time>2022-04-05T18:03:18Z</time>
      </trkpt>
      <trkpt lat="47.988" lon="6.78509">
        <ele>768</ele>
        <time>2022-04-05T18:03:21Z</time>
      </trkpt>
      <trkpt lat="47.98779" lon="6.78555">
        <ele>770</ele>
        <time>2022-04-05T18:03:28Z</time>
      </trkpt>
      <trkpt lat="47.98772" lon="6.78577">
        <ele>771</ele>
        <time>2022-04-05T18:03:31Z</time>
      </trkpt>
      <trkpt lat="47.98768" lon="6.78595">
        <ele>772</ele>
        <time>2022-04-05T18:03:33Z</time>
      </trkpt>
      <trkpt lat="47.9876" lon="6.78656">
        <ele>774</ele>
        <time>2022-04-05T18:03:41Z</time>
      </trkpt>
      <trkpt lat="47.98753" lon="6.78689">
        <ele>776</ele>
        <time>2022-04-05T18:03:45Z</time>
      </trkpt>
      <trkpt lat="47.98741" lon="6.78723">
        <ele>780</ele>
        <time>2022-04-05T18:03:49Z</time>
      </trkpt>
      <trkpt lat="47.98721" lon="6.78769">
        <ele>786</ele>
        <time>2022-04-05T18:03:56Z</time>
      </trkpt>
      <trkpt lat="47.98711" lon="6.78809">
        <ele>790</ele>
        <time>2022-04-05T18:04:01Z</time>
      </trkpt>
      <trkpt lat="47.98699" lon="6.78938">
        <ele>801</ele>
        <time>2022-04-05T18:04:16Z</time>
      </trkpt>
      <trkpt lat="47.98677" lon="6.79029">
        <ele>799</ele>
        <time>2022-04-05T18:04:28Z</time>
      </trkpt>
      <trkpt lat="47.98675" lon="6.79052">
        <ele>801</ele>
        <time>2022-04-05T18:04:31Z</time>
      </trkpt>
      <trkpt lat="47.98674" lon="6.79082">
        <ele>803</ele>
        <time>2022-04-05T18:04:34Z</time>
      </trkpt>
      <trkpt lat="47.9868" lon="6.79137">
        <ele>808</ele>
        <time>2022-04-05T18:04:41Z</time>
      </trkpt>
      <trkpt lat="47.98687" lon="6.79175">
        <ele>811</ele>
        <time>2022-04-05T18:04:46Z</time>
      </trkpt>
      <trkpt lat="47.98698" lon="6.79219">
        <ele>812</ele>
        <time>2022-04-05T18:04:51Z</time>
      </trkpt>
      <trkpt lat="47.98725" lon="6.79298">
        <ele>813</ele>
        <time>2022-04-05T18:05:02Z</time>
      </trkpt>
      <trkpt lat="47.98744" lon="6.79373">
        <ele>812</ele>
        <time>2022-04-05T18:05:11Z</time>
      </trkpt>
      <trkpt lat="47.98765" lon="6.79446">
        <ele>813</ele>
        <time>2022-04-05T18:05:21Z</time>
      </trkpt>
      <trkpt lat="47.98825" lon="6.79641">
        <ele>822</ele>
        <time>2022-04-05T18:05:46Z</time>
      </trkpt>
      <trkpt lat="47.98841" lon="6.79702">
        <ele>827</ele>
        <time>2022-04-05T18:05:54Z</time>
      </trkpt>
      <trkpt lat="47.98842" lon="6.79717">
        <ele>828</ele>
        <time>2022-04-05T18:05:56Z</time>
      </trkpt>
      <trkpt lat="47.98839" lon="6.79792">
        <ele>828</ele>
        <time>2022-04-05T18:06:05Z</time>
      </trkpt>
      <trkpt lat="47.98842" lon="6.79817">
        <ele>829</ele>
        <time>2022-04-05T18:06:08Z</time>
      </trkpt>
      <trkpt lat="47.98877" lon="6.79923">
        <ele>831</ele>
        <time>2022-04-05T18:06:22Z</time>
      </trkpt>
      <trkpt lat="47.98893" lon="6.79959">
        <ele>832</ele>
        <time>2022-04-05T18:06:27Z</time>
      </trkpt>
      <trkpt lat="47.9894" lon="6.80046">
        <ele>835</ele>
        <time>2022-04-05T18:06:40Z</time>
      </trkpt>
      <trkpt lat="47.9896" lon="6.80166">
        <ele>835</ele>
        <time>2022-04-05T18:06:55Z</time>
      </trkpt>
      <trkpt lat="47.99002" lon="6.80435">
        <ele>847</ele>
        <time>2022-04-05T18:07:28Z</time>
      </trkpt>
      <trkpt lat="47.9901" lon="6.80471">
        <ele>850</ele>
        <time>2022-04-05T18:07:33Z</time>
      </trkpt>
      <trkpt lat="47.99015" lon="6.80486">
        <ele>852</ele>
        <time>2022-04-05T18:07:34Z</time>
      </trkpt>
      <trkpt lat="47.99037" lon="6.80526">
        <ele>856</ele>
        <time>2022-04-05T18:07:41Z</time>
      </trkpt>
      <trkpt lat="47.99045" lon="6.80546">
        <ele>857</ele>
        <time>2022-04-05T18:07:43Z</time>
      </trkpt>
      <trkpt lat="47.9905" lon="6.8058">
        <ele>858</ele>
        <time>2022-04-05T18:07:48Z</time>
      </trkpt>
      <trkpt lat="47.9905" lon="6.8061">
        <ele>859</ele>
        <time>2022-04-05T18:07:51Z</time>
      </trkpt>
      <trkpt lat="47.9904" lon="6.8064">
        <ele>859</ele>
        <time>2022-04-05T18:07:55Z</time>
      </trkpt>
      <trkpt lat="47.98998" lon="6.80709">
        <ele>856</ele>
        <time>2022-04-05T18:08:06Z</time>
      </trkpt>
      <trkpt lat="47.98982" lon="6.8074">
        <ele>856</ele>
        <time>2022-04-05T18:08:11Z</time>
      </trkpt>
      <trkpt lat="47.98933" lon="6.80869">
        <ele>863</ele>
        <time>2022-04-05T18:08:29Z</time>
      </trkpt>
      <trkpt lat="47.98917" lon="6.80916">
        <ele>862</ele>
        <time>2022-04-05T18:08:35Z</time>
      </trkpt>
      <trkpt lat="47.98912" lon="6.80956">
        <ele>864</ele>
        <time>2022-04-05T18:08:40Z</time>
      </trkpt>
      <trkpt lat="47.98909" lon="6.81006">
        <ele>867</ele>
        <time>2022-04-05T18:08:46Z</time>
      </trkpt>
      <trkpt lat="47.98903" lon="6.81283">
        <ele>883</ele>
        <time>2022-04-05T18:09:19Z</time>
      </trkpt>
      <trkpt lat="47.98899" lon="6.81327">
        <ele>885</ele>
        <time>2022-04-05T18:09:24Z</time>
      </trkpt>
      <trkpt lat="47.9885" lon="6.8157">
        <ele>889</ele>
        <time>2022-04-05T18:09:54Z</time>
      </trkpt>
      <trkpt lat="47.98839" lon="6.81606">
        <ele>888</ele>
        <time>2022-04-05T18:09:59Z</time>
      </trkpt>
      <trkpt lat="47.98821" lon="6.81639">
        <ele>889</ele>
        <time>2022-04-05T18:10:04Z</time>
      </trkpt>
      <trkpt lat="47.98808" lon="6.81659">
        <ele>889</ele>
        <time>2022-04-05T18:10:07Z</time>
      </trkpt>
      <trkpt lat="47.98793" lon="6.8167">
        <ele>890</ele>
        <time>2022-04-05T18:10:10Z</time>
      </trkpt>
      <trkpt lat="47.98759" lon="6.81681">
        <ele>889</ele>
        <time>2022-04-05T18:10:16Z</time>
      </trkpt>
      <trkpt lat="47.98751" lon="6.81687">
        <ele>888</ele>
        <time>2022-04-05T18:10:18Z</time>
      </trkpt>
      <trkpt lat="47.98745" lon="6.81697">
        <ele>886</ele>
        <time>2022-04-05T18:10:20Z</time>
      </trkpt>
      <trkpt lat="47.98731" lon="6.81677">
        <ele>883</ele>
        <time>2022-04-05T18:10:23Z</time>
      </trkpt>
      <trkpt lat="47.98681" lon="6.8158">
        <ele>885</ele>
        <time>2022-04-05T18:10:38Z</time>
      </trkpt>
      <trkpt lat="47.98667" lon="6.81566">
        <ele>887</ele>
        <time>2022-04-05T18:10:41Z</time>
      </trkpt>
      <trkpt lat="47.98659" lon="6.81564">
        <ele>889</ele>
        <time>2022-04-05T18:10:42Z</time>
      </trkpt>
      <trkpt lat="47.98643" lon="6.81568">
        <ele>891</ele>
        <time>2022-04-05T18:10:45Z</time>
      </trkpt>
      <trkpt lat="47.98592" lon="6.81613">
        <ele>884</ele>
        <time>2022-04-05T18:10:56Z</time>
      </trkpt>
      <trkpt lat="47.98568" lon="6.81623">
        <ele>885</ele>
        <time>2022-04-05T18:11:00Z</time>
      </trkpt>
      <trkpt lat="47.98534" lon="6.8165">
        <ele>880</ele>
        <time>2022-04-05T18:11:07Z</time>
      </trkpt>
      <trkpt lat="47.98516" lon="6.81671">
        <ele>875</ele>
        <time>2022-04-05T18:11:11Z</time>
      </trkpt>
      <trkpt lat="47.985" lon="6.81696">
        <ele>872</ele>
        <time>2022-04-05T18:11:15Z</time>
      </trkpt>
      <trkpt lat="47.98455" lon="6.81791">
        <ele>860</ele>
        <time>2022-04-05T18:11:29Z</time>
      </trkpt>
      <trkpt lat="47.98418" lon="6.81821">
        <ele>861</ele>
        <time>2022-04-05T18:11:36Z</time>
      </trkpt>
      <trkpt lat="47.98387" lon="6.81855">
        <ele>856</ele>
        <time>2022-04-05T18:11:43Z</time>
      </trkpt>
      <trkpt lat="47.98339" lon="6.81893">
        <ele>856</ele>
        <time>2022-04-05T18:11:53Z</time>
      </trkpt>
      <trkpt lat="47.98324" lon="6.81892">
        <ele>854</ele>
        <time>2022-04-05T18:11:56Z</time>
      </trkpt>
      <trkpt lat="47.98273" lon="6.81851">
        <ele>848</ele>
        <time>2022-04-05T18:12:06Z</time>
      </trkpt>
      <trkpt lat="47.98263" lon="6.81832">
        <ele>848</ele>
        <time>2022-04-05T18:12:09Z</time>
      </trkpt>
      <trkpt lat="47.98232" lon="6.81753">
        <ele>850</ele>
        <time>2022-04-05T18:12:20Z</time>
      </trkpt>
      <trkpt lat="47.98178" lon="6.81657">
        <ele>853</ele>
        <time>2022-04-05T18:12:35Z</time>
      </trkpt>
      <trkpt lat="47.98144" lon="6.81606">
        <ele>858</ele>
        <time>2022-04-05T18:12:43Z</time>
      </trkpt>
      <trkpt lat="47.98123" lon="6.81596">
        <ele>859</ele>
        <time>2022-04-05T18:12:47Z</time>
      </trkpt>
      <trkpt lat="47.98065" lon="6.81613">
        <ele>850</ele>
        <time>2022-04-05T18:12:58Z</time>
      </trkpt>
      <trkpt lat="47.98023" lon="6.8163">
        <ele>848</ele>
        <time>2022-04-05T18:13:05Z</time>
      </trkpt>
      <trkpt lat="47.98013" lon="6.81642">
        <ele>845</ele>
        <time>2022-04-05T18:13:08Z</time>
      </trkpt>
      <trkpt lat="47.98004" lon="6.81668">
        <ele>840</ele>
        <time>2022-04-05T18:13:11Z</time>
      </trkpt>
      <trkpt lat="47.97998" lon="6.81693">
        <ele>836</ele>
        <time>2022-04-05T18:13:14Z</time>
      </trkpt>
      <trkpt lat="47.9799" lon="6.81704">
        <ele>833</ele>
        <time>2022-04-05T18:13:16Z</time>
      </trkpt>
      <trkpt lat="47.97956" lon="6.81733">
        <ele>825</ele>
        <time>2022-04-05T18:13:23Z</time>
      </trkpt>
      <trkpt lat="47.97943" lon="6.81741">
        <ele>823</ele>
        <time>2022-04-05T18:13:26Z</time>
      </trkpt>
      <trkpt lat="47.97928" lon="6.81743">
        <ele>821</ele>
        <time>2022-04-05T18:13:28Z</time>
      </trkpt>
      <trkpt lat="47.97922" lon="6.8175">
        <ele>820</ele>
        <time>2022-04-05T18:13:30Z</time>
      </trkpt>
      <trkpt lat="47.9792" lon="6.81759">
        <ele>819</ele>
        <time>2022-04-05T18:13:31Z</time>
      </trkpt>
      <trkpt lat="47.97928" lon="6.81785">
        <ele>814</ele>
        <time>2022-04-05T18:13:34Z</time>
      </trkpt>
      <trkpt lat="47.97936" lon="6.81792">
        <ele>813</ele>
        <time>2022-04-05T18:13:36Z</time>
      </trkpt>
      <trkpt lat="47.97944" lon="6.81794">
        <ele>813</ele>
        <time>2022-04-05T18:13:37Z</time>
      </trkpt>
      <trkpt lat="47.97952" lon="6.81792">
        <ele>813</ele>
        <time>2022-04-05T18:13:39Z</time>
      </trkpt>
      <trkpt lat="47.97961" lon="6.81784">
        <ele>815</ele>
        <time>2022-04-05T18:13:41Z</time>
      </trkpt>
      <trkpt lat="47.97981" lon="6.81758">
        <ele>822</ele>
        <time>2022-04-05T18:13:45Z</time>
      </trkpt>
      <trkpt lat="47.98005" lon="6.81743">
        <ele>826</ele>
        <time>2022-04-05T18:13:50Z</time>
      </trkpt>
      <trkpt lat="47.98017" lon="6.81738">
        <ele>825</ele>
        <time>2022-04-05T18:13:52Z</time>
      </trkpt>
      <trkpt lat="47.98029" lon="6.81738">
        <ele>824</ele>
        <time>2022-04-05T18:13:54Z</time>
      </trkpt>
      <trkpt lat="47.98117" lon="6.81771">
        <ele>817</ele>
        <time>2022-04-05T18:14:10Z</time>
      </trkpt>
      <trkpt lat="47.98137" lon="6.81787">
        <ele>817</ele>
        <time>2022-04-05T18:14:15Z</time>
      </trkpt>
      <trkpt lat="47.98169" lon="6.81841">
        <ele>812</ele>
        <time>2022-04-05T18:14:23Z</time>
      </trkpt>
      <trkpt lat="47.98187" lon="6.81922">
        <ele>805</ele>
        <time>2022-04-05T18:14:33Z</time>
      </trkpt>
      <trkpt lat="47.98223" lon="6.82165">
        <ele>790</ele>
        <time>2022-04-05T18:15:03Z</time>
      </trkpt>
      <trkpt lat="47.98232" lon="6.82196">
        <ele>789</ele>
        <time>2022-04-05T18:15:07Z</time>
      </trkpt>
      <trkpt lat="47.98247" lon="6.82238">
        <ele>789</ele>
        <time>2022-04-05T18:15:13Z</time>
      </trkpt>
      <trkpt lat="47.9825" lon="6.82264">
        <ele>787</ele>
        <time>2022-04-05T18:15:16Z</time>
      </trkpt>
      <trkpt lat="47.9825" lon="6.82336">
        <ele>782</ele>
        <time>2022-04-05T18:15:24Z</time>
      </trkpt>
      <trkpt lat="47.98249" lon="6.82375">
        <ele>777</ele>
        <time>2022-04-05T18:15:29Z</time>
      </trkpt>
      <trkpt lat="47.98253" lon="6.82389">
        <ele>777</ele>
        <time>2022-04-05T18:15:31Z</time>
      </trkpt>
      <trkpt lat="47.98265" lon="6.82412">
        <ele>777</ele>
        <time>2022-04-05T18:15:34Z</time>
      </trkpt>
      <trkpt lat="47.98274" lon="6.82435">
        <ele>778</ele>
        <time>2022-04-05T18:15:37Z</time>
      </trkpt>
      <trkpt lat="47.98288" lon="6.82507">
        <ele>774</ele>
        <time>2022-04-05T18:15:46Z</time>
      </trkpt>
      <trkpt lat="47.9829" lon="6.82525">
        <ele>772</ele>
        <time>2022-04-05T18:15:49Z</time>
      </trkpt>
      <trkpt lat="47.98288" lon="6.82535">
        <ele>771</ele>
        <time>2022-04-05T18:15:50Z</time>
      </trkpt>
      <trkpt lat="47.98284" lon="6.82539">
        <ele>770</ele>
        <time>2022-04-05T18:15:51Z</time>
      </trkpt>
      <trkpt lat="47.98278" lon="6.8254">
        <ele>768</ele>
        <time>2022-04-05T18:15:52Z</time>
      </trkpt>
      <trkpt lat="47.98271" lon="6.82535">
        <ele>767</ele>
        <time>2022-04-05T18:15:53Z</time>
      </trkpt>
      <trkpt lat="47.98238" lon="6.82448">
        <ele>767</ele>
        <time>2022-04-05T18:16:05Z</time>
      </trkpt>
      <trkpt lat="47.98197" lon="6.82391">
        <ele>758</ele>
        <time>2022-04-05T18:16:15Z</time>
      </trkpt>
      <trkpt lat="47.98187" lon="6.82369">
        <ele>756</ele>
        <time>2022-04-05T18:16:18Z</time>
      </trkpt>
      <trkpt lat="47.98161" lon="6.82298">
        <ele>753</ele>
        <time>2022-04-05T18:16:28Z</time>
      </trkpt>
      <trkpt lat="47.98121" lon="6.82243">
        <ele>746</ele>
        <time>2022-04-05T18:16:37Z</time>
      </trkpt>
      <trkpt lat="47.98111" lon="6.82224">
        <ele>745</ele>
        <time>2022-04-05T18:16:40Z</time>
      </trkpt>
      <trkpt lat="47.98086" lon="6.82145">
        <ele>745</ele>
        <time>2022-04-05T18:16:51Z</time>
      </trkpt>
      <trkpt lat="47.98074" lon="6.82129">
        <ele>746</ele>
        <time>2022-04-05T18:16:54Z</time>
      </trkpt>
      <trkpt lat="47.98065" lon="6.82128">
        <ele>745</ele>
        <time>2022-04-05T18:16:55Z</time>
      </trkpt>
      <trkpt lat="47.9806" lon="6.8214">
        <ele>743</ele>
        <time>2022-04-05T18:16:57Z</time>
      </trkpt>
      <trkpt lat="47.9806" lon="6.82158">
        <ele>740</ele>
        <time>2022-04-05T18:16:59Z</time>
      </trkpt>
      <trkpt lat="47.98088" lon="6.82295">
        <ele>733</ele>
        <time>2022-04-05T18:17:16Z</time>
      </trkpt>
      <trkpt lat="47.98088" lon="6.82308">
        <ele>732</ele>
        <time>2022-04-05T18:17:18Z</time>
      </trkpt>
      <trkpt lat="47.98082" lon="6.82317">
        <ele>730</ele>
        <time>2022-04-05T18:17:19Z</time>
      </trkpt>
      <trkpt lat="47.98076" lon="6.8232">
        <ele>728</ele>
        <time>2022-04-05T18:17:20Z</time>
      </trkpt>
      <trkpt lat="47.98067" lon="6.82319">
        <ele>727</ele>
        <time>2022-04-05T18:17:22Z</time>
      </trkpt>
      <trkpt lat="47.98028" lon="6.82239">
        <ele>728</ele>
        <time>2022-04-05T18:17:34Z</time>
      </trkpt>
      <trkpt lat="47.9802" lon="6.82228">
        <ele>728</ele>
        <time>2022-04-05T18:17:36Z</time>
      </trkpt>
      <trkpt lat="47.98002" lon="6.82221">
        <ele>726</ele>
        <time>2022-04-05T18:17:39Z</time>
      </trkpt>
      <trkpt lat="47.97877" lon="6.82206">
        <ele>709</ele>
        <time>2022-04-05T18:18:01Z</time>
      </trkpt>
      <trkpt lat="47.97868" lon="6.82209">
        <ele>707</ele>
        <time>2022-04-05T18:18:03Z</time>
      </trkpt>
      <trkpt lat="47.97862" lon="6.82214">
        <ele>706</ele>
        <time>2022-04-05T18:18:04Z</time>
      </trkpt>
      <trkpt lat="47.97857" lon="6.82222">
        <ele>703</ele>
        <time>2022-04-05T18:18:05Z</time>
      </trkpt>
      <trkpt lat="47.97856" lon="6.82235">
        <ele>701</ele>
        <time>2022-04-05T18:18:07Z</time>
      </trkpt>
      <trkpt lat="47.97859" lon="6.82246">
        <ele>699</ele>
        <time>2022-04-05T18:18:08Z</time>
      </trkpt>
      <trkpt lat="47.9787" lon="6.82259">
        <ele>699</ele>
        <time>2022-04-05T18:18:11Z</time>
      </trkpt>
      <trkpt lat="47.97908" lon="6.82293">
        <ele>700</ele>
        <time>2022-04-05T18:18:19Z</time>
      </trkpt>
      <trkpt lat="47.97915" lon="6.82315">
        <ele>698</ele>
        <time>2022-04-05T18:18:22Z</time>
      </trkpt>
      <trkpt lat="47.97914" lon="6.82328">
        <ele>696</ele>
        <time>2022-04-05T18:18:23Z</time>
      </trkpt>
      <trkpt lat="47.97908" lon="6.82337">
        <ele>694</ele>
        <time>2022-04-05T18:18:25Z</time>
      </trkpt>
      <trkpt lat="47.97885" lon="6.82347">
        <ele>689</ele>
        <time>2022-04-05T18:18:29Z</time>
      </trkpt>
      <trkpt lat="47.97875" lon="6.82346">
        <ele>688</ele>
        <time>2022-04-05T18:18:31Z</time>
      </trkpt>
      <trkpt lat="47.97857" lon="6.82334">
        <ele>687</ele>
        <time>2022-04-05T18:18:34Z</time>
      </trkpt>
      <trkpt lat="47.97815" lon="6.82302">
        <ele>688</ele>
        <time>2022-04-05T18:18:43Z</time>
      </trkpt>
      <trkpt lat="47.97803" lon="6.82298">
        <ele>690</ele>
        <time>2022-04-05T18:18:45Z</time>
      </trkpt>
      <trkpt lat="47.97789" lon="6.823">
        <ele>691</ele>
        <time>2022-04-05T18:18:47Z</time>
      </trkpt>
      <trkpt lat="47.97774" lon="6.82318">
        <ele>689</ele>
        <time>2022-04-05T18:18:51Z</time>
      </trkpt>
      <trkpt lat="47.97761" lon="6.82336">
        <ele>686</ele>
        <time>2022-04-05T18:18:54Z</time>
      </trkpt>
      <trkpt lat="47.97728" lon="6.82393">
        <ele>682</ele>
        <time>2022-04-05T18:19:03Z</time>
      </trkpt>
      <trkpt lat="47.97713" lon="6.8241">
        <ele>681</ele>
        <time>2022-04-05T18:19:06Z</time>
      </trkpt>
      <trkpt lat="47.97695" lon="6.82418">
        <ele>681</ele>
        <time>2022-04-05T18:19:10Z</time>
      </trkpt>
      <trkpt lat="47.97637" lon="6.82429">
        <ele>681</ele>
        <time>2022-04-05T18:19:20Z</time>
      </trkpt>
      <trkpt lat="47.97602" lon="6.82433">
        <ele>678</ele>
        <time>2022-04-05T18:19:26Z</time>
      </trkpt>
      <trkpt lat="47.97589" lon="6.82431">
        <ele>678</ele>
        <time>2022-04-05T18:19:29Z</time>
      </trkpt>
      <trkpt lat="47.97565" lon="6.82432">
        <ele>675</ele>
        <time>2022-04-05T18:19:33Z</time>
      </trkpt>
      <trkpt lat="47.97529" lon="6.82416">
        <ele>673</ele>
        <time>2022-04-05T18:19:39Z</time>
      </trkpt>
      <trkpt lat="47.97501" lon="6.82412">
        <ele>670</ele>
        <time>2022-04-05T18:19:45Z</time>
      </trkpt>
      <trkpt lat="47.97466" lon="6.82417">
        <ele>664</ele>
        <time>2022-04-05T18:19:51Z</time>
      </trkpt>
      <trkpt lat="47.97434" lon="6.82412">
        <ele>662</ele>
        <time>2022-04-05T18:19:56Z</time>
      </trkpt>
      <trkpt lat="47.97357" lon="6.82423">
        <ele>650</ele>
        <time>2022-04-05T18:20:10Z</time>
      </trkpt>
      <trkpt lat="47.97261" lon="6.82419">
        <ele>643</ele>
        <time>2022-04-05T18:20:27Z</time>
      </trkpt>
      <trkpt lat="47.97213" lon="6.82424">
        <ele>638</ele>
        <time>2022-04-05T18:20:36Z</time>
      </trkpt>
      <trkpt lat="47.97148" lon="6.82419">
        <ele>635</ele>
        <time>2022-04-05T18:20:47Z</time>
      </trkpt>
      <trkpt lat="47.97117" lon="6.82404">
        <ele>635</ele>
        <time>2022-04-05T18:20:53Z</time>
      </trkpt>
      <trkpt lat="47.97101" lon="6.824">
        <ele>635</ele>
        <time>2022-04-05T18:20:56Z</time>
      </trkpt>
      <trkpt lat="47.97087" lon="6.82414">
        <ele>632</ele>
        <time>2022-04-05T18:20:59Z</time>
      </trkpt>
      <trkpt lat="47.97049" lon="6.82524">
        <ele>618</ele>
        <time>2022-04-05T18:21:14Z</time>
      </trkpt>
      <trkpt lat="47.9704" lon="6.82542">
        <ele>616</ele>
        <time>2022-04-05T18:21:17Z</time>
      </trkpt>
      <trkpt lat="47.96989" lon="6.82611">
        <ele>608</ele>
        <time>2022-04-05T18:21:29Z</time>
      </trkpt>
      <trkpt lat="47.96974" lon="6.82636">
        <ele>607</ele>
        <time>2022-04-05T18:21:33Z</time>
      </trkpt>
      <trkpt lat="47.96955" lon="6.82678">
        <ele>603</ele>
        <time>2022-04-05T18:21:39Z</time>
      </trkpt>
      <trkpt lat="47.96886" lon="6.82784">
        <ele>593</ele>
        <time>2022-04-05T18:21:56Z</time>
      </trkpt>
      <trkpt lat="47.96871" lon="6.82812">
        <ele>590</ele>
        <time>2022-04-05T18:22:01Z</time>
      </trkpt>
      <trkpt lat="47.96853" lon="6.8286">
        <ele>582</ele>
        <time>2022-04-05T18:22:07Z</time>
      </trkpt>
      <trkpt lat="47.96842" lon="6.82874">
        <ele>580</ele>
        <time>2022-04-05T18:22:10Z</time>
      </trkpt>
      <trkpt lat="47.96815" lon="6.82889">
        <ele>579</ele>
        <time>2022-04-05T18:22:15Z</time>
      </trkpt>
      <trkpt lat="47.96797" lon="6.82916">
        <ele>575</ele>
        <time>2022-04-05T18:22:20Z</time>
      </trkpt>
      <trkpt lat="47.9678" lon="6.82933">
        <ele>573</ele>
        <time>2022-04-05T18:22:23Z</time>
      </trkpt>
      <trkpt lat="47.96758" lon="6.82949">
        <ele>571</ele>
        <time>2022-04-05T18:22:28Z</time>
      </trkpt>
      <trkpt lat="47.96713" lon="6.82985">
        <ele>566</ele>
        <time>2022-04-05T18:22:37Z</time>
      </trkpt>
      <trkpt lat="47.96661" lon="6.83023">
        <ele>560</ele>
        <time>2022-04-05T18:22:47Z</time>
      </trkpt>
      <trkpt lat="47.96619" lon="6.83043">
        <ele>556</ele>
        <time>2022-04-05T18:22:55Z</time>
      </trkpt>
      <trkpt lat="47.96591" lon="6.83062">
        <ele>553</ele>
        <time>2022-04-05T18:23:00Z</time>
      </trkpt>
      <trkpt lat="47.96511" lon="6.83115">
        <ele>544</ele>
        <time>2022-04-05T18:23:16Z</time>
      </trkpt>
      <trkpt lat="47.965" lon="6.83124">
        <ele>543</ele>
        <time>2022-04-05T18:23:18Z</time>
      </trkpt>
      <trkpt lat="47.96488" lon="6.83136">
        <ele>540</ele>
        <time>2022-04-05T18:23:21Z</time>
      </trkpt>
      <trkpt lat="47.96481" lon="6.83149">
        <ele>538</ele>
        <time>2022-04-05T18:23:23Z</time>
      </trkpt>
      <trkpt lat="47.96478" lon="6.83161">
        <ele>537</ele>
        <time>2022-04-05T18:23:24Z</time>
      </trkpt>
      <trkpt lat="47.96478" lon="6.8317">
        <ele>536</ele>
        <time>2022-04-05T18:23:25Z</time>
      </trkpt>
      <trkpt lat="47.96483" lon="6.83202">
        <ele>534</ele>
        <time>2022-04-05T18:23:29Z</time>
      </trkpt>
      <trkpt lat="47.9649" lon="6.83217">
        <ele>533</ele>
        <time>2022-04-05T18:23:31Z</time>
      </trkpt>
      <trkpt lat="47.96514" lon="6.83253">
        <ele>531</ele>
        <time>2022-04-05T18:23:37Z</time>
      </trkpt>
      <trkpt lat="47.9652" lon="6.83265">
        <ele>530</ele>
        <time>2022-04-05T18:23:39Z</time>
      </trkpt>
      <trkpt lat="47.96523" lon="6.83275">
        <ele>529</ele>
        <time>2022-04-05T18:23:40Z</time>
      </trkpt>
      <trkpt lat="47.96522" lon="6.83294">
        <ele>528</ele>
        <time>2022-04-05T18:23:43Z</time>
      </trkpt>
      <trkpt lat="47.96513" lon="6.83346">
        <ele>524</ele>
        <time>2022-04-05T18:23:49Z</time>
      </trkpt>
      <trkpt lat="47.96511" lon="6.83362">
        <ele>522</ele>
        <time>2022-04-05T18:23:51Z</time>
      </trkpt>
      <trkpt lat="47.96509" lon="6.834">
        <ele>519</ele>
        <time>2022-04-05T18:23:56Z</time>
      </trkpt>
      <trkpt lat="47.96506" lon="6.83409">
        <ele>518</ele>
        <time>2022-04-05T18:23:57Z</time>
      </trkpt>
      <trkpt lat="47.96501" lon="6.83421">
        <ele>517</ele>
        <time>2022-04-05T18:23:58Z</time>
      </trkpt>
      <trkpt lat="47.96477" lon="6.8345">
        <ele>516</ele>
        <time>2022-04-05T18:24:04Z</time>
      </trkpt>
      <trkpt lat="47.96433" lon="6.83501">
        <ele>515</ele>
        <time>2022-04-05T18:24:14Z</time>
      </trkpt>
      <trkpt lat="47.9643" lon="6.83503">
        <ele>515</ele>
        <time>2022-04-05T18:24:14Z</time>
      </trkpt>
      <trkpt lat="47.96432" lon="6.8351">
        <ele>515</ele>
        <time>2022-04-05T18:24:15Z</time>
      </trkpt>
      <trkpt lat="47.96439" lon="6.83531">
        <ele>514</ele>
        <time>2022-04-05T18:24:18Z</time>
      </trkpt>
      <trkpt lat="47.96444" lon="6.83549">
        <ele>514</ele>
        <time>2022-04-05T18:24:20Z</time>
      </trkpt>
      <trkpt lat="47.96444" lon="6.83551">
        <ele>514</ele>
        <time>2022-04-05T18:24:21Z</time>
      </trkpt>
      <trkpt lat="47.96445" lon="6.83555">
        <ele>514</ele>
        <time>2022-04-05T18:24:21Z</time>
      </trkpt>
      <trkpt lat="47.96448" lon="6.83569">
        <ele>514</ele>
        <time>2022-04-05T18:24:23Z</time>
      </trkpt>
      <trkpt lat="47.96418" lon="6.83591">
        <ele>513</ele>
        <time>2022-04-05T18:24:29Z</time>
      </trkpt>
      <trkpt lat="47.96341" lon="6.83671">
        <ele>512</ele>
        <time>2022-04-05T18:24:46Z</time>
      </trkpt>
      <trkpt lat="47.96291" lon="6.83713">
        <ele>512</ele>
        <time>2022-04-05T18:24:56Z</time>
      </trkpt>
      <trkpt lat="47.96312" lon="6.83776">
        <ele>512</ele>
        <time>2022-04-05T18:25:04Z</time>
      </trkpt>
      <trkpt lat="47.96324" lon="6.83823">
        <ele>512</ele>
        <time>2022-04-05T18:25:10Z</time>
      </trkpt>
      <trkpt lat="47.96328" lon="6.83833">
        <ele>512</ele>
        <time>2022-04-05T18:25:12Z</time>
      </trkpt>
      <trkpt lat="47.96335" lon="6.83862">
        <ele>512</ele>
        <time>2022-04-05T18:25:15Z</time>
      </trkpt>
      <trkpt lat="47.96357" lon="6.83953">
        <ele>516</ele>
        <time>2022-04-05T18:25:27Z</time>
      </trkpt>
      <trkpt lat="47.96366" lon="6.83979">
        <ele>518</ele>
        <time>2022-04-05T18:25:30Z</time>
      </trkpt>
      <trkpt lat="47.96476" lon="6.84243">
        <ele>527</ele>
        <time>2022-04-05T18:26:07Z</time>
      </trkpt>
      <trkpt lat="47.965" lon="6.84315">
        <ele>524</ele>
        <time>2022-04-05T18:26:17Z</time>
      </trkpt>
      <trkpt lat="47.96515" lon="6.84367">
        <ele>529</ele>
        <time>2022-04-05T18:26:24Z</time>
      </trkpt>
      <trkpt lat="47.96562" lon="6.84538">
        <ele>532</ele>
        <time>2022-04-05T18:26:46Z</time>
      </trkpt>
      <trkpt lat="47.96593" lon="6.8463">
        <ele>526</ele>
        <time>2022-04-05T18:26:58Z</time>
      </trkpt>
      <trkpt lat="47.96602" lon="6.84675">
        <ele>528</ele>
        <time>2022-04-05T18:27:04Z</time>
      </trkpt>
      <trkpt lat="47.96606" lon="6.84729">
        <ele>531</ele>
        <time>2022-04-05T18:27:10Z</time>
      </trkpt>
      <trkpt lat="47.96604" lon="6.84758">
        <ele>532</ele>
        <time>2022-04-05T18:27:13Z</time>
      </trkpt>
      <trkpt lat="47.966" lon="6.84782">
        <ele>531</ele>
        <time>2022-04-05T18:27:16Z</time>
      </trkpt>
      <trkpt lat="47.96578" lon="6.84886">
        <ele>529</ele>
        <time>2022-04-05T18:27:29Z</time>
      </trkpt>
      <trkpt lat="47.96576" lon="6.84927">
        <ele>528</ele>
        <time>2022-04-05T18:27:34Z</time>
      </trkpt>
      <trkpt lat="47.96577" lon="6.84959">
        <ele>529</ele>
        <time>2022-04-05T18:27:38Z</time>
      </trkpt>
      <trkpt lat="47.9658" lon="6.84978">
        <ele>529</ele>
        <time>2022-04-05T18:27:40Z</time>
      </trkpt>
      <trkpt lat="47.96636" lon="6.85154">
        <ele>533</ele>
        <time>2022-04-05T18:28:04Z</time>
      </trkpt>
      <trkpt lat="47.96665" lon="6.85254">
        <ele>536</ele>
        <time>2022-04-05T18:28:17Z</time>
      </trkpt>
      <trkpt lat="47.9667" lon="6.85276">
        <ele>537</ele>
        <time>2022-04-05T18:28:19Z</time>
      </trkpt>
      <trkpt lat="47.96675" lon="6.85279">
        <ele>538</ele>
        <time>2022-04-05T18:28:20Z</time>
      </trkpt>
      <trkpt lat="47.96683" lon="6.85302">
        <ele>539</ele>
        <time>2022-04-05T18:28:23Z</time>
      </trkpt>
      <trkpt lat="47.96693" lon="6.85367">
        <ele>541</ele>
        <time>2022-04-05T18:28:31Z</time>
      </trkpt>
      <trkpt lat="47.96702" lon="6.85414">
        <ele>543</ele>
        <time>2022-04-05T18:28:37Z</time>
      </trkpt>
      <trkpt lat="47.96706" lon="6.85422">
        <ele>544</ele>
        <time>2022-04-05T18:28:38Z</time>
      </trkpt>
      <trkpt lat="47.96706" lon="6.85431">
        <ele>544</ele>
        <time>2022-04-05T18:28:39Z</time>
      </trkpt>
      <trkpt lat="47.96713" lon="6.85454">
        <ele>545</ele>
        <time>2022-04-05T18:28:42Z</time>
      </trkpt>
      <trkpt lat="47.9672" lon="6.85496">
        <ele>547</ele>
        <time>2022-04-05T18:28:48Z</time>
      </trkpt>
      <trkpt lat="47.96722" lon="6.85499">
        <ele>548</ele>
        <time>2022-04-05T18:28:48Z</time>
      </trkpt>
      <trkpt lat="47.96729" lon="6.85546">
        <ele>548</ele>
        <time>2022-04-05T18:28:54Z</time>
      </trkpt>
      <trkpt lat="47.96728" lon="6.85557">
        <ele>548</ele>
        <time>2022-04-05T18:28:55Z</time>
      </trkpt>
      <trkpt lat="47.96725" lon="6.85559">
        <ele>547</ele>
        <time>2022-04-05T18:28:56Z</time>
      </trkpt>
      <trkpt lat="47.96744" lon="6.85621">
        <ele>548</ele>
        <time>2022-04-05T18:29:04Z</time>
      </trkpt>
      <trkpt lat="47.96801" lon="6.85743">
        <ele>549</ele>
        <time>2022-04-05T18:29:22Z</time>
      </trkpt>
      <trkpt lat="47.96826" lon="6.85801">
        <ele>549</ele>
        <time>2022-04-05T18:29:30Z</time>
      </trkpt>
      <trkpt lat="47.96833" lon="6.85822">
        <ele>548</ele>
        <time>2022-04-05T18:29:33Z</time>
      </trkpt>
      <trkpt lat="47.96843" lon="6.85868">
        <ele>551</ele>
        <time>2022-04-05T18:29:38Z</time>
      </trkpt>
      <trkpt lat="47.96852" lon="6.85939">
        <ele>554</ele>
        <time>2022-04-05T18:29:47Z</time>
      </trkpt>
      <trkpt lat="47.96856" lon="6.85958">
        <ele>555</ele>
        <time>2022-04-05T18:29:49Z</time>
      </trkpt>
      <trkpt lat="47.96864" lon="6.8598">
        <ele>556</ele>
        <time>2022-04-05T18:29:52Z</time>
      </trkpt>
      <trkpt lat="47.96872" lon="6.86">
        <ele>556</ele>
        <time>2022-04-05T18:29:55Z</time>
      </trkpt>
      <trkpt lat="47.96879" lon="6.86012">
        <ele>556</ele>
        <time>2022-04-05T18:29:57Z</time>
      </trkpt>
      <trkpt lat="47.9694" lon="6.86119">
        <ele>556</ele>
        <time>2022-04-05T18:30:14Z</time>
      </trkpt>
      <trkpt lat="47.96952" lon="6.86145">
        <ele>557</ele>
        <time>2022-04-05T18:30:18Z</time>
      </trkpt>
      <trkpt lat="47.96957" lon="6.86157">
        <ele>557</ele>
        <time>2022-04-05T18:30:19Z</time>
      </trkpt>
      <trkpt lat="47.96959" lon="6.8617">
        <ele>557</ele>
        <time>2022-04-05T18:30:21Z</time>
      </trkpt>
      <trkpt lat="47.96958" lon="6.86181">
        <ele>556</ele>
        <time>2022-04-05T18:30:22Z</time>
      </trkpt>
      <trkpt lat="47.96956" lon="6.86188">
        <ele>556</ele>
        <time>2022-04-05T18:30:23Z</time>
      </trkpt>
      <trkpt lat="47.96953" lon="6.86196">
        <ele>556</ele>
        <time>2022-04-05T18:30:24Z</time>
      </trkpt>
      <trkpt lat="47.96945" lon="6.86214">
        <ele>556</ele>
        <time>2022-04-05T18:30:27Z</time>
      </trkpt>
      <trkpt lat="47.96939" lon="6.86229">
        <ele>556</ele>
        <time>2022-04-05T18:30:29Z</time>
      </trkpt>
      <trkpt lat="47.96937" lon="6.86242">
        <ele>556</ele>
        <time>2022-04-05T18:30:30Z</time>
      </trkpt>
      <trkpt lat="47.96938" lon="6.86259">
        <ele>557</ele>
        <time>2022-04-05T18:30:32Z</time>
      </trkpt>
      <trkpt lat="47.9695" lon="6.86282">
        <ele>558</ele>
        <time>2022-04-05T18:30:36Z</time>
      </trkpt>
      <trkpt lat="47.96967" lon="6.86315">
        <ele>559</ele>
        <time>2022-04-05T18:30:41Z</time>
      </trkpt>
      <trkpt lat="47.97" lon="6.86386">
        <ele>564</ele>
        <time>2022-04-05T18:30:51Z</time>
      </trkpt>
      <trkpt lat="47.97076" lon="6.86544">
        <ele>578</ele>
        <time>2022-04-05T18:31:14Z</time>
      </trkpt>
      <trkpt lat="47.97107" lon="6.86593">
        <ele>581</ele>
        <time>2022-04-05T18:31:22Z</time>
      </trkpt>
      <trkpt lat="47.97113" lon="6.86608">
        <ele>581</ele>
        <time>2022-04-05T18:31:24Z</time>
      </trkpt>
      <trkpt lat="47.97134" lon="6.86683">
        <ele>583</ele>
        <time>2022-04-05T18:31:34Z</time>
      </trkpt>
      <trkpt lat="47.97138" lon="6.86706">
        <ele>584</ele>
        <time>2022-04-05T18:31:37Z</time>
      </trkpt>
      <trkpt lat="47.97154" lon="6.86802">
        <ele>589</ele>
        <time>2022-04-05T18:31:49Z</time>
      </trkpt>
      <trkpt lat="47.97165" lon="6.86853">
        <ele>592</ele>
        <time>2022-04-05T18:31:55Z</time>
      </trkpt>
      <trkpt lat="47.97182" lon="6.86926">
        <ele>597</ele>
        <time>2022-04-05T18:32:04Z</time>
      </trkpt>
      <trkpt lat="47.97194" lon="6.86966">
        <ele>598</ele>
        <time>2022-04-05T18:32:10Z</time>
      </trkpt>
      <trkpt lat="47.97204" lon="6.86993">
        <ele>599</ele>
        <time>2022-04-05T18:32:13Z</time>
      </trkpt>
      <trkpt lat="47.97267" lon="6.87099">
        <ele>604</ele>
        <time>2022-04-05T18:32:30Z</time>
      </trkpt>
      <trkpt lat="47.97278" lon="6.87131">
        <ele>606</ele>
        <time>2022-04-05T18:32:34Z</time>
      </trkpt>
      <trkpt lat="47.9733" lon="6.87347">
        <ele>619</ele>
        <time>2022-04-05T18:33:02Z</time>
      </trkpt>
      <trkpt lat="47.97345" lon="6.87426">
        <ele>623</ele>
        <time>2022-04-05T18:33:12Z</time>
      </trkpt>
      <trkpt lat="47.9736" lon="6.87482">
        <ele>630</ele>
        <time>2022-04-05T18:33:19Z</time>
      </trkpt>
      <trkpt lat="47.97365" lon="6.87501">
        <ele>631</ele>
        <time>2022-04-05T18:33:21Z</time>
      </trkpt>
      <trkpt lat="47.97399" lon="6.87637">
        <ele>639</ele>
        <time>2022-04-05T18:33:38Z</time>
      </trkpt>
      <trkpt lat="47.97445" lon="6.87813">
        <ele>651</ele>
        <time>2022-04-05T18:34:01Z</time>
      </trkpt>
      <trkpt lat="47.97452" lon="6.87854">
        <ele>653</ele>
        <time>2022-04-05T18:34:06Z</time>
      </trkpt>
      <trkpt lat="47.97452" lon="6.87875">
        <ele>654</ele>
        <time>2022-04-05T18:34:08Z</time>
      </trkpt>
      <trkpt lat="47.97432" lon="6.88071">
        <ele>667</ele>
        <time>2022-04-05T18:34:32Z</time>
      </trkpt>
      <trkpt lat="47.97434" lon="6.88097">
        <ele>668</ele>
        <time>2022-04-05T18:34:35Z</time>
      </trkpt>
      <trkpt lat="47.97431" lon="6.88143">
        <ele>670</ele>
        <time>2022-04-05T18:34:41Z</time>
      </trkpt>
      <trkpt lat="47.97429" lon="6.88193">
        <ele>672</ele>
        <time>2022-04-05T18:34:47Z</time>
      </trkpt>
      <trkpt lat="47.97423" lon="6.88233">
        <ele>672</ele>
        <time>2022-04-05T18:34:52Z</time>
      </trkpt>
      <trkpt lat="47.97412" lon="6.88277">
        <ele>676</ele>
        <time>2022-04-05T18:34:57Z</time>
      </trkpt>
      <trkpt lat="47.97409" lon="6.8837">
        <ele>678</ele>
        <time>2022-04-05T18:35:08Z</time>
      </trkpt>
      <trkpt lat="47.97396" lon="6.88446">
        <ele>685</ele>
        <time>2022-04-05T18:35:18Z</time>
      </trkpt>
      <trkpt lat="47.97389" lon="6.88505">
        <ele>689</ele>
        <time>2022-04-05T18:35:25Z</time>
      </trkpt>
      <trkpt lat="47.97382" lon="6.88574">
        <ele>695</ele>
        <time>2022-04-05T18:35:33Z</time>
      </trkpt>
      <trkpt lat="47.97381" lon="6.8859">
        <ele>696</ele>
        <time>2022-04-05T18:35:35Z</time>
      </trkpt>
      <trkpt lat="47.97364" lon="6.88626">
        <ele>704</ele>
        <time>2022-04-05T18:35:40Z</time>
      </trkpt>
      <trkpt lat="47.97363" lon="6.88645">
        <ele>705</ele>
        <time>2022-04-05T18:35:42Z</time>
      </trkpt>
      <trkpt lat="47.97365" lon="6.88674">
        <ele>704</ele>
        <time>2022-04-05T18:35:46Z</time>
      </trkpt>
      <trkpt lat="47.9736" lon="6.88697">
        <ele>705</ele>
        <time>2022-04-05T18:35:49Z</time>
      </trkpt>
      <trkpt lat="47.97341" lon="6.88761">
        <ele>710</ele>
        <time>2022-04-05T18:35:57Z</time>
      </trkpt>
      <trkpt lat="47.97338" lon="6.88832">
        <ele>713</ele>
        <time>2022-04-05T18:36:06Z</time>
      </trkpt>
      <trkpt lat="47.97339" lon="6.88917">
        <ele>716</ele>
        <time>2022-04-05T18:36:16Z</time>
      </trkpt>
      <trkpt lat="47.97345" lon="6.88968">
        <ele>719</ele>
        <time>2022-04-05T18:36:22Z</time>
      </trkpt>
      <trkpt lat="47.97357" lon="6.89001">
        <ele>718</ele>
        <time>2022-04-05T18:36:26Z</time>
      </trkpt>
      <trkpt lat="47.97368" lon="6.89062">
        <ele>720</ele>
        <time>2022-04-05T18:36:34Z</time>
      </trkpt>
      <trkpt lat="47.97374" lon="6.89116">
        <ele>723</ele>
        <time>2022-04-05T18:36:40Z</time>
      </trkpt>
      <trkpt lat="47.97373" lon="6.89157">
        <ele>728</ele>
        <time>2022-04-05T18:36:45Z</time>
      </trkpt>
      <trkpt lat="47.97377" lon="6.89202">
        <ele>730</ele>
        <time>2022-04-05T18:36:51Z</time>
      </trkpt>
      <trkpt lat="47.97369" lon="6.89359">
        <ele>736</ele>
        <time>2022-04-05T18:37:10Z</time>
      </trkpt>
      <trkpt lat="47.97362" lon="6.89439">
        <ele>739</ele>
        <time>2022-04-05T18:37:19Z</time>
      </trkpt>
      <trkpt lat="47.97358" lon="6.89455">
        <ele>741</ele>
        <time>2022-04-05T18:37:21Z</time>
      </trkpt>
      <trkpt lat="47.97352" lon="6.89483">
        <ele>744</ele>
        <time>2022-04-05T18:37:25Z</time>
      </trkpt>
      <trkpt lat="47.97351" lon="6.89523">
        <ele>745</ele>
        <time>2022-04-05T18:37:29Z</time>
      </trkpt>
      <trkpt lat="47.97353" lon="6.89567">
        <ele>745</ele>
        <time>2022-04-05T18:37:35Z</time>
      </trkpt>
      <trkpt lat="47.97355" lon="6.89599">
        <ele>745</ele>
        <time>2022-04-05T18:37:39Z</time>
      </trkpt>
      <trkpt lat="47.97348" lon="6.8965">
        <ele>749</ele>
        <time>2022-04-05T18:37:45Z</time>
      </trkpt>
      <trkpt lat="47.97347" lon="6.89686">
        <ele>752</ele>
        <time>2022-04-05T18:37:49Z</time>
      </trkpt>
      <trkpt lat="47.97339" lon="6.89721">
        <ele>755</ele>
        <time>2022-04-05T18:37:53Z</time>
      </trkpt>
      <trkpt lat="47.97321" lon="6.89787">
        <ele>764</ele>
        <time>2022-04-05T18:38:02Z</time>
      </trkpt>
      <trkpt lat="47.97322" lon="6.89804">
        <ele>764</ele>
        <time>2022-04-05T18:38:04Z</time>
      </trkpt>
      <trkpt lat="47.97326" lon="6.89824">
        <ele>764</ele>
        <time>2022-04-05T18:38:06Z</time>
      </trkpt>
      <trkpt lat="47.97329" lon="6.8985">
        <ele>766</ele>
        <time>2022-04-05T18:38:10Z</time>
      </trkpt>
      <trkpt lat="47.97331" lon="6.89864">
        <ele>767</ele>
        <time>2022-04-05T18:38:11Z</time>
      </trkpt>
      <trkpt lat="47.97335" lon="6.89876">
        <ele>768</ele>
        <time>2022-04-05T18:38:13Z</time>
      </trkpt>
      <trkpt lat="47.97346" lon="6.89904">
        <ele>771</ele>
        <time>2022-04-05T18:38:17Z</time>
      </trkpt>
      <trkpt lat="47.9735" lon="6.89922">
        <ele>773</ele>
        <time>2022-04-05T18:38:19Z</time>
      </trkpt>
      <trkpt lat="47.97351" lon="6.89954">
        <ele>776</ele>
        <time>2022-04-05T18:38:23Z</time>
      </trkpt>
      <trkpt lat="47.97355" lon="6.89975">
        <ele>778</ele>
        <time>2022-04-05T18:38:25Z</time>
      </trkpt>
      <trkpt lat="47.97355" lon="6.90006">
        <ele>782</ele>
        <time>2022-04-05T18:38:29Z</time>
      </trkpt>
      <trkpt lat="47.97354" lon="6.90053">
        <ele>788</ele>
        <time>2022-04-05T18:38:35Z</time>
      </trkpt>
      <trkpt lat="47.97363" lon="6.90115">
        <ele>791</ele>
        <time>2022-04-05T18:38:42Z</time>
      </trkpt>
      <trkpt lat="47.97371" lon="6.90184">
        <ele>795</ele>
        <time>2022-04-05T18:38:51Z</time>
      </trkpt>
      <trkpt lat="47.97384" lon="6.90219">
        <ele>796</ele>
        <time>2022-04-05T18:38:55Z</time>
      </trkpt>
      <trkpt lat="47.97416" lon="6.90268">
        <ele>794</ele>
        <time>2022-04-05T18:39:04Z</time>
      </trkpt>
      <trkpt lat="47.97424" lon="6.90286">
        <ele>794</ele>
        <time>2022-04-05T18:39:06Z</time>
      </trkpt>
      <trkpt lat="47.97428" lon="6.90306">
        <ele>796</ele>
        <time>2022-04-05T18:39:09Z</time>
      </trkpt>
      <trkpt lat="47.97433" lon="6.90366">
        <ele>801</ele>
        <time>2022-04-05T18:39:16Z</time>
      </trkpt>
      <trkpt lat="47.97435" lon="6.90428">
        <ele>806</ele>
        <time>2022-04-05T18:39:23Z</time>
      </trkpt>
      <trkpt lat="47.97434" lon="6.90481">
        <ele>807</ele>
        <time>2022-04-05T18:39:29Z</time>
      </trkpt>
      <trkpt lat="47.97439" lon="6.90558">
        <ele>811</ele>
        <time>2022-04-05T18:39:39Z</time>
      </trkpt>
      <trkpt lat="47.97449" lon="6.90618">
        <ele>811</ele>
        <time>2022-04-05T18:39:46Z</time>
      </trkpt>
      <trkpt lat="47.9745" lon="6.90641">
        <ele>812</ele>
        <time>2022-04-05T18:39:49Z</time>
      </trkpt>
      <trkpt lat="47.97449" lon="6.90665">
        <ele>814</ele>
        <time>2022-04-05T18:39:52Z</time>
      </trkpt>
      <trkpt lat="47.9745" lon="6.90681">
        <ele>814</ele>
        <time>2022-04-05T18:39:54Z</time>
      </trkpt>
      <trkpt lat="47.97463" lon="6.90727">
        <ele>814</ele>
        <time>2022-04-05T18:40:00Z</time>
      </trkpt>
      <trkpt lat="47.97463" lon="6.90761">
        <ele>816</ele>
        <time>2022-04-05T18:40:04Z</time>
      </trkpt>
      <trkpt lat="47.97463" lon="6.90787">
        <ele>818</ele>
        <time>2022-04-05T18:40:07Z</time>
      </trkpt>
      <trkpt lat="47.97469" lon="6.90844">
        <ele>821</ele>
        <time>2022-04-05T18:40:14Z</time>
      </trkpt>
      <trkpt lat="47.97472" lon="6.90898">
        <ele>826</ele>
        <time>2022-04-05T18:40:20Z</time>
      </trkpt>
      <trkpt lat="47.97472" lon="6.90968">
        <ele>829</ele>
        <time>2022-04-05T18:40:28Z</time>
      </trkpt>
      <trkpt lat="47.9747" lon="6.91005">
        <ele>829</ele>
        <time>2022-04-05T18:40:33Z</time>
      </trkpt>
      <trkpt lat="47.97465" lon="6.91043">
        <ele>828</ele>
        <time>2022-04-05T18:40:37Z</time>
      </trkpt>
      <trkpt lat="47.97458" lon="6.91063">
        <ele>828</ele>
        <time>2022-04-05T18:40:40Z</time>
      </trkpt>
      <trkpt lat="47.97432" lon="6.91098">
        <ele>831</ele>
        <time>2022-04-05T18:40:46Z</time>
      </trkpt>
      <trkpt lat="47.97428" lon="6.91111">
        <ele>833</ele>
        <time>2022-04-05T18:40:48Z</time>
      </trkpt>
      <trkpt lat="47.97428" lon="6.91123">
        <ele>833</ele>
        <time>2022-04-05T18:40:49Z</time>
      </trkpt>
      <trkpt lat="47.97445" lon="6.91187">
        <ele>832</ele>
        <time>2022-04-05T18:40:58Z</time>
      </trkpt>
      <trkpt lat="47.97454" lon="6.91244">
        <ele>835</ele>
        <time>2022-04-05T18:41:05Z</time>
      </trkpt>
      <trkpt lat="47.97458" lon="6.91269">
        <ele>837</ele>
        <time>2022-04-05T18:41:08Z</time>
      </trkpt>
      <trkpt lat="47.9746" lon="6.91306">
        <ele>841</ele>
        <time>2022-04-05T18:41:12Z</time>
      </trkpt>
      <trkpt lat="47.97483" lon="6.91479">
        <ele>854</ele>
        <time>2022-04-05T18:41:33Z</time>
      </trkpt>
      <trkpt lat="47.97512" lon="6.91531">
        <ele>852</ele>
        <time>2022-04-05T18:41:41Z</time>
      </trkpt>
      <trkpt lat="47.9755" lon="6.91614">
        <ele>855</ele>
        <time>2022-04-05T18:41:53Z</time>
      </trkpt>
      <trkpt lat="47.97614" lon="6.91758">
        <ele>861</ele>
        <time>2022-04-05T18:42:14Z</time>
      </trkpt>
      <trkpt lat="47.97651" lon="6.91803">
        <ele>858</ele>
        <time>2022-04-05T18:42:22Z</time>
      </trkpt>
      <trkpt lat="47.97662" lon="6.91825">
        <ele>858</ele>
        <time>2022-04-05T18:42:26Z</time>
      </trkpt>
      <trkpt lat="47.97678" lon="6.91865">
        <ele>863</ele>
        <time>2022-04-05T18:42:31Z</time>
      </trkpt>
      <trkpt lat="47.97716" lon="6.91888">
        <ele>861</ele>
        <time>2022-04-05T18:42:38Z</time>
      </trkpt>
      <trkpt lat="47.97761" lon="6.9191">
        <ele>857</ele>
        <time>2022-04-05T18:42:47Z</time>
      </trkpt>
      <trkpt lat="47.978" lon="6.91958">
        <ele>860</ele>
        <time>2022-04-05T18:42:56Z</time>
      </trkpt>
      <trkpt lat="47.97833" lon="6.92025">
        <ele>866</ele>
        <time>2022-04-05T18:43:06Z</time>
      </trkpt>
      <trkpt lat="47.97844" lon="6.92037">
        <ele>867</ele>
        <time>2022-04-05T18:43:08Z</time>
      </trkpt>
      <trkpt lat="47.97855" lon="6.9205">
        <ele>868</ele>
        <time>2022-04-05T18:43:11Z</time>
      </trkpt>
      <trkpt lat="47.97866" lon="6.9207">
        <ele>870</ele>
        <time>2022-04-05T18:43:14Z</time>
      </trkpt>
      <trkpt lat="47.97867" lon="6.92091">
        <ele>873</ele>
        <time>2022-04-05T18:43:16Z</time>
      </trkpt>
      <trkpt lat="47.97867" lon="6.92107">
        <ele>876</ele>
        <time>2022-04-05T18:43:18Z</time>
      </trkpt>
      <trkpt lat="47.97865" lon="6.92112">
        <ele>877</ele>
        <time>2022-04-05T18:43:19Z</time>
      </trkpt>
      <trkpt lat="47.97862" lon="6.92112">
        <ele>878</ele>
        <time>2022-04-05T18:43:19Z</time>
      </trkpt>
      <trkpt lat="47.97838" lon="6.92086">
        <ele>877</ele>
        <time>2022-04-05T18:43:25Z</time>
      </trkpt>
      <trkpt lat="47.97795" lon="6.92055">
        <ele>880</ele>
        <time>2022-04-05T18:43:33Z</time>
      </trkpt>
      <trkpt lat="47.97738" lon="6.92004">
        <ele>881</ele>
        <time>2022-04-05T18:43:45Z</time>
      </trkpt>
      <trkpt lat="47.97668" lon="6.91953">
        <ele>885</ele>
        <time>2022-04-05T18:43:59Z</time>
      </trkpt>
      <trkpt lat="47.97572" lon="6.91852">
        <ele>889</ele>
        <time>2022-04-05T18:44:20Z</time>
      </trkpt>
      <trkpt lat="47.97489" lon="6.91746">
        <ele>900</ele>
        <time>2022-04-05T18:44:39Z</time>
      </trkpt>
      <trkpt lat="47.97407" lon="6.91645">
        <ele>906</ele>
        <time>2022-04-05T18:44:58Z</time>
      </trkpt>
      <trkpt lat="47.97327" lon="6.91529">
        <ele>907</ele>
        <time>2022-04-05T18:45:18Z</time>
      </trkpt>
      <trkpt lat="47.97285" lon="6.91456">
        <ele>905</ele>
        <time>2022-04-05T18:45:29Z</time>
      </trkpt>
      <trkpt lat="47.97237" lon="6.91412">
        <ele>907</ele>
        <time>2022-04-05T18:45:39Z</time>
      </trkpt>
      <trkpt lat="47.97182" lon="6.9138">
        <ele>910</ele>
        <time>2022-04-05T18:45:50Z</time>
      </trkpt>
      <trkpt lat="47.97148" lon="6.91362">
        <ele>912</ele>
        <time>2022-04-05T18:45:56Z</time>
      </trkpt>
      <trkpt lat="47.97115" lon="6.91348">
        <ele>915</ele>
        <time>2022-04-05T18:46:02Z</time>
      </trkpt>
      <trkpt lat="47.97111" lon="6.91349">
        <ele>915</ele>
        <time>2022-04-05T18:46:03Z</time>
      </trkpt>
      <trkpt lat="47.97109" lon="6.91355">
        <ele>917</ele>
        <time>2022-04-05T18:46:04Z</time>
      </trkpt>
      <trkpt lat="47.97109" lon="6.91362">
        <ele>918</ele>
        <time>2022-04-05T18:46:05Z</time>
      </trkpt>
      <trkpt lat="47.97114" lon="6.91368">
        <ele>918</ele>
        <time>2022-04-05T18:46:06Z</time>
      </trkpt>
      <trkpt lat="47.97127" lon="6.91376">
        <ele>918</ele>
        <time>2022-04-05T18:46:08Z</time>
      </trkpt>
      <trkpt lat="47.97173" lon="6.91418">
        <ele>919</ele>
        <time>2022-04-05T18:46:18Z</time>
      </trkpt>
      <trkpt lat="47.97231" lon="6.91491">
        <ele>925</ele>
        <time>2022-04-05T18:46:31Z</time>
      </trkpt>
      <trkpt lat="47.9737" lon="6.91764">
        <ele>949</ele>
        <time>2022-04-05T18:47:12Z</time>
      </trkpt>
      <trkpt lat="47.97512" lon="6.92059">
        <ele>969</ele>
        <time>2022-04-05T18:47:56Z</time>
      </trkpt>
      <trkpt lat="47.9757" lon="6.92171">
        <ele>967</ele>
        <time>2022-04-05T18:48:12Z</time>
      </trkpt>
      <trkpt lat="47.97578" lon="6.92215">
        <ele>968</ele>
        <time>2022-04-05T18:48:18Z</time>
      </trkpt>
      <trkpt lat="47.97581" lon="6.92241">
        <ele>970</ele>
        <time>2022-04-05T18:48:21Z</time>
      </trkpt>
      <trkpt lat="47.97578" lon="6.92256">
        <ele>971</ele>
        <time>2022-04-05T18:48:23Z</time>
      </trkpt>
      <trkpt lat="47.97516" lon="6.92357">
        <ele>972</ele>
        <time>2022-04-05T18:48:39Z</time>
      </trkpt>
      <trkpt lat="47.97495" lon="6.92377">
        <ele>971</ele>
        <time>2022-04-05T18:48:44Z</time>
      </trkpt>
      <trkpt lat="47.97468" lon="6.92394">
        <ele>971</ele>
        <time>2022-04-05T18:48:49Z</time>
      </trkpt>
      <trkpt lat="47.97407" lon="6.9241">
        <ele>976</ele>
        <time>2022-04-05T18:49:00Z</time>
      </trkpt>
      <trkpt lat="47.97395" lon="6.92418">
        <ele>976</ele>
        <time>2022-04-05T18:49:02Z</time>
      </trkpt>
      <trkpt lat="47.97375" lon="6.92438">
        <ele>977</ele>
        <time>2022-04-05T18:49:06Z</time>
      </trkpt>
      <trkpt lat="47.97308" lon="6.92493">
        <ele>983</ele>
        <time>2022-04-05T18:49:20Z</time>
      </trkpt>
      <trkpt lat="47.97303" lon="6.92517">
        <ele>983</ele>
        <time>2022-04-05T18:49:23Z</time>
      </trkpt>
      <trkpt lat="47.97307" lon="6.92552">
        <ele>983</ele>
        <time>2022-04-05T18:49:27Z</time>
      </trkpt>
      <trkpt lat="47.97307" lon="6.92591">
        <ele>984</ele>
        <time>2022-04-05T18:49:32Z</time>
      </trkpt>
      <trkpt lat="47.97315" lon="6.92687">
        <ele>990</ele>
        <time>2022-04-05T18:49:43Z</time>
      </trkpt>
      <trkpt lat="47.97332" lon="6.92789">
        <ele>988</ele>
        <time>2022-04-05T18:49:56Z</time>
      </trkpt>
      <trkpt lat="47.97341" lon="6.92852">
        <ele>988</ele>
        <time>2022-04-05T18:50:04Z</time>
      </trkpt>
      <trkpt lat="47.97334" lon="6.92949">
        <ele>998</ele>
        <time>2022-04-05T18:50:15Z</time>
      </trkpt>
      <trkpt lat="47.97342" lon="6.93025">
        <ele>1002</ele>
        <time>2022-04-05T18:50:24Z</time>
      </trkpt>
      <trkpt lat="47.97358" lon="6.93124">
        <ele>1006</ele>
        <time>2022-04-05T18:50:37Z</time>
      </trkpt>
      <trkpt lat="47.9739" lon="6.93215">
        <ele>1007</ele>
        <time>2022-04-05T18:50:49Z</time>
      </trkpt>
      <trkpt lat="47.97409" lon="6.93255">
        <ele>1009</ele>
        <time>2022-04-05T18:50:55Z</time>
      </trkpt>
      <trkpt lat="47.97447" lon="6.93316">
        <ele>1009</ele>
        <time>2022-04-05T18:51:05Z</time>
      </trkpt>
      <trkpt lat="47.97468" lon="6.93376">
        <ele>1011</ele>
        <time>2022-04-05T18:51:13Z</time>
      </trkpt>
      <trkpt lat="47.97476" lon="6.93396">
        <ele>1013</ele>
        <time>2022-04-05T18:51:15Z</time>
      </trkpt>
      <trkpt lat="47.97478" lon="6.93405">
        <ele>1013</ele>
        <time>2022-04-05T18:51:17Z</time>
      </trkpt>
      <trkpt lat="47.97477" lon="6.93415">
        <ele>1015</ele>
        <time>2022-04-05T18:51:18Z</time>
      </trkpt>
      <trkpt lat="47.97506" lon="6.93458">
        <ele>1020</ele>
        <time>2022-04-05T18:51:25Z</time>
      </trkpt>
      <trkpt lat="47.97517" lon="6.93469">
        <ele>1020</ele>
        <time>2022-04-05T18:51:27Z</time>
      </trkpt>
      <trkpt lat="47.9753" lon="6.93488">
        <ele>1021</ele>
        <time>2022-04-05T18:51:31Z</time>
      </trkpt>
      <trkpt lat="47.97543" lon="6.93519">
        <ele>1025</ele>
        <time>2022-04-05T18:51:35Z</time>
      </trkpt>
      <trkpt lat="47.97552" lon="6.93546">
        <ele>1030</ele>
        <time>2022-04-05T18:51:39Z</time>
      </trkpt>
      <trkpt lat="47.97555" lon="6.93552">
        <ele>1031</ele>
        <time>2022-04-05T18:51:39Z</time>
      </trkpt>
      <trkpt lat="47.9757" lon="6.93558">
        <ele>1031</ele>
        <time>2022-04-05T18:51:42Z</time>
      </trkpt>
      <trkpt lat="47.97578" lon="6.93555">
        <ele>1029</ele>
        <time>2022-04-05T18:51:44Z</time>
      </trkpt>
      <trkpt lat="47.97587" lon="6.9355">
        <ele>1028</ele>
        <time>2022-04-05T18:51:45Z</time>
      </trkpt>
      <trkpt lat="47.97629" lon="6.93517">
        <ele>1022</ele>
        <time>2022-04-05T18:51:54Z</time>
      </trkpt>
      <trkpt lat="47.97673" lon="6.93496">
        <ele>1020</ele>
        <time>2022-04-05T18:52:02Z</time>
      </trkpt>
      <trkpt lat="47.97692" lon="6.93482">
        <ele>1021</ele>
        <time>2022-04-05T18:52:06Z</time>
      </trkpt>
      <trkpt lat="47.97707" lon="6.93467">
        <ele>1021</ele>
        <time>2022-04-05T18:52:09Z</time>
      </trkpt>
      <trkpt lat="47.97734" lon="6.93442">
        <ele>1020</ele>
        <time>2022-04-05T18:52:15Z</time>
      </trkpt>
      <trkpt lat="47.97762" lon="6.93419">
        <ele>1018</ele>
        <time>2022-04-05T18:52:20Z</time>
      </trkpt>
      <trkpt lat="47.97805" lon="6.93403">
        <ele>1020</ele>
        <time>2022-04-05T18:52:28Z</time>
      </trkpt>
      <trkpt lat="47.97835" lon="6.93402">
        <ele>1023</ele>
        <time>2022-04-05T18:52:34Z</time>
      </trkpt>
      <trkpt lat="47.97866" lon="6.93406">
        <ele>1021</ele>
        <time>2022-04-05T18:52:39Z</time>
      </trkpt>
      <trkpt lat="47.97908" lon="6.93411">
        <ele>1019</ele>
        <time>2022-04-05T18:52:47Z</time>
      </trkpt>
      <trkpt lat="47.97925" lon="6.93423">
        <ele>1019</ele>
        <time>2022-04-05T18:52:50Z</time>
      </trkpt>
      <trkpt lat="47.97934" lon="6.93438">
        <ele>1020</ele>
        <time>2022-04-05T18:52:52Z</time>
      </trkpt>
      <trkpt lat="47.97952" lon="6.93474">
        <ele>1021</ele>
        <time>2022-04-05T18:52:58Z</time>
      </trkpt>
      <trkpt lat="47.97968" lon="6.93488">
        <ele>1018</ele>
        <time>2022-04-05T18:53:01Z</time>
      </trkpt>
      <trkpt lat="47.97972" lon="6.93494">
        <ele>1018</ele>
        <time>2022-04-05T18:53:02Z</time>
      </trkpt>
      <trkpt lat="47.98011" lon="6.93604">
        <ele>1018</ele>
        <time>2022-04-05T18:53:17Z</time>
      </trkpt>
      <trkpt lat="47.98037" lon="6.93688">
        <ele>1020</ele>
        <time>2022-04-05T18:53:28Z</time>
      </trkpt>
      <trkpt lat="47.98042" lon="6.93697">
        <ele>1019</ele>
        <time>2022-04-05T18:53:29Z</time>
      </trkpt>
      <trkpt lat="47.98051" lon="6.93702">
        <ele>1018</ele>
        <time>2022-04-05T18:53:31Z</time>
      </trkpt>
      <trkpt lat="47.98063" lon="6.93715">
        <ele>1016</ele>
        <time>2022-04-05T18:53:34Z</time>
      </trkpt>
      <trkpt lat="47.98093" lon="6.93754">
        <ele>1016</ele>
        <time>2022-04-05T18:53:41Z</time>
      </trkpt>
      <trkpt lat="47.98098" lon="6.93757">
        <ele>1016</ele>
        <time>2022-04-05T18:53:42Z</time>
      </trkpt>
      <trkpt lat="47.98126" lon="6.93767">
        <ele>1017</ele>
        <time>2022-04-05T18:53:47Z</time>
      </trkpt>
      <trkpt lat="47.98198" lon="6.93766">
        <ele>1015</ele>
        <time>2022-04-05T18:54:00Z</time>
      </trkpt>
      <trkpt lat="47.98231" lon="6.93773">
        <ele>1017</ele>
        <time>2022-04-05T18:54:06Z</time>
      </trkpt>
      <trkpt lat="47.98276" lon="6.93777">
        <ele>1019</ele>
        <time>2022-04-05T18:54:14Z</time>
      </trkpt>
      <trkpt lat="47.9831" lon="6.93787">
        <ele>1021</ele>
        <time>2022-04-05T18:54:20Z</time>
      </trkpt>
      <trkpt lat="47.98328" lon="6.93785">
        <ele>1021</ele>
        <time>2022-04-05T18:54:23Z</time>
      </trkpt>
      <trkpt lat="47.98343" lon="6.9378">
        <ele>1022</ele>
        <time>2022-04-05T18:54:26Z</time>
      </trkpt>
      <trkpt lat="47.98348" lon="6.93775">
        <ele>1022</ele>
        <time>2022-04-05T18:54:27Z</time>
      </trkpt>
      <trkpt lat="47.98363" lon="6.93753">
        <ele>1023</ele>
        <time>2022-04-05T18:54:30Z</time>
      </trkpt>
      <trkpt lat="47.98374" lon="6.93732">
        <ele>1023</ele>
        <time>2022-04-05T18:54:34Z</time>
      </trkpt>
      <trkpt lat="47.98381" lon="6.93704">
        <ele>1022</ele>
        <time>2022-04-05T18:54:37Z</time>
      </trkpt>
      <trkpt lat="47.98382" lon="6.93663">
        <ele>1019</ele>
        <time>2022-04-05T18:54:42Z</time>
      </trkpt>
      <trkpt lat="47.98386" lon="6.93653">
        <ele>1019</ele>
        <time>2022-04-05T18:54:43Z</time>
      </trkpt>
      <trkpt lat="47.98401" lon="6.93631">
        <ele>1022</ele>
        <time>2022-04-05T18:54:47Z</time>
      </trkpt>
      <trkpt lat="47.98415" lon="6.93617">
        <ele>1025</ele>
        <time>2022-04-05T18:54:50Z</time>
      </trkpt>
      <trkpt lat="47.9843" lon="6.93605">
        <ele>1027</ele>
        <time>2022-04-05T18:54:53Z</time>
      </trkpt>
      <trkpt lat="47.98468" lon="6.93592">
        <ele>1031</ele>
        <time>2022-04-05T18:55:00Z</time>
      </trkpt>
      <trkpt lat="47.98478" lon="6.93586">
        <ele>1032</ele>
        <time>2022-04-05T18:55:02Z</time>
      </trkpt>
      <trkpt lat="47.98543" lon="6.93512">
        <ele>1038</ele>
        <time>2022-04-05T18:55:17Z</time>
      </trkpt>
      <trkpt lat="47.98567" lon="6.93479">
        <ele>1040</ele>
        <time>2022-04-05T18:55:22Z</time>
      </trkpt>
      <trkpt lat="47.98586" lon="6.93449">
        <ele>1041</ele>
        <time>2022-04-05T18:55:27Z</time>
      </trkpt>
      <trkpt lat="47.98613" lon="6.93377">
        <ele>1042</ele>
        <time>2022-04-05T18:55:37Z</time>
      </trkpt>
      <trkpt lat="47.98625" lon="6.93335">
        <ele>1044</ele>
        <time>2022-04-05T18:55:43Z</time>
      </trkpt>
      <trkpt lat="47.98632" lon="6.933">
        <ele>1046</ele>
        <time>2022-04-05T18:55:47Z</time>
      </trkpt>
      <trkpt lat="47.98647" lon="6.93207">
        <ele>1053</ele>
        <time>2022-04-05T18:55:58Z</time>
      </trkpt>
      <trkpt lat="47.98646" lon="6.93186">
        <ele>1054</ele>
        <time>2022-04-05T18:56:01Z</time>
      </trkpt>
      <trkpt lat="47.98617" lon="6.93085">
        <ele>1054</ele>
        <time>2022-04-05T18:56:14Z</time>
      </trkpt>
      <trkpt lat="47.98607" lon="6.93044">
        <ele>1053</ele>
        <time>2022-04-05T18:56:19Z</time>
      </trkpt>
      <trkpt lat="47.98606" lon="6.93029">
        <ele>1053</ele>
        <time>2022-04-05T18:56:21Z</time>
      </trkpt>
      <trkpt lat="47.98608" lon="6.92997">
        <ele>1054</ele>
        <time>2022-04-05T18:56:25Z</time>
      </trkpt>
      <trkpt lat="47.98611" lon="6.92977">
        <ele>1054</ele>
        <time>2022-04-05T18:56:27Z</time>
      </trkpt>
      <trkpt lat="47.98624" lon="6.92944">
        <ele>1056</ele>
        <time>2022-04-05T18:56:32Z</time>
      </trkpt>
      <trkpt lat="47.98634" lon="6.92927">
        <ele>1057</ele>
        <time>2022-04-05T18:56:34Z</time>
      </trkpt>
      <trkpt lat="47.98646" lon="6.92911">
        <ele>1058</ele>
        <time>2022-04-05T18:56:37Z</time>
      </trkpt>
      <trkpt lat="47.98668" lon="6.92888">
        <ele>1059</ele>
        <time>2022-04-05T18:56:42Z</time>
      </trkpt>
      <trkpt lat="47.98687" lon="6.92875">
        <ele>1059</ele>
        <time>2022-04-05T18:56:46Z</time>
      </trkpt>
      <trkpt lat="47.98723" lon="6.92859">
        <ele>1060</ele>
        <time>2022-04-05T18:56:53Z</time>
      </trkpt>
      <trkpt lat="47.98787" lon="6.92843">
        <ele>1061</ele>
        <time>2022-04-05T18:57:04Z</time>
      </trkpt>
      <trkpt lat="47.98818" lon="6.92839">
        <ele>1061</ele>
        <time>2022-04-05T18:57:10Z</time>
      </trkpt>
      <trkpt lat="47.98882" lon="6.92836">
        <ele>1065</ele>
        <time>2022-04-05T18:57:21Z</time>
      </trkpt>
      <trkpt lat="47.98898" lon="6.92832">
        <ele>1065</ele>
        <time>2022-04-05T18:57:24Z</time>
      </trkpt>
      <trkpt lat="47.98964" lon="6.92804">
        <ele>1067</ele>
        <time>2022-04-05T18:57:36Z</time>
      </trkpt>
      <trkpt lat="47.98973" lon="6.92799">
        <ele>1068</ele>
        <time>2022-04-05T18:57:38Z</time>
      </trkpt>
      <trkpt lat="47.9899" lon="6.92786">
        <ele>1069</ele>
        <time>2022-04-05T18:57:41Z</time>
      </trkpt>
      <trkpt lat="47.99016" lon="6.92742">
        <ele>1067</ele>
        <time>2022-04-05T18:57:48Z</time>
      </trkpt>
      <trkpt lat="47.99022" lon="6.92734">
        <ele>1068</ele>
        <time>2022-04-05T18:57:50Z</time>
      </trkpt>
      <trkpt lat="47.99028" lon="6.92729">
        <ele>1068</ele>
        <time>2022-04-05T18:57:51Z</time>
      </trkpt>
      <trkpt lat="47.99035" lon="6.92726">
        <ele>1068</ele>
        <time>2022-04-05T18:57:52Z</time>
      </trkpt>
      <trkpt lat="47.99042" lon="6.92725">
        <ele>1068</ele>
        <time>2022-04-05T18:57:53Z</time>
      </trkpt>
      <trkpt lat="47.99049" lon="6.92724">
        <ele>1068</ele>
        <time>2022-04-05T18:57:55Z</time>
      </trkpt>
      <trkpt lat="47.99062" lon="6.92728">
        <ele>1069</ele>
        <time>2022-04-05T18:57:57Z</time>
      </trkpt>
      <trkpt lat="47.99077" lon="6.92806">
        <ele>1072</ele>
        <time>2022-04-05T18:58:07Z</time>
      </trkpt>
      <trkpt lat="47.99079" lon="6.92843">
        <ele>1074</ele>
        <time>2022-04-05T18:58:11Z</time>
      </trkpt>
      <trkpt lat="47.99076" lon="6.92901">
        <ele>1075</ele>
        <time>2022-04-05T18:58:18Z</time>
      </trkpt>
      <trkpt lat="47.9908" lon="6.92925">
        <ele>1075</ele>
        <time>2022-04-05T18:58:21Z</time>
      </trkpt>
      <trkpt lat="47.99096" lon="6.92966">
        <ele>1070</ele>
        <time>2022-04-05T18:58:27Z</time>
      </trkpt>
      <trkpt lat="47.99104" lon="6.93004">
        <ele>1066</ele>
        <time>2022-04-05T18:58:31Z</time>
      </trkpt>
      <trkpt lat="47.99104" lon="6.93042">
        <ele>1066</ele>
        <time>2022-04-05T18:58:36Z</time>
      </trkpt>
      <trkpt lat="47.99092" lon="6.93154">
        <ele>1068</ele>
        <time>2022-04-05T18:58:49Z</time>
      </trkpt>
      <trkpt lat="47.99091" lon="6.93201">
        <ele>1071</ele>
        <time>2022-04-05T18:58:55Z</time>
      </trkpt>
      <trkpt lat="47.99105" lon="6.93282">
        <ele>1069</ele>
        <time>2022-04-05T18:59:05Z</time>
      </trkpt>
      <trkpt lat="47.99109" lon="6.9334">
        <ele>1071</ele>
        <time>2022-04-05T18:59:12Z</time>
      </trkpt>
      <trkpt lat="47.99117" lon="6.93381">
        <ele>1070</ele>
        <time>2022-04-05T18:59:17Z</time>
      </trkpt>
      <trkpt lat="47.99139" lon="6.93445">
        <ele>1064</ele>
        <time>2022-04-05T18:59:26Z</time>
      </trkpt>
      <trkpt lat="47.99147" lon="6.93461">
        <ele>1062</ele>
        <time>2022-04-05T18:59:28Z</time>
      </trkpt>
      <trkpt lat="47.99181" lon="6.93513">
        <ele>1056</ele>
        <time>2022-04-05T18:59:37Z</time>
      </trkpt>
      <trkpt lat="47.99207" lon="6.93547">
        <ele>1053</ele>
        <time>2022-04-05T18:59:43Z</time>
      </trkpt>
      <trkpt lat="47.99221" lon="6.93563">
        <ele>1051</ele>
        <time>2022-04-05T18:59:46Z</time>
      </trkpt>
      <trkpt lat="47.9924" lon="6.93604">
        <ele>1053</ele>
        <time>2022-04-05T18:59:52Z</time>
      </trkpt>
      <trkpt lat="47.99278" lon="6.93644">
        <ele>1051</ele>
        <time>2022-04-05T19:00:00Z</time>
      </trkpt>
      <trkpt lat="47.99294" lon="6.93656">
        <ele>1049</ele>
        <time>2022-04-05T19:00:03Z</time>
      </trkpt>
      <trkpt lat="47.99344" lon="6.93716">
        <ele>1050</ele>
        <time>2022-04-05T19:00:15Z</time>
      </trkpt>
      <trkpt lat="47.99353" lon="6.93723">
        <ele>1049</ele>
        <time>2022-04-05T19:00:16Z</time>
      </trkpt>
      <trkpt lat="47.99418" lon="6.93752">
        <ele>1039</ele>
        <time>2022-04-05T19:00:29Z</time>
      </trkpt>
      <trkpt lat="47.99429" lon="6.93752">
        <ele>1036</ele>
        <time>2022-04-05T19:00:31Z</time>
      </trkpt>
      <trkpt lat="47.99439" lon="6.93755">
        <ele>1034</ele>
        <time>2022-04-05T19:00:32Z</time>
      </trkpt>
      <trkpt lat="47.99454" lon="6.93774">
        <ele>1035</ele>
        <time>2022-04-05T19:00:36Z</time>
      </trkpt>
      <trkpt lat="47.9949" lon="6.938">
        <ele>1032</ele>
        <time>2022-04-05T19:00:43Z</time>
      </trkpt>
      <trkpt lat="47.99511" lon="6.93809">
        <ele>1029</ele>
        <time>2022-04-05T19:00:47Z</time>
      </trkpt>
      <trkpt lat="47.9957" lon="6.93845">
        <ele>1026</ele>
        <time>2022-04-05T19:00:58Z</time>
      </trkpt>
      <trkpt lat="47.99591" lon="6.93864">
        <ele>1026</ele>
        <time>2022-04-05T19:01:03Z</time>
      </trkpt>
      <trkpt lat="47.99613" lon="6.93878">
        <ele>1025</ele>
        <time>2022-04-05T19:01:07Z</time>
      </trkpt>
      <trkpt lat="47.99643" lon="6.93886">
        <ele>1021</ele>
        <time>2022-04-05T19:01:12Z</time>
      </trkpt>
      <trkpt lat="47.99675" lon="6.93912">
        <ele>1022</ele>
        <time>2022-04-05T19:01:19Z</time>
      </trkpt>
      <trkpt lat="47.99706" lon="6.93932">
        <ele>1020</ele>
        <time>2022-04-05T19:01:25Z</time>
      </trkpt>
      <trkpt lat="47.99725" lon="6.9394">
        <ele>1017</ele>
        <time>2022-04-05T19:01:28Z</time>
      </trkpt>
      <trkpt lat="47.99745" lon="6.93944">
        <ele>1014</ele>
        <time>2022-04-05T19:01:32Z</time>
      </trkpt>
      <trkpt lat="47.99767" lon="6.93953">
        <ele>1013</ele>
        <time>2022-04-05T19:01:36Z</time>
      </trkpt>
      <trkpt lat="47.9986" lon="6.93983">
        <ele>1006</ele>
        <time>2022-04-05T19:01:53Z</time>
      </trkpt>
      <trkpt lat="47.99889" lon="6.94">
        <ele>1003</ele>
        <time>2022-04-05T19:01:58Z</time>
      </trkpt>
      <trkpt lat="47.99902" lon="6.9401">
        <ele>1001</ele>
        <time>2022-04-05T19:02:01Z</time>
      </trkpt>
      <trkpt lat="47.99926" lon="6.94034">
        <ele>998</ele>
        <time>2022-04-05T19:02:06Z</time>
      </trkpt>
      <trkpt lat="47.99948" lon="6.94061">
        <ele>993</ele>
        <time>2022-04-05T19:02:11Z</time>
      </trkpt>
      <trkpt lat="47.99969" lon="6.94097">
        <ele>990</ele>
        <time>2022-04-05T19:02:17Z</time>
      </trkpt>
      <trkpt lat="47.99998" lon="6.94137">
        <ele>986</ele>
        <time>2022-04-05T19:02:24Z</time>
      </trkpt>
      <trkpt lat="48.00021" lon="6.94189">
        <ele>983</ele>
        <time>2022-04-05T19:02:31Z</time>
      </trkpt>
      <trkpt lat="48.00032" lon="6.94221">
        <ele>981</ele>
        <time>2022-04-05T19:02:36Z</time>
      </trkpt>
      <trkpt lat="48.00037" lon="6.94239">
        <ele>981</ele>
        <time>2022-04-05T19:02:38Z</time>
      </trkpt>
      <trkpt lat="48.0004" lon="6.94257">
        <ele>981</ele>
        <time>2022-04-05T19:02:40Z</time>
      </trkpt>
      <trkpt lat="48.0004" lon="6.94293">
        <ele>980</ele>
        <time>2022-04-05T19:02:44Z</time>
      </trkpt>
      <trkpt lat="48.00037" lon="6.94314">
        <ele>981</ele>
        <time>2022-04-05T19:02:47Z</time>
      </trkpt>
      <trkpt lat="48.00019" lon="6.94375">
        <ele>983</ele>
        <time>2022-04-05T19:02:55Z</time>
      </trkpt>
      <trkpt lat="48.00018" lon="6.94383">
        <ele>982</ele>
        <time>2022-04-05T19:02:56Z</time>
      </trkpt>
      <trkpt lat="48.00019" lon="6.94391">
        <ele>981</ele>
        <time>2022-04-05T19:02:57Z</time>
      </trkpt>
      <trkpt lat="48.00022" lon="6.94401">
        <ele>979</ele>
        <time>2022-04-05T19:02:58Z</time>
      </trkpt>
      <trkpt lat="48.00049" lon="6.94435">
        <ele>969</ele>
        <time>2022-04-05T19:03:04Z</time>
      </trkpt>
      <trkpt lat="48.00053" lon="6.94446">
        <ele>968</ele>
        <time>2022-04-05T19:03:06Z</time>
      </trkpt>
      <trkpt lat="48.00054" lon="6.94463">
        <ele>968</ele>
        <time>2022-04-05T19:03:08Z</time>
      </trkpt>
      <trkpt lat="48.00047" lon="6.94498">
        <ele>969</ele>
        <time>2022-04-05T19:03:12Z</time>
      </trkpt>
      <trkpt lat="48.00046" lon="6.94516">
        <ele>969</ele>
        <time>2022-04-05T19:03:14Z</time>
      </trkpt>
      <trkpt lat="48.0005" lon="6.94539">
        <ele>969</ele>
        <time>2022-04-05T19:03:17Z</time>
      </trkpt>
      <trkpt lat="48.00066" lon="6.94535">
        <ele>968</ele>
        <time>2022-04-05T19:03:20Z</time>
      </trkpt>
      <trkpt lat="48.0008" lon="6.94533">
        <ele>966</ele>
        <time>2022-04-05T19:03:23Z</time>
      </trkpt>
      <trkpt lat="48.00137" lon="6.9454">
        <ele>961</ele>
        <time>2022-04-05T19:03:33Z</time>
      </trkpt>
      <trkpt lat="48.00224" lon="6.94539">
        <ele>957</ele>
        <time>2022-04-05T19:03:48Z</time>
      </trkpt>
      <trkpt lat="48.00239" lon="6.94534">
        <ele>955</ele>
        <time>2022-04-05T19:03:51Z</time>
      </trkpt>
      <trkpt lat="48.0026" lon="6.94522">
        <ele>951</ele>
        <time>2022-04-05T19:03:55Z</time>
      </trkpt>
      <trkpt lat="48.0029" lon="6.94507">
        <ele>945</ele>
        <time>2022-04-05T19:04:01Z</time>
      </trkpt>
      <trkpt lat="48.00306" lon="6.94501">
        <ele>942</ele>
        <time>2022-04-05T19:04:04Z</time>
      </trkpt>
      <trkpt lat="48.00323" lon="6.945">
        <ele>941</ele>
        <time>2022-04-05T19:04:07Z</time>
      </trkpt>
      <trkpt lat="48.00386" lon="6.94522">
        <ele>937</ele>
        <time>2022-04-05T19:04:18Z</time>
      </trkpt>
      <trkpt lat="48.00414" lon="6.94525">
        <ele>933</ele>
        <time>2022-04-05T19:04:23Z</time>
      </trkpt>
      <trkpt lat="48.00443" lon="6.94521">
        <ele>929</ele>
        <time>2022-04-05T19:04:28Z</time>
      </trkpt>
      <trkpt lat="48.00549" lon="6.94519">
        <ele>917</ele>
        <time>2022-04-05T19:04:47Z</time>
      </trkpt>
      <trkpt lat="48.00563" lon="6.94527">
        <ele>919</ele>
        <time>2022-04-05T19:04:50Z</time>
      </trkpt>
      <trkpt lat="48.00577" lon="6.94541">
        <ele>924</ele>
        <time>2022-04-05T19:04:53Z</time>
      </trkpt>
      <trkpt lat="48.00598" lon="6.94548">
        <ele>923</ele>
        <time>2022-04-05T19:04:57Z</time>
      </trkpt>
      <trkpt lat="48.00729" lon="6.94549">
        <ele>900</ele>
        <time>2022-04-05T19:05:20Z</time>
      </trkpt>
      <trkpt lat="48.00729" lon="6.94557">
        <ele>903</ele>
        <time>2022-04-05T19:05:21Z</time>
      </trkpt>
      <trkpt lat="48.0073" lon="6.94562">
        <ele>905</ele>
        <time>2022-04-05T19:05:22Z</time>
      </trkpt>
      <trkpt lat="48.00735" lon="6.94566">
        <ele>906</ele>
        <time>2022-04-05T19:05:23Z</time>
      </trkpt>
      <trkpt lat="48.00764" lon="6.94572">
        <ele>903</ele>
        <time>2022-04-05T19:05:28Z</time>
      </trkpt>
      <trkpt lat="48.00788" lon="6.94584">
        <ele>903</ele>
        <time>2022-04-05T19:05:32Z</time>
      </trkpt>
      <trkpt lat="48.00804" lon="6.94599">
        <ele>905</ele>
        <time>2022-04-05T19:05:36Z</time>
      </trkpt>
      <trkpt lat="48.00827" lon="6.94622">
        <ele>908</ele>
        <time>2022-04-05T19:05:41Z</time>
      </trkpt>
      <trkpt lat="48.00859" lon="6.94645">
        <ele>908</ele>
        <time>2022-04-05T19:05:47Z</time>
      </trkpt>
      <trkpt lat="48.00883" lon="6.94669">
        <ele>911</ele>
        <time>2022-04-05T19:05:52Z</time>
      </trkpt>
      <trkpt lat="48.00941" lon="6.9474">
        <ele>918</ele>
        <time>2022-04-05T19:06:05Z</time>
      </trkpt>
      <trkpt lat="48.00989" lon="6.94778">
        <ele>919</ele>
        <time>2022-04-05T19:06:15Z</time>
      </trkpt>
      <trkpt lat="48.0105" lon="6.94848">
        <ele>925</ele>
        <time>2022-04-05T19:06:29Z</time>
      </trkpt>
      <trkpt lat="48.01054" lon="6.94856">
        <ele>925</ele>
        <time>2022-04-05T19:06:30Z</time>
      </trkpt>
      <trkpt lat="48.0106" lon="6.94873">
        <ele>926</ele>
        <time>2022-04-05T19:06:32Z</time>
      </trkpt>
      <trkpt lat="48.01063" lon="6.94892">
        <ele>927</ele>
        <time>2022-04-05T19:06:34Z</time>
      </trkpt>
      <trkpt lat="48.01064" lon="6.94907">
        <ele>928</ele>
        <time>2022-04-05T19:06:36Z</time>
      </trkpt>
      <trkpt lat="48.01061" lon="6.94926">
        <ele>930</ele>
        <time>2022-04-05T19:06:39Z</time>
      </trkpt>
      <trkpt lat="48.01054" lon="6.94943">
        <ele>932</ele>
        <time>2022-04-05T19:06:41Z</time>
      </trkpt>
      <trkpt lat="48.0102" lon="6.94998">
        <ele>947</ele>
        <time>2022-04-05T19:06:50Z</time>
      </trkpt>
      <trkpt lat="48.00969" lon="6.951">
        <ele>965</ele>
        <time>2022-04-05T19:07:05Z</time>
      </trkpt>
      <trkpt lat="48.00955" lon="6.95161">
        <ele>969</ele>
        <time>2022-04-05T19:07:13Z</time>
      </trkpt>
      <trkpt lat="48.00954" lon="6.95246">
        <ele>968</ele>
        <time>2022-04-05T19:07:23Z</time>
      </trkpt>
      <trkpt lat="48.00956" lon="6.95321">
        <ele>974</ele>
        <time>2022-04-05T19:07:32Z</time>
      </trkpt>
      <trkpt lat="48.00971" lon="6.95388">
        <ele>972</ele>
        <time>2022-04-05T19:07:40Z</time>
      </trkpt>
      <trkpt lat="48.00983" lon="6.95443">
        <ele>972</ele>
        <time>2022-04-05T19:07:47Z</time>
      </trkpt>
      <trkpt lat="48.00984" lon="6.95541">
        <ele>978</ele>
        <time>2022-04-05T19:07:59Z</time>
      </trkpt>
      <trkpt lat="48.01" lon="6.9562">
        <ele>977</ele>
        <time>2022-04-05T19:08:09Z</time>
      </trkpt>
      <trkpt lat="48.01001" lon="6.95624">
        <ele>977</ele>
        <time>2022-04-05T19:08:09Z</time>
      </trkpt>
      <trkpt lat="48.01005" lon="6.95635">
        <ele>978</ele>
        <time>2022-04-05T19:08:11Z</time>
      </trkpt>
      <trkpt lat="48.01011" lon="6.95651">
        <ele>980</ele>
        <time>2022-04-05T19:08:13Z</time>
      </trkpt>
      <trkpt lat="48.01012" lon="6.95659">
        <ele>981</ele>
        <time>2022-04-05T19:08:14Z</time>
      </trkpt>
      <trkpt lat="48.0101" lon="6.95687">
        <ele>982</ele>
        <time>2022-04-05T19:08:17Z</time>
      </trkpt>
      <trkpt lat="48.01003" lon="6.95713">
        <ele>983</ele>
        <time>2022-04-05T19:08:20Z</time>
      </trkpt>
      <trkpt lat="48.00973" lon="6.95771">
        <ele>990</ele>
        <time>2022-04-05T19:08:29Z</time>
      </trkpt>
      <trkpt lat="48.00968" lon="6.95783">
        <ele>991</ele>
        <time>2022-04-05T19:08:31Z</time>
      </trkpt>
      <trkpt lat="48.00961" lon="6.95843">
        <ele>993</ele>
        <time>2022-04-05T19:08:38Z</time>
      </trkpt>
      <trkpt lat="48.00958" lon="6.95882">
        <ele>993</ele>
        <time>2022-04-05T19:08:43Z</time>
      </trkpt>
      <trkpt lat="48.00957" lon="6.95901">
        <ele>992</ele>
        <time>2022-04-05T19:08:45Z</time>
      </trkpt>
      <trkpt lat="48.00955" lon="6.95934">
        <ele>992</ele>
        <time>2022-04-05T19:08:49Z</time>
      </trkpt>
      <trkpt lat="48.00956" lon="6.95958">
        <ele>992</ele>
        <time>2022-04-05T19:08:52Z</time>
      </trkpt>
      <trkpt lat="48.00958" lon="6.95967">
        <ele>993</ele>
        <time>2022-04-05T19:08:53Z</time>
      </trkpt>
      <trkpt lat="48.00962" lon="6.95973">
        <ele>993</ele>
        <time>2022-04-05T19:08:54Z</time>
      </trkpt>
      <trkpt lat="48.00972" lon="6.95974">
        <ele>995</ele>
        <time>2022-04-05T19:08:56Z</time>
      </trkpt>
      <trkpt lat="48.00987" lon="6.9597">
        <ele>998</ele>
        <time>2022-04-05T19:08:58Z</time>
      </trkpt>
      <trkpt lat="48.01001" lon="6.95964">
        <ele>1000</ele>
        <time>2022-04-05T19:09:01Z</time>
      </trkpt>
      <trkpt lat="48.01011" lon="6.95957">
        <ele>1002</ele>
        <time>2022-04-05T19:09:03Z</time>
      </trkpt>
      <trkpt lat="48.01031" lon="6.95929">
        <ele>1006</ele>
        <time>2022-04-05T19:09:08Z</time>
      </trkpt>
      <trkpt lat="48.01055" lon="6.95907">
        <ele>1011</ele>
        <time>2022-04-05T19:09:13Z</time>
      </trkpt>
      <trkpt lat="48.01085" lon="6.9587">
        <ele>1014</ele>
        <time>2022-04-05T19:09:20Z</time>
      </trkpt>
      <trkpt lat="48.01133" lon="6.95805">
        <ele>1022</ele>
        <time>2022-04-05T19:09:31Z</time>
      </trkpt>
      <trkpt lat="48.01149" lon="6.9575">
        <ele>1021</ele>
        <time>2022-04-05T19:09:38Z</time>
      </trkpt>
      <trkpt lat="48.01155" lon="6.95741">
        <ele>1022</ele>
        <time>2022-04-05T19:09:40Z</time>
      </trkpt>
      <trkpt lat="48.01158" lon="6.95739">
        <ele>1023</ele>
        <time>2022-04-05T19:09:41Z</time>
      </trkpt>
      <trkpt lat="48.01162" lon="6.9574">
        <ele>1024</ele>
        <time>2022-04-05T19:09:41Z</time>
      </trkpt>
      <trkpt lat="48.01166" lon="6.95746">
        <ele>1025</ele>
        <time>2022-04-05T19:09:42Z</time>
      </trkpt>
      <trkpt lat="48.01167" lon="6.95753">
        <ele>1026</ele>
        <time>2022-04-05T19:09:43Z</time>
      </trkpt>
      <trkpt lat="48.0116" lon="6.95782">
        <ele>1028</ele>
        <time>2022-04-05T19:09:47Z</time>
      </trkpt>
      <trkpt lat="48.0114" lon="6.9585">
        <ele>1029</ele>
        <time>2022-04-05T19:09:56Z</time>
      </trkpt>
      <trkpt lat="48.01133" lon="6.95902">
        <ele>1033</ele>
        <time>2022-04-05T19:10:02Z</time>
      </trkpt>
      <trkpt lat="48.01134" lon="6.95929">
        <ele>1035</ele>
        <time>2022-04-05T19:10:05Z</time>
      </trkpt>
      <trkpt lat="48.01136" lon="6.95943">
        <ele>1037</ele>
        <time>2022-04-05T19:10:07Z</time>
      </trkpt>
      <trkpt lat="48.01143" lon="6.95959">
        <ele>1039</ele>
        <time>2022-04-05T19:10:09Z</time>
      </trkpt>
      <trkpt lat="48.01145" lon="6.95974">
        <ele>1041</ele>
        <time>2022-04-05T19:10:11Z</time>
      </trkpt>
      <trkpt lat="48.01144" lon="6.96033">
        <ele>1043</ele>
        <time>2022-04-05T19:10:18Z</time>
      </trkpt>
      <trkpt lat="48.01141" lon="6.96058">
        <ele>1044</ele>
        <time>2022-04-05T19:10:21Z</time>
      </trkpt>
      <trkpt lat="48.0113" lon="6.96096">
        <ele>1043</ele>
        <time>2022-04-05T19:10:26Z</time>
      </trkpt>
      <trkpt lat="48.01127" lon="6.96143">
        <ele>1048</ele>
        <time>2022-04-05T19:10:32Z</time>
      </trkpt>
      <trkpt lat="48.01121" lon="6.96187">
        <ele>1052</ele>
        <time>2022-04-05T19:10:37Z</time>
      </trkpt>
      <trkpt lat="48.01101" lon="6.96261">
        <ele>1056</ele>
        <time>2022-04-05T19:10:46Z</time>
      </trkpt>
      <trkpt lat="48.01055" lon="6.9639">
        <ele>1061</ele>
        <time>2022-04-05T19:11:04Z</time>
      </trkpt>
      <trkpt lat="48.01048" lon="6.96417">
        <ele>1062</ele>
        <time>2022-04-05T19:11:07Z</time>
      </trkpt>
      <trkpt lat="48.01045" lon="6.9646">
        <ele>1064</ele>
        <time>2022-04-05T19:11:12Z</time>
      </trkpt>
      <trkpt lat="48.01058" lon="6.96592">
        <ele>1074</ele>
        <time>2022-04-05T19:11:28Z</time>
      </trkpt>
      <trkpt lat="48.01062" lon="6.96677">
        <ele>1078</ele>
        <time>2022-04-05T19:11:38Z</time>
      </trkpt>
      <trkpt lat="48.01061" lon="6.96702">
        <ele>1080</ele>
        <time>2022-04-05T19:11:41Z</time>
      </trkpt>
      <trkpt lat="48.01055" lon="6.96747">
        <ele>1084</ele>
        <time>2022-04-05T19:11:47Z</time>
      </trkpt>
      <trkpt lat="48.01054" lon="6.96777">
        <ele>1088</ele>
        <time>2022-04-05T19:11:50Z</time>
      </trkpt>
      <trkpt lat="48.01049" lon="6.96792">
        <ele>1089</ele>
        <time>2022-04-05T19:11:52Z</time>
      </trkpt>
      <trkpt lat="48.01017" lon="6.96824">
        <ele>1092</ele>
        <time>2022-04-05T19:11:59Z</time>
      </trkpt>
      <trkpt lat="48.00971" lon="6.96868">
        <ele>1095</ele>
        <time>2022-04-05T19:12:09Z</time>
      </trkpt>
      <trkpt lat="48.00933" lon="6.96899">
        <ele>1096</ele>
        <time>2022-04-05T19:12:17Z</time>
      </trkpt>
      <trkpt lat="48.00918" lon="6.96907">
        <ele>1096</ele>
        <time>2022-04-05T19:12:20Z</time>
      </trkpt>
      <trkpt lat="48.00898" lon="6.96918">
        <ele>1099</ele>
        <time>2022-04-05T19:12:23Z</time>
      </trkpt>
      <trkpt lat="48.00887" lon="6.96928">
        <ele>1102</ele>
        <time>2022-04-05T19:12:26Z</time>
      </trkpt>
      <trkpt lat="48.00883" lon="6.96936">
        <ele>1104</ele>
        <time>2022-04-05T19:12:27Z</time>
      </trkpt>
      <trkpt lat="48.00884" lon="6.96948">
        <ele>1107</ele>
        <time>2022-04-05T19:12:28Z</time>
      </trkpt>
      <trkpt lat="48.0089" lon="6.96957">
        <ele>1108</ele>
        <time>2022-04-05T19:12:30Z</time>
      </trkpt>
      <trkpt lat="48.01023" lon="6.96975">
        <ele>1118</ele>
        <time>2022-04-05T19:12:54Z</time>
      </trkpt>
      <trkpt lat="48.01053" lon="6.96969">
        <ele>1119</ele>
        <time>2022-04-05T19:12:59Z</time>
      </trkpt>
      <trkpt lat="48.01081" lon="6.96954">
        <ele>1119</ele>
        <time>2022-04-05T19:13:04Z</time>
      </trkpt>
      <trkpt lat="48.01093" lon="6.96942">
        <ele>1118</ele>
        <time>2022-04-05T19:13:07Z</time>
      </trkpt>
      <trkpt lat="48.01104" lon="6.96915">
        <ele>1115</ele>
        <time>2022-04-05T19:13:11Z</time>
      </trkpt>
      <trkpt lat="48.01114" lon="6.96904">
        <ele>1114</ele>
        <time>2022-04-05T19:13:13Z</time>
      </trkpt>
      <trkpt lat="48.0112" lon="6.96904">
        <ele>1115</ele>
        <time>2022-04-05T19:13:14Z</time>
      </trkpt>
      <trkpt lat="48.01126" lon="6.96906">
        <ele>1116</ele>
        <time>2022-04-05T19:13:15Z</time>
      </trkpt>
      <trkpt lat="48.01133" lon="6.96913">
        <ele>1118</ele>
        <time>2022-04-05T19:13:16Z</time>
      </trkpt>
      <trkpt lat="48.01137" lon="6.96921">
        <ele>1120</ele>
        <time>2022-04-05T19:13:18Z</time>
      </trkpt>
      <trkpt lat="48.01139" lon="6.9693">
        <ele>1121</ele>
        <time>2022-04-05T19:13:19Z</time>
      </trkpt>
      <trkpt lat="48.01139" lon="6.96939">
        <ele>1123</ele>
        <time>2022-04-05T19:13:20Z</time>
      </trkpt>
      <trkpt lat="48.01133" lon="6.96955">
        <ele>1125</ele>
        <time>2022-04-05T19:13:22Z</time>
      </trkpt>
      <trkpt lat="48.01025" lon="6.97068">
        <ele>1137</ele>
        <time>2022-04-05T19:13:45Z</time>
      </trkpt>
      <trkpt lat="48.00941" lon="6.97113">
        <ele>1143</ele>
        <time>2022-04-05T19:14:01Z</time>
      </trkpt>
      <trkpt lat="48.00884" lon="6.9713">
        <ele>1148</ele>
        <time>2022-04-05T19:14:12Z</time>
      </trkpt>
      <trkpt lat="48.00836" lon="6.97141">
        <ele>1152</ele>
        <time>2022-04-05T19:14:20Z</time>
      </trkpt>
      <trkpt lat="48.00762" lon="6.97149">
        <ele>1154</ele>
        <time>2022-04-05T19:14:34Z</time>
      </trkpt>
      <trkpt lat="48.00755" lon="6.97153">
        <ele>1155</ele>
        <time>2022-04-05T19:14:35Z</time>
      </trkpt>
      <trkpt lat="48.00748" lon="6.97163">
        <ele>1155</ele>
        <time>2022-04-05T19:14:37Z</time>
      </trkpt>
      <trkpt lat="48.00742" lon="6.97175">
        <ele>1155</ele>
        <time>2022-04-05T19:14:38Z</time>
      </trkpt>
      <trkpt lat="48.00735" lon="6.97187">
        <ele>1155</ele>
        <time>2022-04-05T19:14:40Z</time>
      </trkpt>
      <trkpt lat="48.0073" lon="6.97198">
        <ele>1155</ele>
        <time>2022-04-05T19:14:42Z</time>
      </trkpt>
      <trkpt lat="48.00727" lon="6.97208">
        <ele>1155</ele>
        <time>2022-04-05T19:14:43Z</time>
      </trkpt>
      <trkpt lat="48.00727" lon="6.97218">
        <ele>1155</ele>
        <time>2022-04-05T19:14:44Z</time>
      </trkpt>
      <trkpt lat="48.00729" lon="6.97229">
        <ele>1156</ele>
        <time>2022-04-05T19:14:46Z</time>
      </trkpt>
      <trkpt lat="48.00737" lon="6.97249">
        <ele>1159</ele>
        <time>2022-04-05T19:14:48Z</time>
      </trkpt>
      <trkpt lat="48.00748" lon="6.97261">
        <ele>1163</ele>
        <time>2022-04-05T19:14:51Z</time>
      </trkpt>
      <trkpt lat="48.0075" lon="6.97266">
        <ele>1163</ele>
        <time>2022-04-05T19:14:52Z</time>
      </trkpt>
      <trkpt lat="48.00751" lon="6.97274">
        <ele>1164</ele>
        <time>2022-04-05T19:14:53Z</time>
      </trkpt>
      <trkpt lat="48.00749" lon="6.97288">
        <ele>1164</ele>
        <time>2022-04-05T19:14:54Z</time>
      </trkpt>
      <trkpt lat="48.00745" lon="6.97308">
        <ele>1163</ele>
        <time>2022-04-05T19:14:57Z</time>
      </trkpt>
      <trkpt lat="48.00753" lon="6.9736">
        <ele>1167</ele>
        <time>2022-04-05T19:15:03Z</time>
      </trkpt>
      <trkpt lat="48.00753" lon="6.97402">
        <ele>1169</ele>
        <time>2022-04-05T19:15:08Z</time>
      </trkpt>
      <trkpt lat="48.00754" lon="6.97428">
        <ele>1172</ele>
        <time>2022-04-05T19:15:11Z</time>
      </trkpt>
      <trkpt lat="48.00758" lon="6.9745">
        <ele>1175</ele>
        <time>2022-04-05T19:15:14Z</time>
      </trkpt>
      <trkpt lat="48.00758" lon="6.97466">
        <ele>1177</ele>
        <time>2022-04-05T19:15:16Z</time>
      </trkpt>
      <trkpt lat="48.00754" lon="6.97476">
        <ele>1177</ele>
        <time>2022-04-05T19:15:17Z</time>
      </trkpt>
      <trkpt lat="48.00737" lon="6.97492">
        <ele>1173</ele>
        <time>2022-04-05T19:15:21Z</time>
      </trkpt>
      <trkpt lat="48.0073" lon="6.97504">
        <ele>1172</ele>
        <time>2022-04-05T19:15:23Z</time>
      </trkpt>
      <trkpt lat="48.00727" lon="6.97514">
        <ele>1173</ele>
        <time>2022-04-05T19:15:24Z</time>
      </trkpt>
      <trkpt lat="48.00715" lon="6.97544">
        <ele>1175</ele>
        <time>2022-04-05T19:15:28Z</time>
      </trkpt>
      <trkpt lat="48.007" lon="6.97592">
        <ele>1179</ele>
        <time>2022-04-05T19:15:34Z</time>
      </trkpt>
      <trkpt lat="48.00692" lon="6.97628">
        <ele>1181</ele>
        <time>2022-04-05T19:15:39Z</time>
      </trkpt>
      <trkpt lat="48.00678" lon="6.97713">
        <ele>1188</ele>
        <time>2022-04-05T19:15:49Z</time>
      </trkpt>
      <trkpt lat="48.00674" lon="6.97732">
        <ele>1189</ele>
        <time>2022-04-05T19:15:52Z</time>
      </trkpt>
      <trkpt lat="48.00668" lon="6.97751">
        <ele>1190</ele>
        <time>2022-04-05T19:15:54Z</time>
      </trkpt>
      <trkpt lat="48.00665" lon="6.97765">
        <ele>1191</ele>
        <time>2022-04-05T19:15:56Z</time>
      </trkpt>
      <trkpt lat="48.00666" lon="6.97775">
        <ele>1192</ele>
        <time>2022-04-05T19:15:57Z</time>
      </trkpt>
      <trkpt lat="48.00668" lon="6.97781">
        <ele>1194</ele>
        <time>2022-04-05T19:15:58Z</time>
      </trkpt>
      <trkpt lat="48.00676" lon="6.9776">
        <ele>1194</ele>
        <time>2022-04-05T19:16:01Z</time>
      </trkpt>
      <trkpt lat="48.00714" lon="6.9765">
        <ele>1193</ele>
        <time>2022-04-05T19:16:16Z</time>
      </trkpt>
      <trkpt lat="48.00731" lon="6.97614">
        <ele>1194</ele>
        <time>2022-04-05T19:16:21Z</time>
      </trkpt>
      <trkpt lat="48.00758" lon="6.97568">
        <ele>1195</ele>
        <time>2022-04-05T19:16:28Z</time>
      </trkpt>
      <trkpt lat="48.00813" lon="6.97491">
        <ele>1199</ele>
        <time>2022-04-05T19:16:42Z</time>
      </trkpt>
      <trkpt lat="48.0085" lon="6.97435">
        <ele>1202</ele>
        <time>2022-04-05T19:16:51Z</time>
      </trkpt>
      <trkpt lat="48.00858" lon="6.97425">
        <ele>1202</ele>
        <time>2022-04-05T19:16:53Z</time>
      </trkpt>
      <trkpt lat="48.00863" lon="6.97421">
        <ele>1202</ele>
        <time>2022-04-05T19:16:54Z</time>
      </trkpt>
      <trkpt lat="48.0087" lon="6.97415">
        <ele>1203</ele>
        <time>2022-04-05T19:16:55Z</time>
      </trkpt>
      <trkpt lat="48.00895" lon="6.974">
        <ele>1204</ele>
        <time>2022-04-05T19:17:00Z</time>
      </trkpt>
      <trkpt lat="48.00917" lon="6.97391">
        <ele>1206</ele>
        <time>2022-04-05T19:17:04Z</time>
      </trkpt>
      <trkpt lat="48.00942" lon="6.97385">
        <ele>1205</ele>
        <time>2022-04-05T19:17:09Z</time>
      </trkpt>
      <trkpt lat="48.0097" lon="6.97384">
        <ele>1205</ele>
        <time>2022-04-05T19:17:14Z</time>
      </trkpt>
      <trkpt lat="48.00991" lon="6.97387">
        <ele>1206</ele>
        <time>2022-04-05T19:17:17Z</time>
      </trkpt>
      <trkpt lat="48.01" lon="6.97392">
        <ele>1207</ele>
        <time>2022-04-05T19:17:19Z</time>
      </trkpt>
      <trkpt lat="48.01007" lon="6.97397">
        <ele>1207</ele>
        <time>2022-04-05T19:17:20Z</time>
      </trkpt>
      <trkpt lat="48.01012" lon="6.97408">
        <ele>1207</ele>
        <time>2022-04-05T19:17:22Z</time>
      </trkpt>
      <trkpt lat="48.01014" lon="6.97416">
        <ele>1208</ele>
        <time>2022-04-05T19:17:23Z</time>
      </trkpt>
      <trkpt lat="48.01015" lon="6.9743">
        <ele>1206</ele>
        <time>2022-04-05T19:17:25Z</time>
      </trkpt>
      <trkpt lat="48.01012" lon="6.97446">
        <ele>1206</ele>
        <time>2022-04-05T19:17:27Z</time>
      </trkpt>
      <trkpt lat="48.01005" lon="6.9746">
        <ele>1206</ele>
        <time>2022-04-05T19:17:29Z</time>
      </trkpt>
      <trkpt lat="48.00992" lon="6.97484">
        <ele>1207</ele>
        <time>2022-04-05T19:17:32Z</time>
      </trkpt>
      <trkpt lat="48.0097" lon="6.97548">
        <ele>1210</ele>
        <time>2022-04-05T19:17:41Z</time>
      </trkpt>
      <trkpt lat="48.00965" lon="6.97569">
        <ele>1212</ele>
        <time>2022-04-05T19:17:44Z</time>
      </trkpt>
      <trkpt lat="48.00965" lon="6.9758">
        <ele>1211</ele>
        <time>2022-04-05T19:17:45Z</time>
      </trkpt>
      <trkpt lat="48.00972" lon="6.9761">
        <ele>1212</ele>
        <time>2022-04-05T19:17:49Z</time>
      </trkpt>
      <trkpt lat="48.00984" lon="6.97655">
        <ele>1213</ele>
        <time>2022-04-05T19:17:54Z</time>
      </trkpt>
      <trkpt lat="48.01008" lon="6.97717">
        <ele>1213</ele>
        <time>2022-04-05T19:18:03Z</time>
      </trkpt>
      <trkpt lat="48.01019" lon="6.97746">
        <ele>1211</ele>
        <time>2022-04-05T19:18:07Z</time>
      </trkpt>
      <trkpt lat="48.01039" lon="6.97785">
        <ele>1207</ele>
        <time>2022-04-05T19:18:13Z</time>
      </trkpt>
      <trkpt lat="48.01071" lon="6.97856">
        <ele>1207</ele>
        <time>2022-04-05T19:18:23Z</time>
      </trkpt>
      <trkpt lat="48.01075" lon="6.97874">
        <ele>1210</ele>
        <time>2022-04-05T19:18:25Z</time>
      </trkpt>
      <trkpt lat="48.0108" lon="6.97904">
        <ele>1217</ele>
        <time>2022-04-05T19:18:29Z</time>
      </trkpt>
      <trkpt lat="48.01089" lon="6.97918">
        <ele>1216</ele>
        <time>2022-04-05T19:18:31Z</time>
      </trkpt>
      <trkpt lat="48.01115" lon="6.97934">
        <ele>1205</ele>
        <time>2022-04-05T19:18:36Z</time>
      </trkpt>
      <trkpt lat="48.01127" lon="6.97949">
        <ele>1201</ele>
        <time>2022-04-05T19:18:39Z</time>
      </trkpt>
      <trkpt lat="48.01144" lon="6.9798">
        <ele>1199</ele>
        <time>2022-04-05T19:18:44Z</time>
      </trkpt>
      <trkpt lat="48.01155" lon="6.98009">
        <ele>1199</ele>
        <time>2022-04-05T19:18:48Z</time>
      </trkpt>
      <trkpt lat="48.01164" lon="6.98039">
        <ele>1201</ele>
        <time>2022-04-05T19:18:52Z</time>
      </trkpt>
      <trkpt lat="48.01167" lon="6.98047">
        <ele>1202</ele>
        <time>2022-04-05T19:18:53Z</time>
      </trkpt>
      <trkpt lat="48.01177" lon="6.98059">
        <ele>1199</ele>
        <time>2022-04-05T19:18:55Z</time>
      </trkpt>
      <trkpt lat="48.01197" lon="6.98118">
        <ele>1201</ele>
        <time>2022-04-05T19:19:03Z</time>
      </trkpt>
      <trkpt lat="48.01217" lon="6.98148">
        <ele>1197</ele>
        <time>2022-04-05T19:19:08Z</time>
      </trkpt>
      <trkpt lat="48.0124" lon="6.98205">
        <ele>1198</ele>
        <time>2022-04-05T19:19:16Z</time>
      </trkpt>
      <trkpt lat="48.01254" lon="6.98233">
        <ele>1198</ele>
        <time>2022-04-05T19:19:20Z</time>
      </trkpt>
      <trkpt lat="48.0128" lon="6.98267">
        <ele>1196</ele>
        <time>2022-04-05T19:19:26Z</time>
      </trkpt>
      <trkpt lat="48.01351" lon="6.98363">
        <ele>1192</ele>
        <time>2022-04-05T19:19:43Z</time>
      </trkpt>
      <trkpt lat="48.01463" lon="6.98485">
        <ele>1184</ele>
        <time>2022-04-05T19:20:08Z</time>
      </trkpt>
      <trkpt lat="48.01466" lon="6.98488">
        <ele>1184</ele>
        <time>2022-04-05T19:20:09Z</time>
      </trkpt>
      <trkpt lat="48.01489" lon="6.98507">
        <ele>1181</ele>
        <time>2022-04-05T19:20:13Z</time>
      </trkpt>
      <trkpt lat="48.01519" lon="6.98524">
        <ele>1180</ele>
        <time>2022-04-05T19:20:19Z</time>
      </trkpt>
      <trkpt lat="48.01624" lon="6.98568">
        <ele>1184</ele>
        <time>2022-04-05T19:20:38Z</time>
      </trkpt>
      <trkpt lat="48.01648" lon="6.98571">
        <ele>1183</ele>
        <time>2022-04-05T19:20:43Z</time>
      </trkpt>
      <trkpt lat="48.01679" lon="6.98569">
        <ele>1181</ele>
        <time>2022-04-05T19:20:48Z</time>
      </trkpt>
      <trkpt lat="48.01705" lon="6.98569">
        <ele>1181</ele>
        <time>2022-04-05T19:20:53Z</time>
      </trkpt>
      <trkpt lat="48.01723" lon="6.98572">
        <ele>1182</ele>
        <time>2022-04-05T19:20:56Z</time>
      </trkpt>
      <trkpt lat="48.01746" lon="6.98582">
        <ele>1185</ele>
        <time>2022-04-05T19:21:00Z</time>
      </trkpt>
      <trkpt lat="48.01807" lon="6.98614">
        <ele>1188</ele>
        <time>2022-04-05T19:21:12Z</time>
      </trkpt>
      <trkpt lat="48.01872" lon="6.98661">
        <ele>1194</ele>
        <time>2022-04-05T19:21:25Z</time>
      </trkpt>
      <trkpt lat="48.01891" lon="6.9867">
        <ele>1195</ele>
        <time>2022-04-05T19:21:28Z</time>
      </trkpt>
      <trkpt lat="48.01961" lon="6.98701">
        <ele>1203</ele>
        <time>2022-04-05T19:21:41Z</time>
      </trkpt>
      <trkpt lat="48.02007" lon="6.98736">
        <ele>1213</ele>
        <time>2022-04-05T19:21:50Z</time>
      </trkpt>
      <trkpt lat="48.02035" lon="6.98748">
        <ele>1216</ele>
        <time>2022-04-05T19:21:56Z</time>
      </trkpt>
      <trkpt lat="48.02133" lon="6.98743">
        <ele>1215</ele>
        <time>2022-04-05T19:22:13Z</time>
      </trkpt>
      <trkpt lat="48.0216" lon="6.98758">
        <ele>1218</ele>
        <time>2022-04-05T19:22:18Z</time>
      </trkpt>
      <trkpt lat="48.02211" lon="6.98789">
        <ele>1220</ele>
        <time>2022-04-05T19:22:28Z</time>
      </trkpt>
      <trkpt lat="48.02266" lon="6.98833">
        <ele>1223</ele>
        <time>2022-04-05T19:22:39Z</time>
      </trkpt>
      <trkpt lat="48.02304" lon="6.98868">
        <ele>1222</ele>
        <time>2022-04-05T19:22:47Z</time>
      </trkpt>
      <trkpt lat="48.02337" lon="6.98912">
        <ele>1222</ele>
        <time>2022-04-05T19:22:55Z</time>
      </trkpt>
      <trkpt lat="48.02348" lon="6.98944">
        <ele>1221</ele>
        <time>2022-04-05T19:22:59Z</time>
      </trkpt>
      <trkpt lat="48.02354" lon="6.98972">
        <ele>1221</ele>
        <time>2022-04-05T19:23:03Z</time>
      </trkpt>
      <trkpt lat="48.02353" lon="6.98992">
        <ele>1221</ele>
        <time>2022-04-05T19:23:05Z</time>
      </trkpt>
      <trkpt lat="48.02344" lon="6.99013">
        <ele>1223</ele>
        <time>2022-04-05T19:23:08Z</time>
      </trkpt>
      <trkpt lat="48.0229" lon="6.99095">
        <ele>1233</ele>
        <time>2022-04-05T19:23:22Z</time>
      </trkpt>
      <trkpt lat="48.02284" lon="6.99111">
        <ele>1234</ele>
        <time>2022-04-05T19:23:24Z</time>
      </trkpt>
      <trkpt lat="48.0228" lon="6.99128">
        <ele>1235</ele>
        <time>2022-04-05T19:23:26Z</time>
      </trkpt>
      <trkpt lat="48.02283" lon="6.99151">
        <ele>1234</ele>
        <time>2022-04-05T19:23:29Z</time>
      </trkpt>
      <trkpt lat="48.02289" lon="6.99164">
        <ele>1233</ele>
        <time>2022-04-05T19:23:31Z</time>
      </trkpt>
      <trkpt lat="48.02298" lon="6.9917">
        <ele>1232</ele>
        <time>2022-04-05T19:23:32Z</time>
      </trkpt>
      <trkpt lat="48.02306" lon="6.99173">
        <ele>1231</ele>
        <time>2022-04-05T19:23:34Z</time>
      </trkpt>
      <trkpt lat="48.02362" lon="6.99177">
        <ele>1222</ele>
        <time>2022-04-05T19:23:44Z</time>
      </trkpt>
      <trkpt lat="48.02373" lon="6.99182">
        <ele>1221</ele>
        <time>2022-04-05T19:23:46Z</time>
      </trkpt>
      <trkpt lat="48.02381" lon="6.99189">
        <ele>1221</ele>
        <time>2022-04-05T19:23:48Z</time>
      </trkpt>
      <trkpt lat="48.02447" lon="6.99333">
        <ele>1227</ele>
        <time>2022-04-05T19:24:08Z</time>
      </trkpt>
      <trkpt lat="48.02453" lon="6.99354">
        <ele>1228</ele>
        <time>2022-04-05T19:24:11Z</time>
      </trkpt>
      <trkpt lat="48.02465" lon="6.99417">
        <ele>1234</ele>
        <time>2022-04-05T19:24:19Z</time>
      </trkpt>
      <trkpt lat="48.02473" lon="6.99446">
        <ele>1238</ele>
        <time>2022-04-05T19:24:23Z</time>
      </trkpt>
      <trkpt lat="48.02484" lon="6.99473">
        <ele>1240</ele>
        <time>2022-04-05T19:24:26Z</time>
      </trkpt>
      <trkpt lat="48.02494" lon="6.99493">
        <ele>1241</ele>
        <time>2022-04-05T19:24:29Z</time>
      </trkpt>
      <trkpt lat="48.02508" lon="6.99512">
        <ele>1242</ele>
        <time>2022-04-05T19:24:33Z</time>
      </trkpt>
      <trkpt lat="48.02525" lon="6.99531">
        <ele>1242</ele>
        <time>2022-04-05T19:24:36Z</time>
      </trkpt>
      <trkpt lat="48.02537" lon="6.99546">
        <ele>1242</ele>
        <time>2022-04-05T19:24:39Z</time>
      </trkpt>
      <trkpt lat="48.02552" lon="6.99567">
        <ele>1243</ele>
        <time>2022-04-05T19:24:43Z</time>
      </trkpt>
      <trkpt lat="48.0257" lon="6.996">
        <ele>1244</ele>
        <time>2022-04-05T19:24:48Z</time>
      </trkpt>
      <trkpt lat="48.02582" lon="6.99623">
        <ele>1244</ele>
        <time>2022-04-05T19:24:51Z</time>
      </trkpt>
      <trkpt lat="48.02594" lon="6.9965">
        <ele>1245</ele>
        <time>2022-04-05T19:24:55Z</time>
      </trkpt>
      <trkpt lat="48.02605" lon="6.99668">
        <ele>1245</ele>
        <time>2022-04-05T19:24:58Z</time>
      </trkpt>
      <trkpt lat="48.02615" lon="6.99675">
        <ele>1244</ele>
        <time>2022-04-05T19:25:00Z</time>
      </trkpt>
      <trkpt lat="48.0266" lon="6.99694">
        <ele>1240</ele>
        <time>2022-04-05T19:25:08Z</time>
      </trkpt>
      <trkpt lat="48.02685" lon="6.9971">
        <ele>1238</ele>
        <time>2022-04-05T19:25:13Z</time>
      </trkpt>
      <trkpt lat="48.02695" lon="6.99721">
        <ele>1239</ele>
        <time>2022-04-05T19:25:15Z</time>
      </trkpt>
      <trkpt lat="48.02706" lon="6.9974">
        <ele>1240</ele>
        <time>2022-04-05T19:25:18Z</time>
      </trkpt>
      <trkpt lat="48.0272" lon="6.99766">
        <ele>1240</ele>
        <time>2022-04-05T19:25:22Z</time>
      </trkpt>
      <trkpt lat="48.02767" lon="6.99867">
        <ele>1239</ele>
        <time>2022-04-05T19:25:37Z</time>
      </trkpt>
      <trkpt lat="48.02798" lon="6.9996">
        <ele>1243</ele>
        <time>2022-04-05T19:25:49Z</time>
      </trkpt>
      <trkpt lat="48.02808" lon="7.00004">
        <ele>1246</ele>
        <time>2022-04-05T19:25:55Z</time>
      </trkpt>
      <trkpt lat="48.02819" lon="7.00076">
        <ele>1247</ele>
        <time>2022-04-05T19:26:04Z</time>
      </trkpt>
      <trkpt lat="48.02849" lon="7.00297">
        <ele>1254</ele>
        <time>2022-04-05T19:26:31Z</time>
      </trkpt>
      <trkpt lat="48.02857" lon="7.00322">
        <ele>1254</ele>
        <time>2022-04-05T19:26:34Z</time>
      </trkpt>
      <trkpt lat="48.0287" lon="7.00349">
        <ele>1253</ele>
        <time>2022-04-05T19:26:38Z</time>
      </trkpt>
      <trkpt lat="48.02888" lon="7.00378">
        <ele>1251</ele>
        <time>2022-04-05T19:26:43Z</time>
      </trkpt>
      <trkpt lat="48.02951" lon="7.0045">
        <ele>1252</ele>
        <time>2022-04-05T19:26:57Z</time>
      </trkpt>
      <trkpt lat="48.0296" lon="7.00457">
        <ele>1253</ele>
        <time>2022-04-05T19:26:58Z</time>
      </trkpt>
      <trkpt lat="48.02971" lon="7.00463">
        <ele>1253</ele>
        <time>2022-04-05T19:27:01Z</time>
      </trkpt>
      <trkpt lat="48.02981" lon="7.00464">
        <ele>1253</ele>
        <time>2022-04-05T19:27:02Z</time>
      </trkpt>
      <trkpt lat="48.02996" lon="7.00461">
        <ele>1253</ele>
        <time>2022-04-05T19:27:05Z</time>
      </trkpt>
      <trkpt lat="48.03008" lon="7.00453">
        <ele>1253</ele>
        <time>2022-04-05T19:27:07Z</time>
      </trkpt>
      <trkpt lat="48.03021" lon="7.00438">
        <ele>1254</ele>
        <time>2022-04-05T19:27:10Z</time>
      </trkpt>
      <trkpt lat="48.03027" lon="7.00425">
        <ele>1254</ele>
        <time>2022-04-05T19:27:12Z</time>
      </trkpt>
      <trkpt lat="48.03036" lon="7.00404">
        <ele>1253</ele>
        <time>2022-04-05T19:27:15Z</time>
      </trkpt>
      <trkpt lat="48.03047" lon="7.00382">
        <ele>1253</ele>
        <time>2022-04-05T19:27:18Z</time>
      </trkpt>
      <trkpt lat="48.0313" lon="7.00288">
        <ele>1258</ele>
        <time>2022-04-05T19:27:37Z</time>
      </trkpt>
      <trkpt lat="48.03141" lon="7.00271">
        <ele>1258</ele>
        <time>2022-04-05T19:27:40Z</time>
      </trkpt>
      <trkpt lat="48.03177" lon="7.00201">
        <ele>1258</ele>
        <time>2022-04-05T19:27:50Z</time>
      </trkpt>
      <trkpt lat="48.03195" lon="7.00177">
        <ele>1257</ele>
        <time>2022-04-05T19:27:55Z</time>
      </trkpt>
      <trkpt lat="48.0323" lon="7.00141">
        <ele>1257</ele>
        <time>2022-04-05T19:28:02Z</time>
      </trkpt>
      <trkpt lat="48.03255" lon="7.00133">
        <ele>1257</ele>
        <time>2022-04-05T19:28:07Z</time>
      </trkpt>
      <trkpt lat="48.03269" lon="7.00137">
        <ele>1257</ele>
        <time>2022-04-05T19:28:09Z</time>
      </trkpt>
      <trkpt lat="48.03281" lon="7.00146">
        <ele>1257</ele>
        <time>2022-04-05T19:28:12Z</time>
      </trkpt>
      <trkpt lat="48.03295" lon="7.00164">
        <ele>1257</ele>
        <time>2022-04-05T19:28:15Z</time>
      </trkpt>
      <trkpt lat="48.03336" lon="7.0023">
        <ele>1257</ele>
        <time>2022-04-05T19:28:26Z</time>
      </trkpt>
      <trkpt lat="48.03339" lon="7.00235">
        <ele>1257</ele>
        <time>2022-04-05T19:28:26Z</time>
      </trkpt>
      <trkpt lat="48.03363" lon="7.00281">
        <ele>1255</ele>
        <time>2022-04-05T19:28:33Z</time>
      </trkpt>
      <trkpt lat="48.03402" lon="7.00375">
        <ele>1253</ele>
        <time>2022-04-05T19:28:46Z</time>
      </trkpt>
      <trkpt lat="48.03412" lon="7.00406">
        <ele>1252</ele>
        <time>2022-04-05T19:28:51Z</time>
      </trkpt>
      <trkpt lat="48.03438" lon="7.00531">
        <ele>1253</ele>
        <time>2022-04-05T19:29:06Z</time>
      </trkpt>
      <trkpt lat="48.03448" lon="7.00557">
        <ele>1253</ele>
        <time>2022-04-05T19:29:10Z</time>
      </trkpt>
      <trkpt lat="48.03473" lon="7.00605">
        <ele>1251</ele>
        <time>2022-04-05T19:29:17Z</time>
      </trkpt>
      <trkpt lat="48.03498" lon="7.0065">
        <ele>1250</ele>
        <time>2022-04-05T19:29:24Z</time>
      </trkpt>
      <trkpt lat="48.03542" lon="7.00728">
        <ele>1247</ele>
        <time>2022-04-05T19:29:36Z</time>
      </trkpt>
      <trkpt lat="48.03564" lon="7.0076">
        <ele>1246</ele>
        <time>2022-04-05T19:29:42Z</time>
      </trkpt>
      <trkpt lat="48.03565" lon="7.00771">
        <ele>1247</ele>
        <time>2022-04-05T19:29:43Z</time>
      </trkpt>
      <trkpt lat="48.03579" lon="7.00805">
        <ele>1247</ele>
        <time>2022-04-05T19:29:48Z</time>
      </trkpt>
      <trkpt lat="48.03587" lon="7.00833">
        <ele>1249</ele>
        <time>2022-04-05T19:29:51Z</time>
      </trkpt>
      <trkpt lat="48.03592" lon="7.00836">
        <ele>1249</ele>
        <time>2022-04-05T19:29:52Z</time>
      </trkpt>
      <trkpt lat="48.03599" lon="7.00836">
        <ele>1249</ele>
        <time>2022-04-05T19:29:53Z</time>
      </trkpt>
      <trkpt lat="48.03607" lon="7.00841">
        <ele>1249</ele>
        <time>2022-04-05T19:29:55Z</time>
      </trkpt>
      <trkpt lat="48.03615" lon="7.00845">
        <ele>1250</ele>
        <time>2022-04-05T19:29:56Z</time>
      </trkpt>
      <trkpt lat="48.03709" lon="7.00901">
        <ele>1256</ele>
        <time>2022-04-05T19:30:14Z</time>
      </trkpt>
      <trkpt lat="48.03761" lon="7.00936">
        <ele>1261</ele>
        <time>2022-04-05T19:30:25Z</time>
      </trkpt>
      <trkpt lat="48.03817" lon="7.00969">
        <ele>1265</ele>
        <time>2022-04-05T19:30:35Z</time>
      </trkpt>
      <trkpt lat="48.03821" lon="7.00974">
        <ele>1266</ele>
        <time>2022-04-05T19:30:36Z</time>
      </trkpt>
      <trkpt lat="48.03822" lon="7.00979">
        <ele>1267</ele>
        <time>2022-04-05T19:30:37Z</time>
      </trkpt>
      <trkpt lat="48.03821" lon="7.00983">
        <ele>1268</ele>
        <time>2022-04-05T19:30:37Z</time>
      </trkpt>
      <trkpt lat="48.03817" lon="7.00989">
        <ele>1269</ele>
        <time>2022-04-05T19:30:38Z</time>
      </trkpt>
      <trkpt lat="48.03778" lon="7.00996">
        <ele>1270</ele>
        <time>2022-04-05T19:30:45Z</time>
      </trkpt>
      <trkpt lat="48.03751" lon="7.01003">
        <ele>1271</ele>
        <time>2022-04-05T19:30:50Z</time>
      </trkpt>
      <trkpt lat="48.03721" lon="7.01015">
        <ele>1273</ele>
        <time>2022-04-05T19:30:56Z</time>
      </trkpt>
      <trkpt lat="48.03661" lon="7.01055">
        <ele>1280</ele>
        <time>2022-04-05T19:31:07Z</time>
      </trkpt>
      <trkpt lat="48.03641" lon="7.0107">
        <ele>1280</ele>
        <time>2022-04-05T19:31:11Z</time>
      </trkpt>
      <trkpt lat="48.03613" lon="7.01092">
        <ele>1281</ele>
        <time>2022-04-05T19:31:17Z</time>
      </trkpt>
      <trkpt lat="48.03606" lon="7.01097">
        <ele>1282</ele>
        <time>2022-04-05T19:31:18Z</time>
      </trkpt>
      <trkpt lat="48.036" lon="7.01103">
        <ele>1282</ele>
        <time>2022-04-05T19:31:20Z</time>
      </trkpt>
      <trkpt lat="48.03583" lon="7.01124">
        <ele>1284</ele>
        <time>2022-04-05T19:31:24Z</time>
      </trkpt>
      <trkpt lat="48.03578" lon="7.01133">
        <ele>1284</ele>
        <time>2022-04-05T19:31:25Z</time>
      </trkpt>
      <trkpt lat="48.03577" lon="7.01139">
        <ele>1285</ele>
        <time>2022-04-05T19:31:26Z</time>
      </trkpt>
      <trkpt lat="48.03577" lon="7.01145">
        <ele>1286</ele>
        <time>2022-04-05T19:31:27Z</time>
      </trkpt>
      <trkpt lat="48.0358" lon="7.01149">
        <ele>1287</ele>
        <time>2022-04-05T19:31:27Z</time>
      </trkpt>
      <trkpt lat="48.03584" lon="7.0115">
        <ele>1288</ele>
        <time>2022-04-05T19:31:28Z</time>
      </trkpt>
      <trkpt lat="48.03606" lon="7.01145">
        <ele>1288</ele>
        <time>2022-04-05T19:31:32Z</time>
      </trkpt>
      <trkpt lat="48.03669" lon="7.01145">
        <ele>1292</ele>
        <time>2022-04-05T19:31:43Z</time>
      </trkpt>
      <trkpt lat="48.03728" lon="7.01153">
        <ele>1297</ele>
        <time>2022-04-05T19:31:54Z</time>
      </trkpt>
      <trkpt lat="48.03732" lon="7.01156">
        <ele>1298</ele>
        <time>2022-04-05T19:31:54Z</time>
      </trkpt>
      <trkpt lat="48.03734" lon="7.01161">
        <ele>1299</ele>
        <time>2022-04-05T19:31:55Z</time>
      </trkpt>
      <trkpt lat="48.03734" lon="7.01168">
        <ele>1301</ele>
        <time>2022-04-05T19:31:56Z</time>
      </trkpt>
      <trkpt lat="48.03732" lon="7.01172">
        <ele>1301</ele>
        <time>2022-04-05T19:31:57Z</time>
      </trkpt>
      <trkpt lat="48.03726" lon="7.01177">
        <ele>1301</ele>
        <time>2022-04-05T19:31:58Z</time>
      </trkpt>
      <trkpt lat="48.03706" lon="7.01186">
        <ele>1301</ele>
        <time>2022-04-05T19:32:02Z</time>
      </trkpt>
      <trkpt lat="48.03686" lon="7.01201">
        <ele>1302</ele>
        <time>2022-04-05T19:32:05Z</time>
      </trkpt>
      <trkpt lat="48.03653" lon="7.01237">
        <ele>1305</ele>
        <time>2022-04-05T19:32:13Z</time>
      </trkpt>
      <trkpt lat="48.03651" lon="7.01247">
        <ele>1306</ele>
        <time>2022-04-05T19:32:14Z</time>
      </trkpt>
      <trkpt lat="48.03651" lon="7.01253">
        <ele>1307</ele>
        <time>2022-04-05T19:32:15Z</time>
      </trkpt>
      <trkpt lat="48.03654" lon="7.01256">
        <ele>1308</ele>
        <time>2022-04-05T19:32:15Z</time>
      </trkpt>
      <trkpt lat="48.0366" lon="7.01257">
        <ele>1309</ele>
        <time>2022-04-05T19:32:16Z</time>
      </trkpt>
      <trkpt lat="48.03674" lon="7.01248">
        <ele>1310</ele>
        <time>2022-04-05T19:32:19Z</time>
      </trkpt>
      <trkpt lat="48.03714" lon="7.01236">
        <ele>1310</ele>
        <time>2022-04-05T19:32:26Z</time>
      </trkpt>
      <trkpt lat="48.03717" lon="7.01237">
        <ele>1310</ele>
        <time>2022-04-05T19:32:27Z</time>
      </trkpt>
      <trkpt lat="48.03721" lon="7.0124">
        <ele>1311</ele>
        <time>2022-04-05T19:32:28Z</time>
      </trkpt>
      <trkpt lat="48.03734" lon="7.01254">
        <ele>1314</ele>
        <time>2022-04-05T19:32:31Z</time>
      </trkpt>
      <trkpt lat="48.03744" lon="7.01262">
        <ele>1316</ele>
        <time>2022-04-05T19:32:33Z</time>
      </trkpt>
      <trkpt lat="48.03789" lon="7.0129">
        <ele>1321</ele>
        <time>2022-04-05T19:32:41Z</time>
      </trkpt>
      <trkpt lat="48.03791" lon="7.01297">
        <ele>1322</ele>
        <time>2022-04-05T19:32:42Z</time>
      </trkpt>
      <trkpt lat="48.0379" lon="7.01306">
        <ele>1323</ele>
        <time>2022-04-05T19:32:43Z</time>
      </trkpt>
      <trkpt lat="48.03784" lon="7.01313">
        <ele>1324</ele>
        <time>2022-04-05T19:32:45Z</time>
      </trkpt>
      <trkpt lat="48.03726" lon="7.01357">
        <ele>1325</ele>
        <time>2022-04-05T19:32:56Z</time>
      </trkpt>
      <trkpt lat="48.03721" lon="7.01364">
        <ele>1324</ele>
        <time>2022-04-05T19:32:57Z</time>
      </trkpt>
      <trkpt lat="48.03718" lon="7.01371">
        <ele>1323</ele>
        <time>2022-04-05T19:32:58Z</time>
      </trkpt>
      <trkpt lat="48.03718" lon="7.01379">
        <ele>1323</ele>
        <time>2022-04-05T19:32:59Z</time>
      </trkpt>
      <trkpt lat="48.03723" lon="7.0139">
        <ele>1325</ele>
        <time>2022-04-05T19:33:01Z</time>
      </trkpt>
      <trkpt lat="48.03768" lon="7.01417">
        <ele>1336</ele>
        <time>2022-04-05T19:33:10Z</time>
      </trkpt>
      <trkpt lat="48.03771" lon="7.01422">
        <ele>1336</ele>
        <time>2022-04-05T19:33:10Z</time>
      </trkpt>
      <trkpt lat="48.0377" lon="7.01432">
        <ele>1337</ele>
        <time>2022-04-05T19:33:12Z</time>
      </trkpt>
      <trkpt lat="48.03768" lon="7.01437">
        <ele>1337</ele>
        <time>2022-04-05T19:33:12Z</time>
      </trkpt>
      <trkpt lat="48.03755" lon="7.01449">
        <ele>1337</ele>
        <time>2022-04-05T19:33:15Z</time>
      </trkpt>
      <trkpt lat="48.03747" lon="7.0146">
        <ele>1336</ele>
        <time>2022-04-05T19:33:17Z</time>
      </trkpt>
      <trkpt lat="48.03744" lon="7.01468">
        <ele>1335</ele>
        <time>2022-04-05T19:33:18Z</time>
      </trkpt>
      <trkpt lat="48.03743" lon="7.01478">
        <ele>1335</ele>
        <time>2022-04-05T19:33:19Z</time>
      </trkpt>
      <trkpt lat="48.03744" lon="7.01493">
        <ele>1337</ele>
        <time>2022-04-05T19:33:21Z</time>
      </trkpt>
      <trkpt lat="48.03746" lon="7.01502">
        <ele>1338</ele>
        <time>2022-04-05T19:33:22Z</time>
      </trkpt>
      <trkpt lat="48.03755" lon="7.01507">
        <ele>1341</ele>
        <time>2022-04-05T19:33:24Z</time>
      </trkpt>
      <trkpt lat="48.03772" lon="7.01507">
        <ele>1343</ele>
        <time>2022-04-05T19:33:27Z</time>
      </trkpt>
      <trkpt lat="48.03783" lon="7.01513">
        <ele>1344</ele>
        <time>2022-04-05T19:33:29Z</time>
      </trkpt>
      <trkpt lat="48.03789" lon="7.01519">
        <ele>1345</ele>
        <time>2022-04-05T19:33:30Z</time>
      </trkpt>
      <trkpt lat="48.03795" lon="7.01534">
        <ele>1346</ele>
        <time>2022-04-05T19:33:32Z</time>
      </trkpt>
      <trkpt lat="48.03799" lon="7.01551">
        <ele>1348</ele>
        <time>2022-04-05T19:33:34Z</time>
      </trkpt>
      <trkpt lat="48.03796" lon="7.0157">
        <ele>1349</ele>
        <time>2022-04-05T19:33:37Z</time>
      </trkpt>
      <trkpt lat="48.03792" lon="7.01575">
        <ele>1349</ele>
        <time>2022-04-05T19:33:38Z</time>
      </trkpt>
      <trkpt lat="48.03778" lon="7.01575">
        <ele>1349</ele>
        <time>2022-04-05T19:33:40Z</time>
      </trkpt>
      <trkpt lat="48.03775" lon="7.01562">
        <ele>1348</ele>
        <time>2022-04-05T19:33:42Z</time>
      </trkpt>
      <trkpt lat="48.03778" lon="7.01575">
        <ele>1349</ele>
        <time>2022-04-05T19:33:43Z</time>
      </trkpt>
      <trkpt lat="48.03792" lon="7.01575">
        <ele>1349</ele>
        <time>2022-04-05T19:33:46Z</time>
      </trkpt>
      <trkpt lat="48.03796" lon="7.0157">
        <ele>1349</ele>
        <time>2022-04-05T19:33:47Z</time>
      </trkpt>
      <trkpt lat="48.03799" lon="7.01551">
        <ele>1348</ele>
        <time>2022-04-05T19:33:49Z</time>
      </trkpt>
      <trkpt lat="48.03795" lon="7.01534">
        <ele>1346</ele>
        <time>2022-04-05T19:33:51Z</time>
      </trkpt>
      <trkpt lat="48.03789" lon="7.01519">
        <ele>1345</ele>
        <time>2022-04-05T19:33:53Z</time>
      </trkpt>
      <trkpt lat="48.03783" lon="7.01513">
        <ele>1344</ele>
        <time>2022-04-05T19:33:55Z</time>
      </trkpt>
      <trkpt lat="48.03772" lon="7.01507">
        <ele>1343</ele>
        <time>2022-04-05T19:33:57Z</time>
      </trkpt>
      <trkpt lat="48.03755" lon="7.01507">
        <ele>1341</ele>
        <time>2022-04-05T19:34:00Z</time>
      </trkpt>
      <trkpt lat="48.03746" lon="7.01502">
        <ele>1338</ele>
        <time>2022-04-05T19:34:02Z</time>
      </trkpt>
      <trkpt lat="48.03744" lon="7.01493">
        <ele>1337</ele>
        <time>2022-04-05T19:34:03Z</time>
      </trkpt>
      <trkpt lat="48.03743" lon="7.01478">
        <ele>1335</ele>
        <time>2022-04-05T19:34:04Z</time>
      </trkpt>
      <trkpt lat="48.03744" lon="7.01468">
        <ele>1335</ele>
        <time>2022-04-05T19:34:06Z</time>
      </trkpt>
      <trkpt lat="48.03747" lon="7.0146">
        <ele>1336</ele>
        <time>2022-04-05T19:34:07Z</time>
      </trkpt>
      <trkpt lat="48.03755" lon="7.01449">
        <ele>1337</ele>
        <time>2022-04-05T19:34:09Z</time>
      </trkpt>
      <trkpt lat="48.03768" lon="7.01437">
        <ele>1337</ele>
        <time>2022-04-05T19:34:11Z</time>
      </trkpt>
      <trkpt lat="48.0377" lon="7.01432">
        <ele>1337</ele>
        <time>2022-04-05T19:34:12Z</time>
      </trkpt>
      <trkpt lat="48.03771" lon="7.01422">
        <ele>1336</ele>
        <time>2022-04-05T19:34:13Z</time>
      </trkpt>
      <trkpt lat="48.03768" lon="7.01417">
        <ele>1336</ele>
        <time>2022-04-05T19:34:14Z</time>
      </trkpt>
      <trkpt lat="48.03723" lon="7.0139">
        <ele>1325</ele>
        <time>2022-04-05T19:34:23Z</time>
      </trkpt>
      <trkpt lat="48.03718" lon="7.01379">
        <ele>1323</ele>
        <time>2022-04-05T19:34:24Z</time>
      </trkpt>
      <trkpt lat="48.03718" lon="7.01371">
        <ele>1323</ele>
        <time>2022-04-05T19:34:25Z</time>
      </trkpt>
      <trkpt lat="48.03721" lon="7.01364">
        <ele>1324</ele>
        <time>2022-04-05T19:34:26Z</time>
      </trkpt>
      <trkpt lat="48.03726" lon="7.01357">
        <ele>1325</ele>
        <time>2022-04-05T19:34:27Z</time>
      </trkpt>
      <trkpt lat="48.03784" lon="7.01313">
        <ele>1324</ele>
        <time>2022-04-05T19:34:39Z</time>
      </trkpt>
      <trkpt lat="48.0379" lon="7.01306">
        <ele>1323</ele>
        <time>2022-04-05T19:34:40Z</time>
      </trkpt>
      <trkpt lat="48.03791" lon="7.01297">
        <ele>1322</ele>
        <time>2022-04-05T19:34:41Z</time>
      </trkpt>
      <trkpt lat="48.03789" lon="7.0129">
        <ele>1321</ele>
        <time>2022-04-05T19:34:42Z</time>
      </trkpt>
      <trkpt lat="48.03744" lon="7.01262">
        <ele>1316</ele>
        <time>2022-04-05T19:34:51Z</time>
      </trkpt>
      <trkpt lat="48.03734" lon="7.01254">
        <ele>1314</ele>
        <time>2022-04-05T19:34:53Z</time>
      </trkpt>
      <trkpt lat="48.03721" lon="7.0124">
        <ele>1311</ele>
        <time>2022-04-05T19:34:56Z</time>
      </trkpt>
      <trkpt lat="48.03717" lon="7.01237">
        <ele>1310</ele>
        <time>2022-04-05T19:34:57Z</time>
      </trkpt>
      <trkpt lat="48.03714" lon="7.01236">
        <ele>1310</ele>
        <time>2022-04-05T19:34:57Z</time>
      </trkpt>
      <trkpt lat="48.03674" lon="7.01248">
        <ele>1310</ele>
        <time>2022-04-05T19:35:05Z</time>
      </trkpt>
      <trkpt lat="48.0366" lon="7.01257">
        <ele>1309</ele>
        <time>2022-04-05T19:35:07Z</time>
      </trkpt>
      <trkpt lat="48.03654" lon="7.01256">
        <ele>1308</ele>
        <time>2022-04-05T19:35:08Z</time>
      </trkpt>
      <trkpt lat="48.03651" lon="7.01253">
        <ele>1307</ele>
        <time>2022-04-05T19:35:09Z</time>
      </trkpt>
      <trkpt lat="48.03651" lon="7.01247">
        <ele>1306</ele>
        <time>2022-04-05T19:35:10Z</time>
      </trkpt>
      <trkpt lat="48.03653" lon="7.01237">
        <ele>1305</ele>
        <time>2022-04-05T19:35:11Z</time>
      </trkpt>
      <trkpt lat="48.03686" lon="7.01201">
        <ele>1302</ele>
        <time>2022-04-05T19:35:18Z</time>
      </trkpt>
      <trkpt lat="48.03706" lon="7.01186">
        <ele>1301</ele>
        <time>2022-04-05T19:35:22Z</time>
      </trkpt>
      <trkpt lat="48.03726" lon="7.01177">
        <ele>1301</ele>
        <time>2022-04-05T19:35:26Z</time>
      </trkpt>
      <trkpt lat="48.03732" lon="7.01172">
        <ele>1301</ele>
        <time>2022-04-05T19:35:27Z</time>
      </trkpt>
      <trkpt lat="48.03734" lon="7.01168">
        <ele>1301</ele>
        <time>2022-04-05T19:35:28Z</time>
      </trkpt>
      <trkpt lat="48.03734" lon="7.01161">
        <ele>1299</ele>
        <time>2022-04-05T19:35:29Z</time>
      </trkpt>
      <trkpt lat="48.03732" lon="7.01156">
        <ele>1298</ele>
        <time>2022-04-05T19:35:29Z</time>
      </trkpt>
      <trkpt lat="48.03728" lon="7.01153">
        <ele>1297</ele>
        <time>2022-04-05T19:35:30Z</time>
      </trkpt>
      <trkpt lat="48.03669" lon="7.01145">
        <ele>1292</ele>
        <time>2022-04-05T19:35:41Z</time>
      </trkpt>
      <trkpt lat="48.03606" lon="7.01145">
        <ele>1288</ele>
        <time>2022-04-05T19:35:52Z</time>
      </trkpt>
      <trkpt lat="48.03584" lon="7.0115">
        <ele>1288</ele>
        <time>2022-04-05T19:35:56Z</time>
      </trkpt>
      <trkpt lat="48.0358" lon="7.01149">
        <ele>1287</ele>
        <time>2022-04-05T19:35:56Z</time>
      </trkpt>
      <trkpt lat="48.03577" lon="7.01145">
        <ele>1286</ele>
        <time>2022-04-05T19:35:57Z</time>
      </trkpt>
      <trkpt lat="48.03577" lon="7.01139">
        <ele>1285</ele>
        <time>2022-04-05T19:35:58Z</time>
      </trkpt>
      <trkpt lat="48.03578" lon="7.01133">
        <ele>1284</ele>
        <time>2022-04-05T19:35:59Z</time>
      </trkpt>
      <trkpt lat="48.03583" lon="7.01124">
        <ele>1284</ele>
        <time>2022-04-05T19:36:00Z</time>
      </trkpt>
      <trkpt lat="48.036" lon="7.01103">
        <ele>1282</ele>
        <time>2022-04-05T19:36:04Z</time>
      </trkpt>
      <trkpt lat="48.03606" lon="7.01097">
        <ele>1282</ele>
        <time>2022-04-05T19:36:05Z</time>
      </trkpt>
      <trkpt lat="48.03613" lon="7.01092">
        <ele>1281</ele>
        <time>2022-04-05T19:36:07Z</time>
      </trkpt>
      <trkpt lat="48.03641" lon="7.0107">
        <ele>1280</ele>
        <time>2022-04-05T19:36:12Z</time>
      </trkpt>
      <trkpt lat="48.03661" lon="7.01055">
        <ele>1280</ele>
        <time>2022-04-05T19:36:16Z</time>
      </trkpt>
      <trkpt lat="48.03721" lon="7.01015">
        <ele>1273</ele>
        <time>2022-04-05T19:36:28Z</time>
      </trkpt>
      <trkpt lat="48.03751" lon="7.01003">
        <ele>1271</ele>
        <time>2022-04-05T19:36:33Z</time>
      </trkpt>
      <trkpt lat="48.03778" lon="7.00996">
        <ele>1270</ele>
        <time>2022-04-05T19:36:38Z</time>
      </trkpt>
      <trkpt lat="48.03817" lon="7.00989">
        <ele>1269</ele>
        <time>2022-04-05T19:36:45Z</time>
      </trkpt>
      <trkpt lat="48.03821" lon="7.00983">
        <ele>1268</ele>
        <time>2022-04-05T19:36:46Z</time>
      </trkpt>
      <trkpt lat="48.03822" lon="7.00979">
        <ele>1267</ele>
        <time>2022-04-05T19:36:47Z</time>
      </trkpt>
      <trkpt lat="48.03821" lon="7.00974">
        <ele>1266</ele>
        <time>2022-04-05T19:36:47Z</time>
      </trkpt>
      <trkpt lat="48.03817" lon="7.00969">
        <ele>1265</ele>
        <time>2022-04-05T19:36:48Z</time>
      </trkpt>
      <trkpt lat="48.03761" lon="7.00936">
        <ele>1261</ele>
        <time>2022-04-05T19:36:59Z</time>
      </trkpt>
      <trkpt lat="48.03709" lon="7.00901">
        <ele>1256</ele>
        <time>2022-04-05T19:37:09Z</time>
      </trkpt>
      <trkpt lat="48.03702" lon="7.00897">
        <ele>1256</ele>
        <time>2022-04-05T19:37:11Z</time>
      </trkpt>
      <trkpt lat="48.03615" lon="7.00845">
        <ele>1250</ele>
        <time>2022-04-05T19:37:27Z</time>
      </trkpt>
      <trkpt lat="48.03607" lon="7.00841">
        <ele>1249</ele>
        <time>2022-04-05T19:37:29Z</time>
      </trkpt>
      <trkpt lat="48.03599" lon="7.00836">
        <ele>1249</ele>
        <time>2022-04-05T19:37:30Z</time>
      </trkpt>
      <trkpt lat="48.03593" lon="7.00827">
        <ele>1248</ele>
        <time>2022-04-05T19:37:32Z</time>
      </trkpt>
      <trkpt lat="48.03589" lon="7.008">
        <ele>1246</ele>
        <time>2022-04-05T19:37:35Z</time>
      </trkpt>
      <trkpt lat="48.03591" lon="7.00795">
        <ele>1245</ele>
        <time>2022-04-05T19:37:36Z</time>
      </trkpt>
      <trkpt lat="48.03595" lon="7.00792">
        <ele>1245</ele>
        <time>2022-04-05T19:37:37Z</time>
      </trkpt>
      <trkpt lat="48.03598" lon="7.00787">
        <ele>1244</ele>
        <time>2022-04-05T19:37:37Z</time>
      </trkpt>
      <trkpt lat="48.03602" lon="7.00788">
        <ele>1244</ele>
        <time>2022-04-05T19:37:38Z</time>
      </trkpt>
      <trkpt lat="48.03635" lon="7.00791">
        <ele>1243</ele>
        <time>2022-04-05T19:37:44Z</time>
      </trkpt>
      <trkpt lat="48.03654" lon="7.00789">
        <ele>1242</ele>
        <time>2022-04-05T19:37:47Z</time>
      </trkpt>
      <trkpt lat="48.03677" lon="7.00786">
        <ele>1240</ele>
        <time>2022-04-05T19:37:51Z</time>
      </trkpt>
      <trkpt lat="48.03711" lon="7.00791">
        <ele>1240</ele>
        <time>2022-04-05T19:37:58Z</time>
      </trkpt>
      <trkpt lat="48.03754" lon="7.00803">
        <ele>1240</ele>
        <time>2022-04-05T19:38:05Z</time>
      </trkpt>
      <trkpt lat="48.03774" lon="7.00806">
        <ele>1239</ele>
        <time>2022-04-05T19:38:09Z</time>
      </trkpt>
      <trkpt lat="48.03851" lon="7.008">
        <ele>1237</ele>
        <time>2022-04-05T19:38:23Z</time>
      </trkpt>
      <trkpt lat="48.03866" lon="7.00799">
        <ele>1237</ele>
        <time>2022-04-05T19:38:25Z</time>
      </trkpt>
      <trkpt lat="48.03885" lon="7.00796">
        <ele>1237</ele>
        <time>2022-04-05T19:38:29Z</time>
      </trkpt>
      <trkpt lat="48.03939" lon="7.00779">
        <ele>1238</ele>
        <time>2022-04-05T19:38:38Z</time>
      </trkpt>
      <trkpt lat="48.03951" lon="7.00772">
        <ele>1239</ele>
        <time>2022-04-05T19:38:41Z</time>
      </trkpt>
      <trkpt lat="48.03963" lon="7.00761">
        <ele>1239</ele>
        <time>2022-04-05T19:38:43Z</time>
      </trkpt>
      <trkpt lat="48.03975" lon="7.00739">
        <ele>1238</ele>
        <time>2022-04-05T19:38:47Z</time>
      </trkpt>
      <trkpt lat="48.03997" lon="7.00683">
        <ele>1235</ele>
        <time>2022-04-05T19:38:54Z</time>
      </trkpt>
      <trkpt lat="48.04008" lon="7.00661">
        <ele>1235</ele>
        <time>2022-04-05T19:38:58Z</time>
      </trkpt>
      <trkpt lat="48.04041" lon="7.00609">
        <ele>1236</ele>
        <time>2022-04-05T19:39:06Z</time>
      </trkpt>
      <trkpt lat="48.04071" lon="7.00574">
        <ele>1237</ele>
        <time>2022-04-05T19:39:13Z</time>
      </trkpt>
      <trkpt lat="48.04102" lon="7.00537">
        <ele>1237</ele>
        <time>2022-04-05T19:39:20Z</time>
      </trkpt>
      <trkpt lat="48.04128" lon="7.00505">
        <ele>1237</ele>
        <time>2022-04-05T19:39:26Z</time>
      </trkpt>
      <trkpt lat="48.04146" lon="7.00487">
        <ele>1236</ele>
        <time>2022-04-05T19:39:30Z</time>
      </trkpt>
      <trkpt lat="48.04156" lon="7.0048">
        <ele>1236</ele>
        <time>2022-04-05T19:39:32Z</time>
      </trkpt>
      <trkpt lat="48.04212" lon="7.00452">
        <ele>1235</ele>
        <time>2022-04-05T19:39:42Z</time>
      </trkpt>
      <trkpt lat="48.04234" lon="7.00442">
        <ele>1234</ele>
        <time>2022-04-05T19:39:46Z</time>
      </trkpt>
      <trkpt lat="48.04241" lon="7.0044">
        <ele>1234</ele>
        <time>2022-04-05T19:39:48Z</time>
      </trkpt>
      <trkpt lat="48.04268" lon="7.00437">
        <ele>1232</ele>
        <time>2022-04-05T19:39:52Z</time>
      </trkpt>
      <trkpt lat="48.04288" lon="7.0044">
        <ele>1230</ele>
        <time>2022-04-05T19:39:56Z</time>
      </trkpt>
      <trkpt lat="48.04302" lon="7.00448">
        <ele>1230</ele>
        <time>2022-04-05T19:39:59Z</time>
      </trkpt>
      <trkpt lat="48.04316" lon="7.00461">
        <ele>1231</ele>
        <time>2022-04-05T19:40:02Z</time>
      </trkpt>
      <trkpt lat="48.04344" lon="7.00494">
        <ele>1233</ele>
        <time>2022-04-05T19:40:08Z</time>
      </trkpt>
      <trkpt lat="48.04386" lon="7.0055">
        <ele>1234</ele>
        <time>2022-04-05T19:40:18Z</time>
      </trkpt>
      <trkpt lat="48.04421" lon="7.00585">
        <ele>1233</ele>
        <time>2022-04-05T19:40:26Z</time>
      </trkpt>
      <trkpt lat="48.04434" lon="7.00601">
        <ele>1234</ele>
        <time>2022-04-05T19:40:29Z</time>
      </trkpt>
      <trkpt lat="48.04452" lon="7.00629">
        <ele>1236</ele>
        <time>2022-04-05T19:40:33Z</time>
      </trkpt>
      <trkpt lat="48.04467" lon="7.00646">
        <ele>1237</ele>
        <time>2022-04-05T19:40:36Z</time>
      </trkpt>
      <trkpt lat="48.04485" lon="7.00662">
        <ele>1237</ele>
        <time>2022-04-05T19:40:40Z</time>
      </trkpt>
      <trkpt lat="48.04528" lon="7.00689">
        <ele>1232</ele>
        <time>2022-04-05T19:40:48Z</time>
      </trkpt>
      <trkpt lat="48.0454" lon="7.007">
        <ele>1231</ele>
        <time>2022-04-05T19:40:51Z</time>
      </trkpt>
      <trkpt lat="48.0458" lon="7.0075">
        <ele>1232</ele>
        <time>2022-04-05T19:41:00Z</time>
      </trkpt>
      <trkpt lat="48.04605" lon="7.00775">
        <ele>1234</ele>
        <time>2022-04-05T19:41:06Z</time>
      </trkpt>
      <trkpt lat="48.04623" lon="7.00786">
        <ele>1234</ele>
        <time>2022-04-05T19:41:09Z</time>
      </trkpt>
      <trkpt lat="48.04662" lon="7.00798">
        <ele>1232</ele>
        <time>2022-04-05T19:41:16Z</time>
      </trkpt>
      <trkpt lat="48.04697" lon="7.00814">
        <ele>1232</ele>
        <time>2022-04-05T19:41:23Z</time>
      </trkpt>
      <trkpt lat="48.04783" lon="7.00864">
        <ele>1230</ele>
        <time>2022-04-05T19:41:39Z</time>
      </trkpt>
      <trkpt lat="48.04809" lon="7.00881">
        <ele>1230</ele>
        <time>2022-04-05T19:41:44Z</time>
      </trkpt>
      <trkpt lat="48.04832" lon="7.00897">
        <ele>1230</ele>
        <time>2022-04-05T19:41:49Z</time>
      </trkpt>
      <trkpt lat="48.04843" lon="7.00905">
        <ele>1230</ele>
        <time>2022-04-05T19:41:51Z</time>
      </trkpt>
      <trkpt lat="48.04855" lon="7.00914">
        <ele>1229</ele>
        <time>2022-04-05T19:41:53Z</time>
      </trkpt>
      <trkpt lat="48.0487" lon="7.00926">
        <ele>1229</ele>
        <time>2022-04-05T19:41:56Z</time>
      </trkpt>
      <trkpt lat="48.04886" lon="7.00941">
        <ele>1229</ele>
        <time>2022-04-05T19:42:00Z</time>
      </trkpt>
      <trkpt lat="48.04891" lon="7.00945">
        <ele>1229</ele>
        <time>2022-04-05T19:42:01Z</time>
      </trkpt>
      <trkpt lat="48.0496" lon="7.01006">
        <ele>1233</ele>
        <time>2022-04-05T19:42:15Z</time>
      </trkpt>
      <trkpt lat="48.04987" lon="7.0102">
        <ele>1232</ele>
        <time>2022-04-05T19:42:20Z</time>
      </trkpt>
      <trkpt lat="48.05027" lon="7.01033">
        <ele>1229</ele>
        <time>2022-04-05T19:42:27Z</time>
      </trkpt>
      <trkpt lat="48.05043" lon="7.01043">
        <ele>1228</ele>
        <time>2022-04-05T19:42:30Z</time>
      </trkpt>
      <trkpt lat="48.05054" lon="7.01054">
        <ele>1228</ele>
        <time>2022-04-05T19:42:33Z</time>
      </trkpt>
      <trkpt lat="48.05059" lon="7.01064">
        <ele>1229</ele>
        <time>2022-04-05T19:42:34Z</time>
      </trkpt>
      <trkpt lat="48.05068" lon="7.01088">
        <ele>1230</ele>
        <time>2022-04-05T19:42:37Z</time>
      </trkpt>
      <trkpt lat="48.05071" lon="7.01103">
        <ele>1230</ele>
        <time>2022-04-05T19:42:39Z</time>
      </trkpt>
      <trkpt lat="48.05073" lon="7.01113">
        <ele>1230</ele>
        <time>2022-04-05T19:42:41Z</time>
      </trkpt>
      <trkpt lat="48.0508" lon="7.01162">
        <ele>1230</ele>
        <time>2022-04-05T19:42:47Z</time>
      </trkpt>
      <trkpt lat="48.05095" lon="7.01351">
        <ele>1233</ele>
        <time>2022-04-05T19:43:09Z</time>
      </trkpt>
      <trkpt lat="48.05097" lon="7.01371">
        <ele>1233</ele>
        <time>2022-04-05T19:43:12Z</time>
      </trkpt>
      <trkpt lat="48.05103" lon="7.01394">
        <ele>1234</ele>
        <time>2022-04-05T19:43:14Z</time>
      </trkpt>
      <trkpt lat="48.05119" lon="7.01423">
        <ele>1233</ele>
        <time>2022-04-05T19:43:19Z</time>
      </trkpt>
      <trkpt lat="48.05133" lon="7.01438">
        <ele>1232</ele>
        <time>2022-04-05T19:43:22Z</time>
      </trkpt>
      <trkpt lat="48.0515" lon="7.01448">
        <ele>1231</ele>
        <time>2022-04-05T19:43:25Z</time>
      </trkpt>
      <trkpt lat="48.05186" lon="7.01457">
        <ele>1230</ele>
        <time>2022-04-05T19:43:32Z</time>
      </trkpt>
      <trkpt lat="48.05198" lon="7.01458">
        <ele>1230</ele>
        <time>2022-04-05T19:43:34Z</time>
      </trkpt>
      <trkpt lat="48.05209" lon="7.01459">
        <ele>1230</ele>
        <time>2022-04-05T19:43:36Z</time>
      </trkpt>
      <trkpt lat="48.05239" lon="7.01455">
        <ele>1229</ele>
        <time>2022-04-05T19:43:41Z</time>
      </trkpt>
      <trkpt lat="48.05341" lon="7.01421">
        <ele>1225</ele>
        <time>2022-04-05T19:44:00Z</time>
      </trkpt>
      <trkpt lat="48.05364" lon="7.01409">
        <ele>1224</ele>
        <time>2022-04-05T19:44:04Z</time>
      </trkpt>
      <trkpt lat="48.05383" lon="7.01397">
        <ele>1224</ele>
        <time>2022-04-05T19:44:08Z</time>
      </trkpt>
      <trkpt lat="48.05439" lon="7.01354">
        <ele>1219</ele>
        <time>2022-04-05T19:44:19Z</time>
      </trkpt>
      <trkpt lat="48.05461" lon="7.01339">
        <ele>1217</ele>
        <time>2022-04-05T19:44:23Z</time>
      </trkpt>
      <trkpt lat="48.05481" lon="7.01329">
        <ele>1216</ele>
        <time>2022-04-05T19:44:27Z</time>
      </trkpt>
      <trkpt lat="48.05497" lon="7.01325">
        <ele>1215</ele>
        <time>2022-04-05T19:44:30Z</time>
      </trkpt>
      <trkpt lat="48.0551" lon="7.01325">
        <ele>1214</ele>
        <time>2022-04-05T19:44:32Z</time>
      </trkpt>
      <trkpt lat="48.05529" lon="7.0133">
        <ele>1213</ele>
        <time>2022-04-05T19:44:36Z</time>
      </trkpt>
      <trkpt lat="48.05566" lon="7.01344">
        <ele>1212</ele>
        <time>2022-04-05T19:44:43Z</time>
      </trkpt>
      <trkpt lat="48.05611" lon="7.01372">
        <ele>1208</ele>
        <time>2022-04-05T19:44:51Z</time>
      </trkpt>
      <trkpt lat="48.05648" lon="7.01404">
        <ele>1207</ele>
        <time>2022-04-05T19:44:59Z</time>
      </trkpt>
      <trkpt lat="48.05681" lon="7.01427">
        <ele>1206</ele>
        <time>2022-04-05T19:45:05Z</time>
      </trkpt>
      <trkpt lat="48.05698" lon="7.01433">
        <ele>1205</ele>
        <time>2022-04-05T19:45:08Z</time>
      </trkpt>
      <trkpt lat="48.0577" lon="7.01433">
        <ele>1199</ele>
        <time>2022-04-05T19:45:21Z</time>
      </trkpt>
      <trkpt lat="48.05843" lon="7.01438">
        <ele>1194</ele>
        <time>2022-04-05T19:45:34Z</time>
      </trkpt>
      <trkpt lat="48.05915" lon="7.0146">
        <ele>1191</ele>
        <time>2022-04-05T19:45:47Z</time>
      </trkpt>
      <trkpt lat="48.06004" lon="7.01511">
        <ele>1183</ele>
        <time>2022-04-05T19:46:04Z</time>
      </trkpt>
      <trkpt lat="48.06067" lon="7.01562">
        <ele>1176</ele>
        <time>2022-04-05T19:46:17Z</time>
      </trkpt>
      <trkpt lat="48.06125" lon="7.01647">
        <ele>1168</ele>
        <time>2022-04-05T19:46:31Z</time>
      </trkpt>
      <trkpt lat="48.06141" lon="7.01684">
        <ele>1166</ele>
        <time>2022-04-05T19:46:37Z</time>
      </trkpt>
      <trkpt lat="48.06148" lon="7.01713">
        <ele>1164</ele>
        <time>2022-04-05T19:46:40Z</time>
      </trkpt>
      <trkpt lat="48.06153" lon="7.01761">
        <ele>1164</ele>
        <time>2022-04-05T19:46:46Z</time>
      </trkpt>
      <trkpt lat="48.06159" lon="7.01888">
        <ele>1162</ele>
        <time>2022-04-05T19:47:01Z</time>
      </trkpt>
      <trkpt lat="48.06161" lon="7.01901">
        <ele>1161</ele>
        <time>2022-04-05T19:47:03Z</time>
      </trkpt>
      <trkpt lat="48.06163" lon="7.0191">
        <ele>1161</ele>
        <time>2022-04-05T19:47:04Z</time>
      </trkpt>
      <trkpt lat="48.06172" lon="7.01922">
        <ele>1158</ele>
        <time>2022-04-05T19:47:06Z</time>
      </trkpt>
      <trkpt lat="48.06177" lon="7.01925">
        <ele>1157</ele>
        <time>2022-04-05T19:47:07Z</time>
      </trkpt>
      <trkpt lat="48.06183" lon="7.01925">
        <ele>1156</ele>
        <time>2022-04-05T19:47:08Z</time>
      </trkpt>
      <trkpt lat="48.06189" lon="7.01921">
        <ele>1154</ele>
        <time>2022-04-05T19:47:09Z</time>
      </trkpt>
      <trkpt lat="48.06193" lon="7.01914">
        <ele>1154</ele>
        <time>2022-04-05T19:47:10Z</time>
      </trkpt>
      <trkpt lat="48.06196" lon="7.01905">
        <ele>1153</ele>
        <time>2022-04-05T19:47:12Z</time>
      </trkpt>
      <trkpt lat="48.06198" lon="7.01871">
        <ele>1153</ele>
        <time>2022-04-05T19:47:16Z</time>
      </trkpt>
      <trkpt lat="48.062" lon="7.01723">
        <ele>1153</ele>
        <time>2022-04-05T19:47:33Z</time>
      </trkpt>
      <trkpt lat="48.06203" lon="7.01705">
        <ele>1152</ele>
        <time>2022-04-05T19:47:35Z</time>
      </trkpt>
      <trkpt lat="48.06207" lon="7.01698">
        <ele>1150</ele>
        <time>2022-04-05T19:47:37Z</time>
      </trkpt>
      <trkpt lat="48.06212" lon="7.01696">
        <ele>1149</ele>
        <time>2022-04-05T19:47:37Z</time>
      </trkpt>
      <trkpt lat="48.06215" lon="7.01695">
        <ele>1148</ele>
        <time>2022-04-05T19:47:38Z</time>
      </trkpt>
      <trkpt lat="48.06222" lon="7.01696">
        <ele>1147</ele>
        <time>2022-04-05T19:47:39Z</time>
      </trkpt>
      <trkpt lat="48.06226" lon="7.01699">
        <ele>1146</ele>
        <time>2022-04-05T19:47:40Z</time>
      </trkpt>
      <trkpt lat="48.0623" lon="7.01705">
        <ele>1145</ele>
        <time>2022-04-05T19:47:41Z</time>
      </trkpt>
      <trkpt lat="48.06236" lon="7.0173">
        <ele>1145</ele>
        <time>2022-04-05T19:47:44Z</time>
      </trkpt>
      <trkpt lat="48.06254" lon="7.01931">
        <ele>1140</ele>
        <time>2022-04-05T19:48:08Z</time>
      </trkpt>
      <trkpt lat="48.06257" lon="7.01941">
        <ele>1139</ele>
        <time>2022-04-05T19:48:10Z</time>
      </trkpt>
      <trkpt lat="48.06259" lon="7.01948">
        <ele>1139</ele>
        <time>2022-04-05T19:48:11Z</time>
      </trkpt>
      <trkpt lat="48.06266" lon="7.01962">
        <ele>1138</ele>
        <time>2022-04-05T19:48:13Z</time>
      </trkpt>
      <trkpt lat="48.06272" lon="7.01969">
        <ele>1138</ele>
        <time>2022-04-05T19:48:14Z</time>
      </trkpt>
      <trkpt lat="48.06277" lon="7.01975">
        <ele>1137</ele>
        <time>2022-04-05T19:48:15Z</time>
      </trkpt>
      <trkpt lat="48.06272" lon="7.01992">
        <ele>1137</ele>
        <time>2022-04-05T19:48:17Z</time>
      </trkpt>
      <trkpt lat="48.06264" lon="7.02008">
        <ele>1138</ele>
        <time>2022-04-05T19:48:20Z</time>
      </trkpt>
      <trkpt lat="48.0625" lon="7.02028">
        <ele>1140</ele>
        <time>2022-04-05T19:48:23Z</time>
      </trkpt>
      <trkpt lat="48.06239" lon="7.02048">
        <ele>1141</ele>
        <time>2022-04-05T19:48:26Z</time>
      </trkpt>
      <trkpt lat="48.06238" lon="7.02062">
        <ele>1141</ele>
        <time>2022-04-05T19:48:28Z</time>
      </trkpt>
      <trkpt lat="48.06242" lon="7.0208">
        <ele>1140</ele>
        <time>2022-04-05T19:48:30Z</time>
      </trkpt>
      <trkpt lat="48.06252" lon="7.02089">
        <ele>1139</ele>
        <time>2022-04-05T19:48:32Z</time>
      </trkpt>
      <trkpt lat="48.06281" lon="7.02094">
        <ele>1137</ele>
        <time>2022-04-05T19:48:37Z</time>
      </trkpt>
      <trkpt lat="48.06288" lon="7.02098">
        <ele>1137</ele>
        <time>2022-04-05T19:48:39Z</time>
      </trkpt>
      <trkpt lat="48.06298" lon="7.02107">
        <ele>1136</ele>
        <time>2022-04-05T19:48:41Z</time>
      </trkpt>
      <trkpt lat="48.06317" lon="7.02133">
        <ele>1136</ele>
        <time>2022-04-05T19:48:45Z</time>
      </trkpt>
      <trkpt lat="48.06371" lon="7.02215">
        <ele>1139</ele>
        <time>2022-04-05T19:48:59Z</time>
      </trkpt>
      <trkpt lat="48.06397" lon="7.02242">
        <ele>1140</ele>
        <time>2022-04-05T19:49:05Z</time>
      </trkpt>
      <trkpt lat="48.0641" lon="7.02258">
        <ele>1140</ele>
        <time>2022-04-05T19:49:08Z</time>
      </trkpt>
      <trkpt lat="48.06417" lon="7.02281">
        <ele>1142</ele>
        <time>2022-04-05T19:49:11Z</time>
      </trkpt>
      <trkpt lat="48.06441" lon="7.02258">
        <ele>1140</ele>
        <time>2022-04-05T19:49:16Z</time>
      </trkpt>
      <trkpt lat="48.06575" lon="7.02226">
        <ele>1140</ele>
        <time>2022-04-05T19:49:40Z</time>
      </trkpt>
      <trkpt lat="48.06698" lon="7.02163">
        <ele>1142</ele>
        <time>2022-04-05T19:50:03Z</time>
      </trkpt>
      <trkpt lat="48.06736" lon="7.02156">
        <ele>1143</ele>
        <time>2022-04-05T19:50:10Z</time>
      </trkpt>
      <trkpt lat="48.0676" lon="7.02159">
        <ele>1144</ele>
        <time>2022-04-05T19:50:14Z</time>
      </trkpt>
      <trkpt lat="48.06796" lon="7.02169">
        <ele>1146</ele>
        <time>2022-04-05T19:50:21Z</time>
      </trkpt>
      <trkpt lat="48.06856" lon="7.02191">
        <ele>1152</ele>
        <time>2022-04-05T19:50:32Z</time>
      </trkpt>
      <trkpt lat="48.06876" lon="7.0219">
        <ele>1153</ele>
        <time>2022-04-05T19:50:35Z</time>
      </trkpt>
      <trkpt lat="48.06893" lon="7.02186">
        <ele>1154</ele>
        <time>2022-04-05T19:50:38Z</time>
      </trkpt>
      <trkpt lat="48.06961" lon="7.0213">
        <ele>1152</ele>
        <time>2022-04-05T19:50:52Z</time>
      </trkpt>
      <trkpt lat="48.06982" lon="7.02117">
        <ele>1153</ele>
        <time>2022-04-05T19:50:56Z</time>
      </trkpt>
      <trkpt lat="48.07011" lon="7.0211">
        <ele>1155</ele>
        <time>2022-04-05T19:51:01Z</time>
      </trkpt>
      <trkpt lat="48.07037" lon="7.02111">
        <ele>1156</ele>
        <time>2022-04-05T19:51:06Z</time>
      </trkpt>
      <trkpt lat="48.07117" lon="7.02126">
        <ele>1162</ele>
        <time>2022-04-05T19:51:20Z</time>
      </trkpt>
      <trkpt lat="48.07232" lon="7.02157">
        <ele>1168</ele>
        <time>2022-04-05T19:51:41Z</time>
      </trkpt>
      <trkpt lat="48.07276" lon="7.02174">
        <ele>1169</ele>
        <time>2022-04-05T19:51:49Z</time>
      </trkpt>
      <trkpt lat="48.07326" lon="7.02204">
        <ele>1170</ele>
        <time>2022-04-05T19:51:59Z</time>
      </trkpt>
      <trkpt lat="48.07391" lon="7.02265">
        <ele>1172</ele>
        <time>2022-04-05T19:52:12Z</time>
      </trkpt>
      <trkpt lat="48.07508" lon="7.02397">
        <ele>1172</ele>
        <time>2022-04-05T19:52:39Z</time>
      </trkpt>
      <trkpt lat="48.07584" lon="7.02508">
        <ele>1171</ele>
        <time>2022-04-05T19:52:57Z</time>
      </trkpt>
      <trkpt lat="48.07639" lon="7.02605">
        <ele>1172</ele>
        <time>2022-04-05T19:53:13Z</time>
      </trkpt>
      <trkpt lat="48.07678" lon="7.02696">
        <ele>1174</ele>
        <time>2022-04-05T19:53:25Z</time>
      </trkpt>
      <trkpt lat="48.07813" lon="7.02856">
        <ele>1183</ele>
        <time>2022-04-05T19:53:56Z</time>
      </trkpt>
      <trkpt lat="48.07956" lon="7.03051">
        <ele>1193</ele>
        <time>2022-04-05T19:54:30Z</time>
      </trkpt>
      <trkpt lat="48.08" lon="7.03131">
        <ele>1197</ele>
        <time>2022-04-05T19:54:43Z</time>
      </trkpt>
      <trkpt lat="48.08067" lon="7.03316">
        <ele>1201</ele>
        <time>2022-04-05T19:55:08Z</time>
      </trkpt>
      <trkpt lat="48.08109" lon="7.034">
        <ele>1200</ele>
        <time>2022-04-05T19:55:20Z</time>
      </trkpt>
      <trkpt lat="48.08193" lon="7.0353">
        <ele>1201</ele>
        <time>2022-04-05T19:55:42Z</time>
      </trkpt>
      <trkpt lat="48.08232" lon="7.03605">
        <ele>1201</ele>
        <time>2022-04-05T19:55:53Z</time>
      </trkpt>
      <trkpt lat="48.08252" lon="7.03671">
        <ele>1203</ele>
        <time>2022-04-05T19:56:02Z</time>
      </trkpt>
      <trkpt lat="48.08261" lon="7.03753">
        <ele>1202</ele>
        <time>2022-04-05T19:56:12Z</time>
      </trkpt>
      <trkpt lat="48.08251" lon="7.03825">
        <ele>1202</ele>
        <time>2022-04-05T19:56:20Z</time>
      </trkpt>
      <trkpt lat="48.0825" lon="7.03884">
        <ele>1202</ele>
        <time>2022-04-05T19:56:27Z</time>
      </trkpt>
      <trkpt lat="48.08264" lon="7.04002">
        <ele>1205</ele>
        <time>2022-04-05T19:56:42Z</time>
      </trkpt>
      <trkpt lat="48.08301" lon="7.04185">
        <ele>1208</ele>
        <time>2022-04-05T19:57:04Z</time>
      </trkpt>
      <trkpt lat="48.08364" lon="7.04427">
        <ele>1211</ele>
        <time>2022-04-05T19:57:35Z</time>
      </trkpt>
      <trkpt lat="48.08385" lon="7.04467">
        <ele>1209</ele>
        <time>2022-04-05T19:57:41Z</time>
      </trkpt>
      <trkpt lat="48.08422" lon="7.04525">
        <ele>1205</ele>
        <time>2022-04-05T19:57:51Z</time>
      </trkpt>
      <trkpt lat="48.08492" lon="7.04624">
        <ele>1210</ele>
        <time>2022-04-05T19:58:08Z</time>
      </trkpt>
      <trkpt lat="48.08535" lon="7.0467">
        <ele>1214</ele>
        <time>2022-04-05T19:58:17Z</time>
      </trkpt>
      <trkpt lat="48.0857" lon="7.04698">
        <ele>1215</ele>
        <time>2022-04-05T19:58:24Z</time>
      </trkpt>
      <trkpt lat="48.08649" lon="7.04742">
        <ele>1219</ele>
        <time>2022-04-05T19:58:39Z</time>
      </trkpt>
      <trkpt lat="48.08669" lon="7.04747">
        <ele>1220</ele>
        <time>2022-04-05T19:58:43Z</time>
      </trkpt>
      <trkpt lat="48.08686" lon="7.04747">
        <ele>1221</ele>
        <time>2022-04-05T19:58:46Z</time>
      </trkpt>
      <trkpt lat="48.08724" lon="7.04742">
        <ele>1224</ele>
        <time>2022-04-05T19:58:53Z</time>
      </trkpt>
      <trkpt lat="48.08746" lon="7.04735">
        <ele>1225</ele>
        <time>2022-04-05T19:58:57Z</time>
      </trkpt>
      <trkpt lat="48.08774" lon="7.04723">
        <ele>1227</ele>
        <time>2022-04-05T19:59:02Z</time>
      </trkpt>
      <trkpt lat="48.08852" lon="7.04657">
        <ele>1230</ele>
        <time>2022-04-05T19:59:18Z</time>
      </trkpt>
      <trkpt lat="48.08867" lon="7.04647">
        <ele>1231</ele>
        <time>2022-04-05T19:59:21Z</time>
      </trkpt>
      <trkpt lat="48.08881" lon="7.04643">
        <ele>1232</ele>
        <time>2022-04-05T19:59:23Z</time>
      </trkpt>
      <trkpt lat="48.08895" lon="7.04642">
        <ele>1233</ele>
        <time>2022-04-05T19:59:26Z</time>
      </trkpt>
      <trkpt lat="48.08911" lon="7.04645">
        <ele>1235</ele>
        <time>2022-04-05T19:59:29Z</time>
      </trkpt>
      <trkpt lat="48.08926" lon="7.04653">
        <ele>1235</ele>
        <time>2022-04-05T19:59:32Z</time>
      </trkpt>
      <trkpt lat="48.08985" lon="7.04705">
        <ele>1232</ele>
        <time>2022-04-05T19:59:44Z</time>
      </trkpt>
      <trkpt lat="48.09011" lon="7.0473">
        <ele>1230</ele>
        <time>2022-04-05T19:59:49Z</time>
      </trkpt>
      <trkpt lat="48.09027" lon="7.0475">
        <ele>1228</ele>
        <time>2022-04-05T19:59:53Z</time>
      </trkpt>
      <trkpt lat="48.0904" lon="7.04773">
        <ele>1227</ele>
        <time>2022-04-05T19:59:57Z</time>
      </trkpt>
      <trkpt lat="48.09047" lon="7.04792">
        <ele>1227</ele>
        <time>2022-04-05T19:59:59Z</time>
      </trkpt>
      <trkpt lat="48.09054" lon="7.04817">
        <ele>1226</ele>
        <time>2022-04-05T20:00:02Z</time>
      </trkpt>
      <trkpt lat="48.09055" lon="7.04841">
        <ele>1226</ele>
        <time>2022-04-05T20:00:05Z</time>
      </trkpt>
      <trkpt lat="48.09054" lon="7.049">
        <ele>1226</ele>
        <time>2022-04-05T20:00:12Z</time>
      </trkpt>
      <trkpt lat="48.09045" lon="7.04981">
        <ele>1224</ele>
        <time>2022-04-05T20:00:22Z</time>
      </trkpt>
      <trkpt lat="48.09027" lon="7.05101">
        <ele>1223</ele>
        <time>2022-04-05T20:00:37Z</time>
      </trkpt>
      <trkpt lat="48.09025" lon="7.0512">
        <ele>1223</ele>
        <time>2022-04-05T20:00:39Z</time>
      </trkpt>
      <trkpt lat="48.09027" lon="7.05137">
        <ele>1223</ele>
        <time>2022-04-05T20:00:41Z</time>
      </trkpt>
      <trkpt lat="48.09031" lon="7.05152">
        <ele>1223</ele>
        <time>2022-04-05T20:00:43Z</time>
      </trkpt>
      <trkpt lat="48.09038" lon="7.05165">
        <ele>1223</ele>
        <time>2022-04-05T20:00:45Z</time>
      </trkpt>
      <trkpt lat="48.09074" lon="7.05212">
        <ele>1222</ele>
        <time>2022-04-05T20:00:53Z</time>
      </trkpt>
      <trkpt lat="48.09083" lon="7.05227">
        <ele>1221</ele>
        <time>2022-04-05T20:00:56Z</time>
      </trkpt>
      <trkpt lat="48.09089" lon="7.05243">
        <ele>1221</ele>
        <time>2022-04-05T20:00:58Z</time>
      </trkpt>
      <trkpt lat="48.09097" lon="7.05281">
        <ele>1220</ele>
        <time>2022-04-05T20:01:03Z</time>
      </trkpt>
      <trkpt lat="48.09098" lon="7.05307">
        <ele>1220</ele>
        <time>2022-04-05T20:01:06Z</time>
      </trkpt>
      <trkpt lat="48.0909" lon="7.0539">
        <ele>1220</ele>
        <time>2022-04-05T20:01:16Z</time>
      </trkpt>
      <trkpt lat="48.09078" lon="7.0549">
        <ele>1224</ele>
        <time>2022-04-05T20:01:28Z</time>
      </trkpt>
      <trkpt lat="48.09077" lon="7.05538">
        <ele>1225</ele>
        <time>2022-04-05T20:01:33Z</time>
      </trkpt>
      <trkpt lat="48.09079" lon="7.0556">
        <ele>1226</ele>
        <time>2022-04-05T20:01:36Z</time>
      </trkpt>
      <trkpt lat="48.09082" lon="7.05575">
        <ele>1226</ele>
        <time>2022-04-05T20:01:38Z</time>
      </trkpt>
      <trkpt lat="48.09087" lon="7.05589">
        <ele>1226</ele>
        <time>2022-04-05T20:01:40Z</time>
      </trkpt>
      <trkpt lat="48.09094" lon="7.05601">
        <ele>1225</ele>
        <time>2022-04-05T20:01:42Z</time>
      </trkpt>
      <trkpt lat="48.09141" lon="7.05663">
        <ele>1223</ele>
        <time>2022-04-05T20:01:53Z</time>
      </trkpt>
      <trkpt lat="48.09156" lon="7.05692">
        <ele>1223</ele>
        <time>2022-04-05T20:01:57Z</time>
      </trkpt>
      <trkpt lat="48.09164" lon="7.05713">
        <ele>1223</ele>
        <time>2022-04-05T20:02:00Z</time>
      </trkpt>
      <trkpt lat="48.09171" lon="7.05739">
        <ele>1223</ele>
        <time>2022-04-05T20:02:03Z</time>
      </trkpt>
      <trkpt lat="48.09177" lon="7.05797">
        <ele>1225</ele>
        <time>2022-04-05T20:02:10Z</time>
      </trkpt>
      <trkpt lat="48.09181" lon="7.05818">
        <ele>1225</ele>
        <time>2022-04-05T20:02:13Z</time>
      </trkpt>
      <trkpt lat="48.09192" lon="7.05854">
        <ele>1227</ele>
        <time>2022-04-05T20:02:18Z</time>
      </trkpt>
      <trkpt lat="48.09239" lon="7.0597">
        <ele>1230</ele>
        <time>2022-04-05T20:02:34Z</time>
      </trkpt>
      <trkpt lat="48.09273" lon="7.0604">
        <ele>1229</ele>
        <time>2022-04-05T20:02:44Z</time>
      </trkpt>
      <trkpt lat="48.09284" lon="7.06053">
        <ele>1229</ele>
        <time>2022-04-05T20:02:47Z</time>
      </trkpt>
      <trkpt lat="48.09297" lon="7.06063">
        <ele>1229</ele>
        <time>2022-04-05T20:02:49Z</time>
      </trkpt>
      <trkpt lat="48.0931" lon="7.06066">
        <ele>1229</ele>
        <time>2022-04-05T20:02:52Z</time>
      </trkpt>
      <trkpt lat="48.09323" lon="7.06065">
        <ele>1228</ele>
        <time>2022-04-05T20:02:54Z</time>
      </trkpt>
      <trkpt lat="48.09339" lon="7.06061">
        <ele>1228</ele>
        <time>2022-04-05T20:02:57Z</time>
      </trkpt>
      <trkpt lat="48.09405" lon="7.06038">
        <ele>1226</ele>
        <time>2022-04-05T20:03:09Z</time>
      </trkpt>
      <trkpt lat="48.09421" lon="7.06024">
        <ele>1225</ele>
        <time>2022-04-05T20:03:12Z</time>
      </trkpt>
      <trkpt lat="48.09431" lon="7.06009">
        <ele>1225</ele>
        <time>2022-04-05T20:03:15Z</time>
      </trkpt>
      <trkpt lat="48.09446" lon="7.05978">
        <ele>1224</ele>
        <time>2022-04-05T20:03:19Z</time>
      </trkpt>
      <trkpt lat="48.09489" lon="7.05813">
        <ele>1219</ele>
        <time>2022-04-05T20:03:40Z</time>
      </trkpt>
      <trkpt lat="48.0952" lon="7.05707">
        <ele>1214</ele>
        <time>2022-04-05T20:03:54Z</time>
      </trkpt>
      <trkpt lat="48.09543" lon="7.05644">
        <ele>1208</ele>
        <time>2022-04-05T20:04:03Z</time>
      </trkpt>
      <trkpt lat="48.0957" lon="7.05581">
        <ele>1200</ele>
        <time>2022-04-05T20:04:11Z</time>
      </trkpt>
      <trkpt lat="48.09593" lon="7.05537">
        <ele>1196</ele>
        <time>2022-04-05T20:04:18Z</time>
      </trkpt>
      <trkpt lat="48.09638" lon="7.05477">
        <ele>1190</ele>
        <time>2022-04-05T20:04:29Z</time>
      </trkpt>
      <trkpt lat="48.09657" lon="7.05457">
        <ele>1188</ele>
        <time>2022-04-05T20:04:33Z</time>
      </trkpt>
      <trkpt lat="48.09709" lon="7.05421">
        <ele>1186</ele>
        <time>2022-04-05T20:04:43Z</time>
      </trkpt>
      <trkpt lat="48.09721" lon="7.05415">
        <ele>1186</ele>
        <time>2022-04-05T20:04:45Z</time>
      </trkpt>
      <trkpt lat="48.09735" lon="7.05413">
        <ele>1186</ele>
        <time>2022-04-05T20:04:48Z</time>
      </trkpt>
      <trkpt lat="48.09816" lon="7.05419">
        <ele>1195</ele>
        <time>2022-04-05T20:05:02Z</time>
      </trkpt>
      <trkpt lat="48.09856" lon="7.0541">
        <ele>1196</ele>
        <time>2022-04-05T20:05:09Z</time>
      </trkpt>
      <trkpt lat="48.09873" lon="7.05408">
        <ele>1196</ele>
        <time>2022-04-05T20:05:13Z</time>
      </trkpt>
      <trkpt lat="48.09895" lon="7.05409">
        <ele>1197</ele>
        <time>2022-04-05T20:05:16Z</time>
      </trkpt>
      <trkpt lat="48.0993" lon="7.05424">
        <ele>1199</ele>
        <time>2022-04-05T20:05:23Z</time>
      </trkpt>
      <trkpt lat="48.09954" lon="7.05431">
        <ele>1200</ele>
        <time>2022-04-05T20:05:27Z</time>
      </trkpt>
      <trkpt lat="48.10024" lon="7.05434">
        <ele>1201</ele>
        <time>2022-04-05T20:05:40Z</time>
      </trkpt>
      <trkpt lat="48.10056" lon="7.05438">
        <ele>1203</ele>
        <time>2022-04-05T20:05:45Z</time>
      </trkpt>
      <trkpt lat="48.10086" lon="7.05448">
        <ele>1205</ele>
        <time>2022-04-05T20:05:51Z</time>
      </trkpt>
      <trkpt lat="48.10105" lon="7.05457">
        <ele>1205</ele>
        <time>2022-04-05T20:05:54Z</time>
      </trkpt>
      <trkpt lat="48.10123" lon="7.05472">
        <ele>1205</ele>
        <time>2022-04-05T20:05:58Z</time>
      </trkpt>
      <trkpt lat="48.10141" lon="7.05494">
        <ele>1206</ele>
        <time>2022-04-05T20:06:02Z</time>
      </trkpt>
      <trkpt lat="48.10154" lon="7.05519">
        <ele>1207</ele>
        <time>2022-04-05T20:06:06Z</time>
      </trkpt>
      <trkpt lat="48.10161" lon="7.05545">
        <ele>1208</ele>
        <time>2022-04-05T20:06:09Z</time>
      </trkpt>
      <trkpt lat="48.10185" lon="7.05609">
        <ele>1209</ele>
        <time>2022-04-05T20:06:18Z</time>
      </trkpt>
      <trkpt lat="48.1021" lon="7.05716">
        <ele>1211</ele>
        <time>2022-04-05T20:06:32Z</time>
      </trkpt>
      <trkpt lat="48.10219" lon="7.05747">
        <ele>1212</ele>
        <time>2022-04-05T20:06:36Z</time>
      </trkpt>
      <trkpt lat="48.10243" lon="7.05818">
        <ele>1212</ele>
        <time>2022-04-05T20:06:45Z</time>
      </trkpt>
      <trkpt lat="48.10264" lon="7.05864">
        <ele>1214</ele>
        <time>2022-04-05T20:06:52Z</time>
      </trkpt>
      <trkpt lat="48.10287" lon="7.05904">
        <ele>1216</ele>
        <time>2022-04-05T20:06:58Z</time>
      </trkpt>
      <trkpt lat="48.10315" lon="7.05941">
        <ele>1218</ele>
        <time>2022-04-05T20:07:05Z</time>
      </trkpt>
      <trkpt lat="48.10343" lon="7.05969">
        <ele>1219</ele>
        <time>2022-04-05T20:07:11Z</time>
      </trkpt>
      <trkpt lat="48.10376" lon="7.0599">
        <ele>1221</ele>
        <time>2022-04-05T20:07:17Z</time>
      </trkpt>
      <trkpt lat="48.10422" lon="7.06006">
        <ele>1224</ele>
        <time>2022-04-05T20:07:25Z</time>
      </trkpt>
      <trkpt lat="48.10465" lon="7.06014">
        <ele>1226</ele>
        <time>2022-04-05T20:07:33Z</time>
      </trkpt>
      <trkpt lat="48.10499" lon="7.0601">
        <ele>1228</ele>
        <time>2022-04-05T20:07:39Z</time>
      </trkpt>
      <trkpt lat="48.10597" lon="7.05992">
        <ele>1229</ele>
        <time>2022-04-05T20:07:57Z</time>
      </trkpt>
      <trkpt lat="48.10629" lon="7.05996">
        <ele>1229</ele>
        <time>2022-04-05T20:08:02Z</time>
      </trkpt>
      <trkpt lat="48.10654" lon="7.06008">
        <ele>1229</ele>
        <time>2022-04-05T20:08:07Z</time>
      </trkpt>
      <trkpt lat="48.10682" lon="7.06023">
        <ele>1228</ele>
        <time>2022-04-05T20:08:12Z</time>
      </trkpt>
      <trkpt lat="48.10705" lon="7.06045">
        <ele>1226</ele>
        <time>2022-04-05T20:08:17Z</time>
      </trkpt>
      <trkpt lat="48.10745" lon="7.06096">
        <ele>1226</ele>
        <time>2022-04-05T20:08:27Z</time>
      </trkpt>
      <trkpt lat="48.10782" lon="7.06151">
        <ele>1224</ele>
        <time>2022-04-05T20:08:36Z</time>
      </trkpt>
      <trkpt lat="48.10803" lon="7.06189">
        <ele>1223</ele>
        <time>2022-04-05T20:08:42Z</time>
      </trkpt>
      <trkpt lat="48.10819" lon="7.06227">
        <ele>1221</ele>
        <time>2022-04-05T20:08:47Z</time>
      </trkpt>
      <trkpt lat="48.10825" lon="7.06257">
        <ele>1221</ele>
        <time>2022-04-05T20:08:51Z</time>
      </trkpt>
      <trkpt lat="48.10831" lon="7.06309">
        <ele>1222</ele>
        <time>2022-04-05T20:08:57Z</time>
      </trkpt>
      <trkpt lat="48.10838" lon="7.06331">
        <ele>1221</ele>
        <time>2022-04-05T20:09:00Z</time>
      </trkpt>
      <trkpt lat="48.10863" lon="7.06379">
        <ele>1222</ele>
        <time>2022-04-05T20:09:07Z</time>
      </trkpt>
      <trkpt lat="48.10905" lon="7.06438">
        <ele>1222</ele>
        <time>2022-04-05T20:09:17Z</time>
      </trkpt>
      <trkpt lat="48.10932" lon="7.06464">
        <ele>1223</ele>
        <time>2022-04-05T20:09:23Z</time>
      </trkpt>
      <trkpt lat="48.1101" lon="7.06529">
        <ele>1224</ele>
        <time>2022-04-05T20:09:39Z</time>
      </trkpt>
      <trkpt lat="48.11032" lon="7.06542">
        <ele>1223</ele>
        <time>2022-04-05T20:09:43Z</time>
      </trkpt>
      <trkpt lat="48.1106" lon="7.06551">
        <ele>1223</ele>
        <time>2022-04-05T20:09:48Z</time>
      </trkpt>
      <trkpt lat="48.11081" lon="7.06553">
        <ele>1222</ele>
        <time>2022-04-05T20:09:52Z</time>
      </trkpt>
      <trkpt lat="48.11125" lon="7.06549">
        <ele>1221</ele>
        <time>2022-04-05T20:10:00Z</time>
      </trkpt>
      <trkpt lat="48.11148" lon="7.06543">
        <ele>1220</ele>
        <time>2022-04-05T20:10:04Z</time>
      </trkpt>
      <trkpt lat="48.11167" lon="7.06529">
        <ele>1219</ele>
        <time>2022-04-05T20:10:08Z</time>
      </trkpt>
      <trkpt lat="48.11243" lon="7.06447">
        <ele>1214</ele>
        <time>2022-04-05T20:10:24Z</time>
      </trkpt>
      <trkpt lat="48.11266" lon="7.06415">
        <ele>1214</ele>
        <time>2022-04-05T20:10:30Z</time>
      </trkpt>
      <trkpt lat="48.11281" lon="7.06387">
        <ele>1214</ele>
        <time>2022-04-05T20:10:34Z</time>
      </trkpt>
      <trkpt lat="48.11293" lon="7.06359">
        <ele>1213</ele>
        <time>2022-04-05T20:10:38Z</time>
      </trkpt>
      <trkpt lat="48.11301" lon="7.06321">
        <ele>1213</ele>
        <time>2022-04-05T20:10:43Z</time>
      </trkpt>
      <trkpt lat="48.11306" lon="7.06205">
        <ele>1209</ele>
        <time>2022-04-05T20:10:57Z</time>
      </trkpt>
      <trkpt lat="48.11292" lon="7.05962">
        <ele>1205</ele>
        <time>2022-04-05T20:11:26Z</time>
      </trkpt>
      <trkpt lat="48.11292" lon="7.05938">
        <ele>1204</ele>
        <time>2022-04-05T20:11:29Z</time>
      </trkpt>
      <trkpt lat="48.11297" lon="7.05916">
        <ele>1204</ele>
        <time>2022-04-05T20:11:31Z</time>
      </trkpt>
      <trkpt lat="48.11304" lon="7.05901">
        <ele>1204</ele>
        <time>2022-04-05T20:11:34Z</time>
      </trkpt>
      <trkpt lat="48.11314" lon="7.05891">
        <ele>1204</ele>
        <time>2022-04-05T20:11:36Z</time>
      </trkpt>
      <trkpt lat="48.11328" lon="7.0588">
        <ele>1204</ele>
        <time>2022-04-05T20:11:39Z</time>
      </trkpt>
      <trkpt lat="48.11348" lon="7.05876">
        <ele>1203</ele>
        <time>2022-04-05T20:11:42Z</time>
      </trkpt>
      <trkpt lat="48.11367" lon="7.05875">
        <ele>1202</ele>
        <time>2022-04-05T20:11:45Z</time>
      </trkpt>
      <trkpt lat="48.11425" lon="7.05884">
        <ele>1199</ele>
        <time>2022-04-05T20:11:56Z</time>
      </trkpt>
      <trkpt lat="48.11439" lon="7.05894">
        <ele>1199</ele>
        <time>2022-04-05T20:11:59Z</time>
      </trkpt>
      <trkpt lat="48.11512" lon="7.05957">
        <ele>1201</ele>
        <time>2022-04-05T20:12:14Z</time>
      </trkpt>
      <trkpt lat="48.11528" lon="7.05967">
        <ele>1200</ele>
        <time>2022-04-05T20:12:17Z</time>
      </trkpt>
      <trkpt lat="48.11622" lon="7.06015">
        <ele>1195</ele>
        <time>2022-04-05T20:12:34Z</time>
      </trkpt>
      <trkpt lat="48.11725" lon="7.06106">
        <ele>1190</ele>
        <time>2022-04-05T20:12:56Z</time>
      </trkpt>
      <trkpt lat="48.1183" lon="7.06288">
        <ele>1189</ele>
        <time>2022-04-05T20:13:24Z</time>
      </trkpt>
      <trkpt lat="48.11849" lon="7.06314">
        <ele>1187</ele>
        <time>2022-04-05T20:13:29Z</time>
      </trkpt>
      <trkpt lat="48.11939" lon="7.06416">
        <ele>1181</ele>
        <time>2022-04-05T20:13:49Z</time>
      </trkpt>
      <trkpt lat="48.1198" lon="7.06444">
        <ele>1179</ele>
        <time>2022-04-05T20:13:57Z</time>
      </trkpt>
      <trkpt lat="48.12069" lon="7.06487">
        <ele>1177</ele>
        <time>2022-04-05T20:14:14Z</time>
      </trkpt>
      <trkpt lat="48.12149" lon="7.06496">
        <ele>1174</ele>
        <time>2022-04-05T20:14:28Z</time>
      </trkpt>
      <trkpt lat="48.12178" lon="7.06509">
        <ele>1172</ele>
        <time>2022-04-05T20:14:33Z</time>
      </trkpt>
      <trkpt lat="48.12192" lon="7.06522">
        <ele>1170</ele>
        <time>2022-04-05T20:14:36Z</time>
      </trkpt>
      <trkpt lat="48.12204" lon="7.06541">
        <ele>1169</ele>
        <time>2022-04-05T20:14:39Z</time>
      </trkpt>
      <trkpt lat="48.12234" lon="7.06609">
        <ele>1168</ele>
        <time>2022-04-05T20:14:49Z</time>
      </trkpt>
      <trkpt lat="48.12253" lon="7.06661">
        <ele>1167</ele>
        <time>2022-04-05T20:14:56Z</time>
      </trkpt>
      <trkpt lat="48.12281" lon="7.06758">
        <ele>1165</ele>
        <time>2022-04-05T20:15:09Z</time>
      </trkpt>
      <trkpt lat="48.12311" lon="7.06843">
        <ele>1165</ele>
        <time>2022-04-05T20:15:20Z</time>
      </trkpt>
      <trkpt lat="48.12324" lon="7.06897">
        <ele>1165</ele>
        <time>2022-04-05T20:15:27Z</time>
      </trkpt>
      <trkpt lat="48.12342" lon="7.06995">
        <ele>1164</ele>
        <time>2022-04-05T20:15:39Z</time>
      </trkpt>
      <trkpt lat="48.12348" lon="7.0703">
        <ele>1163</ele>
        <time>2022-04-05T20:15:43Z</time>
      </trkpt>
      <trkpt lat="48.12353" lon="7.07102">
        <ele>1165</ele>
        <time>2022-04-05T20:15:52Z</time>
      </trkpt>
      <trkpt lat="48.12358" lon="7.07146">
        <ele>1167</ele>
        <time>2022-04-05T20:15:57Z</time>
      </trkpt>
      <trkpt lat="48.12364" lon="7.0718">
        <ele>1168</ele>
        <time>2022-04-05T20:16:01Z</time>
      </trkpt>
      <trkpt lat="48.12372" lon="7.07207">
        <ele>1168</ele>
        <time>2022-04-05T20:16:05Z</time>
      </trkpt>
      <trkpt lat="48.12381" lon="7.07229">
        <ele>1167</ele>
        <time>2022-04-05T20:16:08Z</time>
      </trkpt>
      <trkpt lat="48.12392" lon="7.07246">
        <ele>1166</ele>
        <time>2022-04-05T20:16:11Z</time>
      </trkpt>
      <trkpt lat="48.12401" lon="7.07257">
        <ele>1165</ele>
        <time>2022-04-05T20:16:13Z</time>
      </trkpt>
      <trkpt lat="48.12411" lon="7.07265">
        <ele>1163</ele>
        <time>2022-04-05T20:16:15Z</time>
      </trkpt>
      <trkpt lat="48.12455" lon="7.07289">
        <ele>1162</ele>
        <time>2022-04-05T20:16:23Z</time>
      </trkpt>
      <trkpt lat="48.12516" lon="7.0731">
        <ele>1160</ele>
        <time>2022-04-05T20:16:34Z</time>
      </trkpt>
      <trkpt lat="48.12589" lon="7.07316">
        <ele>1158</ele>
        <time>2022-04-05T20:16:47Z</time>
      </trkpt>
      <trkpt lat="48.12681" lon="7.07314">
        <ele>1155</ele>
        <time>2022-04-05T20:17:04Z</time>
      </trkpt>
      <trkpt lat="48.12745" lon="7.07302">
        <ele>1151</ele>
        <time>2022-04-05T20:17:15Z</time>
      </trkpt>
      <trkpt lat="48.12777" lon="7.07292">
        <ele>1153</ele>
        <time>2022-04-05T20:17:21Z</time>
      </trkpt>
      <trkpt lat="48.12828" lon="7.07266">
        <ele>1156</ele>
        <time>2022-04-05T20:17:30Z</time>
      </trkpt>
      <trkpt lat="48.12919" lon="7.07205">
        <ele>1160</ele>
        <time>2022-04-05T20:17:48Z</time>
      </trkpt>
      <trkpt lat="48.12937" lon="7.07198">
        <ele>1159</ele>
        <time>2022-04-05T20:17:51Z</time>
      </trkpt>
      <trkpt lat="48.12953" lon="7.07195">
        <ele>1160</ele>
        <time>2022-04-05T20:17:54Z</time>
      </trkpt>
      <trkpt lat="48.12974" lon="7.07199">
        <ele>1160</ele>
        <time>2022-04-05T20:17:58Z</time>
      </trkpt>
      <trkpt lat="48.12994" lon="7.07211">
        <ele>1162</ele>
        <time>2022-04-05T20:18:02Z</time>
      </trkpt>
      <trkpt lat="48.13008" lon="7.07228">
        <ele>1162</ele>
        <time>2022-04-05T20:18:05Z</time>
      </trkpt>
      <trkpt lat="48.13024" lon="7.07262">
        <ele>1162</ele>
        <time>2022-04-05T20:18:10Z</time>
      </trkpt>
      <trkpt lat="48.13051" lon="7.07331">
        <ele>1164</ele>
        <time>2022-04-05T20:18:20Z</time>
      </trkpt>
      <trkpt lat="48.13074" lon="7.074">
        <ele>1166</ele>
        <time>2022-04-05T20:18:29Z</time>
      </trkpt>
      <trkpt lat="48.13101" lon="7.07495">
        <ele>1168</ele>
        <time>2022-04-05T20:18:41Z</time>
      </trkpt>
      <trkpt lat="48.13107" lon="7.07527">
        <ele>1167</ele>
        <time>2022-04-05T20:18:45Z</time>
      </trkpt>
      <trkpt lat="48.13111" lon="7.07564">
        <ele>1166</ele>
        <time>2022-04-05T20:18:49Z</time>
      </trkpt>
      <trkpt lat="48.13117" lon="7.07596">
        <ele>1166</ele>
        <time>2022-04-05T20:18:53Z</time>
      </trkpt>
      <trkpt lat="48.13174" lon="7.07746">
        <ele>1164</ele>
        <time>2022-04-05T20:19:14Z</time>
      </trkpt>
      <trkpt lat="48.13203" lon="7.07788">
        <ele>1165</ele>
        <time>2022-04-05T20:19:21Z</time>
      </trkpt>
      <trkpt lat="48.13235" lon="7.07828">
        <ele>1164</ele>
        <time>2022-04-05T20:19:28Z</time>
      </trkpt>
      <trkpt lat="48.13267" lon="7.07872">
        <ele>1165</ele>
        <time>2022-04-05T20:19:36Z</time>
      </trkpt>
      <trkpt lat="48.13475" lon="7.0807">
        <ele>1162</ele>
        <time>2022-04-05T20:20:20Z</time>
      </trkpt>
      <trkpt lat="48.13496" lon="7.08095">
        <ele>1164</ele>
        <time>2022-04-05T20:20:25Z</time>
      </trkpt>
      <trkpt lat="48.1358" lon="7.08241">
        <ele>1162</ele>
        <time>2022-04-05T20:20:48Z</time>
      </trkpt>
      <trkpt lat="48.13593" lon="7.08273">
        <ele>1162</ele>
        <time>2022-04-05T20:20:52Z</time>
      </trkpt>
      <trkpt lat="48.13627" lon="7.08378">
        <ele>1158</ele>
        <time>2022-04-05T20:21:06Z</time>
      </trkpt>
      <trkpt lat="48.13649" lon="7.08528">
        <ele>1156</ele>
        <time>2022-04-05T20:21:24Z</time>
      </trkpt>
      <trkpt lat="48.13658" lon="7.08562">
        <ele>1154</ele>
        <time>2022-04-05T20:21:29Z</time>
      </trkpt>
      <trkpt lat="48.13669" lon="7.0861">
        <ele>1151</ele>
        <time>2022-04-05T20:21:35Z</time>
      </trkpt>
      <trkpt lat="48.13671" lon="7.08643">
        <ele>1150</ele>
        <time>2022-04-05T20:21:38Z</time>
      </trkpt>
      <trkpt lat="48.13667" lon="7.08678">
        <ele>1150</ele>
        <time>2022-04-05T20:21:43Z</time>
      </trkpt>
      <trkpt lat="48.13647" lon="7.08771">
        <ele>1149</ele>
        <time>2022-04-05T20:21:54Z</time>
      </trkpt>
      <trkpt lat="48.13636" lon="7.08811">
        <ele>1149</ele>
        <time>2022-04-05T20:21:59Z</time>
      </trkpt>
      <trkpt lat="48.13627" lon="7.08835">
        <ele>1148</ele>
        <time>2022-04-05T20:22:03Z</time>
      </trkpt>
      <trkpt lat="48.13625" lon="7.08844">
        <ele>1148</ele>
        <time>2022-04-05T20:22:04Z</time>
      </trkpt>
      <trkpt lat="48.13627" lon="7.08855">
        <ele>1147</ele>
        <time>2022-04-05T20:22:05Z</time>
      </trkpt>
      <trkpt lat="48.13641" lon="7.08854">
        <ele>1147</ele>
        <time>2022-04-05T20:22:08Z</time>
      </trkpt>
      <trkpt lat="48.13648" lon="7.08851">
        <ele>1147</ele>
        <time>2022-04-05T20:22:09Z</time>
      </trkpt>
      <trkpt lat="48.13654" lon="7.08844">
        <ele>1147</ele>
        <time>2022-04-05T20:22:10Z</time>
      </trkpt>
      <trkpt lat="48.13674" lon="7.08733">
        <ele>1146</ele>
        <time>2022-04-05T20:22:24Z</time>
      </trkpt>
      <trkpt lat="48.13684" lon="7.08692">
        <ele>1145</ele>
        <time>2022-04-05T20:22:29Z</time>
      </trkpt>
      <trkpt lat="48.13705" lon="7.08626">
        <ele>1142</ele>
        <time>2022-04-05T20:22:38Z</time>
      </trkpt>
      <trkpt lat="48.13716" lon="7.08579">
        <ele>1141</ele>
        <time>2022-04-05T20:22:44Z</time>
      </trkpt>
      <trkpt lat="48.13721" lon="7.08554">
        <ele>1140</ele>
        <time>2022-04-05T20:22:47Z</time>
      </trkpt>
      <trkpt lat="48.13723" lon="7.08533">
        <ele>1140</ele>
        <time>2022-04-05T20:22:49Z</time>
      </trkpt>
      <trkpt lat="48.13722" lon="7.08418">
        <ele>1140</ele>
        <time>2022-04-05T20:23:03Z</time>
      </trkpt>
      <trkpt lat="48.13713" lon="7.08288">
        <ele>1137</ele>
        <time>2022-04-05T20:23:19Z</time>
      </trkpt>
      <trkpt lat="48.13707" lon="7.0816">
        <ele>1132</ele>
        <time>2022-04-05T20:23:34Z</time>
      </trkpt>
      <trkpt lat="48.13699" lon="7.08117">
        <ele>1130</ele>
        <time>2022-04-05T20:23:39Z</time>
      </trkpt>
      <trkpt lat="48.13688" lon="7.08083">
        <ele>1130</ele>
        <time>2022-04-05T20:23:44Z</time>
      </trkpt>
      <trkpt lat="48.13656" lon="7.07994">
        <ele>1124</ele>
        <time>2022-04-05T20:23:56Z</time>
      </trkpt>
      <trkpt lat="48.13613" lon="7.07861">
        <ele>1118</ele>
        <time>2022-04-05T20:24:13Z</time>
      </trkpt>
      <trkpt lat="48.13596" lon="7.07825">
        <ele>1116</ele>
        <time>2022-04-05T20:24:18Z</time>
      </trkpt>
      <trkpt lat="48.13571" lon="7.07782">
        <ele>1112</ele>
        <time>2022-04-05T20:24:25Z</time>
      </trkpt>
      <trkpt lat="48.13559" lon="7.07767">
        <ele>1111</ele>
        <time>2022-04-05T20:24:28Z</time>
      </trkpt>
      <trkpt lat="48.1347" lon="7.07675">
        <ele>1104</ele>
        <time>2022-04-05T20:24:47Z</time>
      </trkpt>
      <trkpt lat="48.13434" lon="7.07627">
        <ele>1100</ele>
        <time>2022-04-05T20:24:56Z</time>
      </trkpt>
      <trkpt lat="48.13383" lon="7.07518">
        <ele>1096</ele>
        <time>2022-04-05T20:25:12Z</time>
      </trkpt>
      <trkpt lat="48.13351" lon="7.07472">
        <ele>1097</ele>
        <time>2022-04-05T20:25:19Z</time>
      </trkpt>
      <trkpt lat="48.13348" lon="7.07453">
        <ele>1095</ele>
        <time>2022-04-05T20:25:22Z</time>
      </trkpt>
      <trkpt lat="48.13356" lon="7.07372">
        <ele>1085</ele>
        <time>2022-04-05T20:25:31Z</time>
      </trkpt>
      <trkpt lat="48.13357" lon="7.07339">
        <ele>1081</ele>
        <time>2022-04-05T20:25:35Z</time>
      </trkpt>
      <trkpt lat="48.13354" lon="7.07232">
        <ele>1076</ele>
        <time>2022-04-05T20:25:48Z</time>
      </trkpt>
      <trkpt lat="48.13355" lon="7.07145">
        <ele>1071</ele>
        <time>2022-04-05T20:25:58Z</time>
      </trkpt>
      <trkpt lat="48.13365" lon="7.07058">
        <ele>1066</ele>
        <time>2022-04-05T20:26:09Z</time>
      </trkpt>
      <trkpt lat="48.13391" lon="7.06884">
        <ele>1060</ele>
        <time>2022-04-05T20:26:30Z</time>
      </trkpt>
      <trkpt lat="48.13402" lon="7.06848">
        <ele>1060</ele>
        <time>2022-04-05T20:26:35Z</time>
      </trkpt>
      <trkpt lat="48.13423" lon="7.06814">
        <ele>1058</ele>
        <time>2022-04-05T20:26:40Z</time>
      </trkpt>
      <trkpt lat="48.13438" lon="7.06795">
        <ele>1055</ele>
        <time>2022-04-05T20:26:44Z</time>
      </trkpt>
      <trkpt lat="48.13496" lon="7.06731">
        <ele>1050</ele>
        <time>2022-04-05T20:26:57Z</time>
      </trkpt>
      <trkpt lat="48.13504" lon="7.06718">
        <ele>1049</ele>
        <time>2022-04-05T20:26:59Z</time>
      </trkpt>
      <trkpt lat="48.13511" lon="7.06703">
        <ele>1049</ele>
        <time>2022-04-05T20:27:01Z</time>
      </trkpt>
      <trkpt lat="48.1355" lon="7.06585">
        <ele>1046</ele>
        <time>2022-04-05T20:27:17Z</time>
      </trkpt>
      <trkpt lat="48.13553" lon="7.06565">
        <ele>1044</ele>
        <time>2022-04-05T20:27:19Z</time>
      </trkpt>
      <trkpt lat="48.13555" lon="7.06546">
        <ele>1042</ele>
        <time>2022-04-05T20:27:21Z</time>
      </trkpt>
      <trkpt lat="48.13554" lon="7.06521">
        <ele>1041</ele>
        <time>2022-04-05T20:27:24Z</time>
      </trkpt>
      <trkpt lat="48.1355" lon="7.06476">
        <ele>1038</ele>
        <time>2022-04-05T20:27:30Z</time>
      </trkpt>
      <trkpt lat="48.13546" lon="7.06458">
        <ele>1037</ele>
        <time>2022-04-05T20:27:32Z</time>
      </trkpt>
      <trkpt lat="48.13523" lon="7.06409">
        <ele>1036</ele>
        <time>2022-04-05T20:27:39Z</time>
      </trkpt>
      <trkpt lat="48.1352" lon="7.06396">
        <ele>1035</ele>
        <time>2022-04-05T20:27:41Z</time>
      </trkpt>
      <trkpt lat="48.13522" lon="7.0638">
        <ele>1032</ele>
        <time>2022-04-05T20:27:43Z</time>
      </trkpt>
      <trkpt lat="48.13525" lon="7.06376">
        <ele>1031</ele>
        <time>2022-04-05T20:27:43Z</time>
      </trkpt>
      <trkpt lat="48.13533" lon="7.06374">
        <ele>1028</ele>
        <time>2022-04-05T20:27:45Z</time>
      </trkpt>
      <trkpt lat="48.13539" lon="7.06378">
        <ele>1027</ele>
        <time>2022-04-05T20:27:46Z</time>
      </trkpt>
      <trkpt lat="48.13542" lon="7.06384">
        <ele>1028</ele>
        <time>2022-04-05T20:27:47Z</time>
      </trkpt>
      <trkpt lat="48.1356" lon="7.06437">
        <ele>1030</ele>
        <time>2022-04-05T20:27:54Z</time>
      </trkpt>
      <trkpt lat="48.13573" lon="7.0646">
        <ele>1029</ele>
        <time>2022-04-05T20:27:57Z</time>
      </trkpt>
      <trkpt lat="48.1364" lon="7.06543">
        <ele>1020</ele>
        <time>2022-04-05T20:28:13Z</time>
      </trkpt>
      <trkpt lat="48.13647" lon="7.06562">
        <ele>1020</ele>
        <time>2022-04-05T20:28:15Z</time>
      </trkpt>
      <trkpt lat="48.13652" lon="7.06582">
        <ele>1020</ele>
        <time>2022-04-05T20:28:18Z</time>
      </trkpt>
      <trkpt lat="48.13655" lon="7.06599">
        <ele>1019</ele>
        <time>2022-04-05T20:28:20Z</time>
      </trkpt>
      <trkpt lat="48.13657" lon="7.06675">
        <ele>1016</ele>
        <time>2022-04-05T20:28:29Z</time>
      </trkpt>
      <trkpt lat="48.13661" lon="7.06687">
        <ele>1013</ele>
        <time>2022-04-05T20:28:31Z</time>
      </trkpt>
      <trkpt lat="48.13669" lon="7.06689">
        <ele>1011</ele>
        <time>2022-04-05T20:28:32Z</time>
      </trkpt>
      <trkpt lat="48.13677" lon="7.06683">
        <ele>1009</ele>
        <time>2022-04-05T20:28:34Z</time>
      </trkpt>
      <trkpt lat="48.13679" lon="7.06676">
        <ele>1009</ele>
        <time>2022-04-05T20:28:35Z</time>
      </trkpt>
      <trkpt lat="48.13679" lon="7.06662">
        <ele>1010</ele>
        <time>2022-04-05T20:28:36Z</time>
      </trkpt>
      <trkpt lat="48.13671" lon="7.06606">
        <ele>1014</ele>
        <time>2022-04-05T20:28:43Z</time>
      </trkpt>
      <trkpt lat="48.13667" lon="7.06571">
        <ele>1015</ele>
        <time>2022-04-05T20:28:47Z</time>
      </trkpt>
      <trkpt lat="48.13667" lon="7.06483">
        <ele>1010</ele>
        <time>2022-04-05T20:28:58Z</time>
      </trkpt>
      <trkpt lat="48.13651" lon="7.0635">
        <ele>998</ele>
        <time>2022-04-05T20:29:14Z</time>
      </trkpt>
      <trkpt lat="48.1365" lon="7.06331">
        <ele>996</ele>
        <time>2022-04-05T20:29:16Z</time>
      </trkpt>
      <trkpt lat="48.13655" lon="7.06275">
        <ele>991</ele>
        <time>2022-04-05T20:29:23Z</time>
      </trkpt>
      <trkpt lat="48.13655" lon="7.06258">
        <ele>989</ele>
        <time>2022-04-05T20:29:25Z</time>
      </trkpt>
      <trkpt lat="48.13649" lon="7.06225">
        <ele>988</ele>
        <time>2022-04-05T20:29:29Z</time>
      </trkpt>
      <trkpt lat="48.1363" lon="7.06156">
        <ele>987</ele>
        <time>2022-04-05T20:29:38Z</time>
      </trkpt>
      <trkpt lat="48.13629" lon="7.06146">
        <ele>986</ele>
        <time>2022-04-05T20:29:39Z</time>
      </trkpt>
      <trkpt lat="48.13631" lon="7.06131">
        <ele>985</ele>
        <time>2022-04-05T20:29:41Z</time>
      </trkpt>
      <trkpt lat="48.13643" lon="7.06119">
        <ele>985</ele>
        <time>2022-04-05T20:29:43Z</time>
      </trkpt>
      <trkpt lat="48.13654" lon="7.06115">
        <ele>984</ele>
        <time>2022-04-05T20:29:45Z</time>
      </trkpt>
      <trkpt lat="48.13662" lon="7.06116">
        <ele>984</ele>
        <time>2022-04-05T20:29:47Z</time>
      </trkpt>
      <trkpt lat="48.13687" lon="7.06122">
        <ele>988</ele>
        <time>2022-04-05T20:29:51Z</time>
      </trkpt>
      <trkpt lat="48.13703" lon="7.0613">
        <ele>991</ele>
        <time>2022-04-05T20:29:54Z</time>
      </trkpt>
      <trkpt lat="48.13712" lon="7.0614">
        <ele>992</ele>
        <time>2022-04-05T20:29:56Z</time>
      </trkpt>
      <trkpt lat="48.1373" lon="7.06167">
        <ele>994</ele>
        <time>2022-04-05T20:30:01Z</time>
      </trkpt>
      <trkpt lat="48.13782" lon="7.06258">
        <ele>996</ele>
        <time>2022-04-05T20:30:15Z</time>
      </trkpt>
      <trkpt lat="48.13799" lon="7.06281">
        <ele>996</ele>
        <time>2022-04-05T20:30:19Z</time>
      </trkpt>
      <trkpt lat="48.1381" lon="7.06289">
        <ele>997</ele>
        <time>2022-04-05T20:30:21Z</time>
      </trkpt>
      <trkpt lat="48.13826" lon="7.06296">
        <ele>999</ele>
        <time>2022-04-05T20:30:24Z</time>
      </trkpt>
      <trkpt lat="48.13856" lon="7.06305">
        <ele>1002</ele>
        <time>2022-04-05T20:30:30Z</time>
      </trkpt>
      <trkpt lat="48.13912" lon="7.06318">
        <ele>1008</ele>
        <time>2022-04-05T20:30:40Z</time>
      </trkpt>
      <trkpt lat="48.13928" lon="7.06319">
        <ele>1009</ele>
        <time>2022-04-05T20:30:43Z</time>
      </trkpt>
      <trkpt lat="48.13944" lon="7.06317">
        <ele>1009</ele>
        <time>2022-04-05T20:30:45Z</time>
      </trkpt>
      <trkpt lat="48.13951" lon="7.06314">
        <ele>1010</ele>
        <time>2022-04-05T20:30:47Z</time>
      </trkpt>
      <trkpt lat="48.13962" lon="7.06302">
        <ele>1011</ele>
        <time>2022-04-05T20:30:49Z</time>
      </trkpt>
      <trkpt lat="48.13983" lon="7.06251">
        <ele>1018</ele>
        <time>2022-04-05T20:30:56Z</time>
      </trkpt>
      <trkpt lat="48.13999" lon="7.06233">
        <ele>1018</ele>
        <time>2022-04-05T20:31:00Z</time>
      </trkpt>
      <trkpt lat="48.14018" lon="7.06221">
        <ele>1019</ele>
        <time>2022-04-05T20:31:04Z</time>
      </trkpt>
      <trkpt lat="48.14028" lon="7.0622">
        <ele>1019</ele>
        <time>2022-04-05T20:31:05Z</time>
      </trkpt>
      <trkpt lat="48.1404" lon="7.06222">
        <ele>1019</ele>
        <time>2022-04-05T20:31:07Z</time>
      </trkpt>
      <trkpt lat="48.14054" lon="7.06235">
        <ele>1019</ele>
        <time>2022-04-05T20:31:10Z</time>
      </trkpt>
      <trkpt lat="48.14076" lon="7.06261">
        <ele>1017</ele>
        <time>2022-04-05T20:31:15Z</time>
      </trkpt>
      <trkpt lat="48.14109" lon="7.06312">
        <ele>1015</ele>
        <time>2022-04-05T20:31:24Z</time>
      </trkpt>
      <trkpt lat="48.14144" lon="7.06361">
        <ele>1014</ele>
        <time>2022-04-05T20:31:32Z</time>
      </trkpt>
      <trkpt lat="48.14193" lon="7.06415">
        <ele>1018</ele>
        <time>2022-04-05T20:31:43Z</time>
      </trkpt>
      <trkpt lat="48.14293" lon="7.06515">
        <ele>1030</ele>
        <time>2022-04-05T20:32:05Z</time>
      </trkpt>
      <trkpt lat="48.14305" lon="7.06534">
        <ele>1030</ele>
        <time>2022-04-05T20:32:08Z</time>
      </trkpt>
      <trkpt lat="48.14369" lon="7.06647">
        <ele>1028</ele>
        <time>2022-04-05T20:32:25Z</time>
      </trkpt>
      <trkpt lat="48.14387" lon="7.0667">
        <ele>1027</ele>
        <time>2022-04-05T20:32:29Z</time>
      </trkpt>
      <trkpt lat="48.14397" lon="7.06678">
        <ele>1027</ele>
        <time>2022-04-05T20:32:31Z</time>
      </trkpt>
      <trkpt lat="48.14437" lon="7.06698">
        <ele>1027</ele>
        <time>2022-04-05T20:32:39Z</time>
      </trkpt>
      <trkpt lat="48.14564" lon="7.06744">
        <ele>1023</ele>
        <time>2022-04-05T20:33:02Z</time>
      </trkpt>
      <trkpt lat="48.14598" lon="7.06753">
        <ele>1021</ele>
        <time>2022-04-05T20:33:08Z</time>
      </trkpt>
      <trkpt lat="48.14618" lon="7.06755">
        <ele>1019</ele>
        <time>2022-04-05T20:33:12Z</time>
      </trkpt>
      <trkpt lat="48.14638" lon="7.06754">
        <ele>1018</ele>
        <time>2022-04-05T20:33:15Z</time>
      </trkpt>
      <trkpt lat="48.14665" lon="7.06749">
        <ele>1016</ele>
        <time>2022-04-05T20:33:20Z</time>
      </trkpt>
      <trkpt lat="48.14693" lon="7.06741">
        <ele>1014</ele>
        <time>2022-04-05T20:33:25Z</time>
      </trkpt>
      <trkpt lat="48.14741" lon="7.06721">
        <ele>1009</ele>
        <time>2022-04-05T20:33:34Z</time>
      </trkpt>
      <trkpt lat="48.1478" lon="7.06714">
        <ele>1006</ele>
        <time>2022-04-05T20:33:41Z</time>
      </trkpt>
      <trkpt lat="48.14817" lon="7.0672">
        <ele>1002</ele>
        <time>2022-04-05T20:33:48Z</time>
      </trkpt>
      <trkpt lat="48.1486" lon="7.06739">
        <ele>998</ele>
        <time>2022-04-05T20:33:56Z</time>
      </trkpt>
      <trkpt lat="48.14916" lon="7.06791">
        <ele>995</ele>
        <time>2022-04-05T20:34:08Z</time>
      </trkpt>
      <trkpt lat="48.15037" lon="7.06932">
        <ele>985</ele>
        <time>2022-04-05T20:34:35Z</time>
      </trkpt>
      <trkpt lat="48.15088" lon="7.0697">
        <ele>982</ele>
        <time>2022-04-05T20:34:45Z</time>
      </trkpt>
      <trkpt lat="48.15209" lon="7.07018">
        <ele>985</ele>
        <time>2022-04-05T20:35:07Z</time>
      </trkpt>
      <trkpt lat="48.15269" lon="7.07071">
        <ele>980</ele>
        <time>2022-04-05T20:35:20Z</time>
      </trkpt>
      <trkpt lat="48.15399" lon="7.07136">
        <ele>987</ele>
        <time>2022-04-05T20:35:44Z</time>
      </trkpt>
      <trkpt lat="48.15428" lon="7.07166">
        <ele>990</ele>
        <time>2022-04-05T20:35:50Z</time>
      </trkpt>
      <trkpt lat="48.155" lon="7.07245">
        <ele>989</ele>
        <time>2022-04-05T20:36:06Z</time>
      </trkpt>
      <trkpt lat="48.1555" lon="7.07288">
        <ele>989</ele>
        <time>2022-04-05T20:36:16Z</time>
      </trkpt>
      <trkpt lat="48.15583" lon="7.07314">
        <ele>989</ele>
        <time>2022-04-05T20:36:23Z</time>
      </trkpt>
      <trkpt lat="48.15599" lon="7.07322">
        <ele>988</ele>
        <time>2022-04-05T20:36:26Z</time>
      </trkpt>
      <trkpt lat="48.15613" lon="7.07327">
        <ele>987</ele>
        <time>2022-04-05T20:36:29Z</time>
      </trkpt>
      <trkpt lat="48.1574" lon="7.07338">
        <ele>983</ele>
        <time>2022-04-05T20:36:51Z</time>
      </trkpt>
      <trkpt lat="48.15754" lon="7.07344">
        <ele>982</ele>
        <time>2022-04-05T20:36:54Z</time>
      </trkpt>
      <trkpt lat="48.15772" lon="7.07356">
        <ele>980</ele>
        <time>2022-04-05T20:36:57Z</time>
      </trkpt>
      <trkpt lat="48.15875" lon="7.07447">
        <ele>975</ele>
        <time>2022-04-05T20:37:19Z</time>
      </trkpt>
      <trkpt lat="48.15894" lon="7.07469">
        <ele>974</ele>
        <time>2022-04-05T20:37:23Z</time>
      </trkpt>
      <trkpt lat="48.15923" lon="7.07529">
        <ele>970</ele>
        <time>2022-04-05T20:37:32Z</time>
      </trkpt>
      <trkpt lat="48.15986" lon="7.07615">
        <ele>967</ele>
        <time>2022-04-05T20:37:47Z</time>
      </trkpt>
      <trkpt lat="48.16078" lon="7.07704">
        <ele>967</ele>
        <time>2022-04-05T20:38:06Z</time>
      </trkpt>
      <trkpt lat="48.16136" lon="7.07735">
        <ele>968</ele>
        <time>2022-04-05T20:38:17Z</time>
      </trkpt>
      <trkpt lat="48.16177" lon="7.07743">
        <ele>970</ele>
        <time>2022-04-05T20:38:25Z</time>
      </trkpt>
      <trkpt lat="48.16213" lon="7.0774">
        <ele>972</ele>
        <time>2022-04-05T20:38:31Z</time>
      </trkpt>
      <trkpt lat="48.16239" lon="7.07743">
        <ele>974</ele>
        <time>2022-04-05T20:38:36Z</time>
      </trkpt>
      <trkpt lat="48.16271" lon="7.07764">
        <ele>972</ele>
        <time>2022-04-05T20:38:42Z</time>
      </trkpt>
      <trkpt lat="48.16305" lon="7.07793">
        <ele>969</ele>
        <time>2022-04-05T20:38:49Z</time>
      </trkpt>
      <trkpt lat="48.16381" lon="7.07873">
        <ele>960</ele>
        <time>2022-04-05T20:39:05Z</time>
      </trkpt>
      <trkpt lat="48.16409" lon="7.07893">
        <ele>958</ele>
        <time>2022-04-05T20:39:11Z</time>
      </trkpt>
      <trkpt lat="48.16462" lon="7.07913">
        <ele>952</ele>
        <time>2022-04-05T20:39:21Z</time>
      </trkpt>
      <trkpt lat="48.16468" lon="7.07918">
        <ele>951</ele>
        <time>2022-04-05T20:39:22Z</time>
      </trkpt>
      <trkpt lat="48.1649" lon="7.07954">
        <ele>951</ele>
        <time>2022-04-05T20:39:28Z</time>
      </trkpt>
      <trkpt lat="48.16511" lon="7.07971">
        <ele>953</ele>
        <time>2022-04-05T20:39:32Z</time>
      </trkpt>
      <trkpt lat="48.16618" lon="7.08091">
        <ele>963</ele>
        <time>2022-04-05T20:39:56Z</time>
      </trkpt>
      <trkpt lat="48.16678" lon="7.08132">
        <ele>960</ele>
        <time>2022-04-05T20:40:07Z</time>
      </trkpt>
      <trkpt lat="48.16724" lon="7.08151">
        <ele>960</ele>
        <time>2022-04-05T20:40:16Z</time>
      </trkpt>
      <trkpt lat="48.16782" lon="7.08161">
        <ele>960</ele>
        <time>2022-04-05T20:40:26Z</time>
      </trkpt>
      <trkpt lat="48.16815" lon="7.08161">
        <ele>962</ele>
        <time>2022-04-05T20:40:32Z</time>
      </trkpt>
      <trkpt lat="48.16844" lon="7.0815">
        <ele>968</ele>
        <time>2022-04-05T20:40:37Z</time>
      </trkpt>
      <trkpt lat="48.16859" lon="7.08151">
        <ele>970</ele>
        <time>2022-04-05T20:40:40Z</time>
      </trkpt>
      <trkpt lat="48.16873" lon="7.08157">
        <ele>971</ele>
        <time>2022-04-05T20:40:43Z</time>
      </trkpt>
      <trkpt lat="48.16881" lon="7.08167">
        <ele>970</ele>
        <time>2022-04-05T20:40:45Z</time>
      </trkpt>
      <trkpt lat="48.16888" lon="7.08179">
        <ele>970</ele>
        <time>2022-04-05T20:40:46Z</time>
      </trkpt>
      <trkpt lat="48.16894" lon="7.0821">
        <ele>967</ele>
        <time>2022-04-05T20:40:50Z</time>
      </trkpt>
      <trkpt lat="48.16897" lon="7.0825">
        <ele>963</ele>
        <time>2022-04-05T20:40:55Z</time>
      </trkpt>
      <trkpt lat="48.16907" lon="7.08504">
        <ele>955</ele>
        <time>2022-04-05T20:41:25Z</time>
      </trkpt>
      <trkpt lat="48.16907" lon="7.08528">
        <ele>954</ele>
        <time>2022-04-05T20:41:28Z</time>
      </trkpt>
      <trkpt lat="48.169" lon="7.08617">
        <ele>946</ele>
        <time>2022-04-05T20:41:39Z</time>
      </trkpt>
      <trkpt lat="48.16901" lon="7.08648">
        <ele>943</ele>
        <time>2022-04-05T20:41:42Z</time>
      </trkpt>
      <trkpt lat="48.16902" lon="7.08668">
        <ele>941</ele>
        <time>2022-04-05T20:41:45Z</time>
      </trkpt>
      <trkpt lat="48.16913" lon="7.08707">
        <ele>941</ele>
        <time>2022-04-05T20:41:50Z</time>
      </trkpt>
      <trkpt lat="48.16953" lon="7.08781">
        <ele>944</ele>
        <time>2022-04-05T20:42:01Z</time>
      </trkpt>
      <trkpt lat="48.16977" lon="7.08819">
        <ele>944</ele>
        <time>2022-04-05T20:42:07Z</time>
      </trkpt>
      <trkpt lat="48.17003" lon="7.08849">
        <ele>945</ele>
        <time>2022-04-05T20:42:13Z</time>
      </trkpt>
      <trkpt lat="48.17098" lon="7.08928">
        <ele>943</ele>
        <time>2022-04-05T20:42:33Z</time>
      </trkpt>
      <trkpt lat="48.1718" lon="7.08957">
        <ele>942</ele>
        <time>2022-04-05T20:42:48Z</time>
      </trkpt>
      <trkpt lat="48.17192" lon="7.08965">
        <ele>941</ele>
        <time>2022-04-05T20:42:50Z</time>
      </trkpt>
      <trkpt lat="48.1723" lon="7.0902">
        <ele>930</ele>
        <time>2022-04-05T20:42:59Z</time>
      </trkpt>
      <trkpt lat="48.17255" lon="7.09039">
        <ele>926</ele>
        <time>2022-04-05T20:43:04Z</time>
      </trkpt>
      <trkpt lat="48.17276" lon="7.09041">
        <ele>922</ele>
        <time>2022-04-05T20:43:08Z</time>
      </trkpt>
      <trkpt lat="48.17294" lon="7.09036">
        <ele>920</ele>
        <time>2022-04-05T20:43:11Z</time>
      </trkpt>
      <trkpt lat="48.17305" lon="7.09022">
        <ele>921</ele>
        <time>2022-04-05T20:43:14Z</time>
      </trkpt>
      <trkpt lat="48.17313" lon="7.09001">
        <ele>924</ele>
        <time>2022-04-05T20:43:17Z</time>
      </trkpt>
      <trkpt lat="48.17325" lon="7.08916">
        <ele>942</ele>
        <time>2022-04-05T20:43:27Z</time>
      </trkpt>
      <trkpt lat="48.17332" lon="7.08891">
        <ele>946</ele>
        <time>2022-04-05T20:43:30Z</time>
      </trkpt>
      <trkpt lat="48.17341" lon="7.08874">
        <ele>947</ele>
        <time>2022-04-05T20:43:33Z</time>
      </trkpt>
      <trkpt lat="48.17349" lon="7.08866">
        <ele>948</ele>
        <time>2022-04-05T20:43:34Z</time>
      </trkpt>
      <trkpt lat="48.17419" lon="7.08824">
        <ele>950</ele>
        <time>2022-04-05T20:43:48Z</time>
      </trkpt>
      <trkpt lat="48.17433" lon="7.08819">
        <ele>956</ele>
        <time>2022-04-05T20:43:50Z</time>
      </trkpt>
      <trkpt lat="48.17448" lon="7.08818">
        <ele>960</ele>
        <time>2022-04-05T20:43:53Z</time>
      </trkpt>
      <trkpt lat="48.17461" lon="7.08825">
        <ele>963</ele>
        <time>2022-04-05T20:43:56Z</time>
      </trkpt>
      <trkpt lat="48.17467" lon="7.08831">
        <ele>963</ele>
        <time>2022-04-05T20:43:57Z</time>
      </trkpt>
      <trkpt lat="48.17481" lon="7.08851">
        <ele>963</ele>
        <time>2022-04-05T20:44:00Z</time>
      </trkpt>
      <trkpt lat="48.17498" lon="7.08887">
        <ele>961</ele>
        <time>2022-04-05T20:44:06Z</time>
      </trkpt>
      <trkpt lat="48.1751" lon="7.08916">
        <ele>960</ele>
        <time>2022-04-05T20:44:10Z</time>
      </trkpt>
      <trkpt lat="48.17518" lon="7.08946">
        <ele>959</ele>
        <time>2022-04-05T20:44:13Z</time>
      </trkpt>
      <trkpt lat="48.17529" lon="7.09">
        <ele>955</ele>
        <time>2022-04-05T20:44:20Z</time>
      </trkpt>
      <trkpt lat="48.17536" lon="7.0902">
        <ele>954</ele>
        <time>2022-04-05T20:44:23Z</time>
      </trkpt>
      <trkpt lat="48.1756" lon="7.0907">
        <ele>955</ele>
        <time>2022-04-05T20:44:30Z</time>
      </trkpt>
      <trkpt lat="48.17591" lon="7.09128">
        <ele>955</ele>
        <time>2022-04-05T20:44:39Z</time>
      </trkpt>
      <trkpt lat="48.17606" lon="7.09151">
        <ele>953</ele>
        <time>2022-04-05T20:44:43Z</time>
      </trkpt>
      <trkpt lat="48.17619" lon="7.09163">
        <ele>954</ele>
        <time>2022-04-05T20:44:45Z</time>
      </trkpt>
      <trkpt lat="48.17633" lon="7.09169">
        <ele>955</ele>
        <time>2022-04-05T20:44:48Z</time>
      </trkpt>
      <trkpt lat="48.17646" lon="7.09172">
        <ele>957</ele>
        <time>2022-04-05T20:44:50Z</time>
      </trkpt>
      <trkpt lat="48.17664" lon="7.09172">
        <ele>962</ele>
        <time>2022-04-05T20:44:54Z</time>
      </trkpt>
      <trkpt lat="48.17693" lon="7.09166">
        <ele>961</ele>
        <time>2022-04-05T20:44:59Z</time>
      </trkpt>
      <trkpt lat="48.17705" lon="7.09158">
        <ele>962</ele>
        <time>2022-04-05T20:45:01Z</time>
      </trkpt>
      <trkpt lat="48.17713" lon="7.09144">
        <ele>966</ele>
        <time>2022-04-05T20:45:03Z</time>
      </trkpt>
      <trkpt lat="48.17743" lon="7.09059">
        <ele>988</ele>
        <time>2022-04-05T20:45:15Z</time>
      </trkpt>
      <trkpt lat="48.17764" lon="7.0902">
        <ele>999</ele>
        <time>2022-04-05T20:45:21Z</time>
      </trkpt>
      <trkpt lat="48.17781" lon="7.09008">
        <ele>1004</ele>
        <time>2022-04-05T20:45:24Z</time>
      </trkpt>
      <trkpt lat="48.17795" lon="7.09005">
        <ele>1006</ele>
        <time>2022-04-05T20:45:27Z</time>
      </trkpt>
      <trkpt lat="48.17807" lon="7.0901">
        <ele>1005</ele>
        <time>2022-04-05T20:45:29Z</time>
      </trkpt>
      <trkpt lat="48.17818" lon="7.09021">
        <ele>1002</ele>
        <time>2022-04-05T20:45:31Z</time>
      </trkpt>
      <trkpt lat="48.17843" lon="7.09079">
        <ele>986</ele>
        <time>2022-04-05T20:45:39Z</time>
      </trkpt>
      <trkpt lat="48.17852" lon="7.09092">
        <ele>984</ele>
        <time>2022-04-05T20:45:42Z</time>
      </trkpt>
      <trkpt lat="48.17862" lon="7.09102">
        <ele>983</ele>
        <time>2022-04-05T20:45:44Z</time>
      </trkpt>
      <trkpt lat="48.17869" lon="7.09107">
        <ele>983</ele>
        <time>2022-04-05T20:45:45Z</time>
      </trkpt>
      <trkpt lat="48.17882" lon="7.09108">
        <ele>986</ele>
        <time>2022-04-05T20:45:47Z</time>
      </trkpt>
      <trkpt lat="48.17893" lon="7.09104">
        <ele>989</ele>
        <time>2022-04-05T20:45:49Z</time>
      </trkpt>
      <trkpt lat="48.17926" lon="7.09085">
        <ele>1001</ele>
        <time>2022-04-05T20:45:56Z</time>
      </trkpt>
      <trkpt lat="48.18005" lon="7.09035">
        <ele>1013</ele>
        <time>2022-04-05T20:46:11Z</time>
      </trkpt>
      <trkpt lat="48.1807" lon="7.09005">
        <ele>1015</ele>
        <time>2022-04-05T20:46:23Z</time>
      </trkpt>
      <trkpt lat="48.18084" lon="7.08994">
        <ele>1018</ele>
        <time>2022-04-05T20:46:26Z</time>
      </trkpt>
      <trkpt lat="48.18101" lon="7.08973">
        <ele>1026</ele>
        <time>2022-04-05T20:46:30Z</time>
      </trkpt>
      <trkpt lat="48.18128" lon="7.08931">
        <ele>1039</ele>
        <time>2022-04-05T20:46:37Z</time>
      </trkpt>
      <trkpt lat="48.18144" lon="7.08909">
        <ele>1042</ele>
        <time>2022-04-05T20:46:41Z</time>
      </trkpt>
      <trkpt lat="48.18162" lon="7.08897">
        <ele>1042</ele>
        <time>2022-04-05T20:46:44Z</time>
      </trkpt>
      <trkpt lat="48.18221" lon="7.08862">
        <ele>1056</ele>
        <time>2022-04-05T20:46:55Z</time>
      </trkpt>
      <trkpt lat="48.18228" lon="7.0886">
        <ele>1057</ele>
        <time>2022-04-05T20:46:57Z</time>
      </trkpt>
      <trkpt lat="48.18238" lon="7.08864">
        <ele>1056</ele>
        <time>2022-04-05T20:46:58Z</time>
      </trkpt>
      <trkpt lat="48.18251" lon="7.08878">
        <ele>1055</ele>
        <time>2022-04-05T20:47:01Z</time>
      </trkpt>
      <trkpt lat="48.18257" lon="7.08888">
        <ele>1055</ele>
        <time>2022-04-05T20:47:03Z</time>
      </trkpt>
      <trkpt lat="48.18261" lon="7.08901">
        <ele>1054</ele>
        <time>2022-04-05T20:47:05Z</time>
      </trkpt>
      <trkpt lat="48.18264" lon="7.08923">
        <ele>1052</ele>
        <time>2022-04-05T20:47:07Z</time>
      </trkpt>
      <trkpt lat="48.18266" lon="7.09039">
        <ele>1052</ele>
        <time>2022-04-05T20:47:21Z</time>
      </trkpt>
      <trkpt lat="48.18269" lon="7.09113">
        <ele>1056</ele>
        <time>2022-04-05T20:47:30Z</time>
      </trkpt>
      <trkpt lat="48.18281" lon="7.0922">
        <ele>1064</ele>
        <time>2022-04-05T20:47:43Z</time>
      </trkpt>
      <trkpt lat="48.18286" lon="7.09243">
        <ele>1066</ele>
        <time>2022-04-05T20:47:46Z</time>
      </trkpt>
      <trkpt lat="48.18292" lon="7.09264">
        <ele>1067</ele>
        <time>2022-04-05T20:47:48Z</time>
      </trkpt>
      <trkpt lat="48.183" lon="7.09277">
        <ele>1067</ele>
        <time>2022-04-05T20:47:50Z</time>
      </trkpt>
      <trkpt lat="48.1831" lon="7.0929">
        <ele>1068</ele>
        <time>2022-04-05T20:47:53Z</time>
      </trkpt>
      <trkpt lat="48.18324" lon="7.09301">
        <ele>1069</ele>
        <time>2022-04-05T20:47:56Z</time>
      </trkpt>
      <trkpt lat="48.1834" lon="7.09308">
        <ele>1071</ele>
        <time>2022-04-05T20:47:59Z</time>
      </trkpt>
      <trkpt lat="48.18367" lon="7.09317">
        <ele>1073</ele>
        <time>2022-04-05T20:48:03Z</time>
      </trkpt>
      <trkpt lat="48.18495" lon="7.09338">
        <ele>1074</ele>
        <time>2022-04-05T20:48:26Z</time>
      </trkpt>
      <trkpt lat="48.18534" lon="7.09348">
        <ele>1072</ele>
        <time>2022-04-05T20:48:33Z</time>
      </trkpt>
      <trkpt lat="48.18575" lon="7.09372">
        <ele>1070</ele>
        <time>2022-04-05T20:48:41Z</time>
      </trkpt>
      <trkpt lat="48.18684" lon="7.09445">
        <ele>1074</ele>
        <time>2022-04-05T20:49:02Z</time>
      </trkpt>
      <trkpt lat="48.18703" lon="7.09463">
        <ele>1074</ele>
        <time>2022-04-05T20:49:06Z</time>
      </trkpt>
      <trkpt lat="48.18716" lon="7.09482">
        <ele>1075</ele>
        <time>2022-04-05T20:49:10Z</time>
      </trkpt>
      <trkpt lat="48.18752" lon="7.09549">
        <ele>1073</ele>
        <time>2022-04-05T20:49:20Z</time>
      </trkpt>
      <trkpt lat="48.18813" lon="7.09728">
        <ele>1073</ele>
        <time>2022-04-05T20:49:44Z</time>
      </trkpt>
      <trkpt lat="48.18823" lon="7.09763">
        <ele>1074</ele>
        <time>2022-04-05T20:49:48Z</time>
      </trkpt>
      <trkpt lat="48.18825" lon="7.09783">
        <ele>1074</ele>
        <time>2022-04-05T20:49:51Z</time>
      </trkpt>
      <trkpt lat="48.18828" lon="7.09872">
        <ele>1070</ele>
        <time>2022-04-05T20:50:01Z</time>
      </trkpt>
      <trkpt lat="48.18835" lon="7.09929">
        <ele>1065</ele>
        <time>2022-04-05T20:50:08Z</time>
      </trkpt>
      <trkpt lat="48.18841" lon="7.09952">
        <ele>1063</ele>
        <time>2022-04-05T20:50:11Z</time>
      </trkpt>
      <trkpt lat="48.18848" lon="7.0997">
        <ele>1061</ele>
        <time>2022-04-05T20:50:14Z</time>
      </trkpt>
      <trkpt lat="48.18885" lon="7.10045">
        <ele>1057</ele>
        <time>2022-04-05T20:50:25Z</time>
      </trkpt>
      <trkpt lat="48.18898" lon="7.10067">
        <ele>1055</ele>
        <time>2022-04-05T20:50:28Z</time>
      </trkpt>
      <trkpt lat="48.18903" lon="7.10074">
        <ele>1055</ele>
        <time>2022-04-05T20:50:29Z</time>
      </trkpt>
      <trkpt lat="48.18918" lon="7.10085">
        <ele>1056</ele>
        <time>2022-04-05T20:50:32Z</time>
      </trkpt>
      <trkpt lat="48.18946" lon="7.10093">
        <ele>1055</ele>
        <time>2022-04-05T20:50:37Z</time>
      </trkpt>
      <trkpt lat="48.19045" lon="7.101">
        <ele>1059</ele>
        <time>2022-04-05T20:50:55Z</time>
      </trkpt>
      <trkpt lat="48.1908" lon="7.10099">
        <ele>1061</ele>
        <time>2022-04-05T20:51:01Z</time>
      </trkpt>
      <trkpt lat="48.19101" lon="7.10094">
        <ele>1061</ele>
        <time>2022-04-05T20:51:05Z</time>
      </trkpt>
      <trkpt lat="48.19158" lon="7.10075">
        <ele>1060</ele>
        <time>2022-04-05T20:51:15Z</time>
      </trkpt>
      <trkpt lat="48.19197" lon="7.10068">
        <ele>1058</ele>
        <time>2022-04-05T20:51:22Z</time>
      </trkpt>
      <trkpt lat="48.19209" lon="7.1007">
        <ele>1058</ele>
        <time>2022-04-05T20:51:24Z</time>
      </trkpt>
      <trkpt lat="48.19278" lon="7.10099">
        <ele>1059</ele>
        <time>2022-04-05T20:51:37Z</time>
      </trkpt>
      <trkpt lat="48.19311" lon="7.10115">
        <ele>1058</ele>
        <time>2022-04-05T20:51:43Z</time>
      </trkpt>
      <trkpt lat="48.19345" lon="7.10142">
        <ele>1057</ele>
        <time>2022-04-05T20:51:50Z</time>
      </trkpt>
      <trkpt lat="48.1943" lon="7.10236">
        <ele>1052</ele>
        <time>2022-04-05T20:52:09Z</time>
      </trkpt>
      <trkpt lat="48.19491" lon="7.10307">
        <ele>1051</ele>
        <time>2022-04-05T20:52:23Z</time>
      </trkpt>
      <trkpt lat="48.19551" lon="7.10367">
        <ele>1046</ele>
        <time>2022-04-05T20:52:36Z</time>
      </trkpt>
      <trkpt lat="48.19568" lon="7.10379">
        <ele>1045</ele>
        <time>2022-04-05T20:52:39Z</time>
      </trkpt>
      <trkpt lat="48.19586" lon="7.10388">
        <ele>1043</ele>
        <time>2022-04-05T20:52:42Z</time>
      </trkpt>
      <trkpt lat="48.19616" lon="7.10398">
        <ele>1040</ele>
        <time>2022-04-05T20:52:48Z</time>
      </trkpt>
      <trkpt lat="48.19636" lon="7.10411">
        <ele>1040</ele>
        <time>2022-04-05T20:52:52Z</time>
      </trkpt>
      <trkpt lat="48.19655" lon="7.10436">
        <ele>1040</ele>
        <time>2022-04-05T20:52:56Z</time>
      </trkpt>
      <trkpt lat="48.19725" lon="7.10555">
        <ele>1037</ele>
        <time>2022-04-05T20:53:15Z</time>
      </trkpt>
      <trkpt lat="48.19742" lon="7.10579">
        <ele>1035</ele>
        <time>2022-04-05T20:53:19Z</time>
      </trkpt>
      <trkpt lat="48.19752" lon="7.1059">
        <ele>1034</ele>
        <time>2022-04-05T20:53:21Z</time>
      </trkpt>
      <trkpt lat="48.19894" lon="7.1067">
        <ele>1021</ele>
        <time>2022-04-05T20:53:48Z</time>
      </trkpt>
      <trkpt lat="48.19929" lon="7.10693">
        <ele>1018</ele>
        <time>2022-04-05T20:53:55Z</time>
      </trkpt>
      <trkpt lat="48.19934" lon="7.10699">
        <ele>1018</ele>
        <time>2022-04-05T20:53:56Z</time>
      </trkpt>
      <trkpt lat="48.19938" lon="7.10706">
        <ele>1017</ele>
        <time>2022-04-05T20:53:57Z</time>
      </trkpt>
      <trkpt lat="48.19939" lon="7.10715">
        <ele>1017</ele>
        <time>2022-04-05T20:53:58Z</time>
      </trkpt>
      <trkpt lat="48.1993" lon="7.10777">
        <ele>1015</ele>
        <time>2022-04-05T20:54:06Z</time>
      </trkpt>
      <trkpt lat="48.19927" lon="7.10817">
        <ele>1013</ele>
        <time>2022-04-05T20:54:11Z</time>
      </trkpt>
      <trkpt lat="48.19927" lon="7.10858">
        <ele>1010</ele>
        <time>2022-04-05T20:54:16Z</time>
      </trkpt>
      <trkpt lat="48.19934" lon="7.10941">
        <ele>998</ele>
        <time>2022-04-05T20:54:26Z</time>
      </trkpt>
      <trkpt lat="48.19935" lon="7.10973">
        <ele>994</ele>
        <time>2022-04-05T20:54:29Z</time>
      </trkpt>
      <trkpt lat="48.19933" lon="7.10983">
        <ele>994</ele>
        <time>2022-04-05T20:54:31Z</time>
      </trkpt>
      <trkpt lat="48.19927" lon="7.1099">
        <ele>995</ele>
        <time>2022-04-05T20:54:32Z</time>
      </trkpt>
      <trkpt lat="48.19922" lon="7.10994">
        <ele>997</ele>
        <time>2022-04-05T20:54:33Z</time>
      </trkpt>
      <trkpt lat="48.19915" lon="7.10996">
        <ele>998</ele>
        <time>2022-04-05T20:54:34Z</time>
      </trkpt>
      <trkpt lat="48.19906" lon="7.10994">
        <ele>997</ele>
        <time>2022-04-05T20:54:36Z</time>
      </trkpt>
      <trkpt lat="48.19867" lon="7.10968">
        <ele>1000</ele>
        <time>2022-04-05T20:54:43Z</time>
      </trkpt>
      <trkpt lat="48.19779" lon="7.10963">
        <ele>994</ele>
        <time>2022-04-05T20:54:59Z</time>
      </trkpt>
      <trkpt lat="48.197" lon="7.10937">
        <ele>998</ele>
        <time>2022-04-05T20:55:13Z</time>
      </trkpt>
      <trkpt lat="48.19679" lon="7.10934">
        <ele>997</ele>
        <time>2022-04-05T20:55:17Z</time>
      </trkpt>
      <trkpt lat="48.19666" lon="7.10938">
        <ele>995</ele>
        <time>2022-04-05T20:55:20Z</time>
      </trkpt>
      <trkpt lat="48.19658" lon="7.10944">
        <ele>993</ele>
        <time>2022-04-05T20:55:21Z</time>
      </trkpt>
      <trkpt lat="48.19636" lon="7.1097">
        <ele>984</ele>
        <time>2022-04-05T20:55:26Z</time>
      </trkpt>
      <trkpt lat="48.19624" lon="7.1098">
        <ele>981</ele>
        <time>2022-04-05T20:55:29Z</time>
      </trkpt>
      <trkpt lat="48.19611" lon="7.10984">
        <ele>981</ele>
        <time>2022-04-05T20:55:31Z</time>
      </trkpt>
      <trkpt lat="48.19556" lon="7.10988">
        <ele>986</ele>
        <time>2022-04-05T20:55:41Z</time>
      </trkpt>
      <trkpt lat="48.19527" lon="7.11003">
        <ele>984</ele>
        <time>2022-04-05T20:55:46Z</time>
      </trkpt>
      <trkpt lat="48.19514" lon="7.11018">
        <ele>981</ele>
        <time>2022-04-05T20:55:49Z</time>
      </trkpt>
      <trkpt lat="48.19503" lon="7.11037">
        <ele>976</ele>
        <time>2022-04-05T20:55:52Z</time>
      </trkpt>
      <trkpt lat="48.19495" lon="7.11059">
        <ele>971</ele>
        <time>2022-04-05T20:55:55Z</time>
      </trkpt>
      <trkpt lat="48.19483" lon="7.11103">
        <ele>962</ele>
        <time>2022-04-05T20:56:01Z</time>
      </trkpt>
      <trkpt lat="48.19455" lon="7.11156">
        <ele>958</ele>
        <time>2022-04-05T20:56:09Z</time>
      </trkpt>
      <trkpt lat="48.19444" lon="7.11172">
        <ele>957</ele>
        <time>2022-04-05T20:56:11Z</time>
      </trkpt>
      <trkpt lat="48.19436" lon="7.1118">
        <ele>957</ele>
        <time>2022-04-05T20:56:13Z</time>
      </trkpt>
      <trkpt lat="48.19412" lon="7.11193">
        <ele>959</ele>
        <time>2022-04-05T20:56:18Z</time>
      </trkpt>
      <trkpt lat="48.1938" lon="7.11198">
        <ele>954</ele>
        <time>2022-04-05T20:56:23Z</time>
      </trkpt>
      <trkpt lat="48.19353" lon="7.11195">
        <ele>953</ele>
        <time>2022-04-05T20:56:28Z</time>
      </trkpt>
      <trkpt lat="48.19337" lon="7.11189">
        <ele>954</ele>
        <time>2022-04-05T20:56:31Z</time>
      </trkpt>
      <trkpt lat="48.1932" lon="7.11175">
        <ele>954</ele>
        <time>2022-04-05T20:56:35Z</time>
      </trkpt>
      <trkpt lat="48.19293" lon="7.11142">
        <ele>952</ele>
        <time>2022-04-05T20:56:41Z</time>
      </trkpt>
      <trkpt lat="48.19282" lon="7.11122">
        <ele>951</ele>
        <time>2022-04-05T20:56:44Z</time>
      </trkpt>
      <trkpt lat="48.19241" lon="7.10999">
        <ele>952</ele>
        <time>2022-04-05T20:57:00Z</time>
      </trkpt>
      <trkpt lat="48.19182" lon="7.10884">
        <ele>942</ele>
        <time>2022-04-05T20:57:17Z</time>
      </trkpt>
      <trkpt lat="48.19175" lon="7.10879">
        <ele>940</ele>
        <time>2022-04-05T20:57:19Z</time>
      </trkpt>
      <trkpt lat="48.19168" lon="7.10881">
        <ele>936</ele>
        <time>2022-04-05T20:57:20Z</time>
      </trkpt>
      <trkpt lat="48.19163" lon="7.10892">
        <ele>931</ele>
        <time>2022-04-05T20:57:22Z</time>
      </trkpt>
      <trkpt lat="48.19163" lon="7.10909">
        <ele>928</ele>
        <time>2022-04-05T20:57:24Z</time>
      </trkpt>
      <trkpt lat="48.19167" lon="7.1092">
        <ele>927</ele>
        <time>2022-04-05T20:57:25Z</time>
      </trkpt>
      <trkpt lat="48.19198" lon="7.10967">
        <ele>935</ele>
        <time>2022-04-05T20:57:33Z</time>
      </trkpt>
      <trkpt lat="48.19212" lon="7.10994">
        <ele>937</ele>
        <time>2022-04-05T20:57:37Z</time>
      </trkpt>
      <trkpt lat="48.19216" lon="7.11005">
        <ele>937</ele>
        <time>2022-04-05T20:57:39Z</time>
      </trkpt>
      <trkpt lat="48.19222" lon="7.11031">
        <ele>937</ele>
        <time>2022-04-05T20:57:42Z</time>
      </trkpt>
      <trkpt lat="48.19233" lon="7.11138">
        <ele>926</ele>
        <time>2022-04-05T20:57:55Z</time>
      </trkpt>
      <trkpt lat="48.19248" lon="7.11205">
        <ele>921</ele>
        <time>2022-04-05T20:58:03Z</time>
      </trkpt>
      <trkpt lat="48.19253" lon="7.11238">
        <ele>917</ele>
        <time>2022-04-05T20:58:07Z</time>
      </trkpt>
      <trkpt lat="48.19255" lon="7.11291">
        <ele>910</ele>
        <time>2022-04-05T20:58:13Z</time>
      </trkpt>
      <trkpt lat="48.19254" lon="7.11336">
        <ele>904</ele>
        <time>2022-04-05T20:58:19Z</time>
      </trkpt>
      <trkpt lat="48.19247" lon="7.11393">
        <ele>905</ele>
        <time>2022-04-05T20:58:26Z</time>
      </trkpt>
      <trkpt lat="48.19256" lon="7.11404">
        <ele>905</ele>
        <time>2022-04-05T20:58:28Z</time>
      </trkpt>
      <trkpt lat="48.19261" lon="7.11412">
        <ele>905</ele>
        <time>2022-04-05T20:58:29Z</time>
      </trkpt>
      <trkpt lat="48.19284" lon="7.11452">
        <ele>903</ele>
        <time>2022-04-05T20:58:35Z</time>
      </trkpt>
      <trkpt lat="48.19287" lon="7.11456">
        <ele>903</ele>
        <time>2022-04-05T20:58:36Z</time>
      </trkpt>
      <trkpt lat="48.19306" lon="7.11502">
        <ele>899</ele>
        <time>2022-04-05T20:58:42Z</time>
      </trkpt>
      <trkpt lat="48.19313" lon="7.11525">
        <ele>898</ele>
        <time>2022-04-05T20:58:45Z</time>
      </trkpt>
      <trkpt lat="48.19345" lon="7.1167">
        <ele>899</ele>
        <time>2022-04-05T20:59:03Z</time>
      </trkpt>
      <trkpt lat="48.19351" lon="7.11713">
        <ele>902</ele>
        <time>2022-04-05T20:59:09Z</time>
      </trkpt>
      <trkpt lat="48.19358" lon="7.11736">
        <ele>902</ele>
        <time>2022-04-05T20:59:12Z</time>
      </trkpt>
      <trkpt lat="48.19392" lon="7.11771">
        <ele>895</ele>
        <time>2022-04-05T20:59:19Z</time>
      </trkpt>
      <trkpt lat="48.19408" lon="7.11792">
        <ele>893</ele>
        <time>2022-04-05T20:59:23Z</time>
      </trkpt>
      <trkpt lat="48.19427" lon="7.11825">
        <ele>890</ele>
        <time>2022-04-05T20:59:28Z</time>
      </trkpt>
      <trkpt lat="48.19444" lon="7.1186">
        <ele>888</ele>
        <time>2022-04-05T20:59:33Z</time>
      </trkpt>
      <trkpt lat="48.19454" lon="7.11885">
        <ele>887</ele>
        <time>2022-04-05T20:59:37Z</time>
      </trkpt>
      <trkpt lat="48.19465" lon="7.11937">
        <ele>890</ele>
        <time>2022-04-05T20:59:43Z</time>
      </trkpt>
      <trkpt lat="48.19489" lon="7.12012">
        <ele>889</ele>
        <time>2022-04-05T20:59:53Z</time>
      </trkpt>
      <trkpt lat="48.19502" lon="7.12065">
        <ele>885</ele>
        <time>2022-04-05T21:00:00Z</time>
      </trkpt>
      <trkpt lat="48.19534" lon="7.12252">
        <ele>861</ele>
        <time>2022-04-05T21:00:23Z</time>
      </trkpt>
      <trkpt lat="48.19535" lon="7.12264">
        <ele>860</ele>
        <time>2022-04-05T21:00:24Z</time>
      </trkpt>
      <trkpt lat="48.19534" lon="7.12273">
        <ele>861</ele>
        <time>2022-04-05T21:00:25Z</time>
      </trkpt>
      <trkpt lat="48.1953" lon="7.12288">
        <ele>862</ele>
        <time>2022-04-05T21:00:27Z</time>
      </trkpt>
      <trkpt lat="48.19505" lon="7.12338">
        <ele>873</ele>
        <time>2022-04-05T21:00:34Z</time>
      </trkpt>
      <trkpt lat="48.19494" lon="7.12374">
        <ele>877</ele>
        <time>2022-04-05T21:00:39Z</time>
      </trkpt>
      <trkpt lat="48.19491" lon="7.12391">
        <ele>878</ele>
        <time>2022-04-05T21:00:41Z</time>
      </trkpt>
      <trkpt lat="48.1949" lon="7.12401">
        <ele>878</ele>
        <time>2022-04-05T21:00:42Z</time>
      </trkpt>
      <trkpt lat="48.19492" lon="7.12409">
        <ele>877</ele>
        <time>2022-04-05T21:00:43Z</time>
      </trkpt>
      <trkpt lat="48.19495" lon="7.12419">
        <ele>876</ele>
        <time>2022-04-05T21:00:45Z</time>
      </trkpt>
      <trkpt lat="48.19504" lon="7.12426">
        <ele>873</ele>
        <time>2022-04-05T21:00:46Z</time>
      </trkpt>
      <trkpt lat="48.19521" lon="7.12432">
        <ele>869</ele>
        <time>2022-04-05T21:00:50Z</time>
      </trkpt>
      <trkpt lat="48.19534" lon="7.12439">
        <ele>866</ele>
        <time>2022-04-05T21:00:52Z</time>
      </trkpt>
      <trkpt lat="48.19572" lon="7.12477">
        <ele>860</ele>
        <time>2022-04-05T21:01:00Z</time>
      </trkpt>
      <trkpt lat="48.19609" lon="7.12507">
        <ele>856</ele>
        <time>2022-04-05T21:01:08Z</time>
      </trkpt>
      <trkpt lat="48.19649" lon="7.12532">
        <ele>851</ele>
        <time>2022-04-05T21:01:15Z</time>
      </trkpt>
      <trkpt lat="48.1971" lon="7.12565">
        <ele>841</ele>
        <time>2022-04-05T21:01:27Z</time>
      </trkpt>
      <trkpt lat="48.19725" lon="7.12576">
        <ele>839</ele>
        <time>2022-04-05T21:01:30Z</time>
      </trkpt>
      <trkpt lat="48.19728" lon="7.12583">
        <ele>839</ele>
        <time>2022-04-05T21:01:31Z</time>
      </trkpt>
      <trkpt lat="48.19733" lon="7.12598">
        <ele>838</ele>
        <time>2022-04-05T21:01:33Z</time>
      </trkpt>
      <trkpt lat="48.19734" lon="7.1261">
        <ele>838</ele>
        <time>2022-04-05T21:01:34Z</time>
      </trkpt>
      <trkpt lat="48.19731" lon="7.12674">
        <ele>839</ele>
        <time>2022-04-05T21:01:42Z</time>
      </trkpt>
      <trkpt lat="48.19736" lon="7.12751">
        <ele>832</ele>
        <time>2022-04-05T21:01:51Z</time>
      </trkpt>
      <trkpt lat="48.19736" lon="7.12765">
        <ele>834</ele>
        <time>2022-04-05T21:01:53Z</time>
      </trkpt>
      <trkpt lat="48.19728" lon="7.12811">
        <ele>847</ele>
        <time>2022-04-05T21:01:58Z</time>
      </trkpt>
      <trkpt lat="48.19729" lon="7.12821">
        <ele>848</ele>
        <time>2022-04-05T21:02:00Z</time>
      </trkpt>
      <trkpt lat="48.19732" lon="7.1283">
        <ele>848</ele>
        <time>2022-04-05T21:02:01Z</time>
      </trkpt>
      <trkpt lat="48.19737" lon="7.12839">
        <ele>848</ele>
        <time>2022-04-05T21:02:02Z</time>
      </trkpt>
      <trkpt lat="48.19743" lon="7.12842">
        <ele>847</ele>
        <time>2022-04-05T21:02:03Z</time>
      </trkpt>
      <trkpt lat="48.19826" lon="7.12857">
        <ele>824</ele>
        <time>2022-04-05T21:02:18Z</time>
      </trkpt>
      <trkpt lat="48.19838" lon="7.12861">
        <ele>822</ele>
        <time>2022-04-05T21:02:20Z</time>
      </trkpt>
      <trkpt lat="48.19852" lon="7.12871">
        <ele>820</ele>
        <time>2022-04-05T21:02:23Z</time>
      </trkpt>
      <trkpt lat="48.19862" lon="7.12883">
        <ele>820</ele>
        <time>2022-04-05T21:02:25Z</time>
      </trkpt>
      <trkpt lat="48.19868" lon="7.12896">
        <ele>821</ele>
        <time>2022-04-05T21:02:27Z</time>
      </trkpt>
      <trkpt lat="48.19873" lon="7.1291">
        <ele>822</ele>
        <time>2022-04-05T21:02:29Z</time>
      </trkpt>
      <trkpt lat="48.19875" lon="7.12924">
        <ele>823</ele>
        <time>2022-04-05T21:02:31Z</time>
      </trkpt>
      <trkpt lat="48.19876" lon="7.12949">
        <ele>825</ele>
        <time>2022-04-05T21:02:34Z</time>
      </trkpt>
      <trkpt lat="48.19877" lon="7.13067">
        <ele>826</ele>
        <time>2022-04-05T21:02:48Z</time>
      </trkpt>
      <trkpt lat="48.19872" lon="7.1314">
        <ele>828</ele>
        <time>2022-04-05T21:02:56Z</time>
      </trkpt>
      <trkpt lat="48.19872" lon="7.13186">
        <ele>830</ele>
        <time>2022-04-05T21:03:02Z</time>
      </trkpt>
      <trkpt lat="48.19874" lon="7.13211">
        <ele>832</ele>
        <time>2022-04-05T21:03:05Z</time>
      </trkpt>
      <trkpt lat="48.19877" lon="7.13226">
        <ele>832</ele>
        <time>2022-04-05T21:03:07Z</time>
      </trkpt>
      <trkpt lat="48.19882" lon="7.13236">
        <ele>831</ele>
        <time>2022-04-05T21:03:08Z</time>
      </trkpt>
      <trkpt lat="48.19887" lon="7.13244">
        <ele>829</ele>
        <time>2022-04-05T21:03:10Z</time>
      </trkpt>
      <trkpt lat="48.19895" lon="7.13249">
        <ele>826</ele>
        <time>2022-04-05T21:03:11Z</time>
      </trkpt>
      <trkpt lat="48.19904" lon="7.13248">
        <ele>822</ele>
        <time>2022-04-05T21:03:13Z</time>
      </trkpt>
      <trkpt lat="48.19912" lon="7.13243">
        <ele>818</ele>
        <time>2022-04-05T21:03:14Z</time>
      </trkpt>
      <trkpt lat="48.19942" lon="7.1321">
        <ele>813</ele>
        <time>2022-04-05T21:03:21Z</time>
      </trkpt>
      <trkpt lat="48.19991" lon="7.13166">
        <ele>803</ele>
        <time>2022-04-05T21:03:31Z</time>
      </trkpt>
      <trkpt lat="48.20023" lon="7.13142">
        <ele>796</ele>
        <time>2022-04-05T21:03:37Z</time>
      </trkpt>
      <trkpt lat="48.20062" lon="7.1312">
        <ele>792</ele>
        <time>2022-04-05T21:03:45Z</time>
      </trkpt>
      <trkpt lat="48.20087" lon="7.13112">
        <ele>791</ele>
        <time>2022-04-05T21:03:49Z</time>
      </trkpt>
      <trkpt lat="48.20113" lon="7.13108">
        <ele>788</ele>
        <time>2022-04-05T21:03:54Z</time>
      </trkpt>
      <trkpt lat="48.20131" lon="7.13107">
        <ele>786</ele>
        <time>2022-04-05T21:03:57Z</time>
      </trkpt>
      <trkpt lat="48.20159" lon="7.13116">
        <ele>787</ele>
        <time>2022-04-05T21:04:02Z</time>
      </trkpt>
      <trkpt lat="48.20177" lon="7.13132">
        <ele>788</ele>
        <time>2022-04-05T21:04:06Z</time>
      </trkpt>
      <trkpt lat="48.20235" lon="7.13196">
        <ele>789</ele>
        <time>2022-04-05T21:04:19Z</time>
      </trkpt>
      <trkpt lat="48.20261" lon="7.13221">
        <ele>787</ele>
        <time>2022-04-05T21:04:24Z</time>
      </trkpt>
      <trkpt lat="48.2028" lon="7.13236">
        <ele>786</ele>
        <time>2022-04-05T21:04:28Z</time>
      </trkpt>
      <trkpt lat="48.20374" lon="7.13287">
        <ele>776</ele>
        <time>2022-04-05T21:04:46Z</time>
      </trkpt>
      <trkpt lat="48.20394" lon="7.13301">
        <ele>775</ele>
        <time>2022-04-05T21:04:50Z</time>
      </trkpt>
      <trkpt lat="48.20438" lon="7.13331">
        <ele>771</ele>
        <time>2022-04-05T21:04:58Z</time>
      </trkpt>
      <trkpt lat="48.20488" lon="7.13361">
        <ele>765</ele>
        <time>2022-04-05T21:05:08Z</time>
      </trkpt>
      <trkpt lat="48.20506" lon="7.13374">
        <ele>763</ele>
        <time>2022-04-05T21:05:12Z</time>
      </trkpt>
      <trkpt lat="48.20519" lon="7.13385">
        <ele>761</ele>
        <time>2022-04-05T21:05:14Z</time>
      </trkpt>
      <trkpt lat="48.20535" lon="7.13405">
        <ele>760</ele>
        <time>2022-04-05T21:05:18Z</time>
      </trkpt>
      <trkpt lat="48.20551" lon="7.13429">
        <ele>759</ele>
        <time>2022-04-05T21:05:22Z</time>
      </trkpt>
      <trkpt lat="48.20566" lon="7.13454">
        <ele>757</ele>
        <time>2022-04-05T21:05:26Z</time>
      </trkpt>
      <trkpt lat="48.20575" lon="7.13473">
        <ele>756</ele>
        <time>2022-04-05T21:05:29Z</time>
      </trkpt>
      <trkpt lat="48.20581" lon="7.1349">
        <ele>756</ele>
        <time>2022-04-05T21:05:31Z</time>
      </trkpt>
      <trkpt lat="48.20589" lon="7.13521">
        <ele>754</ele>
        <time>2022-04-05T21:05:35Z</time>
      </trkpt>
      <trkpt lat="48.20594" lon="7.13531">
        <ele>753</ele>
        <time>2022-04-05T21:05:36Z</time>
      </trkpt>
      <trkpt lat="48.20599" lon="7.13537">
        <ele>751</ele>
        <time>2022-04-05T21:05:38Z</time>
      </trkpt>
      <trkpt lat="48.20606" lon="7.1354">
        <ele>749</ele>
        <time>2022-04-05T21:05:39Z</time>
      </trkpt>
      <trkpt lat="48.20612" lon="7.13539">
        <ele>747</ele>
        <time>2022-04-05T21:05:40Z</time>
      </trkpt>
      <trkpt lat="48.20615" lon="7.13537">
        <ele>746</ele>
        <time>2022-04-05T21:05:41Z</time>
      </trkpt>
      <trkpt lat="48.20619" lon="7.1353">
        <ele>745</ele>
        <time>2022-04-05T21:05:42Z</time>
      </trkpt>
      <trkpt lat="48.20619" lon="7.13522">
        <ele>746</ele>
        <time>2022-04-05T21:05:43Z</time>
      </trkpt>
      <trkpt lat="48.20618" lon="7.13514">
        <ele>747</ele>
        <time>2022-04-05T21:05:44Z</time>
      </trkpt>
      <trkpt lat="48.20614" lon="7.13502">
        <ele>748</ele>
        <time>2022-04-05T21:05:45Z</time>
      </trkpt>
      <trkpt lat="48.20586" lon="7.13454">
        <ele>749</ele>
        <time>2022-04-05T21:05:53Z</time>
      </trkpt>
      <trkpt lat="48.20554" lon="7.13382">
        <ele>748</ele>
        <time>2022-04-05T21:06:03Z</time>
      </trkpt>
      <trkpt lat="48.20531" lon="7.13342">
        <ele>747</ele>
        <time>2022-04-05T21:06:09Z</time>
      </trkpt>
      <trkpt lat="48.20492" lon="7.13284">
        <ele>742</ele>
        <time>2022-04-05T21:06:19Z</time>
      </trkpt>
      <trkpt lat="48.20447" lon="7.13235">
        <ele>739</ele>
        <time>2022-04-05T21:06:29Z</time>
      </trkpt>
      <trkpt lat="48.20405" lon="7.13177">
        <ele>726</ele>
        <time>2022-04-05T21:06:39Z</time>
      </trkpt>
      <trkpt lat="48.20384" lon="7.13159">
        <ele>725</ele>
        <time>2022-04-05T21:06:43Z</time>
      </trkpt>
      <trkpt lat="48.20371" lon="7.13152">
        <ele>726</ele>
        <time>2022-04-05T21:06:46Z</time>
      </trkpt>
      <trkpt lat="48.20348" lon="7.13145">
        <ele>729</ele>
        <time>2022-04-05T21:06:50Z</time>
      </trkpt>
      <trkpt lat="48.20338" lon="7.13141">
        <ele>730</ele>
        <time>2022-04-05T21:06:52Z</time>
      </trkpt>
      <trkpt lat="48.20316" lon="7.13124">
        <ele>732</ele>
        <time>2022-04-05T21:06:56Z</time>
      </trkpt>
      <trkpt lat="48.20307" lon="7.13108">
        <ele>731</ele>
        <time>2022-04-05T21:06:59Z</time>
      </trkpt>
      <trkpt lat="48.20299" lon="7.13086">
        <ele>726</ele>
        <time>2022-04-05T21:07:02Z</time>
      </trkpt>
      <trkpt lat="48.20294" lon="7.13067">
        <ele>724</ele>
        <time>2022-04-05T21:07:04Z</time>
      </trkpt>
      <trkpt lat="48.20291" lon="7.13035">
        <ele>717</ele>
        <time>2022-04-05T21:07:08Z</time>
      </trkpt>
      <trkpt lat="48.20295" lon="7.12986">
        <ele>705</ele>
        <time>2022-04-05T21:07:14Z</time>
      </trkpt>
      <trkpt lat="48.20295" lon="7.12968">
        <ele>702</ele>
        <time>2022-04-05T21:07:16Z</time>
      </trkpt>
      <trkpt lat="48.20288" lon="7.12946">
        <ele>702</ele>
        <time>2022-04-05T21:07:19Z</time>
      </trkpt>
      <trkpt lat="48.2026" lon="7.12885">
        <ele>704</ele>
        <time>2022-04-05T21:07:28Z</time>
      </trkpt>
      <trkpt lat="48.20241" lon="7.12837">
        <ele>698</ele>
        <time>2022-04-05T21:07:34Z</time>
      </trkpt>
      <trkpt lat="48.20235" lon="7.12825">
        <ele>695</ele>
        <time>2022-04-05T21:07:36Z</time>
      </trkpt>
      <trkpt lat="48.20233" lon="7.1282">
        <ele>694</ele>
        <time>2022-04-05T21:07:37Z</time>
      </trkpt>
      <trkpt lat="48.20224" lon="7.12811">
        <ele>692</ele>
        <time>2022-04-05T21:07:39Z</time>
      </trkpt>
      <trkpt lat="48.20218" lon="7.12808">
        <ele>692</ele>
        <time>2022-04-05T21:07:40Z</time>
      </trkpt>
      <trkpt lat="48.2021" lon="7.12807">
        <ele>691</ele>
        <time>2022-04-05T21:07:41Z</time>
      </trkpt>
      <trkpt lat="48.20165" lon="7.12834">
        <ele>697</ele>
        <time>2022-04-05T21:07:50Z</time>
      </trkpt>
      <trkpt lat="48.20145" lon="7.12856">
        <ele>706</ele>
        <time>2022-04-05T21:07:54Z</time>
      </trkpt>
      <trkpt lat="48.20137" lon="7.12863">
        <ele>708</ele>
        <time>2022-04-05T21:07:56Z</time>
      </trkpt>
      <trkpt lat="48.201" lon="7.1288">
        <ele>713</ele>
        <time>2022-04-05T21:08:03Z</time>
      </trkpt>
      <trkpt lat="48.20093" lon="7.12881">
        <ele>714</ele>
        <time>2022-04-05T21:08:04Z</time>
      </trkpt>
      <trkpt lat="48.20089" lon="7.12877">
        <ele>714</ele>
        <time>2022-04-05T21:08:05Z</time>
      </trkpt>
      <trkpt lat="48.20086" lon="7.12871">
        <ele>714</ele>
        <time>2022-04-05T21:08:06Z</time>
      </trkpt>
      <trkpt lat="48.20086" lon="7.12861">
        <ele>713</ele>
        <time>2022-04-05T21:08:07Z</time>
      </trkpt>
      <trkpt lat="48.20107" lon="7.12808">
        <ele>704</ele>
        <time>2022-04-05T21:08:14Z</time>
      </trkpt>
      <trkpt lat="48.20111" lon="7.12789">
        <ele>701</ele>
        <time>2022-04-05T21:08:17Z</time>
      </trkpt>
      <trkpt lat="48.20114" lon="7.12765">
        <ele>697</ele>
        <time>2022-04-05T21:08:19Z</time>
      </trkpt>
      <trkpt lat="48.20114" lon="7.12741">
        <ele>694</ele>
        <time>2022-04-05T21:08:22Z</time>
      </trkpt>
      <trkpt lat="48.20109" lon="7.12698">
        <ele>693</ele>
        <time>2022-04-05T21:08:28Z</time>
      </trkpt>
      <trkpt lat="48.20104" lon="7.12684">
        <ele>694</ele>
        <time>2022-04-05T21:08:29Z</time>
      </trkpt>
      <trkpt lat="48.20093" lon="7.12662">
        <ele>697</ele>
        <time>2022-04-05T21:08:33Z</time>
      </trkpt>
      <trkpt lat="48.2009" lon="7.1265">
        <ele>699</ele>
        <time>2022-04-05T21:08:34Z</time>
      </trkpt>
      <trkpt lat="48.2009" lon="7.12639">
        <ele>699</ele>
        <time>2022-04-05T21:08:35Z</time>
      </trkpt>
      <trkpt lat="48.20093" lon="7.12627">
        <ele>699</ele>
        <time>2022-04-05T21:08:37Z</time>
      </trkpt>
      <trkpt lat="48.201" lon="7.12617">
        <ele>696</ele>
        <time>2022-04-05T21:08:39Z</time>
      </trkpt>
      <trkpt lat="48.20122" lon="7.12596">
        <ele>686</ele>
        <time>2022-04-05T21:08:43Z</time>
      </trkpt>
      <trkpt lat="48.2013" lon="7.12586">
        <ele>682</ele>
        <time>2022-04-05T21:08:45Z</time>
      </trkpt>
      <trkpt lat="48.20136" lon="7.12574">
        <ele>677</ele>
        <time>2022-04-05T21:08:47Z</time>
      </trkpt>
      <trkpt lat="48.20138" lon="7.12559">
        <ele>674</ele>
        <time>2022-04-05T21:08:49Z</time>
      </trkpt>
      <trkpt lat="48.20138" lon="7.12547">
        <ele>672</ele>
        <time>2022-04-05T21:08:50Z</time>
      </trkpt>
      <trkpt lat="48.20135" lon="7.12532">
        <ele>671</ele>
        <time>2022-04-05T21:08:52Z</time>
      </trkpt>
      <trkpt lat="48.20125" lon="7.12503">
        <ele>673</ele>
        <time>2022-04-05T21:08:56Z</time>
      </trkpt>
      <trkpt lat="48.20079" lon="7.12415">
        <ele>670</ele>
        <time>2022-04-05T21:09:09Z</time>
      </trkpt>
      <trkpt lat="48.20026" lon="7.12285">
        <ele>659</ele>
        <time>2022-04-05T21:09:27Z</time>
      </trkpt>
      <trkpt lat="48.19998" lon="7.12239">
        <ele>658</ele>
        <time>2022-04-05T21:09:35Z</time>
      </trkpt>
      <trkpt lat="48.19993" lon="7.12219">
        <ele>659</ele>
        <time>2022-04-05T21:09:37Z</time>
      </trkpt>
      <trkpt lat="48.19995" lon="7.12199">
        <ele>657</ele>
        <time>2022-04-05T21:09:40Z</time>
      </trkpt>
      <trkpt lat="48.19999" lon="7.12186">
        <ele>654</ele>
        <time>2022-04-05T21:09:41Z</time>
      </trkpt>
      <trkpt lat="48.2" lon="7.12183">
        <ele>653</ele>
        <time>2022-04-05T21:09:42Z</time>
      </trkpt>
      <trkpt lat="48.20004" lon="7.12177">
        <ele>652</ele>
        <time>2022-04-05T21:09:43Z</time>
      </trkpt>
      <trkpt lat="48.2001" lon="7.12168">
        <ele>651</ele>
        <time>2022-04-05T21:09:44Z</time>
      </trkpt>
      <trkpt lat="48.20025" lon="7.12159">
        <ele>652</ele>
        <time>2022-04-05T21:09:47Z</time>
      </trkpt>
      <trkpt lat="48.20039" lon="7.12157">
        <ele>652</ele>
        <time>2022-04-05T21:09:50Z</time>
      </trkpt>
      <trkpt lat="48.20056" lon="7.1217">
        <ele>648</ele>
        <time>2022-04-05T21:09:53Z</time>
      </trkpt>
      <trkpt lat="48.20076" lon="7.12211">
        <ele>640</ele>
        <time>2022-04-05T21:09:59Z</time>
      </trkpt>
      <trkpt lat="48.20091" lon="7.12229">
        <ele>636</ele>
        <time>2022-04-05T21:10:02Z</time>
      </trkpt>
      <trkpt lat="48.20149" lon="7.12278">
        <ele>632</ele>
        <time>2022-04-05T21:10:14Z</time>
      </trkpt>
      <trkpt lat="48.20241" lon="7.12345">
        <ele>631</ele>
        <time>2022-04-05T21:10:32Z</time>
      </trkpt>
      <trkpt lat="48.2033" lon="7.12393">
        <ele>631</ele>
        <time>2022-04-05T21:10:49Z</time>
      </trkpt>
      <trkpt lat="48.20352" lon="7.12423">
        <ele>624</ele>
        <time>2022-04-05T21:10:55Z</time>
      </trkpt>
      <trkpt lat="48.20366" lon="7.12463">
        <ele>617</ele>
        <time>2022-04-05T21:11:00Z</time>
      </trkpt>
      <trkpt lat="48.20387" lon="7.12491">
        <ele>611</ele>
        <time>2022-04-05T21:11:05Z</time>
      </trkpt>
      <trkpt lat="48.20441" lon="7.12526">
        <ele>612</ele>
        <time>2022-04-05T21:11:15Z</time>
      </trkpt>
      <trkpt lat="48.20495" lon="7.12605">
        <ele>596</ele>
        <time>2022-04-05T21:11:29Z</time>
      </trkpt>
      <trkpt lat="48.20514" lon="7.12639">
        <ele>595</ele>
        <time>2022-04-05T21:11:34Z</time>
      </trkpt>
      <trkpt lat="48.20607" lon="7.12768">
        <ele>586</ele>
        <time>2022-04-05T21:11:57Z</time>
      </trkpt>
      <trkpt lat="48.20679" lon="7.12835">
        <ele>577</ele>
        <time>2022-04-05T21:12:12Z</time>
      </trkpt>
      <trkpt lat="48.20733" lon="7.12907">
        <ele>575</ele>
        <time>2022-04-05T21:12:25Z</time>
      </trkpt>
      <trkpt lat="48.20795" lon="7.12964">
        <ele>573</ele>
        <time>2022-04-05T21:12:38Z</time>
      </trkpt>
      <trkpt lat="48.20836" lon="7.13027">
        <ele>564</ele>
        <time>2022-04-05T21:12:48Z</time>
      </trkpt>
      <trkpt lat="48.20854" lon="7.13073">
        <ele>566</ele>
        <time>2022-04-05T21:12:54Z</time>
      </trkpt>
      <trkpt lat="48.20865" lon="7.13113">
        <ele>568</ele>
        <time>2022-04-05T21:12:59Z</time>
      </trkpt>
      <trkpt lat="48.2087" lon="7.13151">
        <ele>569</ele>
        <time>2022-04-05T21:13:04Z</time>
      </trkpt>
      <trkpt lat="48.20874" lon="7.13176">
        <ele>571</ele>
        <time>2022-04-05T21:13:07Z</time>
      </trkpt>
      <trkpt lat="48.20882" lon="7.13207">
        <ele>575</ele>
        <time>2022-04-05T21:13:11Z</time>
      </trkpt>
      <trkpt lat="48.20896" lon="7.13243">
        <ele>574</ele>
        <time>2022-04-05T21:13:16Z</time>
      </trkpt>
      <trkpt lat="48.20939" lon="7.13294">
        <ele>574</ele>
        <time>2022-04-05T21:13:26Z</time>
      </trkpt>
      <trkpt lat="48.2103" lon="7.13381">
        <ele>565</ele>
        <time>2022-04-05T21:13:45Z</time>
      </trkpt>
      <trkpt lat="48.21047" lon="7.13391">
        <ele>562</ele>
        <time>2022-04-05T21:13:48Z</time>
      </trkpt>
      <trkpt lat="48.2106" lon="7.13391">
        <ele>559</ele>
        <time>2022-04-05T21:13:50Z</time>
      </trkpt>
      <trkpt lat="48.2109" lon="7.13382">
        <ele>551</ele>
        <time>2022-04-05T21:13:56Z</time>
      </trkpt>
      <trkpt lat="48.21108" lon="7.13379">
        <ele>550</ele>
        <time>2022-04-05T21:13:59Z</time>
      </trkpt>
      <trkpt lat="48.21125" lon="7.13381">
        <ele>548</ele>
        <time>2022-04-05T21:14:02Z</time>
      </trkpt>
      <trkpt lat="48.2114" lon="7.13386">
        <ele>547</ele>
        <time>2022-04-05T21:14:05Z</time>
      </trkpt>
      <trkpt lat="48.21163" lon="7.13398">
        <ele>544</ele>
        <time>2022-04-05T21:14:09Z</time>
      </trkpt>
      <trkpt lat="48.21185" lon="7.13414">
        <ele>543</ele>
        <time>2022-04-05T21:14:14Z</time>
      </trkpt>
      <trkpt lat="48.21198" lon="7.13426">
        <ele>544</ele>
        <time>2022-04-05T21:14:16Z</time>
      </trkpt>
      <trkpt lat="48.2124" lon="7.13485">
        <ele>541</ele>
        <time>2022-04-05T21:14:27Z</time>
      </trkpt>
      <trkpt lat="48.21257" lon="7.13503">
        <ele>538</ele>
        <time>2022-04-05T21:14:30Z</time>
      </trkpt>
      <trkpt lat="48.21275" lon="7.13514">
        <ele>537</ele>
        <time>2022-04-05T21:14:34Z</time>
      </trkpt>
      <trkpt lat="48.21291" lon="7.1352">
        <ele>535</ele>
        <time>2022-04-05T21:14:37Z</time>
      </trkpt>
      <trkpt lat="48.21299" lon="7.13525">
        <ele>535</ele>
        <time>2022-04-05T21:14:38Z</time>
      </trkpt>
      <trkpt lat="48.2135" lon="7.13581">
        <ele>531</ele>
        <time>2022-04-05T21:14:49Z</time>
      </trkpt>
      <trkpt lat="48.21366" lon="7.13605">
        <ele>531</ele>
        <time>2022-04-05T21:14:53Z</time>
      </trkpt>
      <trkpt lat="48.21375" lon="7.13633">
        <ele>529</ele>
        <time>2022-04-05T21:14:57Z</time>
      </trkpt>
      <trkpt lat="48.21379" lon="7.13694">
        <ele>529</ele>
        <time>2022-04-05T21:15:04Z</time>
      </trkpt>
      <trkpt lat="48.21381" lon="7.13709">
        <ele>530</ele>
        <time>2022-04-05T21:15:06Z</time>
      </trkpt>
      <trkpt lat="48.21389" lon="7.13733">
        <ele>529</ele>
        <time>2022-04-05T21:15:09Z</time>
      </trkpt>
      <trkpt lat="48.21402" lon="7.13756">
        <ele>527</ele>
        <time>2022-04-05T21:15:13Z</time>
      </trkpt>
      <trkpt lat="48.21423" lon="7.1378">
        <ele>525</ele>
        <time>2022-04-05T21:15:18Z</time>
      </trkpt>
      <trkpt lat="48.21436" lon="7.13802">
        <ele>525</ele>
        <time>2022-04-05T21:15:21Z</time>
      </trkpt>
      <trkpt lat="48.21462" lon="7.13877">
        <ele>525</ele>
        <time>2022-04-05T21:15:31Z</time>
      </trkpt>
      <trkpt lat="48.21488" lon="7.13938">
        <ele>522</ele>
        <time>2022-04-05T21:15:40Z</time>
      </trkpt>
      <trkpt lat="48.21509" lon="7.1398">
        <ele>522</ele>
        <time>2022-04-05T21:15:46Z</time>
      </trkpt>
      <trkpt lat="48.21539" lon="7.14018">
        <ele>520</ele>
        <time>2022-04-05T21:15:53Z</time>
      </trkpt>
      <trkpt lat="48.2157" lon="7.14044">
        <ele>514</ele>
        <time>2022-04-05T21:15:59Z</time>
      </trkpt>
      <trkpt lat="48.21606" lon="7.1406">
        <ele>509</ele>
        <time>2022-04-05T21:16:06Z</time>
      </trkpt>
      <trkpt lat="48.21649" lon="7.14068">
        <ele>506</ele>
        <time>2022-04-05T21:16:14Z</time>
      </trkpt>
      <trkpt lat="48.21679" lon="7.14079">
        <ele>503</ele>
        <time>2022-04-05T21:16:19Z</time>
      </trkpt>
      <trkpt lat="48.21694" lon="7.14087">
        <ele>503</ele>
        <time>2022-04-05T21:16:22Z</time>
      </trkpt>
      <trkpt lat="48.21714" lon="7.14108">
        <ele>502</ele>
        <time>2022-04-05T21:16:26Z</time>
      </trkpt>
      <trkpt lat="48.21784" lon="7.14234">
        <ele>498</ele>
        <time>2022-04-05T21:16:46Z</time>
      </trkpt>
      <trkpt lat="48.21806" lon="7.14261">
        <ele>497</ele>
        <time>2022-04-05T21:16:51Z</time>
      </trkpt>
      <trkpt lat="48.21862" lon="7.14305">
        <ele>497</ele>
        <time>2022-04-05T21:17:02Z</time>
      </trkpt>
      <trkpt lat="48.21876" lon="7.14319">
        <ele>497</ele>
        <time>2022-04-05T21:17:05Z</time>
      </trkpt>
      <trkpt lat="48.21888" lon="7.14333">
        <ele>496</ele>
        <time>2022-04-05T21:17:08Z</time>
      </trkpt>
      <trkpt lat="48.21929" lon="7.14399">
        <ele>494</ele>
        <time>2022-04-05T21:17:18Z</time>
      </trkpt>
      <trkpt lat="48.2194" lon="7.1441">
        <ele>492</ele>
        <time>2022-04-05T21:17:21Z</time>
      </trkpt>
      <trkpt lat="48.21955" lon="7.14421">
        <ele>491</ele>
        <time>2022-04-05T21:17:24Z</time>
      </trkpt>
      <trkpt lat="48.21972" lon="7.14428">
        <ele>490</ele>
        <time>2022-04-05T21:17:27Z</time>
      </trkpt>
      <trkpt lat="48.22008" lon="7.14435">
        <ele>486</ele>
        <time>2022-04-05T21:17:33Z</time>
      </trkpt>
      <trkpt lat="48.22093" lon="7.14489">
        <ele>483</ele>
        <time>2022-04-05T21:17:50Z</time>
      </trkpt>
      <trkpt lat="48.22126" lon="7.14513">
        <ele>482</ele>
        <time>2022-04-05T21:17:56Z</time>
      </trkpt>
      <trkpt lat="48.22154" lon="7.14536">
        <ele>480</ele>
        <time>2022-04-05T21:18:02Z</time>
      </trkpt>
      <trkpt lat="48.22171" lon="7.14561">
        <ele>478</ele>
        <time>2022-04-05T21:18:06Z</time>
      </trkpt>
      <trkpt lat="48.2222" lon="7.14648">
        <ele>474</ele>
        <time>2022-04-05T21:18:20Z</time>
      </trkpt>
      <trkpt lat="48.22231" lon="7.14662">
        <ele>472</ele>
        <time>2022-04-05T21:18:22Z</time>
      </trkpt>
      <trkpt lat="48.22246" lon="7.14668">
        <ele>470</ele>
        <time>2022-04-05T21:18:25Z</time>
      </trkpt>
      <trkpt lat="48.22275" lon="7.14675">
        <ele>472</ele>
        <time>2022-04-05T21:18:30Z</time>
      </trkpt>
      <trkpt lat="48.2229" lon="7.14685">
        <ele>472</ele>
        <time>2022-04-05T21:18:33Z</time>
      </trkpt>
      <trkpt lat="48.22302" lon="7.147">
        <ele>472</ele>
        <time>2022-04-05T21:18:36Z</time>
      </trkpt>
      <trkpt lat="48.22336" lon="7.14756">
        <ele>468</ele>
        <time>2022-04-05T21:18:45Z</time>
      </trkpt>
      <trkpt lat="48.2235" lon="7.14788">
        <ele>469</ele>
        <time>2022-04-05T21:18:50Z</time>
      </trkpt>
      <trkpt lat="48.22367" lon="7.14834">
        <ele>469</ele>
        <time>2022-04-05T21:18:56Z</time>
      </trkpt>
      <trkpt lat="48.22386" lon="7.14877">
        <ele>470</ele>
        <time>2022-04-05T21:19:02Z</time>
      </trkpt>
      <trkpt lat="48.224" lon="7.149">
        <ele>469</ele>
        <time>2022-04-05T21:19:06Z</time>
      </trkpt>
      <trkpt lat="48.22468" lon="7.14956">
        <ele>468</ele>
        <time>2022-04-05T21:19:19Z</time>
      </trkpt>
      <trkpt lat="48.22505" lon="7.1498">
        <ele>464</ele>
        <time>2022-04-05T21:19:27Z</time>
      </trkpt>
      <trkpt lat="48.22554" lon="7.15018">
        <ele>464</ele>
        <time>2022-04-05T21:19:36Z</time>
      </trkpt>
      <trkpt lat="48.22597" lon="7.15061">
        <ele>462</ele>
        <time>2022-04-05T21:19:46Z</time>
      </trkpt>
      <trkpt lat="48.2263" lon="7.15098">
        <ele>459</ele>
        <time>2022-04-05T21:19:53Z</time>
      </trkpt>
      <trkpt lat="48.22662" lon="7.15138">
        <ele>455</ele>
        <time>2022-04-05T21:20:00Z</time>
      </trkpt>
      <trkpt lat="48.22754" lon="7.15269">
        <ele>452</ele>
        <time>2022-04-05T21:20:23Z</time>
      </trkpt>
      <trkpt lat="48.22878" lon="7.15431">
        <ele>453</ele>
        <time>2022-04-05T21:20:52Z</time>
      </trkpt>
      <trkpt lat="48.2289" lon="7.15454">
        <ele>453</ele>
        <time>2022-04-05T21:20:56Z</time>
      </trkpt>
      <trkpt lat="48.22939" lon="7.1557">
        <ele>452</ele>
        <time>2022-04-05T21:21:12Z</time>
      </trkpt>
      <trkpt lat="48.22945" lon="7.15591">
        <ele>453</ele>
        <time>2022-04-05T21:21:15Z</time>
      </trkpt>
      <trkpt lat="48.22956" lon="7.1567">
        <ele>451</ele>
        <time>2022-04-05T21:21:24Z</time>
      </trkpt>
      <trkpt lat="48.22959" lon="7.1569">
        <ele>451</ele>
        <time>2022-04-05T21:21:27Z</time>
      </trkpt>
      <trkpt lat="48.22988" lon="7.15867">
        <ele>437</ele>
        <time>2022-04-05T21:21:48Z</time>
      </trkpt>
      <trkpt lat="48.22994" lon="7.15939">
        <ele>434</ele>
        <time>2022-04-05T21:21:57Z</time>
      </trkpt>
      <trkpt lat="48.22998" lon="7.15958">
        <ele>433</ele>
        <time>2022-04-05T21:21:59Z</time>
      </trkpt>
      <trkpt lat="48.23005" lon="7.1598">
        <ele>433</ele>
        <time>2022-04-05T21:22:02Z</time>
      </trkpt>
      <trkpt lat="48.23019" lon="7.16006">
        <ele>433</ele>
        <time>2022-04-05T21:22:06Z</time>
      </trkpt>
      <trkpt lat="48.23077" lon="7.16075">
        <ele>429</ele>
        <time>2022-04-05T21:22:19Z</time>
      </trkpt>
      <trkpt lat="48.2309" lon="7.16086">
        <ele>428</ele>
        <time>2022-04-05T21:22:22Z</time>
      </trkpt>
      <trkpt lat="48.23103" lon="7.16092">
        <ele>428</ele>
        <time>2022-04-05T21:22:24Z</time>
      </trkpt>
      <trkpt lat="48.2315" lon="7.16094">
        <ele>430</ele>
        <time>2022-04-05T21:22:33Z</time>
      </trkpt>
      <trkpt lat="48.2318" lon="7.16109">
        <ele>431</ele>
        <time>2022-04-05T21:22:38Z</time>
      </trkpt>
      <trkpt lat="48.23224" lon="7.16121">
        <ele>432</ele>
        <time>2022-04-05T21:22:46Z</time>
      </trkpt>
      <trkpt lat="48.23327" lon="7.16168">
        <ele>424</ele>
        <time>2022-04-05T21:23:05Z</time>
      </trkpt>
      <trkpt lat="48.23364" lon="7.16196">
        <ele>424</ele>
        <time>2022-04-05T21:23:13Z</time>
      </trkpt>
      <trkpt lat="48.23384" lon="7.16215">
        <ele>423</ele>
        <time>2022-04-05T21:23:17Z</time>
      </trkpt>
      <trkpt lat="48.23419" lon="7.16255">
        <ele>418</ele>
        <time>2022-04-05T21:23:25Z</time>
      </trkpt>
      <trkpt lat="48.23426" lon="7.16262">
        <ele>420</ele>
        <time>2022-04-05T21:23:26Z</time>
      </trkpt>
      <trkpt lat="48.23494" lon="7.16301">
        <ele>427</ele>
        <time>2022-04-05T21:23:39Z</time>
      </trkpt>
      <trkpt lat="48.23515" lon="7.16324">
        <ele>430</ele>
        <time>2022-04-05T21:23:44Z</time>
      </trkpt>
      <trkpt lat="48.23526" lon="7.1634">
        <ele>433</ele>
        <time>2022-04-05T21:23:47Z</time>
      </trkpt>
      <trkpt lat="48.23546" lon="7.16383">
        <ele>437</ele>
        <time>2022-04-05T21:23:53Z</time>
      </trkpt>
      <trkpt lat="48.23554" lon="7.16408">
        <ele>436</ele>
        <time>2022-04-05T21:23:56Z</time>
      </trkpt>
      <trkpt lat="48.2357" lon="7.16503">
        <ele>426</ele>
        <time>2022-04-05T21:24:08Z</time>
      </trkpt>
      <trkpt lat="48.23575" lon="7.16524">
        <ele>425</ele>
        <time>2022-04-05T21:24:10Z</time>
      </trkpt>
      <trkpt lat="48.23596" lon="7.16582">
        <ele>429</ele>
        <time>2022-04-05T21:24:18Z</time>
      </trkpt>
      <trkpt lat="48.23602" lon="7.16608">
        <ele>430</ele>
        <time>2022-04-05T21:24:21Z</time>
      </trkpt>
      <trkpt lat="48.23612" lon="7.16705">
        <ele>428</ele>
        <time>2022-04-05T21:24:33Z</time>
      </trkpt>
      <trkpt lat="48.23621" lon="7.16766">
        <ele>427</ele>
        <time>2022-04-05T21:24:40Z</time>
      </trkpt>
      <trkpt lat="48.23628" lon="7.16796">
        <ele>427</ele>
        <time>2022-04-05T21:24:44Z</time>
      </trkpt>
      <trkpt lat="48.23663" lon="7.16894">
        <ele>423</ele>
        <time>2022-04-05T21:24:57Z</time>
      </trkpt>
      <trkpt lat="48.23682" lon="7.16967">
        <ele>423</ele>
        <time>2022-04-05T21:25:07Z</time>
      </trkpt>
      <trkpt lat="48.23714" lon="7.17141">
        <ele>422</ele>
        <time>2022-04-05T21:25:28Z</time>
      </trkpt>
      <trkpt lat="48.23722" lon="7.17174">
        <ele>422</ele>
        <time>2022-04-05T21:25:32Z</time>
      </trkpt>
      <trkpt lat="48.23732" lon="7.17205">
        <ele>420</ele>
        <time>2022-04-05T21:25:36Z</time>
      </trkpt>
      <trkpt lat="48.23795" lon="7.17359">
        <ele>420</ele>
        <time>2022-04-05T21:25:58Z</time>
      </trkpt>
      <trkpt lat="48.23799" lon="7.17382">
        <ele>418</ele>
        <time>2022-04-05T21:26:01Z</time>
      </trkpt>
      <trkpt lat="48.23807" lon="7.17393">
        <ele>419</ele>
        <time>2022-04-05T21:26:02Z</time>
      </trkpt>
      <trkpt lat="48.23861" lon="7.17509">
        <ele>411</ele>
        <time>2022-04-05T21:26:19Z</time>
      </trkpt>
      <trkpt lat="48.23882" lon="7.17604">
        <ele>400</ele>
        <time>2022-04-05T21:26:31Z</time>
      </trkpt>
      <trkpt lat="48.23891" lon="7.17667">
        <ele>392</ele>
        <time>2022-04-05T21:26:39Z</time>
      </trkpt>
      <trkpt lat="48.23896" lon="7.17688">
        <ele>392</ele>
        <time>2022-04-05T21:26:41Z</time>
      </trkpt>
      <trkpt lat="48.23906" lon="7.17707">
        <ele>391</ele>
        <time>2022-04-05T21:26:44Z</time>
      </trkpt>
      <trkpt lat="48.23943" lon="7.17751">
        <ele>392</ele>
        <time>2022-04-05T21:26:53Z</time>
      </trkpt>
      <trkpt lat="48.2402" lon="7.17824">
        <ele>388</ele>
        <time>2022-04-05T21:27:09Z</time>
      </trkpt>
      <trkpt lat="48.24072" lon="7.17884">
        <ele>388</ele>
        <time>2022-04-05T21:27:20Z</time>
      </trkpt>
      <trkpt lat="48.24135" lon="7.17964">
        <ele>385</ele>
        <time>2022-04-05T21:27:35Z</time>
      </trkpt>
      <trkpt lat="48.24145" lon="7.17972">
        <ele>385</ele>
        <time>2022-04-05T21:27:37Z</time>
      </trkpt>
      <trkpt lat="48.2417" lon="7.17984">
        <ele>384</ele>
        <time>2022-04-05T21:27:42Z</time>
      </trkpt>
      <trkpt lat="48.24222" lon="7.17993">
        <ele>383</ele>
        <time>2022-04-05T21:27:51Z</time>
      </trkpt>
      <trkpt lat="48.24242" lon="7.17988">
        <ele>383</ele>
        <time>2022-04-05T21:27:55Z</time>
      </trkpt>
      <trkpt lat="48.24246" lon="7.17987">
        <ele>383</ele>
        <time>2022-04-05T21:27:55Z</time>
      </trkpt>
      <trkpt lat="48.2428" lon="7.17981">
        <ele>383</ele>
        <time>2022-04-05T21:28:02Z</time>
      </trkpt>
      <trkpt lat="48.2429" lon="7.17982">
        <ele>383</ele>
        <time>2022-04-05T21:28:03Z</time>
      </trkpt>
      <trkpt lat="48.24311" lon="7.17986">
        <ele>382</ele>
        <time>2022-04-05T21:28:07Z</time>
      </trkpt>
      <trkpt lat="48.24378" lon="7.18015">
        <ele>383</ele>
        <time>2022-04-05T21:28:20Z</time>
      </trkpt>
      <trkpt lat="48.24383" lon="7.18016">
        <ele>383</ele>
        <time>2022-04-05T21:28:20Z</time>
      </trkpt>
      <trkpt lat="48.24386" lon="7.18026">
        <ele>383</ele>
        <time>2022-04-05T21:28:22Z</time>
      </trkpt>
      <trkpt lat="48.24391" lon="7.18028">
        <ele>383</ele>
        <time>2022-04-05T21:28:23Z</time>
      </trkpt>
      <trkpt lat="48.24395" lon="7.18023">
        <ele>383</ele>
        <time>2022-04-05T21:28:24Z</time>
      </trkpt>
      <trkpt lat="48.24395" lon="7.1802">
        <ele>383</ele>
        <time>2022-04-05T21:28:24Z</time>
      </trkpt>
      <trkpt lat="48.24407" lon="7.18018">
        <ele>384</ele>
        <time>2022-04-05T21:28:26Z</time>
      </trkpt>
      <trkpt lat="48.24459" lon="7.17997">
        <ele>385</ele>
        <time>2022-04-05T21:28:36Z</time>
      </trkpt>
      <trkpt lat="48.24483" lon="7.17979">
        <ele>387</ele>
        <time>2022-04-05T21:28:40Z</time>
      </trkpt>
      <trkpt lat="48.24487" lon="7.1799">
        <ele>386</ele>
        <time>2022-04-05T21:28:42Z</time>
      </trkpt>
      <trkpt lat="48.24475" lon="7.17955">
        <ele>389</ele>
        <time>2022-04-05T21:28:47Z</time>
      </trkpt>
      <trkpt lat="48.2444" lon="7.17896">
        <ele>391</ele>
        <time>2022-04-05T21:28:56Z</time>
      </trkpt>
      <trkpt lat="48.24435" lon="7.17883">
        <ele>391</ele>
        <time>2022-04-05T21:28:58Z</time>
      </trkpt>
      <trkpt lat="48.24403" lon="7.17744">
        <ele>391</ele>
        <time>2022-04-05T21:29:15Z</time>
      </trkpt>
      <trkpt lat="48.24383" lon="7.17668">
        <ele>391</ele>
        <time>2022-04-05T21:29:25Z</time>
      </trkpt>
      <trkpt lat="48.24329" lon="7.17505">
        <ele>397</ele>
        <time>2022-04-05T21:29:46Z</time>
      </trkpt>
      <trkpt lat="48.24311" lon="7.17462">
        <ele>400</ele>
        <time>2022-04-05T21:29:52Z</time>
      </trkpt>
      <trkpt lat="48.24306" lon="7.17444">
        <ele>400</ele>
        <time>2022-04-05T21:29:55Z</time>
      </trkpt>
      <trkpt lat="48.24302" lon="7.17414">
        <ele>402</ele>
        <time>2022-04-05T21:29:58Z</time>
      </trkpt>
      <trkpt lat="48.24299" lon="7.17371">
        <ele>405</ele>
        <time>2022-04-05T21:30:03Z</time>
      </trkpt>
      <trkpt lat="48.243" lon="7.16983">
        <ele>420</ele>
        <time>2022-04-05T21:30:49Z</time>
      </trkpt>
      <trkpt lat="48.24295" lon="7.1691">
        <ele>419</ele>
        <time>2022-04-05T21:30:58Z</time>
      </trkpt>
      <trkpt lat="48.24288" lon="7.16845">
        <ele>420</ele>
        <time>2022-04-05T21:31:06Z</time>
      </trkpt>
      <trkpt lat="48.24245" lon="7.16641">
        <ele>423</ele>
        <time>2022-04-05T21:31:31Z</time>
      </trkpt>
      <trkpt lat="48.24246" lon="7.16618">
        <ele>423</ele>
        <time>2022-04-05T21:31:34Z</time>
      </trkpt>
      <trkpt lat="48.24276" lon="7.16482">
        <ele>434</ele>
        <time>2022-04-05T21:31:51Z</time>
      </trkpt>
      <trkpt lat="48.24292" lon="7.1639">
        <ele>445</ele>
        <time>2022-04-05T21:32:02Z</time>
      </trkpt>
      <trkpt lat="48.24298" lon="7.16337">
        <ele>448</ele>
        <time>2022-04-05T21:32:09Z</time>
      </trkpt>
      <trkpt lat="48.24303" lon="7.16334">
        <ele>448</ele>
        <time>2022-04-05T21:32:10Z</time>
      </trkpt>
      <trkpt lat="48.24307" lon="7.16328">
        <ele>449</ele>
        <time>2022-04-05T21:32:11Z</time>
      </trkpt>
      <trkpt lat="48.24323" lon="7.16292">
        <ele>449</ele>
        <time>2022-04-05T21:32:16Z</time>
      </trkpt>
      <trkpt lat="48.24402" lon="7.16187">
        <ele>459</ele>
        <time>2022-04-05T21:32:35Z</time>
      </trkpt>
      <trkpt lat="48.24404" lon="7.1618">
        <ele>459</ele>
        <time>2022-04-05T21:32:35Z</time>
      </trkpt>
      <trkpt lat="48.24422" lon="7.16194">
        <ele>460</ele>
        <time>2022-04-05T21:32:39Z</time>
      </trkpt>
      <trkpt lat="48.24433" lon="7.16209">
        <ele>462</ele>
        <time>2022-04-05T21:32:42Z</time>
      </trkpt>
      <trkpt lat="48.24445" lon="7.16232">
        <ele>465</ele>
        <time>2022-04-05T21:32:45Z</time>
      </trkpt>
      <trkpt lat="48.24462" lon="7.16254">
        <ele>467</ele>
        <time>2022-04-05T21:32:49Z</time>
      </trkpt>
      <trkpt lat="48.24475" lon="7.16264">
        <ele>471</ele>
        <time>2022-04-05T21:32:52Z</time>
      </trkpt>
      <trkpt lat="48.24539" lon="7.16277">
        <ele>479</ele>
        <time>2022-04-05T21:33:03Z</time>
      </trkpt>
      <trkpt lat="48.2457" lon="7.16274">
        <ele>481</ele>
        <time>2022-04-05T21:33:09Z</time>
      </trkpt>
      <trkpt lat="48.24591" lon="7.16266">
        <ele>481</ele>
        <time>2022-04-05T21:33:13Z</time>
      </trkpt>
      <trkpt lat="48.24611" lon="7.16255">
        <ele>483</ele>
        <time>2022-04-05T21:33:16Z</time>
      </trkpt>
      <trkpt lat="48.24648" lon="7.16225">
        <ele>490</ele>
        <time>2022-04-05T21:33:24Z</time>
      </trkpt>
      <trkpt lat="48.24738" lon="7.16148">
        <ele>498</ele>
        <time>2022-04-05T21:33:42Z</time>
      </trkpt>
      <trkpt lat="48.24757" lon="7.16134">
        <ele>499</ele>
        <time>2022-04-05T21:33:46Z</time>
      </trkpt>
      <trkpt lat="48.24807" lon="7.16112">
        <ele>504</ele>
        <time>2022-04-05T21:33:55Z</time>
      </trkpt>
      <trkpt lat="48.24841" lon="7.16094">
        <ele>505</ele>
        <time>2022-04-05T21:34:02Z</time>
      </trkpt>
      <trkpt lat="48.24859" lon="7.16076">
        <ele>507</ele>
        <time>2022-04-05T21:34:06Z</time>
      </trkpt>
      <trkpt lat="48.24878" lon="7.16048">
        <ele>511</ele>
        <time>2022-04-05T21:34:10Z</time>
      </trkpt>
      <trkpt lat="48.24925" lon="7.15965">
        <ele>514</ele>
        <time>2022-04-05T21:34:23Z</time>
      </trkpt>
      <trkpt lat="48.24956" lon="7.15894">
        <ele>523</ele>
        <time>2022-04-05T21:34:33Z</time>
      </trkpt>
      <trkpt lat="48.24967" lon="7.15874">
        <ele>525</ele>
        <time>2022-04-05T21:34:36Z</time>
      </trkpt>
      <trkpt lat="48.25034" lon="7.15785">
        <ele>530</ele>
        <time>2022-04-05T21:34:52Z</time>
      </trkpt>
      <trkpt lat="48.25062" lon="7.15748">
        <ele>530</ele>
        <time>2022-04-05T21:34:59Z</time>
      </trkpt>
      <trkpt lat="48.25089" lon="7.15708">
        <ele>536</ele>
        <time>2022-04-05T21:35:06Z</time>
      </trkpt>
      <trkpt lat="48.25139" lon="7.1565">
        <ele>549</ele>
        <time>2022-04-05T21:35:17Z</time>
      </trkpt>
      <trkpt lat="48.25188" lon="7.15587">
        <ele>554</ele>
        <time>2022-04-05T21:35:28Z</time>
      </trkpt>
      <trkpt lat="48.25195" lon="7.15565">
        <ele>555</ele>
        <time>2022-04-05T21:35:31Z</time>
      </trkpt>
      <trkpt lat="48.25194" lon="7.15545">
        <ele>555</ele>
        <time>2022-04-05T21:35:34Z</time>
      </trkpt>
      <trkpt lat="48.25192" lon="7.15538">
        <ele>555</ele>
        <time>2022-04-05T21:35:35Z</time>
      </trkpt>
      <trkpt lat="48.25189" lon="7.15528">
        <ele>555</ele>
        <time>2022-04-05T21:35:36Z</time>
      </trkpt>
      <trkpt lat="48.25179" lon="7.15512">
        <ele>554</ele>
        <time>2022-04-05T21:35:38Z</time>
      </trkpt>
      <trkpt lat="48.25167" lon="7.15506">
        <ele>553</ele>
        <time>2022-04-05T21:35:41Z</time>
      </trkpt>
      <trkpt lat="48.25152" lon="7.15507">
        <ele>556</ele>
        <time>2022-04-05T21:35:43Z</time>
      </trkpt>
      <trkpt lat="48.24956" lon="7.15592">
        <ele>577</ele>
        <time>2022-04-05T21:36:20Z</time>
      </trkpt>
      <trkpt lat="48.24914" lon="7.15615">
        <ele>580</ele>
        <time>2022-04-05T21:36:28Z</time>
      </trkpt>
      <trkpt lat="48.24882" lon="7.15637">
        <ele>584</ele>
        <time>2022-04-05T21:36:34Z</time>
      </trkpt>
      <trkpt lat="48.24778" lon="7.15729">
        <ele>597</ele>
        <time>2022-04-05T21:36:55Z</time>
      </trkpt>
      <trkpt lat="48.24764" lon="7.15744">
        <ele>600</ele>
        <time>2022-04-05T21:36:58Z</time>
      </trkpt>
      <trkpt lat="48.24759" lon="7.15763">
        <ele>599</ele>
        <time>2022-04-05T21:37:01Z</time>
      </trkpt>
      <trkpt lat="48.24752" lon="7.15814">
        <ele>591</ele>
        <time>2022-04-05T21:37:07Z</time>
      </trkpt>
      <trkpt lat="48.24748" lon="7.15832">
        <ele>588</ele>
        <time>2022-04-05T21:37:09Z</time>
      </trkpt>
      <trkpt lat="48.24742" lon="7.15845">
        <ele>586</ele>
        <time>2022-04-05T21:37:11Z</time>
      </trkpt>
      <trkpt lat="48.24734" lon="7.15854">
        <ele>584</ele>
        <time>2022-04-05T21:37:13Z</time>
      </trkpt>
      <trkpt lat="48.24723" lon="7.15862">
        <ele>583</ele>
        <time>2022-04-05T21:37:15Z</time>
      </trkpt>
      <trkpt lat="48.24709" lon="7.15865">
        <ele>583</ele>
        <time>2022-04-05T21:37:18Z</time>
      </trkpt>
      <trkpt lat="48.24695" lon="7.1586">
        <ele>586</ele>
        <time>2022-04-05T21:37:20Z</time>
      </trkpt>
      <trkpt lat="48.24683" lon="7.15849">
        <ele>589</ele>
        <time>2022-04-05T21:37:23Z</time>
      </trkpt>
      <trkpt lat="48.24675" lon="7.15835">
        <ele>593</ele>
        <time>2022-04-05T21:37:25Z</time>
      </trkpt>
      <trkpt lat="48.24671" lon="7.1582">
        <ele>596</ele>
        <time>2022-04-05T21:37:27Z</time>
      </trkpt>
      <trkpt lat="48.24669" lon="7.158">
        <ele>599</ele>
        <time>2022-04-05T21:37:29Z</time>
      </trkpt>
      <trkpt lat="48.24667" lon="7.15764">
        <ele>604</ele>
        <time>2022-04-05T21:37:33Z</time>
      </trkpt>
      <trkpt lat="48.24647" lon="7.15594">
        <ele>618</ele>
        <time>2022-04-05T21:37:54Z</time>
      </trkpt>
      <trkpt lat="48.2464" lon="7.15507">
        <ele>624</ele>
        <time>2022-04-05T21:38:04Z</time>
      </trkpt>
      <trkpt lat="48.24639" lon="7.15437">
        <ele>628</ele>
        <time>2022-04-05T21:38:13Z</time>
      </trkpt>
      <trkpt lat="48.24641" lon="7.15404">
        <ele>631</ele>
        <time>2022-04-05T21:38:17Z</time>
      </trkpt>
      <trkpt lat="48.24644" lon="7.15333">
        <ele>636</ele>
        <time>2022-04-05T21:38:25Z</time>
      </trkpt>
      <trkpt lat="48.24657" lon="7.15194">
        <ele>645</ele>
        <time>2022-04-05T21:38:42Z</time>
      </trkpt>
      <trkpt lat="48.24661" lon="7.15027">
        <ele>650</ele>
        <time>2022-04-05T21:39:01Z</time>
      </trkpt>
      <trkpt lat="48.24667" lon="7.14999">
        <ele>654</ele>
        <time>2022-04-05T21:39:05Z</time>
      </trkpt>
      <trkpt lat="48.24674" lon="7.14981">
        <ele>656</ele>
        <time>2022-04-05T21:39:07Z</time>
      </trkpt>
      <trkpt lat="48.24794" lon="7.14752">
        <ele>675</ele>
        <time>2022-04-05T21:39:42Z</time>
      </trkpt>
      <trkpt lat="48.24804" lon="7.14727">
        <ele>678</ele>
        <time>2022-04-05T21:39:45Z</time>
      </trkpt>
      <trkpt lat="48.2481" lon="7.14698">
        <ele>679</ele>
        <time>2022-04-05T21:39:49Z</time>
      </trkpt>
      <trkpt lat="48.24819" lon="7.14614">
        <ele>686</ele>
        <time>2022-04-05T21:39:59Z</time>
      </trkpt>
      <trkpt lat="48.24819" lon="7.1458">
        <ele>689</ele>
        <time>2022-04-05T21:40:03Z</time>
      </trkpt>
      <trkpt lat="48.24813" lon="7.14551">
        <ele>694</ele>
        <time>2022-04-05T21:40:07Z</time>
      </trkpt>
      <trkpt lat="48.24804" lon="7.1453">
        <ele>697</ele>
        <time>2022-04-05T21:40:10Z</time>
      </trkpt>
      <trkpt lat="48.24792" lon="7.14514">
        <ele>700</ele>
        <time>2022-04-05T21:40:12Z</time>
      </trkpt>
      <trkpt lat="48.24776" lon="7.14502">
        <ele>702</ele>
        <time>2022-04-05T21:40:16Z</time>
      </trkpt>
      <trkpt lat="48.24756" lon="7.14491">
        <ele>704</ele>
        <time>2022-04-05T21:40:19Z</time>
      </trkpt>
      <trkpt lat="48.24738" lon="7.14488">
        <ele>703</ele>
        <time>2022-04-05T21:40:23Z</time>
      </trkpt>
      <trkpt lat="48.24695" lon="7.14498">
        <ele>695</ele>
        <time>2022-04-05T21:40:30Z</time>
      </trkpt>
      <trkpt lat="48.24681" lon="7.14498">
        <ele>694</ele>
        <time>2022-04-05T21:40:33Z</time>
      </trkpt>
      <trkpt lat="48.24667" lon="7.14491">
        <ele>694</ele>
        <time>2022-04-05T21:40:36Z</time>
      </trkpt>
      <trkpt lat="48.24657" lon="7.1448">
        <ele>694</ele>
        <time>2022-04-05T21:40:38Z</time>
      </trkpt>
      <trkpt lat="48.24652" lon="7.14471">
        <ele>694</ele>
        <time>2022-04-05T21:40:39Z</time>
      </trkpt>
      <trkpt lat="48.24647" lon="7.14453">
        <ele>696</ele>
        <time>2022-04-05T21:40:41Z</time>
      </trkpt>
      <trkpt lat="48.24646" lon="7.14431">
        <ele>699</ele>
        <time>2022-04-05T21:40:44Z</time>
      </trkpt>
      <trkpt lat="48.24655" lon="7.14346">
        <ele>710</ele>
        <time>2022-04-05T21:40:54Z</time>
      </trkpt>
      <trkpt lat="48.24664" lon="7.14238">
        <ele>723</ele>
        <time>2022-04-05T21:41:07Z</time>
      </trkpt>
      <trkpt lat="48.24661" lon="7.14196">
        <ele>727</ele>
        <time>2022-04-05T21:41:12Z</time>
      </trkpt>
      <trkpt lat="48.24621" lon="7.13978">
        <ele>739</ele>
        <time>2022-04-05T21:41:39Z</time>
      </trkpt>
      <trkpt lat="48.2461" lon="7.13931">
        <ele>741</ele>
        <time>2022-04-05T21:41:45Z</time>
      </trkpt>
      <trkpt lat="48.24602" lon="7.13913">
        <ele>741</ele>
        <time>2022-04-05T21:41:47Z</time>
      </trkpt>
      <trkpt lat="48.24489" lon="7.13726">
        <ele>758</ele>
        <time>2022-04-05T21:42:17Z</time>
      </trkpt>
      <trkpt lat="48.24477" lon="7.1371">
        <ele>759</ele>
        <time>2022-04-05T21:42:20Z</time>
      </trkpt>
      <trkpt lat="48.24427" lon="7.13663">
        <ele>759</ele>
        <time>2022-04-05T21:42:31Z</time>
      </trkpt>
      <trkpt lat="48.24405" lon="7.13638">
        <ele>760</ele>
        <time>2022-04-05T21:42:36Z</time>
      </trkpt>
      <trkpt lat="48.24388" lon="7.13612">
        <ele>761</ele>
        <time>2022-04-05T21:42:40Z</time>
      </trkpt>
      <trkpt lat="48.24379" lon="7.13594">
        <ele>762</ele>
        <time>2022-04-05T21:42:43Z</time>
      </trkpt>
      <trkpt lat="48.24373" lon="7.13577">
        <ele>763</ele>
        <time>2022-04-05T21:42:45Z</time>
      </trkpt>
      <trkpt lat="48.24367" lon="7.13555">
        <ele>763</ele>
        <time>2022-04-05T21:42:48Z</time>
      </trkpt>
      <trkpt lat="48.24365" lon="7.13534">
        <ele>765</ele>
        <time>2022-04-05T21:42:50Z</time>
      </trkpt>
      <trkpt lat="48.24367" lon="7.13458">
        <ele>774</ele>
        <time>2022-04-05T21:42:59Z</time>
      </trkpt>
      <trkpt lat="48.24365" lon="7.13433">
        <ele>776</ele>
        <time>2022-04-05T21:43:02Z</time>
      </trkpt>
      <trkpt lat="48.24361" lon="7.13409">
        <ele>777</ele>
        <time>2022-04-05T21:43:05Z</time>
      </trkpt>
      <trkpt lat="48.24354" lon="7.13386">
        <ele>776</ele>
        <time>2022-04-05T21:43:08Z</time>
      </trkpt>
      <trkpt lat="48.2434" lon="7.13328">
        <ele>777</ele>
        <time>2022-04-05T21:43:15Z</time>
      </trkpt>
      <trkpt lat="48.24333" lon="7.13278">
        <ele>775</ele>
        <time>2022-04-05T21:43:21Z</time>
      </trkpt>
      <trkpt lat="48.24332" lon="7.13235">
        <ele>774</ele>
        <time>2022-04-05T21:43:27Z</time>
      </trkpt>
      <trkpt lat="48.24334" lon="7.13215">
        <ele>772</ele>
        <time>2022-04-05T21:43:29Z</time>
      </trkpt>
      <trkpt lat="48.24339" lon="7.13194">
        <ele>770</ele>
        <time>2022-04-05T21:43:32Z</time>
      </trkpt>
      <trkpt lat="48.24347" lon="7.13178">
        <ele>769</ele>
        <time>2022-04-05T21:43:34Z</time>
      </trkpt>
      <trkpt lat="48.24361" lon="7.13162">
        <ele>767</ele>
        <time>2022-04-05T21:43:37Z</time>
      </trkpt>
      <trkpt lat="48.24377" lon="7.13152">
        <ele>765</ele>
        <time>2022-04-05T21:43:40Z</time>
      </trkpt>
      <trkpt lat="48.24495" lon="7.13103">
        <ele>760</ele>
        <time>2022-04-05T21:44:02Z</time>
      </trkpt>
      <trkpt lat="48.24529" lon="7.13084">
        <ele>757</ele>
        <time>2022-04-05T21:44:08Z</time>
      </trkpt>
      <trkpt lat="48.24564" lon="7.13055">
        <ele>751</ele>
        <time>2022-04-05T21:44:16Z</time>
      </trkpt>
      <trkpt lat="48.24625" lon="7.12998">
        <ele>742</ele>
        <time>2022-04-05T21:44:28Z</time>
      </trkpt>
      <trkpt lat="48.24665" lon="7.12952">
        <ele>737</ele>
        <time>2022-04-05T21:44:37Z</time>
      </trkpt>
      <trkpt lat="48.24723" lon="7.12895">
        <ele>734</ele>
        <time>2022-04-05T21:44:50Z</time>
      </trkpt>
      <trkpt lat="48.24883" lon="7.12751">
        <ele>715</ele>
        <time>2022-04-05T21:45:23Z</time>
      </trkpt>
      <trkpt lat="48.24907" lon="7.12737">
        <ele>715</ele>
        <time>2022-04-05T21:45:27Z</time>
      </trkpt>
      <trkpt lat="48.24922" lon="7.12735">
        <ele>715</ele>
        <time>2022-04-05T21:45:30Z</time>
      </trkpt>
      <trkpt lat="48.24942" lon="7.12742">
        <ele>713</ele>
        <time>2022-04-05T21:45:34Z</time>
      </trkpt>
      <trkpt lat="48.24995" lon="7.1278">
        <ele>713</ele>
        <time>2022-04-05T21:45:44Z</time>
      </trkpt>
      <trkpt lat="48.25026" lon="7.12798">
        <ele>710</ele>
        <time>2022-04-05T21:45:50Z</time>
      </trkpt>
      <trkpt lat="48.25057" lon="7.12803">
        <ele>704</ele>
        <time>2022-04-05T21:45:56Z</time>
      </trkpt>
      <trkpt lat="48.25096" lon="7.12804">
        <ele>695</ele>
        <time>2022-04-05T21:46:03Z</time>
      </trkpt>
      <trkpt lat="48.25131" lon="7.12817">
        <ele>691</ele>
        <time>2022-04-05T21:46:09Z</time>
      </trkpt>
      <trkpt lat="48.2514" lon="7.12822">
        <ele>691</ele>
        <time>2022-04-05T21:46:11Z</time>
      </trkpt>
      <trkpt lat="48.25151" lon="7.12833">
        <ele>691</ele>
        <time>2022-04-05T21:46:13Z</time>
      </trkpt>
      <trkpt lat="48.25192" lon="7.12882">
        <ele>692</ele>
        <time>2022-04-05T21:46:22Z</time>
      </trkpt>
      <trkpt lat="48.25252" lon="7.12927">
        <ele>689</ele>
        <time>2022-04-05T21:46:34Z</time>
      </trkpt>
      <trkpt lat="48.25259" lon="7.1293">
        <ele>687</ele>
        <time>2022-04-05T21:46:36Z</time>
      </trkpt>
      <trkpt lat="48.25265" lon="7.12926">
        <ele>684</ele>
        <time>2022-04-05T21:46:37Z</time>
      </trkpt>
      <trkpt lat="48.25269" lon="7.12916">
        <ele>681</ele>
        <time>2022-04-05T21:46:38Z</time>
      </trkpt>
      <trkpt lat="48.25269" lon="7.12908">
        <ele>679</ele>
        <time>2022-04-05T21:46:39Z</time>
      </trkpt>
      <trkpt lat="48.25266" lon="7.129">
        <ele>678</ele>
        <time>2022-04-05T21:46:40Z</time>
      </trkpt>
      <trkpt lat="48.25261" lon="7.12894">
        <ele>678</ele>
        <time>2022-04-05T21:46:41Z</time>
      </trkpt>
      <trkpt lat="48.25241" lon="7.12883">
        <ele>681</ele>
        <time>2022-04-05T21:46:45Z</time>
      </trkpt>
      <trkpt lat="48.25224" lon="7.12866">
        <ele>680</ele>
        <time>2022-04-05T21:46:49Z</time>
      </trkpt>
      <trkpt lat="48.25213" lon="7.12849">
        <ele>679</ele>
        <time>2022-04-05T21:46:52Z</time>
      </trkpt>
      <trkpt lat="48.25195" lon="7.12815">
        <ele>677</ele>
        <time>2022-04-05T21:46:57Z</time>
      </trkpt>
      <trkpt lat="48.25152" lon="7.12718">
        <ele>665</ele>
        <time>2022-04-05T21:47:10Z</time>
      </trkpt>
      <trkpt lat="48.25143" lon="7.12705">
        <ele>664</ele>
        <time>2022-04-05T21:47:13Z</time>
      </trkpt>
      <trkpt lat="48.25132" lon="7.12697">
        <ele>663</ele>
        <time>2022-04-05T21:47:15Z</time>
      </trkpt>
      <trkpt lat="48.25083" lon="7.12688">
        <ele>668</ele>
        <time>2022-04-05T21:47:24Z</time>
      </trkpt>
      <trkpt lat="48.25071" lon="7.12683">
        <ele>669</ele>
        <time>2022-04-05T21:47:26Z</time>
      </trkpt>
      <trkpt lat="48.25063" lon="7.12677">
        <ele>670</ele>
        <time>2022-04-05T21:47:27Z</time>
      </trkpt>
      <trkpt lat="48.25058" lon="7.12669">
        <ele>669</ele>
        <time>2022-04-05T21:47:29Z</time>
      </trkpt>
      <trkpt lat="48.25054" lon="7.12657">
        <ele>668</ele>
        <time>2022-04-05T21:47:30Z</time>
      </trkpt>
      <trkpt lat="48.25054" lon="7.12638">
        <ele>665</ele>
        <time>2022-04-05T21:47:33Z</time>
      </trkpt>
      <trkpt lat="48.25057" lon="7.1262">
        <ele>662</ele>
        <time>2022-04-05T21:47:35Z</time>
      </trkpt>
      <trkpt lat="48.25067" lon="7.12585">
        <ele>655</ele>
        <time>2022-04-05T21:47:39Z</time>
      </trkpt>
      <trkpt lat="48.25067" lon="7.12571">
        <ele>652</ele>
        <time>2022-04-05T21:47:41Z</time>
      </trkpt>
      <trkpt lat="48.25064" lon="7.12554">
        <ele>650</ele>
        <time>2022-04-05T21:47:43Z</time>
      </trkpt>
      <trkpt lat="48.2506" lon="7.12545">
        <ele>649</ele>
        <time>2022-04-05T21:47:44Z</time>
      </trkpt>
      <trkpt lat="48.25048" lon="7.12527">
        <ele>648</ele>
        <time>2022-04-05T21:47:47Z</time>
      </trkpt>
      <trkpt lat="48.25017" lon="7.12506">
        <ele>651</ele>
        <time>2022-04-05T21:47:53Z</time>
      </trkpt>
      <trkpt lat="48.24974" lon="7.12481">
        <ele>648</ele>
        <time>2022-04-05T21:48:02Z</time>
      </trkpt>
      <trkpt lat="48.24941" lon="7.12471">
        <ele>646</ele>
        <time>2022-04-05T21:48:08Z</time>
      </trkpt>
      <trkpt lat="48.24909" lon="7.12464">
        <ele>644</ele>
        <time>2022-04-05T21:48:13Z</time>
      </trkpt>
      <trkpt lat="48.24876" lon="7.12458">
        <ele>641</ele>
        <time>2022-04-05T21:48:19Z</time>
      </trkpt>
      <trkpt lat="48.24845" lon="7.12455">
        <ele>639</ele>
        <time>2022-04-05T21:48:25Z</time>
      </trkpt>
      <trkpt lat="48.24766" lon="7.12467">
        <ele>634</ele>
        <time>2022-04-05T21:48:39Z</time>
      </trkpt>
      <trkpt lat="48.24752" lon="7.12466">
        <ele>632</ele>
        <time>2022-04-05T21:48:41Z</time>
      </trkpt>
      <trkpt lat="48.24743" lon="7.12464">
        <ele>631</ele>
        <time>2022-04-05T21:48:43Z</time>
      </trkpt>
      <trkpt lat="48.24735" lon="7.12458">
        <ele>630</ele>
        <time>2022-04-05T21:48:45Z</time>
      </trkpt>
      <trkpt lat="48.24726" lon="7.12447">
        <ele>629</ele>
        <time>2022-04-05T21:48:47Z</time>
      </trkpt>
      <trkpt lat="48.24701" lon="7.12394">
        <ele>624</ele>
        <time>2022-04-05T21:48:54Z</time>
      </trkpt>
      <trkpt lat="48.24663" lon="7.12323">
        <ele>627</ele>
        <time>2022-04-05T21:49:05Z</time>
      </trkpt>
      <trkpt lat="48.24658" lon="7.12308">
        <ele>630</ele>
        <time>2022-04-05T21:49:07Z</time>
      </trkpt>
      <trkpt lat="48.24658" lon="7.12304">
        <ele>631</ele>
        <time>2022-04-05T21:49:08Z</time>
      </trkpt>
      <trkpt lat="48.24659" lon="7.12297">
        <ele>632</ele>
        <time>2022-04-05T21:49:09Z</time>
      </trkpt>
      <trkpt lat="48.24662" lon="7.12289">
        <ele>633</ele>
        <time>2022-04-05T21:49:10Z</time>
      </trkpt>
      <trkpt lat="48.24667" lon="7.12283">
        <ele>634</ele>
        <time>2022-04-05T21:49:11Z</time>
      </trkpt>
      <trkpt lat="48.24674" lon="7.1228">
        <ele>633</ele>
        <time>2022-04-05T21:49:12Z</time>
      </trkpt>
      <trkpt lat="48.24698" lon="7.12279">
        <ele>630</ele>
        <time>2022-04-05T21:49:16Z</time>
      </trkpt>
      <trkpt lat="48.24754" lon="7.12292">
        <ele>620</ele>
        <time>2022-04-05T21:49:26Z</time>
      </trkpt>
      <trkpt lat="48.24802" lon="7.1231">
        <ele>611</ele>
        <time>2022-04-05T21:49:35Z</time>
      </trkpt>
      <trkpt lat="48.24815" lon="7.12313">
        <ele>610</ele>
        <time>2022-04-05T21:49:38Z</time>
      </trkpt>
      <trkpt lat="48.24843" lon="7.12312">
        <ele>608</ele>
        <time>2022-04-05T21:49:43Z</time>
      </trkpt>
      <trkpt lat="48.24865" lon="7.12305">
        <ele>608</ele>
        <time>2022-04-05T21:49:47Z</time>
      </trkpt>
      <trkpt lat="48.24931" lon="7.12277">
        <ele>609</ele>
        <time>2022-04-05T21:49:59Z</time>
      </trkpt>
      <trkpt lat="48.25011" lon="7.12277">
        <ele>601</ele>
        <time>2022-04-05T21:50:13Z</time>
      </trkpt>
      <trkpt lat="48.25075" lon="7.12264">
        <ele>593</ele>
        <time>2022-04-05T21:50:24Z</time>
      </trkpt>
      <trkpt lat="48.25108" lon="7.1226">
        <ele>589</ele>
        <time>2022-04-05T21:50:30Z</time>
      </trkpt>
      <trkpt lat="48.25138" lon="7.12252">
        <ele>584</ele>
        <time>2022-04-05T21:50:36Z</time>
      </trkpt>
      <trkpt lat="48.25236" lon="7.12206">
        <ele>578</ele>
        <time>2022-04-05T21:50:54Z</time>
      </trkpt>
      <trkpt lat="48.25297" lon="7.1215">
        <ele>571</ele>
        <time>2022-04-05T21:51:07Z</time>
      </trkpt>
      <trkpt lat="48.25386" lon="7.12088">
        <ele>552</ele>
        <time>2022-04-05T21:51:24Z</time>
      </trkpt>
      <trkpt lat="48.2541" lon="7.12063">
        <ele>546</ele>
        <time>2022-04-05T21:51:29Z</time>
      </trkpt>
      <trkpt lat="48.25433" lon="7.12035">
        <ele>545</ele>
        <time>2022-04-05T21:51:35Z</time>
      </trkpt>
      <trkpt lat="48.25473" lon="7.11981">
        <ele>543</ele>
        <time>2022-04-05T21:51:44Z</time>
      </trkpt>
      <trkpt lat="48.25483" lon="7.11962">
        <ele>543</ele>
        <time>2022-04-05T21:51:47Z</time>
      </trkpt>
      <trkpt lat="48.25519" lon="7.11888">
        <ele>544</ele>
        <time>2022-04-05T21:51:58Z</time>
      </trkpt>
      <trkpt lat="48.25539" lon="7.11853">
        <ele>544</ele>
        <time>2022-04-05T21:52:03Z</time>
      </trkpt>
      <trkpt lat="48.25562" lon="7.11821">
        <ele>540</ele>
        <time>2022-04-05T21:52:09Z</time>
      </trkpt>
      <trkpt lat="48.25624" lon="7.11753">
        <ele>534</ele>
        <time>2022-04-05T21:52:23Z</time>
      </trkpt>
      <trkpt lat="48.25651" lon="7.11714">
        <ele>530</ele>
        <time>2022-04-05T21:52:29Z</time>
      </trkpt>
      <trkpt lat="48.25676" lon="7.11661">
        <ele>526</ele>
        <time>2022-04-05T21:52:37Z</time>
      </trkpt>
      <trkpt lat="48.25697" lon="7.11609">
        <ele>527</ele>
        <time>2022-04-05T21:52:44Z</time>
      </trkpt>
      <trkpt lat="48.25746" lon="7.11504">
        <ele>514</ele>
        <time>2022-04-05T21:52:59Z</time>
      </trkpt>
      <trkpt lat="48.25774" lon="7.11449">
        <ele>510</ele>
        <time>2022-04-05T21:53:08Z</time>
      </trkpt>
      <trkpt lat="48.25785" lon="7.11424">
        <ele>508</ele>
        <time>2022-04-05T21:53:11Z</time>
      </trkpt>
      <trkpt lat="48.25804" lon="7.11359">
        <ele>505</ele>
        <time>2022-04-05T21:53:20Z</time>
      </trkpt>
      <trkpt lat="48.25811" lon="7.11331">
        <ele>503</ele>
        <time>2022-04-05T21:53:23Z</time>
      </trkpt>
      <trkpt lat="48.25813" lon="7.11325">
        <ele>503</ele>
        <time>2022-04-05T21:53:24Z</time>
      </trkpt>
      <trkpt lat="48.25818" lon="7.11297">
        <ele>501</ele>
        <time>2022-04-05T21:53:27Z</time>
      </trkpt>
      <trkpt lat="48.2582" lon="7.11263">
        <ele>500</ele>
        <time>2022-04-05T21:53:31Z</time>
      </trkpt>
      <trkpt lat="48.25818" lon="7.11221">
        <ele>500</ele>
        <time>2022-04-05T21:53:36Z</time>
      </trkpt>
      <trkpt lat="48.25815" lon="7.11187">
        <ele>499</ele>
        <time>2022-04-05T21:53:40Z</time>
      </trkpt>
      <trkpt lat="48.25803" lon="7.1107">
        <ele>501</ele>
        <time>2022-04-05T21:53:54Z</time>
      </trkpt>
      <trkpt lat="48.258" lon="7.11031">
        <ele>500</ele>
        <time>2022-04-05T21:53:59Z</time>
      </trkpt>
      <trkpt lat="48.25802" lon="7.1099">
        <ele>498</ele>
        <time>2022-04-05T21:54:04Z</time>
      </trkpt>
      <trkpt lat="48.25816" lon="7.10905">
        <ele>491</ele>
        <time>2022-04-05T21:54:14Z</time>
      </trkpt>
      <trkpt lat="48.25821" lon="7.10873">
        <ele>489</ele>
        <time>2022-04-05T21:54:18Z</time>
      </trkpt>
      <trkpt lat="48.25823" lon="7.10851">
        <ele>487</ele>
        <time>2022-04-05T21:54:21Z</time>
      </trkpt>
      <trkpt lat="48.25821" lon="7.10829">
        <ele>487</ele>
        <time>2022-04-05T21:54:24Z</time>
      </trkpt>
      <trkpt lat="48.25814" lon="7.10773">
        <ele>486</ele>
        <time>2022-04-05T21:54:30Z</time>
      </trkpt>
      <trkpt lat="48.25812" lon="7.10758">
        <ele>485</ele>
        <time>2022-04-05T21:54:32Z</time>
      </trkpt>
      <trkpt lat="48.2581" lon="7.10741">
        <ele>485</ele>
        <time>2022-04-05T21:54:34Z</time>
      </trkpt>
      <trkpt lat="48.25804" lon="7.10664">
        <ele>484</ele>
        <time>2022-04-05T21:54:43Z</time>
      </trkpt>
      <trkpt lat="48.25803" lon="7.1065">
        <ele>483</ele>
        <time>2022-04-05T21:54:45Z</time>
      </trkpt>
      <trkpt lat="48.25802" lon="7.1064">
        <ele>483</ele>
        <time>2022-04-05T21:54:46Z</time>
      </trkpt>
      <trkpt lat="48.25798" lon="7.10595">
        <ele>481</ele>
        <time>2022-04-05T21:54:52Z</time>
      </trkpt>
      <trkpt lat="48.25791" lon="7.10569">
        <ele>481</ele>
        <time>2022-04-05T21:54:55Z</time>
      </trkpt>
      <trkpt lat="48.2578" lon="7.10537">
        <ele>480</ele>
        <time>2022-04-05T21:54:59Z</time>
      </trkpt>
      <trkpt lat="48.25776" lon="7.10529">
        <ele>480</ele>
        <time>2022-04-05T21:55:00Z</time>
      </trkpt>
      <trkpt lat="48.25764" lon="7.10502">
        <ele>479</ele>
        <time>2022-04-05T21:55:04Z</time>
      </trkpt>
      <trkpt lat="48.25743" lon="7.10463">
        <ele>480</ele>
        <time>2022-04-05T21:55:10Z</time>
      </trkpt>
      <trkpt lat="48.25728" lon="7.10425">
        <ele>483</ele>
        <time>2022-04-05T21:55:15Z</time>
      </trkpt>
      <trkpt lat="48.25725" lon="7.10417">
        <ele>484</ele>
        <time>2022-04-05T21:55:16Z</time>
      </trkpt>
      <trkpt lat="48.25722" lon="7.10405">
        <ele>484</ele>
        <time>2022-04-05T21:55:18Z</time>
      </trkpt>
      <trkpt lat="48.25712" lon="7.10377">
        <ele>484</ele>
        <time>2022-04-05T21:55:22Z</time>
      </trkpt>
      <trkpt lat="48.25627" lon="7.10101">
        <ele>471</ele>
        <time>2022-04-05T21:55:58Z</time>
      </trkpt>
      <trkpt lat="48.25542" lon="7.09833">
        <ele>462</ele>
        <time>2022-04-05T21:56:33Z</time>
      </trkpt>
      <trkpt lat="48.2551" lon="7.09731">
        <ele>465</ele>
        <time>2022-04-05T21:56:46Z</time>
      </trkpt>
      <trkpt lat="48.25487" lon="7.09657">
        <ele>465</ele>
        <time>2022-04-05T21:56:56Z</time>
      </trkpt>
      <trkpt lat="48.25483" lon="7.09639">
        <ele>465</ele>
        <time>2022-04-05T21:56:58Z</time>
      </trkpt>
      <trkpt lat="48.25477" lon="7.09631">
        <ele>466</ele>
        <time>2022-04-05T21:57:00Z</time>
      </trkpt>
      <trkpt lat="48.25471" lon="7.09595">
        <ele>467</ele>
        <time>2022-04-05T21:57:04Z</time>
      </trkpt>
      <trkpt lat="48.2547" lon="7.09547">
        <ele>467</ele>
        <time>2022-04-05T21:57:10Z</time>
      </trkpt>
      <trkpt lat="48.25467" lon="7.09445">
        <ele>466</ele>
        <time>2022-04-05T21:57:22Z</time>
      </trkpt>
      <trkpt lat="48.25456" lon="7.09277">
        <ele>467</ele>
        <time>2022-04-05T21:57:42Z</time>
      </trkpt>
      <trkpt lat="48.25441" lon="7.08979">
        <ele>461</ele>
        <time>2022-04-05T21:58:17Z</time>
      </trkpt>
      <trkpt lat="48.25437" lon="7.08842">
        <ele>456</ele>
        <time>2022-04-05T21:58:33Z</time>
      </trkpt>
      <trkpt lat="48.25436" lon="7.08774">
        <ele>452</ele>
        <time>2022-04-05T21:58:41Z</time>
      </trkpt>
      <trkpt lat="48.25434" lon="7.08756">
        <ele>451</ele>
        <time>2022-04-05T21:58:44Z</time>
      </trkpt>
      <trkpt lat="48.25429" lon="7.08735">
        <ele>450</ele>
        <time>2022-04-05T21:58:46Z</time>
      </trkpt>
      <trkpt lat="48.25383" lon="7.08604">
        <ele>444</ele>
        <time>2022-04-05T21:59:04Z</time>
      </trkpt>
      <trkpt lat="48.25374" lon="7.08581">
        <ele>443</ele>
        <time>2022-04-05T21:59:07Z</time>
      </trkpt>
      <trkpt lat="48.25381" lon="7.08566">
        <ele>442</ele>
        <time>2022-04-05T21:59:09Z</time>
      </trkpt>
      <trkpt lat="48.25395" lon="7.08525">
        <ele>440</ele>
        <time>2022-04-05T21:59:15Z</time>
      </trkpt>
      <trkpt lat="48.25399" lon="7.08521">
        <ele>440</ele>
        <time>2022-04-05T21:59:15Z</time>
      </trkpt>
      <trkpt lat="48.25403" lon="7.08521">
        <ele>439</ele>
        <time>2022-04-05T21:59:16Z</time>
      </trkpt>
      <trkpt lat="48.25403" lon="7.08495">
        <ele>439</ele>
        <time>2022-04-05T21:59:19Z</time>
      </trkpt>
      <trkpt lat="48.25404" lon="7.08484">
        <ele>438</ele>
        <time>2022-04-05T21:59:21Z</time>
      </trkpt>
      <trkpt lat="48.25405" lon="7.08464">
        <ele>438</ele>
        <time>2022-04-05T21:59:23Z</time>
      </trkpt>
      <trkpt lat="48.25404" lon="7.0844">
        <ele>438</ele>
        <time>2022-04-05T21:59:26Z</time>
      </trkpt>
      <trkpt lat="48.25401" lon="7.08411">
        <ele>438</ele>
        <time>2022-04-05T21:59:29Z</time>
      </trkpt>
      <trkpt lat="48.25382" lon="7.08294">
        <ele>434</ele>
        <time>2022-04-05T21:59:44Z</time>
      </trkpt>
      <trkpt lat="48.2537" lon="7.08215">
        <ele>432</ele>
        <time>2022-04-05T21:59:53Z</time>
      </trkpt>
      <trkpt lat="48.25357" lon="7.08138">
        <ele>431</ele>
        <time>2022-04-05T22:00:03Z</time>
      </trkpt>
      <trkpt lat="48.25331" lon="7.07975">
        <ele>427</ele>
        <time>2022-04-05T22:00:22Z</time>
      </trkpt>
      <trkpt lat="48.25311" lon="7.07853">
        <ele>424</ele>
        <time>2022-04-05T22:00:37Z</time>
      </trkpt>
      <trkpt lat="48.25307" lon="7.07826">
        <ele>424</ele>
        <time>2022-04-05T22:00:41Z</time>
      </trkpt>
      <trkpt lat="48.25268" lon="7.07582">
        <ele>421</ele>
        <time>2022-04-05T22:01:10Z</time>
      </trkpt>
      <trkpt lat="48.25267" lon="7.07571">
        <ele>422</ele>
        <time>2022-04-05T22:01:12Z</time>
      </trkpt>
      <trkpt lat="48.25223" lon="7.07301">
        <ele>425</ele>
        <time>2022-04-05T22:01:45Z</time>
      </trkpt>
      <trkpt lat="48.2519" lon="7.07072">
        <ele>429</ele>
        <time>2022-04-05T22:02:12Z</time>
      </trkpt>
      <trkpt lat="48.25185" lon="7.07025">
        <ele>429</ele>
        <time>2022-04-05T22:02:18Z</time>
      </trkpt>
      <trkpt lat="48.25182" lon="7.06978">
        <ele>428</ele>
        <time>2022-04-05T22:02:24Z</time>
      </trkpt>
      <trkpt lat="48.25182" lon="7.06923">
        <ele>427</ele>
        <time>2022-04-05T22:02:30Z</time>
      </trkpt>
      <trkpt lat="48.25184" lon="7.06869">
        <ele>428</ele>
        <time>2022-04-05T22:02:36Z</time>
      </trkpt>
      <trkpt lat="48.25197" lon="7.06724">
        <ele>424</ele>
        <time>2022-04-05T22:02:54Z</time>
      </trkpt>
      <trkpt lat="48.25208" lon="7.06652">
        <ele>418</ele>
        <time>2022-04-05T22:03:03Z</time>
      </trkpt>
      <trkpt lat="48.25223" lon="7.06578">
        <ele>412</ele>
        <time>2022-04-05T22:03:12Z</time>
      </trkpt>
      <trkpt lat="48.25253" lon="7.06432">
        <ele>407</ele>
        <time>2022-04-05T22:03:30Z</time>
      </trkpt>
      <trkpt lat="48.25262" lon="7.06439">
        <ele>407</ele>
        <time>2022-04-05T22:03:32Z</time>
      </trkpt>
      <trkpt lat="48.25282" lon="7.06446">
        <ele>408</ele>
        <time>2022-04-05T22:03:35Z</time>
      </trkpt>
      <trkpt lat="48.25306" lon="7.06448">
        <ele>408</ele>
        <time>2022-04-05T22:03:40Z</time>
      </trkpt>
      <trkpt lat="48.25334" lon="7.06448">
        <ele>409</ele>
        <time>2022-04-05T22:03:45Z</time>
      </trkpt>
      <trkpt lat="48.25519" lon="7.06385">
        <ele>408</ele>
        <time>2022-04-05T22:04:18Z</time>
      </trkpt>
      <trkpt lat="48.25529" lon="7.06379">
        <ele>408</ele>
        <time>2022-04-05T22:04:20Z</time>
      </trkpt>
      <trkpt lat="48.25561" lon="7.06354">
        <ele>407</ele>
        <time>2022-04-05T22:04:27Z</time>
      </trkpt>
      <trkpt lat="48.25594" lon="7.06325">
        <ele>407</ele>
        <time>2022-04-05T22:04:33Z</time>
      </trkpt>
      <trkpt lat="48.25617" lon="7.06305">
        <ele>407</ele>
        <time>2022-04-05T22:04:38Z</time>
      </trkpt>
      <trkpt lat="48.25709" lon="7.06224">
        <ele>404</ele>
        <time>2022-04-05T22:04:57Z</time>
      </trkpt>
      <trkpt lat="48.25793" lon="7.06153">
        <ele>401</ele>
        <time>2022-04-05T22:05:14Z</time>
      </trkpt>
      <trkpt lat="48.25866" lon="7.06081">
        <ele>400</ele>
        <time>2022-04-05T22:05:30Z</time>
      </trkpt>
      <trkpt lat="48.25918" lon="7.06026">
        <ele>401</ele>
        <time>2022-04-05T22:05:41Z</time>
      </trkpt>
      <trkpt lat="48.25934" lon="7.06012">
        <ele>399</ele>
        <time>2022-04-05T22:05:44Z</time>
      </trkpt>
      <trkpt lat="48.25963" lon="7.06">
        <ele>397</ele>
        <time>2022-04-05T22:05:50Z</time>
      </trkpt>
      <trkpt lat="48.25992" lon="7.05994">
        <ele>396</ele>
        <time>2022-04-05T22:05:55Z</time>
      </trkpt>
      <trkpt lat="48.26038" lon="7.05989">
        <ele>397</ele>
        <time>2022-04-05T22:06:03Z</time>
      </trkpt>
      <trkpt lat="48.26085" lon="7.05992">
        <ele>398</ele>
        <time>2022-04-05T22:06:12Z</time>
      </trkpt>
      <trkpt lat="48.26117" lon="7.06004">
        <ele>399</ele>
        <time>2022-04-05T22:06:17Z</time>
      </trkpt>
      <trkpt lat="48.26152" lon="7.06023">
        <ele>400</ele>
        <time>2022-04-05T22:06:24Z</time>
      </trkpt>
      <trkpt lat="48.26202" lon="7.06027">
        <ele>401</ele>
        <time>2022-04-05T22:06:33Z</time>
      </trkpt>
      <trkpt lat="48.26243" lon="7.06025">
        <ele>401</ele>
        <time>2022-04-05T22:06:40Z</time>
      </trkpt>
      <trkpt lat="48.2629" lon="7.06006">
        <ele>402</ele>
        <time>2022-04-05T22:06:49Z</time>
      </trkpt>
      <trkpt lat="48.263" lon="7.05998">
        <ele>402</ele>
        <time>2022-04-05T22:06:51Z</time>
      </trkpt>
      <trkpt lat="48.26314" lon="7.05987">
        <ele>403</ele>
        <time>2022-04-05T22:06:54Z</time>
      </trkpt>
      <trkpt lat="48.26395" lon="7.05894">
        <ele>400</ele>
        <time>2022-04-05T22:07:12Z</time>
      </trkpt>
      <trkpt lat="48.26475" lon="7.05793">
        <ele>398</ele>
        <time>2022-04-05T22:07:31Z</time>
      </trkpt>
      <trkpt lat="48.26492" lon="7.05779">
        <ele>398</ele>
        <time>2022-04-05T22:07:34Z</time>
      </trkpt>
      <trkpt lat="48.26532" lon="7.05753">
        <ele>398</ele>
        <time>2022-04-05T22:07:42Z</time>
      </trkpt>
      <trkpt lat="48.26559" lon="7.05734">
        <ele>398</ele>
        <time>2022-04-05T22:07:47Z</time>
      </trkpt>
      <trkpt lat="48.26613" lon="7.05697">
        <ele>399</ele>
        <time>2022-04-05T22:07:58Z</time>
      </trkpt>
      <trkpt lat="48.26689" lon="7.05643">
        <ele>400</ele>
        <time>2022-04-05T22:08:13Z</time>
      </trkpt>
      <trkpt lat="48.26788" lon="7.05549">
        <ele>401</ele>
        <time>2022-04-05T22:08:33Z</time>
      </trkpt>
      <trkpt lat="48.2683" lon="7.05522">
        <ele>403</ele>
        <time>2022-04-05T22:08:42Z</time>
      </trkpt>
      <trkpt lat="48.26877" lon="7.05498">
        <ele>403</ele>
        <time>2022-04-05T22:08:50Z</time>
      </trkpt>
      <trkpt lat="48.26946" lon="7.05455">
        <ele>403</ele>
        <time>2022-04-05T22:09:04Z</time>
      </trkpt>
      <trkpt lat="48.26992" lon="7.05423">
        <ele>405</ele>
        <time>2022-04-05T22:09:13Z</time>
      </trkpt>
      <trkpt lat="48.27013" lon="7.05413">
        <ele>405</ele>
        <time>2022-04-05T22:09:17Z</time>
      </trkpt>
      <trkpt lat="48.2705" lon="7.05401">
        <ele>404</ele>
        <time>2022-04-05T22:09:23Z</time>
      </trkpt>
      <trkpt lat="48.27058" lon="7.05396">
        <ele>404</ele>
        <time>2022-04-05T22:09:25Z</time>
      </trkpt>
      <trkpt lat="48.27066" lon="7.05387">
        <ele>404</ele>
        <time>2022-04-05T22:09:27Z</time>
      </trkpt>
      <trkpt lat="48.27071" lon="7.05376">
        <ele>404</ele>
        <time>2022-04-05T22:09:28Z</time>
      </trkpt>
      <trkpt lat="48.27072" lon="7.05362">
        <ele>403</ele>
        <time>2022-04-05T22:09:30Z</time>
      </trkpt>
      <trkpt lat="48.27071" lon="7.05295">
        <ele>401</ele>
        <time>2022-04-05T22:09:38Z</time>
      </trkpt>
      <trkpt lat="48.27073" lon="7.05284">
        <ele>401</ele>
        <time>2022-04-05T22:09:39Z</time>
      </trkpt>
      <trkpt lat="48.27077" lon="7.05273">
        <ele>401</ele>
        <time>2022-04-05T22:09:41Z</time>
      </trkpt>
      <trkpt lat="48.27083" lon="7.05265">
        <ele>401</ele>
        <time>2022-04-05T22:09:42Z</time>
      </trkpt>
      <trkpt lat="48.27092" lon="7.05258">
        <ele>400</ele>
        <time>2022-04-05T22:09:44Z</time>
      </trkpt>
      <trkpt lat="48.27154" lon="7.05228">
        <ele>395</ele>
        <time>2022-04-05T22:09:55Z</time>
      </trkpt>
      <trkpt lat="48.27173" lon="7.05221">
        <ele>393</ele>
        <time>2022-04-05T22:09:59Z</time>
      </trkpt>
      <trkpt lat="48.27187" lon="7.05223">
        <ele>392</ele>
        <time>2022-04-05T22:10:01Z</time>
      </trkpt>
      <trkpt lat="48.27207" lon="7.05235">
        <ele>391</ele>
        <time>2022-04-05T22:10:05Z</time>
      </trkpt>
      <trkpt lat="48.27232" lon="7.05259">
        <ele>390</ele>
        <time>2022-04-05T22:10:11Z</time>
      </trkpt>
      <trkpt lat="48.27239" lon="7.05264">
        <ele>390</ele>
        <time>2022-04-05T22:10:12Z</time>
      </trkpt>
      <trkpt lat="48.27244" lon="7.05265">
        <ele>389</ele>
        <time>2022-04-05T22:10:13Z</time>
      </trkpt>
      <trkpt lat="48.27252" lon="7.05264">
        <ele>389</ele>
        <time>2022-04-05T22:10:14Z</time>
      </trkpt>
      <trkpt lat="48.27258" lon="7.05261">
        <ele>388</ele>
        <time>2022-04-05T22:10:15Z</time>
      </trkpt>
      <trkpt lat="48.27263" lon="7.05257">
        <ele>387</ele>
        <time>2022-04-05T22:10:16Z</time>
      </trkpt>
      <trkpt lat="48.27273" lon="7.05246">
        <ele>386</ele>
        <time>2022-04-05T22:10:19Z</time>
      </trkpt>
      <trkpt lat="48.27302" lon="7.05207">
        <ele>384</ele>
        <time>2022-04-05T22:10:26Z</time>
      </trkpt>
      <trkpt lat="48.27304" lon="7.05205">
        <ele>384</ele>
        <time>2022-04-05T22:10:26Z</time>
      </trkpt>
      <trkpt lat="48.27307" lon="7.05202">
        <ele>383</ele>
        <time>2022-04-05T22:10:27Z</time>
      </trkpt>
      <trkpt lat="48.27311" lon="7.05201">
        <ele>383</ele>
        <time>2022-04-05T22:10:27Z</time>
      </trkpt>
      <trkpt lat="48.27311" lon="7.05195">
        <ele>383</ele>
        <time>2022-04-05T22:10:28Z</time>
      </trkpt>
      <trkpt lat="48.27304" lon="7.05178">
        <ele>383</ele>
        <time>2022-04-05T22:10:30Z</time>
      </trkpt>
      <trkpt lat="48.27219" lon="7.05033">
        <ele>379</ele>
        <time>2022-04-05T22:10:53Z</time>
      </trkpt>
      <trkpt lat="48.27212" lon="7.05017">
        <ele>379</ele>
        <time>2022-04-05T22:10:56Z</time>
      </trkpt>
      <trkpt lat="48.27208" lon="7.05003">
        <ele>379</ele>
        <time>2022-04-05T22:10:57Z</time>
      </trkpt>
      <trkpt lat="48.27207" lon="7.04991">
        <ele>378</ele>
        <time>2022-04-05T22:10:59Z</time>
      </trkpt>
      <trkpt lat="48.27209" lon="7.04979">
        <ele>378</ele>
        <time>2022-04-05T22:11:00Z</time>
      </trkpt>
      <trkpt lat="48.27214" lon="7.04964">
        <ele>378</ele>
        <time>2022-04-05T22:11:02Z</time>
      </trkpt>
      <trkpt lat="48.27235" lon="7.04925">
        <ele>377</ele>
        <time>2022-04-05T22:11:08Z</time>
      </trkpt>
      <trkpt lat="48.27271" lon="7.04858">
        <ele>376</ele>
        <time>2022-04-05T22:11:18Z</time>
      </trkpt>
      <trkpt lat="48.2729" lon="7.04819">
        <ele>376</ele>
        <time>2022-04-05T22:11:24Z</time>
      </trkpt>
      <trkpt lat="48.2733" lon="7.0475">
        <ele>375</ele>
        <time>2022-04-05T22:11:35Z</time>
      </trkpt>
      <trkpt lat="48.27442" lon="7.04578">
        <ele>374</ele>
        <time>2022-04-05T22:12:03Z</time>
      </trkpt>
      <trkpt lat="48.27495" lon="7.045">
        <ele>373</ele>
        <time>2022-04-05T22:12:17Z</time>
      </trkpt>
      <trkpt lat="48.27561" lon="7.04411">
        <ele>371</ele>
        <time>2022-04-05T22:12:32Z</time>
      </trkpt>
      <trkpt lat="48.27591" lon="7.04369">
        <ele>372</ele>
        <time>2022-04-05T22:12:40Z</time>
      </trkpt>
      <trkpt lat="48.27622" lon="7.04326">
        <ele>372</ele>
        <time>2022-04-05T22:12:47Z</time>
      </trkpt>
      <trkpt lat="48.27629" lon="7.04315">
        <ele>372</ele>
        <time>2022-04-05T22:12:49Z</time>
      </trkpt>
      <trkpt lat="48.27631" lon="7.04311">
        <ele>372</ele>
        <time>2022-04-05T22:12:50Z</time>
      </trkpt>
      <trkpt lat="48.27637" lon="7.04296">
        <ele>372</ele>
        <time>2022-04-05T22:12:52Z</time>
      </trkpt>
      <trkpt lat="48.27639" lon="7.04281">
        <ele>371</ele>
        <time>2022-04-05T22:12:53Z</time>
      </trkpt>
      <trkpt lat="48.27637" lon="7.04206">
        <ele>370</ele>
        <time>2022-04-05T22:13:02Z</time>
      </trkpt>
      <trkpt lat="48.2764" lon="7.04171">
        <ele>370</ele>
        <time>2022-04-05T22:13:07Z</time>
      </trkpt>
      <trkpt lat="48.27645" lon="7.04134">
        <ele>370</ele>
        <time>2022-04-05T22:13:11Z</time>
      </trkpt>
      <trkpt lat="48.27652" lon="7.04101">
        <ele>371</ele>
        <time>2022-04-05T22:13:15Z</time>
      </trkpt>
      <trkpt lat="48.27658" lon="7.04083">
        <ele>371</ele>
        <time>2022-04-05T22:13:18Z</time>
      </trkpt>
      <trkpt lat="48.27669" lon="7.0406">
        <ele>371</ele>
        <time>2022-04-05T22:13:21Z</time>
      </trkpt>
      <trkpt lat="48.27683" lon="7.04024">
        <ele>371</ele>
        <time>2022-04-05T22:13:26Z</time>
      </trkpt>
      <trkpt lat="48.2775" lon="7.03884">
        <ele>371</ele>
        <time>2022-04-05T22:13:46Z</time>
      </trkpt>
      <trkpt lat="48.27753" lon="7.03871">
        <ele>371</ele>
        <time>2022-04-05T22:13:48Z</time>
      </trkpt>
      <trkpt lat="48.27769" lon="7.03865">
        <ele>371</ele>
        <time>2022-04-05T22:13:51Z</time>
      </trkpt>
      <trkpt lat="48.27777" lon="7.03858">
        <ele>371</ele>
        <time>2022-04-05T22:13:52Z</time>
      </trkpt>
      <trkpt lat="48.27784" lon="7.03853">
        <ele>371</ele>
        <time>2022-04-05T22:13:54Z</time>
      </trkpt>
      <trkpt lat="48.27795" lon="7.03844">
        <ele>371</ele>
        <time>2022-04-05T22:13:56Z</time>
      </trkpt>
      <trkpt lat="48.27822" lon="7.03832">
        <ele>372</ele>
        <time>2022-04-05T22:14:01Z</time>
      </trkpt>
      <trkpt lat="48.27861" lon="7.03819">
        <ele>372</ele>
        <time>2022-04-05T22:14:08Z</time>
      </trkpt>
      <trkpt lat="48.27863" lon="7.03817">
        <ele>372</ele>
        <time>2022-04-05T22:14:09Z</time>
      </trkpt>
      <trkpt lat="48.2785" lon="7.03775">
        <ele>372</ele>
        <time>2022-04-05T22:14:14Z</time>
      </trkpt>
      <trkpt lat="48.27864" lon="7.03748">
        <ele>372</ele>
        <time>2022-04-05T22:14:18Z</time>
      </trkpt>
      <trkpt lat="48.27866" lon="7.0373">
        <ele>373</ele>
        <time>2022-04-05T22:14:20Z</time>
      </trkpt>
      <trkpt lat="48.27864" lon="7.03696">
        <ele>373</ele>
        <time>2022-04-05T22:14:24Z</time>
      </trkpt>
      <trkpt lat="48.27855" lon="7.03581">
        <ele>378</ele>
        <time>2022-04-05T22:14:38Z</time>
      </trkpt>
      <trkpt lat="48.27857" lon="7.03561">
        <ele>380</ele>
        <time>2022-04-05T22:14:40Z</time>
      </trkpt>
      <trkpt lat="48.2788" lon="7.03463">
        <ele>384</ele>
        <time>2022-04-05T22:14:53Z</time>
      </trkpt>
      <trkpt lat="48.27885" lon="7.03435">
        <ele>385</ele>
        <time>2022-04-05T22:14:56Z</time>
      </trkpt>
      <trkpt lat="48.27888" lon="7.03377">
        <ele>387</ele>
        <time>2022-04-05T22:15:03Z</time>
      </trkpt>
      <trkpt lat="48.27892" lon="7.03344">
        <ele>387</ele>
        <time>2022-04-05T22:15:07Z</time>
      </trkpt>
      <trkpt lat="48.2791" lon="7.03281">
        <ele>391</ele>
        <time>2022-04-05T22:15:15Z</time>
      </trkpt>
      <trkpt lat="48.27944" lon="7.03175">
        <ele>393</ele>
        <time>2022-04-05T22:15:29Z</time>
      </trkpt>
      <trkpt lat="48.27944" lon="7.03148">
        <ele>395</ele>
        <time>2022-04-05T22:15:32Z</time>
      </trkpt>
      <trkpt lat="48.2794" lon="7.03125">
        <ele>396</ele>
        <time>2022-04-05T22:15:35Z</time>
      </trkpt>
      <trkpt lat="48.27919" lon="7.0304">
        <ele>404</ele>
        <time>2022-04-05T22:15:46Z</time>
      </trkpt>
      <trkpt lat="48.27903" lon="7.02957">
        <ele>410</ele>
        <time>2022-04-05T22:15:56Z</time>
      </trkpt>
      <trkpt lat="48.279" lon="7.02935">
        <ele>411</ele>
        <time>2022-04-05T22:15:59Z</time>
      </trkpt>
      <trkpt lat="48.27902" lon="7.02916">
        <ele>411</ele>
        <time>2022-04-05T22:16:01Z</time>
      </trkpt>
      <trkpt lat="48.27909" lon="7.02897">
        <ele>412</ele>
        <time>2022-04-05T22:16:04Z</time>
      </trkpt>
      <trkpt lat="48.27929" lon="7.02867">
        <ele>413</ele>
        <time>2022-04-05T22:16:09Z</time>
      </trkpt>
      <trkpt lat="48.27942" lon="7.02852">
        <ele>412</ele>
        <time>2022-04-05T22:16:12Z</time>
      </trkpt>
      <trkpt lat="48.27978" lon="7.02836">
        <ele>411</ele>
        <time>2022-04-05T22:16:18Z</time>
      </trkpt>
      <trkpt lat="48.27989" lon="7.02824">
        <ele>411</ele>
        <time>2022-04-05T22:16:21Z</time>
      </trkpt>
      <trkpt lat="48.28015" lon="7.02783">
        <ele>412</ele>
        <time>2022-04-05T22:16:27Z</time>
      </trkpt>
      <trkpt lat="48.2803" lon="7.02762">
        <ele>413</ele>
        <time>2022-04-05T22:16:31Z</time>
      </trkpt>
      <trkpt lat="48.28126" lon="7.02665">
        <ele>418</ele>
        <time>2022-04-05T22:16:52Z</time>
      </trkpt>
      <trkpt lat="48.28143" lon="7.02654">
        <ele>419</ele>
        <time>2022-04-05T22:16:55Z</time>
      </trkpt>
      <trkpt lat="48.28176" lon="7.02649">
        <ele>419</ele>
        <time>2022-04-05T22:17:01Z</time>
      </trkpt>
      <trkpt lat="48.28204" lon="7.02652">
        <ele>420</ele>
        <time>2022-04-05T22:17:06Z</time>
      </trkpt>
      <trkpt lat="48.28294" lon="7.02685">
        <ele>423</ele>
        <time>2022-04-05T22:17:22Z</time>
      </trkpt>
      <trkpt lat="48.28305" lon="7.02684">
        <ele>424</ele>
        <time>2022-04-05T22:17:24Z</time>
      </trkpt>
      <trkpt lat="48.28316" lon="7.02675">
        <ele>426</ele>
        <time>2022-04-05T22:17:26Z</time>
      </trkpt>
      <trkpt lat="48.28323" lon="7.02663">
        <ele>427</ele>
        <time>2022-04-05T22:17:28Z</time>
      </trkpt>
      <trkpt lat="48.28335" lon="7.02602">
        <ele>430</ele>
        <time>2022-04-05T22:17:36Z</time>
      </trkpt>
      <trkpt lat="48.2834" lon="7.02564">
        <ele>432</ele>
        <time>2022-04-05T22:17:40Z</time>
      </trkpt>
      <trkpt lat="48.28343" lon="7.02501">
        <ele>436</ele>
        <time>2022-04-05T22:17:48Z</time>
      </trkpt>
      <trkpt lat="48.28346" lon="7.02471">
        <ele>436</ele>
        <time>2022-04-05T22:17:51Z</time>
      </trkpt>
      <trkpt lat="48.28354" lon="7.02455">
        <ele>437</ele>
        <time>2022-04-05T22:17:54Z</time>
      </trkpt>
      <trkpt lat="48.28368" lon="7.02447">
        <ele>438</ele>
        <time>2022-04-05T22:17:57Z</time>
      </trkpt>
      <trkpt lat="48.28412" lon="7.02448">
        <ele>439</ele>
        <time>2022-04-05T22:18:04Z</time>
      </trkpt>
      <trkpt lat="48.2844" lon="7.02445">
        <ele>440</ele>
        <time>2022-04-05T22:18:09Z</time>
      </trkpt>
      <trkpt lat="48.28469" lon="7.02441">
        <ele>440</ele>
        <time>2022-04-05T22:18:15Z</time>
      </trkpt>
      <trkpt lat="48.28524" lon="7.02422">
        <ele>440</ele>
        <time>2022-04-05T22:18:25Z</time>
      </trkpt>
      <trkpt lat="48.28577" lon="7.02397">
        <ele>440</ele>
        <time>2022-04-05T22:18:34Z</time>
      </trkpt>
      <trkpt lat="48.28631" lon="7.02382">
        <ele>444</ele>
        <time>2022-04-05T22:18:44Z</time>
      </trkpt>
      <trkpt lat="48.28692" lon="7.02369">
        <ele>448</ele>
        <time>2022-04-05T22:18:55Z</time>
      </trkpt>
      <trkpt lat="48.28727" lon="7.02366">
        <ele>450</ele>
        <time>2022-04-05T22:19:01Z</time>
      </trkpt>
      <trkpt lat="48.28763" lon="7.02373">
        <ele>452</ele>
        <time>2022-04-05T22:19:08Z</time>
      </trkpt>
      <trkpt lat="48.28788" lon="7.02382">
        <ele>453</ele>
        <time>2022-04-05T22:19:12Z</time>
      </trkpt>
      <trkpt lat="48.28803" lon="7.02396">
        <ele>454</ele>
        <time>2022-04-05T22:19:16Z</time>
      </trkpt>
      <trkpt lat="48.28835" lon="7.02437">
        <ele>456</ele>
        <time>2022-04-05T22:19:23Z</time>
      </trkpt>
      <trkpt lat="48.28846" lon="7.02446">
        <ele>455</ele>
        <time>2022-04-05T22:19:25Z</time>
      </trkpt>
      <trkpt lat="48.28853" lon="7.02449">
        <ele>455</ele>
        <time>2022-04-05T22:19:27Z</time>
      </trkpt>
      <trkpt lat="48.2886" lon="7.02452">
        <ele>455</ele>
        <time>2022-04-05T22:19:28Z</time>
      </trkpt>
      <trkpt lat="48.28955" lon="7.02464">
        <ele>454</ele>
        <time>2022-04-05T22:19:45Z</time>
      </trkpt>
      <trkpt lat="48.28995" lon="7.02462">
        <ele>455</ele>
        <time>2022-04-05T22:19:52Z</time>
      </trkpt>
      <trkpt lat="48.29067" lon="7.02455">
        <ele>459</ele>
        <time>2022-04-05T22:20:05Z</time>
      </trkpt>
      <trkpt lat="48.2909" lon="7.02459">
        <ele>461</ele>
        <time>2022-04-05T22:20:09Z</time>
      </trkpt>
      <trkpt lat="48.29109" lon="7.02466">
        <ele>462</ele>
        <time>2022-04-05T22:20:12Z</time>
      </trkpt>
      <trkpt lat="48.29124" lon="7.02482">
        <ele>463</ele>
        <time>2022-04-05T22:20:16Z</time>
      </trkpt>
      <trkpt lat="48.29151" lon="7.02518">
        <ele>465</ele>
        <time>2022-04-05T22:20:22Z</time>
      </trkpt>
      <trkpt lat="48.29229" lon="7.02598">
        <ele>465</ele>
        <time>2022-04-05T22:20:39Z</time>
      </trkpt>
      <trkpt lat="48.29242" lon="7.02604">
        <ele>466</ele>
        <time>2022-04-05T22:20:41Z</time>
      </trkpt>
      <trkpt lat="48.29307" lon="7.02608">
        <ele>463</ele>
        <time>2022-04-05T22:20:53Z</time>
      </trkpt>
      <trkpt lat="48.29326" lon="7.02615">
        <ele>462</ele>
        <time>2022-04-05T22:20:56Z</time>
      </trkpt>
      <trkpt lat="48.29402" lon="7.02668">
        <ele>460</ele>
        <time>2022-04-05T22:21:11Z</time>
      </trkpt>
      <trkpt lat="48.29418" lon="7.02674">
        <ele>459</ele>
        <time>2022-04-05T22:21:14Z</time>
      </trkpt>
      <trkpt lat="48.29435" lon="7.02676">
        <ele>460</ele>
        <time>2022-04-05T22:21:17Z</time>
      </trkpt>
      <trkpt lat="48.2945" lon="7.02674">
        <ele>461</ele>
        <time>2022-04-05T22:21:20Z</time>
      </trkpt>
      <trkpt lat="48.29472" lon="7.02663">
        <ele>462</ele>
        <time>2022-04-05T22:21:24Z</time>
      </trkpt>
      <trkpt lat="48.29503" lon="7.02639">
        <ele>463</ele>
        <time>2022-04-05T22:21:30Z</time>
      </trkpt>
      <trkpt lat="48.29589" lon="7.02561">
        <ele>468</ele>
        <time>2022-04-05T22:21:48Z</time>
      </trkpt>
      <trkpt lat="48.29601" lon="7.02555">
        <ele>468</ele>
        <time>2022-04-05T22:21:50Z</time>
      </trkpt>
      <trkpt lat="48.29695" lon="7.02542">
        <ele>472</ele>
        <time>2022-04-05T22:22:07Z</time>
      </trkpt>
      <trkpt lat="48.29763" lon="7.02536">
        <ele>478</ele>
        <time>2022-04-05T22:22:19Z</time>
      </trkpt>
      <trkpt lat="48.29773" lon="7.02534">
        <ele>479</ele>
        <time>2022-04-05T22:22:21Z</time>
      </trkpt>
      <trkpt lat="48.29778" lon="7.02525">
        <ele>481</ele>
        <time>2022-04-05T22:22:22Z</time>
      </trkpt>
      <trkpt lat="48.2978" lon="7.02515">
        <ele>481</ele>
        <time>2022-04-05T22:22:24Z</time>
      </trkpt>
      <trkpt lat="48.29776" lon="7.02498">
        <ele>481</ele>
        <time>2022-04-05T22:22:26Z</time>
      </trkpt>
      <trkpt lat="48.29738" lon="7.02407">
        <ele>476</ele>
        <time>2022-04-05T22:22:39Z</time>
      </trkpt>
      <trkpt lat="48.29733" lon="7.02384">
        <ele>475</ele>
        <time>2022-04-05T22:22:41Z</time>
      </trkpt>
      <trkpt lat="48.29723" lon="7.02295">
        <ele>474</ele>
        <time>2022-04-05T22:22:52Z</time>
      </trkpt>
      <trkpt lat="48.29707" lon="7.02176">
        <ele>474</ele>
        <time>2022-04-05T22:23:07Z</time>
      </trkpt>
      <trkpt lat="48.29694" lon="7.02105">
        <ele>473</ele>
        <time>2022-04-05T22:23:15Z</time>
      </trkpt>
      <trkpt lat="48.29686" lon="7.0204">
        <ele>475</ele>
        <time>2022-04-05T22:23:23Z</time>
      </trkpt>
      <trkpt lat="48.29678" lon="7.02017">
        <ele>474</ele>
        <time>2022-04-05T22:23:26Z</time>
      </trkpt>
      <trkpt lat="48.29633" lon="7.0195">
        <ele>472</ele>
        <time>2022-04-05T22:23:37Z</time>
      </trkpt>
      <trkpt lat="48.29624" lon="7.01936">
        <ele>472</ele>
        <time>2022-04-05T22:23:40Z</time>
      </trkpt>
      <trkpt lat="48.29612" lon="7.01929">
        <ele>471</ele>
        <time>2022-04-05T22:23:42Z</time>
      </trkpt>
      <trkpt lat="48.29578" lon="7.01918">
        <ele>470</ele>
        <time>2022-04-05T22:23:48Z</time>
      </trkpt>
      <trkpt lat="48.29559" lon="7.01909">
        <ele>468</ele>
        <time>2022-04-05T22:23:52Z</time>
      </trkpt>
      <trkpt lat="48.29489" lon="7.01861">
        <ele>465</ele>
        <time>2022-04-05T22:24:05Z</time>
      </trkpt>
      <trkpt lat="48.2947" lon="7.0184">
        <ele>464</ele>
        <time>2022-04-05T22:24:10Z</time>
      </trkpt>
      <trkpt lat="48.29411" lon="7.01755">
        <ele>461</ele>
        <time>2022-04-05T22:24:24Z</time>
      </trkpt>
      <trkpt lat="48.29408" lon="7.0175">
        <ele>460</ele>
        <time>2022-04-05T22:24:25Z</time>
      </trkpt>
      <trkpt lat="48.29392" lon="7.01724">
        <ele>458</ele>
        <time>2022-04-05T22:24:29Z</time>
      </trkpt>
      <trkpt lat="48.29389" lon="7.01709">
        <ele>458</ele>
        <time>2022-04-05T22:24:31Z</time>
      </trkpt>
      <trkpt lat="48.29391" lon="7.01693">
        <ele>457</ele>
        <time>2022-04-05T22:24:33Z</time>
      </trkpt>
      <trkpt lat="48.29399" lon="7.01679">
        <ele>457</ele>
        <time>2022-04-05T22:24:35Z</time>
      </trkpt>
      <trkpt lat="48.29436" lon="7.01657">
        <ele>455</ele>
        <time>2022-04-05T22:24:42Z</time>
      </trkpt>
      <trkpt lat="48.29459" lon="7.01648">
        <ele>455</ele>
        <time>2022-04-05T22:24:46Z</time>
      </trkpt>
      <trkpt lat="48.29471" lon="7.01649">
        <ele>455</ele>
        <time>2022-04-05T22:24:49Z</time>
      </trkpt>
      <trkpt lat="48.29531" lon="7.01688">
        <ele>458</ele>
        <time>2022-04-05T22:25:00Z</time>
      </trkpt>
      <trkpt lat="48.29549" lon="7.01697">
        <ele>459</ele>
        <time>2022-04-05T22:25:04Z</time>
      </trkpt>
      <trkpt lat="48.29579" lon="7.01697">
        <ele>459</ele>
        <time>2022-04-05T22:25:09Z</time>
      </trkpt>
      <trkpt lat="48.29588" lon="7.01695">
        <ele>459</ele>
        <time>2022-04-05T22:25:11Z</time>
      </trkpt>
      <trkpt lat="48.29595" lon="7.01689">
        <ele>459</ele>
        <time>2022-04-05T22:25:12Z</time>
      </trkpt>
      <trkpt lat="48.296" lon="7.01682">
        <ele>458</ele>
        <time>2022-04-05T22:25:13Z</time>
      </trkpt>
      <trkpt lat="48.29603" lon="7.01668">
        <ele>457</ele>
        <time>2022-04-05T22:25:15Z</time>
      </trkpt>
      <trkpt lat="48.29604" lon="7.01652">
        <ele>456</ele>
        <time>2022-04-05T22:25:17Z</time>
      </trkpt>
      <trkpt lat="48.29581" lon="7.01598">
        <ele>451</ele>
        <time>2022-04-05T22:25:24Z</time>
      </trkpt>
      <trkpt lat="48.29576" lon="7.01574">
        <ele>450</ele>
        <time>2022-04-05T22:25:27Z</time>
      </trkpt>
      <trkpt lat="48.29574" lon="7.01551">
        <ele>449</ele>
        <time>2022-04-05T22:25:30Z</time>
      </trkpt>
      <trkpt lat="48.29575" lon="7.01526">
        <ele>448</ele>
        <time>2022-04-05T22:25:33Z</time>
      </trkpt>
      <trkpt lat="48.29606" lon="7.01409">
        <ele>451</ele>
        <time>2022-04-05T22:25:48Z</time>
      </trkpt>
      <trkpt lat="48.29622" lon="7.01373">
        <ele>452</ele>
        <time>2022-04-05T22:25:53Z</time>
      </trkpt>
      <trkpt lat="48.29636" lon="7.01353">
        <ele>452</ele>
        <time>2022-04-05T22:25:57Z</time>
      </trkpt>
      <trkpt lat="48.2966" lon="7.01323">
        <ele>452</ele>
        <time>2022-04-05T22:26:02Z</time>
      </trkpt>
      <trkpt lat="48.29697" lon="7.01298">
        <ele>454</ele>
        <time>2022-04-05T22:26:09Z</time>
      </trkpt>
      <trkpt lat="48.29706" lon="7.01286">
        <ele>454</ele>
        <time>2022-04-05T22:26:11Z</time>
      </trkpt>
      <trkpt lat="48.29707" lon="7.01278">
        <ele>454</ele>
        <time>2022-04-05T22:26:12Z</time>
      </trkpt>
      <trkpt lat="48.29709" lon="7.01269">
        <ele>453</ele>
        <time>2022-04-05T22:26:14Z</time>
      </trkpt>
      <trkpt lat="48.29709" lon="7.0126">
        <ele>453</ele>
        <time>2022-04-05T22:26:15Z</time>
      </trkpt>
      <trkpt lat="48.29707" lon="7.01252">
        <ele>453</ele>
        <time>2022-04-05T22:26:16Z</time>
      </trkpt>
      <trkpt lat="48.29702" lon="7.01244">
        <ele>452</ele>
        <time>2022-04-05T22:26:17Z</time>
      </trkpt>
      <trkpt lat="48.2969" lon="7.01239">
        <ele>452</ele>
        <time>2022-04-05T22:26:19Z</time>
      </trkpt>
      <trkpt lat="48.29667" lon="7.01238">
        <ele>451</ele>
        <time>2022-04-05T22:26:23Z</time>
      </trkpt>
      <trkpt lat="48.29659" lon="7.01233">
        <ele>453</ele>
        <time>2022-04-05T22:26:25Z</time>
      </trkpt>
      <trkpt lat="48.29653" lon="7.01226">
        <ele>454</ele>
        <time>2022-04-05T22:26:26Z</time>
      </trkpt>
      <trkpt lat="48.29651" lon="7.01217">
        <ele>454</ele>
        <time>2022-04-05T22:26:27Z</time>
      </trkpt>
      <trkpt lat="48.29651" lon="7.01203">
        <ele>455</ele>
        <time>2022-04-05T22:26:29Z</time>
      </trkpt>
      <trkpt lat="48.29656" lon="7.01184">
        <ele>455</ele>
        <time>2022-04-05T22:26:31Z</time>
      </trkpt>
      <trkpt lat="48.29693" lon="7.01083">
        <ele>456</ele>
        <time>2022-04-05T22:26:45Z</time>
      </trkpt>
      <trkpt lat="48.29698" lon="7.01064">
        <ele>456</ele>
        <time>2022-04-05T22:26:47Z</time>
      </trkpt>
      <trkpt lat="48.29701" lon="7.01046">
        <ele>456</ele>
        <time>2022-04-05T22:26:50Z</time>
      </trkpt>
      <trkpt lat="48.29699" lon="7.01021">
        <ele>456</ele>
        <time>2022-04-05T22:26:53Z</time>
      </trkpt>
      <trkpt lat="48.29675" lon="7.00927">
        <ele>457</ele>
        <time>2022-04-05T22:27:04Z</time>
      </trkpt>
      <trkpt lat="48.29669" lon="7.00898">
        <ele>457</ele>
        <time>2022-04-05T22:27:08Z</time>
      </trkpt>
      <trkpt lat="48.29671" lon="7.00872">
        <ele>458</ele>
        <time>2022-04-05T22:27:11Z</time>
      </trkpt>
      <trkpt lat="48.29675" lon="7.00855">
        <ele>458</ele>
        <time>2022-04-05T22:27:13Z</time>
      </trkpt>
      <trkpt lat="48.29686" lon="7.00838">
        <ele>459</ele>
        <time>2022-04-05T22:27:16Z</time>
      </trkpt>
      <trkpt lat="48.29702" lon="7.00819">
        <ele>460</ele>
        <time>2022-04-05T22:27:20Z</time>
      </trkpt>
      <trkpt lat="48.29717" lon="7.0081">
        <ele>460</ele>
        <time>2022-04-05T22:27:23Z</time>
      </trkpt>
      <trkpt lat="48.29731" lon="7.00805">
        <ele>461</ele>
        <time>2022-04-05T22:27:25Z</time>
      </trkpt>
      <trkpt lat="48.29754" lon="7.00804">
        <ele>463</ele>
        <time>2022-04-05T22:27:29Z</time>
      </trkpt>
      <trkpt lat="48.29768" lon="7.00799">
        <ele>465</ele>
        <time>2022-04-05T22:27:32Z</time>
      </trkpt>
      <trkpt lat="48.2978" lon="7.00794">
        <ele>466</ele>
        <time>2022-04-05T22:27:34Z</time>
      </trkpt>
      <trkpt lat="48.29805" lon="7.00772">
        <ele>470</ele>
        <time>2022-04-05T22:27:39Z</time>
      </trkpt>
      <trkpt lat="48.29801" lon="7.00754">
        <ele>471</ele>
        <time>2022-04-05T22:27:41Z</time>
      </trkpt>
      <trkpt lat="48.29796" lon="7.00746">
        <ele>470</ele>
        <time>2022-04-05T22:27:43Z</time>
      </trkpt>
      <trkpt lat="48.29689" lon="7.00655">
        <ele>465</ele>
        <time>2022-04-05T22:28:05Z</time>
      </trkpt>
      <trkpt lat="48.29649" lon="7.00615">
        <ele>465</ele>
        <time>2022-04-05T22:28:13Z</time>
      </trkpt>
      <trkpt lat="48.29633" lon="7.00594">
        <ele>465</ele>
        <time>2022-04-05T22:28:17Z</time>
      </trkpt>
      <trkpt lat="48.29617" lon="7.00568">
        <ele>466</ele>
        <time>2022-04-05T22:28:21Z</time>
      </trkpt>
      <trkpt lat="48.29595" lon="7.00542">
        <ele>467</ele>
        <time>2022-04-05T22:28:26Z</time>
      </trkpt>
      <trkpt lat="48.29582" lon="7.00531">
        <ele>467</ele>
        <time>2022-04-05T22:28:29Z</time>
      </trkpt>
      <trkpt lat="48.29542" lon="7.00506">
        <ele>468</ele>
        <time>2022-04-05T22:28:36Z</time>
      </trkpt>
      <trkpt lat="48.29476" lon="7.00469">
        <ele>470</ele>
        <time>2022-04-05T22:28:49Z</time>
      </trkpt>
      <trkpt lat="48.29463" lon="7.00446">
        <ele>471</ele>
        <time>2022-04-05T22:28:53Z</time>
      </trkpt>
      <trkpt lat="48.2946" lon="7.00429">
        <ele>472</ele>
        <time>2022-04-05T22:28:55Z</time>
      </trkpt>
      <trkpt lat="48.29461" lon="7.00391">
        <ele>473</ele>
        <time>2022-04-05T22:28:59Z</time>
      </trkpt>
      <trkpt lat="48.29465" lon="7.00392">
        <ele>473</ele>
        <time>2022-04-05T22:29:00Z</time>
      </trkpt>
      <trkpt lat="48.29468" lon="7.00388">
        <ele>473</ele>
        <time>2022-04-05T22:29:01Z</time>
      </trkpt>
      <trkpt lat="48.29479" lon="7.00355">
        <ele>474</ele>
        <time>2022-04-05T22:29:05Z</time>
      </trkpt>
      <trkpt lat="48.2949" lon="7.00331">
        <ele>476</ele>
        <time>2022-04-05T22:29:08Z</time>
      </trkpt>
      <trkpt lat="48.29503" lon="7.00316">
        <ele>476</ele>
        <time>2022-04-05T22:29:11Z</time>
      </trkpt>
      <trkpt lat="48.29512" lon="7.00312">
        <ele>477</ele>
        <time>2022-04-05T22:29:13Z</time>
      </trkpt>
      <trkpt lat="48.29521" lon="7.00311">
        <ele>478</ele>
        <time>2022-04-05T22:29:15Z</time>
      </trkpt>
      <trkpt lat="48.29541" lon="7.00315">
        <ele>479</ele>
        <time>2022-04-05T22:29:18Z</time>
      </trkpt>
      <trkpt lat="48.29548" lon="7.00322">
        <ele>480</ele>
        <time>2022-04-05T22:29:20Z</time>
      </trkpt>
      <trkpt lat="48.29552" lon="7.00322">
        <ele>481</ele>
        <time>2022-04-05T22:29:20Z</time>
      </trkpt>
      <trkpt lat="48.29601" lon="7.00355">
        <ele>485</ele>
        <time>2022-04-05T22:29:30Z</time>
      </trkpt>
      <trkpt lat="48.29688" lon="7.00403">
        <ele>494</ele>
        <time>2022-04-05T22:29:46Z</time>
      </trkpt>
      <trkpt lat="48.29792" lon="7.0042">
        <ele>508</ele>
        <time>2022-04-05T22:30:05Z</time>
      </trkpt>
      <trkpt lat="48.29824" lon="7.00418">
        <ele>511</ele>
        <time>2022-04-05T22:30:11Z</time>
      </trkpt>
      <trkpt lat="48.29851" lon="7.0041">
        <ele>513</ele>
        <time>2022-04-05T22:30:16Z</time>
      </trkpt>
      <trkpt lat="48.29868" lon="7.00393">
        <ele>516</ele>
        <time>2022-04-05T22:30:19Z</time>
      </trkpt>
      <trkpt lat="48.29885" lon="7.00336">
        <ele>524</ele>
        <time>2022-04-05T22:30:27Z</time>
      </trkpt>
      <trkpt lat="48.29895" lon="7.00291">
        <ele>528</ele>
        <time>2022-04-05T22:30:32Z</time>
      </trkpt>
      <trkpt lat="48.29909" lon="7.00274">
        <ele>533</ele>
        <time>2022-04-05T22:30:36Z</time>
      </trkpt>
      <trkpt lat="48.29933" lon="7.0024">
        <ele>541</ele>
        <time>2022-04-05T22:30:41Z</time>
      </trkpt>
      <trkpt lat="48.29938" lon="7.00206">
        <ele>546</ele>
        <time>2022-04-05T22:30:46Z</time>
      </trkpt>
      <trkpt lat="48.29931" lon="7.00184">
        <ele>546</ele>
        <time>2022-04-05T22:30:48Z</time>
      </trkpt>
      <trkpt lat="48.29912" lon="7.00161">
        <ele>544</ele>
        <time>2022-04-05T22:30:53Z</time>
      </trkpt>
      <trkpt lat="48.29892" lon="7.00124">
        <ele>545</ele>
        <time>2022-04-05T22:30:58Z</time>
      </trkpt>
      <trkpt lat="48.29886" lon="7.00084">
        <ele>550</ele>
        <time>2022-04-05T22:31:03Z</time>
      </trkpt>
      <trkpt lat="48.29884" lon="7.00036">
        <ele>555</ele>
        <time>2022-04-05T22:31:09Z</time>
      </trkpt>
      <trkpt lat="48.29888" lon="6.99991">
        <ele>560</ele>
        <time>2022-04-05T22:31:14Z</time>
      </trkpt>
      <trkpt lat="48.29898" lon="6.99955">
        <ele>567</ele>
        <time>2022-04-05T22:31:19Z</time>
      </trkpt>
      <trkpt lat="48.29898" lon="6.99921">
        <ele>570</ele>
        <time>2022-04-05T22:31:23Z</time>
      </trkpt>
      <trkpt lat="48.29889" lon="6.99898">
        <ele>572</ele>
        <time>2022-04-05T22:31:26Z</time>
      </trkpt>
      <trkpt lat="48.29859" lon="6.99862">
        <ele>569</ele>
        <time>2022-04-05T22:31:33Z</time>
      </trkpt>
      <trkpt lat="48.29846" lon="6.99832">
        <ele>570</ele>
        <time>2022-04-05T22:31:37Z</time>
      </trkpt>
      <trkpt lat="48.29839" lon="6.99811">
        <ele>570</ele>
        <time>2022-04-05T22:31:40Z</time>
      </trkpt>
      <trkpt lat="48.29818" lon="6.99714">
        <ele>569</ele>
        <time>2022-04-05T22:31:52Z</time>
      </trkpt>
      <trkpt lat="48.29824" lon="6.99678">
        <ele>572</ele>
        <time>2022-04-05T22:31:56Z</time>
      </trkpt>
      <trkpt lat="48.29831" lon="6.99597">
        <ele>573</ele>
        <time>2022-04-05T22:32:06Z</time>
      </trkpt>
      <trkpt lat="48.2985" lon="6.99501">
        <ele>580</ele>
        <time>2022-04-05T22:32:18Z</time>
      </trkpt>
      <trkpt lat="48.29857" lon="6.99475">
        <ele>583</ele>
        <time>2022-04-05T22:32:21Z</time>
      </trkpt>
      <trkpt lat="48.29868" lon="6.99422">
        <ele>585</ele>
        <time>2022-04-05T22:32:28Z</time>
      </trkpt>
      <trkpt lat="48.299" lon="6.99303">
        <ele>589</ele>
        <time>2022-04-05T22:32:43Z</time>
      </trkpt>
      <trkpt lat="48.29903" lon="6.99271">
        <ele>588</ele>
        <time>2022-04-05T22:32:47Z</time>
      </trkpt>
      <trkpt lat="48.29908" lon="6.99239">
        <ele>588</ele>
        <time>2022-04-05T22:32:51Z</time>
      </trkpt>
      <trkpt lat="48.29923" lon="6.99135">
        <ele>594</ele>
        <time>2022-04-05T22:33:03Z</time>
      </trkpt>
      <trkpt lat="48.29934" lon="6.99098">
        <ele>599</ele>
        <time>2022-04-05T22:33:08Z</time>
      </trkpt>
      <trkpt lat="48.29943" lon="6.99024">
        <ele>600</ele>
        <time>2022-04-05T22:33:17Z</time>
      </trkpt>
      <trkpt lat="48.29947" lon="6.99002">
        <ele>601</ele>
        <time>2022-04-05T22:33:20Z</time>
      </trkpt>
      <trkpt lat="48.29956" lon="6.98982">
        <ele>604</ele>
        <time>2022-04-05T22:33:23Z</time>
      </trkpt>
      <trkpt lat="48.29961" lon="6.98939">
        <ele>602</ele>
        <time>2022-04-05T22:33:28Z</time>
      </trkpt>
      <trkpt lat="48.29968" lon="6.98919">
        <ele>604</ele>
        <time>2022-04-05T22:33:30Z</time>
      </trkpt>
      <trkpt lat="48.29984" lon="6.9889">
        <ele>609</ele>
        <time>2022-04-05T22:33:35Z</time>
      </trkpt>
      <trkpt lat="48.30004" lon="6.98846">
        <ele>614</ele>
        <time>2022-04-05T22:33:41Z</time>
      </trkpt>
      <trkpt lat="48.30033" lon="6.98793">
        <ele>620</ele>
        <time>2022-04-05T22:33:49Z</time>
      </trkpt>
      <trkpt lat="48.30062" lon="6.98746">
        <ele>627</ele>
        <time>2022-04-05T22:33:57Z</time>
      </trkpt>
      <trkpt lat="48.30082" lon="6.98707">
        <ele>635</ele>
        <time>2022-04-05T22:34:03Z</time>
      </trkpt>
      <trkpt lat="48.30112" lon="6.98596">
        <ele>641</ele>
        <time>2022-04-05T22:34:17Z</time>
      </trkpt>
      <trkpt lat="48.30117" lon="6.98563">
        <ele>641</ele>
        <time>2022-04-05T22:34:21Z</time>
      </trkpt>
      <trkpt lat="48.30116" lon="6.98515">
        <ele>638</ele>
        <time>2022-04-05T22:34:27Z</time>
      </trkpt>
      <trkpt lat="48.3012" lon="6.98363">
        <ele>635</ele>
        <time>2022-04-05T22:34:45Z</time>
      </trkpt>
      <trkpt lat="48.30128" lon="6.98322">
        <ele>636</ele>
        <time>2022-04-05T22:34:50Z</time>
      </trkpt>
      <trkpt lat="48.30151" lon="6.98236">
        <ele>635</ele>
        <time>2022-04-05T22:35:01Z</time>
      </trkpt>
      <trkpt lat="48.30169" lon="6.98175">
        <ele>632</ele>
        <time>2022-04-05T22:35:09Z</time>
      </trkpt>
      <trkpt lat="48.30186" lon="6.98134">
        <ele>631</ele>
        <time>2022-04-05T22:35:14Z</time>
      </trkpt>
      <trkpt lat="48.30227" lon="6.98048">
        <ele>628</ele>
        <time>2022-04-05T22:35:27Z</time>
      </trkpt>
      <trkpt lat="48.30241" lon="6.98037">
        <ele>630</ele>
        <time>2022-04-05T22:35:30Z</time>
      </trkpt>
      <trkpt lat="48.3025" lon="6.98034">
        <ele>632</ele>
        <time>2022-04-05T22:35:31Z</time>
      </trkpt>
      <trkpt lat="48.3027" lon="6.98034">
        <ele>632</ele>
        <time>2022-04-05T22:35:35Z</time>
      </trkpt>
      <trkpt lat="48.30302" lon="6.98063">
        <ele>640</ele>
        <time>2022-04-05T22:35:41Z</time>
      </trkpt>
      <trkpt lat="48.30314" lon="6.98088">
        <ele>645</ele>
        <time>2022-04-05T22:35:45Z</time>
      </trkpt>
      <trkpt lat="48.30329" lon="6.98131">
        <ele>649</ele>
        <time>2022-04-05T22:35:51Z</time>
      </trkpt>
      <trkpt lat="48.30338" lon="6.98161">
        <ele>650</ele>
        <time>2022-04-05T22:35:55Z</time>
      </trkpt>
      <trkpt lat="48.30343" lon="6.98189">
        <ele>650</ele>
        <time>2022-04-05T22:35:58Z</time>
      </trkpt>
      <trkpt lat="48.30343" lon="6.98206">
        <ele>651</ele>
        <time>2022-04-05T22:36:00Z</time>
      </trkpt>
      <trkpt lat="48.30362" lon="6.98261">
        <ele>647</ele>
        <time>2022-04-05T22:36:08Z</time>
      </trkpt>
      <trkpt lat="48.30366" lon="6.98325">
        <ele>650</ele>
        <time>2022-04-05T22:36:15Z</time>
      </trkpt>
      <trkpt lat="48.30386" lon="6.9845">
        <ele>651</ele>
        <time>2022-04-05T22:36:30Z</time>
      </trkpt>
      <trkpt lat="48.30394" lon="6.98551">
        <ele>658</ele>
        <time>2022-04-05T22:36:42Z</time>
      </trkpt>
      <trkpt lat="48.30431" lon="6.98652">
        <ele>660</ele>
        <time>2022-04-05T22:36:56Z</time>
      </trkpt>
      <trkpt lat="48.3047" lon="6.98726">
        <ele>661</ele>
        <time>2022-04-05T22:37:07Z</time>
      </trkpt>
      <trkpt lat="48.30523" lon="6.98802">
        <ele>671</ele>
        <time>2022-04-05T22:37:20Z</time>
      </trkpt>
      <trkpt lat="48.30533" lon="6.98809">
        <ele>673</ele>
        <time>2022-04-05T22:37:22Z</time>
      </trkpt>
      <trkpt lat="48.30544" lon="6.98805">
        <ele>672</ele>
        <time>2022-04-05T22:37:24Z</time>
      </trkpt>
      <trkpt lat="48.30569" lon="6.98771">
        <ele>663</ele>
        <time>2022-04-05T22:37:30Z</time>
      </trkpt>
      <trkpt lat="48.30602" lon="6.98683">
        <ele>650</ele>
        <time>2022-04-05T22:37:42Z</time>
      </trkpt>
      <trkpt lat="48.30618" lon="6.98648">
        <ele>648</ele>
        <time>2022-04-05T22:37:47Z</time>
      </trkpt>
      <trkpt lat="48.30623" lon="6.98622">
        <ele>644</ele>
        <time>2022-04-05T22:37:50Z</time>
      </trkpt>
      <trkpt lat="48.30639" lon="6.98576">
        <ele>640</ele>
        <time>2022-04-05T22:37:57Z</time>
      </trkpt>
      <trkpt lat="48.30659" lon="6.98542">
        <ele>640</ele>
        <time>2022-04-05T22:38:02Z</time>
      </trkpt>
      <trkpt lat="48.30692" lon="6.98504">
        <ele>646</ele>
        <time>2022-04-05T22:38:09Z</time>
      </trkpt>
      <trkpt lat="48.30738" lon="6.98416">
        <ele>644</ele>
        <time>2022-04-05T22:38:23Z</time>
      </trkpt>
      <trkpt lat="48.30796" lon="6.98366">
        <ele>651</ele>
        <time>2022-04-05T22:38:34Z</time>
      </trkpt>
      <trkpt lat="48.30892" lon="6.98322">
        <ele>652</ele>
        <time>2022-04-05T22:38:52Z</time>
      </trkpt>
      <trkpt lat="48.30974" lon="6.98339">
        <ele>643</ele>
        <time>2022-04-05T22:39:07Z</time>
      </trkpt>
      <trkpt lat="48.3102" lon="6.98378">
        <ele>638</ele>
        <time>2022-04-05T22:39:16Z</time>
      </trkpt>
      <trkpt lat="48.31048" lon="6.98433">
        <ele>640</ele>
        <time>2022-04-05T22:39:25Z</time>
      </trkpt>
      <trkpt lat="48.31075" lon="6.98511">
        <ele>643</ele>
        <time>2022-04-05T22:39:35Z</time>
      </trkpt>
      <trkpt lat="48.31086" lon="6.98578">
        <ele>643</ele>
        <time>2022-04-05T22:39:43Z</time>
      </trkpt>
      <trkpt lat="48.31087" lon="6.98642">
        <ele>645</ele>
        <time>2022-04-05T22:39:51Z</time>
      </trkpt>
      <trkpt lat="48.31078" lon="6.98718">
        <ele>651</ele>
        <time>2022-04-05T22:40:00Z</time>
      </trkpt>
      <trkpt lat="48.311" lon="6.98876">
        <ele>641</ele>
        <time>2022-04-05T22:40:19Z</time>
      </trkpt>
      <trkpt lat="48.31132" lon="6.99004">
        <ele>631</ele>
        <time>2022-04-05T22:40:35Z</time>
      </trkpt>
      <trkpt lat="48.31119" lon="6.99119">
        <ele>638</ele>
        <time>2022-04-05T22:40:49Z</time>
      </trkpt>
      <trkpt lat="48.31084" lon="6.99224">
        <ele>649</ele>
        <time>2022-04-05T22:41:03Z</time>
      </trkpt>
      <trkpt lat="48.31058" lon="6.99316">
        <ele>645</ele>
        <time>2022-04-05T22:41:15Z</time>
      </trkpt>
      <trkpt lat="48.31062" lon="6.99418">
        <ele>625</ele>
        <time>2022-04-05T22:41:27Z</time>
      </trkpt>
      <trkpt lat="48.31076" lon="6.99438">
        <ele>621</ele>
        <time>2022-04-05T22:41:30Z</time>
      </trkpt>
      <trkpt lat="48.31109" lon="6.99472">
        <ele>615</ele>
        <time>2022-04-05T22:41:37Z</time>
      </trkpt>
      <trkpt lat="48.3122" lon="6.99492">
        <ele>598</ele>
        <time>2022-04-05T22:41:57Z</time>
      </trkpt>
      <trkpt lat="48.31247" lon="6.99518">
        <ele>596</ele>
        <time>2022-04-05T22:42:03Z</time>
      </trkpt>
      <trkpt lat="48.31261" lon="6.9957">
        <ele>598</ele>
        <time>2022-04-05T22:42:10Z</time>
      </trkpt>
      <trkpt lat="48.31266" lon="6.99609">
        <ele>600</ele>
        <time>2022-04-05T22:42:14Z</time>
      </trkpt>
      <trkpt lat="48.31271" lon="6.99635">
        <ele>601</ele>
        <time>2022-04-05T22:42:18Z</time>
      </trkpt>
      <trkpt lat="48.31293" lon="6.99696">
        <ele>603</ele>
        <time>2022-04-05T22:42:26Z</time>
      </trkpt>
      <trkpt lat="48.31302" lon="6.99705">
        <ele>602</ele>
        <time>2022-04-05T22:42:28Z</time>
      </trkpt>
      <trkpt lat="48.31314" lon="6.99703">
        <ele>598</ele>
        <time>2022-04-05T22:42:30Z</time>
      </trkpt>
      <trkpt lat="48.31322" lon="6.99642">
        <ele>588</ele>
        <time>2022-04-05T22:42:37Z</time>
      </trkpt>
      <trkpt lat="48.31329" lon="6.99617">
        <ele>583</ele>
        <time>2022-04-05T22:42:40Z</time>
      </trkpt>
      <trkpt lat="48.31341" lon="6.99608">
        <ele>583</ele>
        <time>2022-04-05T22:42:43Z</time>
      </trkpt>
      <trkpt lat="48.31365" lon="6.99574">
        <ele>582</ele>
        <time>2022-04-05T22:42:49Z</time>
      </trkpt>
      <trkpt lat="48.31391" lon="6.99548">
        <ele>581</ele>
        <time>2022-04-05T22:42:54Z</time>
      </trkpt>
      <trkpt lat="48.31413" lon="6.99518">
        <ele>575</ele>
        <time>2022-04-05T22:42:59Z</time>
      </trkpt>
      <trkpt lat="48.31459" lon="6.99435">
        <ele>575</ele>
        <time>2022-04-05T22:43:12Z</time>
      </trkpt>
      <trkpt lat="48.31497" lon="6.99388">
        <ele>578</ele>
        <time>2022-04-05T22:43:21Z</time>
      </trkpt>
      <trkpt lat="48.31512" lon="6.99372">
        <ele>580</ele>
        <time>2022-04-05T22:43:24Z</time>
      </trkpt>
      <trkpt lat="48.31569" lon="6.99236">
        <ele>567</ele>
        <time>2022-04-05T22:43:43Z</time>
      </trkpt>
      <trkpt lat="48.31605" lon="6.99159">
        <ele>565</ele>
        <time>2022-04-05T22:43:54Z</time>
      </trkpt>
      <trkpt lat="48.31611" lon="6.99124">
        <ele>563</ele>
        <time>2022-04-05T22:43:59Z</time>
      </trkpt>
      <trkpt lat="48.31625" lon="6.99083">
        <ele>562</ele>
        <time>2022-04-05T22:44:04Z</time>
      </trkpt>
      <trkpt lat="48.31668" lon="6.98991">
        <ele>561</ele>
        <time>2022-04-05T22:44:17Z</time>
      </trkpt>
      <trkpt lat="48.31675" lon="6.98969">
        <ele>560</ele>
        <time>2022-04-05T22:44:20Z</time>
      </trkpt>
      <trkpt lat="48.31707" lon="6.98776">
        <ele>546</ele>
        <time>2022-04-05T22:44:44Z</time>
      </trkpt>
      <trkpt lat="48.31719" lon="6.98737">
        <ele>546</ele>
        <time>2022-04-05T22:44:49Z</time>
      </trkpt>
      <trkpt lat="48.31733" lon="6.987">
        <ele>547</ele>
        <time>2022-04-05T22:44:54Z</time>
      </trkpt>
      <trkpt lat="48.31747" lon="6.98679">
        <ele>550</ele>
        <time>2022-04-05T22:44:58Z</time>
      </trkpt>
      <trkpt lat="48.31765" lon="6.98664">
        <ele>550</ele>
        <time>2022-04-05T22:45:01Z</time>
      </trkpt>
      <trkpt lat="48.31781" lon="6.98657">
        <ele>551</ele>
        <time>2022-04-05T22:45:04Z</time>
      </trkpt>
      <trkpt lat="48.31794" lon="6.98655">
        <ele>552</ele>
        <time>2022-04-05T22:45:06Z</time>
      </trkpt>
      <trkpt lat="48.31807" lon="6.9864">
        <ele>552</ele>
        <time>2022-04-05T22:45:09Z</time>
      </trkpt>
      <trkpt lat="48.3182" lon="6.98618">
        <ele>549</ele>
        <time>2022-04-05T22:45:13Z</time>
      </trkpt>
      <trkpt lat="48.31828" lon="6.98616">
        <ele>550</ele>
        <time>2022-04-05T22:45:14Z</time>
      </trkpt>
      <trkpt lat="48.31837" lon="6.98609">
        <ele>549</ele>
        <time>2022-04-05T22:45:16Z</time>
      </trkpt>
      <trkpt lat="48.31847" lon="6.9859">
        <ele>547</ele>
        <time>2022-04-05T22:45:19Z</time>
      </trkpt>
      <trkpt lat="48.31855" lon="6.98563">
        <ele>546</ele>
        <time>2022-04-05T22:45:22Z</time>
      </trkpt>
      <trkpt lat="48.3186" lon="6.98508">
        <ele>544</ele>
        <time>2022-04-05T22:45:29Z</time>
      </trkpt>
      <trkpt lat="48.31856" lon="6.98421">
        <ele>540</ele>
        <time>2022-04-05T22:45:39Z</time>
      </trkpt>
      <trkpt lat="48.31861" lon="6.98315">
        <ele>535</ele>
        <time>2022-04-05T22:45:52Z</time>
      </trkpt>
      <trkpt lat="48.31868" lon="6.98265">
        <ele>534</ele>
        <time>2022-04-05T22:45:58Z</time>
      </trkpt>
      <trkpt lat="48.31873" lon="6.98244">
        <ele>534</ele>
        <time>2022-04-05T22:46:01Z</time>
      </trkpt>
      <trkpt lat="48.31886" lon="6.98203">
        <ele>533</ele>
        <time>2022-04-05T22:46:06Z</time>
      </trkpt>
      <trkpt lat="48.31897" lon="6.98174">
        <ele>532</ele>
        <time>2022-04-05T22:46:10Z</time>
      </trkpt>
      <trkpt lat="48.31918" lon="6.98126">
        <ele>530</ele>
        <time>2022-04-05T22:46:17Z</time>
      </trkpt>
      <trkpt lat="48.31934" lon="6.98099">
        <ele>527</ele>
        <time>2022-04-05T22:46:21Z</time>
      </trkpt>
      <trkpt lat="48.31943" lon="6.98088">
        <ele>525</ele>
        <time>2022-04-05T22:46:23Z</time>
      </trkpt>
      <trkpt lat="48.31975" lon="6.98062">
        <ele>523</ele>
        <time>2022-04-05T22:46:30Z</time>
      </trkpt>
      <trkpt lat="48.31984" lon="6.98057">
        <ele>523</ele>
        <time>2022-04-05T22:46:31Z</time>
      </trkpt>
      <trkpt lat="48.32002" lon="6.98052">
        <ele>523</ele>
        <time>2022-04-05T22:46:35Z</time>
      </trkpt>
      <trkpt lat="48.32026" lon="6.98049">
        <ele>522</ele>
        <time>2022-04-05T22:46:39Z</time>
      </trkpt>
      <trkpt lat="48.32051" lon="6.98047">
        <ele>522</ele>
        <time>2022-04-05T22:46:43Z</time>
      </trkpt>
      <trkpt lat="48.32059" lon="6.98041">
        <ele>521</ele>
        <time>2022-04-05T22:46:45Z</time>
      </trkpt>
      <trkpt lat="48.32067" lon="6.98033">
        <ele>521</ele>
        <time>2022-04-05T22:46:47Z</time>
      </trkpt>
      <trkpt lat="48.3208" lon="6.98013">
        <ele>520</ele>
        <time>2022-04-05T22:46:50Z</time>
      </trkpt>
      <trkpt lat="48.32087" lon="6.97986">
        <ele>521</ele>
        <time>2022-04-05T22:46:53Z</time>
      </trkpt>
      <trkpt lat="48.32095" lon="6.9786">
        <ele>527</ele>
        <time>2022-04-05T22:47:08Z</time>
      </trkpt>
      <trkpt lat="48.32095" lon="6.97849">
        <ele>528</ele>
        <time>2022-04-05T22:47:10Z</time>
      </trkpt>
      <trkpt lat="48.32096" lon="6.97833">
        <ele>529</ele>
        <time>2022-04-05T22:47:11Z</time>
      </trkpt>
      <trkpt lat="48.32116" lon="6.97969">
        <ele>529</ele>
        <time>2022-04-05T22:47:28Z</time>
      </trkpt>
      <trkpt lat="48.32126" lon="6.98006">
        <ele>529</ele>
        <time>2022-04-05T22:47:33Z</time>
      </trkpt>
      <trkpt lat="48.32137" lon="6.98041">
        <ele>529</ele>
        <time>2022-04-05T22:47:37Z</time>
      </trkpt>
      <trkpt lat="48.32146" lon="6.98064">
        <ele>529</ele>
        <time>2022-04-05T22:47:40Z</time>
      </trkpt>
      <trkpt lat="48.32155" lon="6.9808">
        <ele>528</ele>
        <time>2022-04-05T22:47:43Z</time>
      </trkpt>
      <trkpt lat="48.32164" lon="6.98092">
        <ele>528</ele>
        <time>2022-04-05T22:47:45Z</time>
      </trkpt>
      <trkpt lat="48.32195" lon="6.98113">
        <ele>525</ele>
        <time>2022-04-05T22:47:51Z</time>
      </trkpt>
      <trkpt lat="48.32227" lon="6.98122">
        <ele>523</ele>
        <time>2022-04-05T22:47:57Z</time>
      </trkpt>
      <trkpt lat="48.32245" lon="6.98121">
        <ele>522</ele>
        <time>2022-04-05T22:48:00Z</time>
      </trkpt>
      <trkpt lat="48.32261" lon="6.98117">
        <ele>519</ele>
        <time>2022-04-05T22:48:03Z</time>
      </trkpt>
      <trkpt lat="48.32289" lon="6.98098">
        <ele>515</ele>
        <time>2022-04-05T22:48:08Z</time>
      </trkpt>
      <trkpt lat="48.32302" lon="6.98077">
        <ele>513</ele>
        <time>2022-04-05T22:48:12Z</time>
      </trkpt>
      <trkpt lat="48.32343" lon="6.9799">
        <ele>510</ele>
        <time>2022-04-05T22:48:24Z</time>
      </trkpt>
      <trkpt lat="48.32374" lon="6.97921">
        <ele>508</ele>
        <time>2022-04-05T22:48:34Z</time>
      </trkpt>
      <trkpt lat="48.32386" lon="6.97885">
        <ele>505</ele>
        <time>2022-04-05T22:48:39Z</time>
      </trkpt>
      <trkpt lat="48.32397" lon="6.97843">
        <ele>502</ele>
        <time>2022-04-05T22:48:44Z</time>
      </trkpt>
      <trkpt lat="48.32409" lon="6.97759">
        <ele>499</ele>
        <time>2022-04-05T22:48:55Z</time>
      </trkpt>
      <trkpt lat="48.32415" lon="6.97749">
        <ele>497</ele>
        <time>2022-04-05T22:48:56Z</time>
      </trkpt>
      <trkpt lat="48.32426" lon="6.97741">
        <ele>496</ele>
        <time>2022-04-05T22:48:58Z</time>
      </trkpt>
      <trkpt lat="48.32434" lon="6.97741">
        <ele>495</ele>
        <time>2022-04-05T22:49:00Z</time>
      </trkpt>
      <trkpt lat="48.32441" lon="6.97745">
        <ele>495</ele>
        <time>2022-04-05T22:49:01Z</time>
      </trkpt>
      <trkpt lat="48.32447" lon="6.97756">
        <ele>494</ele>
        <time>2022-04-05T22:49:03Z</time>
      </trkpt>
      <trkpt lat="48.32451" lon="6.9777">
        <ele>493</ele>
        <time>2022-04-05T22:49:05Z</time>
      </trkpt>
      <trkpt lat="48.32458" lon="6.97821">
        <ele>492</ele>
        <time>2022-04-05T22:49:11Z</time>
      </trkpt>
      <trkpt lat="48.32488" lon="6.97929">
        <ele>489</ele>
        <time>2022-04-05T22:49:25Z</time>
      </trkpt>
      <trkpt lat="48.32513" lon="6.98008">
        <ele>485</ele>
        <time>2022-04-05T22:49:35Z</time>
      </trkpt>
      <trkpt lat="48.32526" lon="6.98057">
        <ele>482</ele>
        <time>2022-04-05T22:49:41Z</time>
      </trkpt>
      <trkpt lat="48.32526" lon="6.98076">
        <ele>482</ele>
        <time>2022-04-05T22:49:43Z</time>
      </trkpt>
      <trkpt lat="48.32524" lon="6.98096">
        <ele>481</ele>
        <time>2022-04-05T22:49:46Z</time>
      </trkpt>
      <trkpt lat="48.32504" lon="6.98147">
        <ele>480</ele>
        <time>2022-04-05T22:49:53Z</time>
      </trkpt>
      <trkpt lat="48.32501" lon="6.98165">
        <ele>480</ele>
        <time>2022-04-05T22:49:55Z</time>
      </trkpt>
      <trkpt lat="48.32502" lon="6.98186">
        <ele>480</ele>
        <time>2022-04-05T22:49:58Z</time>
      </trkpt>
      <trkpt lat="48.32506" lon="6.98202">
        <ele>479</ele>
        <time>2022-04-05T22:50:00Z</time>
      </trkpt>
      <trkpt lat="48.32516" lon="6.98222">
        <ele>478</ele>
        <time>2022-04-05T22:50:02Z</time>
      </trkpt>
      <trkpt lat="48.32541" lon="6.98255">
        <ele>475</ele>
        <time>2022-04-05T22:50:08Z</time>
      </trkpt>
      <trkpt lat="48.32573" lon="6.98291">
        <ele>474</ele>
        <time>2022-04-05T22:50:16Z</time>
      </trkpt>
      <trkpt lat="48.32614" lon="6.98312">
        <ele>474</ele>
        <time>2022-04-05T22:50:23Z</time>
      </trkpt>
      <trkpt lat="48.32705" lon="6.98384">
        <ele>475</ele>
        <time>2022-04-05T22:50:42Z</time>
      </trkpt>
      <trkpt lat="48.32768" lon="6.9839">
        <ele>469</ele>
        <time>2022-04-05T22:50:53Z</time>
      </trkpt>
      <trkpt lat="48.3283" lon="6.98383">
        <ele>458</ele>
        <time>2022-04-05T22:51:04Z</time>
      </trkpt>
      <trkpt lat="48.32882" lon="6.98362">
        <ele>451</ele>
        <time>2022-04-05T22:51:13Z</time>
      </trkpt>
      <trkpt lat="48.32928" lon="6.98361">
        <ele>447</ele>
        <time>2022-04-05T22:51:22Z</time>
      </trkpt>
      <trkpt lat="48.32957" lon="6.98345">
        <ele>446</ele>
        <time>2022-04-05T22:51:27Z</time>
      </trkpt>
      <trkpt lat="48.32986" lon="6.98345">
        <ele>446</ele>
        <time>2022-04-05T22:51:32Z</time>
      </trkpt>
      <trkpt lat="48.33041" lon="6.98369">
        <ele>442</ele>
        <time>2022-04-05T22:51:42Z</time>
      </trkpt>
      <trkpt lat="48.33064" lon="6.98389">
        <ele>440</ele>
        <time>2022-04-05T22:51:47Z</time>
      </trkpt>
      <trkpt lat="48.33115" lon="6.98458">
        <ele>436</ele>
        <time>2022-04-05T22:51:59Z</time>
      </trkpt>
      <trkpt lat="48.3318" lon="6.98556">
        <ele>424</ele>
        <time>2022-04-05T22:52:16Z</time>
      </trkpt>
      <trkpt lat="48.33189" lon="6.98576">
        <ele>424</ele>
        <time>2022-04-05T22:52:19Z</time>
      </trkpt>
      <trkpt lat="48.33194" lon="6.98596">
        <ele>424</ele>
        <time>2022-04-05T22:52:21Z</time>
      </trkpt>
      <trkpt lat="48.33214" lon="6.98692">
        <ele>422</ele>
        <time>2022-04-05T22:52:33Z</time>
      </trkpt>
      <trkpt lat="48.33224" lon="6.98717">
        <ele>420</ele>
        <time>2022-04-05T22:52:36Z</time>
      </trkpt>
      <trkpt lat="48.33242" lon="6.98743">
        <ele>416</ele>
        <time>2022-04-05T22:52:41Z</time>
      </trkpt>
      <trkpt lat="48.33268" lon="6.98763">
        <ele>413</ele>
        <time>2022-04-05T22:52:46Z</time>
      </trkpt>
      <trkpt lat="48.33288" lon="6.98795">
        <ele>412</ele>
        <time>2022-04-05T22:52:51Z</time>
      </trkpt>
      <trkpt lat="48.33293" lon="6.98808">
        <ele>411</ele>
        <time>2022-04-05T22:52:53Z</time>
      </trkpt>
      <trkpt lat="48.33284" lon="6.98829">
        <ele>412</ele>
        <time>2022-04-05T22:52:56Z</time>
      </trkpt>
      <trkpt lat="48.33247" lon="6.9896">
        <ele>412</ele>
        <time>2022-04-05T22:53:13Z</time>
      </trkpt>
      <trkpt lat="48.33246" lon="6.98991">
        <ele>410</ele>
        <time>2022-04-05T22:53:17Z</time>
      </trkpt>
      <trkpt lat="48.3325" lon="6.99009">
        <ele>409</ele>
        <time>2022-04-05T22:53:19Z</time>
      </trkpt>
      <trkpt lat="48.33254" lon="6.99024">
        <ele>408</ele>
        <time>2022-04-05T22:53:21Z</time>
      </trkpt>
      <trkpt lat="48.33291" lon="6.99125">
        <ele>405</ele>
        <time>2022-04-05T22:53:34Z</time>
      </trkpt>
      <trkpt lat="48.333" lon="6.9915">
        <ele>405</ele>
        <time>2022-04-05T22:53:38Z</time>
      </trkpt>
      <trkpt lat="48.33305" lon="6.99166">
        <ele>406</ele>
        <time>2022-04-05T22:53:40Z</time>
      </trkpt>
      <trkpt lat="48.33309" lon="6.99176">
        <ele>406</ele>
        <time>2022-04-05T22:53:41Z</time>
      </trkpt>
      <trkpt lat="48.33356" lon="6.99278">
        <ele>411</ele>
        <time>2022-04-05T22:53:56Z</time>
      </trkpt>
      <trkpt lat="48.33442" lon="6.99448">
        <ele>421</ele>
        <time>2022-04-05T22:54:21Z</time>
      </trkpt>
      <trkpt lat="48.33501" lon="6.99546">
        <ele>436</ele>
        <time>2022-04-05T22:54:37Z</time>
      </trkpt>
      <trkpt lat="48.3352" lon="6.99554">
        <ele>439</ele>
        <time>2022-04-05T22:54:40Z</time>
      </trkpt>
      <trkpt lat="48.33537" lon="6.99557">
        <ele>440</ele>
        <time>2022-04-05T22:54:43Z</time>
      </trkpt>
      <trkpt lat="48.33547" lon="6.99554">
        <ele>440</ele>
        <time>2022-04-05T22:54:45Z</time>
      </trkpt>
      <trkpt lat="48.33554" lon="6.99548">
        <ele>440</ele>
        <time>2022-04-05T22:54:47Z</time>
      </trkpt>
      <trkpt lat="48.33565" lon="6.99536">
        <ele>440</ele>
        <time>2022-04-05T22:54:49Z</time>
      </trkpt>
      <trkpt lat="48.33578" lon="6.99492">
        <ele>439</ele>
        <time>2022-04-05T22:54:55Z</time>
      </trkpt>
      <trkpt lat="48.336" lon="6.99449">
        <ele>441</ele>
        <time>2022-04-05T22:55:01Z</time>
      </trkpt>
      <trkpt lat="48.336" lon="6.99386">
        <ele>438</ele>
        <time>2022-04-05T22:55:09Z</time>
      </trkpt>
      <trkpt lat="48.33607" lon="6.99349">
        <ele>439</ele>
        <time>2022-04-05T22:55:13Z</time>
      </trkpt>
      <trkpt lat="48.33698" lon="6.99195">
        <ele>443</ele>
        <time>2022-04-05T22:55:37Z</time>
      </trkpt>
      <trkpt lat="48.33711" lon="6.99188">
        <ele>445</ele>
        <time>2022-04-05T22:55:40Z</time>
      </trkpt>
      <trkpt lat="48.3372" lon="6.99197">
        <ele>448</ele>
        <time>2022-04-05T22:55:42Z</time>
      </trkpt>
      <trkpt lat="48.33721" lon="6.99213">
        <ele>450</ele>
        <time>2022-04-05T22:55:44Z</time>
      </trkpt>
      <trkpt lat="48.33702" lon="6.99281">
        <ele>453</ele>
        <time>2022-04-05T22:55:52Z</time>
      </trkpt>
      <trkpt lat="48.33693" lon="6.99356">
        <ele>459</ele>
        <time>2022-04-05T22:56:01Z</time>
      </trkpt>
      <trkpt lat="48.33659" lon="6.99519">
        <ele>461</ele>
        <time>2022-04-05T22:56:22Z</time>
      </trkpt>
      <trkpt lat="48.33657" lon="6.99538">
        <ele>461</ele>
        <time>2022-04-05T22:56:24Z</time>
      </trkpt>
      <trkpt lat="48.33656" lon="6.99563">
        <ele>462</ele>
        <time>2022-04-05T22:56:27Z</time>
      </trkpt>
      <trkpt lat="48.33662" lon="6.99711">
        <ele>472</ele>
        <time>2022-04-05T22:56:44Z</time>
      </trkpt>
      <trkpt lat="48.33667" lon="6.99746">
        <ele>475</ele>
        <time>2022-04-05T22:56:49Z</time>
      </trkpt>
      <trkpt lat="48.33676" lon="6.99801">
        <ele>475</ele>
        <time>2022-04-05T22:56:55Z</time>
      </trkpt>
      <trkpt lat="48.33683" lon="6.99822">
        <ele>476</ele>
        <time>2022-04-05T22:56:58Z</time>
      </trkpt>
      <trkpt lat="48.33691" lon="6.99833">
        <ele>477</ele>
        <time>2022-04-05T22:57:00Z</time>
      </trkpt>
      <trkpt lat="48.33708" lon="6.99844">
        <ele>482</ele>
        <time>2022-04-05T22:57:03Z</time>
      </trkpt>
      <trkpt lat="48.33723" lon="6.99852">
        <ele>485</ele>
        <time>2022-04-05T22:57:06Z</time>
      </trkpt>
      <trkpt lat="48.33744" lon="6.99868">
        <ele>490</ele>
        <time>2022-04-05T22:57:10Z</time>
      </trkpt>
      <trkpt lat="48.33752" lon="6.99886">
        <ele>491</ele>
        <time>2022-04-05T22:57:13Z</time>
      </trkpt>
      <trkpt lat="48.33753" lon="6.99898">
        <ele>490</ele>
        <time>2022-04-05T22:57:14Z</time>
      </trkpt>
      <trkpt lat="48.33752" lon="6.9991">
        <ele>489</ele>
        <time>2022-04-05T22:57:16Z</time>
      </trkpt>
      <trkpt lat="48.33736" lon="6.99972">
        <ele>489</ele>
        <time>2022-04-05T22:57:24Z</time>
      </trkpt>
      <trkpt lat="48.3373" lon="7.00058">
        <ele>493</ele>
        <time>2022-04-05T22:57:34Z</time>
      </trkpt>
      <trkpt lat="48.33747" lon="7.00183">
        <ele>501</ele>
        <time>2022-04-05T22:57:49Z</time>
      </trkpt>
      <trkpt lat="48.33772" lon="7.00327">
        <ele>506</ele>
        <time>2022-04-05T22:58:07Z</time>
      </trkpt>
      <trkpt lat="48.33774" lon="7.00347">
        <ele>507</ele>
        <time>2022-04-05T22:58:09Z</time>
      </trkpt>
      <trkpt lat="48.33773" lon="7.00401">
        <ele>506</ele>
        <time>2022-04-05T22:58:15Z</time>
      </trkpt>
      <trkpt lat="48.33746" lon="7.0063">
        <ele>505</ele>
        <time>2022-04-05T22:58:43Z</time>
      </trkpt>
      <trkpt lat="48.33745" lon="7.00666">
        <ele>506</ele>
        <time>2022-04-05T22:58:47Z</time>
      </trkpt>
      <trkpt lat="48.33748" lon="7.00686">
        <ele>506</ele>
        <time>2022-04-05T22:58:50Z</time>
      </trkpt>
      <trkpt lat="48.33753" lon="7.00703">
        <ele>507</ele>
        <time>2022-04-05T22:58:52Z</time>
      </trkpt>
      <trkpt lat="48.33759" lon="7.00715">
        <ele>508</ele>
        <time>2022-04-05T22:58:54Z</time>
      </trkpt>
      <trkpt lat="48.33773" lon="7.00736">
        <ele>511</ele>
        <time>2022-04-05T22:58:57Z</time>
      </trkpt>
      <trkpt lat="48.33816" lon="7.00793">
        <ele>517</ele>
        <time>2022-04-05T22:59:07Z</time>
      </trkpt>
      <trkpt lat="48.33853" lon="7.00848">
        <ele>521</ele>
        <time>2022-04-05T22:59:17Z</time>
      </trkpt>
      <trkpt lat="48.33882" lon="7.00906">
        <ele>523</ele>
        <time>2022-04-05T22:59:25Z</time>
      </trkpt>
      <trkpt lat="48.33897" lon="7.00926">
        <ele>524</ele>
        <time>2022-04-05T22:59:29Z</time>
      </trkpt>
      <trkpt lat="48.33912" lon="7.00943">
        <ele>526</ele>
        <time>2022-04-05T22:59:32Z</time>
      </trkpt>
      <trkpt lat="48.33954" lon="7.0096">
        <ele>527</ele>
        <time>2022-04-05T22:59:40Z</time>
      </trkpt>
      <trkpt lat="48.34032" lon="7.00963">
        <ele>531</ele>
        <time>2022-04-05T22:59:54Z</time>
      </trkpt>
      <trkpt lat="48.34077" lon="7.00956">
        <ele>533</ele>
        <time>2022-04-05T23:00:02Z</time>
      </trkpt>
      <trkpt lat="48.34089" lon="7.0096">
        <ele>534</ele>
        <time>2022-04-05T23:00:04Z</time>
      </trkpt>
      <trkpt lat="48.34102" lon="7.00969">
        <ele>534</ele>
        <time>2022-04-05T23:00:06Z</time>
      </trkpt>
      <trkpt lat="48.34113" lon="7.0098">
        <ele>534</ele>
        <time>2022-04-05T23:00:09Z</time>
      </trkpt>
      <trkpt lat="48.34121" lon="7.00993">
        <ele>533</ele>
        <time>2022-04-05T23:00:11Z</time>
      </trkpt>
      <trkpt lat="48.34129" lon="7.0101">
        <ele>533</ele>
        <time>2022-04-05T23:00:13Z</time>
      </trkpt>
      <trkpt lat="48.34225" lon="7.01273">
        <ele>544</ele>
        <time>2022-04-05T23:00:49Z</time>
      </trkpt>
      <trkpt lat="48.34241" lon="7.01309">
        <ele>546</ele>
        <time>2022-04-05T23:00:54Z</time>
      </trkpt>
      <trkpt lat="48.34267" lon="7.01359">
        <ele>548</ele>
        <time>2022-04-05T23:01:01Z</time>
      </trkpt>
      <trkpt lat="48.34285" lon="7.01386">
        <ele>548</ele>
        <time>2022-04-05T23:01:06Z</time>
      </trkpt>
      <trkpt lat="48.34322" lon="7.01429">
        <ele>550</ele>
        <time>2022-04-05T23:01:14Z</time>
      </trkpt>
      <trkpt lat="48.34339" lon="7.0144">
        <ele>551</ele>
        <time>2022-04-05T23:01:18Z</time>
      </trkpt>
      <trkpt lat="48.34361" lon="7.01456">
        <ele>552</ele>
        <time>2022-04-05T23:01:22Z</time>
      </trkpt>
      <trkpt lat="48.34382" lon="7.01477">
        <ele>553</ele>
        <time>2022-04-05T23:01:26Z</time>
      </trkpt>
      <trkpt lat="48.34401" lon="7.01501">
        <ele>554</ele>
        <time>2022-04-05T23:01:31Z</time>
      </trkpt>
      <trkpt lat="48.34412" lon="7.0152">
        <ele>555</ele>
        <time>2022-04-05T23:01:34Z</time>
      </trkpt>
      <trkpt lat="48.34415" lon="7.01525">
        <ele>555</ele>
        <time>2022-04-05T23:01:35Z</time>
      </trkpt>
      <trkpt lat="48.34426" lon="7.01551">
        <ele>556</ele>
        <time>2022-04-05T23:01:38Z</time>
      </trkpt>
      <trkpt lat="48.34453" lon="7.0162">
        <ele>559</ele>
        <time>2022-04-05T23:01:48Z</time>
      </trkpt>
      <trkpt lat="48.34459" lon="7.0164">
        <ele>559</ele>
        <time>2022-04-05T23:01:50Z</time>
      </trkpt>
      <trkpt lat="48.34463" lon="7.01659">
        <ele>560</ele>
        <time>2022-04-05T23:01:53Z</time>
      </trkpt>
      <trkpt lat="48.34463" lon="7.01676">
        <ele>560</ele>
        <time>2022-04-05T23:01:55Z</time>
      </trkpt>
      <trkpt lat="48.34459" lon="7.01696">
        <ele>561</ele>
        <time>2022-04-05T23:01:57Z</time>
      </trkpt>
      <trkpt lat="48.34409" lon="7.01865">
        <ele>564</ele>
        <time>2022-04-05T23:02:19Z</time>
      </trkpt>
      <trkpt lat="48.34402" lon="7.01903">
        <ele>564</ele>
        <time>2022-04-05T23:02:24Z</time>
      </trkpt>
      <trkpt lat="48.34399" lon="7.01935">
        <ele>565</ele>
        <time>2022-04-05T23:02:28Z</time>
      </trkpt>
      <trkpt lat="48.34401" lon="7.01967">
        <ele>566</ele>
        <time>2022-04-05T23:02:31Z</time>
      </trkpt>
      <trkpt lat="48.34406" lon="7.01985">
        <ele>566</ele>
        <time>2022-04-05T23:02:34Z</time>
      </trkpt>
      <trkpt lat="48.34416" lon="7.02003">
        <ele>568</ele>
        <time>2022-04-05T23:02:36Z</time>
      </trkpt>
      <trkpt lat="48.34453" lon="7.02034">
        <ele>572</ele>
        <time>2022-04-05T23:02:44Z</time>
      </trkpt>
      <trkpt lat="48.34459" lon="7.02044">
        <ele>572</ele>
        <time>2022-04-05T23:02:46Z</time>
      </trkpt>
      <trkpt lat="48.34463" lon="7.02051">
        <ele>573</ele>
        <time>2022-04-05T23:02:47Z</time>
      </trkpt>
      <trkpt lat="48.34465" lon="7.02065">
        <ele>572</ele>
        <time>2022-04-05T23:02:48Z</time>
      </trkpt>
      <trkpt lat="48.34466" lon="7.02079">
        <ele>572</ele>
        <time>2022-04-05T23:02:50Z</time>
      </trkpt>
      <trkpt lat="48.34465" lon="7.02094">
        <ele>572</ele>
        <time>2022-04-05T23:02:52Z</time>
      </trkpt>
      <trkpt lat="48.34461" lon="7.02109">
        <ele>572</ele>
        <time>2022-04-05T23:02:54Z</time>
      </trkpt>
      <trkpt lat="48.34442" lon="7.02145">
        <ele>570</ele>
        <time>2022-04-05T23:02:59Z</time>
      </trkpt>
      <trkpt lat="48.34438" lon="7.02159">
        <ele>570</ele>
        <time>2022-04-05T23:03:01Z</time>
      </trkpt>
      <trkpt lat="48.34438" lon="7.02178">
        <ele>571</ele>
        <time>2022-04-05T23:03:03Z</time>
      </trkpt>
      <trkpt lat="48.34464" lon="7.02393">
        <ele>586</ele>
        <time>2022-04-05T23:03:29Z</time>
      </trkpt>
      <trkpt lat="48.34466" lon="7.02415">
        <ele>587</ele>
        <time>2022-04-05T23:03:32Z</time>
      </trkpt>
      <trkpt lat="48.3446" lon="7.02446">
        <ele>588</ele>
        <time>2022-04-05T23:03:35Z</time>
      </trkpt>
      <trkpt lat="48.34452" lon="7.02463">
        <ele>588</ele>
        <time>2022-04-05T23:03:38Z</time>
      </trkpt>
      <trkpt lat="48.34448" lon="7.02467">
        <ele>588</ele>
        <time>2022-04-05T23:03:39Z</time>
      </trkpt>
      <trkpt lat="48.34446" lon="7.0247">
        <ele>588</ele>
        <time>2022-04-05T23:03:39Z</time>
      </trkpt>
      <trkpt lat="48.3444" lon="7.02473">
        <ele>587</ele>
        <time>2022-04-05T23:03:40Z</time>
      </trkpt>
      <trkpt lat="48.34397" lon="7.02467">
        <ele>587</ele>
        <time>2022-04-05T23:03:48Z</time>
      </trkpt>
      <trkpt lat="48.34391" lon="7.02465">
        <ele>587</ele>
        <time>2022-04-05T23:03:49Z</time>
      </trkpt>
      <trkpt lat="48.34366" lon="7.0246">
        <ele>589</ele>
        <time>2022-04-05T23:03:54Z</time>
      </trkpt>
      <trkpt lat="48.34354" lon="7.02456">
        <ele>589</ele>
        <time>2022-04-05T23:03:56Z</time>
      </trkpt>
      <trkpt lat="48.34347" lon="7.02449">
        <ele>589</ele>
        <time>2022-04-05T23:03:57Z</time>
      </trkpt>
      <trkpt lat="48.34342" lon="7.02443">
        <ele>589</ele>
        <time>2022-04-05T23:03:59Z</time>
      </trkpt>
      <trkpt lat="48.34333" lon="7.02421">
        <ele>587</ele>
        <time>2022-04-05T23:04:02Z</time>
      </trkpt>
      <trkpt lat="48.34318" lon="7.02399">
        <ele>588</ele>
        <time>2022-04-05T23:04:05Z</time>
      </trkpt>
      <trkpt lat="48.34287" lon="7.02371">
        <ele>591</ele>
        <time>2022-04-05T23:04:12Z</time>
      </trkpt>
      <trkpt lat="48.34266" lon="7.02357">
        <ele>594</ele>
        <time>2022-04-05T23:04:16Z</time>
      </trkpt>
      <trkpt lat="48.34249" lon="7.02348">
        <ele>596</ele>
        <time>2022-04-05T23:04:19Z</time>
      </trkpt>
      <trkpt lat="48.34236" lon="7.02346">
        <ele>596</ele>
        <time>2022-04-05T23:04:21Z</time>
      </trkpt>
      <trkpt lat="48.34221" lon="7.02347">
        <ele>596</ele>
        <time>2022-04-05T23:04:24Z</time>
      </trkpt>
      <trkpt lat="48.34195" lon="7.02356">
        <ele>597</ele>
        <time>2022-04-05T23:04:29Z</time>
      </trkpt>
      <trkpt lat="48.34131" lon="7.02384">
        <ele>602</ele>
        <time>2022-04-05T23:04:41Z</time>
      </trkpt>
      <trkpt lat="48.341" lon="7.02399">
        <ele>605</ele>
        <time>2022-04-05T23:04:46Z</time>
      </trkpt>
      <trkpt lat="48.3407" lon="7.02414">
        <ele>608</ele>
        <time>2022-04-05T23:04:52Z</time>
      </trkpt>
      <trkpt lat="48.34048" lon="7.02423">
        <ele>610</ele>
        <time>2022-04-05T23:04:56Z</time>
      </trkpt>
      <trkpt lat="48.34026" lon="7.02435">
        <ele>612</ele>
        <time>2022-04-05T23:05:00Z</time>
      </trkpt>
      <trkpt lat="48.34014" lon="7.02448">
        <ele>612</ele>
        <time>2022-04-05T23:05:03Z</time>
      </trkpt>
      <trkpt lat="48.34004" lon="7.02465">
        <ele>612</ele>
        <time>2022-04-05T23:05:06Z</time>
      </trkpt>
      <trkpt lat="48.33999" lon="7.02486">
        <ele>612</ele>
        <time>2022-04-05T23:05:08Z</time>
      </trkpt>
      <trkpt lat="48.33995" lon="7.02512">
        <ele>611</ele>
        <time>2022-04-05T23:05:11Z</time>
      </trkpt>
      <trkpt lat="48.33993" lon="7.02546">
        <ele>611</ele>
        <time>2022-04-05T23:05:15Z</time>
      </trkpt>
      <trkpt lat="48.33987" lon="7.02842">
        <ele>624</ele>
        <time>2022-04-05T23:05:50Z</time>
      </trkpt>
      <trkpt lat="48.33984" lon="7.02908">
        <ele>625</ele>
        <time>2022-04-05T23:05:58Z</time>
      </trkpt>
      <trkpt lat="48.33978" lon="7.0298">
        <ele>629</ele>
        <time>2022-04-05T23:06:07Z</time>
      </trkpt>
      <trkpt lat="48.33958" lon="7.03109">
        <ele>634</ele>
        <time>2022-04-05T23:06:22Z</time>
      </trkpt>
      <trkpt lat="48.33952" lon="7.03158">
        <ele>634</ele>
        <time>2022-04-05T23:06:28Z</time>
      </trkpt>
      <trkpt lat="48.33952" lon="7.03191">
        <ele>633</ele>
        <time>2022-04-05T23:06:32Z</time>
      </trkpt>
      <trkpt lat="48.33957" lon="7.03218">
        <ele>634</ele>
        <time>2022-04-05T23:06:36Z</time>
      </trkpt>
      <trkpt lat="48.34033" lon="7.03575">
        <ele>648</ele>
        <time>2022-04-05T23:07:20Z</time>
      </trkpt>
      <trkpt lat="48.34033" lon="7.03596">
        <ele>648</ele>
        <time>2022-04-05T23:07:22Z</time>
      </trkpt>
      <trkpt lat="48.34023" lon="7.03683">
        <ele>645</ele>
        <time>2022-04-05T23:07:33Z</time>
      </trkpt>
      <trkpt lat="48.34017" lon="7.03816">
        <ele>650</ele>
        <time>2022-04-05T23:07:49Z</time>
      </trkpt>
      <trkpt lat="48.34019" lon="7.03841">
        <ele>650</ele>
        <time>2022-04-05T23:07:52Z</time>
      </trkpt>
      <trkpt lat="48.34026" lon="7.03865">
        <ele>651</ele>
        <time>2022-04-05T23:07:55Z</time>
      </trkpt>
      <trkpt lat="48.34044" lon="7.03917">
        <ele>652</ele>
        <time>2022-04-05T23:08:02Z</time>
      </trkpt>
      <trkpt lat="48.34053" lon="7.03937">
        <ele>653</ele>
        <time>2022-04-05T23:08:05Z</time>
      </trkpt>
      <trkpt lat="48.34069" lon="7.03958">
        <ele>655</ele>
        <time>2022-04-05T23:08:08Z</time>
      </trkpt>
      <trkpt lat="48.34093" lon="7.03977">
        <ele>658</ele>
        <time>2022-04-05T23:08:13Z</time>
      </trkpt>
      <trkpt lat="48.34131" lon="7.03991">
        <ele>667</ele>
        <time>2022-04-05T23:08:20Z</time>
      </trkpt>
      <trkpt lat="48.34162" lon="7.03997">
        <ele>674</ele>
        <time>2022-04-05T23:08:26Z</time>
      </trkpt>
      <trkpt lat="48.34189" lon="7.04019">
        <ele>677</ele>
        <time>2022-04-05T23:08:31Z</time>
      </trkpt>
      <trkpt lat="48.34199" lon="7.04054">
        <ele>678</ele>
        <time>2022-04-05T23:08:36Z</time>
      </trkpt>
      <trkpt lat="48.342" lon="7.04091">
        <ele>677</ele>
        <time>2022-04-05T23:08:40Z</time>
      </trkpt>
      <trkpt lat="48.34194" lon="7.04121">
        <ele>677</ele>
        <time>2022-04-05T23:08:44Z</time>
      </trkpt>
      <trkpt lat="48.34176" lon="7.04162">
        <ele>675</ele>
        <time>2022-04-05T23:08:49Z</time>
      </trkpt>
      <trkpt lat="48.34145" lon="7.04213">
        <ele>672</ele>
        <time>2022-04-05T23:08:58Z</time>
      </trkpt>
      <trkpt lat="48.34117" lon="7.04268">
        <ele>671</ele>
        <time>2022-04-05T23:09:06Z</time>
      </trkpt>
      <trkpt lat="48.34099" lon="7.04311">
        <ele>672</ele>
        <time>2022-04-05T23:09:12Z</time>
      </trkpt>
      <trkpt lat="48.34097" lon="7.04341">
        <ele>675</ele>
        <time>2022-04-05T23:09:15Z</time>
      </trkpt>
      <trkpt lat="48.34103" lon="7.04372">
        <ele>679</ele>
        <time>2022-04-05T23:09:19Z</time>
      </trkpt>
      <trkpt lat="48.34105" lon="7.0441">
        <ele>683</ele>
        <time>2022-04-05T23:09:24Z</time>
      </trkpt>
      <trkpt lat="48.34102" lon="7.04447">
        <ele>685</ele>
        <time>2022-04-05T23:09:28Z</time>
      </trkpt>
      <trkpt lat="48.34094" lon="7.04474">
        <ele>686</ele>
        <time>2022-04-05T23:09:32Z</time>
      </trkpt>
      <trkpt lat="48.34083" lon="7.04489">
        <ele>686</ele>
        <time>2022-04-05T23:09:34Z</time>
      </trkpt>
      <trkpt lat="48.34063" lon="7.04498">
        <ele>687</ele>
        <time>2022-04-05T23:09:38Z</time>
      </trkpt>
      <trkpt lat="48.34015" lon="7.04513">
        <ele>689</ele>
        <time>2022-04-05T23:09:47Z</time>
      </trkpt>
      <trkpt lat="48.33958" lon="7.04526">
        <ele>692</ele>
        <time>2022-04-05T23:09:57Z</time>
      </trkpt>
      <trkpt lat="48.33922" lon="7.04543">
        <ele>694</ele>
        <time>2022-04-05T23:10:04Z</time>
      </trkpt>
      <trkpt lat="48.33905" lon="7.04575">
        <ele>696</ele>
        <time>2022-04-05T23:10:09Z</time>
      </trkpt>
      <trkpt lat="48.33888" lon="7.04652">
        <ele>699</ele>
        <time>2022-04-05T23:10:18Z</time>
      </trkpt>
      <trkpt lat="48.33864" lon="7.04826">
        <ele>703</ele>
        <time>2022-04-05T23:10:39Z</time>
      </trkpt>
      <trkpt lat="48.33821" lon="7.04991">
        <ele>706</ele>
        <time>2022-04-05T23:11:00Z</time>
      </trkpt>
      <trkpt lat="48.3376" lon="7.0516">
        <ele>713</ele>
        <time>2022-04-05T23:11:23Z</time>
      </trkpt>
      <trkpt lat="48.33729" lon="7.05242">
        <ele>712</ele>
        <time>2022-04-05T23:11:34Z</time>
      </trkpt>
      <trkpt lat="48.33726" lon="7.05265">
        <ele>712</ele>
        <time>2022-04-05T23:11:37Z</time>
      </trkpt>
      <trkpt lat="48.33725" lon="7.05296">
        <ele>711</ele>
        <time>2022-04-05T23:11:40Z</time>
      </trkpt>
      <trkpt lat="48.3373" lon="7.05336">
        <ele>709</ele>
        <time>2022-04-05T23:11:45Z</time>
      </trkpt>
      <trkpt lat="48.33738" lon="7.05383">
        <ele>708</ele>
        <time>2022-04-05T23:11:51Z</time>
      </trkpt>
      <trkpt lat="48.33745" lon="7.05399">
        <ele>707</ele>
        <time>2022-04-05T23:11:53Z</time>
      </trkpt>
      <trkpt lat="48.33774" lon="7.05446">
        <ele>703</ele>
        <time>2022-04-05T23:12:01Z</time>
      </trkpt>
      <trkpt lat="48.33801" lon="7.05479">
        <ele>699</ele>
        <time>2022-04-05T23:12:07Z</time>
      </trkpt>
      <trkpt lat="48.33816" lon="7.05494">
        <ele>697</ele>
        <time>2022-04-05T23:12:10Z</time>
      </trkpt>
      <trkpt lat="48.3383" lon="7.05502">
        <ele>695</ele>
        <time>2022-04-05T23:12:13Z</time>
      </trkpt>
      <trkpt lat="48.33847" lon="7.05504">
        <ele>695</ele>
        <time>2022-04-05T23:12:16Z</time>
      </trkpt>
      <trkpt lat="48.33868" lon="7.05513">
        <ele>696</ele>
        <time>2022-04-05T23:12:20Z</time>
      </trkpt>
      <trkpt lat="48.33881" lon="7.05528">
        <ele>696</ele>
        <time>2022-04-05T23:12:23Z</time>
      </trkpt>
      <trkpt lat="48.33909" lon="7.05614">
        <ele>690</ele>
        <time>2022-04-05T23:12:34Z</time>
      </trkpt>
      <trkpt lat="48.33926" lon="7.05641">
        <ele>688</ele>
        <time>2022-04-05T23:12:39Z</time>
      </trkpt>
      <trkpt lat="48.33946" lon="7.05655">
        <ele>686</ele>
        <time>2022-04-05T23:12:42Z</time>
      </trkpt>
      <trkpt lat="48.33983" lon="7.0566">
        <ele>684</ele>
        <time>2022-04-05T23:12:49Z</time>
      </trkpt>
      <trkpt lat="48.34025" lon="7.05658">
        <ele>688</ele>
        <time>2022-04-05T23:12:57Z</time>
      </trkpt>
      <trkpt lat="48.34039" lon="7.05663">
        <ele>690</ele>
        <time>2022-04-05T23:12:59Z</time>
      </trkpt>
      <trkpt lat="48.34042" lon="7.05678">
        <ele>690</ele>
        <time>2022-04-05T23:13:01Z</time>
      </trkpt>
      <trkpt lat="48.34041" lon="7.05692">
        <ele>689</ele>
        <time>2022-04-05T23:13:03Z</time>
      </trkpt>
      <trkpt lat="48.34029" lon="7.05721">
        <ele>686</ele>
        <time>2022-04-05T23:13:07Z</time>
      </trkpt>
      <trkpt lat="48.34009" lon="7.05757">
        <ele>679</ele>
        <time>2022-04-05T23:13:12Z</time>
      </trkpt>
      <trkpt lat="48.33988" lon="7.058">
        <ele>677</ele>
        <time>2022-04-05T23:13:18Z</time>
      </trkpt>
      <trkpt lat="48.33978" lon="7.05832">
        <ele>677</ele>
        <time>2022-04-05T23:13:23Z</time>
      </trkpt>
      <trkpt lat="48.33966" lon="7.05895">
        <ele>675</ele>
        <time>2022-04-05T23:13:30Z</time>
      </trkpt>
      <trkpt lat="48.3394" lon="7.06105">
        <ele>668</ele>
        <time>2022-04-05T23:13:56Z</time>
      </trkpt>
      <trkpt lat="48.33927" lon="7.06161">
        <ele>664</ele>
        <time>2022-04-05T23:14:03Z</time>
      </trkpt>
      <trkpt lat="48.33923" lon="7.0622">
        <ele>661</ele>
        <time>2022-04-05T23:14:10Z</time>
      </trkpt>
      <trkpt lat="48.33927" lon="7.06236">
        <ele>660</ele>
        <time>2022-04-05T23:14:12Z</time>
      </trkpt>
      <trkpt lat="48.33938" lon="7.0626">
        <ele>658</ele>
        <time>2022-04-05T23:14:15Z</time>
      </trkpt>
      <trkpt lat="48.33953" lon="7.0628">
        <ele>655</ele>
        <time>2022-04-05T23:14:19Z</time>
      </trkpt>
      <trkpt lat="48.33968" lon="7.06288">
        <ele>654</ele>
        <time>2022-04-05T23:14:22Z</time>
      </trkpt>
      <trkpt lat="48.3398" lon="7.06287">
        <ele>653</ele>
        <time>2022-04-05T23:14:24Z</time>
      </trkpt>
      <trkpt lat="48.34013" lon="7.06267">
        <ele>657</ele>
        <time>2022-04-05T23:14:30Z</time>
      </trkpt>
      <trkpt lat="48.3402" lon="7.06266">
        <ele>658</ele>
        <time>2022-04-05T23:14:31Z</time>
      </trkpt>
      <trkpt lat="48.3403" lon="7.0627">
        <ele>659</ele>
        <time>2022-04-05T23:14:33Z</time>
      </trkpt>
      <trkpt lat="48.34035" lon="7.06281">
        <ele>658</ele>
        <time>2022-04-05T23:14:35Z</time>
      </trkpt>
      <trkpt lat="48.3404" lon="7.06297">
        <ele>657</ele>
        <time>2022-04-05T23:14:37Z</time>
      </trkpt>
      <trkpt lat="48.34043" lon="7.06352">
        <ele>652</ele>
        <time>2022-04-05T23:14:43Z</time>
      </trkpt>
      <trkpt lat="48.34047" lon="7.06382">
        <ele>649</ele>
        <time>2022-04-05T23:14:47Z</time>
      </trkpt>
      <trkpt lat="48.34052" lon="7.06404">
        <ele>647</ele>
        <time>2022-04-05T23:14:50Z</time>
      </trkpt>
      <trkpt lat="48.34059" lon="7.06426">
        <ele>645</ele>
        <time>2022-04-05T23:14:53Z</time>
      </trkpt>
      <trkpt lat="48.34073" lon="7.06458">
        <ele>642</ele>
        <time>2022-04-05T23:14:57Z</time>
      </trkpt>
      <trkpt lat="48.34112" lon="7.06541">
        <ele>642</ele>
        <time>2022-04-05T23:15:09Z</time>
      </trkpt>
      <trkpt lat="48.34117" lon="7.06556">
        <ele>642</ele>
        <time>2022-04-05T23:15:11Z</time>
      </trkpt>
      <trkpt lat="48.34117" lon="7.06577">
        <ele>640</ele>
        <time>2022-04-05T23:15:14Z</time>
      </trkpt>
      <trkpt lat="48.34115" lon="7.06589">
        <ele>639</ele>
        <time>2022-04-05T23:15:15Z</time>
      </trkpt>
      <trkpt lat="48.34109" lon="7.066">
        <ele>639</ele>
        <time>2022-04-05T23:15:17Z</time>
      </trkpt>
      <trkpt lat="48.34001" lon="7.06722">
        <ele>623</ele>
        <time>2022-04-05T23:15:41Z</time>
      </trkpt>
      <trkpt lat="48.33959" lon="7.06774">
        <ele>621</ele>
        <time>2022-04-05T23:15:50Z</time>
      </trkpt>
      <trkpt lat="48.33914" lon="7.06819">
        <ele>617</ele>
        <time>2022-04-05T23:16:00Z</time>
      </trkpt>
      <trkpt lat="48.33906" lon="7.06825">
        <ele>617</ele>
        <time>2022-04-05T23:16:02Z</time>
      </trkpt>
      <trkpt lat="48.33899" lon="7.06837">
        <ele>617</ele>
        <time>2022-04-05T23:16:04Z</time>
      </trkpt>
      <trkpt lat="48.33894" lon="7.0685">
        <ele>617</ele>
        <time>2022-04-05T23:16:05Z</time>
      </trkpt>
      <trkpt lat="48.33892" lon="7.06866">
        <ele>617</ele>
        <time>2022-04-05T23:16:07Z</time>
      </trkpt>
      <trkpt lat="48.33893" lon="7.06889">
        <ele>618</ele>
        <time>2022-04-05T23:16:10Z</time>
      </trkpt>
      <trkpt lat="48.33897" lon="7.06909">
        <ele>619</ele>
        <time>2022-04-05T23:16:12Z</time>
      </trkpt>
      <trkpt lat="48.3391" lon="7.06964">
        <ele>620</ele>
        <time>2022-04-05T23:16:19Z</time>
      </trkpt>
      <trkpt lat="48.33925" lon="7.07004">
        <ele>620</ele>
        <time>2022-04-05T23:16:25Z</time>
      </trkpt>
      <trkpt lat="48.33933" lon="7.07018">
        <ele>619</ele>
        <time>2022-04-05T23:16:27Z</time>
      </trkpt>
      <trkpt lat="48.3395" lon="7.07049">
        <ele>618</ele>
        <time>2022-04-05T23:16:32Z</time>
      </trkpt>
      <trkpt lat="48.3397" lon="7.07081">
        <ele>615</ele>
        <time>2022-04-05T23:16:37Z</time>
      </trkpt>
      <trkpt lat="48.33981" lon="7.07092">
        <ele>614</ele>
        <time>2022-04-05T23:16:39Z</time>
      </trkpt>
      <trkpt lat="48.34093" lon="7.07139">
        <ele>613</ele>
        <time>2022-04-05T23:17:00Z</time>
      </trkpt>
      <trkpt lat="48.3419" lon="7.07193">
        <ele>620</ele>
        <time>2022-04-05T23:17:18Z</time>
      </trkpt>
      <trkpt lat="48.34207" lon="7.07203">
        <ele>621</ele>
        <time>2022-04-05T23:17:22Z</time>
      </trkpt>
      <trkpt lat="48.34217" lon="7.07219">
        <ele>620</ele>
        <time>2022-04-05T23:17:24Z</time>
      </trkpt>
      <trkpt lat="48.34221" lon="7.07232">
        <ele>617</ele>
        <time>2022-04-05T23:17:26Z</time>
      </trkpt>
      <trkpt lat="48.34222" lon="7.07245">
        <ele>615</ele>
        <time>2022-04-05T23:17:27Z</time>
      </trkpt>
      <trkpt lat="48.34222" lon="7.07258">
        <ele>614</ele>
        <time>2022-04-05T23:17:29Z</time>
      </trkpt>
      <trkpt lat="48.34217" lon="7.07292">
        <ele>615</ele>
        <time>2022-04-05T23:17:33Z</time>
      </trkpt>
      <trkpt lat="48.34199" lon="7.07383">
        <ele>617</ele>
        <time>2022-04-05T23:17:44Z</time>
      </trkpt>
      <trkpt lat="48.34197" lon="7.07414">
        <ele>618</ele>
        <time>2022-04-05T23:17:48Z</time>
      </trkpt>
      <trkpt lat="48.34197" lon="7.07473">
        <ele>619</ele>
        <time>2022-04-05T23:17:55Z</time>
      </trkpt>
      <trkpt lat="48.34193" lon="7.07515">
        <ele>618</ele>
        <time>2022-04-05T23:18:00Z</time>
      </trkpt>
      <trkpt lat="48.34183" lon="7.07575">
        <ele>619</ele>
        <time>2022-04-05T23:18:07Z</time>
      </trkpt>
      <trkpt lat="48.3418" lon="7.07616">
        <ele>620</ele>
        <time>2022-04-05T23:18:12Z</time>
      </trkpt>
      <trkpt lat="48.34181" lon="7.07648">
        <ele>621</ele>
        <time>2022-04-05T23:18:16Z</time>
      </trkpt>
      <trkpt lat="48.34199" lon="7.07777">
        <ele>626</ele>
        <time>2022-04-05T23:18:32Z</time>
      </trkpt>
      <trkpt lat="48.34206" lon="7.07804">
        <ele>627</ele>
        <time>2022-04-05T23:18:35Z</time>
      </trkpt>
      <trkpt lat="48.34216" lon="7.07824">
        <ele>628</ele>
        <time>2022-04-05T23:18:38Z</time>
      </trkpt>
      <trkpt lat="48.34228" lon="7.07842">
        <ele>628</ele>
        <time>2022-04-05T23:18:41Z</time>
      </trkpt>
      <trkpt lat="48.34278" lon="7.07904">
        <ele>631</ele>
        <time>2022-04-05T23:18:53Z</time>
      </trkpt>
      <trkpt lat="48.34299" lon="7.07927">
        <ele>631</ele>
        <time>2022-04-05T23:18:57Z</time>
      </trkpt>
      <trkpt lat="48.34312" lon="7.07934">
        <ele>631</ele>
        <time>2022-04-05T23:19:00Z</time>
      </trkpt>
      <trkpt lat="48.3433" lon="7.07938">
        <ele>632</ele>
        <time>2022-04-05T23:19:03Z</time>
      </trkpt>
      <trkpt lat="48.34366" lon="7.07942">
        <ele>637</ele>
        <time>2022-04-05T23:19:09Z</time>
      </trkpt>
      <trkpt lat="48.34377" lon="7.07947">
        <ele>638</ele>
        <time>2022-04-05T23:19:11Z</time>
      </trkpt>
      <trkpt lat="48.34384" lon="7.07957">
        <ele>638</ele>
        <time>2022-04-05T23:19:13Z</time>
      </trkpt>
      <trkpt lat="48.34387" lon="7.0797">
        <ele>638</ele>
        <time>2022-04-05T23:19:15Z</time>
      </trkpt>
      <trkpt lat="48.34388" lon="7.07986">
        <ele>637</ele>
        <time>2022-04-05T23:19:17Z</time>
      </trkpt>
      <trkpt lat="48.34384" lon="7.08008">
        <ele>636</ele>
        <time>2022-04-05T23:19:19Z</time>
      </trkpt>
      <trkpt lat="48.34376" lon="7.08023">
        <ele>636</ele>
        <time>2022-04-05T23:19:22Z</time>
      </trkpt>
      <trkpt lat="48.34361" lon="7.0804">
        <ele>635</ele>
        <time>2022-04-05T23:19:25Z</time>
      </trkpt>
      <trkpt lat="48.34353" lon="7.08054">
        <ele>634</ele>
        <time>2022-04-05T23:19:27Z</time>
      </trkpt>
      <trkpt lat="48.34341" lon="7.08085">
        <ele>633</ele>
        <time>2022-04-05T23:19:31Z</time>
      </trkpt>
      <trkpt lat="48.3433" lon="7.08119">
        <ele>634</ele>
        <time>2022-04-05T23:19:36Z</time>
      </trkpt>
      <trkpt lat="48.34318" lon="7.08147">
        <ele>634</ele>
        <time>2022-04-05T23:19:40Z</time>
      </trkpt>
      <trkpt lat="48.34286" lon="7.08202">
        <ele>631</ele>
        <time>2022-04-05T23:19:48Z</time>
      </trkpt>
      <trkpt lat="48.34235" lon="7.08282">
        <ele>628</ele>
        <time>2022-04-05T23:20:01Z</time>
      </trkpt>
      <trkpt lat="48.34188" lon="7.08365">
        <ele>623</ele>
        <time>2022-04-05T23:20:14Z</time>
      </trkpt>
      <trkpt lat="48.34173" lon="7.08405">
        <ele>623</ele>
        <time>2022-04-05T23:20:20Z</time>
      </trkpt>
      <trkpt lat="48.34169" lon="7.08422">
        <ele>623</ele>
        <time>2022-04-05T23:20:22Z</time>
      </trkpt>
      <trkpt lat="48.34167" lon="7.08439">
        <ele>623</ele>
        <time>2022-04-05T23:20:24Z</time>
      </trkpt>
      <trkpt lat="48.34168" lon="7.08474">
        <ele>622</ele>
        <time>2022-04-05T23:20:28Z</time>
      </trkpt>
      <trkpt lat="48.34171" lon="7.08507">
        <ele>621</ele>
        <time>2022-04-05T23:20:32Z</time>
      </trkpt>
      <trkpt lat="48.34185" lon="7.0859">
        <ele>615</ele>
        <time>2022-04-05T23:20:42Z</time>
      </trkpt>
      <trkpt lat="48.34198" lon="7.08638">
        <ele>611</ele>
        <time>2022-04-05T23:20:48Z</time>
      </trkpt>
      <trkpt lat="48.34218" lon="7.08682">
        <ele>609</ele>
        <time>2022-04-05T23:20:55Z</time>
      </trkpt>
      <trkpt lat="48.34244" lon="7.08733">
        <ele>608</ele>
        <time>2022-04-05T23:21:02Z</time>
      </trkpt>
      <trkpt lat="48.34279" lon="7.08795">
        <ele>612</ele>
        <time>2022-04-05T23:21:12Z</time>
      </trkpt>
      <trkpt lat="48.34301" lon="7.08859">
        <ele>611</ele>
        <time>2022-04-05T23:21:20Z</time>
      </trkpt>
      <trkpt lat="48.34369" lon="7.09026">
        <ele>611</ele>
        <time>2022-04-05T23:21:44Z</time>
      </trkpt>
      <trkpt lat="48.34373" lon="7.09042">
        <ele>611</ele>
        <time>2022-04-05T23:21:46Z</time>
      </trkpt>
      <trkpt lat="48.34381" lon="7.09129">
        <ele>606</ele>
        <time>2022-04-05T23:21:56Z</time>
      </trkpt>
      <trkpt lat="48.34386" lon="7.09151">
        <ele>605</ele>
        <time>2022-04-05T23:21:59Z</time>
      </trkpt>
      <trkpt lat="48.34404" lon="7.09196">
        <ele>603</ele>
        <time>2022-04-05T23:22:05Z</time>
      </trkpt>
      <trkpt lat="48.34421" lon="7.0923">
        <ele>602</ele>
        <time>2022-04-05T23:22:10Z</time>
      </trkpt>
      <trkpt lat="48.34444" lon="7.09266">
        <ele>600</ele>
        <time>2022-04-05T23:22:16Z</time>
      </trkpt>
      <trkpt lat="48.34575" lon="7.09429">
        <ele>592</ele>
        <time>2022-04-05T23:22:46Z</time>
      </trkpt>
      <trkpt lat="48.34597" lon="7.09472">
        <ele>590</ele>
        <time>2022-04-05T23:22:52Z</time>
      </trkpt>
      <trkpt lat="48.34628" lon="7.09544">
        <ele>587</ele>
        <time>2022-04-05T23:23:03Z</time>
      </trkpt>
      <trkpt lat="48.34641" lon="7.09569">
        <ele>587</ele>
        <time>2022-04-05T23:23:06Z</time>
      </trkpt>
      <trkpt lat="48.34654" lon="7.09598">
        <ele>587</ele>
        <time>2022-04-05T23:23:11Z</time>
      </trkpt>
      <trkpt lat="48.34661" lon="7.09614">
        <ele>587</ele>
        <time>2022-04-05T23:23:13Z</time>
      </trkpt>
      <trkpt lat="48.34674" lon="7.0965">
        <ele>586</ele>
        <time>2022-04-05T23:23:18Z</time>
      </trkpt>
      <trkpt lat="48.34686" lon="7.09696">
        <ele>584</ele>
        <time>2022-04-05T23:23:23Z</time>
      </trkpt>
      <trkpt lat="48.34709" lon="7.09806">
        <ele>583</ele>
        <time>2022-04-05T23:23:37Z</time>
      </trkpt>
      <trkpt lat="48.34712" lon="7.09822">
        <ele>583</ele>
        <time>2022-04-05T23:23:39Z</time>
      </trkpt>
      <trkpt lat="48.34723" lon="7.09858">
        <ele>582</ele>
        <time>2022-04-05T23:23:44Z</time>
      </trkpt>
      <trkpt lat="48.34725" lon="7.09885">
        <ele>582</ele>
        <time>2022-04-05T23:23:47Z</time>
      </trkpt>
      <trkpt lat="48.34732" lon="7.09971">
        <ele>581</ele>
        <time>2022-04-05T23:23:57Z</time>
      </trkpt>
      <trkpt lat="48.34746" lon="7.10131">
        <ele>575</ele>
        <time>2022-04-05T23:24:16Z</time>
      </trkpt>
      <trkpt lat="48.34758" lon="7.10231">
        <ele>570</ele>
        <time>2022-04-05T23:24:28Z</time>
      </trkpt>
      <trkpt lat="48.34772" lon="7.10319">
        <ele>568</ele>
        <time>2022-04-05T23:24:39Z</time>
      </trkpt>
      <trkpt lat="48.34797" lon="7.10429">
        <ele>562</ele>
        <time>2022-04-05T23:24:53Z</time>
      </trkpt>
      <trkpt lat="48.34813" lon="7.105">
        <ele>560</ele>
        <time>2022-04-05T23:25:02Z</time>
      </trkpt>
      <trkpt lat="48.34813" lon="7.10508">
        <ele>560</ele>
        <time>2022-04-05T23:25:03Z</time>
      </trkpt>
      <trkpt lat="48.34812" lon="7.10532">
        <ele>560</ele>
        <time>2022-04-05T23:25:05Z</time>
      </trkpt>
      <trkpt lat="48.34812" lon="7.10551">
        <ele>560</ele>
        <time>2022-04-05T23:25:08Z</time>
      </trkpt>
      <trkpt lat="48.34816" lon="7.10568">
        <ele>560</ele>
        <time>2022-04-05T23:25:10Z</time>
      </trkpt>
      <trkpt lat="48.34822" lon="7.10584">
        <ele>560</ele>
        <time>2022-04-05T23:25:12Z</time>
      </trkpt>
      <trkpt lat="48.34833" lon="7.10608">
        <ele>559</ele>
        <time>2022-04-05T23:25:15Z</time>
      </trkpt>
      <trkpt lat="48.34842" lon="7.10637">
        <ele>559</ele>
        <time>2022-04-05T23:25:19Z</time>
      </trkpt>
      <trkpt lat="48.34847" lon="7.10679">
        <ele>558</ele>
        <time>2022-04-05T23:25:24Z</time>
      </trkpt>
      <trkpt lat="48.34846" lon="7.10682">
        <ele>557</ele>
        <time>2022-04-05T23:25:25Z</time>
      </trkpt>
      <trkpt lat="48.34847" lon="7.10679">
        <ele>558</ele>
        <time>2022-04-05T23:25:25Z</time>
      </trkpt>
      <trkpt lat="48.34876" lon="7.10593">
        <ele>559</ele>
        <time>2022-04-05T23:25:36Z</time>
      </trkpt>
      <trkpt lat="48.34885" lon="7.10598">
        <ele>559</ele>
        <time>2022-04-05T23:25:38Z</time>
      </trkpt>
      <trkpt lat="48.34916" lon="7.10621">
        <ele>558</ele>
        <time>2022-04-05T23:25:44Z</time>
      </trkpt>
      <trkpt lat="48.34966" lon="7.10662">
        <ele>556</ele>
        <time>2022-04-05T23:25:54Z</time>
      </trkpt>
      <trkpt lat="48.34997" lon="7.1063">
        <ele>556</ele>
        <time>2022-04-05T23:26:01Z</time>
      </trkpt>
      <trkpt lat="48.35028" lon="7.10619">
        <ele>558</ele>
        <time>2022-04-05T23:26:07Z</time>
      </trkpt>
      <trkpt lat="48.35051" lon="7.10628">
        <ele>559</ele>
        <time>2022-04-05T23:26:11Z</time>
      </trkpt>
      <trkpt lat="48.35069" lon="7.10646">
        <ele>558</ele>
        <time>2022-04-05T23:26:15Z</time>
      </trkpt>
      <trkpt lat="48.35083" lon="7.10654">
        <ele>559</ele>
        <time>2022-04-05T23:26:18Z</time>
      </trkpt>
      <trkpt lat="48.35106" lon="7.10646">
        <ele>560</ele>
        <time>2022-04-05T23:26:22Z</time>
      </trkpt>
      <trkpt lat="48.35158" lon="7.10609">
        <ele>564</ele>
        <time>2022-04-05T23:26:32Z</time>
      </trkpt>
      <trkpt lat="48.35208" lon="7.10581">
        <ele>567</ele>
        <time>2022-04-05T23:26:41Z</time>
      </trkpt>
      <trkpt lat="48.35225" lon="7.10572">
        <ele>569</ele>
        <time>2022-04-05T23:26:45Z</time>
      </trkpt>
      <trkpt lat="48.35245" lon="7.1057">
        <ele>570</ele>
        <time>2022-04-05T23:26:48Z</time>
      </trkpt>
      <trkpt lat="48.35266" lon="7.10574">
        <ele>570</ele>
        <time>2022-04-05T23:26:52Z</time>
      </trkpt>
      <trkpt lat="48.35316" lon="7.106">
        <ele>568</ele>
        <time>2022-04-05T23:27:01Z</time>
      </trkpt>
      <trkpt lat="48.35333" lon="7.10605">
        <ele>568</ele>
        <time>2022-04-05T23:27:04Z</time>
      </trkpt>
      <trkpt lat="48.35355" lon="7.10601">
        <ele>570</ele>
        <time>2022-04-05T23:27:08Z</time>
      </trkpt>
      <trkpt lat="48.3539" lon="7.10575">
        <ele>578</ele>
        <time>2022-04-05T23:27:15Z</time>
      </trkpt>
      <trkpt lat="48.35414" lon="7.10577">
        <ele>579</ele>
        <time>2022-04-05T23:27:20Z</time>
      </trkpt>
      <trkpt lat="48.35451" lon="7.10588">
        <ele>582</ele>
        <time>2022-04-05T23:27:26Z</time>
      </trkpt>
      <trkpt lat="48.35474" lon="7.10588">
        <ele>586</ele>
        <time>2022-04-05T23:27:30Z</time>
      </trkpt>
      <trkpt lat="48.35526" lon="7.10576">
        <ele>592</ele>
        <time>2022-04-05T23:27:40Z</time>
      </trkpt>
      <trkpt lat="48.35564" lon="7.10577">
        <ele>592</ele>
        <time>2022-04-05T23:27:47Z</time>
      </trkpt>
      <trkpt lat="48.35635" lon="7.10519">
        <ele>598</ele>
        <time>2022-04-05T23:28:01Z</time>
      </trkpt>
      <trkpt lat="48.35662" lon="7.10483">
        <ele>599</ele>
        <time>2022-04-05T23:28:07Z</time>
      </trkpt>
      <trkpt lat="48.35679" lon="7.10443">
        <ele>602</ele>
        <time>2022-04-05T23:28:13Z</time>
      </trkpt>
      <trkpt lat="48.357" lon="7.1037">
        <ele>607</ele>
        <time>2022-04-05T23:28:22Z</time>
      </trkpt>
      <trkpt lat="48.3573" lon="7.10311">
        <ele>606</ele>
        <time>2022-04-05T23:28:31Z</time>
      </trkpt>
      <trkpt lat="48.35772" lon="7.10198">
        <ele>610</ele>
        <time>2022-04-05T23:28:46Z</time>
      </trkpt>
      <trkpt lat="48.35787" lon="7.10185">
        <ele>611</ele>
        <time>2022-04-05T23:28:50Z</time>
      </trkpt>
      <trkpt lat="48.35805" lon="7.10179">
        <ele>612</ele>
        <time>2022-04-05T23:28:53Z</time>
      </trkpt>
      <trkpt lat="48.35822" lon="7.10183">
        <ele>611</ele>
        <time>2022-04-05T23:28:56Z</time>
      </trkpt>
      <trkpt lat="48.35963" lon="7.1027">
        <ele>616</ele>
        <time>2022-04-05T23:29:23Z</time>
      </trkpt>
      <trkpt lat="48.3598" lon="7.10285">
        <ele>618</ele>
        <time>2022-04-05T23:29:27Z</time>
      </trkpt>
      <trkpt lat="48.35993" lon="7.10303">
        <ele>619</ele>
        <time>2022-04-05T23:29:30Z</time>
      </trkpt>
      <trkpt lat="48.36004" lon="7.10322">
        <ele>620</ele>
        <time>2022-04-05T23:29:33Z</time>
      </trkpt>
      <trkpt lat="48.3601" lon="7.10339">
        <ele>621</ele>
        <time>2022-04-05T23:29:35Z</time>
      </trkpt>
      <trkpt lat="48.36014" lon="7.10355">
        <ele>622</ele>
        <time>2022-04-05T23:29:37Z</time>
      </trkpt>
      <trkpt lat="48.36015" lon="7.10377">
        <ele>623</ele>
        <time>2022-04-05T23:29:40Z</time>
      </trkpt>
      <trkpt lat="48.36014" lon="7.10423">
        <ele>623</ele>
        <time>2022-04-05T23:29:45Z</time>
      </trkpt>
      <trkpt lat="48.36017" lon="7.10446">
        <ele>623</ele>
        <time>2022-04-05T23:29:48Z</time>
      </trkpt>
      <trkpt lat="48.36025" lon="7.10471">
        <ele>624</ele>
        <time>2022-04-05T23:29:51Z</time>
      </trkpt>
      <trkpt lat="48.36039" lon="7.10498">
        <ele>626</ele>
        <time>2022-04-05T23:29:55Z</time>
      </trkpt>
      <trkpt lat="48.36069" lon="7.10539">
        <ele>629</ele>
        <time>2022-04-05T23:30:02Z</time>
      </trkpt>
      <trkpt lat="48.3609" lon="7.10558">
        <ele>632</ele>
        <time>2022-04-05T23:30:07Z</time>
      </trkpt>
      <trkpt lat="48.36106" lon="7.10567">
        <ele>632</ele>
        <time>2022-04-05T23:30:10Z</time>
      </trkpt>
      <trkpt lat="48.36123" lon="7.10573">
        <ele>632</ele>
        <time>2022-04-05T23:30:13Z</time>
      </trkpt>
      <trkpt lat="48.36141" lon="7.10575">
        <ele>633</ele>
        <time>2022-04-05T23:30:16Z</time>
      </trkpt>
      <trkpt lat="48.3616" lon="7.10569">
        <ele>634</ele>
        <time>2022-04-05T23:30:19Z</time>
      </trkpt>
      <trkpt lat="48.36191" lon="7.10551">
        <ele>635</ele>
        <time>2022-04-05T23:30:25Z</time>
      </trkpt>
      <trkpt lat="48.36218" lon="7.10521">
        <ele>637</ele>
        <time>2022-04-05T23:30:31Z</time>
      </trkpt>
      <trkpt lat="48.36243" lon="7.10476">
        <ele>644</ele>
        <time>2022-04-05T23:30:38Z</time>
      </trkpt>
      <trkpt lat="48.36261" lon="7.10447">
        <ele>650</ele>
        <time>2022-04-05T23:30:43Z</time>
      </trkpt>
      <trkpt lat="48.36273" lon="7.10441">
        <ele>653</ele>
        <time>2022-04-05T23:30:45Z</time>
      </trkpt>
      <trkpt lat="48.36286" lon="7.10438">
        <ele>655</ele>
        <time>2022-04-05T23:30:48Z</time>
      </trkpt>
      <trkpt lat="48.36373" lon="7.10477">
        <ele>653</ele>
        <time>2022-04-05T23:31:04Z</time>
      </trkpt>
      <trkpt lat="48.36424" lon="7.1051">
        <ele>652</ele>
        <time>2022-04-05T23:31:14Z</time>
      </trkpt>
      <trkpt lat="48.36455" lon="7.10539">
        <ele>652</ele>
        <time>2022-04-05T23:31:20Z</time>
      </trkpt>
      <trkpt lat="48.36467" lon="7.10542">
        <ele>654</ele>
        <time>2022-04-05T23:31:22Z</time>
      </trkpt>
      <trkpt lat="48.3648" lon="7.1054">
        <ele>656</ele>
        <time>2022-04-05T23:31:25Z</time>
      </trkpt>
      <trkpt lat="48.36513" lon="7.10527">
        <ele>664</ele>
        <time>2022-04-05T23:31:31Z</time>
      </trkpt>
      <trkpt lat="48.36525" lon="7.10531">
        <ele>668</ele>
        <time>2022-04-05T23:31:33Z</time>
      </trkpt>
      <trkpt lat="48.36533" lon="7.10542">
        <ele>670</ele>
        <time>2022-04-05T23:31:35Z</time>
      </trkpt>
      <trkpt lat="48.36535" lon="7.10559">
        <ele>670</ele>
        <time>2022-04-05T23:31:37Z</time>
      </trkpt>
      <trkpt lat="48.36532" lon="7.10578">
        <ele>669</ele>
        <time>2022-04-05T23:31:39Z</time>
      </trkpt>
      <trkpt lat="48.36496" lon="7.10638">
        <ele>662</ele>
        <time>2022-04-05T23:31:49Z</time>
      </trkpt>
      <trkpt lat="48.3646" lon="7.10703">
        <ele>662</ele>
        <time>2022-04-05T23:31:59Z</time>
      </trkpt>
      <trkpt lat="48.3644" lon="7.10761">
        <ele>665</ele>
        <time>2022-04-05T23:32:06Z</time>
      </trkpt>
      <trkpt lat="48.36429" lon="7.10827">
        <ele>668</ele>
        <time>2022-04-05T23:32:14Z</time>
      </trkpt>
      <trkpt lat="48.36421" lon="7.10954">
        <ele>674</ele>
        <time>2022-04-05T23:32:30Z</time>
      </trkpt>
      <trkpt lat="48.36426" lon="7.11001">
        <ele>679</ele>
        <time>2022-04-05T23:32:35Z</time>
      </trkpt>
      <trkpt lat="48.36427" lon="7.11028">
        <ele>680</ele>
        <time>2022-04-05T23:32:38Z</time>
      </trkpt>
      <trkpt lat="48.36421" lon="7.11122">
        <ele>680</ele>
        <time>2022-04-05T23:32:50Z</time>
      </trkpt>
      <trkpt lat="48.36421" lon="7.11222">
        <ele>683</ele>
        <time>2022-04-05T23:33:01Z</time>
      </trkpt>
      <trkpt lat="48.36419" lon="7.11263">
        <ele>686</ele>
        <time>2022-04-05T23:33:06Z</time>
      </trkpt>
      <trkpt lat="48.36415" lon="7.11292">
        <ele>690</ele>
        <time>2022-04-05T23:33:10Z</time>
      </trkpt>
      <trkpt lat="48.36417" lon="7.11311">
        <ele>695</ele>
        <time>2022-04-05T23:33:12Z</time>
      </trkpt>
      <trkpt lat="48.36424" lon="7.11323">
        <ele>700</ele>
        <time>2022-04-05T23:33:14Z</time>
      </trkpt>
      <trkpt lat="48.36433" lon="7.11326">
        <ele>704</ele>
        <time>2022-04-05T23:33:16Z</time>
      </trkpt>
      <trkpt lat="48.36442" lon="7.1132">
        <ele>706</ele>
        <time>2022-04-05T23:33:17Z</time>
      </trkpt>
      <trkpt lat="48.36448" lon="7.11307">
        <ele>707</ele>
        <time>2022-04-05T23:33:19Z</time>
      </trkpt>
      <trkpt lat="48.36449" lon="7.1129">
        <ele>705</ele>
        <time>2022-04-05T23:33:21Z</time>
      </trkpt>
      <trkpt lat="48.36446" lon="7.1124">
        <ele>697</ele>
        <time>2022-04-05T23:33:27Z</time>
      </trkpt>
      <trkpt lat="48.36449" lon="7.11195">
        <ele>698</ele>
        <time>2022-04-05T23:33:32Z</time>
      </trkpt>
      <trkpt lat="48.36462" lon="7.1112">
        <ele>703</ele>
        <time>2022-04-05T23:33:42Z</time>
      </trkpt>
      <trkpt lat="48.36493" lon="7.10969">
        <ele>708</ele>
        <time>2022-04-05T23:34:00Z</time>
      </trkpt>
      <trkpt lat="48.36507" lon="7.10932">
        <ele>710</ele>
        <time>2022-04-05T23:34:05Z</time>
      </trkpt>
      <trkpt lat="48.36525" lon="7.10898">
        <ele>714</ele>
        <time>2022-04-05T23:34:10Z</time>
      </trkpt>
      <trkpt lat="48.36608" lon="7.10789">
        <ele>729</ele>
        <time>2022-04-05T23:34:30Z</time>
      </trkpt>
      <trkpt lat="48.36634" lon="7.10738">
        <ele>729</ele>
        <time>2022-04-05T23:34:38Z</time>
      </trkpt>
      <trkpt lat="48.36648" lon="7.10719">
        <ele>731</ele>
        <time>2022-04-05T23:34:41Z</time>
      </trkpt>
      <trkpt lat="48.3667" lon="7.107">
        <ele>734</ele>
        <time>2022-04-05T23:34:46Z</time>
      </trkpt>
      <trkpt lat="48.36763" lon="7.10644">
        <ele>743</ele>
        <time>2022-04-05T23:35:03Z</time>
      </trkpt>
      <trkpt lat="48.36823" lon="7.10597">
        <ele>746</ele>
        <time>2022-04-05T23:35:15Z</time>
      </trkpt>
      <trkpt lat="48.36841" lon="7.10586">
        <ele>747</ele>
        <time>2022-04-05T23:35:19Z</time>
      </trkpt>
      <trkpt lat="48.36867" lon="7.10576">
        <ele>748</ele>
        <time>2022-04-05T23:35:24Z</time>
      </trkpt>
      <trkpt lat="48.36899" lon="7.10567">
        <ele>750</ele>
        <time>2022-04-05T23:35:29Z</time>
      </trkpt>
      <trkpt lat="48.36925" lon="7.10555">
        <ele>751</ele>
        <time>2022-04-05T23:35:34Z</time>
      </trkpt>
      <trkpt lat="48.36947" lon="7.10533">
        <ele>751</ele>
        <time>2022-04-05T23:35:39Z</time>
      </trkpt>
      <trkpt lat="48.37014" lon="7.10454">
        <ele>754</ele>
        <time>2022-04-05T23:35:54Z</time>
      </trkpt>
      <trkpt lat="48.37044" lon="7.10406">
        <ele>758</ele>
        <time>2022-04-05T23:36:02Z</time>
      </trkpt>
      <trkpt lat="48.37089" lon="7.10296">
        <ele>767</ele>
        <time>2022-04-05T23:36:17Z</time>
      </trkpt>
      <trkpt lat="48.37114" lon="7.10266">
        <ele>770</ele>
        <time>2022-04-05T23:36:23Z</time>
      </trkpt>
      <trkpt lat="48.37155" lon="7.10251">
        <ele>773</ele>
        <time>2022-04-05T23:36:30Z</time>
      </trkpt>
      <trkpt lat="48.37182" lon="7.10227">
        <ele>774</ele>
        <time>2022-04-05T23:36:36Z</time>
      </trkpt>
      <trkpt lat="48.372" lon="7.10191">
        <ele>774</ele>
        <time>2022-04-05T23:36:41Z</time>
      </trkpt>
      <trkpt lat="48.37239" lon="7.10031">
        <ele>775</ele>
        <time>2022-04-05T23:37:01Z</time>
      </trkpt>
      <trkpt lat="48.373" lon="7.0993">
        <ele>775</ele>
        <time>2022-04-05T23:37:18Z</time>
      </trkpt>
      <trkpt lat="48.37345" lon="7.0986">
        <ele>774</ele>
        <time>2022-04-05T23:37:29Z</time>
      </trkpt>
      <trkpt lat="48.37359" lon="7.09831">
        <ele>774</ele>
        <time>2022-04-05T23:37:33Z</time>
      </trkpt>
      <trkpt lat="48.37373" lon="7.09795">
        <ele>774</ele>
        <time>2022-04-05T23:37:38Z</time>
      </trkpt>
      <trkpt lat="48.37408" lon="7.09639">
        <ele>777</ele>
        <time>2022-04-05T23:37:58Z</time>
      </trkpt>
      <trkpt lat="48.37422" lon="7.09591">
        <ele>779</ele>
        <time>2022-04-05T23:38:04Z</time>
      </trkpt>
      <trkpt lat="48.37433" lon="7.09569">
        <ele>779</ele>
        <time>2022-04-05T23:38:07Z</time>
      </trkpt>
      <trkpt lat="48.37445" lon="7.09552">
        <ele>780</ele>
        <time>2022-04-05T23:38:10Z</time>
      </trkpt>
      <trkpt lat="48.37468" lon="7.09534">
        <ele>781</ele>
        <time>2022-04-05T23:38:15Z</time>
      </trkpt>
      <trkpt lat="48.37482" lon="7.09529">
        <ele>782</ele>
        <time>2022-04-05T23:38:17Z</time>
      </trkpt>
      <trkpt lat="48.37498" lon="7.09527">
        <ele>782</ele>
        <time>2022-04-05T23:38:20Z</time>
      </trkpt>
      <trkpt lat="48.37516" lon="7.09529">
        <ele>783</ele>
        <time>2022-04-05T23:38:23Z</time>
      </trkpt>
      <trkpt lat="48.37609" lon="7.09554">
        <ele>783</ele>
        <time>2022-04-05T23:38:40Z</time>
      </trkpt>
      <trkpt lat="48.37722" lon="7.09588">
        <ele>779</ele>
        <time>2022-04-05T23:39:01Z</time>
      </trkpt>
      <trkpt lat="48.37808" lon="7.09611">
        <ele>775</ele>
        <time>2022-04-05T23:39:16Z</time>
      </trkpt>
      <trkpt lat="48.37829" lon="7.0962">
        <ele>774</ele>
        <time>2022-04-05T23:39:20Z</time>
      </trkpt>
      <trkpt lat="48.3795" lon="7.09678">
        <ele>773</ele>
        <time>2022-04-05T23:39:43Z</time>
      </trkpt>
      <trkpt lat="48.37974" lon="7.09694">
        <ele>773</ele>
        <time>2022-04-05T23:39:47Z</time>
      </trkpt>
      <trkpt lat="48.38075" lon="7.0978">
        <ele>774</ele>
        <time>2022-04-05T23:40:08Z</time>
      </trkpt>
      <trkpt lat="48.38093" lon="7.09786">
        <ele>775</ele>
        <time>2022-04-05T23:40:11Z</time>
      </trkpt>
      <trkpt lat="48.38108" lon="7.09787">
        <ele>775</ele>
        <time>2022-04-05T23:40:14Z</time>
      </trkpt>
      <trkpt lat="48.38126" lon="7.09785">
        <ele>774</ele>
        <time>2022-04-05T23:40:17Z</time>
      </trkpt>
      <trkpt lat="48.38143" lon="7.09777">
        <ele>773</ele>
        <time>2022-04-05T23:40:20Z</time>
      </trkpt>
      <trkpt lat="48.38273" lon="7.09685">
        <ele>778</ele>
        <time>2022-04-05T23:40:46Z</time>
      </trkpt>
      <trkpt lat="48.38402" lon="7.09565">
        <ele>774</ele>
        <time>2022-04-05T23:41:13Z</time>
      </trkpt>
      <trkpt lat="48.38485" lon="7.09511">
        <ele>771</ele>
        <time>2022-04-05T23:41:29Z</time>
      </trkpt>
      <trkpt lat="48.38529" lon="7.09486">
        <ele>766</ele>
        <time>2022-04-05T23:41:37Z</time>
      </trkpt>
      <trkpt lat="48.38552" lon="7.09477">
        <ele>764</ele>
        <time>2022-04-05T23:41:41Z</time>
      </trkpt>
      <trkpt lat="48.3858" lon="7.09474">
        <ele>761</ele>
        <time>2022-04-05T23:41:46Z</time>
      </trkpt>
      <trkpt lat="48.3862" lon="7.09482">
        <ele>756</ele>
        <time>2022-04-05T23:41:54Z</time>
      </trkpt>
      <trkpt lat="48.38628" lon="7.09486">
        <ele>756</ele>
        <time>2022-04-05T23:41:55Z</time>
      </trkpt>
      <trkpt lat="48.38653" lon="7.09514">
        <ele>754</ele>
        <time>2022-04-05T23:42:01Z</time>
      </trkpt>
      <trkpt lat="48.38673" lon="7.09545">
        <ele>751</ele>
        <time>2022-04-05T23:42:06Z</time>
      </trkpt>
      <trkpt lat="48.38712" lon="7.0958">
        <ele>747</ele>
        <time>2022-04-05T23:42:14Z</time>
      </trkpt>
      <trkpt lat="48.38751" lon="7.09611">
        <ele>741</ele>
        <time>2022-04-05T23:42:22Z</time>
      </trkpt>
      <trkpt lat="48.38784" lon="7.09632">
        <ele>735</ele>
        <time>2022-04-05T23:42:28Z</time>
      </trkpt>
      <trkpt lat="48.38798" lon="7.09634">
        <ele>732</ele>
        <time>2022-04-05T23:42:31Z</time>
      </trkpt>
      <trkpt lat="48.38809" lon="7.09632">
        <ele>730</ele>
        <time>2022-04-05T23:42:33Z</time>
      </trkpt>
      <trkpt lat="48.38821" lon="7.09623">
        <ele>728</ele>
        <time>2022-04-05T23:42:35Z</time>
      </trkpt>
      <trkpt lat="48.3883" lon="7.09613">
        <ele>727</ele>
        <time>2022-04-05T23:42:37Z</time>
      </trkpt>
      <trkpt lat="48.38843" lon="7.09584">
        <ele>724</ele>
        <time>2022-04-05T23:42:41Z</time>
      </trkpt>
      <trkpt lat="48.38862" lon="7.0947">
        <ele>722</ele>
        <time>2022-04-05T23:42:55Z</time>
      </trkpt>
      <trkpt lat="48.38869" lon="7.09437">
        <ele>722</ele>
        <time>2022-04-05T23:42:59Z</time>
      </trkpt>
      <trkpt lat="48.38891" lon="7.0937">
        <ele>718</ele>
        <time>2022-04-05T23:43:08Z</time>
      </trkpt>
      <trkpt lat="48.38915" lon="7.093">
        <ele>716</ele>
        <time>2022-04-05T23:43:17Z</time>
      </trkpt>
      <trkpt lat="48.38936" lon="7.09249">
        <ele>715</ele>
        <time>2022-04-05T23:43:24Z</time>
      </trkpt>
      <trkpt lat="48.38945" lon="7.09237">
        <ele>715</ele>
        <time>2022-04-05T23:43:26Z</time>
      </trkpt>
      <trkpt lat="48.39078" lon="7.09121">
        <ele>710</ele>
        <time>2022-04-05T23:43:54Z</time>
      </trkpt>
      <trkpt lat="48.39184" lon="7.09037">
        <ele>708</ele>
        <time>2022-04-05T23:44:15Z</time>
      </trkpt>
      <trkpt lat="48.39199" lon="7.09033">
        <ele>707</ele>
        <time>2022-04-05T23:44:18Z</time>
      </trkpt>
      <trkpt lat="48.39217" lon="7.09031">
        <ele>705</ele>
        <time>2022-04-05T23:44:21Z</time>
      </trkpt>
      <trkpt lat="48.39247" lon="7.09041">
        <ele>705</ele>
        <time>2022-04-05T23:44:26Z</time>
      </trkpt>
      <trkpt lat="48.3929" lon="7.09078">
        <ele>704</ele>
        <time>2022-04-05T23:44:35Z</time>
      </trkpt>
      <trkpt lat="48.39313" lon="7.09109">
        <ele>703</ele>
        <time>2022-04-05T23:44:41Z</time>
      </trkpt>
      <trkpt lat="48.39332" lon="7.09144">
        <ele>702</ele>
        <time>2022-04-05T23:44:46Z</time>
      </trkpt>
      <trkpt lat="48.39412" lon="7.09322">
        <ele>696</ele>
        <time>2022-04-05T23:45:12Z</time>
      </trkpt>
      <trkpt lat="48.39419" lon="7.09334">
        <ele>695</ele>
        <time>2022-04-05T23:45:13Z</time>
      </trkpt>
      <trkpt lat="48.39431" lon="7.09346">
        <ele>695</ele>
        <time>2022-04-05T23:45:16Z</time>
      </trkpt>
      <trkpt lat="48.39562" lon="7.09423">
        <ele>688</ele>
        <time>2022-04-05T23:45:41Z</time>
      </trkpt>
      <trkpt lat="48.3961" lon="7.0944">
        <ele>686</ele>
        <time>2022-04-05T23:45:50Z</time>
      </trkpt>
      <trkpt lat="48.39649" lon="7.09457">
        <ele>685</ele>
        <time>2022-04-05T23:45:57Z</time>
      </trkpt>
      <trkpt lat="48.39703" lon="7.09496">
        <ele>679</ele>
        <time>2022-04-05T23:46:08Z</time>
      </trkpt>
      <trkpt lat="48.39721" lon="7.09512">
        <ele>676</ele>
        <time>2022-04-05T23:46:11Z</time>
      </trkpt>
      <trkpt lat="48.39754" lon="7.09555">
        <ele>668</ele>
        <time>2022-04-05T23:46:19Z</time>
      </trkpt>
      <trkpt lat="48.39768" lon="7.09576">
        <ele>664</ele>
        <time>2022-04-05T23:46:23Z</time>
      </trkpt>
      <trkpt lat="48.39778" lon="7.09594">
        <ele>662</ele>
        <time>2022-04-05T23:46:25Z</time>
      </trkpt>
      <trkpt lat="48.39782" lon="7.0961">
        <ele>661</ele>
        <time>2022-04-05T23:46:27Z</time>
      </trkpt>
      <trkpt lat="48.39784" lon="7.09645">
        <ele>660</ele>
        <time>2022-04-05T23:46:32Z</time>
      </trkpt>
      <trkpt lat="48.39777" lon="7.09678">
        <ele>661</ele>
        <time>2022-04-05T23:46:36Z</time>
      </trkpt>
      <trkpt lat="48.39776" lon="7.09694">
        <ele>661</ele>
        <time>2022-04-05T23:46:38Z</time>
      </trkpt>
      <trkpt lat="48.39782" lon="7.09711">
        <ele>660</ele>
        <time>2022-04-05T23:46:40Z</time>
      </trkpt>
      <trkpt lat="48.3979" lon="7.09717">
        <ele>659</ele>
        <time>2022-04-05T23:46:41Z</time>
      </trkpt>
      <trkpt lat="48.39797" lon="7.09717">
        <ele>657</ele>
        <time>2022-04-05T23:46:43Z</time>
      </trkpt>
      <trkpt lat="48.39803" lon="7.09714">
        <ele>656</ele>
        <time>2022-04-05T23:46:44Z</time>
      </trkpt>
      <trkpt lat="48.39811" lon="7.09697">
        <ele>655</ele>
        <time>2022-04-05T23:46:46Z</time>
      </trkpt>
      <trkpt lat="48.39814" lon="7.09652">
        <ele>655</ele>
        <time>2022-04-05T23:46:52Z</time>
      </trkpt>
      <trkpt lat="48.39816" lon="7.09637">
        <ele>655</ele>
        <time>2022-04-05T23:46:53Z</time>
      </trkpt>
      <trkpt lat="48.39876" lon="7.09477">
        <ele>650</ele>
        <time>2022-04-05T23:47:15Z</time>
      </trkpt>
      <trkpt lat="48.39912" lon="7.09368">
        <ele>655</ele>
        <time>2022-04-05T23:47:30Z</time>
      </trkpt>
      <trkpt lat="48.39925" lon="7.09344">
        <ele>655</ele>
        <time>2022-04-05T23:47:33Z</time>
      </trkpt>
      <trkpt lat="48.39943" lon="7.09325">
        <ele>654</ele>
        <time>2022-04-05T23:47:37Z</time>
      </trkpt>
      <trkpt lat="48.39983" lon="7.093">
        <ele>649</ele>
        <time>2022-04-05T23:47:45Z</time>
      </trkpt>
      <trkpt lat="48.39992" lon="7.09289">
        <ele>648</ele>
        <time>2022-04-05T23:47:47Z</time>
      </trkpt>
      <trkpt lat="48.40002" lon="7.09273">
        <ele>648</ele>
        <time>2022-04-05T23:47:49Z</time>
      </trkpt>
      <trkpt lat="48.4005" lon="7.09172">
        <ele>646</ele>
        <time>2022-04-05T23:48:04Z</time>
      </trkpt>
      <trkpt lat="48.40084" lon="7.09093">
        <ele>647</ele>
        <time>2022-04-05T23:48:15Z</time>
      </trkpt>
      <trkpt lat="48.40109" lon="7.09008">
        <ele>656</ele>
        <time>2022-04-05T23:48:26Z</time>
      </trkpt>
      <trkpt lat="48.40121" lon="7.08991">
        <ele>656</ele>
        <time>2022-04-05T23:48:29Z</time>
      </trkpt>
      <trkpt lat="48.40138" lon="7.08973">
        <ele>654</ele>
        <time>2022-04-05T23:48:33Z</time>
      </trkpt>
      <trkpt lat="48.40154" lon="7.08964">
        <ele>651</ele>
        <time>2022-04-05T23:48:36Z</time>
      </trkpt>
      <trkpt lat="48.40169" lon="7.08961">
        <ele>648</ele>
        <time>2022-04-05T23:48:39Z</time>
      </trkpt>
      <trkpt lat="48.40191" lon="7.08965">
        <ele>646</ele>
        <time>2022-04-05T23:48:43Z</time>
      </trkpt>
      <trkpt lat="48.40209" lon="7.08977">
        <ele>644</ele>
        <time>2022-04-05T23:48:46Z</time>
      </trkpt>
      <trkpt lat="48.40222" lon="7.08991">
        <ele>642</ele>
        <time>2022-04-05T23:48:49Z</time>
      </trkpt>
      <trkpt lat="48.40227" lon="7.09003">
        <ele>642</ele>
        <time>2022-04-05T23:48:51Z</time>
      </trkpt>
      <trkpt lat="48.40232" lon="7.08999">
        <ele>641</ele>
        <time>2022-04-05T23:48:52Z</time>
      </trkpt>
      <trkpt lat="48.4024" lon="7.08991">
        <ele>641</ele>
        <time>2022-04-05T23:48:53Z</time>
      </trkpt>
      <trkpt lat="48.40243" lon="7.08986">
        <ele>641</ele>
        <time>2022-04-05T23:48:54Z</time>
      </trkpt>
      <trkpt lat="48.40248" lon="7.08979">
        <ele>641</ele>
        <time>2022-04-05T23:48:55Z</time>
      </trkpt>
      <trkpt lat="48.40262" lon="7.08943">
        <ele>643</ele>
        <time>2022-04-05T23:49:00Z</time>
      </trkpt>
      <trkpt lat="48.40278" lon="7.08902">
        <ele>644</ele>
        <time>2022-04-05T23:49:06Z</time>
      </trkpt>
      <trkpt lat="48.40282" lon="7.08891">
        <ele>644</ele>
        <time>2022-04-05T23:49:07Z</time>
      </trkpt>
      <trkpt lat="48.40285" lon="7.08883">
        <ele>644</ele>
        <time>2022-04-05T23:49:08Z</time>
      </trkpt>
      <trkpt lat="48.40322" lon="7.08783">
        <ele>639</ele>
        <time>2022-04-05T23:49:22Z</time>
      </trkpt>
      <trkpt lat="48.40357" lon="7.08696">
        <ele>634</ele>
        <time>2022-04-05T23:49:34Z</time>
      </trkpt>
      <trkpt lat="48.40371" lon="7.08668">
        <ele>633</ele>
        <time>2022-04-05T23:49:38Z</time>
      </trkpt>
      <trkpt lat="48.40394" lon="7.0863">
        <ele>633</ele>
        <time>2022-04-05T23:49:44Z</time>
      </trkpt>
      <trkpt lat="48.40408" lon="7.08602">
        <ele>632</ele>
        <time>2022-04-05T23:49:48Z</time>
      </trkpt>
      <trkpt lat="48.40417" lon="7.08571">
        <ele>630</ele>
        <time>2022-04-05T23:49:52Z</time>
      </trkpt>
      <trkpt lat="48.40431" lon="7.08501">
        <ele>626</ele>
        <time>2022-04-05T23:50:01Z</time>
      </trkpt>
      <trkpt lat="48.40438" lon="7.08479">
        <ele>624</ele>
        <time>2022-04-05T23:50:04Z</time>
      </trkpt>
      <trkpt lat="48.40448" lon="7.08459">
        <ele>624</ele>
        <time>2022-04-05T23:50:07Z</time>
      </trkpt>
      <trkpt lat="48.40476" lon="7.08417">
        <ele>624</ele>
        <time>2022-04-05T23:50:14Z</time>
      </trkpt>
      <trkpt lat="48.40497" lon="7.08373">
        <ele>622</ele>
        <time>2022-04-05T23:50:20Z</time>
      </trkpt>
      <trkpt lat="48.40509" lon="7.08339">
        <ele>619</ele>
        <time>2022-04-05T23:50:25Z</time>
      </trkpt>
      <trkpt lat="48.40513" lon="7.08321">
        <ele>618</ele>
        <time>2022-04-05T23:50:27Z</time>
      </trkpt>
      <trkpt lat="48.40524" lon="7.08251">
        <ele>614</ele>
        <time>2022-04-05T23:50:35Z</time>
      </trkpt>
      <trkpt lat="48.40527" lon="7.08235">
        <ele>613</ele>
        <time>2022-04-05T23:50:37Z</time>
      </trkpt>
      <trkpt lat="48.40531" lon="7.08222">
        <ele>612</ele>
        <time>2022-04-05T23:50:39Z</time>
      </trkpt>
      <trkpt lat="48.40536" lon="7.08205">
        <ele>611</ele>
        <time>2022-04-05T23:50:41Z</time>
      </trkpt>
      <trkpt lat="48.40543" lon="7.08187">
        <ele>609</ele>
        <time>2022-04-05T23:50:44Z</time>
      </trkpt>
      <trkpt lat="48.40554" lon="7.08163">
        <ele>607</ele>
        <time>2022-04-05T23:50:47Z</time>
      </trkpt>
      <trkpt lat="48.40562" lon="7.08147">
        <ele>606</ele>
        <time>2022-04-05T23:50:50Z</time>
      </trkpt>
      <trkpt lat="48.40573" lon="7.08128">
        <ele>606</ele>
        <time>2022-04-05T23:50:53Z</time>
      </trkpt>
      <trkpt lat="48.40584" lon="7.08106">
        <ele>605</ele>
        <time>2022-04-05T23:50:56Z</time>
      </trkpt>
      <trkpt lat="48.40599" lon="7.08074">
        <ele>605</ele>
        <time>2022-04-05T23:51:00Z</time>
      </trkpt>
      <trkpt lat="48.40615" lon="7.08027">
        <ele>603</ele>
        <time>2022-04-05T23:51:07Z</time>
      </trkpt>
      <trkpt lat="48.40619" lon="7.08012">
        <ele>602</ele>
        <time>2022-04-05T23:51:09Z</time>
      </trkpt>
      <trkpt lat="48.40623" lon="7.07996">
        <ele>601</ele>
        <time>2022-04-05T23:51:11Z</time>
      </trkpt>
      <trkpt lat="48.40631" lon="7.07969">
        <ele>599</ele>
        <time>2022-04-05T23:51:14Z</time>
      </trkpt>
      <trkpt lat="48.40646" lon="7.07942">
        <ele>598</ele>
        <time>2022-04-05T23:51:18Z</time>
      </trkpt>
      <trkpt lat="48.40696" lon="7.07879">
        <ele>601</ele>
        <time>2022-04-05T23:51:30Z</time>
      </trkpt>
      <trkpt lat="48.4073" lon="7.0783">
        <ele>601</ele>
        <time>2022-04-05T23:51:38Z</time>
      </trkpt>
      <trkpt lat="48.40742" lon="7.07809">
        <ele>599</ele>
        <time>2022-04-05T23:51:42Z</time>
      </trkpt>
      <trkpt lat="48.40751" lon="7.07788">
        <ele>595</ele>
        <time>2022-04-05T23:51:44Z</time>
      </trkpt>
      <trkpt lat="48.40762" lon="7.07744">
        <ele>589</ele>
        <time>2022-04-05T23:51:50Z</time>
      </trkpt>
      <trkpt lat="48.4077" lon="7.07722">
        <ele>588</ele>
        <time>2022-04-05T23:51:53Z</time>
      </trkpt>
      <trkpt lat="48.40779" lon="7.07707">
        <ele>588</ele>
        <time>2022-04-05T23:51:55Z</time>
      </trkpt>
      <trkpt lat="48.40798" lon="7.07681">
        <ele>588</ele>
        <time>2022-04-05T23:52:00Z</time>
      </trkpt>
      <trkpt lat="48.40808" lon="7.07662">
        <ele>587</ele>
        <time>2022-04-05T23:52:03Z</time>
      </trkpt>
      <trkpt lat="48.40814" lon="7.07635">
        <ele>584</ele>
        <time>2022-04-05T23:52:06Z</time>
      </trkpt>
      <trkpt lat="48.40822" lon="7.07577">
        <ele>577</ele>
        <time>2022-04-05T23:52:13Z</time>
      </trkpt>
      <trkpt lat="48.40832" lon="7.07547">
        <ele>572</ele>
        <time>2022-04-05T23:52:17Z</time>
      </trkpt>
      <trkpt lat="48.40849" lon="7.07515">
        <ele>571</ele>
        <time>2022-04-05T23:52:22Z</time>
      </trkpt>
      <trkpt lat="48.40863" lon="7.07497">
        <ele>572</ele>
        <time>2022-04-05T23:52:25Z</time>
      </trkpt>
      <trkpt lat="48.40882" lon="7.0748">
        <ele>575</ele>
        <time>2022-04-05T23:52:29Z</time>
      </trkpt>
      <trkpt lat="48.40891" lon="7.0747">
        <ele>575</ele>
        <time>2022-04-05T23:52:31Z</time>
      </trkpt>
      <trkpt lat="48.40894" lon="7.07463">
        <ele>574</ele>
        <time>2022-04-05T23:52:32Z</time>
      </trkpt>
      <trkpt lat="48.40897" lon="7.07456">
        <ele>573</ele>
        <time>2022-04-05T23:52:33Z</time>
      </trkpt>
      <trkpt lat="48.40903" lon="7.07438">
        <ele>570</ele>
        <time>2022-04-05T23:52:36Z</time>
      </trkpt>
      <trkpt lat="48.40909" lon="7.07399">
        <ele>563</ele>
        <time>2022-04-05T23:52:40Z</time>
      </trkpt>
      <trkpt lat="48.40915" lon="7.07377">
        <ele>560</ele>
        <time>2022-04-05T23:52:43Z</time>
      </trkpt>
      <trkpt lat="48.40927" lon="7.07353">
        <ele>558</ele>
        <time>2022-04-05T23:52:47Z</time>
      </trkpt>
      <trkpt lat="48.40947" lon="7.07326">
        <ele>560</ele>
        <time>2022-04-05T23:52:51Z</time>
      </trkpt>
      <trkpt lat="48.40958" lon="7.07307">
        <ele>562</ele>
        <time>2022-04-05T23:52:54Z</time>
      </trkpt>
      <trkpt lat="48.40964" lon="7.07289">
        <ele>562</ele>
        <time>2022-04-05T23:52:57Z</time>
      </trkpt>
      <trkpt lat="48.40968" lon="7.07256">
        <ele>561</ele>
        <time>2022-04-05T23:53:01Z</time>
      </trkpt>
      <trkpt lat="48.40966" lon="7.07222">
        <ele>560</ele>
        <time>2022-04-05T23:53:05Z</time>
      </trkpt>
      <trkpt lat="48.4095" lon="7.07167">
        <ele>557</ele>
        <time>2022-04-05T23:53:12Z</time>
      </trkpt>
      <trkpt lat="48.40944" lon="7.07142">
        <ele>556</ele>
        <time>2022-04-05T23:53:15Z</time>
      </trkpt>
      <trkpt lat="48.40921" lon="7.07002">
        <ele>549</ele>
        <time>2022-04-05T23:53:32Z</time>
      </trkpt>
      <trkpt lat="48.40917" lon="7.06985">
        <ele>548</ele>
        <time>2022-04-05T23:53:34Z</time>
      </trkpt>
      <trkpt lat="48.40912" lon="7.0697">
        <ele>547</ele>
        <time>2022-04-05T23:53:36Z</time>
      </trkpt>
      <trkpt lat="48.40906" lon="7.06957">
        <ele>546</ele>
        <time>2022-04-05T23:53:38Z</time>
      </trkpt>
      <trkpt lat="48.40891" lon="7.06936">
        <ele>544</ele>
        <time>2022-04-05T23:53:42Z</time>
      </trkpt>
      <trkpt lat="48.40864" lon="7.0691">
        <ele>542</ele>
        <time>2022-04-05T23:53:47Z</time>
      </trkpt>
      <trkpt lat="48.4085" lon="7.06892">
        <ele>541</ele>
        <time>2022-04-05T23:53:51Z</time>
      </trkpt>
      <trkpt lat="48.40818" lon="7.06835">
        <ele>537</ele>
        <time>2022-04-05T23:53:59Z</time>
      </trkpt>
      <trkpt lat="48.40804" lon="7.06804">
        <ele>534</ele>
        <time>2022-04-05T23:54:04Z</time>
      </trkpt>
      <trkpt lat="48.40802" lon="7.06797">
        <ele>534</ele>
        <time>2022-04-05T23:54:05Z</time>
      </trkpt>
      <trkpt lat="48.408" lon="7.06788">
        <ele>534</ele>
        <time>2022-04-05T23:54:06Z</time>
      </trkpt>
      <trkpt lat="48.40799" lon="7.0676">
        <ele>532</ele>
        <time>2022-04-05T23:54:09Z</time>
      </trkpt>
      <trkpt lat="48.40806" lon="7.06703">
        <ele>531</ele>
        <time>2022-04-05T23:54:16Z</time>
      </trkpt>
      <trkpt lat="48.40806" lon="7.0669">
        <ele>531</ele>
        <time>2022-04-05T23:54:18Z</time>
      </trkpt>
      <trkpt lat="48.40801" lon="7.06617">
        <ele>530</ele>
        <time>2022-04-05T23:54:26Z</time>
      </trkpt>
      <trkpt lat="48.408" lon="7.06584">
        <ele>529</ele>
        <time>2022-04-05T23:54:30Z</time>
      </trkpt>
      <trkpt lat="48.40802" lon="7.06561">
        <ele>528</ele>
        <time>2022-04-05T23:54:33Z</time>
      </trkpt>
      <trkpt lat="48.40808" lon="7.06525">
        <ele>526</ele>
        <time>2022-04-05T23:54:37Z</time>
      </trkpt>
      <trkpt lat="48.40811" lon="7.06493">
        <ele>525</ele>
        <time>2022-04-05T23:54:41Z</time>
      </trkpt>
      <trkpt lat="48.40813" lon="7.06376">
        <ele>522</ele>
        <time>2022-04-05T23:54:55Z</time>
      </trkpt>
      <trkpt lat="48.40818" lon="7.06318">
        <ele>519</ele>
        <time>2022-04-05T23:55:02Z</time>
      </trkpt>
      <trkpt lat="48.40825" lon="7.06251">
        <ele>515</ele>
        <time>2022-04-05T23:55:10Z</time>
      </trkpt>
      <trkpt lat="48.40832" lon="7.06045">
        <ele>505</ele>
        <time>2022-04-05T23:55:34Z</time>
      </trkpt>
      <trkpt lat="48.40832" lon="7.0593">
        <ele>500</ele>
        <time>2022-04-05T23:55:48Z</time>
      </trkpt>
      <trkpt lat="48.40822" lon="7.05732">
        <ele>492</ele>
        <time>2022-04-05T23:56:11Z</time>
      </trkpt>
      <trkpt lat="48.40833" lon="7.05615">
        <ele>487</ele>
        <time>2022-04-05T23:56:25Z</time>
      </trkpt>
      <trkpt lat="48.4084" lon="7.05465">
        <ele>481</ele>
        <time>2022-04-05T23:56:43Z</time>
      </trkpt>
      <trkpt lat="48.40841" lon="7.05411">
        <ele>481</ele>
        <time>2022-04-05T23:56:49Z</time>
      </trkpt>
      <trkpt lat="48.40838" lon="7.05365">
        <ele>480</ele>
        <time>2022-04-05T23:56:55Z</time>
      </trkpt>
      <trkpt lat="48.40836" lon="7.05333">
        <ele>479</ele>
        <time>2022-04-05T23:56:59Z</time>
      </trkpt>
      <trkpt lat="48.40829" lon="7.05257">
        <ele>475</ele>
        <time>2022-04-05T23:57:08Z</time>
      </trkpt>
      <trkpt lat="48.40828" lon="7.05227">
        <ele>474</ele>
        <time>2022-04-05T23:57:11Z</time>
      </trkpt>
      <trkpt lat="48.40829" lon="7.05219">
        <ele>473</ele>
        <time>2022-04-05T23:57:12Z</time>
      </trkpt>
      <trkpt lat="48.40831" lon="7.05211">
        <ele>473</ele>
        <time>2022-04-05T23:57:13Z</time>
      </trkpt>
      <trkpt lat="48.4084" lon="7.05192">
        <ele>472</ele>
        <time>2022-04-05T23:57:16Z</time>
      </trkpt>
      <trkpt lat="48.4085" lon="7.05183">
        <ele>471</ele>
        <time>2022-04-05T23:57:18Z</time>
      </trkpt>
      <trkpt lat="48.40888" lon="7.05154">
        <ele>469</ele>
        <time>2022-04-05T23:57:26Z</time>
      </trkpt>
      <trkpt lat="48.40917" lon="7.05124">
        <ele>468</ele>
        <time>2022-04-05T23:57:32Z</time>
      </trkpt>
      <trkpt lat="48.40925" lon="7.05111">
        <ele>467</ele>
        <time>2022-04-05T23:57:34Z</time>
      </trkpt>
      <trkpt lat="48.40932" lon="7.05099">
        <ele>467</ele>
        <time>2022-04-05T23:57:36Z</time>
      </trkpt>
      <trkpt lat="48.40956" lon="7.05065">
        <ele>465</ele>
        <time>2022-04-05T23:57:42Z</time>
      </trkpt>
      <trkpt lat="48.40983" lon="7.05041">
        <ele>463</ele>
        <time>2022-04-05T23:57:47Z</time>
      </trkpt>
      <trkpt lat="48.41002" lon="7.05015">
        <ele>462</ele>
        <time>2022-04-05T23:57:52Z</time>
      </trkpt>
      <trkpt lat="48.41007" lon="7.05005">
        <ele>462</ele>
        <time>2022-04-05T23:57:53Z</time>
      </trkpt>
      <trkpt lat="48.4101" lon="7.04999">
        <ele>462</ele>
        <time>2022-04-05T23:57:54Z</time>
      </trkpt>
      <trkpt lat="48.4102" lon="7.04977">
        <ele>462</ele>
        <time>2022-04-05T23:57:57Z</time>
      </trkpt>
      <trkpt lat="48.41028" lon="7.04948">
        <ele>463</ele>
        <time>2022-04-05T23:58:01Z</time>
      </trkpt>
      <trkpt lat="48.41031" lon="7.04928">
        <ele>463</ele>
        <time>2022-04-05T23:58:03Z</time>
      </trkpt>
      <trkpt lat="48.41032" lon="7.04908">
        <ele>463</ele>
        <time>2022-04-05T23:58:06Z</time>
      </trkpt>
      <trkpt lat="48.41032" lon="7.04886">
        <ele>462</ele>
        <time>2022-04-05T23:58:08Z</time>
      </trkpt>
      <trkpt lat="48.41029" lon="7.04865">
        <ele>462</ele>
        <time>2022-04-05T23:58:11Z</time>
      </trkpt>
      <trkpt lat="48.4102" lon="7.04821">
        <ele>462</ele>
        <time>2022-04-05T23:58:16Z</time>
      </trkpt>
      <trkpt lat="48.40994" lon="7.04727">
        <ele>461</ele>
        <time>2022-04-05T23:58:28Z</time>
      </trkpt>
      <trkpt lat="48.4099" lon="7.04702">
        <ele>461</ele>
        <time>2022-04-05T23:58:31Z</time>
      </trkpt>
      <trkpt lat="48.40989" lon="7.04677">
        <ele>461</ele>
        <time>2022-04-05T23:58:34Z</time>
      </trkpt>
      <trkpt lat="48.40991" lon="7.04608">
        <ele>463</ele>
        <time>2022-04-05T23:58:43Z</time>
      </trkpt>
      <trkpt lat="48.4099" lon="7.04588">
        <ele>463</ele>
        <time>2022-04-05T23:58:45Z</time>
      </trkpt>
      <trkpt lat="48.40986" lon="7.04556">
        <ele>464</ele>
        <time>2022-04-05T23:58:49Z</time>
      </trkpt>
      <trkpt lat="48.40978" lon="7.04512">
        <ele>466</ele>
        <time>2022-04-05T23:58:54Z</time>
      </trkpt>
      <trkpt lat="48.40964" lon="7.04461">
        <ele>468</ele>
        <time>2022-04-05T23:59:01Z</time>
      </trkpt>
      <trkpt lat="48.4095" lon="7.04398">
        <ele>470</ele>
        <time>2022-04-05T23:59:09Z</time>
      </trkpt>
      <trkpt lat="48.40947" lon="7.04377">
        <ele>469</ele>
        <time>2022-04-05T23:59:11Z</time>
      </trkpt>
      <trkpt lat="48.40945" lon="7.04352">
        <ele>468</ele>
        <time>2022-04-05T23:59:14Z</time>
      </trkpt>
      <trkpt lat="48.40947" lon="7.04175">
        <ele>458</ele>
        <time>2022-04-05T23:59:35Z</time>
      </trkpt>
      <trkpt lat="48.40948" lon="7.04132">
        <ele>458</ele>
        <time>2022-04-05T23:59:40Z</time>
      </trkpt>
      <trkpt lat="48.40951" lon="7.04133">
        <ele>458</ele>
        <time>2022-04-05T23:59:41Z</time>
      </trkpt>
      <trkpt lat="48.41" lon="7.04153">
        <ele>451</ele>
        <time>2022-04-05T23:59:50Z</time>
      </trkpt>
      <trkpt lat="48.41047" lon="7.04173">
        <ele>450</ele>
        <time>2022-04-05T23:59:58Z</time>
      </trkpt>
      <trkpt lat="48.41094" lon="7.04194">
        <ele>449</ele>
        <time>2022-04-06T00:00:07Z</time>
      </trkpt>
      <trkpt lat="48.41127" lon="7.04209">
        <ele>449</ele>
        <time>2022-04-06T00:00:13Z</time>
      </trkpt>
      <trkpt lat="48.41141" lon="7.04215">
        <ele>448</ele>
        <time>2022-04-06T00:00:16Z</time>
      </trkpt>
      <trkpt lat="48.41178" lon="7.04232">
        <ele>448</ele>
        <time>2022-04-06T00:00:23Z</time>
      </trkpt>
      <trkpt lat="48.41222" lon="7.04248">
        <ele>448</ele>
        <time>2022-04-06T00:00:31Z</time>
      </trkpt>
      <trkpt lat="48.41252" lon="7.04254">
        <ele>448</ele>
        <time>2022-04-06T00:00:36Z</time>
      </trkpt>
      <trkpt lat="48.41261" lon="7.04256">
        <ele>448</ele>
        <time>2022-04-06T00:00:38Z</time>
      </trkpt>
      <trkpt lat="48.41267" lon="7.04257">
        <ele>449</ele>
        <time>2022-04-06T00:00:39Z</time>
      </trkpt>
      <trkpt lat="48.41314" lon="7.04253">
        <ele>450</ele>
        <time>2022-04-06T00:00:47Z</time>
      </trkpt>
      <trkpt lat="48.41336" lon="7.04247">
        <ele>450</ele>
        <time>2022-04-06T00:00:51Z</time>
      </trkpt>
      <trkpt lat="48.41343" lon="7.04248">
        <ele>451</ele>
        <time>2022-04-06T00:00:52Z</time>
      </trkpt>
      <trkpt lat="48.41348" lon="7.04252">
        <ele>451</ele>
        <time>2022-04-06T00:00:53Z</time>
      </trkpt>
      <trkpt lat="48.41353" lon="7.04264">
        <ele>452</ele>
        <time>2022-04-06T00:00:55Z</time>
      </trkpt>
      <trkpt lat="48.41361" lon="7.04299">
        <ele>455</ele>
        <time>2022-04-06T00:00:59Z</time>
      </trkpt>
      <trkpt lat="48.41376" lon="7.04347">
        <ele>458</ele>
        <time>2022-04-06T00:01:06Z</time>
      </trkpt>
      <trkpt lat="48.41406" lon="7.04388">
        <ele>458</ele>
        <time>2022-04-06T00:01:13Z</time>
      </trkpt>
      <trkpt lat="48.41428" lon="7.04428">
        <ele>459</ele>
        <time>2022-04-06T00:01:19Z</time>
      </trkpt>
      <trkpt lat="48.41477" lon="7.04529">
        <ele>463</ele>
        <time>2022-04-06T00:01:34Z</time>
      </trkpt>
      <trkpt lat="48.41501" lon="7.04556">
        <ele>464</ele>
        <time>2022-04-06T00:01:39Z</time>
      </trkpt>
      <trkpt lat="48.41567" lon="7.04595">
        <ele>464</ele>
        <time>2022-04-06T00:01:52Z</time>
      </trkpt>
      <trkpt lat="48.41585" lon="7.04626">
        <ele>464</ele>
        <time>2022-04-06T00:01:57Z</time>
      </trkpt>
      <trkpt lat="48.41589" lon="7.0464">
        <ele>463</ele>
        <time>2022-04-06T00:01:58Z</time>
      </trkpt>
      <trkpt lat="48.41591" lon="7.04654">
        <ele>463</ele>
        <time>2022-04-06T00:02:00Z</time>
      </trkpt>
      <trkpt lat="48.41591" lon="7.04671">
        <ele>462</ele>
        <time>2022-04-06T00:02:02Z</time>
      </trkpt>
      <trkpt lat="48.41582" lon="7.04719">
        <ele>463</ele>
        <time>2022-04-06T00:02:08Z</time>
      </trkpt>
      <trkpt lat="48.41581" lon="7.04735">
        <ele>463</ele>
        <time>2022-04-06T00:02:10Z</time>
      </trkpt>
      <trkpt lat="48.41583" lon="7.04748">
        <ele>463</ele>
        <time>2022-04-06T00:02:11Z</time>
      </trkpt>
      <trkpt lat="48.41639" lon="7.04875">
        <ele>456</ele>
        <time>2022-04-06T00:02:29Z</time>
      </trkpt>
      <trkpt lat="48.41664" lon="7.0492">
        <ele>450</ele>
        <time>2022-04-06T00:02:36Z</time>
      </trkpt>
      <trkpt lat="48.41674" lon="7.04932">
        <ele>448</ele>
        <time>2022-04-06T00:02:39Z</time>
      </trkpt>
      <trkpt lat="48.417" lon="7.04944">
        <ele>445</ele>
        <time>2022-04-06T00:02:44Z</time>
      </trkpt>
      <trkpt lat="48.41713" lon="7.04945">
        <ele>443</ele>
        <time>2022-04-06T00:02:46Z</time>
      </trkpt>
      <trkpt lat="48.41729" lon="7.04939">
        <ele>442</ele>
        <time>2022-04-06T00:02:49Z</time>
      </trkpt>
      <trkpt lat="48.41739" lon="7.04932">
        <ele>441</ele>
        <time>2022-04-06T00:02:51Z</time>
      </trkpt>
      <trkpt lat="48.41755" lon="7.04912">
        <ele>440</ele>
        <time>2022-04-06T00:02:54Z</time>
      </trkpt>
      <trkpt lat="48.41764" lon="7.04893">
        <ele>439</ele>
        <time>2022-04-06T00:02:57Z</time>
      </trkpt>
      <trkpt lat="48.41774" lon="7.04852">
        <ele>439</ele>
        <time>2022-04-06T00:03:02Z</time>
      </trkpt>
      <trkpt lat="48.41777" lon="7.04829">
        <ele>438</ele>
        <time>2022-04-06T00:03:05Z</time>
      </trkpt>
      <trkpt lat="48.41779" lon="7.04785">
        <ele>438</ele>
        <time>2022-04-06T00:03:10Z</time>
      </trkpt>
      <trkpt lat="48.41777" lon="7.0476">
        <ele>438</ele>
        <time>2022-04-06T00:03:13Z</time>
      </trkpt>
      <trkpt lat="48.41761" lon="7.04648">
        <ele>432</ele>
        <time>2022-04-06T00:03:27Z</time>
      </trkpt>
      <trkpt lat="48.41759" lon="7.04615">
        <ele>432</ele>
        <time>2022-04-06T00:03:31Z</time>
      </trkpt>
      <trkpt lat="48.41763" lon="7.04579">
        <ele>433</ele>
        <time>2022-04-06T00:03:35Z</time>
      </trkpt>
      <trkpt lat="48.41769" lon="7.04558">
        <ele>436</ele>
        <time>2022-04-06T00:03:38Z</time>
      </trkpt>
      <trkpt lat="48.41789" lon="7.04526">
        <ele>436</ele>
        <time>2022-04-06T00:03:43Z</time>
      </trkpt>
      <trkpt lat="48.41807" lon="7.04514">
        <ele>432</ele>
        <time>2022-04-06T00:03:46Z</time>
      </trkpt>
      <trkpt lat="48.41848" lon="7.04495">
        <ele>425</ele>
        <time>2022-04-06T00:03:54Z</time>
      </trkpt>
      <trkpt lat="48.41883" lon="7.04469">
        <ele>425</ele>
        <time>2022-04-06T00:04:01Z</time>
      </trkpt>
      <trkpt lat="48.41906" lon="7.04448">
        <ele>423</ele>
        <time>2022-04-06T00:04:06Z</time>
      </trkpt>
      <trkpt lat="48.41915" lon="7.04436">
        <ele>422</ele>
        <time>2022-04-06T00:04:08Z</time>
      </trkpt>
      <trkpt lat="48.42007" lon="7.0427">
        <ele>428</ele>
        <time>2022-04-06T00:04:33Z</time>
      </trkpt>
      <trkpt lat="48.42052" lon="7.04203">
        <ele>427</ele>
        <time>2022-04-06T00:04:45Z</time>
      </trkpt>
      <trkpt lat="48.4207" lon="7.04171">
        <ele>425</ele>
        <time>2022-04-06T00:04:50Z</time>
      </trkpt>
      <trkpt lat="48.42081" lon="7.04136">
        <ele>422</ele>
        <time>2022-04-06T00:04:54Z</time>
      </trkpt>
      <trkpt lat="48.42112" lon="7.03954">
        <ele>419</ele>
        <time>2022-04-06T00:05:16Z</time>
      </trkpt>
      <trkpt lat="48.42123" lon="7.03917">
        <ele>419</ele>
        <time>2022-04-06T00:05:21Z</time>
      </trkpt>
      <trkpt lat="48.42131" lon="7.03894">
        <ele>418</ele>
        <time>2022-04-06T00:05:24Z</time>
      </trkpt>
      <trkpt lat="48.42141" lon="7.03876">
        <ele>417</ele>
        <time>2022-04-06T00:05:27Z</time>
      </trkpt>
      <trkpt lat="48.42153" lon="7.0386">
        <ele>415</ele>
        <time>2022-04-06T00:05:30Z</time>
      </trkpt>
      <trkpt lat="48.42166" lon="7.03848">
        <ele>413</ele>
        <time>2022-04-06T00:05:33Z</time>
      </trkpt>
      <trkpt lat="48.4218" lon="7.03839">
        <ele>412</ele>
        <time>2022-04-06T00:05:35Z</time>
      </trkpt>
      <trkpt lat="48.42194" lon="7.03834">
        <ele>411</ele>
        <time>2022-04-06T00:05:38Z</time>
      </trkpt>
      <trkpt lat="48.42314" lon="7.03813">
        <ele>411</ele>
        <time>2022-04-06T00:05:59Z</time>
      </trkpt>
      <trkpt lat="48.42325" lon="7.03807">
        <ele>410</ele>
        <time>2022-04-06T00:06:01Z</time>
      </trkpt>
      <trkpt lat="48.42332" lon="7.03799">
        <ele>410</ele>
        <time>2022-04-06T00:06:03Z</time>
      </trkpt>
      <trkpt lat="48.42341" lon="7.03783">
        <ele>410</ele>
        <time>2022-04-06T00:06:06Z</time>
      </trkpt>
      <trkpt lat="48.4235" lon="7.03748">
        <ele>408</ele>
        <time>2022-04-06T00:06:10Z</time>
      </trkpt>
      <trkpt lat="48.42352" lon="7.03733">
        <ele>408</ele>
        <time>2022-04-06T00:06:12Z</time>
      </trkpt>
      <trkpt lat="48.42354" lon="7.03671">
        <ele>409</ele>
        <time>2022-04-06T00:06:19Z</time>
      </trkpt>
      <trkpt lat="48.42358" lon="7.03652">
        <ele>410</ele>
        <time>2022-04-06T00:06:21Z</time>
      </trkpt>
      <trkpt lat="48.42368" lon="7.03625">
        <ele>411</ele>
        <time>2022-04-06T00:06:25Z</time>
      </trkpt>
      <trkpt lat="48.42377" lon="7.03614">
        <ele>410</ele>
        <time>2022-04-06T00:06:27Z</time>
      </trkpt>
      <trkpt lat="48.42433" lon="7.03565">
        <ele>405</ele>
        <time>2022-04-06T00:06:39Z</time>
      </trkpt>
      <trkpt lat="48.42479" lon="7.03514">
        <ele>406</ele>
        <time>2022-04-06T00:06:49Z</time>
      </trkpt>
      <trkpt lat="48.42491" lon="7.03498">
        <ele>406</ele>
        <time>2022-04-06T00:06:52Z</time>
      </trkpt>
      <trkpt lat="48.42502" lon="7.0348">
        <ele>406</ele>
        <time>2022-04-06T00:06:55Z</time>
      </trkpt>
      <trkpt lat="48.42505" lon="7.03469">
        <ele>407</ele>
        <time>2022-04-06T00:06:56Z</time>
      </trkpt>
      <trkpt lat="48.42506" lon="7.03458">
        <ele>407</ele>
        <time>2022-04-06T00:06:57Z</time>
      </trkpt>
      <trkpt lat="48.42505" lon="7.03439">
        <ele>406</ele>
        <time>2022-04-06T00:07:00Z</time>
      </trkpt>
      <trkpt lat="48.42494" lon="7.03379">
        <ele>405</ele>
        <time>2022-04-06T00:07:07Z</time>
      </trkpt>
      <trkpt lat="48.42494" lon="7.03365">
        <ele>405</ele>
        <time>2022-04-06T00:07:09Z</time>
      </trkpt>
      <trkpt lat="48.42497" lon="7.03352">
        <ele>404</ele>
        <time>2022-04-06T00:07:10Z</time>
      </trkpt>
      <trkpt lat="48.42515" lon="7.0331">
        <ele>406</ele>
        <time>2022-04-06T00:07:16Z</time>
      </trkpt>
      <trkpt lat="48.42529" lon="7.03292">
        <ele>407</ele>
        <time>2022-04-06T00:07:19Z</time>
      </trkpt>
      <trkpt lat="48.42622" lon="7.03209">
        <ele>413</ele>
        <time>2022-04-06T00:07:39Z</time>
      </trkpt>
      <trkpt lat="48.42699" lon="7.03119">
        <ele>405</ele>
        <time>2022-04-06T00:07:56Z</time>
      </trkpt>
      <trkpt lat="48.4274" lon="7.03079">
        <ele>399</ele>
        <time>2022-04-06T00:08:05Z</time>
      </trkpt>
      <trkpt lat="48.42779" lon="7.03034">
        <ele>397</ele>
        <time>2022-04-06T00:08:13Z</time>
      </trkpt>
      <trkpt lat="48.42808" lon="7.02987">
        <ele>395</ele>
        <time>2022-04-06T00:08:21Z</time>
      </trkpt>
      <trkpt lat="48.4284" lon="7.02924">
        <ele>395</ele>
        <time>2022-04-06T00:08:30Z</time>
      </trkpt>
      <trkpt lat="48.43016" lon="7.02565">
        <ele>382</ele>
        <time>2022-04-06T00:09:23Z</time>
      </trkpt>
      <trkpt lat="48.43033" lon="7.02531">
        <ele>382</ele>
        <time>2022-04-06T00:09:28Z</time>
      </trkpt>
      <trkpt lat="48.43051" lon="7.02512">
        <ele>383</ele>
        <time>2022-04-06T00:09:32Z</time>
      </trkpt>
      <trkpt lat="48.43065" lon="7.02501">
        <ele>383</ele>
        <time>2022-04-06T00:09:35Z</time>
      </trkpt>
      <trkpt lat="48.43074" lon="7.02492">
        <ele>383</ele>
        <time>2022-04-06T00:09:37Z</time>
      </trkpt>
      <trkpt lat="48.43076" lon="7.02484">
        <ele>383</ele>
        <time>2022-04-06T00:09:38Z</time>
      </trkpt>
      <trkpt lat="48.4308" lon="7.02486">
        <ele>383</ele>
        <time>2022-04-06T00:09:38Z</time>
      </trkpt>
      <trkpt lat="48.43113" lon="7.02548">
        <ele>387</ele>
        <time>2022-04-06T00:09:48Z</time>
      </trkpt>
      <trkpt lat="48.43131" lon="7.02577">
        <ele>388</ele>
        <time>2022-04-06T00:09:53Z</time>
      </trkpt>
      <trkpt lat="48.43157" lon="7.02607">
        <ele>390</ele>
        <time>2022-04-06T00:09:58Z</time>
      </trkpt>
      <trkpt lat="48.43209" lon="7.02643">
        <ele>396</ele>
        <time>2022-04-06T00:10:09Z</time>
      </trkpt>
      <trkpt lat="48.43223" lon="7.02658">
        <ele>397</ele>
        <time>2022-04-06T00:10:12Z</time>
      </trkpt>
      <trkpt lat="48.43264" lon="7.02723">
        <ele>402</ele>
        <time>2022-04-06T00:10:22Z</time>
      </trkpt>
      <trkpt lat="48.4328" lon="7.02736">
        <ele>405</ele>
        <time>2022-04-06T00:10:25Z</time>
      </trkpt>
      <trkpt lat="48.433" lon="7.0275">
        <ele>408</ele>
        <time>2022-04-06T00:10:29Z</time>
      </trkpt>
      <trkpt lat="48.4336" lon="7.02811">
        <ele>412</ele>
        <time>2022-04-06T00:10:42Z</time>
      </trkpt>
      <trkpt lat="48.43385" lon="7.02844">
        <ele>412</ele>
        <time>2022-04-06T00:10:48Z</time>
      </trkpt>
      <trkpt lat="48.43421" lon="7.02903">
        <ele>412</ele>
        <time>2022-04-06T00:10:58Z</time>
      </trkpt>
      <trkpt lat="48.43431" lon="7.02916">
        <ele>412</ele>
        <time>2022-04-06T00:11:00Z</time>
      </trkpt>
      <trkpt lat="48.43439" lon="7.02923">
        <ele>413</ele>
        <time>2022-04-06T00:11:02Z</time>
      </trkpt>
      <trkpt lat="48.43476" lon="7.02928">
        <ele>415</ele>
        <time>2022-04-06T00:11:08Z</time>
      </trkpt>
      <trkpt lat="48.4349" lon="7.0294">
        <ele>416</ele>
        <time>2022-04-06T00:11:11Z</time>
      </trkpt>
      <trkpt lat="48.43495" lon="7.02951">
        <ele>416</ele>
        <time>2022-04-06T00:11:13Z</time>
      </trkpt>
      <trkpt lat="48.43513" lon="7.03008">
        <ele>415</ele>
        <time>2022-04-06T00:11:20Z</time>
      </trkpt>
      <trkpt lat="48.43519" lon="7.0302">
        <ele>415</ele>
        <time>2022-04-06T00:11:22Z</time>
      </trkpt>
      <trkpt lat="48.43535" lon="7.0304">
        <ele>415</ele>
        <time>2022-04-06T00:11:26Z</time>
      </trkpt>
      <trkpt lat="48.43557" lon="7.03055">
        <ele>414</ele>
        <time>2022-04-06T00:11:30Z</time>
      </trkpt>
      <trkpt lat="48.43579" lon="7.03059">
        <ele>415</ele>
        <time>2022-04-06T00:11:34Z</time>
      </trkpt>
      <trkpt lat="48.43596" lon="7.03066">
        <ele>415</ele>
        <time>2022-04-06T00:11:37Z</time>
      </trkpt>
      <trkpt lat="48.43601" lon="7.0307">
        <ele>415</ele>
        <time>2022-04-06T00:11:38Z</time>
      </trkpt>
      <trkpt lat="48.43608" lon="7.03081">
        <ele>415</ele>
        <time>2022-04-06T00:11:40Z</time>
      </trkpt>
      <trkpt lat="48.43623" lon="7.0311">
        <ele>415</ele>
        <time>2022-04-06T00:11:44Z</time>
      </trkpt>
      <trkpt lat="48.43681" lon="7.03205">
        <ele>417</ele>
        <time>2022-04-06T00:11:59Z</time>
      </trkpt>
      <trkpt lat="48.43732" lon="7.03254">
        <ele>422</ele>
        <time>2022-04-06T00:12:10Z</time>
      </trkpt>
      <trkpt lat="48.43765" lon="7.03296">
        <ele>422</ele>
        <time>2022-04-06T00:12:18Z</time>
      </trkpt>
      <trkpt lat="48.43821" lon="7.03357">
        <ele>423</ele>
        <time>2022-04-06T00:12:30Z</time>
      </trkpt>
      <trkpt lat="48.43837" lon="7.03379">
        <ele>422</ele>
        <time>2022-04-06T00:12:34Z</time>
      </trkpt>
      <trkpt lat="48.43856" lon="7.03388">
        <ele>423</ele>
        <time>2022-04-06T00:12:37Z</time>
      </trkpt>
      <trkpt lat="48.43896" lon="7.03399">
        <ele>426</ele>
        <time>2022-04-06T00:12:45Z</time>
      </trkpt>
      <trkpt lat="48.43912" lon="7.03407">
        <ele>425</ele>
        <time>2022-04-06T00:12:48Z</time>
      </trkpt>
      <trkpt lat="48.43949" lon="7.0343">
        <ele>427</ele>
        <time>2022-04-06T00:12:55Z</time>
      </trkpt>
      <trkpt lat="48.43964" lon="7.03445">
        <ele>427</ele>
        <time>2022-04-06T00:12:58Z</time>
      </trkpt>
      <trkpt lat="48.43975" lon="7.03458">
        <ele>428</ele>
        <time>2022-04-06T00:13:00Z</time>
      </trkpt>
      <trkpt lat="48.43993" lon="7.03501">
        <ele>426</ele>
        <time>2022-04-06T00:13:06Z</time>
      </trkpt>
      <trkpt lat="48.44007" lon="7.03527">
        <ele>426</ele>
        <time>2022-04-06T00:13:10Z</time>
      </trkpt>
      <trkpt lat="48.44029" lon="7.03555">
        <ele>428</ele>
        <time>2022-04-06T00:13:16Z</time>
      </trkpt>
      <trkpt lat="48.44085" lon="7.03604">
        <ele>429</ele>
        <time>2022-04-06T00:13:27Z</time>
      </trkpt>
      <trkpt lat="48.44093" lon="7.03614">
        <ele>430</ele>
        <time>2022-04-06T00:13:29Z</time>
      </trkpt>
      <trkpt lat="48.44126" lon="7.03672">
        <ele>429</ele>
        <time>2022-04-06T00:13:38Z</time>
      </trkpt>
      <trkpt lat="48.44159" lon="7.03717">
        <ele>431</ele>
        <time>2022-04-06T00:13:46Z</time>
      </trkpt>
      <trkpt lat="48.44163" lon="7.03728">
        <ele>431</ele>
        <time>2022-04-06T00:13:47Z</time>
      </trkpt>
      <trkpt lat="48.44179" lon="7.03806">
        <ele>429</ele>
        <time>2022-04-06T00:13:57Z</time>
      </trkpt>
      <trkpt lat="48.44198" lon="7.03878">
        <ele>430</ele>
        <time>2022-04-06T00:14:06Z</time>
      </trkpt>
      <trkpt lat="48.44235" lon="7.03993">
        <ele>432</ele>
        <time>2022-04-06T00:14:21Z</time>
      </trkpt>
      <trkpt lat="48.44255" lon="7.04027">
        <ele>432</ele>
        <time>2022-04-06T00:14:27Z</time>
      </trkpt>
      <trkpt lat="48.44262" lon="7.04033">
        <ele>433</ele>
        <time>2022-04-06T00:14:28Z</time>
      </trkpt>
      <trkpt lat="48.44286" lon="7.04045">
        <ele>434</ele>
        <time>2022-04-06T00:14:33Z</time>
      </trkpt>
      <trkpt lat="48.44348" lon="7.04084">
        <ele>433</ele>
        <time>2022-04-06T00:14:44Z</time>
      </trkpt>
      <trkpt lat="48.44428" lon="7.04126">
        <ele>438</ele>
        <time>2022-04-06T00:15:00Z</time>
      </trkpt>
      <trkpt lat="48.44442" lon="7.04137">
        <ele>439</ele>
        <time>2022-04-06T00:15:02Z</time>
      </trkpt>
      <trkpt lat="48.4451" lon="7.04228">
        <ele>445</ele>
        <time>2022-04-06T00:15:19Z</time>
      </trkpt>
      <trkpt lat="48.44607" lon="7.04364">
        <ele>460</ele>
        <time>2022-04-06T00:15:42Z</time>
      </trkpt>
      <trkpt lat="48.44645" lon="7.04445">
        <ele>460</ele>
        <time>2022-04-06T00:15:54Z</time>
      </trkpt>
      <trkpt lat="48.44694" lon="7.04539">
        <ele>465</ele>
        <time>2022-04-06T00:16:08Z</time>
      </trkpt>
      <trkpt lat="48.44716" lon="7.04585">
        <ele>466</ele>
        <time>2022-04-06T00:16:15Z</time>
      </trkpt>
      <trkpt lat="48.44774" lon="7.04689">
        <ele>473</ele>
        <time>2022-04-06T00:16:31Z</time>
      </trkpt>
      <trkpt lat="48.44787" lon="7.04718">
        <ele>474</ele>
        <time>2022-04-06T00:16:35Z</time>
      </trkpt>
      <trkpt lat="48.44828" lon="7.04868">
        <ele>471</ele>
        <time>2022-04-06T00:16:54Z</time>
      </trkpt>
      <trkpt lat="48.44864" lon="7.04948">
        <ele>478</ele>
        <time>2022-04-06T00:17:05Z</time>
      </trkpt>
      <trkpt lat="48.44883" lon="7.04996">
        <ele>480</ele>
        <time>2022-04-06T00:17:12Z</time>
      </trkpt>
      <trkpt lat="48.44918" lon="7.05106">
        <ele>475</ele>
        <time>2022-04-06T00:17:26Z</time>
      </trkpt>
      <trkpt lat="48.4493" lon="7.05133">
        <ele>477</ele>
        <time>2022-04-06T00:17:30Z</time>
      </trkpt>
      <trkpt lat="48.44943" lon="7.05148">
        <ele>477</ele>
        <time>2022-04-06T00:17:33Z</time>
      </trkpt>
      <trkpt lat="48.45013" lon="7.05163">
        <ele>482</ele>
        <time>2022-04-06T00:17:46Z</time>
      </trkpt>
      <trkpt lat="48.45051" lon="7.05181">
        <ele>489</ele>
        <time>2022-04-06T00:17:53Z</time>
      </trkpt>
      <trkpt lat="48.45074" lon="7.05196">
        <ele>493</ele>
        <time>2022-04-06T00:17:57Z</time>
      </trkpt>
      <trkpt lat="48.45095" lon="7.05194">
        <ele>498</ele>
        <time>2022-04-06T00:18:01Z</time>
      </trkpt>
      <trkpt lat="48.4514" lon="7.05182">
        <ele>509</ele>
        <time>2022-04-06T00:18:09Z</time>
      </trkpt>
      <trkpt lat="48.45206" lon="7.05156">
        <ele>524</ele>
        <time>2022-04-06T00:18:21Z</time>
      </trkpt>
      <trkpt lat="48.45235" lon="7.05159">
        <ele>526</ele>
        <time>2022-04-06T00:18:26Z</time>
      </trkpt>
      <trkpt lat="48.45273" lon="7.0517">
        <ele>529</ele>
        <time>2022-04-06T00:18:33Z</time>
      </trkpt>
      <trkpt lat="48.45294" lon="7.05184">
        <ele>533</ele>
        <time>2022-04-06T00:18:37Z</time>
      </trkpt>
      <trkpt lat="48.45312" lon="7.05215">
        <ele>533</ele>
        <time>2022-04-06T00:18:42Z</time>
      </trkpt>
      <trkpt lat="48.45324" lon="7.05243">
        <ele>532</ele>
        <time>2022-04-06T00:18:46Z</time>
      </trkpt>
      <trkpt lat="48.45332" lon="7.05288">
        <ele>533</ele>
        <time>2022-04-06T00:18:52Z</time>
      </trkpt>
      <trkpt lat="48.45347" lon="7.05335">
        <ele>538</ele>
        <time>2022-04-06T00:18:58Z</time>
      </trkpt>
      <trkpt lat="48.4536" lon="7.05366">
        <ele>543</ele>
        <time>2022-04-06T00:19:02Z</time>
      </trkpt>
      <trkpt lat="48.4541" lon="7.05455">
        <ele>544</ele>
        <time>2022-04-06T00:19:16Z</time>
      </trkpt>
      <trkpt lat="48.4548" lon="7.05548">
        <ele>552</ele>
        <time>2022-04-06T00:19:32Z</time>
      </trkpt>
      <trkpt lat="48.45548" lon="7.05584">
        <ele>554</ele>
        <time>2022-04-06T00:19:45Z</time>
      </trkpt>
      <trkpt lat="48.4559" lon="7.0562">
        <ele>559</ele>
        <time>2022-04-06T00:19:54Z</time>
      </trkpt>
      <trkpt lat="48.45625" lon="7.05644">
        <ele>565</ele>
        <time>2022-04-06T00:20:01Z</time>
      </trkpt>
      <trkpt lat="48.45675" lon="7.05703">
        <ele>570</ele>
        <time>2022-04-06T00:20:12Z</time>
      </trkpt>
      <trkpt lat="48.45723" lon="7.05791">
        <ele>579</ele>
        <time>2022-04-06T00:20:25Z</time>
      </trkpt>
      <trkpt lat="48.45768" lon="7.05879">
        <ele>583</ele>
        <time>2022-04-06T00:20:39Z</time>
      </trkpt>
      <trkpt lat="48.45797" lon="7.05932">
        <ele>586</ele>
        <time>2022-04-06T00:20:47Z</time>
      </trkpt>
      <trkpt lat="48.45821" lon="7.05958">
        <ele>586</ele>
        <time>2022-04-06T00:20:52Z</time>
      </trkpt>
      <trkpt lat="48.45883" lon="7.06015">
        <ele>590</ele>
        <time>2022-04-06T00:21:05Z</time>
      </trkpt>
      <trkpt lat="48.45926" lon="7.06036">
        <ele>596</ele>
        <time>2022-04-06T00:21:13Z</time>
      </trkpt>
      <trkpt lat="48.45959" lon="7.0606">
        <ele>601</ele>
        <time>2022-04-06T00:21:19Z</time>
      </trkpt>
      <trkpt lat="48.46055" lon="7.06168">
        <ele>608</ele>
        <time>2022-04-06T00:21:41Z</time>
      </trkpt>
      <trkpt lat="48.46155" lon="7.06263">
        <ele>616</ele>
        <time>2022-04-06T00:22:02Z</time>
      </trkpt>
      <trkpt lat="48.46171" lon="7.06281">
        <ele>617</ele>
        <time>2022-04-06T00:22:05Z</time>
      </trkpt>
      <trkpt lat="48.46178" lon="7.06309">
        <ele>616</ele>
        <time>2022-04-06T00:22:09Z</time>
      </trkpt>
      <trkpt lat="48.46175" lon="7.06375">
        <ele>615</ele>
        <time>2022-04-06T00:22:17Z</time>
      </trkpt>
      <trkpt lat="48.46165" lon="7.06495">
        <ele>620</ele>
        <time>2022-04-06T00:22:31Z</time>
      </trkpt>
      <trkpt lat="48.46161" lon="7.06568">
        <ele>624</ele>
        <time>2022-04-06T00:22:40Z</time>
      </trkpt>
      <trkpt lat="48.46168" lon="7.06607">
        <ele>624</ele>
        <time>2022-04-06T00:22:44Z</time>
      </trkpt>
      <trkpt lat="48.46177" lon="7.06649">
        <ele>627</ele>
        <time>2022-04-06T00:22:50Z</time>
      </trkpt>
      <trkpt lat="48.46203" lon="7.06721">
        <ele>632</ele>
        <time>2022-04-06T00:22:59Z</time>
      </trkpt>
      <trkpt lat="48.46228" lon="7.06769">
        <ele>632</ele>
        <time>2022-04-06T00:23:06Z</time>
      </trkpt>
      <trkpt lat="48.46249" lon="7.06802">
        <ele>628</ele>
        <time>2022-04-06T00:23:12Z</time>
      </trkpt>
      <trkpt lat="48.46354" lon="7.06859">
        <ele>641</ele>
        <time>2022-04-06T00:23:32Z</time>
      </trkpt>
      <trkpt lat="48.4642" lon="7.06883">
        <ele>647</ele>
        <time>2022-04-06T00:23:44Z</time>
      </trkpt>
      <trkpt lat="48.46484" lon="7.0691">
        <ele>652</ele>
        <time>2022-04-06T00:23:56Z</time>
      </trkpt>
      <trkpt lat="48.46503" lon="7.06924">
        <ele>654</ele>
        <time>2022-04-06T00:23:59Z</time>
      </trkpt>
      <trkpt lat="48.46518" lon="7.06947">
        <ele>657</ele>
        <time>2022-04-06T00:24:03Z</time>
      </trkpt>
      <trkpt lat="48.46526" lon="7.06966">
        <ele>659</ele>
        <time>2022-04-06T00:24:06Z</time>
      </trkpt>
      <trkpt lat="48.46553" lon="7.07078">
        <ele>664</ele>
        <time>2022-04-06T00:24:20Z</time>
      </trkpt>
      <trkpt lat="48.46562" lon="7.07107">
        <ele>664</ele>
        <time>2022-04-06T00:24:24Z</time>
      </trkpt>
      <trkpt lat="48.46578" lon="7.07138">
        <ele>661</ele>
        <time>2022-04-06T00:24:28Z</time>
      </trkpt>
      <trkpt lat="48.46613" lon="7.07177">
        <ele>665</ele>
        <time>2022-04-06T00:24:36Z</time>
      </trkpt>
      <trkpt lat="48.46705" lon="7.07232">
        <ele>672</ele>
        <time>2022-04-06T00:24:54Z</time>
      </trkpt>
      <trkpt lat="48.46731" lon="7.07254">
        <ele>673</ele>
        <time>2022-04-06T00:24:59Z</time>
      </trkpt>
      <trkpt lat="48.46861" lon="7.07408">
        <ele>683</ele>
        <time>2022-04-06T00:25:28Z</time>
      </trkpt>
      <trkpt lat="48.46908" lon="7.07449">
        <ele>686</ele>
        <time>2022-04-06T00:25:38Z</time>
      </trkpt>
      <trkpt lat="48.4694" lon="7.0746">
        <ele>689</ele>
        <time>2022-04-06T00:25:44Z</time>
      </trkpt>
      <trkpt lat="48.46957" lon="7.07469">
        <ele>690</ele>
        <time>2022-04-06T00:25:47Z</time>
      </trkpt>
      <trkpt lat="48.46973" lon="7.07486">
        <ele>690</ele>
        <time>2022-04-06T00:25:51Z</time>
      </trkpt>
      <trkpt lat="48.46983" lon="7.07508">
        <ele>689</ele>
        <time>2022-04-06T00:25:54Z</time>
      </trkpt>
      <trkpt lat="48.46997" lon="7.07603">
        <ele>689</ele>
        <time>2022-04-06T00:26:05Z</time>
      </trkpt>
      <trkpt lat="48.47003" lon="7.07696">
        <ele>690</ele>
        <time>2022-04-06T00:26:16Z</time>
      </trkpt>
      <trkpt lat="48.47002" lon="7.07732">
        <ele>689</ele>
        <time>2022-04-06T00:26:20Z</time>
      </trkpt>
      <trkpt lat="48.46999" lon="7.07765">
        <ele>689</ele>
        <time>2022-04-06T00:26:24Z</time>
      </trkpt>
      <trkpt lat="48.46992" lon="7.078">
        <ele>692</ele>
        <time>2022-04-06T00:26:29Z</time>
      </trkpt>
      <trkpt lat="48.46976" lon="7.07856">
        <ele>696</ele>
        <time>2022-04-06T00:26:36Z</time>
      </trkpt>
      <trkpt lat="48.46967" lon="7.07911">
        <ele>697</ele>
        <time>2022-04-06T00:26:43Z</time>
      </trkpt>
      <trkpt lat="48.46966" lon="7.07949">
        <ele>697</ele>
        <time>2022-04-06T00:26:47Z</time>
      </trkpt>
      <trkpt lat="48.4697" lon="7.0798">
        <ele>697</ele>
        <time>2022-04-06T00:26:51Z</time>
      </trkpt>
      <trkpt lat="48.46977" lon="7.07998">
        <ele>698</ele>
        <time>2022-04-06T00:26:53Z</time>
      </trkpt>
      <trkpt lat="48.46998" lon="7.08026">
        <ele>701</ele>
        <time>2022-04-06T00:26:58Z</time>
      </trkpt>
      <trkpt lat="48.47032" lon="7.08062">
        <ele>709</ele>
        <time>2022-04-06T00:27:06Z</time>
      </trkpt>
      <trkpt lat="48.47125" lon="7.08201">
        <ele>718</ele>
        <time>2022-04-06T00:27:29Z</time>
      </trkpt>
      <trkpt lat="48.47169" lon="7.08279">
        <ele>718</ele>
        <time>2022-04-06T00:27:41Z</time>
      </trkpt>
      <trkpt lat="48.47202" lon="7.0832">
        <ele>726</ele>
        <time>2022-04-06T00:27:49Z</time>
      </trkpt>
      <trkpt lat="48.47217" lon="7.08343">
        <ele>729</ele>
        <time>2022-04-06T00:27:52Z</time>
      </trkpt>
      <trkpt lat="48.47224" lon="7.08358">
        <ele>730</ele>
        <time>2022-04-06T00:27:55Z</time>
      </trkpt>
      <trkpt lat="48.47228" lon="7.0838">
        <ele>730</ele>
        <time>2022-04-06T00:27:57Z</time>
      </trkpt>
      <trkpt lat="48.47237" lon="7.0846">
        <ele>731</ele>
        <time>2022-04-06T00:28:07Z</time>
      </trkpt>
      <trkpt lat="48.47249" lon="7.08531">
        <ele>730</ele>
        <time>2022-04-06T00:28:15Z</time>
      </trkpt>
      <trkpt lat="48.47262" lon="7.08592">
        <ele>735</ele>
        <time>2022-04-06T00:28:23Z</time>
      </trkpt>
      <trkpt lat="48.47287" lon="7.08656">
        <ele>741</ele>
        <time>2022-04-06T00:28:32Z</time>
      </trkpt>
      <trkpt lat="48.47321" lon="7.0873">
        <ele>745</ele>
        <time>2022-04-06T00:28:42Z</time>
      </trkpt>
      <trkpt lat="48.47348" lon="7.0878">
        <ele>747</ele>
        <time>2022-04-06T00:28:50Z</time>
      </trkpt>
      <trkpt lat="48.47366" lon="7.08828">
        <ele>750</ele>
        <time>2022-04-06T00:28:57Z</time>
      </trkpt>
      <trkpt lat="48.47377" lon="7.08871">
        <ele>752</ele>
        <time>2022-04-06T00:29:02Z</time>
      </trkpt>
      <trkpt lat="48.47385" lon="7.08916">
        <ele>752</ele>
        <time>2022-04-06T00:29:07Z</time>
      </trkpt>
      <trkpt lat="48.47388" lon="7.08957">
        <ele>754</ele>
        <time>2022-04-06T00:29:12Z</time>
      </trkpt>
      <trkpt lat="48.4739" lon="7.09033">
        <ele>756</ele>
        <time>2022-04-06T00:29:21Z</time>
      </trkpt>
      <trkpt lat="48.47395" lon="7.0908">
        <ele>756</ele>
        <time>2022-04-06T00:29:27Z</time>
      </trkpt>
      <trkpt lat="48.47416" lon="7.09178">
        <ele>757</ele>
        <time>2022-04-06T00:29:39Z</time>
      </trkpt>
      <trkpt lat="48.47435" lon="7.09241">
        <ele>760</ele>
        <time>2022-04-06T00:29:47Z</time>
      </trkpt>
      <trkpt lat="48.47462" lon="7.09315">
        <ele>764</ele>
        <time>2022-04-06T00:29:57Z</time>
      </trkpt>
      <trkpt lat="48.47553" lon="7.09512">
        <ele>762</ele>
        <time>2022-04-06T00:30:26Z</time>
      </trkpt>
      <trkpt lat="48.47601" lon="7.09591">
        <ele>759</ele>
        <time>2022-04-06T00:30:38Z</time>
      </trkpt>
      <trkpt lat="48.47653" lon="7.09673">
        <ele>758</ele>
        <time>2022-04-06T00:30:52Z</time>
      </trkpt>
      <trkpt lat="48.47709" lon="7.09752">
        <ele>764</ele>
        <time>2022-04-06T00:31:05Z</time>
      </trkpt>
      <trkpt lat="48.47721" lon="7.09781">
        <ele>764</ele>
        <time>2022-04-06T00:31:09Z</time>
      </trkpt>
      <trkpt lat="48.47767" lon="7.09925">
        <ele>764</ele>
        <time>2022-04-06T00:31:28Z</time>
      </trkpt>
      <trkpt lat="48.47814" lon="7.10059">
        <ele>768</ele>
        <time>2022-04-06T00:31:46Z</time>
      </trkpt>
      <trkpt lat="48.47828" lon="7.10122">
        <ele>768</ele>
        <time>2022-04-06T00:31:54Z</time>
      </trkpt>
      <trkpt lat="48.47856" lon="7.10256">
        <ele>773</ele>
        <time>2022-04-06T00:32:10Z</time>
      </trkpt>
      <trkpt lat="48.47859" lon="7.10291">
        <ele>775</ele>
        <time>2022-04-06T00:32:15Z</time>
      </trkpt>
      <trkpt lat="48.47851" lon="7.10411">
        <ele>773</ele>
        <time>2022-04-06T00:32:29Z</time>
      </trkpt>
      <trkpt lat="48.47858" lon="7.10723">
        <ele>784</ele>
        <time>2022-04-06T00:33:06Z</time>
      </trkpt>
      <trkpt lat="48.47857" lon="7.10905">
        <ele>788</ele>
        <time>2022-04-06T00:33:27Z</time>
      </trkpt>
      <trkpt lat="48.47842" lon="7.1165">
        <ele>786</ele>
        <time>2022-04-06T00:34:55Z</time>
      </trkpt>
      <trkpt lat="48.47843" lon="7.11661">
        <ele>786</ele>
        <time>2022-04-06T00:34:56Z</time>
      </trkpt>
      <trkpt lat="48.47845" lon="7.11673">
        <ele>786</ele>
        <time>2022-04-06T00:34:58Z</time>
      </trkpt>
      <trkpt lat="48.47886" lon="7.11792">
        <ele>782</ele>
        <time>2022-04-06T00:35:14Z</time>
      </trkpt>
      <trkpt lat="48.47914" lon="7.11858">
        <ele>777</ele>
        <time>2022-04-06T00:35:23Z</time>
      </trkpt>
      <trkpt lat="48.47938" lon="7.11902">
        <ele>776</ele>
        <time>2022-04-06T00:35:30Z</time>
      </trkpt>
      <trkpt lat="48.47968" lon="7.11936">
        <ele>777</ele>
        <time>2022-04-06T00:35:36Z</time>
      </trkpt>
      <trkpt lat="48.47992" lon="7.11981">
        <ele>772</ele>
        <time>2022-04-06T00:35:43Z</time>
      </trkpt>
      <trkpt lat="48.48038" lon="7.12081">
        <ele>767</ele>
        <time>2022-04-06T00:35:57Z</time>
      </trkpt>
      <trkpt lat="48.48052" lon="7.12119">
        <ele>764</ele>
        <time>2022-04-06T00:36:02Z</time>
      </trkpt>
      <trkpt lat="48.48059" lon="7.12129">
        <ele>763</ele>
        <time>2022-04-06T00:36:04Z</time>
      </trkpt>
      <trkpt lat="48.48095" lon="7.12155">
        <ele>764</ele>
        <time>2022-04-06T00:36:11Z</time>
      </trkpt>
      <trkpt lat="48.48104" lon="7.12164">
        <ele>765</ele>
        <time>2022-04-06T00:36:13Z</time>
      </trkpt>
      <trkpt lat="48.48118" lon="7.12186">
        <ele>767</ele>
        <time>2022-04-06T00:36:17Z</time>
      </trkpt>
      <trkpt lat="48.48126" lon="7.12208">
        <ele>767</ele>
        <time>2022-04-06T00:36:20Z</time>
      </trkpt>
      <trkpt lat="48.48128" lon="7.12221">
        <ele>767</ele>
        <time>2022-04-06T00:36:21Z</time>
      </trkpt>
      <trkpt lat="48.48127" lon="7.12247">
        <ele>764</ele>
        <time>2022-04-06T00:36:24Z</time>
      </trkpt>
      <trkpt lat="48.48129" lon="7.12297">
        <ele>762</ele>
        <time>2022-04-06T00:36:30Z</time>
      </trkpt>
      <trkpt lat="48.48133" lon="7.12319">
        <ele>763</ele>
        <time>2022-04-06T00:36:33Z</time>
      </trkpt>
      <trkpt lat="48.48149" lon="7.12361">
        <ele>766</ele>
        <time>2022-04-06T00:36:39Z</time>
      </trkpt>
      <trkpt lat="48.48163" lon="7.12408">
        <ele>768</ele>
        <time>2022-04-06T00:36:45Z</time>
      </trkpt>
      <trkpt lat="48.4818" lon="7.12453">
        <ele>773</ele>
        <time>2022-04-06T00:36:51Z</time>
      </trkpt>
      <trkpt lat="48.48184" lon="7.12483">
        <ele>773</ele>
        <time>2022-04-06T00:36:55Z</time>
      </trkpt>
      <trkpt lat="48.48182" lon="7.12505">
        <ele>772</ele>
        <time>2022-04-06T00:36:57Z</time>
      </trkpt>
      <trkpt lat="48.48165" lon="7.12556">
        <ele>767</ele>
        <time>2022-04-06T00:37:04Z</time>
      </trkpt>
      <trkpt lat="48.48146" lon="7.12604">
        <ele>762</ele>
        <time>2022-04-06T00:37:10Z</time>
      </trkpt>
      <trkpt lat="48.48128" lon="7.12634">
        <ele>758</ele>
        <time>2022-04-06T00:37:15Z</time>
      </trkpt>
      <trkpt lat="48.48125" lon="7.12642">
        <ele>757</ele>
        <time>2022-04-06T00:37:16Z</time>
      </trkpt>
      <trkpt lat="48.48123" lon="7.1266">
        <ele>757</ele>
        <time>2022-04-06T00:37:18Z</time>
      </trkpt>
      <trkpt lat="48.48123" lon="7.1267">
        <ele>757</ele>
        <time>2022-04-06T00:37:20Z</time>
      </trkpt>
      <trkpt lat="48.4814" lon="7.12762">
        <ele>763</ele>
        <time>2022-04-06T00:37:31Z</time>
      </trkpt>
      <trkpt lat="48.48144" lon="7.12805">
        <ele>765</ele>
        <time>2022-04-06T00:37:36Z</time>
      </trkpt>
      <trkpt lat="48.48146" lon="7.12859">
        <ele>767</ele>
        <time>2022-04-06T00:37:42Z</time>
      </trkpt>
      <trkpt lat="48.48148" lon="7.1289">
        <ele>768</ele>
        <time>2022-04-06T00:37:46Z</time>
      </trkpt>
      <trkpt lat="48.48151" lon="7.12909">
        <ele>770</ele>
        <time>2022-04-06T00:37:48Z</time>
      </trkpt>
      <trkpt lat="48.48156" lon="7.12926">
        <ele>770</ele>
        <time>2022-04-06T00:37:51Z</time>
      </trkpt>
      <trkpt lat="48.48173" lon="7.12969">
        <ele>770</ele>
        <time>2022-04-06T00:37:57Z</time>
      </trkpt>
      <trkpt lat="48.48183" lon="7.12981">
        <ele>769</ele>
        <time>2022-04-06T00:37:59Z</time>
      </trkpt>
      <trkpt lat="48.48187" lon="7.12983">
        <ele>769</ele>
        <time>2022-04-06T00:38:00Z</time>
      </trkpt>
      <trkpt lat="48.48191" lon="7.12981">
        <ele>768</ele>
        <time>2022-04-06T00:38:00Z</time>
      </trkpt>
      <trkpt lat="48.48205" lon="7.12964">
        <ele>768</ele>
        <time>2022-04-06T00:38:03Z</time>
      </trkpt>
      <trkpt lat="48.48235" lon="7.1291">
        <ele>769</ele>
        <time>2022-04-06T00:38:12Z</time>
      </trkpt>
      <trkpt lat="48.48247" lon="7.12892">
        <ele>770</ele>
        <time>2022-04-06T00:38:15Z</time>
      </trkpt>
      <trkpt lat="48.48308" lon="7.12828">
        <ele>770</ele>
        <time>2022-04-06T00:38:28Z</time>
      </trkpt>
      <trkpt lat="48.48319" lon="7.12813">
        <ele>770</ele>
        <time>2022-04-06T00:38:31Z</time>
      </trkpt>
      <trkpt lat="48.48327" lon="7.12793">
        <ele>773</ele>
        <time>2022-04-06T00:38:33Z</time>
      </trkpt>
      <trkpt lat="48.48334" lon="7.1277">
        <ele>776</ele>
        <time>2022-04-06T00:38:36Z</time>
      </trkpt>
      <trkpt lat="48.48377" lon="7.12711">
        <ele>780</ele>
        <time>2022-04-06T00:38:47Z</time>
      </trkpt>
      <trkpt lat="48.48385" lon="7.12703">
        <ele>781</ele>
        <time>2022-04-06T00:38:48Z</time>
      </trkpt>
      <trkpt lat="48.48442" lon="7.1268">
        <ele>785</ele>
        <time>2022-04-06T00:38:59Z</time>
      </trkpt>
      <trkpt lat="48.48463" lon="7.12682">
        <ele>786</ele>
        <time>2022-04-06T00:39:03Z</time>
      </trkpt>
      <trkpt lat="48.48478" lon="7.12694">
        <ele>782</ele>
        <time>2022-04-06T00:39:06Z</time>
      </trkpt>
      <trkpt lat="48.48546" lon="7.12729">
        <ele>778</ele>
        <time>2022-04-06T00:39:18Z</time>
      </trkpt>
      <trkpt lat="48.48568" lon="7.12725">
        <ele>783</ele>
        <time>2022-04-06T00:39:22Z</time>
      </trkpt>
      <trkpt lat="48.48575" lon="7.12727">
        <ele>784</ele>
        <time>2022-04-06T00:39:24Z</time>
      </trkpt>
      <trkpt lat="48.48593" lon="7.12741">
        <ele>782</ele>
        <time>2022-04-06T00:39:27Z</time>
      </trkpt>
      <trkpt lat="48.48605" lon="7.12758">
        <ele>780</ele>
        <time>2022-04-06T00:39:30Z</time>
      </trkpt>
      <trkpt lat="48.48625" lon="7.12798">
        <ele>777</ele>
        <time>2022-04-06T00:39:36Z</time>
      </trkpt>
      <trkpt lat="48.48644" lon="7.12873">
        <ele>775</ele>
        <time>2022-04-06T00:39:46Z</time>
      </trkpt>
      <trkpt lat="48.48657" lon="7.12905">
        <ele>776</ele>
        <time>2022-04-06T00:39:50Z</time>
      </trkpt>
      <trkpt lat="48.48679" lon="7.1293">
        <ele>775</ele>
        <time>2022-04-06T00:39:55Z</time>
      </trkpt>
      <trkpt lat="48.48708" lon="7.12957">
        <ele>771</ele>
        <time>2022-04-06T00:40:01Z</time>
      </trkpt>
      <trkpt lat="48.48724" lon="7.12965">
        <ele>769</ele>
        <time>2022-04-06T00:40:04Z</time>
      </trkpt>
      <trkpt lat="48.4873" lon="7.12964">
        <ele>769</ele>
        <time>2022-04-06T00:40:05Z</time>
      </trkpt>
      <trkpt lat="48.48738" lon="7.12959">
        <ele>769</ele>
        <time>2022-04-06T00:40:07Z</time>
      </trkpt>
      <trkpt lat="48.48743" lon="7.1295">
        <ele>770</ele>
        <time>2022-04-06T00:40:08Z</time>
      </trkpt>
      <trkpt lat="48.48744" lon="7.12938">
        <ele>771</ele>
        <time>2022-04-06T00:40:09Z</time>
      </trkpt>
      <trkpt lat="48.48744" lon="7.12927">
        <ele>772</ele>
        <time>2022-04-06T00:40:11Z</time>
      </trkpt>
      <trkpt lat="48.48718" lon="7.12858">
        <ele>776</ele>
        <time>2022-04-06T00:40:20Z</time>
      </trkpt>
      <trkpt lat="48.48712" lon="7.12841">
        <ele>777</ele>
        <time>2022-04-06T00:40:22Z</time>
      </trkpt>
      <trkpt lat="48.48707" lon="7.12802">
        <ele>781</ele>
        <time>2022-04-06T00:40:27Z</time>
      </trkpt>
      <trkpt lat="48.48707" lon="7.12781">
        <ele>783</ele>
        <time>2022-04-06T00:40:30Z</time>
      </trkpt>
      <trkpt lat="48.48711" lon="7.12763">
        <ele>784</ele>
        <time>2022-04-06T00:40:32Z</time>
      </trkpt>
      <trkpt lat="48.4872" lon="7.12739">
        <ele>786</ele>
        <time>2022-04-06T00:40:35Z</time>
      </trkpt>
      <trkpt lat="48.48729" lon="7.12728">
        <ele>787</ele>
        <time>2022-04-06T00:40:37Z</time>
      </trkpt>
      <trkpt lat="48.48742" lon="7.12721">
        <ele>786</ele>
        <time>2022-04-06T00:40:40Z</time>
      </trkpt>
      <trkpt lat="48.48777" lon="7.12707">
        <ele>788</ele>
        <time>2022-04-06T00:40:46Z</time>
      </trkpt>
      <trkpt lat="48.48796" lon="7.12706">
        <ele>787</ele>
        <time>2022-04-06T00:40:49Z</time>
      </trkpt>
      <trkpt lat="48.48801" lon="7.12709">
        <ele>786</ele>
        <time>2022-04-06T00:40:50Z</time>
      </trkpt>
      <trkpt lat="48.48809" lon="7.1272">
        <ele>783</ele>
        <time>2022-04-06T00:40:52Z</time>
      </trkpt>
      <trkpt lat="48.48819" lon="7.12727">
        <ele>781</ele>
        <time>2022-04-06T00:40:54Z</time>
      </trkpt>
      <trkpt lat="48.48841" lon="7.12736">
        <ele>778</ele>
        <time>2022-04-06T00:40:58Z</time>
      </trkpt>
      <trkpt lat="48.48873" lon="7.12735">
        <ele>781</ele>
        <time>2022-04-06T00:41:04Z</time>
      </trkpt>
      <trkpt lat="48.48889" lon="7.12742">
        <ele>781</ele>
        <time>2022-04-06T00:41:07Z</time>
      </trkpt>
      <trkpt lat="48.48901" lon="7.12755">
        <ele>779</ele>
        <time>2022-04-06T00:41:10Z</time>
      </trkpt>
      <trkpt lat="48.48911" lon="7.12781">
        <ele>774</ele>
        <time>2022-04-06T00:41:13Z</time>
      </trkpt>
      <trkpt lat="48.48969" lon="7.12985">
        <ele>761</ele>
        <time>2022-04-06T00:41:39Z</time>
      </trkpt>
      <trkpt lat="48.48979" lon="7.13006">
        <ele>760</ele>
        <time>2022-04-06T00:41:42Z</time>
      </trkpt>
      <trkpt lat="48.49049" lon="7.13124">
        <ele>757</ele>
        <time>2022-04-06T00:42:01Z</time>
      </trkpt>
      <trkpt lat="48.49083" lon="7.13163">
        <ele>757</ele>
        <time>2022-04-06T00:42:09Z</time>
      </trkpt>
      <trkpt lat="48.49103" lon="7.13178">
        <ele>757</ele>
        <time>2022-04-06T00:42:13Z</time>
      </trkpt>
      <trkpt lat="48.49128" lon="7.13191">
        <ele>757</ele>
        <time>2022-04-06T00:42:17Z</time>
      </trkpt>
      <trkpt lat="48.4915" lon="7.13193">
        <ele>759</ele>
        <time>2022-04-06T00:42:21Z</time>
      </trkpt>
      <trkpt lat="48.4916" lon="7.1319">
        <ele>760</ele>
        <time>2022-04-06T00:42:23Z</time>
      </trkpt>
      <trkpt lat="48.49195" lon="7.13169">
        <ele>763</ele>
        <time>2022-04-06T00:42:30Z</time>
      </trkpt>
      <trkpt lat="48.49228" lon="7.13155">
        <ele>763</ele>
        <time>2022-04-06T00:42:36Z</time>
      </trkpt>
      <trkpt lat="48.49267" lon="7.13147">
        <ele>763</ele>
        <time>2022-04-06T00:42:43Z</time>
      </trkpt>
      <trkpt lat="48.49312" lon="7.13142">
        <ele>763</ele>
        <time>2022-04-06T00:42:51Z</time>
      </trkpt>
      <trkpt lat="48.4935" lon="7.13149">
        <ele>762</ele>
        <time>2022-04-06T00:42:58Z</time>
      </trkpt>
      <trkpt lat="48.49362" lon="7.13159">
        <ele>761</ele>
        <time>2022-04-06T00:43:00Z</time>
      </trkpt>
      <trkpt lat="48.49568" lon="7.13375">
        <ele>761</ele>
        <time>2022-04-06T00:43:45Z</time>
      </trkpt>
      <trkpt lat="48.49641" lon="7.13455">
        <ele>759</ele>
        <time>2022-04-06T00:44:01Z</time>
      </trkpt>
      <trkpt lat="48.49715" lon="7.13531">
        <ele>755</ele>
        <time>2022-04-06T00:44:17Z</time>
      </trkpt>
      <trkpt lat="48.49752" lon="7.13577">
        <ele>755</ele>
        <time>2022-04-06T00:44:25Z</time>
      </trkpt>
      <trkpt lat="48.4977" lon="7.13591">
        <ele>755</ele>
        <time>2022-04-06T00:44:29Z</time>
      </trkpt>
      <trkpt lat="48.49795" lon="7.13605">
        <ele>755</ele>
        <time>2022-04-06T00:44:34Z</time>
      </trkpt>
      <trkpt lat="48.49809" lon="7.13603">
        <ele>755</ele>
        <time>2022-04-06T00:44:36Z</time>
      </trkpt>
      <trkpt lat="48.49951" lon="7.13543">
        <ele>756</ele>
        <time>2022-04-06T00:45:02Z</time>
      </trkpt>
      <trkpt lat="48.50002" lon="7.13517">
        <ele>756</ele>
        <time>2022-04-06T00:45:12Z</time>
      </trkpt>
      <trkpt lat="48.50018" lon="7.1351">
        <ele>756</ele>
        <time>2022-04-06T00:45:15Z</time>
      </trkpt>
      <trkpt lat="48.50036" lon="7.13506">
        <ele>756</ele>
        <time>2022-04-06T00:45:18Z</time>
      </trkpt>
      <trkpt lat="48.50234" lon="7.13507">
        <ele>755</ele>
        <time>2022-04-06T00:45:53Z</time>
      </trkpt>
      <trkpt lat="48.50356" lon="7.13518">
        <ele>753</ele>
        <time>2022-04-06T00:46:15Z</time>
      </trkpt>
      <trkpt lat="48.50394" lon="7.13514">
        <ele>752</ele>
        <time>2022-04-06T00:46:22Z</time>
      </trkpt>
      <trkpt lat="48.50417" lon="7.13513">
        <ele>752</ele>
        <time>2022-04-06T00:46:26Z</time>
      </trkpt>
      <trkpt lat="48.50434" lon="7.13524">
        <ele>751</ele>
        <time>2022-04-06T00:46:29Z</time>
      </trkpt>
      <trkpt lat="48.50447" lon="7.13541">
        <ele>750</ele>
        <time>2022-04-06T00:46:32Z</time>
      </trkpt>
      <trkpt lat="48.50456" lon="7.13561">
        <ele>750</ele>
        <time>2022-04-06T00:46:35Z</time>
      </trkpt>
      <trkpt lat="48.50468" lon="7.13593">
        <ele>750</ele>
        <time>2022-04-06T00:46:39Z</time>
      </trkpt>
      <trkpt lat="48.5049" lon="7.13661">
        <ele>749</ele>
        <time>2022-04-06T00:46:48Z</time>
      </trkpt>
      <trkpt lat="48.50495" lon="7.13687">
        <ele>749</ele>
        <time>2022-04-06T00:46:52Z</time>
      </trkpt>
      <trkpt lat="48.50511" lon="7.13808">
        <ele>747</ele>
        <time>2022-04-06T00:47:06Z</time>
      </trkpt>
      <trkpt lat="48.50521" lon="7.13847">
        <ele>746</ele>
        <time>2022-04-06T00:47:11Z</time>
      </trkpt>
      <trkpt lat="48.50528" lon="7.13888">
        <ele>745</ele>
        <time>2022-04-06T00:47:16Z</time>
      </trkpt>
      <trkpt lat="48.50531" lon="7.13935">
        <ele>744</ele>
        <time>2022-04-06T00:47:22Z</time>
      </trkpt>
      <trkpt lat="48.50534" lon="7.14043">
        <ele>737</ele>
        <time>2022-04-06T00:47:34Z</time>
      </trkpt>
      <trkpt lat="48.5054" lon="7.14062">
        <ele>735</ele>
        <time>2022-04-06T00:47:37Z</time>
      </trkpt>
      <trkpt lat="48.50537" lon="7.14087">
        <ele>735</ele>
        <time>2022-04-06T00:47:40Z</time>
      </trkpt>
      <trkpt lat="48.50537" lon="7.14121">
        <ele>734</ele>
        <time>2022-04-06T00:47:44Z</time>
      </trkpt>
      <trkpt lat="48.5054" lon="7.14144">
        <ele>733</ele>
        <time>2022-04-06T00:47:47Z</time>
      </trkpt>
      <trkpt lat="48.50547" lon="7.14173">
        <ele>732</ele>
        <time>2022-04-06T00:47:50Z</time>
      </trkpt>
      <trkpt lat="48.50566" lon="7.1422">
        <ele>730</ele>
        <time>2022-04-06T00:47:57Z</time>
      </trkpt>
      <trkpt lat="48.50578" lon="7.14249">
        <ele>730</ele>
        <time>2022-04-06T00:48:01Z</time>
      </trkpt>
      <trkpt lat="48.50583" lon="7.14262">
        <ele>730</ele>
        <time>2022-04-06T00:48:03Z</time>
      </trkpt>
      <trkpt lat="48.50599" lon="7.14302">
        <ele>730</ele>
        <time>2022-04-06T00:48:08Z</time>
      </trkpt>
      <trkpt lat="48.50659" lon="7.14455">
        <ele>730</ele>
        <time>2022-04-06T00:48:29Z</time>
      </trkpt>
      <trkpt lat="48.50724" lon="7.14623">
        <ele>729</ele>
        <time>2022-04-06T00:48:52Z</time>
      </trkpt>
      <trkpt lat="48.50746" lon="7.14603">
        <ele>734</ele>
        <time>2022-04-06T00:48:57Z</time>
      </trkpt>
      <trkpt lat="48.50757" lon="7.14597">
        <ele>735</ele>
        <time>2022-04-06T00:48:59Z</time>
      </trkpt>
      <trkpt lat="48.50766" lon="7.14596">
        <ele>736</ele>
        <time>2022-04-06T00:49:00Z</time>
      </trkpt>
      <trkpt lat="48.50775" lon="7.14598">
        <ele>736</ele>
        <time>2022-04-06T00:49:02Z</time>
      </trkpt>
      <trkpt lat="48.50784" lon="7.14604">
        <ele>736</ele>
        <time>2022-04-06T00:49:04Z</time>
      </trkpt>
      <trkpt lat="48.5079" lon="7.14613">
        <ele>736</ele>
        <time>2022-04-06T00:49:05Z</time>
      </trkpt>
      <trkpt lat="48.50796" lon="7.14631">
        <ele>736</ele>
        <time>2022-04-06T00:49:07Z</time>
      </trkpt>
      <trkpt lat="48.50796" lon="7.14651">
        <ele>735</ele>
        <time>2022-04-06T00:49:10Z</time>
      </trkpt>
      <trkpt lat="48.50791" lon="7.14694">
        <ele>733</ele>
        <time>2022-04-06T00:49:15Z</time>
      </trkpt>
      <trkpt lat="48.50789" lon="7.14706">
        <ele>732</ele>
        <time>2022-04-06T00:49:16Z</time>
      </trkpt>
      <trkpt lat="48.50789" lon="7.14738">
        <ele>731</ele>
        <time>2022-04-06T00:49:20Z</time>
      </trkpt>
      <trkpt lat="48.50791" lon="7.14772">
        <ele>732</ele>
        <time>2022-04-06T00:49:24Z</time>
      </trkpt>
      <trkpt lat="48.50804" lon="7.14872">
        <ele>737</ele>
        <time>2022-04-06T00:49:36Z</time>
      </trkpt>
      <trkpt lat="48.50814" lon="7.14931">
        <ele>741</ele>
        <time>2022-04-06T00:49:43Z</time>
      </trkpt>
      <trkpt lat="48.50816" lon="7.14946">
        <ele>742</ele>
        <time>2022-04-06T00:49:45Z</time>
      </trkpt>
      <trkpt lat="48.50821" lon="7.14985">
        <ele>744</ele>
        <time>2022-04-06T00:49:50Z</time>
      </trkpt>
      <trkpt lat="48.50837" lon="7.15057">
        <ele>749</ele>
        <time>2022-04-06T00:49:59Z</time>
      </trkpt>
      <trkpt lat="48.50848" lon="7.15093">
        <ele>751</ele>
        <time>2022-04-06T00:50:04Z</time>
      </trkpt>
      <trkpt lat="48.50864" lon="7.1513">
        <ele>755</ele>
        <time>2022-04-06T00:50:09Z</time>
      </trkpt>
      <trkpt lat="48.50883" lon="7.15164">
        <ele>757</ele>
        <time>2022-04-06T00:50:14Z</time>
      </trkpt>
      <trkpt lat="48.50922" lon="7.15206">
        <ele>762</ele>
        <time>2022-04-06T00:50:22Z</time>
      </trkpt>
      <trkpt lat="48.50947" lon="7.15227">
        <ele>766</ele>
        <time>2022-04-06T00:50:28Z</time>
      </trkpt>
      <trkpt lat="48.50982" lon="7.15256">
        <ele>769</ele>
        <time>2022-04-06T00:50:35Z</time>
      </trkpt>
      <trkpt lat="48.51007" lon="7.15281">
        <ele>770</ele>
        <time>2022-04-06T00:50:40Z</time>
      </trkpt>
      <trkpt lat="48.51044" lon="7.15313">
        <ele>767</ele>
        <time>2022-04-06T00:50:48Z</time>
      </trkpt>
      <trkpt lat="48.51058" lon="7.15333">
        <ele>767</ele>
        <time>2022-04-06T00:50:51Z</time>
      </trkpt>
      <trkpt lat="48.51088" lon="7.15411">
        <ele>766</ele>
        <time>2022-04-06T00:51:02Z</time>
      </trkpt>
      <trkpt lat="48.511" lon="7.15425">
        <ele>766</ele>
        <time>2022-04-06T00:51:04Z</time>
      </trkpt>
      <trkpt lat="48.51113" lon="7.15432">
        <ele>766</ele>
        <time>2022-04-06T00:51:07Z</time>
      </trkpt>
      <trkpt lat="48.51169" lon="7.15431">
        <ele>765</ele>
        <time>2022-04-06T00:51:17Z</time>
      </trkpt>
      <trkpt lat="48.51184" lon="7.15441">
        <ele>764</ele>
        <time>2022-04-06T00:51:20Z</time>
      </trkpt>
      <trkpt lat="48.51196" lon="7.15457">
        <ele>764</ele>
        <time>2022-04-06T00:51:23Z</time>
      </trkpt>
      <trkpt lat="48.51204" lon="7.15471">
        <ele>764</ele>
        <time>2022-04-06T00:51:25Z</time>
      </trkpt>
      <trkpt lat="48.51222" lon="7.15515">
        <ele>767</ele>
        <time>2022-04-06T00:51:31Z</time>
      </trkpt>
      <trkpt lat="48.5123" lon="7.15526">
        <ele>767</ele>
        <time>2022-04-06T00:51:33Z</time>
      </trkpt>
      <trkpt lat="48.5124" lon="7.15532">
        <ele>767</ele>
        <time>2022-04-06T00:51:35Z</time>
      </trkpt>
      <trkpt lat="48.51263" lon="7.15537">
        <ele>766</ele>
        <time>2022-04-06T00:51:39Z</time>
      </trkpt>
      <trkpt lat="48.51276" lon="7.15545">
        <ele>765</ele>
        <time>2022-04-06T00:51:41Z</time>
      </trkpt>
      <trkpt lat="48.51291" lon="7.15558">
        <ele>765</ele>
        <time>2022-04-06T00:51:44Z</time>
      </trkpt>
      <trkpt lat="48.51306" lon="7.15574">
        <ele>766</ele>
        <time>2022-04-06T00:51:48Z</time>
      </trkpt>
      <trkpt lat="48.51327" lon="7.15614">
        <ele>770</ele>
        <time>2022-04-06T00:51:54Z</time>
      </trkpt>
      <trkpt lat="48.51338" lon="7.15625">
        <ele>771</ele>
        <time>2022-04-06T00:51:56Z</time>
      </trkpt>
      <trkpt lat="48.51358" lon="7.15643">
        <ele>772</ele>
        <time>2022-04-06T00:52:00Z</time>
      </trkpt>
      <trkpt lat="48.51425" lon="7.15687">
        <ele>770</ele>
        <time>2022-04-06T00:52:13Z</time>
      </trkpt>
      <trkpt lat="48.51464" lon="7.15716">
        <ele>769</ele>
        <time>2022-04-06T00:52:21Z</time>
      </trkpt>
      <trkpt lat="48.51489" lon="7.15739">
        <ele>768</ele>
        <time>2022-04-06T00:52:26Z</time>
      </trkpt>
      <trkpt lat="48.51533" lon="7.1577">
        <ele>767</ele>
        <time>2022-04-06T00:52:35Z</time>
      </trkpt>
      <trkpt lat="48.51667" lon="7.15902">
        <ele>762</ele>
        <time>2022-04-06T00:53:03Z</time>
      </trkpt>
      <trkpt lat="48.51698" lon="7.15947">
        <ele>759</ele>
        <time>2022-04-06T00:53:11Z</time>
      </trkpt>
      <trkpt lat="48.51741" lon="7.16013">
        <ele>752</ele>
        <time>2022-04-06T00:53:22Z</time>
      </trkpt>
      <trkpt lat="48.51757" lon="7.1605">
        <ele>752</ele>
        <time>2022-04-06T00:53:27Z</time>
      </trkpt>
      <trkpt lat="48.51771" lon="7.16084">
        <ele>752</ele>
        <time>2022-04-06T00:53:32Z</time>
      </trkpt>
      <trkpt lat="48.51788" lon="7.16132">
        <ele>753</ele>
        <time>2022-04-06T00:53:38Z</time>
      </trkpt>
      <trkpt lat="48.51814" lon="7.16213">
        <ele>754</ele>
        <time>2022-04-06T00:53:49Z</time>
      </trkpt>
      <trkpt lat="48.51844" lon="7.16385">
        <ele>758</ele>
        <time>2022-04-06T00:54:10Z</time>
      </trkpt>
      <trkpt lat="48.51847" lon="7.16418">
        <ele>760</ele>
        <time>2022-04-06T00:54:14Z</time>
      </trkpt>
      <trkpt lat="48.51845" lon="7.16445">
        <ele>761</ele>
        <time>2022-04-06T00:54:17Z</time>
      </trkpt>
      <trkpt lat="48.5184" lon="7.16468">
        <ele>762</ele>
        <time>2022-04-06T00:54:20Z</time>
      </trkpt>
      <trkpt lat="48.51822" lon="7.16522">
        <ele>766</ele>
        <time>2022-04-06T00:54:27Z</time>
      </trkpt>
      <trkpt lat="48.51811" lon="7.16562">
        <ele>769</ele>
        <time>2022-04-06T00:54:32Z</time>
      </trkpt>
      <trkpt lat="48.51806" lon="7.16599">
        <ele>771</ele>
        <time>2022-04-06T00:54:36Z</time>
      </trkpt>
      <trkpt lat="48.51801" lon="7.16674">
        <ele>777</ele>
        <time>2022-04-06T00:54:45Z</time>
      </trkpt>
      <trkpt lat="48.51796" lon="7.16692">
        <ele>779</ele>
        <time>2022-04-06T00:54:48Z</time>
      </trkpt>
      <trkpt lat="48.5177" lon="7.16749">
        <ele>788</ele>
        <time>2022-04-06T00:54:56Z</time>
      </trkpt>
      <trkpt lat="48.51768" lon="7.16764">
        <ele>790</ele>
        <time>2022-04-06T00:54:57Z</time>
      </trkpt>
      <trkpt lat="48.5177" lon="7.16781">
        <ele>792</ele>
        <time>2022-04-06T00:55:00Z</time>
      </trkpt>
      <trkpt lat="48.51775" lon="7.16794">
        <ele>792</ele>
        <time>2022-04-06T00:55:01Z</time>
      </trkpt>
      <trkpt lat="48.51786" lon="7.16803">
        <ele>792</ele>
        <time>2022-04-06T00:55:04Z</time>
      </trkpt>
      <trkpt lat="48.51798" lon="7.16806">
        <ele>790</ele>
        <time>2022-04-06T00:55:06Z</time>
      </trkpt>
      <trkpt lat="48.51809" lon="7.16804">
        <ele>788</ele>
        <time>2022-04-06T00:55:08Z</time>
      </trkpt>
      <trkpt lat="48.51818" lon="7.168">
        <ele>786</ele>
        <time>2022-04-06T00:55:09Z</time>
      </trkpt>
      <trkpt lat="48.51823" lon="7.16804">
        <ele>786</ele>
        <time>2022-04-06T00:55:10Z</time>
      </trkpt>
      <trkpt lat="48.51835" lon="7.16807">
        <ele>785</ele>
        <time>2022-04-06T00:55:12Z</time>
      </trkpt>
      <trkpt lat="48.51855" lon="7.16803">
        <ele>784</ele>
        <time>2022-04-06T00:55:16Z</time>
      </trkpt>
      <trkpt lat="48.51897" lon="7.16801">
        <ele>783</ele>
        <time>2022-04-06T00:55:24Z</time>
      </trkpt>
      <trkpt lat="48.5196" lon="7.1681">
        <ele>783</ele>
        <time>2022-04-06T00:55:35Z</time>
      </trkpt>
      <trkpt lat="48.51998" lon="7.16821">
        <ele>785</ele>
        <time>2022-04-06T00:55:42Z</time>
      </trkpt>
      <trkpt lat="48.52033" lon="7.16824">
        <ele>787</ele>
        <time>2022-04-06T00:55:48Z</time>
      </trkpt>
      <trkpt lat="48.52075" lon="7.16817">
        <ele>788</ele>
        <time>2022-04-06T00:55:55Z</time>
      </trkpt>
      <trkpt lat="48.52085" lon="7.16813">
        <ele>788</ele>
        <time>2022-04-06T00:55:57Z</time>
      </trkpt>
      <trkpt lat="48.52128" lon="7.1679">
        <ele>790</ele>
        <time>2022-04-06T00:56:05Z</time>
      </trkpt>
      <trkpt lat="48.52159" lon="7.16769">
        <ele>791</ele>
        <time>2022-04-06T00:56:11Z</time>
      </trkpt>
      <trkpt lat="48.52177" lon="7.16748">
        <ele>789</ele>
        <time>2022-04-06T00:56:16Z</time>
      </trkpt>
      <trkpt lat="48.52199" lon="7.16715">
        <ele>787</ele>
        <time>2022-04-06T00:56:21Z</time>
      </trkpt>
      <trkpt lat="48.5223" lon="7.16662">
        <ele>786</ele>
        <time>2022-04-06T00:56:29Z</time>
      </trkpt>
      <trkpt lat="48.5226" lon="7.16619">
        <ele>787</ele>
        <time>2022-04-06T00:56:37Z</time>
      </trkpt>
      <trkpt lat="48.52278" lon="7.16606">
        <ele>787</ele>
        <time>2022-04-06T00:56:40Z</time>
      </trkpt>
      <trkpt lat="48.52306" lon="7.1659">
        <ele>787</ele>
        <time>2022-04-06T00:56:46Z</time>
      </trkpt>
      <trkpt lat="48.52338" lon="7.16578">
        <ele>787</ele>
        <time>2022-04-06T00:56:51Z</time>
      </trkpt>
      <trkpt lat="48.52365" lon="7.16576">
        <ele>787</ele>
        <time>2022-04-06T00:56:56Z</time>
      </trkpt>
      <trkpt lat="48.52402" lon="7.1658">
        <ele>788</ele>
        <time>2022-04-06T00:57:03Z</time>
      </trkpt>
      <trkpt lat="48.5245" lon="7.16597">
        <ele>788</ele>
        <time>2022-04-06T00:57:12Z</time>
      </trkpt>
      <trkpt lat="48.52523" lon="7.16617">
        <ele>787</ele>
        <time>2022-04-06T00:57:25Z</time>
      </trkpt>
      <trkpt lat="48.52603" lon="7.16645">
        <ele>785</ele>
        <time>2022-04-06T00:57:39Z</time>
      </trkpt>
      <trkpt lat="48.52649" lon="7.16664">
        <ele>785</ele>
        <time>2022-04-06T00:57:48Z</time>
      </trkpt>
      <trkpt lat="48.5268" lon="7.16686">
        <ele>784</ele>
        <time>2022-04-06T00:57:54Z</time>
      </trkpt>
      <trkpt lat="48.5273" lon="7.16735">
        <ele>784</ele>
        <time>2022-04-06T00:58:05Z</time>
      </trkpt>
      <trkpt lat="48.52746" lon="7.16755">
        <ele>784</ele>
        <time>2022-04-06T00:58:08Z</time>
      </trkpt>
      <trkpt lat="48.52752" lon="7.16762">
        <ele>784</ele>
        <time>2022-04-06T00:58:10Z</time>
      </trkpt>
      <trkpt lat="48.52761" lon="7.16773">
        <ele>783</ele>
        <time>2022-04-06T00:58:12Z</time>
      </trkpt>
      <trkpt lat="48.52813" lon="7.1683">
        <ele>785</ele>
        <time>2022-04-06T00:58:23Z</time>
      </trkpt>
      <trkpt lat="48.52841" lon="7.16854">
        <ele>783</ele>
        <time>2022-04-06T00:58:29Z</time>
      </trkpt>
      <trkpt lat="48.52856" lon="7.16861">
        <ele>783</ele>
        <time>2022-04-06T00:58:32Z</time>
      </trkpt>
      <trkpt lat="48.5287" lon="7.16867">
        <ele>783</ele>
        <time>2022-04-06T00:58:34Z</time>
      </trkpt>
      <trkpt lat="48.5291" lon="7.16883">
        <ele>785</ele>
        <time>2022-04-06T00:58:42Z</time>
      </trkpt>
      <trkpt lat="48.52947" lon="7.16894">
        <ele>791</ele>
        <time>2022-04-06T00:58:48Z</time>
      </trkpt>
      <trkpt lat="48.52963" lon="7.16902">
        <ele>793</ele>
        <time>2022-04-06T00:58:51Z</time>
      </trkpt>
      <trkpt lat="48.52987" lon="7.16919">
        <ele>797</ele>
        <time>2022-04-06T00:58:56Z</time>
      </trkpt>
      <trkpt lat="48.53018" lon="7.1695">
        <ele>798</ele>
        <time>2022-04-06T00:59:03Z</time>
      </trkpt>
      <trkpt lat="48.53086" lon="7.17009">
        <ele>807</ele>
        <time>2022-04-06T00:59:17Z</time>
      </trkpt>
      <trkpt lat="48.53168" lon="7.17092">
        <ele>812</ele>
        <time>2022-04-06T00:59:34Z</time>
      </trkpt>
      <trkpt lat="48.53214" lon="7.17159">
        <ele>807</ele>
        <time>2022-04-06T00:59:46Z</time>
      </trkpt>
      <trkpt lat="48.53225" lon="7.1717">
        <ele>807</ele>
        <time>2022-04-06T00:59:48Z</time>
      </trkpt>
      <trkpt lat="48.53239" lon="7.17179">
        <ele>808</ele>
        <time>2022-04-06T00:59:51Z</time>
      </trkpt>
      <trkpt lat="48.5325" lon="7.17186">
        <ele>809</ele>
        <time>2022-04-06T00:59:53Z</time>
      </trkpt>
      <trkpt lat="48.53253" lon="7.17188">
        <ele>808</ele>
        <time>2022-04-06T00:59:53Z</time>
      </trkpt>
      <trkpt lat="48.53302" lon="7.17219">
        <ele>802</ele>
        <time>2022-04-06T01:00:03Z</time>
      </trkpt>
      <trkpt lat="48.53325" lon="7.17239">
        <ele>802</ele>
        <time>2022-04-06T01:00:08Z</time>
      </trkpt>
      <trkpt lat="48.53368" lon="7.17287">
        <ele>802</ele>
        <time>2022-04-06T01:00:17Z</time>
      </trkpt>
      <trkpt lat="48.53379" lon="7.173">
        <ele>802</ele>
        <time>2022-04-06T01:00:20Z</time>
      </trkpt>
      <trkpt lat="48.53455" lon="7.1739">
        <ele>801</ele>
        <time>2022-04-06T01:00:37Z</time>
      </trkpt>
      <trkpt lat="48.53539" lon="7.17466">
        <ele>794</ele>
        <time>2022-04-06T01:00:54Z</time>
      </trkpt>
      <trkpt lat="48.53561" lon="7.17492">
        <ele>794</ele>
        <time>2022-04-06T01:00:59Z</time>
      </trkpt>
      <trkpt lat="48.53576" lon="7.17513">
        <ele>794</ele>
        <time>2022-04-06T01:01:03Z</time>
      </trkpt>
      <trkpt lat="48.53581" lon="7.17515">
        <ele>793</ele>
        <time>2022-04-06T01:01:04Z</time>
      </trkpt>
      <trkpt lat="48.53585" lon="7.17512">
        <ele>791</ele>
        <time>2022-04-06T01:01:04Z</time>
      </trkpt>
      <trkpt lat="48.53587" lon="7.17505">
        <ele>789</ele>
        <time>2022-04-06T01:01:05Z</time>
      </trkpt>
      <trkpt lat="48.53585" lon="7.17494">
        <ele>787</ele>
        <time>2022-04-06T01:01:07Z</time>
      </trkpt>
      <trkpt lat="48.53554" lon="7.17459">
        <ele>788</ele>
        <time>2022-04-06T01:01:14Z</time>
      </trkpt>
      <trkpt lat="48.53502" lon="7.17396">
        <ele>790</ele>
        <time>2022-04-06T01:01:25Z</time>
      </trkpt>
      <trkpt lat="48.53439" lon="7.17265">
        <ele>784</ele>
        <time>2022-04-06T01:01:45Z</time>
      </trkpt>
      <trkpt lat="48.53415" lon="7.17196">
        <ele>779</ele>
        <time>2022-04-06T01:01:54Z</time>
      </trkpt>
      <trkpt lat="48.53396" lon="7.1712">
        <ele>776</ele>
        <time>2022-04-06T01:02:03Z</time>
      </trkpt>
      <trkpt lat="48.53391" lon="7.17063">
        <ele>775</ele>
        <time>2022-04-06T01:02:10Z</time>
      </trkpt>
      <trkpt lat="48.53399" lon="7.17005">
        <ele>772</ele>
        <time>2022-04-06T01:02:17Z</time>
      </trkpt>
      <trkpt lat="48.53415" lon="7.16952">
        <ele>774</ele>
        <time>2022-04-06T01:02:24Z</time>
      </trkpt>
      <trkpt lat="48.53453" lon="7.16898">
        <ele>773</ele>
        <time>2022-04-06T01:02:33Z</time>
      </trkpt>
      <trkpt lat="48.53483" lon="7.16869">
        <ele>771</ele>
        <time>2022-04-06T01:02:40Z</time>
      </trkpt>
      <trkpt lat="48.53487" lon="7.16864">
        <ele>771</ele>
        <time>2022-04-06T01:02:40Z</time>
      </trkpt>
      <trkpt lat="48.53504" lon="7.16856">
        <ele>769</ele>
        <time>2022-04-06T01:02:44Z</time>
      </trkpt>
      <trkpt lat="48.53525" lon="7.16855">
        <ele>768</ele>
        <time>2022-04-06T01:02:47Z</time>
      </trkpt>
      <trkpt lat="48.53574" lon="7.1687">
        <ele>760</ele>
        <time>2022-04-06T01:02:56Z</time>
      </trkpt>
      <trkpt lat="48.53688" lon="7.1693">
        <ele>744</ele>
        <time>2022-04-06T01:03:18Z</time>
      </trkpt>
      <trkpt lat="48.53708" lon="7.16936">
        <ele>741</ele>
        <time>2022-04-06T01:03:21Z</time>
      </trkpt>
      <trkpt lat="48.5373" lon="7.16933">
        <ele>740</ele>
        <time>2022-04-06T01:03:25Z</time>
      </trkpt>
      <trkpt lat="48.5375" lon="7.1692">
        <ele>741</ele>
        <time>2022-04-06T01:03:29Z</time>
      </trkpt>
      <trkpt lat="48.53757" lon="7.16909">
        <ele>742</ele>
        <time>2022-04-06T01:03:31Z</time>
      </trkpt>
      <trkpt lat="48.53771" lon="7.16875">
        <ele>746</ele>
        <time>2022-04-06T01:03:36Z</time>
      </trkpt>
      <trkpt lat="48.53795" lon="7.16826">
        <ele>752</ele>
        <time>2022-04-06T01:03:43Z</time>
      </trkpt>
      <trkpt lat="48.53817" lon="7.1679">
        <ele>756</ele>
        <time>2022-04-06T01:03:49Z</time>
      </trkpt>
      <trkpt lat="48.53831" lon="7.16774">
        <ele>758</ele>
        <time>2022-04-06T01:03:52Z</time>
      </trkpt>
      <trkpt lat="48.53855" lon="7.16755">
        <ele>761</ele>
        <time>2022-04-06T01:03:57Z</time>
      </trkpt>
      <trkpt lat="48.53872" lon="7.16744">
        <ele>763</ele>
        <time>2022-04-06T01:04:00Z</time>
      </trkpt>
      <trkpt lat="48.53892" lon="7.16739">
        <ele>764</ele>
        <time>2022-04-06T01:04:03Z</time>
      </trkpt>
      <trkpt lat="48.53903" lon="7.16743">
        <ele>763</ele>
        <time>2022-04-06T01:04:05Z</time>
      </trkpt>
      <trkpt lat="48.53912" lon="7.1675">
        <ele>761</ele>
        <time>2022-04-06T01:04:07Z</time>
      </trkpt>
      <trkpt lat="48.53926" lon="7.16766">
        <ele>758</ele>
        <time>2022-04-06T01:04:10Z</time>
      </trkpt>
      <trkpt lat="48.54008" lon="7.16871">
        <ele>743</ele>
        <time>2022-04-06T01:04:30Z</time>
      </trkpt>
      <trkpt lat="48.54059" lon="7.16924">
        <ele>739</ele>
        <time>2022-04-06T01:04:41Z</time>
      </trkpt>
      <trkpt lat="48.54083" lon="7.16938">
        <ele>737</ele>
        <time>2022-04-06T01:04:45Z</time>
      </trkpt>
      <trkpt lat="48.54108" lon="7.16943">
        <ele>733</ele>
        <time>2022-04-06T01:04:50Z</time>
      </trkpt>
      <trkpt lat="48.54129" lon="7.1694">
        <ele>731</ele>
        <time>2022-04-06T01:04:53Z</time>
      </trkpt>
      <trkpt lat="48.54148" lon="7.16924">
        <ele>733</ele>
        <time>2022-04-06T01:04:57Z</time>
      </trkpt>
      <trkpt lat="48.54173" lon="7.16887">
        <ele>734</ele>
        <time>2022-04-06T01:05:03Z</time>
      </trkpt>
      <trkpt lat="48.54193" lon="7.16846">
        <ele>733</ele>
        <time>2022-04-06T01:05:09Z</time>
      </trkpt>
      <trkpt lat="48.54207" lon="7.16803">
        <ele>732</ele>
        <time>2022-04-06T01:05:15Z</time>
      </trkpt>
      <trkpt lat="48.54213" lon="7.16779">
        <ele>731</ele>
        <time>2022-04-06T01:05:18Z</time>
      </trkpt>
      <trkpt lat="48.54218" lon="7.16746">
        <ele>732</ele>
        <time>2022-04-06T01:05:22Z</time>
      </trkpt>
      <trkpt lat="48.54222" lon="7.16733">
        <ele>732</ele>
        <time>2022-04-06T01:05:24Z</time>
      </trkpt>
      <trkpt lat="48.54228" lon="7.16724">
        <ele>731</ele>
        <time>2022-04-06T01:05:25Z</time>
      </trkpt>
      <trkpt lat="48.54234" lon="7.16719">
        <ele>730</ele>
        <time>2022-04-06T01:05:27Z</time>
      </trkpt>
      <trkpt lat="48.54242" lon="7.16717">
        <ele>727</ele>
        <time>2022-04-06T01:05:28Z</time>
      </trkpt>
      <trkpt lat="48.5429" lon="7.16729">
        <ele>720</ele>
        <time>2022-04-06T01:05:37Z</time>
      </trkpt>
      <trkpt lat="48.54319" lon="7.16741">
        <ele>715</ele>
        <time>2022-04-06T01:05:42Z</time>
      </trkpt>
      <trkpt lat="48.54397" lon="7.16792">
        <ele>709</ele>
        <time>2022-04-06T01:05:57Z</time>
      </trkpt>
      <trkpt lat="48.54456" lon="7.16837">
        <ele>709</ele>
        <time>2022-04-06T01:06:09Z</time>
      </trkpt>
      <trkpt lat="48.54467" lon="7.16838">
        <ele>709</ele>
        <time>2022-04-06T01:06:11Z</time>
      </trkpt>
      <trkpt lat="48.54517" lon="7.1683">
        <ele>707</ele>
        <time>2022-04-06T01:06:20Z</time>
      </trkpt>
      <trkpt lat="48.54533" lon="7.16839">
        <ele>704</ele>
        <time>2022-04-06T01:06:23Z</time>
      </trkpt>
      <trkpt lat="48.54543" lon="7.16853">
        <ele>702</ele>
        <time>2022-04-06T01:06:25Z</time>
      </trkpt>
      <trkpt lat="48.54558" lon="7.16905">
        <ele>700</ele>
        <time>2022-04-06T01:06:32Z</time>
      </trkpt>
      <trkpt lat="48.54566" lon="7.16961">
        <ele>697</ele>
        <time>2022-04-06T01:06:39Z</time>
      </trkpt>
      <trkpt lat="48.54571" lon="7.17084">
        <ele>689</ele>
        <time>2022-04-06T01:06:53Z</time>
      </trkpt>
      <trkpt lat="48.54566" lon="7.17124">
        <ele>685</ele>
        <time>2022-04-06T01:06:58Z</time>
      </trkpt>
      <trkpt lat="48.54558" lon="7.17154">
        <ele>682</ele>
        <time>2022-04-06T01:07:02Z</time>
      </trkpt>
      <trkpt lat="48.54549" lon="7.17168">
        <ele>679</ele>
        <time>2022-04-06T01:07:04Z</time>
      </trkpt>
      <trkpt lat="48.54538" lon="7.17174">
        <ele>676</ele>
        <time>2022-04-06T01:07:06Z</time>
      </trkpt>
      <trkpt lat="48.54525" lon="7.17168">
        <ele>676</ele>
        <time>2022-04-06T01:07:09Z</time>
      </trkpt>
      <trkpt lat="48.54497" lon="7.17124">
        <ele>677</ele>
        <time>2022-04-06T01:07:16Z</time>
      </trkpt>
      <trkpt lat="48.54466" lon="7.17058">
        <ele>674</ele>
        <time>2022-04-06T01:07:25Z</time>
      </trkpt>
      <trkpt lat="48.54426" lon="7.16991">
        <ele>673</ele>
        <time>2022-04-06T01:07:36Z</time>
      </trkpt>
      <trkpt lat="48.54376" lon="7.16922">
        <ele>679</ele>
        <time>2022-04-06T01:07:48Z</time>
      </trkpt>
      <trkpt lat="48.54317" lon="7.16869">
        <ele>689</ele>
        <time>2022-04-06T01:08:00Z</time>
      </trkpt>
      <trkpt lat="48.54308" lon="7.16866">
        <ele>692</ele>
        <time>2022-04-06T01:08:02Z</time>
      </trkpt>
      <trkpt lat="48.54302" lon="7.16868">
        <ele>694</ele>
        <time>2022-04-06T01:08:03Z</time>
      </trkpt>
      <trkpt lat="48.54295" lon="7.16873">
        <ele>695</ele>
        <time>2022-04-06T01:08:04Z</time>
      </trkpt>
      <trkpt lat="48.5429" lon="7.16882">
        <ele>695</ele>
        <time>2022-04-06T01:08:06Z</time>
      </trkpt>
      <trkpt lat="48.54249" lon="7.17008">
        <ele>685</ele>
        <time>2022-04-06T01:08:22Z</time>
      </trkpt>
      <trkpt lat="48.54232" lon="7.17046">
        <ele>681</ele>
        <time>2022-04-06T01:08:28Z</time>
      </trkpt>
      <trkpt lat="48.5422" lon="7.17064">
        <ele>679</ele>
        <time>2022-04-06T01:08:31Z</time>
      </trkpt>
      <trkpt lat="48.54205" lon="7.17079">
        <ele>678</ele>
        <time>2022-04-06T01:08:34Z</time>
      </trkpt>
      <trkpt lat="48.54166" lon="7.17105">
        <ele>678</ele>
        <time>2022-04-06T01:08:41Z</time>
      </trkpt>
      <trkpt lat="48.54031" lon="7.17165">
        <ele>669</ele>
        <time>2022-04-06T01:09:06Z</time>
      </trkpt>
      <trkpt lat="48.53967" lon="7.17158">
        <ele>674</ele>
        <time>2022-04-06T01:09:18Z</time>
      </trkpt>
      <trkpt lat="48.5395" lon="7.17168">
        <ele>673</ele>
        <time>2022-04-06T01:09:21Z</time>
      </trkpt>
      <trkpt lat="48.53927" lon="7.17195">
        <ele>668</ele>
        <time>2022-04-06T01:09:26Z</time>
      </trkpt>
      <trkpt lat="48.53909" lon="7.17213">
        <ele>665</ele>
        <time>2022-04-06T01:09:30Z</time>
      </trkpt>
      <trkpt lat="48.53903" lon="7.17224">
        <ele>663</ele>
        <time>2022-04-06T01:09:32Z</time>
      </trkpt>
      <trkpt lat="48.539" lon="7.1724">
        <ele>660</ele>
        <time>2022-04-06T01:09:34Z</time>
      </trkpt>
      <trkpt lat="48.539" lon="7.17246">
        <ele>658</ele>
        <time>2022-04-06T01:09:34Z</time>
      </trkpt>
      <trkpt lat="48.53905" lon="7.17259">
        <ele>656</ele>
        <time>2022-04-06T01:09:36Z</time>
      </trkpt>
      <trkpt lat="48.53911" lon="7.1727">
        <ele>655</ele>
        <time>2022-04-06T01:09:38Z</time>
      </trkpt>
      <trkpt lat="48.53979" lon="7.17321">
        <ele>641</ele>
        <time>2022-04-06T01:09:51Z</time>
      </trkpt>
      <trkpt lat="48.54151" lon="7.17402">
        <ele>622</ele>
        <time>2022-04-06T01:10:24Z</time>
      </trkpt>
      <trkpt lat="48.54193" lon="7.17431">
        <ele>618</ele>
        <time>2022-04-06T01:10:32Z</time>
      </trkpt>
      <trkpt lat="48.54223" lon="7.17464">
        <ele>616</ele>
        <time>2022-04-06T01:10:38Z</time>
      </trkpt>
      <trkpt lat="48.54246" lon="7.17499">
        <ele>615</ele>
        <time>2022-04-06T01:10:44Z</time>
      </trkpt>
      <trkpt lat="48.54278" lon="7.17561">
        <ele>617</ele>
        <time>2022-04-06T01:10:53Z</time>
      </trkpt>
      <trkpt lat="48.54331" lon="7.17634">
        <ele>604</ele>
        <time>2022-04-06T01:11:06Z</time>
      </trkpt>
      <trkpt lat="48.54338" lon="7.17651">
        <ele>603</ele>
        <time>2022-04-06T01:11:09Z</time>
      </trkpt>
      <trkpt lat="48.54341" lon="7.17671">
        <ele>604</ele>
        <time>2022-04-06T01:11:11Z</time>
      </trkpt>
      <trkpt lat="48.54341" lon="7.17692">
        <ele>604</ele>
        <time>2022-04-06T01:11:13Z</time>
      </trkpt>
      <trkpt lat="48.54336" lon="7.1771">
        <ele>606</ele>
        <time>2022-04-06T01:11:16Z</time>
      </trkpt>
      <trkpt lat="48.54309" lon="7.17747">
        <ele>616</ele>
        <time>2022-04-06T01:11:22Z</time>
      </trkpt>
      <trkpt lat="48.54297" lon="7.17771">
        <ele>618</ele>
        <time>2022-04-06T01:11:26Z</time>
      </trkpt>
      <trkpt lat="48.54237" lon="7.17955">
        <ele>618</ele>
        <time>2022-04-06T01:11:50Z</time>
      </trkpt>
      <trkpt lat="48.54236" lon="7.17987">
        <ele>617</ele>
        <time>2022-04-06T01:11:54Z</time>
      </trkpt>
      <trkpt lat="48.54243" lon="7.18007">
        <ele>615</ele>
        <time>2022-04-06T01:11:56Z</time>
      </trkpt>
      <trkpt lat="48.54257" lon="7.18019">
        <ele>617</ele>
        <time>2022-04-06T01:11:59Z</time>
      </trkpt>
      <trkpt lat="48.54292" lon="7.1801">
        <ele>617</ele>
        <time>2022-04-06T01:12:06Z</time>
      </trkpt>
      <trkpt lat="48.54376" lon="7.17965">
        <ele>610</ele>
        <time>2022-04-06T01:12:21Z</time>
      </trkpt>
      <trkpt lat="48.54406" lon="7.17942">
        <ele>605</ele>
        <time>2022-04-06T01:12:27Z</time>
      </trkpt>
      <trkpt lat="48.54463" lon="7.17936">
        <ele>602</ele>
        <time>2022-04-06T01:12:38Z</time>
      </trkpt>
      <trkpt lat="48.54489" lon="7.17935">
        <ele>601</ele>
        <time>2022-04-06T01:12:42Z</time>
      </trkpt>
      <trkpt lat="48.54516" lon="7.17942">
        <ele>599</ele>
        <time>2022-04-06T01:12:47Z</time>
      </trkpt>
      <trkpt lat="48.54538" lon="7.17954">
        <ele>597</ele>
        <time>2022-04-06T01:12:51Z</time>
      </trkpt>
      <trkpt lat="48.54575" lon="7.18033">
        <ele>598</ele>
        <time>2022-04-06T01:13:03Z</time>
      </trkpt>
      <trkpt lat="48.54601" lon="7.181">
        <ele>600</ele>
        <time>2022-04-06T01:13:12Z</time>
      </trkpt>
      <trkpt lat="48.54612" lon="7.18111">
        <ele>600</ele>
        <time>2022-04-06T01:13:14Z</time>
      </trkpt>
      <trkpt lat="48.54621" lon="7.18108">
        <ele>598</ele>
        <time>2022-04-06T01:13:16Z</time>
      </trkpt>
      <trkpt lat="48.54628" lon="7.18102">
        <ele>596</ele>
        <time>2022-04-06T01:13:17Z</time>
      </trkpt>
      <trkpt lat="48.54633" lon="7.18088">
        <ele>594</ele>
        <time>2022-04-06T01:13:19Z</time>
      </trkpt>
      <trkpt lat="48.54631" lon="7.1802">
        <ele>588</ele>
        <time>2022-04-06T01:13:27Z</time>
      </trkpt>
      <trkpt lat="48.54637" lon="7.1798">
        <ele>584</ele>
        <time>2022-04-06T01:13:32Z</time>
      </trkpt>
      <trkpt lat="48.54648" lon="7.17948">
        <ele>578</ele>
        <time>2022-04-06T01:13:36Z</time>
      </trkpt>
      <trkpt lat="48.54696" lon="7.17822">
        <ele>560</ele>
        <time>2022-04-06T01:13:53Z</time>
      </trkpt>
      <trkpt lat="48.54704" lon="7.17811">
        <ele>559</ele>
        <time>2022-04-06T01:13:55Z</time>
      </trkpt>
      <trkpt lat="48.54712" lon="7.17804">
        <ele>558</ele>
        <time>2022-04-06T01:13:57Z</time>
      </trkpt>
      <trkpt lat="48.5472" lon="7.178">
        <ele>558</ele>
        <time>2022-04-06T01:13:58Z</time>
      </trkpt>
      <trkpt lat="48.54745" lon="7.17795">
        <ele>559</ele>
        <time>2022-04-06T01:14:03Z</time>
      </trkpt>
      <trkpt lat="48.5476" lon="7.17796">
        <ele>561</ele>
        <time>2022-04-06T01:14:05Z</time>
      </trkpt>
      <trkpt lat="48.54766" lon="7.17801">
        <ele>563</ele>
        <time>2022-04-06T01:14:07Z</time>
      </trkpt>
      <trkpt lat="48.54781" lon="7.17817">
        <ele>568</ele>
        <time>2022-04-06T01:14:10Z</time>
      </trkpt>
      <trkpt lat="48.54789" lon="7.17823">
        <ele>571</ele>
        <time>2022-04-06T01:14:12Z</time>
      </trkpt>
      <trkpt lat="48.54796" lon="7.17825">
        <ele>572</ele>
        <time>2022-04-06T01:14:13Z</time>
      </trkpt>
      <trkpt lat="48.54801" lon="7.17823">
        <ele>573</ele>
        <time>2022-04-06T01:14:14Z</time>
      </trkpt>
      <trkpt lat="48.54812" lon="7.17811">
        <ele>575</ele>
        <time>2022-04-06T01:14:16Z</time>
      </trkpt>
      <trkpt lat="48.54815" lon="7.17801">
        <ele>575</ele>
        <time>2022-04-06T01:14:17Z</time>
      </trkpt>
      <trkpt lat="48.54815" lon="7.17788">
        <ele>574</ele>
        <time>2022-04-06T01:14:19Z</time>
      </trkpt>
      <trkpt lat="48.54814" lon="7.17769">
        <ele>573</ele>
        <time>2022-04-06T01:14:21Z</time>
      </trkpt>
      <trkpt lat="48.54805" lon="7.17705">
        <ele>566</ele>
        <time>2022-04-06T01:14:29Z</time>
      </trkpt>
      <trkpt lat="48.54804" lon="7.17676">
        <ele>563</ele>
        <time>2022-04-06T01:14:32Z</time>
      </trkpt>
      <trkpt lat="48.54805" lon="7.1765">
        <ele>561</ele>
        <time>2022-04-06T01:14:35Z</time>
      </trkpt>
      <trkpt lat="48.54808" lon="7.17628">
        <ele>560</ele>
        <time>2022-04-06T01:14:38Z</time>
      </trkpt>
      <trkpt lat="48.54814" lon="7.17606">
        <ele>559</ele>
        <time>2022-04-06T01:14:41Z</time>
      </trkpt>
      <trkpt lat="48.54845" lon="7.17535">
        <ele>560</ele>
        <time>2022-04-06T01:14:51Z</time>
      </trkpt>
      <trkpt lat="48.54869" lon="7.17475">
        <ele>560</ele>
        <time>2022-04-06T01:14:59Z</time>
      </trkpt>
      <trkpt lat="48.55017" lon="7.17179">
        <ele>535</ele>
        <time>2022-04-06T01:15:43Z</time>
      </trkpt>
      <trkpt lat="48.55041" lon="7.17153">
        <ele>535</ele>
        <time>2022-04-06T01:15:48Z</time>
      </trkpt>
      <trkpt lat="48.55107" lon="7.17115">
        <ele>533</ele>
        <time>2022-04-06T01:16:01Z</time>
      </trkpt>
      <trkpt lat="48.55236" lon="7.1703">
        <ele>531</ele>
        <time>2022-04-06T01:16:26Z</time>
      </trkpt>
      <trkpt lat="48.55328" lon="7.16981">
        <ele>529</ele>
        <time>2022-04-06T01:16:43Z</time>
      </trkpt>
      <trkpt lat="48.55337" lon="7.16976">
        <ele>528</ele>
        <time>2022-04-06T01:16:45Z</time>
      </trkpt>
      <trkpt lat="48.55361" lon="7.16969">
        <ele>525</ele>
        <time>2022-04-06T01:16:49Z</time>
      </trkpt>
      <trkpt lat="48.55382" lon="7.16974">
        <ele>525</ele>
        <time>2022-04-06T01:16:53Z</time>
      </trkpt>
      <trkpt lat="48.554" lon="7.16986">
        <ele>526</ele>
        <time>2022-04-06T01:16:56Z</time>
      </trkpt>
      <trkpt lat="48.55415" lon="7.17007">
        <ele>527</ele>
        <time>2022-04-06T01:17:00Z</time>
      </trkpt>
      <trkpt lat="48.55431" lon="7.17046">
        <ele>534</ele>
        <time>2022-04-06T01:17:05Z</time>
      </trkpt>
      <trkpt lat="48.5544" lon="7.1706">
        <ele>536</ele>
        <time>2022-04-06T01:17:08Z</time>
      </trkpt>
      <trkpt lat="48.55451" lon="7.17068">
        <ele>537</ele>
        <time>2022-04-06T01:17:10Z</time>
      </trkpt>
      <trkpt lat="48.55459" lon="7.17067">
        <ele>537</ele>
        <time>2022-04-06T01:17:11Z</time>
      </trkpt>
      <trkpt lat="48.55467" lon="7.17062">
        <ele>536</ele>
        <time>2022-04-06T01:17:13Z</time>
      </trkpt>
      <trkpt lat="48.55472" lon="7.17053">
        <ele>535</ele>
        <time>2022-04-06T01:17:14Z</time>
      </trkpt>
      <trkpt lat="48.55476" lon="7.17041">
        <ele>534</ele>
        <time>2022-04-06T01:17:16Z</time>
      </trkpt>
      <trkpt lat="48.55472" lon="7.16982">
        <ele>528</ele>
        <time>2022-04-06T01:17:23Z</time>
      </trkpt>
      <trkpt lat="48.55473" lon="7.16922">
        <ele>520</ele>
        <time>2022-04-06T01:17:30Z</time>
      </trkpt>
      <trkpt lat="48.55478" lon="7.16908">
        <ele>518</ele>
        <time>2022-04-06T01:17:32Z</time>
      </trkpt>
      <trkpt lat="48.55482" lon="7.16902">
        <ele>518</ele>
        <time>2022-04-06T01:17:33Z</time>
      </trkpt>
      <trkpt lat="48.55495" lon="7.1689">
        <ele>516</ele>
        <time>2022-04-06T01:17:35Z</time>
      </trkpt>
      <trkpt lat="48.55542" lon="7.16865">
        <ele>519</ele>
        <time>2022-04-06T01:17:44Z</time>
      </trkpt>
      <trkpt lat="48.55581" lon="7.16836">
        <ele>517</ele>
        <time>2022-04-06T01:17:52Z</time>
      </trkpt>
      <trkpt lat="48.55599" lon="7.16812">
        <ele>517</ele>
        <time>2022-04-06T01:17:56Z</time>
      </trkpt>
      <trkpt lat="48.55607" lon="7.16797">
        <ele>516</ele>
        <time>2022-04-06T01:17:59Z</time>
      </trkpt>
      <trkpt lat="48.55619" lon="7.16759">
        <ele>511</ele>
        <time>2022-04-06T01:18:04Z</time>
      </trkpt>
      <trkpt lat="48.5563" lon="7.1669">
        <ele>504</ele>
        <time>2022-04-06T01:18:12Z</time>
      </trkpt>
      <trkpt lat="48.55635" lon="7.16671">
        <ele>502</ele>
        <time>2022-04-06T01:18:14Z</time>
      </trkpt>
      <trkpt lat="48.5564" lon="7.16658">
        <ele>501</ele>
        <time>2022-04-06T01:18:16Z</time>
      </trkpt>
      <trkpt lat="48.55645" lon="7.16651">
        <ele>501</ele>
        <time>2022-04-06T01:18:17Z</time>
      </trkpt>
      <trkpt lat="48.55669" lon="7.16629">
        <ele>499</ele>
        <time>2022-04-06T01:18:22Z</time>
      </trkpt>
      <trkpt lat="48.55711" lon="7.16575">
        <ele>500</ele>
        <time>2022-04-06T01:18:32Z</time>
      </trkpt>
      <trkpt lat="48.55724" lon="7.16552">
        <ele>498</ele>
        <time>2022-04-06T01:18:36Z</time>
      </trkpt>
      <trkpt lat="48.55782" lon="7.16432">
        <ele>489</ele>
        <time>2022-04-06T01:18:53Z</time>
      </trkpt>
      <trkpt lat="48.55796" lon="7.16407">
        <ele>489</ele>
        <time>2022-04-06T01:18:57Z</time>
      </trkpt>
      <trkpt lat="48.55849" lon="7.16327">
        <ele>482</ele>
        <time>2022-04-06T01:19:10Z</time>
      </trkpt>
      <trkpt lat="48.55893" lon="7.16282">
        <ele>481</ele>
        <time>2022-04-06T01:19:20Z</time>
      </trkpt>
      <trkpt lat="48.55956" lon="7.1623">
        <ele>477</ele>
        <time>2022-04-06T01:19:33Z</time>
      </trkpt>
      <trkpt lat="48.56108" lon="7.16128">
        <ele>469</ele>
        <time>2022-04-06T01:20:02Z</time>
      </trkpt>
      <trkpt lat="48.56206" lon="7.16031">
        <ele>468</ele>
        <time>2022-04-06T01:20:23Z</time>
      </trkpt>
      <trkpt lat="48.56209" lon="7.16029">
        <ele>468</ele>
        <time>2022-04-06T01:20:24Z</time>
      </trkpt>
      <trkpt lat="48.56293" lon="7.1586">
        <ele>464</ele>
        <time>2022-04-06T01:20:49Z</time>
      </trkpt>
      <trkpt lat="48.56356" lon="7.15743">
        <ele>461</ele>
        <time>2022-04-06T01:21:06Z</time>
      </trkpt>
      <trkpt lat="48.56378" lon="7.15707">
        <ele>464</ele>
        <time>2022-04-06T01:21:12Z</time>
      </trkpt>
      <trkpt lat="48.5643" lon="7.15653">
        <ele>458</ele>
        <time>2022-04-06T01:21:23Z</time>
      </trkpt>
      <trkpt lat="48.56507" lon="7.15596">
        <ele>458</ele>
        <time>2022-04-06T01:21:39Z</time>
      </trkpt>
      <trkpt lat="48.56527" lon="7.15564">
        <ele>457</ele>
        <time>2022-04-06T01:21:44Z</time>
      </trkpt>
      <trkpt lat="48.56537" lon="7.15542">
        <ele>456</ele>
        <time>2022-04-06T01:21:47Z</time>
      </trkpt>
      <trkpt lat="48.56574" lon="7.1546">
        <ele>450</ele>
        <time>2022-04-06T01:21:59Z</time>
      </trkpt>
      <trkpt lat="48.5658" lon="7.15427">
        <ele>447</ele>
        <time>2022-04-06T01:22:03Z</time>
      </trkpt>
      <trkpt lat="48.56579" lon="7.15392">
        <ele>445</ele>
        <time>2022-04-06T01:22:07Z</time>
      </trkpt>
      <trkpt lat="48.5657" lon="7.15285">
        <ele>442</ele>
        <time>2022-04-06T01:22:19Z</time>
      </trkpt>
      <trkpt lat="48.56572" lon="7.15252">
        <ele>440</ele>
        <time>2022-04-06T01:22:23Z</time>
      </trkpt>
      <trkpt lat="48.56579" lon="7.15225">
        <ele>440</ele>
        <time>2022-04-06T01:22:27Z</time>
      </trkpt>
      <trkpt lat="48.5659" lon="7.15198">
        <ele>440</ele>
        <time>2022-04-06T01:22:30Z</time>
      </trkpt>
      <trkpt lat="48.56675" lon="7.15056">
        <ele>436</ele>
        <time>2022-04-06T01:22:53Z</time>
      </trkpt>
      <trkpt lat="48.56774" lon="7.1483">
        <ele>437</ele>
        <time>2022-04-06T01:23:25Z</time>
      </trkpt>
      <trkpt lat="48.56785" lon="7.14811">
        <ele>438</ele>
        <time>2022-04-06T01:23:28Z</time>
      </trkpt>
      <trkpt lat="48.56935" lon="7.1461">
        <ele>445</ele>
        <time>2022-04-06T01:24:04Z</time>
      </trkpt>
      <trkpt lat="48.5699" lon="7.1449">
        <ele>439</ele>
        <time>2022-04-06T01:24:21Z</time>
      </trkpt>
      <trkpt lat="48.56997" lon="7.14462">
        <ele>437</ele>
        <time>2022-04-06T01:24:24Z</time>
      </trkpt>
      <trkpt lat="48.57002" lon="7.14428">
        <ele>435</ele>
        <time>2022-04-06T01:24:28Z</time>
      </trkpt>
      <trkpt lat="48.57012" lon="7.14395">
        <ele>437</ele>
        <time>2022-04-06T01:24:33Z</time>
      </trkpt>
      <trkpt lat="48.57025" lon="7.14372">
        <ele>438</ele>
        <time>2022-04-06T01:24:36Z</time>
      </trkpt>
      <trkpt lat="48.57093" lon="7.14282">
        <ele>435</ele>
        <time>2022-04-06T01:24:52Z</time>
      </trkpt>
      <trkpt lat="48.57123" lon="7.14256">
        <ele>431</ele>
        <time>2022-04-06T01:24:58Z</time>
      </trkpt>
      <trkpt lat="48.57196" lon="7.14237">
        <ele>431</ele>
        <time>2022-04-06T01:25:12Z</time>
      </trkpt>
      <trkpt lat="48.57289" lon="7.14167">
        <ele>420</ele>
        <time>2022-04-06T01:25:30Z</time>
      </trkpt>
      <trkpt lat="48.57612" lon="7.14091">
        <ele>414</ele>
        <time>2022-04-06T01:26:28Z</time>
      </trkpt>
      <trkpt lat="48.57658" lon="7.14112">
        <ele>418</ele>
        <time>2022-04-06T01:26:37Z</time>
      </trkpt>
      <trkpt lat="48.57699" lon="7.14119">
        <ele>416</ele>
        <time>2022-04-06T01:26:44Z</time>
      </trkpt>
      <trkpt lat="48.57756" lon="7.14116">
        <ele>412</ele>
        <time>2022-04-06T01:26:54Z</time>
      </trkpt>
      <trkpt lat="48.57784" lon="7.14087">
        <ele>409</ele>
        <time>2022-04-06T01:27:00Z</time>
      </trkpt>
      <trkpt lat="48.57805" lon="7.14048">
        <ele>410</ele>
        <time>2022-04-06T01:27:06Z</time>
      </trkpt>
      <trkpt lat="48.57826" lon="7.13995">
        <ele>406</ele>
        <time>2022-04-06T01:27:14Z</time>
      </trkpt>
      <trkpt lat="48.57837" lon="7.13979">
        <ele>407</ele>
        <time>2022-04-06T01:27:16Z</time>
      </trkpt>
      <trkpt lat="48.57855" lon="7.13964">
        <ele>408</ele>
        <time>2022-04-06T01:27:20Z</time>
      </trkpt>
      <trkpt lat="48.57889" lon="7.1396">
        <ele>407</ele>
        <time>2022-04-06T01:27:26Z</time>
      </trkpt>
      <trkpt lat="48.57941" lon="7.13967">
        <ele>404</ele>
        <time>2022-04-06T01:27:35Z</time>
      </trkpt>
      <trkpt lat="48.57997" lon="7.13979">
        <ele>404</ele>
        <time>2022-04-06T01:27:45Z</time>
      </trkpt>
      <trkpt lat="48.58015" lon="7.13969">
        <ele>407</ele>
        <time>2022-04-06T01:27:49Z</time>
      </trkpt>
      <trkpt lat="48.58032" lon="7.13934">
        <ele>407</ele>
        <time>2022-04-06T01:27:54Z</time>
      </trkpt>
      <trkpt lat="48.58045" lon="7.139">
        <ele>408</ele>
        <time>2022-04-06T01:27:58Z</time>
      </trkpt>
      <trkpt lat="48.58049" lon="7.13878">
        <ele>408</ele>
        <time>2022-04-06T01:28:01Z</time>
      </trkpt>
      <trkpt lat="48.5805" lon="7.13856">
        <ele>408</ele>
        <time>2022-04-06T01:28:04Z</time>
      </trkpt>
      <trkpt lat="48.58047" lon="7.13803">
        <ele>408</ele>
        <time>2022-04-06T01:28:10Z</time>
      </trkpt>
      <trkpt lat="48.58048" lon="7.13779">
        <ele>408</ele>
        <time>2022-04-06T01:28:13Z</time>
      </trkpt>
      <trkpt lat="48.58055" lon="7.13756">
        <ele>407</ele>
        <time>2022-04-06T01:28:16Z</time>
      </trkpt>
      <trkpt lat="48.58064" lon="7.13741">
        <ele>405</ele>
        <time>2022-04-06T01:28:18Z</time>
      </trkpt>
      <trkpt lat="48.58086" lon="7.13726">
        <ele>399</ele>
        <time>2022-04-06T01:28:23Z</time>
      </trkpt>
      <trkpt lat="48.58166" lon="7.13699">
        <ele>399</ele>
        <time>2022-04-06T01:28:37Z</time>
      </trkpt>
      <trkpt lat="48.58176" lon="7.1369">
        <ele>399</ele>
        <time>2022-04-06T01:28:39Z</time>
      </trkpt>
      <trkpt lat="48.58183" lon="7.1367">
        <ele>397</ele>
        <time>2022-04-06T01:28:42Z</time>
      </trkpt>
      <trkpt lat="48.58184" lon="7.1365">
        <ele>396</ele>
        <time>2022-04-06T01:28:44Z</time>
      </trkpt>
      <trkpt lat="48.58183" lon="7.13641">
        <ele>395</ele>
        <time>2022-04-06T01:28:45Z</time>
      </trkpt>
      <trkpt lat="48.58178" lon="7.13628">
        <ele>394</ele>
        <time>2022-04-06T01:28:47Z</time>
      </trkpt>
      <trkpt lat="48.58155" lon="7.13587">
        <ele>394</ele>
        <time>2022-04-06T01:28:53Z</time>
      </trkpt>
      <trkpt lat="48.58149" lon="7.13572">
        <ele>397</ele>
        <time>2022-04-06T01:28:55Z</time>
      </trkpt>
      <trkpt lat="48.58146" lon="7.13559">
        <ele>400</ele>
        <time>2022-04-06T01:28:57Z</time>
      </trkpt>
      <trkpt lat="48.58147" lon="7.1354">
        <ele>401</ele>
        <time>2022-04-06T01:28:59Z</time>
      </trkpt>
      <trkpt lat="48.58151" lon="7.13527">
        <ele>401</ele>
        <time>2022-04-06T01:29:01Z</time>
      </trkpt>
      <trkpt lat="48.58164" lon="7.13509">
        <ele>397</ele>
        <time>2022-04-06T01:29:04Z</time>
      </trkpt>
      <trkpt lat="48.58179" lon="7.13495">
        <ele>396</ele>
        <time>2022-04-06T01:29:07Z</time>
      </trkpt>
      <trkpt lat="48.5822" lon="7.13477">
        <ele>394</ele>
        <time>2022-04-06T01:29:15Z</time>
      </trkpt>
      <trkpt lat="48.58254" lon="7.13474">
        <ele>389</ele>
        <time>2022-04-06T01:29:21Z</time>
      </trkpt>
      <trkpt lat="48.58298" lon="7.13475">
        <ele>389</ele>
        <time>2022-04-06T01:29:29Z</time>
      </trkpt>
      <trkpt lat="48.58344" lon="7.13468">
        <ele>390</ele>
        <time>2022-04-06T01:29:37Z</time>
      </trkpt>
      <trkpt lat="48.58358" lon="7.13463">
        <ele>392</ele>
        <time>2022-04-06T01:29:40Z</time>
      </trkpt>
      <trkpt lat="48.58371" lon="7.13452">
        <ele>393</ele>
        <time>2022-04-06T01:29:42Z</time>
      </trkpt>
      <trkpt lat="48.58383" lon="7.13432">
        <ele>393</ele>
        <time>2022-04-06T01:29:45Z</time>
      </trkpt>
      <trkpt lat="48.58391" lon="7.13408">
        <ele>392</ele>
        <time>2022-04-06T01:29:49Z</time>
      </trkpt>
      <trkpt lat="48.58399" lon="7.13369">
        <ele>391</ele>
        <time>2022-04-06T01:29:53Z</time>
      </trkpt>
      <trkpt lat="48.58403" lon="7.13327">
        <ele>389</ele>
        <time>2022-04-06T01:29:58Z</time>
      </trkpt>
      <trkpt lat="48.58403" lon="7.13252">
        <ele>393</ele>
        <time>2022-04-06T01:30:07Z</time>
      </trkpt>
      <trkpt lat="48.58407" lon="7.13231">
        <ele>394</ele>
        <time>2022-04-06T01:30:10Z</time>
      </trkpt>
      <trkpt lat="48.58415" lon="7.13213">
        <ele>394</ele>
        <time>2022-04-06T01:30:12Z</time>
      </trkpt>
      <trkpt lat="48.58433" lon="7.13189">
        <ele>393</ele>
        <time>2022-04-06T01:30:17Z</time>
      </trkpt>
      <trkpt lat="48.58446" lon="7.13181">
        <ele>392</ele>
        <time>2022-04-06T01:30:19Z</time>
      </trkpt>
      <trkpt lat="48.58461" lon="7.13177">
        <ele>390</ele>
        <time>2022-04-06T01:30:22Z</time>
      </trkpt>
      <trkpt lat="48.58519" lon="7.13181">
        <ele>384</ele>
        <time>2022-04-06T01:30:32Z</time>
      </trkpt>
      <trkpt lat="48.5853" lon="7.13177">
        <ele>384</ele>
        <time>2022-04-06T01:30:34Z</time>
      </trkpt>
      <trkpt lat="48.58541" lon="7.13168">
        <ele>383</ele>
        <time>2022-04-06T01:30:36Z</time>
      </trkpt>
      <trkpt lat="48.58552" lon="7.13156">
        <ele>383</ele>
        <time>2022-04-06T01:30:39Z</time>
      </trkpt>
      <trkpt lat="48.58565" lon="7.13131">
        <ele>384</ele>
        <time>2022-04-06T01:30:42Z</time>
      </trkpt>
      <trkpt lat="48.58575" lon="7.13093">
        <ele>382</ele>
        <time>2022-04-06T01:30:47Z</time>
      </trkpt>
      <trkpt lat="48.58586" lon="7.12951">
        <ele>383</ele>
        <time>2022-04-06T01:31:04Z</time>
      </trkpt>
      <trkpt lat="48.58592" lon="7.12923">
        <ele>384</ele>
        <time>2022-04-06T01:31:08Z</time>
      </trkpt>
      <trkpt lat="48.58639" lon="7.12866">
        <ele>383</ele>
        <time>2022-04-06T01:31:18Z</time>
      </trkpt>
      <trkpt lat="48.58662" lon="7.12833">
        <ele>375</ele>
        <time>2022-04-06T01:31:24Z</time>
      </trkpt>
      <trkpt lat="48.58681" lon="7.12798">
        <ele>377</ele>
        <time>2022-04-06T01:31:29Z</time>
      </trkpt>
      <trkpt lat="48.58686" lon="7.12765">
        <ele>378</ele>
        <time>2022-04-06T01:31:33Z</time>
      </trkpt>
      <trkpt lat="48.58685" lon="7.12713">
        <ele>373</ele>
        <time>2022-04-06T01:31:39Z</time>
      </trkpt>
      <trkpt lat="48.5868" lon="7.12643">
        <ele>370</ele>
        <time>2022-04-06T01:31:48Z</time>
      </trkpt>
      <trkpt lat="48.58682" lon="7.12624">
        <ele>372</ele>
        <time>2022-04-06T01:31:50Z</time>
      </trkpt>
      <trkpt lat="48.5869" lon="7.1261">
        <ele>373</ele>
        <time>2022-04-06T01:31:52Z</time>
      </trkpt>
      <trkpt lat="48.58699" lon="7.12605">
        <ele>374</ele>
        <time>2022-04-06T01:31:54Z</time>
      </trkpt>
      <trkpt lat="48.58712" lon="7.12611">
        <ele>375</ele>
        <time>2022-04-06T01:31:56Z</time>
      </trkpt>
      <trkpt lat="48.58728" lon="7.12625">
        <ele>374</ele>
        <time>2022-04-06T01:32:00Z</time>
      </trkpt>
      <trkpt lat="48.58748" lon="7.12637">
        <ele>373</ele>
        <time>2022-04-06T01:32:03Z</time>
      </trkpt>
      <trkpt lat="48.58775" lon="7.12642">
        <ele>374</ele>
        <time>2022-04-06T01:32:08Z</time>
      </trkpt>
      <trkpt lat="48.58808" lon="7.12642">
        <ele>375</ele>
        <time>2022-04-06T01:32:14Z</time>
      </trkpt>
      <trkpt lat="48.58841" lon="7.12632">
        <ele>376</ele>
        <time>2022-04-06T01:32:20Z</time>
      </trkpt>
      <trkpt lat="48.58881" lon="7.12616">
        <ele>375</ele>
        <time>2022-04-06T01:32:27Z</time>
      </trkpt>
      <trkpt lat="48.5892" lon="7.12596">
        <ele>372</ele>
        <time>2022-04-06T01:32:35Z</time>
      </trkpt>
      <trkpt lat="48.58938" lon="7.1258">
        <ele>373</ele>
        <time>2022-04-06T01:32:38Z</time>
      </trkpt>
      <trkpt lat="48.58973" lon="7.12524">
        <ele>374</ele>
        <time>2022-04-06T01:32:48Z</time>
      </trkpt>
      <trkpt lat="48.59003" lon="7.12468">
        <ele>367</ele>
        <time>2022-04-06T01:32:56Z</time>
      </trkpt>
      <trkpt lat="48.59016" lon="7.12453">
        <ele>367</ele>
        <time>2022-04-06T01:32:59Z</time>
      </trkpt>
      <trkpt lat="48.59042" lon="7.12436">
        <ele>366</ele>
        <time>2022-04-06T01:33:04Z</time>
      </trkpt>
      <trkpt lat="48.5907" lon="7.12426">
        <ele>363</ele>
        <time>2022-04-06T01:33:09Z</time>
      </trkpt>
      <trkpt lat="48.59124" lon="7.12433">
        <ele>362</ele>
        <time>2022-04-06T01:33:19Z</time>
      </trkpt>
      <trkpt lat="48.59161" lon="7.1243">
        <ele>360</ele>
        <time>2022-04-06T01:33:25Z</time>
      </trkpt>
      <trkpt lat="48.59173" lon="7.12423">
        <ele>359</ele>
        <time>2022-04-06T01:33:28Z</time>
      </trkpt>
      <trkpt lat="48.592" lon="7.12401">
        <ele>361</ele>
        <time>2022-04-06T01:33:33Z</time>
      </trkpt>
      <trkpt lat="48.59276" lon="7.12323">
        <ele>358</ele>
        <time>2022-04-06T01:33:49Z</time>
      </trkpt>
      <trkpt lat="48.59306" lon="7.12298">
        <ele>360</ele>
        <time>2022-04-06T01:33:55Z</time>
      </trkpt>
      <trkpt lat="48.59338" lon="7.12277">
        <ele>359</ele>
        <time>2022-04-06T01:34:02Z</time>
      </trkpt>
      <trkpt lat="48.59377" lon="7.12255">
        <ele>356</ele>
        <time>2022-04-06T01:34:09Z</time>
      </trkpt>
      <trkpt lat="48.5942" lon="7.12243">
        <ele>355</ele>
        <time>2022-04-06T01:34:17Z</time>
      </trkpt>
      <trkpt lat="48.59525" lon="7.12251">
        <ele>353</ele>
        <time>2022-04-06T01:34:36Z</time>
      </trkpt>
      <trkpt lat="48.59575" lon="7.12251">
        <ele>352</ele>
        <time>2022-04-06T01:34:44Z</time>
      </trkpt>
      <trkpt lat="48.59614" lon="7.12239">
        <ele>353</ele>
        <time>2022-04-06T01:34:52Z</time>
      </trkpt>
      <trkpt lat="48.59727" lon="7.12212">
        <ele>352</ele>
        <time>2022-04-06T01:35:12Z</time>
      </trkpt>
      <trkpt lat="48.59834" lon="7.12205">
        <ele>350</ele>
        <time>2022-04-06T01:35:31Z</time>
      </trkpt>
      <trkpt lat="48.59924" lon="7.12224">
        <ele>349</ele>
        <time>2022-04-06T01:35:47Z</time>
      </trkpt>
      <trkpt lat="48.60032" lon="7.12275">
        <ele>354</ele>
        <time>2022-04-06T01:36:07Z</time>
      </trkpt>
      <trkpt lat="48.60075" lon="7.12302">
        <ele>357</ele>
        <time>2022-04-06T01:36:16Z</time>
      </trkpt>
      <trkpt lat="48.60129" lon="7.12351">
        <ele>357</ele>
        <time>2022-04-06T01:36:27Z</time>
      </trkpt>
      <trkpt lat="48.6016" lon="7.12392">
        <ele>355</ele>
        <time>2022-04-06T01:36:34Z</time>
      </trkpt>
      <trkpt lat="48.60182" lon="7.12458">
        <ele>356</ele>
        <time>2022-04-06T01:36:43Z</time>
      </trkpt>
      <trkpt lat="48.60205" lon="7.12542">
        <ele>352</ele>
        <time>2022-04-06T01:36:53Z</time>
      </trkpt>
      <trkpt lat="48.60206" lon="7.12563">
        <ele>352</ele>
        <time>2022-04-06T01:36:56Z</time>
      </trkpt>
      <trkpt lat="48.60202" lon="7.12591">
        <ele>352</ele>
        <time>2022-04-06T01:36:59Z</time>
      </trkpt>
      <trkpt lat="48.60165" lon="7.12686">
        <ele>352</ele>
        <time>2022-04-06T01:37:12Z</time>
      </trkpt>
      <trkpt lat="48.60162" lon="7.12708">
        <ele>352</ele>
        <time>2022-04-06T01:37:15Z</time>
      </trkpt>
      <trkpt lat="48.60165" lon="7.12725">
        <ele>352</ele>
        <time>2022-04-06T01:37:17Z</time>
      </trkpt>
      <trkpt lat="48.60182" lon="7.12761">
        <ele>352</ele>
        <time>2022-04-06T01:37:22Z</time>
      </trkpt>
      <trkpt lat="48.60224" lon="7.12794">
        <ele>357</ele>
        <time>2022-04-06T01:37:31Z</time>
      </trkpt>
      <trkpt lat="48.60254" lon="7.12805">
        <ele>358</ele>
        <time>2022-04-06T01:37:36Z</time>
      </trkpt>
      <trkpt lat="48.60273" lon="7.12798">
        <ele>357</ele>
        <time>2022-04-06T01:37:40Z</time>
      </trkpt>
      <trkpt lat="48.60328" lon="7.12759">
        <ele>349</ele>
        <time>2022-04-06T01:37:50Z</time>
      </trkpt>
      <trkpt lat="48.60381" lon="7.1271">
        <ele>350</ele>
        <time>2022-04-06T01:38:01Z</time>
      </trkpt>
      <trkpt lat="48.60417" lon="7.12686">
        <ele>348</ele>
        <time>2022-04-06T01:38:08Z</time>
      </trkpt>
      <trkpt lat="48.60496" lon="7.12672">
        <ele>346</ele>
        <time>2022-04-06T01:38:23Z</time>
      </trkpt>
      <trkpt lat="48.60525" lon="7.12678">
        <ele>346</ele>
        <time>2022-04-06T01:38:28Z</time>
      </trkpt>
      <trkpt lat="48.60552" lon="7.12693">
        <ele>346</ele>
        <time>2022-04-06T01:38:33Z</time>
      </trkpt>
      <trkpt lat="48.60583" lon="7.1271">
        <ele>344</ele>
        <time>2022-04-06T01:38:39Z</time>
      </trkpt>
      <trkpt lat="48.606" lon="7.12718">
        <ele>343</ele>
        <time>2022-04-06T01:38:42Z</time>
      </trkpt>
      <trkpt lat="48.60608" lon="7.12722">
        <ele>342</ele>
        <time>2022-04-06T01:38:43Z</time>
      </trkpt>
      <trkpt lat="48.6065" lon="7.12739">
        <ele>338</ele>
        <time>2022-04-06T01:38:51Z</time>
      </trkpt>
      <trkpt lat="48.60666" lon="7.12746">
        <ele>336</ele>
        <time>2022-04-06T01:38:54Z</time>
      </trkpt>
      <trkpt lat="48.60706" lon="7.12757">
        <ele>338</ele>
        <time>2022-04-06T01:39:01Z</time>
      </trkpt>
      <trkpt lat="48.6081" lon="7.12812">
        <ele>347</ele>
        <time>2022-04-06T01:39:21Z</time>
      </trkpt>
      <trkpt lat="48.60848" lon="7.12824">
        <ele>348</ele>
        <time>2022-04-06T01:39:28Z</time>
      </trkpt>
      <trkpt lat="48.60871" lon="7.12825">
        <ele>348</ele>
        <time>2022-04-06T01:39:32Z</time>
      </trkpt>
      <trkpt lat="48.60888" lon="7.12817">
        <ele>347</ele>
        <time>2022-04-06T01:39:35Z</time>
      </trkpt>
      <trkpt lat="48.60936" lon="7.12783">
        <ele>340</ele>
        <time>2022-04-06T01:39:45Z</time>
      </trkpt>
      <trkpt lat="48.60956" lon="7.12776">
        <ele>339</ele>
        <time>2022-04-06T01:39:48Z</time>
      </trkpt>
      <trkpt lat="48.60974" lon="7.12779">
        <ele>339</ele>
        <time>2022-04-06T01:39:52Z</time>
      </trkpt>
      <trkpt lat="48.61063" lon="7.12873">
        <ele>344</ele>
        <time>2022-04-06T01:40:11Z</time>
      </trkpt>
      <trkpt lat="48.61093" lon="7.12893">
        <ele>341</ele>
        <time>2022-04-06T01:40:17Z</time>
      </trkpt>
      <trkpt lat="48.61112" lon="7.12898">
        <ele>341</ele>
        <time>2022-04-06T01:40:20Z</time>
      </trkpt>
      <trkpt lat="48.61303" lon="7.12861">
        <ele>333</ele>
        <time>2022-04-06T01:40:54Z</time>
      </trkpt>
      <trkpt lat="48.61334" lon="7.12861">
        <ele>333</ele>
        <time>2022-04-06T01:41:00Z</time>
      </trkpt>
      <trkpt lat="48.61453" lon="7.1295">
        <ele>338</ele>
        <time>2022-04-06T01:41:23Z</time>
      </trkpt>
      <trkpt lat="48.61532" lon="7.12994">
        <ele>342</ele>
        <time>2022-04-06T01:41:38Z</time>
      </trkpt>
      <trkpt lat="48.61598" lon="7.13014">
        <ele>341</ele>
        <time>2022-04-06T01:41:50Z</time>
      </trkpt>
      <trkpt lat="48.61622" lon="7.13011">
        <ele>340</ele>
        <time>2022-04-06T01:41:55Z</time>
      </trkpt>
      <trkpt lat="48.61674" lon="7.13005">
        <ele>339</ele>
        <time>2022-04-06T01:42:04Z</time>
      </trkpt>
      <trkpt lat="48.61698" lon="7.12991">
        <ele>340</ele>
        <time>2022-04-06T01:42:09Z</time>
      </trkpt>
      <trkpt lat="48.61725" lon="7.12953">
        <ele>337</ele>
        <time>2022-04-06T01:42:15Z</time>
      </trkpt>
      <trkpt lat="48.61742" lon="7.12923">
        <ele>334</ele>
        <time>2022-04-06T01:42:20Z</time>
      </trkpt>
      <trkpt lat="48.61767" lon="7.12843">
        <ele>326</ele>
        <time>2022-04-06T01:42:30Z</time>
      </trkpt>
      <trkpt lat="48.61781" lon="7.12824">
        <ele>325</ele>
        <time>2022-04-06T01:42:34Z</time>
      </trkpt>
      <trkpt lat="48.61797" lon="7.12818">
        <ele>325</ele>
        <time>2022-04-06T01:42:36Z</time>
      </trkpt>
      <trkpt lat="48.61807" lon="7.12819">
        <ele>325</ele>
        <time>2022-04-06T01:42:38Z</time>
      </trkpt>
      <trkpt lat="48.61816" lon="7.12822">
        <ele>325</ele>
        <time>2022-04-06T01:42:40Z</time>
      </trkpt>
      <trkpt lat="48.61838" lon="7.12842">
        <ele>327</ele>
        <time>2022-04-06T01:42:44Z</time>
      </trkpt>
      <trkpt lat="48.61893" lon="7.12911">
        <ele>328</ele>
        <time>2022-04-06T01:42:57Z</time>
      </trkpt>
      <trkpt lat="48.61903" lon="7.12921">
        <ele>327</ele>
        <time>2022-04-06T01:42:59Z</time>
      </trkpt>
      <trkpt lat="48.61924" lon="7.12939">
        <ele>328</ele>
        <time>2022-04-06T01:43:04Z</time>
      </trkpt>
      <trkpt lat="48.61941" lon="7.12947">
        <ele>329</ele>
        <time>2022-04-06T01:43:07Z</time>
      </trkpt>
      <trkpt lat="48.61972" lon="7.12958">
        <ele>330</ele>
        <time>2022-04-06T01:43:12Z</time>
      </trkpt>
      <trkpt lat="48.6202" lon="7.12965">
        <ele>329</ele>
        <time>2022-04-06T01:43:21Z</time>
      </trkpt>
      <trkpt lat="48.62048" lon="7.12968">
        <ele>328</ele>
        <time>2022-04-06T01:43:26Z</time>
      </trkpt>
      <trkpt lat="48.62069" lon="7.12964">
        <ele>326</ele>
        <time>2022-04-06T01:43:30Z</time>
      </trkpt>
      <trkpt lat="48.62082" lon="7.12958">
        <ele>325</ele>
        <time>2022-04-06T01:43:32Z</time>
      </trkpt>
      <trkpt lat="48.62085" lon="7.12956">
        <ele>324</ele>
        <time>2022-04-06T01:43:33Z</time>
      </trkpt>
      <trkpt lat="48.62099" lon="7.12947">
        <ele>322</ele>
        <time>2022-04-06T01:43:35Z</time>
      </trkpt>
      <trkpt lat="48.62147" lon="7.12911">
        <ele>317</ele>
        <time>2022-04-06T01:43:45Z</time>
      </trkpt>
      <trkpt lat="48.62167" lon="7.12899">
        <ele>316</ele>
        <time>2022-04-06T01:43:49Z</time>
      </trkpt>
      <trkpt lat="48.62188" lon="7.12893">
        <ele>314</ele>
        <time>2022-04-06T01:43:53Z</time>
      </trkpt>
      <trkpt lat="48.622" lon="7.12893">
        <ele>313</ele>
        <time>2022-04-06T01:43:55Z</time>
      </trkpt>
      <trkpt lat="48.62209" lon="7.12897">
        <ele>313</ele>
        <time>2022-04-06T01:43:56Z</time>
      </trkpt>
      <trkpt lat="48.62227" lon="7.12913">
        <ele>311</ele>
        <time>2022-04-06T01:44:00Z</time>
      </trkpt>
      <trkpt lat="48.62259" lon="7.12949">
        <ele>310</ele>
        <time>2022-04-06T01:44:07Z</time>
      </trkpt>
      <trkpt lat="48.62297" lon="7.12983">
        <ele>309</ele>
        <time>2022-04-06T01:44:15Z</time>
      </trkpt>
      <trkpt lat="48.62325" lon="7.13007">
        <ele>309</ele>
        <time>2022-04-06T01:44:21Z</time>
      </trkpt>
      <trkpt lat="48.62349" lon="7.13031">
        <ele>311</ele>
        <time>2022-04-06T01:44:26Z</time>
      </trkpt>
      <trkpt lat="48.62339" lon="7.13044">
        <ele>311</ele>
        <time>2022-04-06T01:44:28Z</time>
      </trkpt>
      <trkpt lat="48.6233" lon="7.13066">
        <ele>313</ele>
        <time>2022-04-06T01:44:31Z</time>
      </trkpt>
      <trkpt lat="48.62328" lon="7.13096">
        <ele>315</ele>
        <time>2022-04-06T01:44:35Z</time>
      </trkpt>
      <trkpt lat="48.62328" lon="7.13238">
        <ele>321</ele>
        <time>2022-04-06T01:44:52Z</time>
      </trkpt>
      <trkpt lat="48.62335" lon="7.13367">
        <ele>323</ele>
        <time>2022-04-06T01:45:07Z</time>
      </trkpt>
      <trkpt lat="48.62347" lon="7.13463">
        <ele>324</ele>
        <time>2022-04-06T01:45:18Z</time>
      </trkpt>
      <trkpt lat="48.62366" lon="7.13593">
        <ele>327</ele>
        <time>2022-04-06T01:45:34Z</time>
      </trkpt>
      <trkpt lat="48.62368" lon="7.13711">
        <ele>327</ele>
        <time>2022-04-06T01:45:48Z</time>
      </trkpt>
      <trkpt lat="48.62362" lon="7.13736">
        <ele>328</ele>
        <time>2022-04-06T01:45:51Z</time>
      </trkpt>
      <trkpt lat="48.62354" lon="7.13752">
        <ele>328</ele>
        <time>2022-04-06T01:45:53Z</time>
      </trkpt>
      <trkpt lat="48.62345" lon="7.13759">
        <ele>329</ele>
        <time>2022-04-06T01:45:55Z</time>
      </trkpt>
      <trkpt lat="48.62329" lon="7.13764">
        <ele>330</ele>
        <time>2022-04-06T01:45:58Z</time>
      </trkpt>
      <trkpt lat="48.62299" lon="7.13761">
        <ele>331</ele>
        <time>2022-04-06T01:46:03Z</time>
      </trkpt>
      <trkpt lat="48.62286" lon="7.13771">
        <ele>333</ele>
        <time>2022-04-06T01:46:06Z</time>
      </trkpt>
      <trkpt lat="48.62274" lon="7.13792">
        <ele>335</ele>
        <time>2022-04-06T01:46:09Z</time>
      </trkpt>
      <trkpt lat="48.62266" lon="7.13836">
        <ele>337</ele>
        <time>2022-04-06T01:46:15Z</time>
      </trkpt>
      <trkpt lat="48.62248" lon="7.13875">
        <ele>341</ele>
        <time>2022-04-06T01:46:20Z</time>
      </trkpt>
      <trkpt lat="48.62231" lon="7.1389">
        <ele>342</ele>
        <time>2022-04-06T01:46:24Z</time>
      </trkpt>
      <trkpt lat="48.62169" lon="7.13905">
        <ele>335</ele>
        <time>2022-04-06T01:46:35Z</time>
      </trkpt>
      <trkpt lat="48.62159" lon="7.13917">
        <ele>336</ele>
        <time>2022-04-06T01:46:37Z</time>
      </trkpt>
      <trkpt lat="48.62148" lon="7.13942">
        <ele>339</ele>
        <time>2022-04-06T01:46:41Z</time>
      </trkpt>
      <trkpt lat="48.62131" lon="7.14017">
        <ele>342</ele>
        <time>2022-04-06T01:46:50Z</time>
      </trkpt>
      <trkpt lat="48.6212" lon="7.14054">
        <ele>341</ele>
        <time>2022-04-06T01:46:55Z</time>
      </trkpt>
      <trkpt lat="48.62117" lon="7.14076">
        <ele>341</ele>
        <time>2022-04-06T01:46:57Z</time>
      </trkpt>
      <trkpt lat="48.62117" lon="7.14096">
        <ele>340</ele>
        <time>2022-04-06T01:47:00Z</time>
      </trkpt>
      <trkpt lat="48.6212" lon="7.14186">
        <ele>339</ele>
        <time>2022-04-06T01:47:10Z</time>
      </trkpt>
      <trkpt lat="48.62112" lon="7.14209">
        <ele>337</ele>
        <time>2022-04-06T01:47:13Z</time>
      </trkpt>
      <trkpt lat="48.62103" lon="7.14229">
        <ele>336</ele>
        <time>2022-04-06T01:47:16Z</time>
      </trkpt>
      <trkpt lat="48.6209" lon="7.14246">
        <ele>335</ele>
        <time>2022-04-06T01:47:19Z</time>
      </trkpt>
      <trkpt lat="48.62044" lon="7.14269">
        <ele>343</ele>
        <time>2022-04-06T01:47:28Z</time>
      </trkpt>
      <trkpt lat="48.61958" lon="7.14303">
        <ele>350</ele>
        <time>2022-04-06T01:47:44Z</time>
      </trkpt>
      <trkpt lat="48.6191" lon="7.1433">
        <ele>349</ele>
        <time>2022-04-06T01:47:53Z</time>
      </trkpt>
      <trkpt lat="48.61889" lon="7.14346">
        <ele>355</ele>
        <time>2022-04-06T01:47:57Z</time>
      </trkpt>
      <trkpt lat="48.61866" lon="7.14377">
        <ele>357</ele>
        <time>2022-04-06T01:48:03Z</time>
      </trkpt>
      <trkpt lat="48.61828" lon="7.14439">
        <ele>353</ele>
        <time>2022-04-06T01:48:13Z</time>
      </trkpt>
      <trkpt lat="48.61818" lon="7.14448">
        <ele>357</ele>
        <time>2022-04-06T01:48:15Z</time>
      </trkpt>
      <trkpt lat="48.61775" lon="7.1447">
        <ele>367</ele>
        <time>2022-04-06T01:48:23Z</time>
      </trkpt>
      <trkpt lat="48.61756" lon="7.14489">
        <ele>368</ele>
        <time>2022-04-06T01:48:27Z</time>
      </trkpt>
      <trkpt lat="48.61742" lon="7.14508">
        <ele>368</ele>
        <time>2022-04-06T01:48:30Z</time>
      </trkpt>
      <trkpt lat="48.61714" lon="7.14588">
        <ele>364</ele>
        <time>2022-04-06T01:48:41Z</time>
      </trkpt>
      <trkpt lat="48.61701" lon="7.14614">
        <ele>367</ele>
        <time>2022-04-06T01:48:45Z</time>
      </trkpt>
      <trkpt lat="48.61687" lon="7.14633">
        <ele>368</ele>
        <time>2022-04-06T01:48:48Z</time>
      </trkpt>
      <trkpt lat="48.61672" lon="7.14643">
        <ele>367</ele>
        <time>2022-04-06T01:48:51Z</time>
      </trkpt>
      <trkpt lat="48.61628" lon="7.14642">
        <ele>376</ele>
        <time>2022-04-06T01:48:59Z</time>
      </trkpt>
      <trkpt lat="48.61617" lon="7.14645">
        <ele>378</ele>
        <time>2022-04-06T01:49:01Z</time>
      </trkpt>
      <trkpt lat="48.61608" lon="7.14654">
        <ele>380</ele>
        <time>2022-04-06T01:49:03Z</time>
      </trkpt>
      <trkpt lat="48.61601" lon="7.14671">
        <ele>380</ele>
        <time>2022-04-06T01:49:05Z</time>
      </trkpt>
      <trkpt lat="48.61578" lon="7.14754">
        <ele>379</ele>
        <time>2022-04-06T01:49:15Z</time>
      </trkpt>
      <trkpt lat="48.61559" lon="7.14805">
        <ele>381</ele>
        <time>2022-04-06T01:49:22Z</time>
      </trkpt>
      <trkpt lat="48.61536" lon="7.1486">
        <ele>381</ele>
        <time>2022-04-06T01:49:30Z</time>
      </trkpt>
      <trkpt lat="48.61488" lon="7.14948">
        <ele>380</ele>
        <time>2022-04-06T01:49:43Z</time>
      </trkpt>
      <trkpt lat="48.61465" lon="7.14974">
        <ele>382</ele>
        <time>2022-04-06T01:49:49Z</time>
      </trkpt>
      <trkpt lat="48.61447" lon="7.14982">
        <ele>382</ele>
        <time>2022-04-06T01:49:52Z</time>
      </trkpt>
      <trkpt lat="48.61413" lon="7.14991">
        <ele>382</ele>
        <time>2022-04-06T01:49:58Z</time>
      </trkpt>
      <trkpt lat="48.61402" lon="7.15003">
        <ele>384</ele>
        <time>2022-04-06T01:50:00Z</time>
      </trkpt>
      <trkpt lat="48.61394" lon="7.15024">
        <ele>386</ele>
        <time>2022-04-06T01:50:03Z</time>
      </trkpt>
      <trkpt lat="48.61383" lon="7.15072">
        <ele>385</ele>
        <time>2022-04-06T01:50:09Z</time>
      </trkpt>
      <trkpt lat="48.61373" lon="7.15093">
        <ele>387</ele>
        <time>2022-04-06T01:50:12Z</time>
      </trkpt>
      <trkpt lat="48.6134" lon="7.15116">
        <ele>391</ele>
        <time>2022-04-06T01:50:19Z</time>
      </trkpt>
      <trkpt lat="48.61332" lon="7.15125">
        <ele>391</ele>
        <time>2022-04-06T01:50:21Z</time>
      </trkpt>
      <trkpt lat="48.61327" lon="7.15134">
        <ele>393</ele>
        <time>2022-04-06T01:50:22Z</time>
      </trkpt>
      <trkpt lat="48.61325" lon="7.15144">
        <ele>393</ele>
        <time>2022-04-06T01:50:23Z</time>
      </trkpt>
      <trkpt lat="48.61323" lon="7.15167">
        <ele>393</ele>
        <time>2022-04-06T01:50:26Z</time>
      </trkpt>
      <trkpt lat="48.61328" lon="7.15222">
        <ele>394</ele>
        <time>2022-04-06T01:50:32Z</time>
      </trkpt>
      <trkpt lat="48.61326" lon="7.15258">
        <ele>395</ele>
        <time>2022-04-06T01:50:37Z</time>
      </trkpt>
      <trkpt lat="48.6132" lon="7.1529">
        <ele>397</ele>
        <time>2022-04-06T01:50:41Z</time>
      </trkpt>
      <trkpt lat="48.61303" lon="7.15341">
        <ele>399</ele>
        <time>2022-04-06T01:50:47Z</time>
      </trkpt>
      <trkpt lat="48.613" lon="7.15354">
        <ele>399</ele>
        <time>2022-04-06T01:50:49Z</time>
      </trkpt>
      <trkpt lat="48.61297" lon="7.15381">
        <ele>397</ele>
        <time>2022-04-06T01:50:52Z</time>
      </trkpt>
      <trkpt lat="48.61295" lon="7.15449">
        <ele>395</ele>
        <time>2022-04-06T01:51:00Z</time>
      </trkpt>
      <trkpt lat="48.61293" lon="7.15471">
        <ele>395</ele>
        <time>2022-04-06T01:51:03Z</time>
      </trkpt>
      <trkpt lat="48.61287" lon="7.15488">
        <ele>394</ele>
        <time>2022-04-06T01:51:05Z</time>
      </trkpt>
      <trkpt lat="48.61282" lon="7.15497">
        <ele>393</ele>
        <time>2022-04-06T01:51:06Z</time>
      </trkpt>
      <trkpt lat="48.61249" lon="7.1553">
        <ele>391</ele>
        <time>2022-04-06T01:51:13Z</time>
      </trkpt>
      <trkpt lat="48.61234" lon="7.15554">
        <ele>395</ele>
        <time>2022-04-06T01:51:17Z</time>
      </trkpt>
      <trkpt lat="48.61228" lon="7.15571">
        <ele>397</ele>
        <time>2022-04-06T01:51:20Z</time>
      </trkpt>
      <trkpt lat="48.61226" lon="7.15581">
        <ele>397</ele>
        <time>2022-04-06T01:51:21Z</time>
      </trkpt>
      <trkpt lat="48.61225" lon="7.15611">
        <ele>398</ele>
        <time>2022-04-06T01:51:24Z</time>
      </trkpt>
      <trkpt lat="48.61227" lon="7.1565">
        <ele>399</ele>
        <time>2022-04-06T01:51:29Z</time>
      </trkpt>
      <trkpt lat="48.61227" lon="7.15688">
        <ele>400</ele>
        <time>2022-04-06T01:51:33Z</time>
      </trkpt>
      <trkpt lat="48.61223" lon="7.15716">
        <ele>401</ele>
        <time>2022-04-06T01:51:37Z</time>
      </trkpt>
      <trkpt lat="48.61217" lon="7.15743">
        <ele>402</ele>
        <time>2022-04-06T01:51:40Z</time>
      </trkpt>
      <trkpt lat="48.61203" lon="7.1579">
        <ele>404</ele>
        <time>2022-04-06T01:51:46Z</time>
      </trkpt>
      <trkpt lat="48.61183" lon="7.15867">
        <ele>406</ele>
        <time>2022-04-06T01:51:56Z</time>
      </trkpt>
      <trkpt lat="48.6118" lon="7.15874">
        <ele>407</ele>
        <time>2022-04-06T01:51:57Z</time>
      </trkpt>
      <trkpt lat="48.61168" lon="7.15887">
        <ele>407</ele>
        <time>2022-04-06T01:52:00Z</time>
      </trkpt>
      <trkpt lat="48.61113" lon="7.15909">
        <ele>404</ele>
        <time>2022-04-06T01:52:10Z</time>
      </trkpt>
      <trkpt lat="48.61098" lon="7.15918">
        <ele>403</ele>
        <time>2022-04-06T01:52:13Z</time>
      </trkpt>
      <trkpt lat="48.61088" lon="7.15932">
        <ele>403</ele>
        <time>2022-04-06T01:52:15Z</time>
      </trkpt>
      <trkpt lat="48.61047" lon="7.1602">
        <ele>416</ele>
        <time>2022-04-06T01:52:28Z</time>
      </trkpt>
      <trkpt lat="48.61029" lon="7.16056">
        <ele>418</ele>
        <time>2022-04-06T01:52:33Z</time>
      </trkpt>
      <trkpt lat="48.60997" lon="7.16112">
        <ele>418</ele>
        <time>2022-04-06T01:52:42Z</time>
      </trkpt>
      <trkpt lat="48.60985" lon="7.16139">
        <ele>420</ele>
        <time>2022-04-06T01:52:46Z</time>
      </trkpt>
      <trkpt lat="48.60975" lon="7.16174">
        <ele>421</ele>
        <time>2022-04-06T01:52:50Z</time>
      </trkpt>
      <trkpt lat="48.6097" lon="7.162">
        <ele>423</ele>
        <time>2022-04-06T01:52:53Z</time>
      </trkpt>
      <trkpt lat="48.60964" lon="7.16265">
        <ele>426</ele>
        <time>2022-04-06T01:53:01Z</time>
      </trkpt>
      <trkpt lat="48.60962" lon="7.16279">
        <ele>427</ele>
        <time>2022-04-06T01:53:03Z</time>
      </trkpt>
      <trkpt lat="48.60958" lon="7.16297">
        <ele>428</ele>
        <time>2022-04-06T01:53:05Z</time>
      </trkpt>
      <trkpt lat="48.60949" lon="7.16321">
        <ele>429</ele>
        <time>2022-04-06T01:53:08Z</time>
      </trkpt>
      <trkpt lat="48.60909" lon="7.16387">
        <ele>431</ele>
        <time>2022-04-06T01:53:19Z</time>
      </trkpt>
      <trkpt lat="48.60897" lon="7.16417">
        <ele>436</ele>
        <time>2022-04-06T01:53:23Z</time>
      </trkpt>
      <trkpt lat="48.60891" lon="7.16443">
        <ele>440</ele>
        <time>2022-04-06T01:53:26Z</time>
      </trkpt>
      <trkpt lat="48.60888" lon="7.16477">
        <ele>443</ele>
        <time>2022-04-06T01:53:30Z</time>
      </trkpt>
      <trkpt lat="48.60884" lon="7.16568">
        <ele>449</ele>
        <time>2022-04-06T01:53:41Z</time>
      </trkpt>
      <trkpt lat="48.60877" lon="7.16613">
        <ele>451</ele>
        <time>2022-04-06T01:53:46Z</time>
      </trkpt>
      <trkpt lat="48.60856" lon="7.16682">
        <ele>453</ele>
        <time>2022-04-06T01:53:55Z</time>
      </trkpt>
      <trkpt lat="48.60844" lon="7.16748">
        <ele>455</ele>
        <time>2022-04-06T01:54:03Z</time>
      </trkpt>
      <trkpt lat="48.60834" lon="7.16785">
        <ele>455</ele>
        <time>2022-04-06T01:54:08Z</time>
      </trkpt>
      <trkpt lat="48.60794" lon="7.16891">
        <ele>464</ele>
        <time>2022-04-06T01:54:22Z</time>
      </trkpt>
      <trkpt lat="48.60784" lon="7.16923">
        <ele>465</ele>
        <time>2022-04-06T01:54:26Z</time>
      </trkpt>
      <trkpt lat="48.6077" lon="7.1699">
        <ele>464</ele>
        <time>2022-04-06T01:54:35Z</time>
      </trkpt>
      <trkpt lat="48.60753" lon="7.17045">
        <ele>466</ele>
        <time>2022-04-06T01:54:42Z</time>
      </trkpt>
      <trkpt lat="48.60739" lon="7.17131">
        <ele>469</ele>
        <time>2022-04-06T01:54:52Z</time>
      </trkpt>
      <trkpt lat="48.60732" lon="7.17162">
        <ele>472</ele>
        <time>2022-04-06T01:54:56Z</time>
      </trkpt>
      <trkpt lat="48.60706" lon="7.17256">
        <ele>481</ele>
        <time>2022-04-06T01:55:08Z</time>
      </trkpt>
      <trkpt lat="48.60692" lon="7.17325">
        <ele>482</ele>
        <time>2022-04-06T01:55:17Z</time>
      </trkpt>
      <trkpt lat="48.60681" lon="7.17355">
        <ele>482</ele>
        <time>2022-04-06T01:55:21Z</time>
      </trkpt>
      <trkpt lat="48.60653" lon="7.1739">
        <ele>482</ele>
        <time>2022-04-06T01:55:27Z</time>
      </trkpt>
      <trkpt lat="48.60645" lon="7.17407">
        <ele>482</ele>
        <time>2022-04-06T01:55:29Z</time>
      </trkpt>
      <trkpt lat="48.60641" lon="7.17422">
        <ele>482</ele>
        <time>2022-04-06T01:55:31Z</time>
      </trkpt>
      <trkpt lat="48.60626" lon="7.17525">
        <ele>483</ele>
        <time>2022-04-06T01:55:44Z</time>
      </trkpt>
      <trkpt lat="48.60618" lon="7.17566">
        <ele>483</ele>
        <time>2022-04-06T01:55:49Z</time>
      </trkpt>
      <trkpt lat="48.60609" lon="7.176">
        <ele>482</ele>
        <time>2022-04-06T01:55:53Z</time>
      </trkpt>
      <trkpt lat="48.606" lon="7.17627">
        <ele>482</ele>
        <time>2022-04-06T01:55:57Z</time>
      </trkpt>
      <trkpt lat="48.60592" lon="7.17648">
        <ele>482</ele>
        <time>2022-04-06T01:56:00Z</time>
      </trkpt>
      <trkpt lat="48.60572" lon="7.17688">
        <ele>485</ele>
        <time>2022-04-06T01:56:05Z</time>
      </trkpt>
      <trkpt lat="48.60499" lon="7.17797">
        <ele>495</ele>
        <time>2022-04-06T01:56:24Z</time>
      </trkpt>
      <trkpt lat="48.60423" lon="7.17896">
        <ele>512</ele>
        <time>2022-04-06T01:56:42Z</time>
      </trkpt>
      <trkpt lat="48.60369" lon="7.17973">
        <ele>524</ele>
        <time>2022-04-06T01:56:55Z</time>
      </trkpt>
      <trkpt lat="48.6035" lon="7.18013">
        <ele>525</ele>
        <time>2022-04-06T01:57:01Z</time>
      </trkpt>
      <trkpt lat="48.6032" lon="7.18061">
        <ele>528</ele>
        <time>2022-04-06T01:57:08Z</time>
      </trkpt>
      <trkpt lat="48.60312" lon="7.18083">
        <ele>529</ele>
        <time>2022-04-06T01:57:11Z</time>
      </trkpt>
      <trkpt lat="48.60312" lon="7.18099">
        <ele>529</ele>
        <time>2022-04-06T01:57:13Z</time>
      </trkpt>
      <trkpt lat="48.60325" lon="7.18146">
        <ele>526</ele>
        <time>2022-04-06T01:57:19Z</time>
      </trkpt>
      <trkpt lat="48.60329" lon="7.18173">
        <ele>527</ele>
        <time>2022-04-06T01:57:22Z</time>
      </trkpt>
      <trkpt lat="48.60338" lon="7.18263">
        <ele>535</ele>
        <time>2022-04-06T01:57:33Z</time>
      </trkpt>
      <trkpt lat="48.60338" lon="7.18288">
        <ele>536</ele>
        <time>2022-04-06T01:57:36Z</time>
      </trkpt>
      <trkpt lat="48.60335" lon="7.1832">
        <ele>537</ele>
        <time>2022-04-06T01:57:40Z</time>
      </trkpt>
      <trkpt lat="48.6033" lon="7.18338">
        <ele>538</ele>
        <time>2022-04-06T01:57:42Z</time>
      </trkpt>
      <trkpt lat="48.603" lon="7.18431">
        <ele>543</ele>
        <time>2022-04-06T01:57:54Z</time>
      </trkpt>
      <trkpt lat="48.60293" lon="7.18463">
        <ele>544</ele>
        <time>2022-04-06T01:57:58Z</time>
      </trkpt>
      <trkpt lat="48.60287" lon="7.18538">
        <ele>546</ele>
        <time>2022-04-06T01:58:07Z</time>
      </trkpt>
      <trkpt lat="48.60288" lon="7.18567">
        <ele>548</ele>
        <time>2022-04-06T01:58:11Z</time>
      </trkpt>
      <trkpt lat="48.60297" lon="7.18608">
        <ele>552</ele>
        <time>2022-04-06T01:58:16Z</time>
      </trkpt>
      <trkpt lat="48.60323" lon="7.18655">
        <ele>557</ele>
        <time>2022-04-06T01:58:23Z</time>
      </trkpt>
      <trkpt lat="48.60348" lon="7.1871">
        <ele>560</ele>
        <time>2022-04-06T01:58:31Z</time>
      </trkpt>
      <trkpt lat="48.60367" lon="7.18729">
        <ele>560</ele>
        <time>2022-04-06T01:58:35Z</time>
      </trkpt>
      <trkpt lat="48.60399" lon="7.187">
        <ele>560</ele>
        <time>2022-04-06T01:58:41Z</time>
      </trkpt>
      <trkpt lat="48.60412" lon="7.18692">
        <ele>560</ele>
        <time>2022-04-06T01:58:44Z</time>
      </trkpt>
      <trkpt lat="48.60424" lon="7.18689">
        <ele>560</ele>
        <time>2022-04-06T01:58:46Z</time>
      </trkpt>
      <trkpt lat="48.60467" lon="7.18693">
        <ele>557</ele>
        <time>2022-04-06T01:58:54Z</time>
      </trkpt>
      <trkpt lat="48.60483" lon="7.18697">
        <ele>556</ele>
        <time>2022-04-06T01:58:57Z</time>
      </trkpt>
      <trkpt lat="48.60512" lon="7.18712">
        <ele>555</ele>
        <time>2022-04-06T01:59:02Z</time>
      </trkpt>
      <trkpt lat="48.60586" lon="7.18756">
        <ele>554</ele>
        <time>2022-04-06T01:59:16Z</time>
      </trkpt>
      <trkpt lat="48.60606" lon="7.18765">
        <ele>551</ele>
        <time>2022-04-06T01:59:20Z</time>
      </trkpt>
      <trkpt lat="48.60643" lon="7.18775">
        <ele>548</ele>
        <time>2022-04-06T01:59:27Z</time>
      </trkpt>
      <trkpt lat="48.60668" lon="7.18776">
        <ele>546</ele>
        <time>2022-04-06T01:59:31Z</time>
      </trkpt>
      <trkpt lat="48.60681" lon="7.18773">
        <ele>544</ele>
        <time>2022-04-06T01:59:33Z</time>
      </trkpt>
      <trkpt lat="48.6069" lon="7.18766">
        <ele>543</ele>
        <time>2022-04-06T01:59:35Z</time>
      </trkpt>
      <trkpt lat="48.60696" lon="7.18755">
        <ele>543</ele>
        <time>2022-04-06T01:59:37Z</time>
      </trkpt>
      <trkpt lat="48.60702" lon="7.18732">
        <ele>542</ele>
        <time>2022-04-06T01:59:40Z</time>
      </trkpt>
      <trkpt lat="48.60707" lon="7.18688">
        <ele>541</ele>
        <time>2022-04-06T01:59:45Z</time>
      </trkpt>
      <trkpt lat="48.60711" lon="7.18622">
        <ele>539</ele>
        <time>2022-04-06T01:59:53Z</time>
      </trkpt>
      <trkpt lat="48.60718" lon="7.18555">
        <ele>537</ele>
        <time>2022-04-06T02:00:01Z</time>
      </trkpt>
      <trkpt lat="48.60729" lon="7.1849">
        <ele>533</ele>
        <time>2022-04-06T02:00:09Z</time>
      </trkpt>
      <trkpt lat="48.60738" lon="7.18459">
        <ele>531</ele>
        <time>2022-04-06T02:00:13Z</time>
      </trkpt>
      <trkpt lat="48.6075" lon="7.18431">
        <ele>530</ele>
        <time>2022-04-06T02:00:17Z</time>
      </trkpt>
      <trkpt lat="48.60785" lon="7.18366">
        <ele>527</ele>
        <time>2022-04-06T02:00:27Z</time>
      </trkpt>
      <trkpt lat="48.60799" lon="7.18345">
        <ele>527</ele>
        <time>2022-04-06T02:00:30Z</time>
      </trkpt>
      <trkpt lat="48.60819" lon="7.1833">
        <ele>527</ele>
        <time>2022-04-06T02:00:34Z</time>
      </trkpt>
      <trkpt lat="48.60831" lon="7.18326">
        <ele>526</ele>
        <time>2022-04-06T02:00:36Z</time>
      </trkpt>
      <trkpt lat="48.60855" lon="7.18327">
        <ele>529</ele>
        <time>2022-04-06T02:00:40Z</time>
      </trkpt>
      <trkpt lat="48.60874" lon="7.18339">
        <ele>532</ele>
        <time>2022-04-06T02:00:44Z</time>
      </trkpt>
      <trkpt lat="48.60913" lon="7.18375">
        <ele>534</ele>
        <time>2022-04-06T02:00:52Z</time>
      </trkpt>
      <trkpt lat="48.60951" lon="7.1842">
        <ele>535</ele>
        <time>2022-04-06T02:01:01Z</time>
      </trkpt>
      <trkpt lat="48.60987" lon="7.18452">
        <ele>535</ele>
        <time>2022-04-06T02:01:08Z</time>
      </trkpt>
      <trkpt lat="48.61018" lon="7.18477">
        <ele>535</ele>
        <time>2022-04-06T02:01:15Z</time>
      </trkpt>
      <trkpt lat="48.61041" lon="7.18484">
        <ele>535</ele>
        <time>2022-04-06T02:01:19Z</time>
      </trkpt>
      <trkpt lat="48.61071" lon="7.18482">
        <ele>539</ele>
        <time>2022-04-06T02:01:24Z</time>
      </trkpt>
      <trkpt lat="48.6112" lon="7.18472">
        <ele>541</ele>
        <time>2022-04-06T02:01:33Z</time>
      </trkpt>
      <trkpt lat="48.61191" lon="7.18468">
        <ele>540</ele>
        <time>2022-04-06T02:01:45Z</time>
      </trkpt>
      <trkpt lat="48.61298" lon="7.18523">
        <ele>525</ele>
        <time>2022-04-06T02:02:06Z</time>
      </trkpt>
      <trkpt lat="48.61319" lon="7.18527">
        <ele>523</ele>
        <time>2022-04-06T02:02:09Z</time>
      </trkpt>
      <trkpt lat="48.6133" lon="7.18527">
        <ele>523</ele>
        <time>2022-04-06T02:02:11Z</time>
      </trkpt>
      <trkpt lat="48.61342" lon="7.18523">
        <ele>521</ele>
        <time>2022-04-06T02:02:14Z</time>
      </trkpt>
      <trkpt lat="48.61356" lon="7.18511">
        <ele>520</ele>
        <time>2022-04-06T02:02:16Z</time>
      </trkpt>
      <trkpt lat="48.61362" lon="7.18501">
        <ele>519</ele>
        <time>2022-04-06T02:02:18Z</time>
      </trkpt>
      <trkpt lat="48.61367" lon="7.18483">
        <ele>517</ele>
        <time>2022-04-06T02:02:20Z</time>
      </trkpt>
      <trkpt lat="48.61368" lon="7.18472">
        <ele>517</ele>
        <time>2022-04-06T02:02:22Z</time>
      </trkpt>
      <trkpt lat="48.61361" lon="7.18368">
        <ele>517</ele>
        <time>2022-04-06T02:02:34Z</time>
      </trkpt>
      <trkpt lat="48.61362" lon="7.18314">
        <ele>517</ele>
        <time>2022-04-06T02:02:40Z</time>
      </trkpt>
      <trkpt lat="48.61365" lon="7.18293">
        <ele>518</ele>
        <time>2022-04-06T02:02:43Z</time>
      </trkpt>
      <trkpt lat="48.61388" lon="7.18219">
        <ele>520</ele>
        <time>2022-04-06T02:02:52Z</time>
      </trkpt>
      <trkpt lat="48.614" lon="7.18195">
        <ele>523</ele>
        <time>2022-04-06T02:02:56Z</time>
      </trkpt>
      <trkpt lat="48.61409" lon="7.18186">
        <ele>523</ele>
        <time>2022-04-06T02:02:58Z</time>
      </trkpt>
      <trkpt lat="48.61428" lon="7.1818">
        <ele>524</ele>
        <time>2022-04-06T02:03:01Z</time>
      </trkpt>
      <trkpt lat="48.61476" lon="7.18186">
        <ele>526</ele>
        <time>2022-04-06T02:03:10Z</time>
      </trkpt>
      <trkpt lat="48.61536" lon="7.18189">
        <ele>526</ele>
        <time>2022-04-06T02:03:21Z</time>
      </trkpt>
      <trkpt lat="48.61551" lon="7.18187">
        <ele>526</ele>
        <time>2022-04-06T02:03:23Z</time>
      </trkpt>
      <trkpt lat="48.61581" lon="7.18174">
        <ele>526</ele>
        <time>2022-04-06T02:03:29Z</time>
      </trkpt>
      <trkpt lat="48.61595" lon="7.18163">
        <ele>526</ele>
        <time>2022-04-06T02:03:32Z</time>
      </trkpt>
      <trkpt lat="48.61653" lon="7.18089">
        <ele>522</ele>
        <time>2022-04-06T02:03:45Z</time>
      </trkpt>
      <trkpt lat="48.61724" lon="7.18023">
        <ele>515</ele>
        <time>2022-04-06T02:04:00Z</time>
      </trkpt>
      <trkpt lat="48.61778" lon="7.17981">
        <ele>511</ele>
        <time>2022-04-06T02:04:11Z</time>
      </trkpt>
      <trkpt lat="48.61817" lon="7.17959">
        <ele>508</ele>
        <time>2022-04-06T02:04:18Z</time>
      </trkpt>
      <trkpt lat="48.61843" lon="7.17955">
        <ele>507</ele>
        <time>2022-04-06T02:04:23Z</time>
      </trkpt>
      <trkpt lat="48.61861" lon="7.17956">
        <ele>507</ele>
        <time>2022-04-06T02:04:26Z</time>
      </trkpt>
      <trkpt lat="48.61883" lon="7.17964">
        <ele>508</ele>
        <time>2022-04-06T02:04:30Z</time>
      </trkpt>
      <trkpt lat="48.6193" lon="7.17985">
        <ele>508</ele>
        <time>2022-04-06T02:04:39Z</time>
      </trkpt>
      <trkpt lat="48.61966" lon="7.17997">
        <ele>509</ele>
        <time>2022-04-06T02:04:45Z</time>
      </trkpt>
      <trkpt lat="48.62017" lon="7.18">
        <ele>508</ele>
        <time>2022-04-06T02:04:54Z</time>
      </trkpt>
      <trkpt lat="48.62036" lon="7.17999">
        <ele>505</ele>
        <time>2022-04-06T02:04:58Z</time>
      </trkpt>
      <trkpt lat="48.62057" lon="7.17995">
        <ele>501</ele>
        <time>2022-04-06T02:05:01Z</time>
      </trkpt>
      <trkpt lat="48.62074" lon="7.17985">
        <ele>500</ele>
        <time>2022-04-06T02:05:05Z</time>
      </trkpt>
      <trkpt lat="48.62084" lon="7.17973">
        <ele>499</ele>
        <time>2022-04-06T02:05:07Z</time>
      </trkpt>
      <trkpt lat="48.62094" lon="7.17956">
        <ele>500</ele>
        <time>2022-04-06T02:05:10Z</time>
      </trkpt>
      <trkpt lat="48.62117" lon="7.17891">
        <ele>504</ele>
        <time>2022-04-06T02:05:18Z</time>
      </trkpt>
      <trkpt lat="48.62123" lon="7.17878">
        <ele>505</ele>
        <time>2022-04-06T02:05:20Z</time>
      </trkpt>
      <trkpt lat="48.62134" lon="7.1786">
        <ele>505</ele>
        <time>2022-04-06T02:05:23Z</time>
      </trkpt>
      <trkpt lat="48.62159" lon="7.1784">
        <ele>503</ele>
        <time>2022-04-06T02:05:28Z</time>
      </trkpt>
      <trkpt lat="48.62184" lon="7.17827">
        <ele>502</ele>
        <time>2022-04-06T02:05:33Z</time>
      </trkpt>
      <trkpt lat="48.6224" lon="7.17808">
        <ele>502</ele>
        <time>2022-04-06T02:05:43Z</time>
      </trkpt>
      <trkpt lat="48.62267" lon="7.17801">
        <ele>503</ele>
        <time>2022-04-06T02:05:48Z</time>
      </trkpt>
      <trkpt lat="48.623" lon="7.17796">
        <ele>504</ele>
        <time>2022-04-06T02:05:54Z</time>
      </trkpt>
      <trkpt lat="48.62435" lon="7.17794">
        <ele>502</ele>
        <time>2022-04-06T02:06:18Z</time>
      </trkpt>
      <trkpt lat="48.62454" lon="7.17799">
        <ele>501</ele>
        <time>2022-04-06T02:06:21Z</time>
      </trkpt>
      <trkpt lat="48.62512" lon="7.17823">
        <ele>497</ele>
        <time>2022-04-06T02:06:32Z</time>
      </trkpt>
      <trkpt lat="48.62528" lon="7.17825">
        <ele>496</ele>
        <time>2022-04-06T02:06:35Z</time>
      </trkpt>
      <trkpt lat="48.62546" lon="7.1782">
        <ele>496</ele>
        <time>2022-04-06T02:06:38Z</time>
      </trkpt>
      <trkpt lat="48.62553" lon="7.17828">
        <ele>496</ele>
        <time>2022-04-06T02:06:40Z</time>
      </trkpt>
      <trkpt lat="48.62561" lon="7.17851">
        <ele>497</ele>
        <time>2022-04-06T02:06:43Z</time>
      </trkpt>
      <trkpt lat="48.62559" lon="7.17884">
        <ele>498</ele>
        <time>2022-04-06T02:06:47Z</time>
      </trkpt>
      <trkpt lat="48.62565" lon="7.17964">
        <ele>496</ele>
        <time>2022-04-06T02:06:56Z</time>
      </trkpt>
      <trkpt lat="48.62588" lon="7.18085">
        <ele>491</ele>
        <time>2022-04-06T02:07:11Z</time>
      </trkpt>
      <trkpt lat="48.62592" lon="7.18122">
        <ele>490</ele>
        <time>2022-04-06T02:07:15Z</time>
      </trkpt>
      <trkpt lat="48.62593" lon="7.18211">
        <ele>484</ele>
        <time>2022-04-06T02:07:26Z</time>
      </trkpt>
      <trkpt lat="48.62597" lon="7.18277">
        <ele>481</ele>
        <time>2022-04-06T02:07:34Z</time>
      </trkpt>
      <trkpt lat="48.62604" lon="7.18324">
        <ele>479</ele>
        <time>2022-04-06T02:07:39Z</time>
      </trkpt>
      <trkpt lat="48.62612" lon="7.18357">
        <ele>478</ele>
        <time>2022-04-06T02:07:43Z</time>
      </trkpt>
      <trkpt lat="48.62626" lon="7.18399">
        <ele>477</ele>
        <time>2022-04-06T02:07:49Z</time>
      </trkpt>
      <trkpt lat="48.62666" lon="7.18462">
        <ele>475</ele>
        <time>2022-04-06T02:07:59Z</time>
      </trkpt>
      <trkpt lat="48.6289" lon="7.18697">
        <ele>476</ele>
        <time>2022-04-06T02:08:48Z</time>
      </trkpt>
      <trkpt lat="48.62911" lon="7.18714">
        <ele>477</ele>
        <time>2022-04-06T02:08:52Z</time>
      </trkpt>
      <trkpt lat="48.62933" lon="7.18725">
        <ele>475</ele>
        <time>2022-04-06T02:08:56Z</time>
      </trkpt>
      <trkpt lat="48.62945" lon="7.18725">
        <ele>475</ele>
        <time>2022-04-06T02:08:58Z</time>
      </trkpt>
      <trkpt lat="48.62959" lon="7.18721">
        <ele>475</ele>
        <time>2022-04-06T02:09:01Z</time>
      </trkpt>
      <trkpt lat="48.63023" lon="7.18674">
        <ele>474</ele>
        <time>2022-04-06T02:09:13Z</time>
      </trkpt>
      <trkpt lat="48.6303" lon="7.18665">
        <ele>473</ele>
        <time>2022-04-06T02:09:15Z</time>
      </trkpt>
      <trkpt lat="48.63054" lon="7.18569">
        <ele>470</ele>
        <time>2022-04-06T02:09:27Z</time>
      </trkpt>
      <trkpt lat="48.63069" lon="7.18474">
        <ele>463</ele>
        <time>2022-04-06T02:09:39Z</time>
      </trkpt>
      <trkpt lat="48.63085" lon="7.18352">
        <ele>459</ele>
        <time>2022-04-06T02:09:53Z</time>
      </trkpt>
      <trkpt lat="48.63101" lon="7.18259">
        <ele>457</ele>
        <time>2022-04-06T02:10:04Z</time>
      </trkpt>
      <trkpt lat="48.63109" lon="7.18234">
        <ele>456</ele>
        <time>2022-04-06T02:10:08Z</time>
      </trkpt>
      <trkpt lat="48.63143" lon="7.18165">
        <ele>452</ele>
        <time>2022-04-06T02:10:18Z</time>
      </trkpt>
      <trkpt lat="48.6317" lon="7.18056">
        <ele>455</ele>
        <time>2022-04-06T02:10:32Z</time>
      </trkpt>
      <trkpt lat="48.63177" lon="7.18038">
        <ele>455</ele>
        <time>2022-04-06T02:10:34Z</time>
      </trkpt>
      <trkpt lat="48.63195" lon="7.18005">
        <ele>453</ele>
        <time>2022-04-06T02:10:39Z</time>
      </trkpt>
      <trkpt lat="48.63224" lon="7.17914">
        <ele>460</ele>
        <time>2022-04-06T02:10:51Z</time>
      </trkpt>
      <trkpt lat="48.63234" lon="7.17869">
        <ele>467</ele>
        <time>2022-04-06T02:10:56Z</time>
      </trkpt>
      <trkpt lat="48.6324" lon="7.17858">
        <ele>467</ele>
        <time>2022-04-06T02:10:58Z</time>
      </trkpt>
      <trkpt lat="48.63247" lon="7.17854">
        <ele>466</ele>
        <time>2022-04-06T02:10:59Z</time>
      </trkpt>
      <trkpt lat="48.63257" lon="7.17857">
        <ele>465</ele>
        <time>2022-04-06T02:11:01Z</time>
      </trkpt>
      <trkpt lat="48.63268" lon="7.1787">
        <ele>463</ele>
        <time>2022-04-06T02:11:04Z</time>
      </trkpt>
      <trkpt lat="48.63294" lon="7.17919">
        <ele>452</ele>
        <time>2022-04-06T02:11:11Z</time>
      </trkpt>
      <trkpt lat="48.63304" lon="7.17934">
        <ele>451</ele>
        <time>2022-04-06T02:11:14Z</time>
      </trkpt>
      <trkpt lat="48.63319" lon="7.17946">
        <ele>449</ele>
        <time>2022-04-06T02:11:17Z</time>
      </trkpt>
      <trkpt lat="48.63327" lon="7.1796">
        <ele>447</ele>
        <time>2022-04-06T02:11:19Z</time>
      </trkpt>
      <trkpt lat="48.63345" lon="7.18">
        <ele>445</ele>
        <time>2022-04-06T02:11:25Z</time>
      </trkpt>
      <trkpt lat="48.63367" lon="7.18066">
        <ele>444</ele>
        <time>2022-04-06T02:11:33Z</time>
      </trkpt>
      <trkpt lat="48.63415" lon="7.18164">
        <ele>448</ele>
        <time>2022-04-06T02:11:48Z</time>
      </trkpt>
      <trkpt lat="48.63443" lon="7.18273">
        <ele>446</ele>
        <time>2022-04-06T02:12:01Z</time>
      </trkpt>
      <trkpt lat="48.6346" lon="7.18392">
        <ele>437</ele>
        <time>2022-04-06T02:12:16Z</time>
      </trkpt>
      <trkpt lat="48.63553" lon="7.18646">
        <ele>432</ele>
        <time>2022-04-06T02:12:50Z</time>
      </trkpt>
      <trkpt lat="48.63576" lon="7.187">
        <ele>431</ele>
        <time>2022-04-06T02:12:57Z</time>
      </trkpt>
      <trkpt lat="48.63623" lon="7.18762">
        <ele>431</ele>
        <time>2022-04-06T02:13:08Z</time>
      </trkpt>
      <trkpt lat="48.63666" lon="7.18795">
        <ele>435</ele>
        <time>2022-04-06T02:13:17Z</time>
      </trkpt>
      <trkpt lat="48.63731" lon="7.18811">
        <ele>439</ele>
        <time>2022-04-06T02:13:29Z</time>
      </trkpt>
      <trkpt lat="48.63811" lon="7.18881">
        <ele>431</ele>
        <time>2022-04-06T02:13:45Z</time>
      </trkpt>
      <trkpt lat="48.63826" lon="7.18888">
        <ele>431</ele>
        <time>2022-04-06T02:13:48Z</time>
      </trkpt>
      <trkpt lat="48.63836" lon="7.18887">
        <ele>431</ele>
        <time>2022-04-06T02:13:50Z</time>
      </trkpt>
      <trkpt lat="48.63843" lon="7.18883">
        <ele>430</ele>
        <time>2022-04-06T02:13:51Z</time>
      </trkpt>
      <trkpt lat="48.63849" lon="7.18874">
        <ele>430</ele>
        <time>2022-04-06T02:13:53Z</time>
      </trkpt>
      <trkpt lat="48.63855" lon="7.18852">
        <ele>432</ele>
        <time>2022-04-06T02:13:55Z</time>
      </trkpt>
      <trkpt lat="48.63873" lon="7.18755">
        <ele>439</ele>
        <time>2022-04-06T02:14:07Z</time>
      </trkpt>
      <trkpt lat="48.63879" lon="7.18736">
        <ele>442</ele>
        <time>2022-04-06T02:14:10Z</time>
      </trkpt>
      <trkpt lat="48.6389" lon="7.18715">
        <ele>443</ele>
        <time>2022-04-06T02:14:13Z</time>
      </trkpt>
      <trkpt lat="48.63901" lon="7.18703">
        <ele>443</ele>
        <time>2022-04-06T02:14:15Z</time>
      </trkpt>
      <trkpt lat="48.63912" lon="7.187">
        <ele>441</ele>
        <time>2022-04-06T02:14:17Z</time>
      </trkpt>
      <trkpt lat="48.63921" lon="7.18706">
        <ele>439</ele>
        <time>2022-04-06T02:14:19Z</time>
      </trkpt>
      <trkpt lat="48.63938" lon="7.18736">
        <ele>433</ele>
        <time>2022-04-06T02:14:24Z</time>
      </trkpt>
      <trkpt lat="48.63999" lon="7.18831">
        <ele>418</ele>
        <time>2022-04-06T02:14:39Z</time>
      </trkpt>
      <trkpt lat="48.64033" lon="7.18857">
        <ele>413</ele>
        <time>2022-04-06T02:14:46Z</time>
      </trkpt>
      <trkpt lat="48.64071" lon="7.18854">
        <ele>412</ele>
        <time>2022-04-06T02:14:53Z</time>
      </trkpt>
      <trkpt lat="48.64128" lon="7.18804">
        <ele>421</ele>
        <time>2022-04-06T02:15:05Z</time>
      </trkpt>
      <trkpt lat="48.64163" lon="7.18793">
        <ele>421</ele>
        <time>2022-04-06T02:15:11Z</time>
      </trkpt>
      <trkpt lat="48.6418" lon="7.1881">
        <ele>421</ele>
        <time>2022-04-06T02:15:15Z</time>
      </trkpt>
      <trkpt lat="48.64191" lon="7.18883">
        <ele>414</ele>
        <time>2022-04-06T02:15:23Z</time>
      </trkpt>
      <trkpt lat="48.64273" lon="7.19059">
        <ele>410</ele>
        <time>2022-04-06T02:15:49Z</time>
      </trkpt>
      <trkpt lat="48.64318" lon="7.19138">
        <ele>411</ele>
        <time>2022-04-06T02:16:01Z</time>
      </trkpt>
      <trkpt lat="48.6439" lon="7.1924">
        <ele>407</ele>
        <time>2022-04-06T02:16:18Z</time>
      </trkpt>
      <trkpt lat="48.64414" lon="7.19268">
        <ele>405</ele>
        <time>2022-04-06T02:16:24Z</time>
      </trkpt>
      <trkpt lat="48.64442" lon="7.19295">
        <ele>399</ele>
        <time>2022-04-06T02:16:30Z</time>
      </trkpt>
      <trkpt lat="48.64449" lon="7.19297">
        <ele>398</ele>
        <time>2022-04-06T02:16:31Z</time>
      </trkpt>
      <trkpt lat="48.64457" lon="7.19293">
        <ele>398</ele>
        <time>2022-04-06T02:16:33Z</time>
      </trkpt>
      <trkpt lat="48.64463" lon="7.19286">
        <ele>398</ele>
        <time>2022-04-06T02:16:34Z</time>
      </trkpt>
      <trkpt lat="48.64506" lon="7.19213">
        <ele>402</ele>
        <time>2022-04-06T02:16:45Z</time>
      </trkpt>
      <trkpt lat="48.64528" lon="7.19183">
        <ele>403</ele>
        <time>2022-04-06T02:16:51Z</time>
      </trkpt>
      <trkpt lat="48.64553" lon="7.19156">
        <ele>405</ele>
        <time>2022-04-06T02:16:56Z</time>
      </trkpt>
      <trkpt lat="48.6457" lon="7.19151">
        <ele>404</ele>
        <time>2022-04-06T02:16:59Z</time>
      </trkpt>
      <trkpt lat="48.64577" lon="7.19157">
        <ele>402</ele>
        <time>2022-04-06T02:17:01Z</time>
      </trkpt>
      <trkpt lat="48.64584" lon="7.19167">
        <ele>399</ele>
        <time>2022-04-06T02:17:02Z</time>
      </trkpt>
      <trkpt lat="48.64595" lon="7.19189">
        <ele>399</ele>
        <time>2022-04-06T02:17:06Z</time>
      </trkpt>
      <trkpt lat="48.64604" lon="7.19214">
        <ele>399</ele>
        <time>2022-04-06T02:17:09Z</time>
      </trkpt>
      <trkpt lat="48.64612" lon="7.1925">
        <ele>396</ele>
        <time>2022-04-06T02:17:13Z</time>
      </trkpt>
      <trkpt lat="48.64614" lon="7.1928">
        <ele>392</ele>
        <time>2022-04-06T02:17:17Z</time>
      </trkpt>
      <trkpt lat="48.64614" lon="7.19308">
        <ele>388</ele>
        <time>2022-04-06T02:17:20Z</time>
      </trkpt>
      <trkpt lat="48.64614" lon="7.19347">
        <ele>382</ele>
        <time>2022-04-06T02:17:25Z</time>
      </trkpt>
      <trkpt lat="48.64611" lon="7.19414">
        <ele>371</ele>
        <time>2022-04-06T02:17:33Z</time>
      </trkpt>
      <trkpt lat="48.64609" lon="7.19461">
        <ele>364</ele>
        <time>2022-04-06T02:17:38Z</time>
      </trkpt>
      <trkpt lat="48.64601" lon="7.19524">
        <ele>354</ele>
        <time>2022-04-06T02:17:46Z</time>
      </trkpt>
      <trkpt lat="48.64601" lon="7.19546">
        <ele>351</ele>
        <time>2022-04-06T02:17:48Z</time>
      </trkpt>
      <trkpt lat="48.64603" lon="7.19562">
        <ele>349</ele>
        <time>2022-04-06T02:17:50Z</time>
      </trkpt>
      <trkpt lat="48.64613" lon="7.19594">
        <ele>344</ele>
        <time>2022-04-06T02:17:54Z</time>
      </trkpt>
      <trkpt lat="48.64616" lon="7.19602">
        <ele>343</ele>
        <time>2022-04-06T02:17:56Z</time>
      </trkpt>
      <trkpt lat="48.64624" lon="7.19609">
        <ele>342</ele>
        <time>2022-04-06T02:17:57Z</time>
      </trkpt>
      <trkpt lat="48.6463" lon="7.19611">
        <ele>343</ele>
        <time>2022-04-06T02:17:58Z</time>
      </trkpt>
      <trkpt lat="48.64639" lon="7.1961">
        <ele>344</ele>
        <time>2022-04-06T02:18:00Z</time>
      </trkpt>
      <trkpt lat="48.64648" lon="7.19605">
        <ele>346</ele>
        <time>2022-04-06T02:18:02Z</time>
      </trkpt>
      <trkpt lat="48.64663" lon="7.19581">
        <ele>354</ele>
        <time>2022-04-06T02:18:05Z</time>
      </trkpt>
      <trkpt lat="48.64671" lon="7.19572">
        <ele>357</ele>
        <time>2022-04-06T02:18:07Z</time>
      </trkpt>
      <trkpt lat="48.64678" lon="7.19568">
        <ele>359</ele>
        <time>2022-04-06T02:18:09Z</time>
      </trkpt>
      <trkpt lat="48.647" lon="7.19567">
        <ele>362</ele>
        <time>2022-04-06T02:18:12Z</time>
      </trkpt>
      <trkpt lat="48.64714" lon="7.19559">
        <ele>366</ele>
        <time>2022-04-06T02:18:15Z</time>
      </trkpt>
      <trkpt lat="48.64722" lon="7.19557">
        <ele>367</ele>
        <time>2022-04-06T02:18:17Z</time>
      </trkpt>
      <trkpt lat="48.64728" lon="7.19563">
        <ele>367</ele>
        <time>2022-04-06T02:18:18Z</time>
      </trkpt>
      <trkpt lat="48.64733" lon="7.19577">
        <ele>365</ele>
        <time>2022-04-06T02:18:20Z</time>
      </trkpt>
      <trkpt lat="48.64735" lon="7.1959">
        <ele>363</ele>
        <time>2022-04-06T02:18:21Z</time>
      </trkpt>
      <trkpt lat="48.64731" lon="7.19637">
        <ele>356</ele>
        <time>2022-04-06T02:18:27Z</time>
      </trkpt>
      <trkpt lat="48.647" lon="7.19805">
        <ele>329</ele>
        <time>2022-04-06T02:18:47Z</time>
      </trkpt>
      <trkpt lat="48.64702" lon="7.19837">
        <ele>328</ele>
        <time>2022-04-06T02:18:51Z</time>
      </trkpt>
      <trkpt lat="48.6472" lon="7.19897">
        <ele>327</ele>
        <time>2022-04-06T02:18:59Z</time>
      </trkpt>
      <trkpt lat="48.64736" lon="7.1994">
        <ele>325</ele>
        <time>2022-04-06T02:19:05Z</time>
      </trkpt>
      <trkpt lat="48.64763" lon="7.19986">
        <ele>320</ele>
        <time>2022-04-06T02:19:12Z</time>
      </trkpt>
      <trkpt lat="48.64799" lon="7.20045">
        <ele>315</ele>
        <time>2022-04-06T02:19:21Z</time>
      </trkpt>
      <trkpt lat="48.64817" lon="7.20066">
        <ele>312</ele>
        <time>2022-04-06T02:19:25Z</time>
      </trkpt>
      <trkpt lat="48.64827" lon="7.20073">
        <ele>310</ele>
        <time>2022-04-06T02:19:27Z</time>
      </trkpt>
      <trkpt lat="48.64837" lon="7.20065">
        <ele>312</ele>
        <time>2022-04-06T02:19:29Z</time>
      </trkpt>
      <trkpt lat="48.64841" lon="7.20059">
        <ele>313</ele>
        <time>2022-04-06T02:19:30Z</time>
      </trkpt>
      <trkpt lat="48.64862" lon="7.20022">
        <ele>316</ele>
        <time>2022-04-06T02:19:36Z</time>
      </trkpt>
      <trkpt lat="48.6489" lon="7.19961">
        <ele>320</ele>
        <time>2022-04-06T02:19:45Z</time>
      </trkpt>
      <trkpt lat="48.64912" lon="7.19933">
        <ele>321</ele>
        <time>2022-04-06T02:19:50Z</time>
      </trkpt>
      <trkpt lat="48.64931" lon="7.1992">
        <ele>325</ele>
        <time>2022-04-06T02:19:54Z</time>
      </trkpt>
      <trkpt lat="48.64951" lon="7.19912">
        <ele>330</ele>
        <time>2022-04-06T02:19:57Z</time>
      </trkpt>
      <trkpt lat="48.6497" lon="7.19915">
        <ele>332</ele>
        <time>2022-04-06T02:20:01Z</time>
      </trkpt>
      <trkpt lat="48.64991" lon="7.19931">
        <ele>331</ele>
        <time>2022-04-06T02:20:05Z</time>
      </trkpt>
      <trkpt lat="48.6504" lon="7.19994">
        <ele>322</ele>
        <time>2022-04-06T02:20:16Z</time>
      </trkpt>
      <trkpt lat="48.65082" lon="7.2006">
        <ele>316</ele>
        <time>2022-04-06T02:20:27Z</time>
      </trkpt>
      <trkpt lat="48.65104" lon="7.20084">
        <ele>316</ele>
        <time>2022-04-06T02:20:32Z</time>
      </trkpt>
      <trkpt lat="48.65136" lon="7.20104">
        <ele>321</ele>
        <time>2022-04-06T02:20:38Z</time>
      </trkpt>
      <trkpt lat="48.65189" lon="7.20103">
        <ele>325</ele>
        <time>2022-04-06T02:20:48Z</time>
      </trkpt>
      <trkpt lat="48.65244" lon="7.20118">
        <ele>320</ele>
        <time>2022-04-06T02:20:58Z</time>
      </trkpt>
      <trkpt lat="48.65297" lon="7.20152">
        <ele>314</ele>
        <time>2022-04-06T02:21:08Z</time>
      </trkpt>
      <trkpt lat="48.65383" lon="7.20235">
        <ele>306</ele>
        <time>2022-04-06T02:21:26Z</time>
      </trkpt>
      <trkpt lat="48.65464" lon="7.20268">
        <ele>304</ele>
        <time>2022-04-06T02:21:41Z</time>
      </trkpt>
      <trkpt lat="48.65483" lon="7.20267">
        <ele>304</ele>
        <time>2022-04-06T02:21:44Z</time>
      </trkpt>
      <trkpt lat="48.65503" lon="7.20265">
        <ele>303</ele>
        <time>2022-04-06T02:21:48Z</time>
      </trkpt>
      <trkpt lat="48.65532" lon="7.20258">
        <ele>300</ele>
        <time>2022-04-06T02:21:53Z</time>
      </trkpt>
      <trkpt lat="48.65541" lon="7.20252">
        <ele>299</ele>
        <time>2022-04-06T02:21:55Z</time>
      </trkpt>
      <trkpt lat="48.65544" lon="7.2025">
        <ele>298</ele>
        <time>2022-04-06T02:21:55Z</time>
      </trkpt>
      <trkpt lat="48.65557" lon="7.20239">
        <ele>298</ele>
        <time>2022-04-06T02:21:58Z</time>
      </trkpt>
      <trkpt lat="48.65569" lon="7.20228">
        <ele>298</ele>
        <time>2022-04-06T02:22:00Z</time>
      </trkpt>
      <trkpt lat="48.65577" lon="7.20221">
        <ele>298</ele>
        <time>2022-04-06T02:22:02Z</time>
      </trkpt>
      <trkpt lat="48.65603" lon="7.20184">
        <ele>303</ele>
        <time>2022-04-06T02:22:08Z</time>
      </trkpt>
      <trkpt lat="48.6562" lon="7.20146">
        <ele>303</ele>
        <time>2022-04-06T02:22:14Z</time>
      </trkpt>
      <trkpt lat="48.65623" lon="7.20117">
        <ele>303</ele>
        <time>2022-04-06T02:22:17Z</time>
      </trkpt>
      <trkpt lat="48.65621" lon="7.20085">
        <ele>304</ele>
        <time>2022-04-06T02:22:21Z</time>
      </trkpt>
      <trkpt lat="48.65611" lon="7.20064">
        <ele>304</ele>
        <time>2022-04-06T02:22:24Z</time>
      </trkpt>
      <trkpt lat="48.65589" lon="7.20048">
        <ele>307</ele>
        <time>2022-04-06T02:22:28Z</time>
      </trkpt>
      <trkpt lat="48.65567" lon="7.20018">
        <ele>311</ele>
        <time>2022-04-06T02:22:34Z</time>
      </trkpt>
      <trkpt lat="48.65554" lon="7.19991">
        <ele>316</ele>
        <time>2022-04-06T02:22:38Z</time>
      </trkpt>
      <trkpt lat="48.65547" lon="7.19962">
        <ele>321</ele>
        <time>2022-04-06T02:22:41Z</time>
      </trkpt>
      <trkpt lat="48.65555" lon="7.19934">
        <ele>319</ele>
        <time>2022-04-06T02:22:45Z</time>
      </trkpt>
      <trkpt lat="48.65577" lon="7.19896">
        <ele>319</ele>
        <time>2022-04-06T02:22:51Z</time>
      </trkpt>
      <trkpt lat="48.656" lon="7.19877">
        <ele>322</ele>
        <time>2022-04-06T02:22:55Z</time>
      </trkpt>
      <trkpt lat="48.65623" lon="7.19875">
        <ele>320</ele>
        <time>2022-04-06T02:23:00Z</time>
      </trkpt>
      <trkpt lat="48.65652" lon="7.19899">
        <ele>308</ele>
        <time>2022-04-06T02:23:05Z</time>
      </trkpt>
      <trkpt lat="48.65681" lon="7.19934">
        <ele>296</ele>
        <time>2022-04-06T02:23:12Z</time>
      </trkpt>
      <trkpt lat="48.65704" lon="7.1997">
        <ele>291</ele>
        <time>2022-04-06T02:23:18Z</time>
      </trkpt>
      <trkpt lat="48.65724" lon="7.19991">
        <ele>288</ele>
        <time>2022-04-06T02:23:22Z</time>
      </trkpt>
      <trkpt lat="48.65737" lon="7.19982">
        <ele>288</ele>
        <time>2022-04-06T02:23:25Z</time>
      </trkpt>
      <trkpt lat="48.65745" lon="7.19968">
        <ele>289</ele>
        <time>2022-04-06T02:23:27Z</time>
      </trkpt>
      <trkpt lat="48.65749" lon="7.19941">
        <ele>290</ele>
        <time>2022-04-06T02:23:30Z</time>
      </trkpt>
      <trkpt lat="48.6576" lon="7.19841">
        <ele>296</ele>
        <time>2022-04-06T02:23:42Z</time>
      </trkpt>
      <trkpt lat="48.65776" lon="7.19769">
        <ele>298</ele>
        <time>2022-04-06T02:23:51Z</time>
      </trkpt>
      <trkpt lat="48.65798" lon="7.19739">
        <ele>297</ele>
        <time>2022-04-06T02:23:56Z</time>
      </trkpt>
      <trkpt lat="48.65822" lon="7.19719">
        <ele>295</ele>
        <time>2022-04-06T02:24:01Z</time>
      </trkpt>
      <trkpt lat="48.65847" lon="7.19703">
        <ele>294</ele>
        <time>2022-04-06T02:24:06Z</time>
      </trkpt>
      <trkpt lat="48.65915" lon="7.19698">
        <ele>290</ele>
        <time>2022-04-06T02:24:18Z</time>
      </trkpt>
      <trkpt lat="48.65947" lon="7.19698">
        <ele>298</ele>
        <time>2022-04-06T02:24:24Z</time>
      </trkpt>
      <trkpt lat="48.6596" lon="7.19717">
        <ele>300</ele>
        <time>2022-04-06T02:24:27Z</time>
      </trkpt>
      <trkpt lat="48.66024" lon="7.19884">
        <ele>295</ele>
        <time>2022-04-06T02:24:50Z</time>
      </trkpt>
      <trkpt lat="48.66037" lon="7.19899">
        <ele>295</ele>
        <time>2022-04-06T02:24:53Z</time>
      </trkpt>
      <trkpt lat="48.66049" lon="7.19909">
        <ele>293</ele>
        <time>2022-04-06T02:24:55Z</time>
      </trkpt>
      <trkpt lat="48.66117" lon="7.19923">
        <ele>289</ele>
        <time>2022-04-06T02:25:07Z</time>
      </trkpt>
      <trkpt lat="48.66123" lon="7.19924">
        <ele>288</ele>
        <time>2022-04-06T02:25:08Z</time>
      </trkpt>
      <trkpt lat="48.66164" lon="7.19914">
        <ele>286</ele>
        <time>2022-04-06T02:25:16Z</time>
      </trkpt>
      <trkpt lat="48.66186" lon="7.19898">
        <ele>289</ele>
        <time>2022-04-06T02:25:20Z</time>
      </trkpt>
      <trkpt lat="48.66206" lon="7.19868">
        <ele>292</ele>
        <time>2022-04-06T02:25:25Z</time>
      </trkpt>
      <trkpt lat="48.66219" lon="7.19835">
        <ele>293</ele>
        <time>2022-04-06T02:25:30Z</time>
      </trkpt>
      <trkpt lat="48.66221" lon="7.19784">
        <ele>296</ele>
        <time>2022-04-06T02:25:36Z</time>
      </trkpt>
      <trkpt lat="48.66219" lon="7.19695">
        <ele>303</ele>
        <time>2022-04-06T02:25:46Z</time>
      </trkpt>
      <trkpt lat="48.6622" lon="7.19629">
        <ele>308</ele>
        <time>2022-04-06T02:25:54Z</time>
      </trkpt>
      <trkpt lat="48.66226" lon="7.19588">
        <ele>309</ele>
        <time>2022-04-06T02:25:59Z</time>
      </trkpt>
      <trkpt lat="48.6624" lon="7.19549">
        <ele>312</ele>
        <time>2022-04-06T02:26:04Z</time>
      </trkpt>
      <trkpt lat="48.66266" lon="7.19514">
        <ele>311</ele>
        <time>2022-04-06T02:26:10Z</time>
      </trkpt>
      <trkpt lat="48.66328" lon="7.19451">
        <ele>301</ele>
        <time>2022-04-06T02:26:24Z</time>
      </trkpt>
      <trkpt lat="48.66467" lon="7.19442">
        <ele>290</ele>
        <time>2022-04-06T02:26:48Z</time>
      </trkpt>
      <trkpt lat="48.6656" lon="7.19452">
        <ele>282</ele>
        <time>2022-04-06T02:27:05Z</time>
      </trkpt>
      <trkpt lat="48.666" lon="7.19454">
        <ele>284</ele>
        <time>2022-04-06T02:27:12Z</time>
      </trkpt>
      <trkpt lat="48.66659" lon="7.19501">
        <ele>282</ele>
        <time>2022-04-06T02:27:24Z</time>
      </trkpt>
      <trkpt lat="48.66726" lon="7.19563">
        <ele>279</ele>
        <time>2022-04-06T02:27:38Z</time>
      </trkpt>
      <trkpt lat="48.66775" lon="7.19619">
        <ele>277</ele>
        <time>2022-04-06T02:27:49Z</time>
      </trkpt>
      <trkpt lat="48.66798" lon="7.19628">
        <ele>276</ele>
        <time>2022-04-06T02:27:53Z</time>
      </trkpt>
      <trkpt lat="48.66824" lon="7.19628">
        <ele>276</ele>
        <time>2022-04-06T02:27:58Z</time>
      </trkpt>
      <trkpt lat="48.6692" lon="7.19575">
        <ele>273</ele>
        <time>2022-04-06T02:28:16Z</time>
      </trkpt>
      <trkpt lat="48.66976" lon="7.19529">
        <ele>274</ele>
        <time>2022-04-06T02:28:27Z</time>
      </trkpt>
      <trkpt lat="48.67009" lon="7.19484">
        <ele>277</ele>
        <time>2022-04-06T02:28:35Z</time>
      </trkpt>
      <trkpt lat="48.6704" lon="7.19493">
        <ele>275</ele>
        <time>2022-04-06T02:28:41Z</time>
      </trkpt>
      <trkpt lat="48.67129" lon="7.19457">
        <ele>284</ele>
        <time>2022-04-06T02:28:57Z</time>
      </trkpt>
      <trkpt lat="48.6721" lon="7.19477">
        <ele>276</ele>
        <time>2022-04-06T02:29:12Z</time>
      </trkpt>
      <trkpt lat="48.67302" lon="7.19486">
        <ele>271</ele>
        <time>2022-04-06T02:29:28Z</time>
      </trkpt>
      <trkpt lat="48.67316" lon="7.19485">
        <ele>271</ele>
        <time>2022-04-06T02:29:31Z</time>
      </trkpt>
      <trkpt lat="48.67351" lon="7.19482">
        <ele>269</ele>
        <time>2022-04-06T02:29:37Z</time>
      </trkpt>
      <trkpt lat="48.67398" lon="7.19478">
        <ele>265</ele>
        <time>2022-04-06T02:29:45Z</time>
      </trkpt>
      <trkpt lat="48.67411" lon="7.1948">
        <ele>263</ele>
        <time>2022-04-06T02:29:47Z</time>
      </trkpt>
      <trkpt lat="48.67421" lon="7.19481">
        <ele>263</ele>
        <time>2022-04-06T02:29:49Z</time>
      </trkpt>
      <trkpt lat="48.67428" lon="7.19485">
        <ele>264</ele>
        <time>2022-04-06T02:29:51Z</time>
      </trkpt>
      <trkpt lat="48.67431" lon="7.19489">
        <ele>264</ele>
        <time>2022-04-06T02:29:51Z</time>
      </trkpt>
      <trkpt lat="48.67433" lon="7.19492">
        <ele>264</ele>
        <time>2022-04-06T02:29:52Z</time>
      </trkpt>
      <trkpt lat="48.67468" lon="7.19539">
        <ele>263</ele>
        <time>2022-04-06T02:30:00Z</time>
      </trkpt>
      <trkpt lat="48.67519" lon="7.19582">
        <ele>264</ele>
        <time>2022-04-06T02:30:10Z</time>
      </trkpt>
      <trkpt lat="48.67598" lon="7.19654">
        <ele>259</ele>
        <time>2022-04-06T02:30:27Z</time>
      </trkpt>
      <trkpt lat="48.67635" lon="7.19669">
        <ele>258</ele>
        <time>2022-04-06T02:30:34Z</time>
      </trkpt>
      <trkpt lat="48.67702" lon="7.19662">
        <ele>261</ele>
        <time>2022-04-06T02:30:46Z</time>
      </trkpt>
      <trkpt lat="48.67769" lon="7.19646">
        <ele>260</ele>
        <time>2022-04-06T02:30:58Z</time>
      </trkpt>
      <trkpt lat="48.67825" lon="7.19606">
        <ele>262</ele>
        <time>2022-04-06T02:31:09Z</time>
      </trkpt>
      <trkpt lat="48.67871" lon="7.19588">
        <ele>263</ele>
        <time>2022-04-06T02:31:17Z</time>
      </trkpt>
      <trkpt lat="48.6788" lon="7.19584">
        <ele>263</ele>
        <time>2022-04-06T02:31:19Z</time>
      </trkpt>
      <trkpt lat="48.67915" lon="7.19575">
        <ele>265</ele>
        <time>2022-04-06T02:31:25Z</time>
      </trkpt>
      <trkpt lat="48.6797" lon="7.19586">
        <ele>264</ele>
        <time>2022-04-06T02:31:35Z</time>
      </trkpt>
      <trkpt lat="48.68115" lon="7.19625">
        <ele>258</ele>
        <time>2022-04-06T02:32:01Z</time>
      </trkpt>
      <trkpt lat="48.68142" lon="7.19643">
        <ele>252</ele>
        <time>2022-04-06T02:32:07Z</time>
      </trkpt>
      <trkpt lat="48.68158" lon="7.19656">
        <ele>249</ele>
        <time>2022-04-06T02:32:10Z</time>
      </trkpt>
      <trkpt lat="48.6817" lon="7.19666">
        <ele>246</ele>
        <time>2022-04-06T02:32:12Z</time>
      </trkpt>
      <trkpt lat="48.68177" lon="7.1969">
        <ele>249</ele>
        <time>2022-04-06T02:32:15Z</time>
      </trkpt>
      <trkpt lat="48.68182" lon="7.19706">
        <ele>252</ele>
        <time>2022-04-06T02:32:17Z</time>
      </trkpt>
      <trkpt lat="48.68186" lon="7.19718">
        <ele>255</ele>
        <time>2022-04-06T02:32:19Z</time>
      </trkpt>
      <trkpt lat="48.6819" lon="7.19717">
        <ele>255</ele>
        <time>2022-04-06T02:32:20Z</time>
      </trkpt>
      <trkpt lat="48.68263" lon="7.19685">
        <ele>257</ele>
        <time>2022-04-06T02:32:33Z</time>
      </trkpt>
      <trkpt lat="48.6836" lon="7.19634">
        <ele>254</ele>
        <time>2022-04-06T02:32:51Z</time>
      </trkpt>
      <trkpt lat="48.68391" lon="7.19629">
        <ele>254</ele>
        <time>2022-04-06T02:32:57Z</time>
      </trkpt>
      <trkpt lat="48.68428" lon="7.19632">
        <ele>257</ele>
        <time>2022-04-06T02:33:04Z</time>
      </trkpt>
      <trkpt lat="48.68518" lon="7.19653">
        <ele>262</ele>
        <time>2022-04-06T02:33:20Z</time>
      </trkpt>
      <trkpt lat="48.68589" lon="7.19678">
        <ele>262</ele>
        <time>2022-04-06T02:33:33Z</time>
      </trkpt>
      <trkpt lat="48.68628" lon="7.19695">
        <ele>259</ele>
        <time>2022-04-06T02:33:40Z</time>
      </trkpt>
      <trkpt lat="48.68643" lon="7.19701">
        <ele>257</ele>
        <time>2022-04-06T02:33:43Z</time>
      </trkpt>
      <trkpt lat="48.68718" lon="7.1975">
        <ele>254</ele>
        <time>2022-04-06T02:33:57Z</time>
      </trkpt>
      <trkpt lat="48.68725" lon="7.19755">
        <ele>254</ele>
        <time>2022-04-06T02:33:59Z</time>
      </trkpt>
      <trkpt lat="48.6879" lon="7.19808">
        <ele>254</ele>
        <time>2022-04-06T02:34:12Z</time>
      </trkpt>
      <trkpt lat="48.68795" lon="7.19813">
        <ele>254</ele>
        <time>2022-04-06T02:34:13Z</time>
      </trkpt>
      <trkpt lat="48.68879" lon="7.199">
        <ele>253</ele>
        <time>2022-04-06T02:34:31Z</time>
      </trkpt>
      <trkpt lat="48.68932" lon="7.19959">
        <ele>255</ele>
        <time>2022-04-06T02:34:43Z</time>
      </trkpt>
      <trkpt lat="48.68983" lon="7.19996">
        <ele>254</ele>
        <time>2022-04-06T02:34:53Z</time>
      </trkpt>
      <trkpt lat="48.69027" lon="7.20037">
        <ele>255</ele>
        <time>2022-04-06T02:35:02Z</time>
      </trkpt>
      <trkpt lat="48.69172" lon="7.20194">
        <ele>261</ele>
        <time>2022-04-06T02:35:34Z</time>
      </trkpt>
      <trkpt lat="48.69241" lon="7.2025">
        <ele>259</ele>
        <time>2022-04-06T02:35:48Z</time>
      </trkpt>
      <trkpt lat="48.6936" lon="7.2032">
        <ele>255</ele>
        <time>2022-04-06T02:36:10Z</time>
      </trkpt>
      <trkpt lat="48.69393" lon="7.20352">
        <ele>254</ele>
        <time>2022-04-06T02:36:17Z</time>
      </trkpt>
      <trkpt lat="48.69409" lon="7.20375">
        <ele>255</ele>
        <time>2022-04-06T02:36:21Z</time>
      </trkpt>
      <trkpt lat="48.69429" lon="7.20401">
        <ele>257</ele>
        <time>2022-04-06T02:36:26Z</time>
      </trkpt>
      <trkpt lat="48.69499" lon="7.20498">
        <ele>248</ele>
        <time>2022-04-06T02:36:43Z</time>
      </trkpt>
      <trkpt lat="48.69547" lon="7.20544">
        <ele>249</ele>
        <time>2022-04-06T02:36:53Z</time>
      </trkpt>
      <trkpt lat="48.69652" lon="7.20635">
        <ele>249</ele>
        <time>2022-04-06T02:37:14Z</time>
      </trkpt>
      <trkpt lat="48.69753" lon="7.20737">
        <ele>251</ele>
        <time>2022-04-06T02:37:36Z</time>
      </trkpt>
      <trkpt lat="48.69789" lon="7.2077">
        <ele>250</ele>
        <time>2022-04-06T02:37:43Z</time>
      </trkpt>
      <trkpt lat="48.69818" lon="7.20805">
        <ele>248</ele>
        <time>2022-04-06T02:37:50Z</time>
      </trkpt>
      <trkpt lat="48.69875" lon="7.20882">
        <ele>250</ele>
        <time>2022-04-06T02:38:04Z</time>
      </trkpt>
      <trkpt lat="48.6993" lon="7.2097">
        <ele>254</ele>
        <time>2022-04-06T02:38:18Z</time>
      </trkpt>
      <trkpt lat="48.69974" lon="7.21029">
        <ele>252</ele>
        <time>2022-04-06T02:38:28Z</time>
      </trkpt>
      <trkpt lat="48.70038" lon="7.21108">
        <ele>251</ele>
        <time>2022-04-06T02:38:43Z</time>
      </trkpt>
      <trkpt lat="48.70135" lon="7.21184">
        <ele>240</ele>
        <time>2022-04-06T02:39:02Z</time>
      </trkpt>
      <trkpt lat="48.70295" lon="7.21407">
        <ele>245</ele>
        <time>2022-04-06T02:39:41Z</time>
      </trkpt>
      <trkpt lat="48.70336" lon="7.21447">
        <ele>234</ele>
        <time>2022-04-06T02:39:50Z</time>
      </trkpt>
      <trkpt lat="48.70383" lon="7.2147">
        <ele>233</ele>
        <time>2022-04-06T02:39:59Z</time>
      </trkpt>
      <trkpt lat="48.70435" lon="7.21489">
        <ele>233</ele>
        <time>2022-04-06T02:40:08Z</time>
      </trkpt>
      <trkpt lat="48.70443" lon="7.2149">
        <ele>234</ele>
        <time>2022-04-06T02:40:10Z</time>
      </trkpt>
      <trkpt lat="48.70467" lon="7.2149">
        <ele>234</ele>
        <time>2022-04-06T02:40:14Z</time>
      </trkpt>
      <trkpt lat="48.70504" lon="7.21487">
        <ele>236</ele>
        <time>2022-04-06T02:40:20Z</time>
      </trkpt>
      <trkpt lat="48.70538" lon="7.21489">
        <ele>236</ele>
        <time>2022-04-06T02:40:26Z</time>
      </trkpt>
      <trkpt lat="48.70618" lon="7.21502">
        <ele>236</ele>
        <time>2022-04-06T02:40:41Z</time>
      </trkpt>
      <trkpt lat="48.70627" lon="7.21503">
        <ele>237</ele>
        <time>2022-04-06T02:40:42Z</time>
      </trkpt>
      <trkpt lat="48.70684" lon="7.21517">
        <ele>239</ele>
        <time>2022-04-06T02:40:53Z</time>
      </trkpt>
      <trkpt lat="48.70725" lon="7.21535">
        <ele>240</ele>
        <time>2022-04-06T02:41:00Z</time>
      </trkpt>
      <trkpt lat="48.70757" lon="7.21545">
        <ele>239</ele>
        <time>2022-04-06T02:41:06Z</time>
      </trkpt>
      <trkpt lat="48.7079" lon="7.21556">
        <ele>237</ele>
        <time>2022-04-06T02:41:12Z</time>
      </trkpt>
      <trkpt lat="48.70797" lon="7.2156">
        <ele>237</ele>
        <time>2022-04-06T02:41:13Z</time>
      </trkpt>
      <trkpt lat="48.70838" lon="7.21582">
        <ele>236</ele>
        <time>2022-04-06T02:41:21Z</time>
      </trkpt>
      <trkpt lat="48.70867" lon="7.216">
        <ele>238</ele>
        <time>2022-04-06T02:41:27Z</time>
      </trkpt>
      <trkpt lat="48.7089" lon="7.21616">
        <ele>241</ele>
        <time>2022-04-06T02:41:31Z</time>
      </trkpt>
      <trkpt lat="48.7091" lon="7.21628">
        <ele>242</ele>
        <time>2022-04-06T02:41:35Z</time>
      </trkpt>
      <trkpt lat="48.70952" lon="7.21658">
        <ele>246</ele>
        <time>2022-04-06T02:41:43Z</time>
      </trkpt>
      <trkpt lat="48.71095" lon="7.21717">
        <ele>246</ele>
        <time>2022-04-06T02:42:10Z</time>
      </trkpt>
      <trkpt lat="48.71109" lon="7.21721">
        <ele>246</ele>
        <time>2022-04-06T02:42:12Z</time>
      </trkpt>
      <trkpt lat="48.71204" lon="7.21754">
        <ele>241</ele>
        <time>2022-04-06T02:42:30Z</time>
      </trkpt>
      <trkpt lat="48.71244" lon="7.21774">
        <ele>239</ele>
        <time>2022-04-06T02:42:37Z</time>
      </trkpt>
      <trkpt lat="48.71347" lon="7.21849">
        <ele>232</ele>
        <time>2022-04-06T02:42:57Z</time>
      </trkpt>
      <trkpt lat="48.71365" lon="7.21875">
        <ele>231</ele>
        <time>2022-04-06T02:43:02Z</time>
      </trkpt>
      <trkpt lat="48.71421" lon="7.22003">
        <ele>233</ele>
        <time>2022-04-06T02:43:20Z</time>
      </trkpt>
      <trkpt lat="48.71434" lon="7.22026">
        <ele>233</ele>
        <time>2022-04-06T02:43:23Z</time>
      </trkpt>
      <trkpt lat="48.7145" lon="7.22051">
        <ele>234</ele>
        <time>2022-04-06T02:43:27Z</time>
      </trkpt>
      <trkpt lat="48.71473" lon="7.22076">
        <ele>233</ele>
        <time>2022-04-06T02:43:32Z</time>
      </trkpt>
      <trkpt lat="48.71504" lon="7.22096">
        <ele>232</ele>
        <time>2022-04-06T02:43:38Z</time>
      </trkpt>
      <trkpt lat="48.71564" lon="7.22114">
        <ele>231</ele>
        <time>2022-04-06T02:43:49Z</time>
      </trkpt>
      <trkpt lat="48.71584" lon="7.22127">
        <ele>231</ele>
        <time>2022-04-06T02:43:53Z</time>
      </trkpt>
      <trkpt lat="48.7171" lon="7.22254">
        <ele>236</ele>
        <time>2022-04-06T02:44:20Z</time>
      </trkpt>
      <trkpt lat="48.7178" lon="7.2233">
        <ele>238</ele>
        <time>2022-04-06T02:44:35Z</time>
      </trkpt>
      <trkpt lat="48.71798" lon="7.22357">
        <ele>239</ele>
        <time>2022-04-06T02:44:40Z</time>
      </trkpt>
      <trkpt lat="48.71812" lon="7.22385">
        <ele>240</ele>
        <time>2022-04-06T02:44:44Z</time>
      </trkpt>
      <trkpt lat="48.71847" lon="7.22471">
        <ele>236</ele>
        <time>2022-04-06T02:44:56Z</time>
      </trkpt>
      <trkpt lat="48.71877" lon="7.22437">
        <ele>230</ele>
        <time>2022-04-06T02:45:03Z</time>
      </trkpt>
      <trkpt lat="48.71896" lon="7.22411">
        <ele>226</ele>
        <time>2022-04-06T02:45:07Z</time>
      </trkpt>
      <trkpt lat="48.71902" lon="7.22399">
        <ele>225</ele>
        <time>2022-04-06T02:45:09Z</time>
      </trkpt>
      <trkpt lat="48.71909" lon="7.2239">
        <ele>224</ele>
        <time>2022-04-06T02:45:11Z</time>
      </trkpt>
      <trkpt lat="48.71919" lon="7.22372">
        <ele>224</ele>
        <time>2022-04-06T02:45:13Z</time>
      </trkpt>
      <trkpt lat="48.71924" lon="7.2236">
        <ele>225</ele>
        <time>2022-04-06T02:45:15Z</time>
      </trkpt>
      <trkpt lat="48.71929" lon="7.22342">
        <ele>225</ele>
        <time>2022-04-06T02:45:17Z</time>
      </trkpt>
      <trkpt lat="48.71932" lon="7.22317">
        <ele>226</ele>
        <time>2022-04-06T02:45:20Z</time>
      </trkpt>
      <trkpt lat="48.71935" lon="7.22269">
        <ele>228</ele>
        <time>2022-04-06T02:45:26Z</time>
      </trkpt>
      <trkpt lat="48.71937" lon="7.22257">
        <ele>228</ele>
        <time>2022-04-06T02:45:27Z</time>
      </trkpt>
      <trkpt lat="48.7194" lon="7.22246">
        <ele>229</ele>
        <time>2022-04-06T02:45:29Z</time>
      </trkpt>
      <trkpt lat="48.71942" lon="7.22235">
        <ele>229</ele>
        <time>2022-04-06T02:45:30Z</time>
      </trkpt>
      <trkpt lat="48.71962" lon="7.2216">
        <ele>230</ele>
        <time>2022-04-06T02:45:40Z</time>
      </trkpt>
      <trkpt lat="48.71966" lon="7.22142">
        <ele>230</ele>
        <time>2022-04-06T02:45:42Z</time>
      </trkpt>
      <trkpt lat="48.71968" lon="7.22115">
        <ele>230</ele>
        <time>2022-04-06T02:45:45Z</time>
      </trkpt>
      <trkpt lat="48.71967" lon="7.22091">
        <ele>230</ele>
        <time>2022-04-06T02:45:48Z</time>
      </trkpt>
      <trkpt lat="48.71966" lon="7.22076">
        <ele>230</ele>
        <time>2022-04-06T02:45:50Z</time>
      </trkpt>
      <trkpt lat="48.71971" lon="7.22074">
        <ele>230</ele>
        <time>2022-04-06T02:45:51Z</time>
      </trkpt>
      <trkpt lat="48.71976" lon="7.22068">
        <ele>231</ele>
        <time>2022-04-06T02:45:52Z</time>
      </trkpt>
      <trkpt lat="48.71979" lon="7.22063">
        <ele>231</ele>
        <time>2022-04-06T02:45:53Z</time>
      </trkpt>
      <trkpt lat="48.7198" lon="7.22074">
        <ele>231</ele>
        <time>2022-04-06T02:45:54Z</time>
      </trkpt>
      <trkpt lat="48.71981" lon="7.22075">
        <ele>231</ele>
        <time>2022-04-06T02:45:54Z</time>
      </trkpt>
      <trkpt lat="48.71977" lon="7.22121">
        <ele>231</ele>
        <time>2022-04-06T02:45:59Z</time>
      </trkpt>
      <trkpt lat="48.71977" lon="7.22147">
        <ele>231</ele>
        <time>2022-04-06T02:46:03Z</time>
      </trkpt>
      <trkpt lat="48.71975" lon="7.22172">
        <ele>231</ele>
        <time>2022-04-06T02:46:05Z</time>
      </trkpt>
      <trkpt lat="48.71974" lon="7.22194">
        <ele>231</ele>
        <time>2022-04-06T02:46:08Z</time>
      </trkpt>
      <trkpt lat="48.71976" lon="7.22231">
        <ele>231</ele>
        <time>2022-04-06T02:46:12Z</time>
      </trkpt>
      <trkpt lat="48.71989" lon="7.22293">
        <ele>230</ele>
        <time>2022-04-06T02:46:20Z</time>
      </trkpt>
      <trkpt lat="48.71999" lon="7.22378">
        <ele>229</ele>
        <time>2022-04-06T02:46:30Z</time>
      </trkpt>
      <trkpt lat="48.72009" lon="7.22445">
        <ele>233</ele>
        <time>2022-04-06T02:46:38Z</time>
      </trkpt>
      <trkpt lat="48.72021" lon="7.22504">
        <ele>235</ele>
        <time>2022-04-06T02:46:46Z</time>
      </trkpt>
      <trkpt lat="48.72028" lon="7.22533">
        <ele>234</ele>
        <time>2022-04-06T02:46:49Z</time>
      </trkpt>
      <trkpt lat="48.72035" lon="7.22553">
        <ele>234</ele>
        <time>2022-04-06T02:46:52Z</time>
      </trkpt>
      <trkpt lat="48.72036" lon="7.2258">
        <ele>232</ele>
        <time>2022-04-06T02:46:55Z</time>
      </trkpt>
      <trkpt lat="48.72037" lon="7.22592">
        <ele>231</ele>
        <time>2022-04-06T02:46:56Z</time>
      </trkpt>
      <trkpt lat="48.72045" lon="7.2259">
        <ele>233</ele>
        <time>2022-04-06T02:46:58Z</time>
      </trkpt>
      <trkpt lat="48.72045" lon="7.2259">
        <ele>233</ele>
        <time>2022-04-06T02:46:58Z</time>
      </trkpt>
      <trkpt lat="48.72053" lon="7.22586">
        <ele>236</ele>
        <time>2022-04-06T02:46:59Z</time>
      </trkpt>
      <trkpt lat="48.72058" lon="7.22585">
        <ele>237</ele>
        <time>2022-04-06T02:47:00Z</time>
      </trkpt>
      <trkpt lat="48.72072" lon="7.22642">
        <ele>233</ele>
        <time>2022-04-06T02:47:07Z</time>
      </trkpt>
      <trkpt lat="48.72093" lon="7.22698">
        <ele>231</ele>
        <time>2022-04-06T02:47:15Z</time>
      </trkpt>
      <trkpt lat="48.72115" lon="7.22753">
        <ele>230</ele>
        <time>2022-04-06T02:47:22Z</time>
      </trkpt>
      <trkpt lat="48.72154" lon="7.22839">
        <ele>229</ele>
        <time>2022-04-06T02:47:35Z</time>
      </trkpt>
      <trkpt lat="48.72181" lon="7.2289">
        <ele>228</ele>
        <time>2022-04-06T02:47:42Z</time>
      </trkpt>
      <trkpt lat="48.72227" lon="7.22955">
        <ele>229</ele>
        <time>2022-04-06T02:47:54Z</time>
      </trkpt>
      <trkpt lat="48.72249" lon="7.22991">
        <ele>226</ele>
        <time>2022-04-06T02:47:59Z</time>
      </trkpt>
      <trkpt lat="48.72263" lon="7.2301">
        <ele>227</ele>
        <time>2022-04-06T02:48:03Z</time>
      </trkpt>
      <trkpt lat="48.72275" lon="7.23014">
        <ele>228</ele>
        <time>2022-04-06T02:48:05Z</time>
      </trkpt>
      <trkpt lat="48.72287" lon="7.23007">
        <ele>226</ele>
        <time>2022-04-06T02:48:07Z</time>
      </trkpt>
      <trkpt lat="48.72298" lon="7.22984">
        <ele>228</ele>
        <time>2022-04-06T02:48:11Z</time>
      </trkpt>
      <trkpt lat="48.7231" lon="7.22943">
        <ele>236</ele>
        <time>2022-04-06T02:48:16Z</time>
      </trkpt>
      <trkpt lat="48.72317" lon="7.2294">
        <ele>237</ele>
        <time>2022-04-06T02:48:17Z</time>
      </trkpt>
      <trkpt lat="48.72551" lon="7.23005">
        <ele>229</ele>
        <time>2022-04-06T02:48:59Z</time>
      </trkpt>
      <trkpt lat="48.72622" lon="7.23027">
        <ele>229</ele>
        <time>2022-04-06T02:49:12Z</time>
      </trkpt>
      <trkpt lat="48.72639" lon="7.23036">
        <ele>229</ele>
        <time>2022-04-06T02:49:15Z</time>
      </trkpt>
      <trkpt lat="48.72666" lon="7.23056">
        <ele>227</ele>
        <time>2022-04-06T02:49:21Z</time>
      </trkpt>
      <trkpt lat="48.72692" lon="7.23085">
        <ele>225</ele>
        <time>2022-04-06T02:49:27Z</time>
      </trkpt>
      <trkpt lat="48.72703" lon="7.231">
        <ele>226</ele>
        <time>2022-04-06T02:49:29Z</time>
      </trkpt>
      <trkpt lat="48.72729" lon="7.23148">
        <ele>227</ele>
        <time>2022-04-06T02:49:37Z</time>
      </trkpt>
      <trkpt lat="48.72742" lon="7.2318">
        <ele>227</ele>
        <time>2022-04-06T02:49:41Z</time>
      </trkpt>
      <trkpt lat="48.7275" lon="7.23217">
        <ele>227</ele>
        <time>2022-04-06T02:49:45Z</time>
      </trkpt>
      <trkpt lat="48.72753" lon="7.2324">
        <ele>227</ele>
        <time>2022-04-06T02:49:48Z</time>
      </trkpt>
      <trkpt lat="48.72756" lon="7.23251">
        <ele>229</ele>
        <time>2022-04-06T02:49:50Z</time>
      </trkpt>
      <trkpt lat="48.72759" lon="7.23254">
        <ele>230</ele>
        <time>2022-04-06T02:49:50Z</time>
      </trkpt>
      <trkpt lat="48.72776" lon="7.23256">
        <ele>237</ele>
        <time>2022-04-06T02:49:53Z</time>
      </trkpt>
      <trkpt lat="48.7278" lon="7.2326">
        <ele>239</ele>
        <time>2022-04-06T02:49:54Z</time>
      </trkpt>
      <trkpt lat="48.72781" lon="7.23263">
        <ele>239</ele>
        <time>2022-04-06T02:49:55Z</time>
      </trkpt>
      <trkpt lat="48.72783" lon="7.23268">
        <ele>240</ele>
        <time>2022-04-06T02:49:55Z</time>
      </trkpt>
      <trkpt lat="48.72784" lon="7.23276">
        <ele>240</ele>
        <time>2022-04-06T02:49:56Z</time>
      </trkpt>
      <trkpt lat="48.72783" lon="7.23299">
        <ele>240</ele>
        <time>2022-04-06T02:49:59Z</time>
      </trkpt>
      <trkpt lat="48.7278" lon="7.23339">
        <ele>238</ele>
        <time>2022-04-06T02:50:04Z</time>
      </trkpt>
      <trkpt lat="48.72779" lon="7.23343">
        <ele>238</ele>
        <time>2022-04-06T02:50:04Z</time>
      </trkpt>
      <trkpt lat="48.72777" lon="7.23346">
        <ele>237</ele>
        <time>2022-04-06T02:50:05Z</time>
      </trkpt>
      <trkpt lat="48.72774" lon="7.23348">
        <ele>235</ele>
        <time>2022-04-06T02:50:05Z</time>
      </trkpt>
      <trkpt lat="48.72769" lon="7.23351">
        <ele>233</ele>
        <time>2022-04-06T02:50:06Z</time>
      </trkpt>
      <trkpt lat="48.72768" lon="7.23355">
        <ele>233</ele>
        <time>2022-04-06T02:50:07Z</time>
      </trkpt>
      <trkpt lat="48.72771" lon="7.23421">
        <ele>234</ele>
        <time>2022-04-06T02:50:14Z</time>
      </trkpt>
      <trkpt lat="48.72775" lon="7.23465">
        <ele>236</ele>
        <time>2022-04-06T02:50:20Z</time>
      </trkpt>
      <trkpt lat="48.72776" lon="7.23473">
        <ele>236</ele>
        <time>2022-04-06T02:50:21Z</time>
      </trkpt>
      <trkpt lat="48.72777" lon="7.2349">
        <ele>237</ele>
        <time>2022-04-06T02:50:23Z</time>
      </trkpt>
      <trkpt lat="48.72783" lon="7.23561">
        <ele>241</ele>
        <time>2022-04-06T02:50:31Z</time>
      </trkpt>
      <trkpt lat="48.72799" lon="7.23729">
        <ele>237</ele>
        <time>2022-04-06T02:50:51Z</time>
      </trkpt>
      <trkpt lat="48.72799" lon="7.23835">
        <ele>236</ele>
        <time>2022-04-06T02:51:03Z</time>
      </trkpt>
      <trkpt lat="48.72793" lon="7.23965">
        <ele>237</ele>
        <time>2022-04-06T02:51:19Z</time>
      </trkpt>
      <trkpt lat="48.72794" lon="7.24018">
        <ele>237</ele>
        <time>2022-04-06T02:51:25Z</time>
      </trkpt>
      <trkpt lat="48.72797" lon="7.24073">
        <ele>234</ele>
        <time>2022-04-06T02:51:31Z</time>
      </trkpt>
      <trkpt lat="48.72818" lon="7.24247">
        <ele>225</ele>
        <time>2022-04-06T02:51:52Z</time>
      </trkpt>
      <trkpt lat="48.72822" lon="7.2427">
        <ele>224</ele>
        <time>2022-04-06T02:51:55Z</time>
      </trkpt>
      <trkpt lat="48.72834" lon="7.24317">
        <ele>222</ele>
        <time>2022-04-06T02:52:01Z</time>
      </trkpt>
      <trkpt lat="48.72841" lon="7.24346">
        <ele>224</ele>
        <time>2022-04-06T02:52:04Z</time>
      </trkpt>
      <trkpt lat="48.72854" lon="7.24383">
        <ele>227</ele>
        <time>2022-04-06T02:52:09Z</time>
      </trkpt>
      <trkpt lat="48.72865" lon="7.24424">
        <ele>227</ele>
        <time>2022-04-06T02:52:15Z</time>
      </trkpt>
      <trkpt lat="48.72867" lon="7.24432">
        <ele>227</ele>
        <time>2022-04-06T02:52:16Z</time>
      </trkpt>
      <trkpt lat="48.72871" lon="7.24445">
        <ele>228</ele>
        <time>2022-04-06T02:52:17Z</time>
      </trkpt>
      <trkpt lat="48.72881" lon="7.24463">
        <ele>229</ele>
        <time>2022-04-06T02:52:20Z</time>
      </trkpt>
      <trkpt lat="48.72883" lon="7.24467">
        <ele>229</ele>
        <time>2022-04-06T02:52:21Z</time>
      </trkpt>
      <trkpt lat="48.72897" lon="7.24512">
        <ele>228</ele>
        <time>2022-04-06T02:52:26Z</time>
      </trkpt>
      <trkpt lat="48.72915" lon="7.2456">
        <ele>227</ele>
        <time>2022-04-06T02:52:33Z</time>
      </trkpt>
      <trkpt lat="48.73045" lon="7.24944">
        <ele>227</ele>
        <time>2022-04-06T02:53:24Z</time>
      </trkpt>
      <trkpt lat="48.73053" lon="7.2496">
        <ele>226</ele>
        <time>2022-04-06T02:53:26Z</time>
      </trkpt>
      <trkpt lat="48.7307" lon="7.24985">
        <ele>225</ele>
        <time>2022-04-06T02:53:30Z</time>
      </trkpt>
      <trkpt lat="48.7309" lon="7.25004">
        <ele>224</ele>
        <time>2022-04-06T02:53:34Z</time>
      </trkpt>
      <trkpt lat="48.73109" lon="7.25016">
        <ele>224</ele>
        <time>2022-04-06T02:53:38Z</time>
      </trkpt>
      <trkpt lat="48.73137" lon="7.25026">
        <ele>224</ele>
        <time>2022-04-06T02:53:43Z</time>
      </trkpt>
      <trkpt lat="48.73164" lon="7.25026">
        <ele>226</ele>
        <time>2022-04-06T02:53:48Z</time>
      </trkpt>
      <trkpt lat="48.73187" lon="7.25018">
        <ele>225</ele>
        <time>2022-04-06T02:53:52Z</time>
      </trkpt>
      <trkpt lat="48.73213" lon="7.25">
        <ele>223</ele>
        <time>2022-04-06T02:53:57Z</time>
      </trkpt>
      <trkpt lat="48.73228" lon="7.24984">
        <ele>223</ele>
        <time>2022-04-06T02:54:00Z</time>
      </trkpt>
      <trkpt lat="48.73246" lon="7.2496">
        <ele>221</ele>
        <time>2022-04-06T02:54:05Z</time>
      </trkpt>
      <trkpt lat="48.73265" lon="7.24938">
        <ele>219</ele>
        <time>2022-04-06T02:54:09Z</time>
      </trkpt>
      <trkpt lat="48.73277" lon="7.24928">
        <ele>218</ele>
        <time>2022-04-06T02:54:11Z</time>
      </trkpt>
      <trkpt lat="48.73285" lon="7.24921">
        <ele>218</ele>
        <time>2022-04-06T02:54:13Z</time>
      </trkpt>
      <trkpt lat="48.73303" lon="7.24913">
        <ele>216</ele>
        <time>2022-04-06T02:54:16Z</time>
      </trkpt>
      <trkpt lat="48.73324" lon="7.24906">
        <ele>213</ele>
        <time>2022-04-06T02:54:20Z</time>
      </trkpt>
      <trkpt lat="48.7336" lon="7.24907">
        <ele>216</ele>
        <time>2022-04-06T02:54:27Z</time>
      </trkpt>
      <trkpt lat="48.73382" lon="7.24912">
        <ele>217</ele>
        <time>2022-04-06T02:54:31Z</time>
      </trkpt>
      <trkpt lat="48.73413" lon="7.2493">
        <ele>218</ele>
        <time>2022-04-06T02:54:37Z</time>
      </trkpt>
      <trkpt lat="48.7342" lon="7.24936">
        <ele>219</ele>
        <time>2022-04-06T02:54:38Z</time>
      </trkpt>
      <trkpt lat="48.73422" lon="7.24935">
        <ele>219</ele>
        <time>2022-04-06T02:54:38Z</time>
      </trkpt>
      <trkpt lat="48.73448" lon="7.24956">
        <ele>220</ele>
        <time>2022-04-06T02:54:44Z</time>
      </trkpt>
      <trkpt lat="48.73448" lon="7.24959">
        <ele>219</ele>
        <time>2022-04-06T02:54:44Z</time>
      </trkpt>
      <trkpt lat="48.73519" lon="7.25097">
        <ele>212</ele>
        <time>2022-04-06T02:55:04Z</time>
      </trkpt>
      <trkpt lat="48.73519" lon="7.25096">
        <ele>212</ele>
        <time>2022-04-06T02:55:05Z</time>
      </trkpt>
      <trkpt lat="48.73529" lon="7.25111">
        <ele>212</ele>
        <time>2022-04-06T02:55:07Z</time>
      </trkpt>
      <trkpt lat="48.73542" lon="7.25147">
        <ele>212</ele>
        <time>2022-04-06T02:55:12Z</time>
      </trkpt>
      <trkpt lat="48.73544" lon="7.25173">
        <ele>211</ele>
        <time>2022-04-06T02:55:15Z</time>
      </trkpt>
      <trkpt lat="48.73552" lon="7.25278">
        <ele>211</ele>
        <time>2022-04-06T02:55:27Z</time>
      </trkpt>
      <trkpt lat="48.73577" lon="7.25546">
        <ele>213</ele>
        <time>2022-04-06T02:55:59Z</time>
      </trkpt>
      <trkpt lat="48.73579" lon="7.25552">
        <ele>213</ele>
        <time>2022-04-06T02:56:00Z</time>
      </trkpt>
      <trkpt lat="48.73589" lon="7.2556">
        <ele>215</ele>
        <time>2022-04-06T02:56:02Z</time>
      </trkpt>
      <trkpt lat="48.73617" lon="7.25574">
        <ele>225</ele>
        <time>2022-04-06T02:56:07Z</time>
      </trkpt>
      <trkpt lat="48.73613" lon="7.2559">
        <ele>224</ele>
        <time>2022-04-06T02:56:09Z</time>
      </trkpt>
      <trkpt lat="48.736" lon="7.25719">
        <ele>220</ele>
        <time>2022-04-06T02:56:25Z</time>
      </trkpt>
      <trkpt lat="48.736" lon="7.25739">
        <ele>220</ele>
        <time>2022-04-06T02:56:27Z</time>
      </trkpt>
      <trkpt lat="48.73604" lon="7.25789">
        <ele>220</ele>
        <time>2022-04-06T02:56:33Z</time>
      </trkpt>
      <trkpt lat="48.73607" lon="7.25807">
        <ele>220</ele>
        <time>2022-04-06T02:56:35Z</time>
      </trkpt>
      <trkpt lat="48.73612" lon="7.25828">
        <ele>220</ele>
        <time>2022-04-06T02:56:38Z</time>
      </trkpt>
      <trkpt lat="48.73625" lon="7.25869">
        <ele>220</ele>
        <time>2022-04-06T02:56:43Z</time>
      </trkpt>
      <trkpt lat="48.73623" lon="7.25871">
        <ele>219</ele>
        <time>2022-04-06T02:56:43Z</time>
      </trkpt>
      <trkpt lat="48.73611" lon="7.25879">
        <ele>215</ele>
        <time>2022-04-06T02:56:46Z</time>
      </trkpt>
      <trkpt lat="48.73607" lon="7.2588">
        <ele>214</ele>
        <time>2022-04-06T02:56:46Z</time>
      </trkpt>
      <trkpt lat="48.73605" lon="7.25881">
        <ele>213</ele>
        <time>2022-04-06T02:56:47Z</time>
      </trkpt>
      <trkpt lat="48.73592" lon="7.25884">
        <ele>210</ele>
        <time>2022-04-06T02:56:49Z</time>
      </trkpt>
      <trkpt lat="48.7359" lon="7.25884">
        <ele>210</ele>
        <time>2022-04-06T02:56:49Z</time>
      </trkpt>
      <trkpt lat="48.73587" lon="7.25885">
        <ele>209</ele>
        <time>2022-04-06T02:56:50Z</time>
      </trkpt>
      <trkpt lat="48.73584" lon="7.2589">
        <ele>208</ele>
        <time>2022-04-06T02:56:51Z</time>
      </trkpt>
      <trkpt lat="48.73583" lon="7.25904">
        <ele>207</ele>
        <time>2022-04-06T02:56:52Z</time>
      </trkpt>
      <trkpt lat="48.73586" lon="7.2591">
        <ele>208</ele>
        <time>2022-04-06T02:56:53Z</time>
      </trkpt>
      <trkpt lat="48.73595" lon="7.25952">
        <ele>208</ele>
        <time>2022-04-06T02:56:59Z</time>
      </trkpt>
      <trkpt lat="48.73603" lon="7.25975">
        <ele>208</ele>
        <time>2022-04-06T02:57:02Z</time>
      </trkpt>
      <trkpt lat="48.73784" lon="7.26371">
        <ele>210</ele>
        <time>2022-04-06T02:57:58Z</time>
      </trkpt>
      <trkpt lat="48.73792" lon="7.26392">
        <ele>210</ele>
        <time>2022-04-06T02:58:01Z</time>
      </trkpt>
      <trkpt lat="48.73803" lon="7.26441">
        <ele>210</ele>
        <time>2022-04-06T02:58:07Z</time>
      </trkpt>
      <trkpt lat="48.73809" lon="7.26474">
        <ele>210</ele>
        <time>2022-04-06T02:58:11Z</time>
      </trkpt>
      <trkpt lat="48.73812" lon="7.26499">
        <ele>210</ele>
        <time>2022-04-06T02:58:14Z</time>
      </trkpt>
      <trkpt lat="48.73812" lon="7.26501">
        <ele>210</ele>
        <time>2022-04-06T02:58:14Z</time>
      </trkpt>
      <trkpt lat="48.73815" lon="7.26529">
        <ele>212</ele>
        <time>2022-04-06T02:58:18Z</time>
      </trkpt>
      <trkpt lat="48.73816" lon="7.26586">
        <ele>215</ele>
        <time>2022-04-06T02:58:24Z</time>
      </trkpt>
      <trkpt lat="48.73798" lon="7.26978">
        <ele>217</ele>
        <time>2022-04-06T02:59:10Z</time>
      </trkpt>
      <trkpt lat="48.73793" lon="7.27065">
        <ele>218</ele>
        <time>2022-04-06T02:59:21Z</time>
      </trkpt>
      <trkpt lat="48.73788" lon="7.271">
        <ele>218</ele>
        <time>2022-04-06T02:59:25Z</time>
      </trkpt>
      <trkpt lat="48.73782" lon="7.27127">
        <ele>218</ele>
        <time>2022-04-06T02:59:28Z</time>
      </trkpt>
      <trkpt lat="48.73767" lon="7.27179">
        <ele>216</ele>
        <time>2022-04-06T02:59:35Z</time>
      </trkpt>
      <trkpt lat="48.73757" lon="7.27205">
        <ele>213</ele>
        <time>2022-04-06T02:59:38Z</time>
      </trkpt>
      <trkpt lat="48.73731" lon="7.27263">
        <ele>209</ele>
        <time>2022-04-06T02:59:47Z</time>
      </trkpt>
      <trkpt lat="48.73713" lon="7.27295">
        <ele>211</ele>
        <time>2022-04-06T02:59:52Z</time>
      </trkpt>
      <trkpt lat="48.73705" lon="7.27301">
        <ele>210</ele>
        <time>2022-04-06T02:59:53Z</time>
      </trkpt>
      <trkpt lat="48.737" lon="7.27308">
        <ele>210</ele>
        <time>2022-04-06T02:59:54Z</time>
      </trkpt>
      <trkpt lat="48.73588" lon="7.27492">
        <ele>215</ele>
        <time>2022-04-06T03:00:24Z</time>
      </trkpt>
      <trkpt lat="48.73544" lon="7.27569">
        <ele>219</ele>
        <time>2022-04-06T03:00:36Z</time>
      </trkpt>
      <trkpt lat="48.73533" lon="7.2759">
        <ele>219</ele>
        <time>2022-04-06T03:00:39Z</time>
      </trkpt>
      <trkpt lat="48.73526" lon="7.27604">
        <ele>219</ele>
        <time>2022-04-06T03:00:41Z</time>
      </trkpt>
      <trkpt lat="48.73513" lon="7.27632">
        <ele>217</ele>
        <time>2022-04-06T03:00:45Z</time>
      </trkpt>
      <trkpt lat="48.73471" lon="7.27747">
        <ele>214</ele>
        <time>2022-04-06T03:01:00Z</time>
      </trkpt>
      <trkpt lat="48.73314" lon="7.28205">
        <ele>208</ele>
        <time>2022-04-06T03:02:01Z</time>
      </trkpt>
      <trkpt lat="48.73308" lon="7.2822">
        <ele>208</ele>
        <time>2022-04-06T03:02:03Z</time>
      </trkpt>
      <trkpt lat="48.73303" lon="7.28235">
        <ele>209</ele>
        <time>2022-04-06T03:02:05Z</time>
      </trkpt>
      <trkpt lat="48.73275" lon="7.28313">
        <ele>213</ele>
        <time>2022-04-06T03:02:15Z</time>
      </trkpt>
      <trkpt lat="48.73182" lon="7.28587">
        <ele>212</ele>
        <time>2022-04-06T03:02:52Z</time>
      </trkpt>
      <trkpt lat="48.73164" lon="7.2865">
        <ele>209</ele>
        <time>2022-04-06T03:03:00Z</time>
      </trkpt>
      <trkpt lat="48.73159" lon="7.28671">
        <ele>209</ele>
        <time>2022-04-06T03:03:02Z</time>
      </trkpt>
      <trkpt lat="48.7315" lon="7.28706">
        <ele>211</ele>
        <time>2022-04-06T03:03:07Z</time>
      </trkpt>
      <trkpt lat="48.73086" lon="7.28983">
        <ele>208</ele>
        <time>2022-04-06T03:03:41Z</time>
      </trkpt>
      <trkpt lat="48.73068" lon="7.29098">
        <ele>210</ele>
        <time>2022-04-06T03:03:55Z</time>
      </trkpt>
      <trkpt lat="48.73049" lon="7.29191">
        <ele>211</ele>
        <time>2022-04-06T03:04:06Z</time>
      </trkpt>
      <trkpt lat="48.73027" lon="7.29268">
        <ele>209</ele>
        <time>2022-04-06T03:04:16Z</time>
      </trkpt>
      <trkpt lat="48.73" lon="7.29356">
        <ele>207</ele>
        <time>2022-04-06T03:04:28Z</time>
      </trkpt>
      <trkpt lat="48.7297" lon="7.29486">
        <ele>217</ele>
        <time>2022-04-06T03:04:44Z</time>
      </trkpt>
      <trkpt lat="48.72951" lon="7.29575">
        <ele>220</ele>
        <time>2022-04-06T03:04:55Z</time>
      </trkpt>
      <trkpt lat="48.72949" lon="7.29589">
        <ele>219</ele>
        <time>2022-04-06T03:04:56Z</time>
      </trkpt>
      <trkpt lat="48.72932" lon="7.29655">
        <ele>214</ele>
        <time>2022-04-06T03:05:05Z</time>
      </trkpt>
      <trkpt lat="48.72901" lon="7.29796">
        <ele>211</ele>
        <time>2022-04-06T03:05:22Z</time>
      </trkpt>
      <trkpt lat="48.72893" lon="7.29822">
        <ele>210</ele>
        <time>2022-04-06T03:05:26Z</time>
      </trkpt>
      <trkpt lat="48.72878" lon="7.29861">
        <ele>213</ele>
        <time>2022-04-06T03:05:31Z</time>
      </trkpt>
      <trkpt lat="48.7287" lon="7.29874">
        <ele>213</ele>
        <time>2022-04-06T03:05:33Z</time>
      </trkpt>
      <trkpt lat="48.72858" lon="7.29889">
        <ele>213</ele>
        <time>2022-04-06T03:05:36Z</time>
      </trkpt>
      <trkpt lat="48.72851" lon="7.29894">
        <ele>212</ele>
        <time>2022-04-06T03:05:37Z</time>
      </trkpt>
      <trkpt lat="48.72832" lon="7.29902">
        <ele>209</ele>
        <time>2022-04-06T03:05:41Z</time>
      </trkpt>
      <trkpt lat="48.72817" lon="7.29907">
        <ele>209</ele>
        <time>2022-04-06T03:05:43Z</time>
      </trkpt>
      <trkpt lat="48.72796" lon="7.29909">
        <ele>209</ele>
        <time>2022-04-06T03:05:47Z</time>
      </trkpt>
      <trkpt lat="48.72725" lon="7.29878">
        <ele>210</ele>
        <time>2022-04-06T03:06:00Z</time>
      </trkpt>
      <trkpt lat="48.72711" lon="7.29874">
        <ele>209</ele>
        <time>2022-04-06T03:06:03Z</time>
      </trkpt>
      <trkpt lat="48.72684" lon="7.29873">
        <ele>208</ele>
        <time>2022-04-06T03:06:08Z</time>
      </trkpt>
      <trkpt lat="48.72657" lon="7.2988">
        <ele>208</ele>
        <time>2022-04-06T03:06:12Z</time>
      </trkpt>
      <trkpt lat="48.72642" lon="7.29886">
        <ele>208</ele>
        <time>2022-04-06T03:06:15Z</time>
      </trkpt>
      <trkpt lat="48.72621" lon="7.29901">
        <ele>207</ele>
        <time>2022-04-06T03:06:19Z</time>
      </trkpt>
      <trkpt lat="48.72611" lon="7.29911">
        <ele>205</ele>
        <time>2022-04-06T03:06:21Z</time>
      </trkpt>
      <trkpt lat="48.726" lon="7.29925">
        <ele>204</ele>
        <time>2022-04-06T03:06:24Z</time>
      </trkpt>
      <trkpt lat="48.72585" lon="7.2995">
        <ele>202</ele>
        <time>2022-04-06T03:06:28Z</time>
      </trkpt>
      <trkpt lat="48.7257" lon="7.29982">
        <ele>206</ele>
        <time>2022-04-06T03:06:33Z</time>
      </trkpt>
      <trkpt lat="48.72559" lon="7.30013">
        <ele>208</ele>
        <time>2022-04-06T03:06:37Z</time>
      </trkpt>
      <trkpt lat="48.7255" lon="7.30053">
        <ele>211</ele>
        <time>2022-04-06T03:06:42Z</time>
      </trkpt>
      <trkpt lat="48.72518" lon="7.3021">
        <ele>210</ele>
        <time>2022-04-06T03:07:01Z</time>
      </trkpt>
      <trkpt lat="48.72503" lon="7.30256">
        <ele>204</ele>
        <time>2022-04-06T03:07:07Z</time>
      </trkpt>
      <trkpt lat="48.725" lon="7.30264">
        <ele>204</ele>
        <time>2022-04-06T03:07:08Z</time>
      </trkpt>
      <trkpt lat="48.72495" lon="7.30279">
        <ele>205</ele>
        <time>2022-04-06T03:07:10Z</time>
      </trkpt>
      <trkpt lat="48.72477" lon="7.30324">
        <ele>209</ele>
        <time>2022-04-06T03:07:16Z</time>
      </trkpt>
      <trkpt lat="48.72454" lon="7.30374">
        <ele>214</ele>
        <time>2022-04-06T03:07:23Z</time>
      </trkpt>
      <trkpt lat="48.724" lon="7.3046">
        <ele>212</ele>
        <time>2022-04-06T03:07:37Z</time>
      </trkpt>
      <trkpt lat="48.72371" lon="7.305">
        <ele>209</ele>
        <time>2022-04-06T03:07:44Z</time>
      </trkpt>
      <trkpt lat="48.72336" lon="7.30534">
        <ele>206</ele>
        <time>2022-04-06T03:07:52Z</time>
      </trkpt>
      <trkpt lat="48.72309" lon="7.30555">
        <ele>206</ele>
        <time>2022-04-06T03:07:57Z</time>
      </trkpt>
      <trkpt lat="48.72284" lon="7.30571">
        <ele>204</ele>
        <time>2022-04-06T03:08:02Z</time>
      </trkpt>
      <trkpt lat="48.72265" lon="7.30581">
        <ele>202</ele>
        <time>2022-04-06T03:08:05Z</time>
      </trkpt>
      <trkpt lat="48.72224" lon="7.30597">
        <ele>202</ele>
        <time>2022-04-06T03:08:13Z</time>
      </trkpt>
      <trkpt lat="48.72198" lon="7.30602">
        <ele>202</ele>
        <time>2022-04-06T03:08:18Z</time>
      </trkpt>
      <trkpt lat="48.72181" lon="7.30609">
        <ele>202</ele>
        <time>2022-04-06T03:08:21Z</time>
      </trkpt>
      <trkpt lat="48.72162" lon="7.30618">
        <ele>202</ele>
        <time>2022-04-06T03:08:24Z</time>
      </trkpt>
      <trkpt lat="48.7214" lon="7.30634">
        <ele>202</ele>
        <time>2022-04-06T03:08:29Z</time>
      </trkpt>
      <trkpt lat="48.72124" lon="7.30649">
        <ele>202</ele>
        <time>2022-04-06T03:08:32Z</time>
      </trkpt>
      <trkpt lat="48.72103" lon="7.30681">
        <ele>202</ele>
        <time>2022-04-06T03:08:37Z</time>
      </trkpt>
      <trkpt lat="48.7209" lon="7.30709">
        <ele>201</ele>
        <time>2022-04-06T03:08:41Z</time>
      </trkpt>
      <trkpt lat="48.72082" lon="7.30732">
        <ele>200</ele>
        <time>2022-04-06T03:08:44Z</time>
      </trkpt>
      <trkpt lat="48.72073" lon="7.30775">
        <ele>200</ele>
        <time>2022-04-06T03:08:50Z</time>
      </trkpt>
      <trkpt lat="48.72069" lon="7.30823">
        <ele>202</ele>
        <time>2022-04-06T03:08:55Z</time>
      </trkpt>
      <trkpt lat="48.72073" lon="7.30903">
        <ele>203</ele>
        <time>2022-04-06T03:09:05Z</time>
      </trkpt>
      <trkpt lat="48.72079" lon="7.30978">
        <ele>202</ele>
        <time>2022-04-06T03:09:14Z</time>
      </trkpt>
      <trkpt lat="48.72078" lon="7.31015">
        <ele>204</ele>
        <time>2022-04-06T03:09:18Z</time>
      </trkpt>
      <trkpt lat="48.72072" lon="7.31085">
        <ele>208</ele>
        <time>2022-04-06T03:09:26Z</time>
      </trkpt>
      <trkpt lat="48.72057" lon="7.31181">
        <ele>207</ele>
        <time>2022-04-06T03:09:38Z</time>
      </trkpt>
      <trkpt lat="48.72057" lon="7.31228">
        <ele>204</ele>
        <time>2022-04-06T03:09:43Z</time>
      </trkpt>
      <trkpt lat="48.7206" lon="7.31252">
        <ele>203</ele>
        <time>2022-04-06T03:09:46Z</time>
      </trkpt>
      <trkpt lat="48.72062" lon="7.31267">
        <ele>203</ele>
        <time>2022-04-06T03:09:48Z</time>
      </trkpt>
      <trkpt lat="48.72072" lon="7.31313">
        <ele>203</ele>
        <time>2022-04-06T03:09:54Z</time>
      </trkpt>
      <trkpt lat="48.72091" lon="7.31379">
        <ele>203</ele>
        <time>2022-04-06T03:10:02Z</time>
      </trkpt>
      <trkpt lat="48.72139" lon="7.31532">
        <ele>204</ele>
        <time>2022-04-06T03:10:22Z</time>
      </trkpt>
      <trkpt lat="48.72144" lon="7.31551">
        <ele>204</ele>
        <time>2022-04-06T03:10:24Z</time>
      </trkpt>
      <trkpt lat="48.72154" lon="7.31601">
        <ele>202</ele>
        <time>2022-04-06T03:10:31Z</time>
      </trkpt>
      <trkpt lat="48.72157" lon="7.31617">
        <ele>202</ele>
        <time>2022-04-06T03:10:33Z</time>
      </trkpt>
      <trkpt lat="48.72166" lon="7.31662">
        <ele>200</ele>
        <time>2022-04-06T03:10:38Z</time>
      </trkpt>
      <trkpt lat="48.72172" lon="7.31712">
        <ele>202</ele>
        <time>2022-04-06T03:10:44Z</time>
      </trkpt>
      <trkpt lat="48.72191" lon="7.319">
        <ele>203</ele>
        <time>2022-04-06T03:11:06Z</time>
      </trkpt>
      <trkpt lat="48.72208" lon="7.31964">
        <ele>203</ele>
        <time>2022-04-06T03:11:14Z</time>
      </trkpt>
      <trkpt lat="48.72228" lon="7.32019">
        <ele>202</ele>
        <time>2022-04-06T03:11:22Z</time>
      </trkpt>
      <trkpt lat="48.72245" lon="7.32055">
        <ele>201</ele>
        <time>2022-04-06T03:11:27Z</time>
      </trkpt>
      <trkpt lat="48.72266" lon="7.32093">
        <ele>203</ele>
        <time>2022-04-06T03:11:33Z</time>
      </trkpt>
      <trkpt lat="48.72318" lon="7.32175">
        <ele>203</ele>
        <time>2022-04-06T03:11:46Z</time>
      </trkpt>
      <trkpt lat="48.72385" lon="7.3227">
        <ele>201</ele>
        <time>2022-04-06T03:12:03Z</time>
      </trkpt>
      <trkpt lat="48.72409" lon="7.32301">
        <ele>200</ele>
        <time>2022-04-06T03:12:08Z</time>
      </trkpt>
      <trkpt lat="48.72422" lon="7.32309">
        <ele>200</ele>
        <time>2022-04-06T03:12:11Z</time>
      </trkpt>
      <trkpt lat="48.72433" lon="7.32326">
        <ele>200</ele>
        <time>2022-04-06T03:12:13Z</time>
      </trkpt>
      <trkpt lat="48.7244" lon="7.32346">
        <ele>200</ele>
        <time>2022-04-06T03:12:16Z</time>
      </trkpt>
      <trkpt lat="48.72444" lon="7.32354">
        <ele>200</ele>
        <time>2022-04-06T03:12:17Z</time>
      </trkpt>
      <trkpt lat="48.72515" lon="7.32452">
        <ele>201</ele>
        <time>2022-04-06T03:12:34Z</time>
      </trkpt>
      <trkpt lat="48.72591" lon="7.32566">
        <ele>203</ele>
        <time>2022-04-06T03:12:53Z</time>
      </trkpt>
      <trkpt lat="48.72601" lon="7.32588">
        <ele>205</ele>
        <time>2022-04-06T03:12:57Z</time>
      </trkpt>
      <trkpt lat="48.72613" lon="7.32619">
        <ele>207</ele>
        <time>2022-04-06T03:13:01Z</time>
      </trkpt>
      <trkpt lat="48.72625" lon="7.32667">
        <ele>207</ele>
        <time>2022-04-06T03:13:07Z</time>
      </trkpt>
      <trkpt lat="48.72636" lon="7.32741">
        <ele>207</ele>
        <time>2022-04-06T03:13:16Z</time>
      </trkpt>
      <trkpt lat="48.72656" lon="7.329">
        <ele>204</ele>
        <time>2022-04-06T03:13:35Z</time>
      </trkpt>
      <trkpt lat="48.7267" lon="7.32959">
        <ele>200</ele>
        <time>2022-04-06T03:13:42Z</time>
      </trkpt>
      <trkpt lat="48.72693" lon="7.3303">
        <ele>199</ele>
        <time>2022-04-06T03:13:51Z</time>
      </trkpt>
      <trkpt lat="48.72705" lon="7.33059">
        <ele>199</ele>
        <time>2022-04-06T03:13:55Z</time>
      </trkpt>
      <trkpt lat="48.72724" lon="7.33094">
        <ele>199</ele>
        <time>2022-04-06T03:14:01Z</time>
      </trkpt>
      <trkpt lat="48.72754" lon="7.33135">
        <ele>198</ele>
        <time>2022-04-06T03:14:08Z</time>
      </trkpt>
      <trkpt lat="48.72786" lon="7.33167">
        <ele>197</ele>
        <time>2022-04-06T03:14:15Z</time>
      </trkpt>
      <trkpt lat="48.72823" lon="7.33197">
        <ele>198</ele>
        <time>2022-04-06T03:14:22Z</time>
      </trkpt>
      <trkpt lat="48.72857" lon="7.33218">
        <ele>197</ele>
        <time>2022-04-06T03:14:29Z</time>
      </trkpt>
      <trkpt lat="48.72869" lon="7.33223">
        <ele>197</ele>
        <time>2022-04-06T03:14:31Z</time>
      </trkpt>
      <trkpt lat="48.72932" lon="7.33245">
        <ele>195</ele>
        <time>2022-04-06T03:14:42Z</time>
      </trkpt>
      <trkpt lat="48.72962" lon="7.33256">
        <ele>197</ele>
        <time>2022-04-06T03:14:48Z</time>
      </trkpt>
      <trkpt lat="48.72996" lon="7.33274">
        <ele>199</ele>
        <time>2022-04-06T03:14:54Z</time>
      </trkpt>
      <trkpt lat="48.7302" lon="7.33293">
        <ele>199</ele>
        <time>2022-04-06T03:14:59Z</time>
      </trkpt>
      <trkpt lat="48.73038" lon="7.33316">
        <ele>197</ele>
        <time>2022-04-06T03:15:03Z</time>
      </trkpt>
      <trkpt lat="48.7305" lon="7.33337">
        <ele>196</ele>
        <time>2022-04-06T03:15:07Z</time>
      </trkpt>
      <trkpt lat="48.73058" lon="7.33358">
        <ele>196</ele>
        <time>2022-04-06T03:15:09Z</time>
      </trkpt>
      <trkpt lat="48.73066" lon="7.33382">
        <ele>196</ele>
        <time>2022-04-06T03:15:13Z</time>
      </trkpt>
      <trkpt lat="48.73078" lon="7.3344">
        <ele>196</ele>
        <time>2022-04-06T03:15:20Z</time>
      </trkpt>
      <trkpt lat="48.73087" lon="7.3346">
        <ele>196</ele>
        <time>2022-04-06T03:15:23Z</time>
      </trkpt>
      <trkpt lat="48.7309" lon="7.33465">
        <ele>197</ele>
        <time>2022-04-06T03:15:23Z</time>
      </trkpt>
      <trkpt lat="48.73095" lon="7.33494">
        <ele>198</ele>
        <time>2022-04-06T03:15:27Z</time>
      </trkpt>
      <trkpt lat="48.73096" lon="7.33511">
        <ele>199</ele>
        <time>2022-04-06T03:15:29Z</time>
      </trkpt>
      <trkpt lat="48.73097" lon="7.33517">
        <ele>199</ele>
        <time>2022-04-06T03:15:30Z</time>
      </trkpt>
      <trkpt lat="48.73104" lon="7.3356">
        <ele>200</ele>
        <time>2022-04-06T03:15:35Z</time>
      </trkpt>
      <trkpt lat="48.73108" lon="7.33597">
        <ele>201</ele>
        <time>2022-04-06T03:15:39Z</time>
      </trkpt>
      <trkpt lat="48.73124" lon="7.33719">
        <ele>201</ele>
        <time>2022-04-06T03:15:54Z</time>
      </trkpt>
      <trkpt lat="48.73126" lon="7.33759">
        <ele>202</ele>
        <time>2022-04-06T03:15:58Z</time>
      </trkpt>
      <trkpt lat="48.73125" lon="7.33776">
        <ele>203</ele>
        <time>2022-04-06T03:16:00Z</time>
      </trkpt>
      <trkpt lat="48.73132" lon="7.33863">
        <ele>205</ele>
        <time>2022-04-06T03:16:11Z</time>
      </trkpt>
      <trkpt lat="48.73159" lon="7.33988">
        <ele>204</ele>
        <time>2022-04-06T03:16:26Z</time>
      </trkpt>
      <trkpt lat="48.73171" lon="7.34027">
        <ele>207</ele>
        <time>2022-04-06T03:16:31Z</time>
      </trkpt>
      <trkpt lat="48.73183" lon="7.34055">
        <ele>210</ele>
        <time>2022-04-06T03:16:35Z</time>
      </trkpt>
      <trkpt lat="48.73198" lon="7.34076">
        <ele>210</ele>
        <time>2022-04-06T03:16:39Z</time>
      </trkpt>
      <trkpt lat="48.73237" lon="7.34109">
        <ele>208</ele>
        <time>2022-04-06T03:16:47Z</time>
      </trkpt>
      <trkpt lat="48.73375" lon="7.3419">
        <ele>200</ele>
        <time>2022-04-06T03:17:13Z</time>
      </trkpt>
      <trkpt lat="48.73395" lon="7.34209">
        <ele>201</ele>
        <time>2022-04-06T03:17:17Z</time>
      </trkpt>
      <trkpt lat="48.73399" lon="7.34219">
        <ele>202</ele>
        <time>2022-04-06T03:17:19Z</time>
      </trkpt>
      <trkpt lat="48.73416" lon="7.34235">
        <ele>202</ele>
        <time>2022-04-06T03:17:22Z</time>
      </trkpt>
      <trkpt lat="48.73426" lon="7.34238">
        <ele>201</ele>
        <time>2022-04-06T03:17:24Z</time>
      </trkpt>
      <trkpt lat="48.73442" lon="7.34257">
        <ele>201</ele>
        <time>2022-04-06T03:17:28Z</time>
      </trkpt>
      <trkpt lat="48.73459" lon="7.34283">
        <ele>203</ele>
        <time>2022-04-06T03:17:32Z</time>
      </trkpt>
      <trkpt lat="48.73507" lon="7.34364">
        <ele>206</ele>
        <time>2022-04-06T03:17:45Z</time>
      </trkpt>
      <trkpt lat="48.73613" lon="7.34536">
        <ele>210</ele>
        <time>2022-04-06T03:18:12Z</time>
      </trkpt>
      <trkpt lat="48.73645" lon="7.34582">
        <ele>208</ele>
        <time>2022-04-06T03:18:20Z</time>
      </trkpt>
      <trkpt lat="48.73726" lon="7.34688">
        <ele>215</ele>
        <time>2022-04-06T03:18:39Z</time>
      </trkpt>
      <trkpt lat="48.73812" lon="7.34751">
        <ele>207</ele>
        <time>2022-04-06T03:18:56Z</time>
      </trkpt>
      <trkpt lat="48.73838" lon="7.34767">
        <ele>205</ele>
        <time>2022-04-06T03:19:01Z</time>
      </trkpt>
      <trkpt lat="48.74003" lon="7.34927">
        <ele>202</ele>
        <time>2022-04-06T03:19:36Z</time>
      </trkpt>
      <trkpt lat="48.74031" lon="7.34962">
        <ele>199</ele>
        <time>2022-04-06T03:19:42Z</time>
      </trkpt>
      <trkpt lat="48.74056" lon="7.35017">
        <ele>197</ele>
        <time>2022-04-06T03:19:50Z</time>
      </trkpt>
      <trkpt lat="48.74067" lon="7.35052">
        <ele>197</ele>
        <time>2022-04-06T03:19:55Z</time>
      </trkpt>
      <trkpt lat="48.74076" lon="7.35085">
        <ele>197</ele>
        <time>2022-04-06T03:19:59Z</time>
      </trkpt>
      <trkpt lat="48.74084" lon="7.35126">
        <ele>197</ele>
        <time>2022-04-06T03:20:04Z</time>
      </trkpt>
      <trkpt lat="48.74089" lon="7.35164">
        <ele>197</ele>
        <time>2022-04-06T03:20:09Z</time>
      </trkpt>
      <trkpt lat="48.74093" lon="7.35217">
        <ele>195</ele>
        <time>2022-04-06T03:20:15Z</time>
      </trkpt>
      <trkpt lat="48.74093" lon="7.35357">
        <ele>192</ele>
        <time>2022-04-06T03:20:31Z</time>
      </trkpt>
      <trkpt lat="48.74087" lon="7.35625">
        <ele>196</ele>
        <time>2022-04-06T03:21:03Z</time>
      </trkpt>
      <trkpt lat="48.74091" lon="7.35637">
        <ele>196</ele>
        <time>2022-04-06T03:21:04Z</time>
      </trkpt>
      <trkpt lat="48.74091" lon="7.35652">
        <ele>197</ele>
        <time>2022-04-06T03:21:06Z</time>
      </trkpt>
      <trkpt lat="48.74084" lon="7.35888">
        <ele>198</ele>
        <time>2022-04-06T03:21:34Z</time>
      </trkpt>
      <trkpt lat="48.74085" lon="7.35915">
        <ele>199</ele>
        <time>2022-04-06T03:21:37Z</time>
      </trkpt>
      <trkpt lat="48.74089" lon="7.35921">
        <ele>199</ele>
        <time>2022-04-06T03:21:38Z</time>
      </trkpt>
      <trkpt lat="48.74203" lon="7.36141">
        <ele>195</ele>
        <time>2022-04-06T03:22:11Z</time>
      </trkpt>
      <trkpt lat="48.74202" lon="7.36141">
        <ele>195</ele>
        <time>2022-04-06T03:22:11Z</time>
      </trkpt>
      <trkpt lat="48.74201" lon="7.36139">
        <ele>195</ele>
        <time>2022-04-06T03:22:11Z</time>
      </trkpt>
      <trkpt lat="48.74202" lon="7.36136">
        <ele>195</ele>
        <time>2022-04-06T03:22:12Z</time>
      </trkpt>
      <trkpt lat="48.74209" lon="7.36123">
        <ele>194</ele>
        <time>2022-04-06T03:22:14Z</time>
      </trkpt>
      <trkpt lat="48.74228" lon="7.36085">
        <ele>192</ele>
        <time>2022-04-06T03:22:19Z</time>
      </trkpt>
      <trkpt lat="48.7419" lon="7.36025">
        <ele>194</ele>
        <time>2022-04-06T03:22:29Z</time>
      </trkpt>
      <trkpt lat="48.74185" lon="7.36009">
        <ele>194</ele>
        <time>2022-04-06T03:22:31Z</time>
      </trkpt>
      <trkpt lat="48.74182" lon="7.35996">
        <ele>194</ele>
        <time>2022-04-06T03:22:33Z</time>
      </trkpt>
      <trkpt lat="48.74184" lon="7.35981">
        <ele>194</ele>
        <time>2022-04-06T03:22:35Z</time>
      </trkpt>
      <trkpt lat="48.7416" lon="7.35895">
        <ele>193</ele>
        <time>2022-04-06T03:22:45Z</time>
      </trkpt>
      <trkpt lat="48.7415" lon="7.35909">
        <ele>194</ele>
        <time>2022-04-06T03:22:48Z</time>
      </trkpt>
      <trkpt lat="48.74127" lon="7.35936">
        <ele>196</ele>
        <time>2022-04-06T03:22:53Z</time>
      </trkpt>
      <trkpt lat="48.74126" lon="7.35937">
        <ele>196</ele>
        <time>2022-04-06T03:22:53Z</time>
      </trkpt>
      <trkpt lat="48.741" lon="7.35969">
        <ele>199</ele>
        <time>2022-04-06T03:22:59Z</time>
      </trkpt>
      <trkpt lat="48.74098" lon="7.35971">
        <ele>200</ele>
        <time>2022-04-06T03:23:00Z</time>
      </trkpt>
      <trkpt lat="48.74095" lon="7.35974">
        <ele>200</ele>
        <time>2022-04-06T03:23:00Z</time>
      </trkpt>
      <trkpt lat="48.74072" lon="7.35935">
        <ele>201</ele>
        <time>2022-04-06T03:23:06Z</time>
      </trkpt>
      <trkpt lat="48.74069" lon="7.35922">
        <ele>201</ele>
        <time>2022-04-06T03:23:08Z</time>
      </trkpt>
      <trkpt lat="48.74069" lon="7.35839">
        <ele>199</ele>
        <time>2022-04-06T03:23:18Z</time>
      </trkpt>
      <trkpt lat="48.74071" lon="7.35777">
        <ele>199</ele>
        <time>2022-04-06T03:23:25Z</time>
      </trkpt>
      <trkpt lat="48.74075" lon="7.35735">
        <ele>199</ele>
        <time>2022-04-06T03:23:30Z</time>
      </trkpt>
      <trkpt lat="48.74077" lon="7.35619">
        <ele>197</ele>
        <time>2022-04-06T03:23:44Z</time>
      </trkpt>
      <trkpt lat="48.74076" lon="7.3561">
        <ele>197</ele>
        <time>2022-04-06T03:23:45Z</time>
      </trkpt>
      <trkpt lat="48.74049" lon="7.3554">
        <ele>197</ele>
        <time>2022-04-06T03:23:54Z</time>
      </trkpt>
      <trkpt lat="48.74045" lon="7.35525">
        <ele>197</ele>
        <time>2022-04-06T03:23:56Z</time>
      </trkpt>
      <trkpt lat="48.74042" lon="7.35506">
        <ele>197</ele>
        <time>2022-04-06T03:23:58Z</time>
      </trkpt>
      <trkpt lat="48.74034" lon="7.35425">
        <ele>199</ele>
        <time>2022-04-06T03:24:08Z</time>
      </trkpt>
      <trkpt lat="48.74026" lon="7.35273">
        <ele>203</ele>
        <time>2022-04-06T03:24:26Z</time>
      </trkpt>
      <trkpt lat="48.74019" lon="7.3517">
        <ele>207</ele>
        <time>2022-04-06T03:24:38Z</time>
      </trkpt>
      <trkpt lat="48.74011" lon="7.35132">
        <ele>208</ele>
        <time>2022-04-06T03:24:43Z</time>
      </trkpt>
      <trkpt lat="48.74" lon="7.35097">
        <ele>210</ele>
        <time>2022-04-06T03:24:47Z</time>
      </trkpt>
      <trkpt lat="48.73978" lon="7.3505">
        <ele>214</ele>
        <time>2022-04-06T03:24:54Z</time>
      </trkpt>
      <trkpt lat="48.73954" lon="7.35016">
        <ele>219</ele>
        <time>2022-04-06T03:25:00Z</time>
      </trkpt>
      <trkpt lat="48.73914" lon="7.34972">
        <ele>225</ele>
        <time>2022-04-06T03:25:09Z</time>
      </trkpt>
      <trkpt lat="48.73879" lon="7.3494">
        <ele>227</ele>
        <time>2022-04-06T03:25:16Z</time>
      </trkpt>
      <trkpt lat="48.7385" lon="7.34923">
        <ele>230</ele>
        <time>2022-04-06T03:25:22Z</time>
      </trkpt>
      <trkpt lat="48.73792" lon="7.34917">
        <ele>235</ele>
        <time>2022-04-06T03:25:32Z</time>
      </trkpt>
      <trkpt lat="48.73607" lon="7.3487">
        <ele>254</ele>
        <time>2022-04-06T03:26:05Z</time>
      </trkpt>
      <trkpt lat="48.7352" lon="7.34834">
        <ele>263</ele>
        <time>2022-04-06T03:26:21Z</time>
      </trkpt>
      <trkpt lat="48.73497" lon="7.3483">
        <ele>265</ele>
        <time>2022-04-06T03:26:25Z</time>
      </trkpt>
      <trkpt lat="48.734" lon="7.34823">
        <ele>272</ele>
        <time>2022-04-06T03:26:43Z</time>
      </trkpt>
      <trkpt lat="48.7339" lon="7.34824">
        <ele>273</ele>
        <time>2022-04-06T03:26:45Z</time>
      </trkpt>
      <trkpt lat="48.73386" lon="7.34827">
        <ele>274</ele>
        <time>2022-04-06T03:26:45Z</time>
      </trkpt>
      <trkpt lat="48.7338" lon="7.34814">
        <ele>274</ele>
        <time>2022-04-06T03:26:47Z</time>
      </trkpt>
      <trkpt lat="48.73331" lon="7.34743">
        <ele>279</ele>
        <time>2022-04-06T03:26:59Z</time>
      </trkpt>
      <trkpt lat="48.73259" lon="7.3461">
        <ele>289</ele>
        <time>2022-04-06T03:27:19Z</time>
      </trkpt>
      <trkpt lat="48.73164" lon="7.34455">
        <ele>302</ele>
        <time>2022-04-06T03:27:44Z</time>
      </trkpt>
      <trkpt lat="48.73112" lon="7.34386">
        <ele>307</ele>
        <time>2022-04-06T03:27:57Z</time>
      </trkpt>
      <trkpt lat="48.72987" lon="7.34278">
        <ele>317</ele>
        <time>2022-04-06T03:28:22Z</time>
      </trkpt>
      <trkpt lat="48.72949" lon="7.34231">
        <ele>321</ele>
        <time>2022-04-06T03:28:31Z</time>
      </trkpt>
      <trkpt lat="48.72898" lon="7.34155">
        <ele>325</ele>
        <time>2022-04-06T03:28:44Z</time>
      </trkpt>
      <trkpt lat="48.72855" lon="7.34059">
        <ele>335</ele>
        <time>2022-04-06T03:28:57Z</time>
      </trkpt>
      <trkpt lat="48.72797" lon="7.33903">
        <ele>344</ele>
        <time>2022-04-06T03:29:18Z</time>
      </trkpt>
      <trkpt lat="48.72754" lon="7.33809">
        <ele>346</ele>
        <time>2022-04-06T03:29:32Z</time>
      </trkpt>
      <trkpt lat="48.72705" lon="7.33741">
        <ele>351</ele>
        <time>2022-04-06T03:29:43Z</time>
      </trkpt>
      <trkpt lat="48.72658" lon="7.33682">
        <ele>353</ele>
        <time>2022-04-06T03:29:54Z</time>
      </trkpt>
      <trkpt lat="48.72594" lon="7.33624">
        <ele>362</ele>
        <time>2022-04-06T03:30:08Z</time>
      </trkpt>
      <trkpt lat="48.72529" lon="7.33572">
        <ele>368</ele>
        <time>2022-04-06T03:30:21Z</time>
      </trkpt>
      <trkpt lat="48.72448" lon="7.33526">
        <ele>379</ele>
        <time>2022-04-06T03:30:36Z</time>
      </trkpt>
      <trkpt lat="48.72393" lon="7.33488">
        <ele>381</ele>
        <time>2022-04-06T03:30:47Z</time>
      </trkpt>
      <trkpt lat="48.72332" lon="7.33432">
        <ele>382</ele>
        <time>2022-04-06T03:31:00Z</time>
      </trkpt>
      <trkpt lat="48.72283" lon="7.33404">
        <ele>383</ele>
        <time>2022-04-06T03:31:09Z</time>
      </trkpt>
      <trkpt lat="48.7223" lon="7.33395">
        <ele>391</ele>
        <time>2022-04-06T03:31:18Z</time>
      </trkpt>
      <trkpt lat="48.72205" lon="7.33394">
        <ele>395</ele>
        <time>2022-04-06T03:31:23Z</time>
      </trkpt>
      <trkpt lat="48.72147" lon="7.33363">
        <ele>399</ele>
        <time>2022-04-06T03:31:34Z</time>
      </trkpt>
      <trkpt lat="48.72103" lon="7.33313">
        <ele>399</ele>
        <time>2022-04-06T03:31:43Z</time>
      </trkpt>
      <trkpt lat="48.72067" lon="7.33267">
        <ele>406</ele>
        <time>2022-04-06T03:31:52Z</time>
      </trkpt>
      <trkpt lat="48.72047" lon="7.33238">
        <ele>413</ele>
        <time>2022-04-06T03:31:57Z</time>
      </trkpt>
      <trkpt lat="48.72037" lon="7.33216">
        <ele>415</ele>
        <time>2022-04-06T03:32:00Z</time>
      </trkpt>
      <trkpt lat="48.7203" lon="7.33178">
        <ele>414</ele>
        <time>2022-04-06T03:32:05Z</time>
      </trkpt>
      <trkpt lat="48.72028" lon="7.33149">
        <ele>413</ele>
        <time>2022-04-06T03:32:08Z</time>
      </trkpt>
      <trkpt lat="48.72028" lon="7.33081">
        <ele>408</ele>
        <time>2022-04-06T03:32:16Z</time>
      </trkpt>
      <trkpt lat="48.72027" lon="7.33055">
        <ele>407</ele>
        <time>2022-04-06T03:32:19Z</time>
      </trkpt>
      <trkpt lat="48.72019" lon="7.33013">
        <ele>408</ele>
        <time>2022-04-06T03:32:24Z</time>
      </trkpt>
      <trkpt lat="48.72015" lon="7.33003">
        <ele>409</ele>
        <time>2022-04-06T03:32:26Z</time>
      </trkpt>
      <trkpt lat="48.72008" lon="7.32999">
        <ele>412</ele>
        <time>2022-04-06T03:32:27Z</time>
      </trkpt>
      <trkpt lat="48.72003" lon="7.32986">
        <ele>413</ele>
        <time>2022-04-06T03:32:29Z</time>
      </trkpt>
      <trkpt lat="48.71982" lon="7.32958">
        <ele>413</ele>
        <time>2022-04-06T03:32:34Z</time>
      </trkpt>
      <trkpt lat="48.71967" lon="7.32948">
        <ele>413</ele>
        <time>2022-04-06T03:32:37Z</time>
      </trkpt>
      <trkpt lat="48.71929" lon="7.32943">
        <ele>415</ele>
        <time>2022-04-06T03:32:43Z</time>
      </trkpt>
      <trkpt lat="48.71908" lon="7.32946">
        <ele>416</ele>
        <time>2022-04-06T03:32:47Z</time>
      </trkpt>
      <trkpt lat="48.71856" lon="7.32977">
        <ele>420</ele>
        <time>2022-04-06T03:32:57Z</time>
      </trkpt>
      <trkpt lat="48.71821" lon="7.32996">
        <ele>422</ele>
        <time>2022-04-06T03:33:04Z</time>
      </trkpt>
      <trkpt lat="48.71817" lon="7.32997">
        <ele>422</ele>
        <time>2022-04-06T03:33:04Z</time>
      </trkpt>
      <trkpt lat="48.71792" lon="7.33007">
        <ele>422</ele>
        <time>2022-04-06T03:33:09Z</time>
      </trkpt>
      <trkpt lat="48.71731" lon="7.33042">
        <ele>422</ele>
        <time>2022-04-06T03:33:21Z</time>
      </trkpt>
      <trkpt lat="48.71673" lon="7.33094">
        <ele>425</ele>
        <time>2022-04-06T03:33:33Z</time>
      </trkpt>
      <trkpt lat="48.71654" lon="7.33108">
        <ele>428</ele>
        <time>2022-04-06T03:33:36Z</time>
      </trkpt>
      <trkpt lat="48.71634" lon="7.33112">
        <ele>430</ele>
        <time>2022-04-06T03:33:40Z</time>
      </trkpt>
      <trkpt lat="48.71614" lon="7.33106">
        <ele>431</ele>
        <time>2022-04-06T03:33:44Z</time>
      </trkpt>
      <trkpt lat="48.71562" lon="7.33079">
        <ele>429</ele>
        <time>2022-04-06T03:33:53Z</time>
      </trkpt>
      <trkpt lat="48.71529" lon="7.3307">
        <ele>428</ele>
        <time>2022-04-06T03:33:59Z</time>
      </trkpt>
      <trkpt lat="48.71482" lon="7.33065">
        <ele>429</ele>
        <time>2022-04-06T03:34:08Z</time>
      </trkpt>
      <trkpt lat="48.71423" lon="7.33074">
        <ele>431</ele>
        <time>2022-04-06T03:34:18Z</time>
      </trkpt>
      <trkpt lat="48.71395" lon="7.33086">
        <ele>432</ele>
        <time>2022-04-06T03:34:23Z</time>
      </trkpt>
      <trkpt lat="48.71339" lon="7.33102">
        <ele>430</ele>
        <time>2022-04-06T03:34:34Z</time>
      </trkpt>
      <trkpt lat="48.71317" lon="7.33112">
        <ele>431</ele>
        <time>2022-04-06T03:34:38Z</time>
      </trkpt>
      <trkpt lat="48.71253" lon="7.33112">
        <ele>431</ele>
        <time>2022-04-06T03:34:49Z</time>
      </trkpt>
      <trkpt lat="48.7123" lon="7.3312">
        <ele>432</ele>
        <time>2022-04-06T03:34:53Z</time>
      </trkpt>
      <trkpt lat="48.71159" lon="7.33165">
        <ele>432</ele>
        <time>2022-04-06T03:35:07Z</time>
      </trkpt>
      <trkpt lat="48.71147" lon="7.33173">
        <ele>432</ele>
        <time>2022-04-06T03:35:09Z</time>
      </trkpt>
      <trkpt lat="48.71095" lon="7.33205">
        <ele>431</ele>
        <time>2022-04-06T03:35:19Z</time>
      </trkpt>
      <trkpt lat="48.71043" lon="7.3324">
        <ele>428</ele>
        <time>2022-04-06T03:35:29Z</time>
      </trkpt>
      <trkpt lat="48.71006" lon="7.33254">
        <ele>426</ele>
        <time>2022-04-06T03:35:36Z</time>
      </trkpt>
      <trkpt lat="48.70986" lon="7.33253">
        <ele>426</ele>
        <time>2022-04-06T03:35:40Z</time>
      </trkpt>
      <trkpt lat="48.7093" lon="7.33241">
        <ele>429</ele>
        <time>2022-04-06T03:35:50Z</time>
      </trkpt>
      <trkpt lat="48.70898" lon="7.33237">
        <ele>428</ele>
        <time>2022-04-06T03:35:55Z</time>
      </trkpt>
      <trkpt lat="48.70868" lon="7.33227">
        <ele>428</ele>
        <time>2022-04-06T03:36:01Z</time>
      </trkpt>
      <trkpt lat="48.70794" lon="7.33188">
        <ele>427</ele>
        <time>2022-04-06T03:36:15Z</time>
      </trkpt>
      <trkpt lat="48.70757" lon="7.33163">
        <ele>424</ele>
        <time>2022-04-06T03:36:22Z</time>
      </trkpt>
      <trkpt lat="48.70724" lon="7.33133">
        <ele>421</ele>
        <time>2022-04-06T03:36:29Z</time>
      </trkpt>
      <trkpt lat="48.70649" lon="7.33051">
        <ele>425</ele>
        <time>2022-04-06T03:36:45Z</time>
      </trkpt>
      <trkpt lat="48.70631" lon="7.33039">
        <ele>426</ele>
        <time>2022-04-06T03:36:49Z</time>
      </trkpt>
      <trkpt lat="48.70608" lon="7.3303">
        <ele>426</ele>
        <time>2022-04-06T03:36:53Z</time>
      </trkpt>
      <trkpt lat="48.70518" lon="7.33009">
        <ele>423</ele>
        <time>2022-04-06T03:37:09Z</time>
      </trkpt>
      <trkpt lat="48.70467" lon="7.32994">
        <ele>423</ele>
        <time>2022-04-06T03:37:19Z</time>
      </trkpt>
      <trkpt lat="48.70433" lon="7.3298">
        <ele>424</ele>
        <time>2022-04-06T03:37:25Z</time>
      </trkpt>
      <trkpt lat="48.70357" lon="7.32966">
        <ele>421</ele>
        <time>2022-04-06T03:37:38Z</time>
      </trkpt>
      <trkpt lat="48.70332" lon="7.32957">
        <ele>422</ele>
        <time>2022-04-06T03:37:43Z</time>
      </trkpt>
      <trkpt lat="48.70153" lon="7.32982">
        <ele>409</ele>
        <time>2022-04-06T03:38:15Z</time>
      </trkpt>
      <trkpt lat="48.70083" lon="7.32997">
        <ele>407</ele>
        <time>2022-04-06T03:38:28Z</time>
      </trkpt>
      <trkpt lat="48.70035" lon="7.33013">
        <ele>403</ele>
        <time>2022-04-06T03:38:36Z</time>
      </trkpt>
      <trkpt lat="48.70015" lon="7.33022">
        <ele>401</ele>
        <time>2022-04-06T03:38:40Z</time>
      </trkpt>
      <trkpt lat="48.69987" lon="7.33028">
        <ele>400</ele>
        <time>2022-04-06T03:38:45Z</time>
      </trkpt>
      <trkpt lat="48.69957" lon="7.33025">
        <ele>402</ele>
        <time>2022-04-06T03:38:50Z</time>
      </trkpt>
      <trkpt lat="48.69936" lon="7.33023">
        <ele>403</ele>
        <time>2022-04-06T03:38:54Z</time>
      </trkpt>
      <trkpt lat="48.69904" lon="7.33025">
        <ele>401</ele>
        <time>2022-04-06T03:39:00Z</time>
      </trkpt>
      <trkpt lat="48.69879" lon="7.33018">
        <ele>400</ele>
        <time>2022-04-06T03:39:04Z</time>
      </trkpt>
      <trkpt lat="48.69825" lon="7.32986">
        <ele>399</ele>
        <time>2022-04-06T03:39:15Z</time>
      </trkpt>
      <trkpt lat="48.69786" lon="7.32952">
        <ele>397</ele>
        <time>2022-04-06T03:39:23Z</time>
      </trkpt>
      <trkpt lat="48.69765" lon="7.32922">
        <ele>396</ele>
        <time>2022-04-06T03:39:28Z</time>
      </trkpt>
      <trkpt lat="48.69707" lon="7.32814">
        <ele>393</ele>
        <time>2022-04-06T03:39:44Z</time>
      </trkpt>
      <trkpt lat="48.69697" lon="7.32789">
        <ele>392</ele>
        <time>2022-04-06T03:39:48Z</time>
      </trkpt>
      <trkpt lat="48.69689" lon="7.3277">
        <ele>390</ele>
        <time>2022-04-06T03:39:50Z</time>
      </trkpt>
      <trkpt lat="48.69677" lon="7.32735">
        <ele>388</ele>
        <time>2022-04-06T03:39:55Z</time>
      </trkpt>
      <trkpt lat="48.69671" lon="7.32706">
        <ele>388</ele>
        <time>2022-04-06T03:39:58Z</time>
      </trkpt>
      <trkpt lat="48.69669" lon="7.32687">
        <ele>388</ele>
        <time>2022-04-06T03:40:01Z</time>
      </trkpt>
      <trkpt lat="48.69668" lon="7.32666">
        <ele>388</ele>
        <time>2022-04-06T03:40:03Z</time>
      </trkpt>
      <trkpt lat="48.69659" lon="7.32649">
        <ele>388</ele>
        <time>2022-04-06T03:40:06Z</time>
      </trkpt>
      <trkpt lat="48.6965" lon="7.32642">
        <ele>388</ele>
        <time>2022-04-06T03:40:08Z</time>
      </trkpt>
      <trkpt lat="48.69642" lon="7.3264">
        <ele>389</ele>
        <time>2022-04-06T03:40:09Z</time>
      </trkpt>
      <trkpt lat="48.69636" lon="7.32641">
        <ele>389</ele>
        <time>2022-04-06T03:40:10Z</time>
      </trkpt>
      <trkpt lat="48.69612" lon="7.32647">
        <ele>390</ele>
        <time>2022-04-06T03:40:14Z</time>
      </trkpt>
      <trkpt lat="48.69596" lon="7.32649">
        <ele>391</ele>
        <time>2022-04-06T03:40:17Z</time>
      </trkpt>
      <trkpt lat="48.69591" lon="7.3265">
        <ele>391</ele>
        <time>2022-04-06T03:40:18Z</time>
      </trkpt>
      <trkpt lat="48.69547" lon="7.32655">
        <ele>393</ele>
        <time>2022-04-06T03:40:26Z</time>
      </trkpt>
      <trkpt lat="48.69489" lon="7.32666">
        <ele>395</ele>
        <time>2022-04-06T03:40:36Z</time>
      </trkpt>
      <trkpt lat="48.69462" lon="7.32669">
        <ele>396</ele>
        <time>2022-04-06T03:40:41Z</time>
      </trkpt>
      <trkpt lat="48.69386" lon="7.32668">
        <ele>397</ele>
        <time>2022-04-06T03:40:55Z</time>
      </trkpt>
      <trkpt lat="48.69313" lon="7.32636">
        <ele>400</ele>
        <time>2022-04-06T03:41:08Z</time>
      </trkpt>
      <trkpt lat="48.6927" lon="7.32609">
        <ele>403</ele>
        <time>2022-04-06T03:41:17Z</time>
      </trkpt>
      <trkpt lat="48.69242" lon="7.32587">
        <ele>404</ele>
        <time>2022-04-06T03:41:22Z</time>
      </trkpt>
      <trkpt lat="48.69197" lon="7.3252">
        <ele>409</ele>
        <time>2022-04-06T03:41:33Z</time>
      </trkpt>
      <trkpt lat="48.6915" lon="7.32443">
        <ele>417</ele>
        <time>2022-04-06T03:41:46Z</time>
      </trkpt>
      <trkpt lat="48.6893" lon="7.32228">
        <ele>430</ele>
        <time>2022-04-06T03:42:32Z</time>
      </trkpt>
      <trkpt lat="48.68876" lon="7.32151">
        <ele>435</ele>
        <time>2022-04-06T03:42:45Z</time>
      </trkpt>
      <trkpt lat="48.68768" lon="7.31982">
        <ele>446</ele>
        <time>2022-04-06T03:43:13Z</time>
      </trkpt>
      <trkpt lat="48.68708" lon="7.31882">
        <ele>451</ele>
        <time>2022-04-06T03:43:29Z</time>
      </trkpt>
      <trkpt lat="48.68698" lon="7.31862">
        <ele>451</ele>
        <time>2022-04-06T03:43:32Z</time>
      </trkpt>
      <trkpt lat="48.68679" lon="7.31806">
        <ele>452</ele>
        <time>2022-04-06T03:43:39Z</time>
      </trkpt>
      <trkpt lat="48.68663" lon="7.31733">
        <ele>455</ele>
        <time>2022-04-06T03:43:48Z</time>
      </trkpt>
      <trkpt lat="48.68657" lon="7.31714">
        <ele>456</ele>
        <time>2022-04-06T03:43:51Z</time>
      </trkpt>
      <trkpt lat="48.68648" lon="7.31695">
        <ele>456</ele>
        <time>2022-04-06T03:43:54Z</time>
      </trkpt>
      <trkpt lat="48.68622" lon="7.31648">
        <ele>457</ele>
        <time>2022-04-06T03:44:01Z</time>
      </trkpt>
      <trkpt lat="48.68592" lon="7.31612">
        <ele>457</ele>
        <time>2022-04-06T03:44:08Z</time>
      </trkpt>
      <trkpt lat="48.68555" lon="7.3158">
        <ele>462</ele>
        <time>2022-04-06T03:44:15Z</time>
      </trkpt>
      <trkpt lat="48.68473" lon="7.31557">
        <ele>466</ele>
        <time>2022-04-06T03:44:30Z</time>
      </trkpt>
      <trkpt lat="48.68439" lon="7.31537">
        <ele>469</ele>
        <time>2022-04-06T03:44:36Z</time>
      </trkpt>
      <trkpt lat="48.68348" lon="7.31471">
        <ele>474</ele>
        <time>2022-04-06T03:44:54Z</time>
      </trkpt>
      <trkpt lat="48.68243" lon="7.31382">
        <ele>473</ele>
        <time>2022-04-06T03:45:16Z</time>
      </trkpt>
      <trkpt lat="48.68229" lon="7.31365">
        <ele>472</ele>
        <time>2022-04-06T03:45:19Z</time>
      </trkpt>
      <trkpt lat="48.68216" lon="7.31345">
        <ele>472</ele>
        <time>2022-04-06T03:45:22Z</time>
      </trkpt>
      <trkpt lat="48.68157" lon="7.31221">
        <ele>475</ele>
        <time>2022-04-06T03:45:40Z</time>
      </trkpt>
      <trkpt lat="48.68129" lon="7.31156">
        <ele>480</ele>
        <time>2022-04-06T03:45:49Z</time>
      </trkpt>
      <trkpt lat="48.68128" lon="7.31171">
        <ele>480</ele>
        <time>2022-04-06T03:45:51Z</time>
      </trkpt>
      <trkpt lat="48.68134" lon="7.31223">
        <ele>478</ele>
        <time>2022-04-06T03:45:57Z</time>
      </trkpt>
      <trkpt lat="48.68133" lon="7.31239">
        <ele>477</ele>
        <time>2022-04-06T03:45:59Z</time>
      </trkpt>
      <trkpt lat="48.68132" lon="7.31255">
        <ele>477</ele>
        <time>2022-04-06T03:46:01Z</time>
      </trkpt>
      <trkpt lat="48.68128" lon="7.31274">
        <ele>476</ele>
        <time>2022-04-06T03:46:04Z</time>
      </trkpt>
      <trkpt lat="48.68117" lon="7.31304">
        <ele>474</ele>
        <time>2022-04-06T03:46:08Z</time>
      </trkpt>
      <trkpt lat="48.68111" lon="7.31313">
        <ele>473</ele>
        <time>2022-04-06T03:46:09Z</time>
      </trkpt>
      <trkpt lat="48.68089" lon="7.3133">
        <ele>472</ele>
        <time>2022-04-06T03:46:13Z</time>
      </trkpt>
      <trkpt lat="48.6799" lon="7.31384">
        <ele>466</ele>
        <time>2022-04-06T03:46:32Z</time>
      </trkpt>
      <trkpt lat="48.67976" lon="7.31385">
        <ele>462</ele>
        <time>2022-04-06T03:46:35Z</time>
      </trkpt>
      <trkpt lat="48.67966" lon="7.31383">
        <ele>461</ele>
        <time>2022-04-06T03:46:36Z</time>
      </trkpt>
      <trkpt lat="48.6795" lon="7.31373">
        <ele>461</ele>
        <time>2022-04-06T03:46:40Z</time>
      </trkpt>
      <trkpt lat="48.67912" lon="7.3133">
        <ele>468</ele>
        <time>2022-04-06T03:46:48Z</time>
      </trkpt>
      <trkpt lat="48.67895" lon="7.31317">
        <ele>470</ele>
        <time>2022-04-06T03:46:51Z</time>
      </trkpt>
      <trkpt lat="48.67875" lon="7.31308">
        <ele>471</ele>
        <time>2022-04-06T03:46:55Z</time>
      </trkpt>
      <trkpt lat="48.67856" lon="7.31309">
        <ele>469</ele>
        <time>2022-04-06T03:46:58Z</time>
      </trkpt>
      <trkpt lat="48.67833" lon="7.31318">
        <ele>463</ele>
        <time>2022-04-06T03:47:03Z</time>
      </trkpt>
      <trkpt lat="48.67751" lon="7.31355">
        <ele>456</ele>
        <time>2022-04-06T03:47:18Z</time>
      </trkpt>
      <trkpt lat="48.6772" lon="7.31357">
        <ele>457</ele>
        <time>2022-04-06T03:47:23Z</time>
      </trkpt>
      <trkpt lat="48.677" lon="7.31356">
        <ele>459</ele>
        <time>2022-04-06T03:47:27Z</time>
      </trkpt>
      <trkpt lat="48.67687" lon="7.31359">
        <ele>458</ele>
        <time>2022-04-06T03:47:29Z</time>
      </trkpt>
      <trkpt lat="48.67674" lon="7.31365">
        <ele>456</ele>
        <time>2022-04-06T03:47:32Z</time>
      </trkpt>
      <trkpt lat="48.67657" lon="7.31381">
        <ele>448</ele>
        <time>2022-04-06T03:47:35Z</time>
      </trkpt>
      <trkpt lat="48.67647" lon="7.31388">
        <ele>444</ele>
        <time>2022-04-06T03:47:37Z</time>
      </trkpt>
      <trkpt lat="48.67629" lon="7.31392">
        <ele>442</ele>
        <time>2022-04-06T03:47:40Z</time>
      </trkpt>
      <trkpt lat="48.67579" lon="7.31396">
        <ele>440</ele>
        <time>2022-04-06T03:47:49Z</time>
      </trkpt>
      <trkpt lat="48.67557" lon="7.31393">
        <ele>437</ele>
        <time>2022-04-06T03:47:53Z</time>
      </trkpt>
      <trkpt lat="48.67503" lon="7.31376">
        <ele>432</ele>
        <time>2022-04-06T03:48:03Z</time>
      </trkpt>
      <trkpt lat="48.67489" lon="7.31367">
        <ele>430</ele>
        <time>2022-04-06T03:48:06Z</time>
      </trkpt>
      <trkpt lat="48.67456" lon="7.31326">
        <ele>427</ele>
        <time>2022-04-06T03:48:13Z</time>
      </trkpt>
      <trkpt lat="48.67432" lon="7.31272">
        <ele>425</ele>
        <time>2022-04-06T03:48:21Z</time>
      </trkpt>
      <trkpt lat="48.67418" lon="7.31224">
        <ele>423</ele>
        <time>2022-04-06T03:48:27Z</time>
      </trkpt>
      <trkpt lat="48.67408" lon="7.3117">
        <ele>422</ele>
        <time>2022-04-06T03:48:34Z</time>
      </trkpt>
      <trkpt lat="48.67397" lon="7.31076">
        <ele>422</ele>
        <time>2022-04-06T03:48:45Z</time>
      </trkpt>
      <trkpt lat="48.67391" lon="7.30969">
        <ele>427</ele>
        <time>2022-04-06T03:48:58Z</time>
      </trkpt>
      <trkpt lat="48.67385" lon="7.30949">
        <ele>426</ele>
        <time>2022-04-06T03:49:00Z</time>
      </trkpt>
      <trkpt lat="48.67376" lon="7.30929">
        <ele>423</ele>
        <time>2022-04-06T03:49:03Z</time>
      </trkpt>
      <trkpt lat="48.67362" lon="7.30903">
        <ele>420</ele>
        <time>2022-04-06T03:49:07Z</time>
      </trkpt>
      <trkpt lat="48.67328" lon="7.30854">
        <ele>411</ele>
        <time>2022-04-06T03:49:15Z</time>
      </trkpt>
      <trkpt lat="48.67313" lon="7.30825">
        <ele>409</ele>
        <time>2022-04-06T03:49:20Z</time>
      </trkpt>
      <trkpt lat="48.67274" lon="7.30725">
        <ele>407</ele>
        <time>2022-04-06T03:49:33Z</time>
      </trkpt>
      <trkpt lat="48.67244" lon="7.3064">
        <ele>403</ele>
        <time>2022-04-06T03:49:45Z</time>
      </trkpt>
      <trkpt lat="48.67234" lon="7.30604">
        <ele>402</ele>
        <time>2022-04-06T03:49:49Z</time>
      </trkpt>
      <trkpt lat="48.67216" lon="7.30522">
        <ele>401</ele>
        <time>2022-04-06T03:49:59Z</time>
      </trkpt>
      <trkpt lat="48.67205" lon="7.30448">
        <ele>405</ele>
        <time>2022-04-06T03:50:08Z</time>
      </trkpt>
      <trkpt lat="48.67201" lon="7.30434">
        <ele>405</ele>
        <time>2022-04-06T03:50:10Z</time>
      </trkpt>
      <trkpt lat="48.67195" lon="7.30424">
        <ele>405</ele>
        <time>2022-04-06T03:50:12Z</time>
      </trkpt>
      <trkpt lat="48.67134" lon="7.30395">
        <ele>396</ele>
        <time>2022-04-06T03:50:23Z</time>
      </trkpt>
      <trkpt lat="48.67116" lon="7.30381">
        <ele>396</ele>
        <time>2022-04-06T03:50:27Z</time>
      </trkpt>
      <trkpt lat="48.67044" lon="7.30307">
        <ele>395</ele>
        <time>2022-04-06T03:50:42Z</time>
      </trkpt>
      <trkpt lat="48.66987" lon="7.30231">
        <ele>393</ele>
        <time>2022-04-06T03:50:56Z</time>
      </trkpt>
      <trkpt lat="48.66954" lon="7.30183">
        <ele>391</ele>
        <time>2022-04-06T03:51:04Z</time>
      </trkpt>
      <trkpt lat="48.66946" lon="7.30176">
        <ele>389</ele>
        <time>2022-04-06T03:51:05Z</time>
      </trkpt>
      <trkpt lat="48.66939" lon="7.30173">
        <ele>388</ele>
        <time>2022-04-06T03:51:07Z</time>
      </trkpt>
      <trkpt lat="48.66931" lon="7.30178">
        <ele>386</ele>
        <time>2022-04-06T03:51:08Z</time>
      </trkpt>
      <trkpt lat="48.66924" lon="7.30189">
        <ele>384</ele>
        <time>2022-04-06T03:51:10Z</time>
      </trkpt>
      <trkpt lat="48.66922" lon="7.302">
        <ele>384</ele>
        <time>2022-04-06T03:51:11Z</time>
      </trkpt>
      <trkpt lat="48.66923" lon="7.30214">
        <ele>384</ele>
        <time>2022-04-06T03:51:13Z</time>
      </trkpt>
      <trkpt lat="48.66931" lon="7.30239">
        <ele>385</ele>
        <time>2022-04-06T03:51:16Z</time>
      </trkpt>
      <trkpt lat="48.6708" lon="7.30465">
        <ele>376</ele>
        <time>2022-04-06T03:51:54Z</time>
      </trkpt>
      <trkpt lat="48.67125" lon="7.30536">
        <ele>377</ele>
        <time>2022-04-06T03:52:05Z</time>
      </trkpt>
      <trkpt lat="48.67148" lon="7.30592">
        <ele>375</ele>
        <time>2022-04-06T03:52:13Z</time>
      </trkpt>
      <trkpt lat="48.67169" lon="7.30647">
        <ele>371</ele>
        <time>2022-04-06T03:52:21Z</time>
      </trkpt>
      <trkpt lat="48.67175" lon="7.30672">
        <ele>371</ele>
        <time>2022-04-06T03:52:24Z</time>
      </trkpt>
      <trkpt lat="48.6719" lon="7.30804">
        <ele>371</ele>
        <time>2022-04-06T03:52:40Z</time>
      </trkpt>
      <trkpt lat="48.67199" lon="7.30841">
        <ele>371</ele>
        <time>2022-04-06T03:52:44Z</time>
      </trkpt>
      <trkpt lat="48.67231" lon="7.30942">
        <ele>364</ele>
        <time>2022-04-06T03:52:57Z</time>
      </trkpt>
      <trkpt lat="48.67245" lon="7.3098">
        <ele>358</ele>
        <time>2022-04-06T03:53:02Z</time>
      </trkpt>
      <trkpt lat="48.67255" lon="7.3101">
        <ele>357</ele>
        <time>2022-04-06T03:53:06Z</time>
      </trkpt>
      <trkpt lat="48.67258" lon="7.31029">
        <ele>357</ele>
        <time>2022-04-06T03:53:09Z</time>
      </trkpt>
      <trkpt lat="48.67259" lon="7.31052">
        <ele>357</ele>
        <time>2022-04-06T03:53:11Z</time>
      </trkpt>
      <trkpt lat="48.67255" lon="7.31053">
        <ele>355</ele>
        <time>2022-04-06T03:53:12Z</time>
      </trkpt>
      <trkpt lat="48.67249" lon="7.31059">
        <ele>353</ele>
        <time>2022-04-06T03:53:13Z</time>
      </trkpt>
      <trkpt lat="48.67245" lon="7.3107">
        <ele>354</ele>
        <time>2022-04-06T03:53:15Z</time>
      </trkpt>
      <trkpt lat="48.67234" lon="7.31132">
        <ele>355</ele>
        <time>2022-04-06T03:53:22Z</time>
      </trkpt>
      <trkpt lat="48.67225" lon="7.31193">
        <ele>356</ele>
        <time>2022-04-06T03:53:30Z</time>
      </trkpt>
      <trkpt lat="48.67215" lon="7.31248">
        <ele>357</ele>
        <time>2022-04-06T03:53:36Z</time>
      </trkpt>
      <trkpt lat="48.67203" lon="7.31299">
        <ele>356</ele>
        <time>2022-04-06T03:53:43Z</time>
      </trkpt>
      <trkpt lat="48.67189" lon="7.31338">
        <ele>355</ele>
        <time>2022-04-06T03:53:48Z</time>
      </trkpt>
      <trkpt lat="48.67173" lon="7.31374">
        <ele>354</ele>
        <time>2022-04-06T03:53:53Z</time>
      </trkpt>
      <trkpt lat="48.67162" lon="7.31393">
        <ele>353</ele>
        <time>2022-04-06T03:53:56Z</time>
      </trkpt>
      <trkpt lat="48.67145" lon="7.31413">
        <ele>355</ele>
        <time>2022-04-06T03:54:00Z</time>
      </trkpt>
      <trkpt lat="48.67115" lon="7.31435">
        <ele>359</ele>
        <time>2022-04-06T03:54:06Z</time>
      </trkpt>
      <trkpt lat="48.67077" lon="7.31453">
        <ele>364</ele>
        <time>2022-04-06T03:54:13Z</time>
      </trkpt>
      <trkpt lat="48.67053" lon="7.31457">
        <ele>367</ele>
        <time>2022-04-06T03:54:17Z</time>
      </trkpt>
      <trkpt lat="48.67018" lon="7.31458">
        <ele>372</ele>
        <time>2022-04-06T03:54:23Z</time>
      </trkpt>
      <trkpt lat="48.66809" lon="7.31431">
        <ele>388</ele>
        <time>2022-04-06T03:55:01Z</time>
      </trkpt>
      <trkpt lat="48.66641" lon="7.31403">
        <ele>403</ele>
        <time>2022-04-06T03:55:31Z</time>
      </trkpt>
      <trkpt lat="48.66515" lon="7.31386">
        <ele>418</ele>
        <time>2022-04-06T03:55:53Z</time>
      </trkpt>
      <trkpt lat="48.6634" lon="7.31357">
        <ele>431</ele>
        <time>2022-04-06T03:56:25Z</time>
      </trkpt>
      <trkpt lat="48.66314" lon="7.31345">
        <ele>431</ele>
        <time>2022-04-06T03:56:30Z</time>
      </trkpt>
      <trkpt lat="48.66238" lon="7.31275">
        <ele>435</ele>
        <time>2022-04-06T03:56:45Z</time>
      </trkpt>
      <trkpt lat="48.66184" lon="7.31219">
        <ele>433</ele>
        <time>2022-04-06T03:56:57Z</time>
      </trkpt>
      <trkpt lat="48.6613" lon="7.31177">
        <ele>425</ele>
        <time>2022-04-06T03:57:08Z</time>
      </trkpt>
      <trkpt lat="48.66105" lon="7.31147">
        <ele>425</ele>
        <time>2022-04-06T03:57:14Z</time>
      </trkpt>
      <trkpt lat="48.66094" lon="7.31138">
        <ele>425</ele>
        <time>2022-04-06T03:57:16Z</time>
      </trkpt>
      <trkpt lat="48.66084" lon="7.31136">
        <ele>423</ele>
        <time>2022-04-06T03:57:18Z</time>
      </trkpt>
      <trkpt lat="48.66004" lon="7.31152">
        <ele>410</ele>
        <time>2022-04-06T03:57:32Z</time>
      </trkpt>
      <trkpt lat="48.65937" lon="7.31151">
        <ele>409</ele>
        <time>2022-04-06T03:57:44Z</time>
      </trkpt>
      <trkpt lat="48.65833" lon="7.31145">
        <ele>413</ele>
        <time>2022-04-06T03:58:02Z</time>
      </trkpt>
      <trkpt lat="48.65765" lon="7.31146">
        <ele>418</ele>
        <time>2022-04-06T03:58:14Z</time>
      </trkpt>
      <trkpt lat="48.65756" lon="7.31149">
        <ele>418</ele>
        <time>2022-04-06T03:58:16Z</time>
      </trkpt>
      <trkpt lat="48.65748" lon="7.31158">
        <ele>417</ele>
        <time>2022-04-06T03:58:18Z</time>
      </trkpt>
      <trkpt lat="48.6573" lon="7.31199">
        <ele>409</ele>
        <time>2022-04-06T03:58:24Z</time>
      </trkpt>
      <trkpt lat="48.65722" lon="7.31207">
        <ele>408</ele>
        <time>2022-04-06T03:58:25Z</time>
      </trkpt>
      <trkpt lat="48.65713" lon="7.31209">
        <ele>408</ele>
        <time>2022-04-06T03:58:27Z</time>
      </trkpt>
      <trkpt lat="48.65699" lon="7.31208">
        <ele>408</ele>
        <time>2022-04-06T03:58:29Z</time>
      </trkpt>
      <trkpt lat="48.65679" lon="7.31201">
        <ele>409</ele>
        <time>2022-04-06T03:58:33Z</time>
      </trkpt>
      <trkpt lat="48.6567" lon="7.31194">
        <ele>410</ele>
        <time>2022-04-06T03:58:35Z</time>
      </trkpt>
      <trkpt lat="48.65658" lon="7.31174">
        <ele>411</ele>
        <time>2022-04-06T03:58:38Z</time>
      </trkpt>
      <trkpt lat="48.65627" lon="7.31097">
        <ele>415</ele>
        <time>2022-04-06T03:58:49Z</time>
      </trkpt>
      <trkpt lat="48.65621" lon="7.31085">
        <ele>415</ele>
        <time>2022-04-06T03:58:50Z</time>
      </trkpt>
      <trkpt lat="48.65613" lon="7.3108">
        <ele>414</ele>
        <time>2022-04-06T03:58:52Z</time>
      </trkpt>
      <trkpt lat="48.65598" lon="7.31079">
        <ele>412</ele>
        <time>2022-04-06T03:58:55Z</time>
      </trkpt>
      <trkpt lat="48.6556" lon="7.31085">
        <ele>410</ele>
        <time>2022-04-06T03:59:01Z</time>
      </trkpt>
      <trkpt lat="48.65534" lon="7.31096">
        <ele>411</ele>
        <time>2022-04-06T03:59:06Z</time>
      </trkpt>
      <trkpt lat="48.65525" lon="7.31104">
        <ele>410</ele>
        <time>2022-04-06T03:59:08Z</time>
      </trkpt>
      <trkpt lat="48.65518" lon="7.3112">
        <ele>409</ele>
        <time>2022-04-06T03:59:10Z</time>
      </trkpt>
      <trkpt lat="48.655" lon="7.3119">
        <ele>403</ele>
        <time>2022-04-06T03:59:19Z</time>
      </trkpt>
      <trkpt lat="48.65487" lon="7.31233">
        <ele>405</ele>
        <time>2022-04-06T03:59:25Z</time>
      </trkpt>
      <trkpt lat="48.65474" lon="7.3127">
        <ele>406</ele>
        <time>2022-04-06T03:59:30Z</time>
      </trkpt>
      <trkpt lat="48.65452" lon="7.31309">
        <ele>407</ele>
        <time>2022-04-06T03:59:36Z</time>
      </trkpt>
      <trkpt lat="48.65406" lon="7.31378">
        <ele>405</ele>
        <time>2022-04-06T03:59:47Z</time>
      </trkpt>
      <trkpt lat="48.65388" lon="7.31394">
        <ele>404</ele>
        <time>2022-04-06T03:59:51Z</time>
      </trkpt>
      <trkpt lat="48.65368" lon="7.31402">
        <ele>403</ele>
        <time>2022-04-06T03:59:55Z</time>
      </trkpt>
      <trkpt lat="48.65332" lon="7.31397">
        <ele>404</ele>
        <time>2022-04-06T04:00:01Z</time>
      </trkpt>
      <trkpt lat="48.65283" lon="7.31371">
        <ele>399</ele>
        <time>2022-04-06T04:00:10Z</time>
      </trkpt>
      <trkpt lat="48.65268" lon="7.31359">
        <ele>397</ele>
        <time>2022-04-06T04:00:13Z</time>
      </trkpt>
      <trkpt lat="48.65253" lon="7.31345">
        <ele>396</ele>
        <time>2022-04-06T04:00:16Z</time>
      </trkpt>
      <trkpt lat="48.65239" lon="7.31322">
        <ele>394</ele>
        <time>2022-04-06T04:00:20Z</time>
      </trkpt>
      <trkpt lat="48.65211" lon="7.31259">
        <ele>392</ele>
        <time>2022-04-06T04:00:29Z</time>
      </trkpt>
      <trkpt lat="48.65194" lon="7.31202">
        <ele>390</ele>
        <time>2022-04-06T04:00:36Z</time>
      </trkpt>
      <trkpt lat="48.65175" lon="7.31102">
        <ele>392</ele>
        <time>2022-04-06T04:00:49Z</time>
      </trkpt>
      <trkpt lat="48.65162" lon="7.3104">
        <ele>395</ele>
        <time>2022-04-06T04:00:56Z</time>
      </trkpt>
      <trkpt lat="48.65154" lon="7.31019">
        <ele>397</ele>
        <time>2022-04-06T04:00:59Z</time>
      </trkpt>
      <trkpt lat="48.65141" lon="7.30995">
        <ele>399</ele>
        <time>2022-04-06T04:01:03Z</time>
      </trkpt>
      <trkpt lat="48.65112" lon="7.30952">
        <ele>400</ele>
        <time>2022-04-06T04:01:10Z</time>
      </trkpt>
      <trkpt lat="48.65101" lon="7.30943">
        <ele>400</ele>
        <time>2022-04-06T04:01:12Z</time>
      </trkpt>
      <trkpt lat="48.65089" lon="7.30942">
        <ele>398</ele>
        <time>2022-04-06T04:01:14Z</time>
      </trkpt>
      <trkpt lat="48.65082" lon="7.30947">
        <ele>398</ele>
        <time>2022-04-06T04:01:16Z</time>
      </trkpt>
      <trkpt lat="48.65078" lon="7.30956">
        <ele>400</ele>
        <time>2022-04-06T04:01:17Z</time>
      </trkpt>
      <trkpt lat="48.65077" lon="7.30974">
        <ele>400</ele>
        <time>2022-04-06T04:01:19Z</time>
      </trkpt>
      <trkpt lat="48.65081" lon="7.31032">
        <ele>398</ele>
        <time>2022-04-06T04:01:26Z</time>
      </trkpt>
      <trkpt lat="48.65082" lon="7.31079">
        <ele>396</ele>
        <time>2022-04-06T04:01:32Z</time>
      </trkpt>
      <trkpt lat="48.65076" lon="7.31138">
        <ele>398</ele>
        <time>2022-04-06T04:01:39Z</time>
      </trkpt>
      <trkpt lat="48.65069" lon="7.31172">
        <ele>399</ele>
        <time>2022-04-06T04:01:43Z</time>
      </trkpt>
      <trkpt lat="48.6506" lon="7.31197">
        <ele>398</ele>
        <time>2022-04-06T04:01:46Z</time>
      </trkpt>
      <trkpt lat="48.65032" lon="7.31248">
        <ele>401</ele>
        <time>2022-04-06T04:01:54Z</time>
      </trkpt>
      <trkpt lat="48.64984" lon="7.31324">
        <ele>400</ele>
        <time>2022-04-06T04:02:06Z</time>
      </trkpt>
      <trkpt lat="48.64971" lon="7.31339">
        <ele>399</ele>
        <time>2022-04-06T04:02:09Z</time>
      </trkpt>
      <trkpt lat="48.64953" lon="7.31353">
        <ele>400</ele>
        <time>2022-04-06T04:02:13Z</time>
      </trkpt>
      <trkpt lat="48.64929" lon="7.31365">
        <ele>402</ele>
        <time>2022-04-06T04:02:17Z</time>
      </trkpt>
      <trkpt lat="48.64894" lon="7.31374">
        <ele>404</ele>
        <time>2022-04-06T04:02:24Z</time>
      </trkpt>
      <trkpt lat="48.6484" lon="7.3138">
        <ele>409</ele>
        <time>2022-04-06T04:02:33Z</time>
      </trkpt>
      <trkpt lat="48.64814" lon="7.31379">
        <ele>411</ele>
        <time>2022-04-06T04:02:38Z</time>
      </trkpt>
      <trkpt lat="48.6476" lon="7.31362">
        <ele>415</ele>
        <time>2022-04-06T04:02:48Z</time>
      </trkpt>
      <trkpt lat="48.64746" lon="7.31355">
        <ele>416</ele>
        <time>2022-04-06T04:02:50Z</time>
      </trkpt>
      <trkpt lat="48.64699" lon="7.31313">
        <ele>416</ele>
        <time>2022-04-06T04:03:00Z</time>
      </trkpt>
      <trkpt lat="48.64658" lon="7.31256">
        <ele>418</ele>
        <time>2022-04-06T04:03:10Z</time>
      </trkpt>
      <trkpt lat="48.64648" lon="7.3123">
        <ele>419</ele>
        <time>2022-04-06T04:03:13Z</time>
      </trkpt>
      <trkpt lat="48.64636" lon="7.31191">
        <ele>420</ele>
        <time>2022-04-06T04:03:18Z</time>
      </trkpt>
      <trkpt lat="48.64617" lon="7.31109">
        <ele>423</ele>
        <time>2022-04-06T04:03:29Z</time>
      </trkpt>
      <trkpt lat="48.64607" lon="7.3108">
        <ele>424</ele>
        <time>2022-04-06T04:03:33Z</time>
      </trkpt>
      <trkpt lat="48.64599" lon="7.31063">
        <ele>423</ele>
        <time>2022-04-06T04:03:35Z</time>
      </trkpt>
      <trkpt lat="48.64586" lon="7.31051">
        <ele>421</ele>
        <time>2022-04-06T04:03:38Z</time>
      </trkpt>
      <trkpt lat="48.64552" lon="7.31041">
        <ele>423</ele>
        <time>2022-04-06T04:03:44Z</time>
      </trkpt>
      <trkpt lat="48.64538" lon="7.31044">
        <ele>424</ele>
        <time>2022-04-06T04:03:46Z</time>
      </trkpt>
      <trkpt lat="48.64522" lon="7.31056">
        <ele>424</ele>
        <time>2022-04-06T04:03:50Z</time>
      </trkpt>
      <trkpt lat="48.64496" lon="7.31086">
        <ele>425</ele>
        <time>2022-04-06T04:03:55Z</time>
      </trkpt>
      <trkpt lat="48.64482" lon="7.31105">
        <ele>426</ele>
        <time>2022-04-06T04:03:59Z</time>
      </trkpt>
      <trkpt lat="48.64466" lon="7.31156">
        <ele>426</ele>
        <time>2022-04-06T04:04:05Z</time>
      </trkpt>
      <trkpt lat="48.64433" lon="7.31231">
        <ele>430</ele>
        <time>2022-04-06T04:04:16Z</time>
      </trkpt>
      <trkpt lat="48.64423" lon="7.31262">
        <ele>431</ele>
        <time>2022-04-06T04:04:20Z</time>
      </trkpt>
      <trkpt lat="48.64413" lon="7.31314">
        <ele>432</ele>
        <time>2022-04-06T04:04:26Z</time>
      </trkpt>
      <trkpt lat="48.64403" lon="7.31387">
        <ele>434</ele>
        <time>2022-04-06T04:04:35Z</time>
      </trkpt>
      <trkpt lat="48.64401" lon="7.31421">
        <ele>435</ele>
        <time>2022-04-06T04:04:39Z</time>
      </trkpt>
      <trkpt lat="48.64405" lon="7.31486">
        <ele>437</ele>
        <time>2022-04-06T04:04:47Z</time>
      </trkpt>
      <trkpt lat="48.64404" lon="7.31519">
        <ele>439</ele>
        <time>2022-04-06T04:04:51Z</time>
      </trkpt>
      <trkpt lat="48.644" lon="7.31549">
        <ele>441</ele>
        <time>2022-04-06T04:04:54Z</time>
      </trkpt>
      <trkpt lat="48.64394" lon="7.31578">
        <ele>443</ele>
        <time>2022-04-06T04:04:58Z</time>
      </trkpt>
      <trkpt lat="48.64353" lon="7.31726">
        <ele>449</ele>
        <time>2022-04-06T04:05:17Z</time>
      </trkpt>
      <trkpt lat="48.64328" lon="7.31797">
        <ele>452</ele>
        <time>2022-04-06T04:05:26Z</time>
      </trkpt>
      <trkpt lat="48.64319" lon="7.31811">
        <ele>453</ele>
        <time>2022-04-06T04:05:28Z</time>
      </trkpt>
      <trkpt lat="48.64312" lon="7.31818">
        <ele>454</ele>
        <time>2022-04-06T04:05:30Z</time>
      </trkpt>
      <trkpt lat="48.64304" lon="7.31824">
        <ele>455</ele>
        <time>2022-04-06T04:05:32Z</time>
      </trkpt>
      <trkpt lat="48.64292" lon="7.31828">
        <ele>456</ele>
        <time>2022-04-06T04:05:34Z</time>
      </trkpt>
      <trkpt lat="48.64225" lon="7.31836">
        <ele>459</ele>
        <time>2022-04-06T04:05:46Z</time>
      </trkpt>
      <trkpt lat="48.64197" lon="7.31834">
        <ele>459</ele>
        <time>2022-04-06T04:05:51Z</time>
      </trkpt>
      <trkpt lat="48.63943" lon="7.31686">
        <ele>463</ele>
        <time>2022-04-06T04:06:39Z</time>
      </trkpt>
      <trkpt lat="48.63926" lon="7.3167">
        <ele>462</ele>
        <time>2022-04-06T04:06:43Z</time>
      </trkpt>
      <trkpt lat="48.63908" lon="7.31645">
        <ele>463</ele>
        <time>2022-04-06T04:06:47Z</time>
      </trkpt>
      <trkpt lat="48.63896" lon="7.31623">
        <ele>462</ele>
        <time>2022-04-06T04:06:50Z</time>
      </trkpt>
      <trkpt lat="48.63825" lon="7.31469">
        <ele>453</ele>
        <time>2022-04-06T04:07:12Z</time>
      </trkpt>
      <trkpt lat="48.63817" lon="7.31438">
        <ele>451</ele>
        <time>2022-04-06T04:07:16Z</time>
      </trkpt>
      <trkpt lat="48.63808" lon="7.3139">
        <ele>449</ele>
        <time>2022-04-06T04:07:22Z</time>
      </trkpt>
      <trkpt lat="48.63775" lon="7.3117">
        <ele>439</ele>
        <time>2022-04-06T04:07:49Z</time>
      </trkpt>
      <trkpt lat="48.6375" lon="7.31051">
        <ele>434</ele>
        <time>2022-04-06T04:08:03Z</time>
      </trkpt>
      <trkpt lat="48.63723" lon="7.30984">
        <ele>432</ele>
        <time>2022-04-06T04:08:13Z</time>
      </trkpt>
      <trkpt lat="48.63718" lon="7.30964">
        <ele>431</ele>
        <time>2022-04-06T04:08:15Z</time>
      </trkpt>
      <trkpt lat="48.637" lon="7.30824">
        <ele>424</ele>
        <time>2022-04-06T04:08:32Z</time>
      </trkpt>
      <trkpt lat="48.63694" lon="7.30803">
        <ele>423</ele>
        <time>2022-04-06T04:08:35Z</time>
      </trkpt>
      <trkpt lat="48.63678" lon="7.30764">
        <ele>418</ele>
        <time>2022-04-06T04:08:40Z</time>
      </trkpt>
      <trkpt lat="48.63672" lon="7.30747">
        <ele>416</ele>
        <time>2022-04-06T04:08:42Z</time>
      </trkpt>
      <trkpt lat="48.6367" lon="7.30734">
        <ele>415</ele>
        <time>2022-04-06T04:08:44Z</time>
      </trkpt>
      <trkpt lat="48.63671" lon="7.30718">
        <ele>414</ele>
        <time>2022-04-06T04:08:46Z</time>
      </trkpt>
      <trkpt lat="48.63682" lon="7.30675">
        <ele>414</ele>
        <time>2022-04-06T04:08:51Z</time>
      </trkpt>
      <trkpt lat="48.6369" lon="7.30629">
        <ele>416</ele>
        <time>2022-04-06T04:08:57Z</time>
      </trkpt>
      <trkpt lat="48.63691" lon="7.30604">
        <ele>415</ele>
        <time>2022-04-06T04:09:00Z</time>
      </trkpt>
      <trkpt lat="48.6369" lon="7.30534">
        <ele>409</ele>
        <time>2022-04-06T04:09:08Z</time>
      </trkpt>
      <trkpt lat="48.6369" lon="7.3052">
        <ele>408</ele>
        <time>2022-04-06T04:09:10Z</time>
      </trkpt>
      <trkpt lat="48.63694" lon="7.30507">
        <ele>407</ele>
        <time>2022-04-06T04:09:11Z</time>
      </trkpt>
      <trkpt lat="48.63701" lon="7.30495">
        <ele>406</ele>
        <time>2022-04-06T04:09:13Z</time>
      </trkpt>
      <trkpt lat="48.6371" lon="7.30485">
        <ele>405</ele>
        <time>2022-04-06T04:09:15Z</time>
      </trkpt>
      <trkpt lat="48.63763" lon="7.30445">
        <ele>403</ele>
        <time>2022-04-06T04:09:26Z</time>
      </trkpt>
      <trkpt lat="48.63789" lon="7.30416">
        <ele>399</ele>
        <time>2022-04-06T04:09:31Z</time>
      </trkpt>
      <trkpt lat="48.63866" lon="7.30347">
        <ele>406</ele>
        <time>2022-04-06T04:09:47Z</time>
      </trkpt>
      <trkpt lat="48.63873" lon="7.30335">
        <ele>406</ele>
        <time>2022-04-06T04:09:49Z</time>
      </trkpt>
      <trkpt lat="48.63874" lon="7.30327">
        <ele>407</ele>
        <time>2022-04-06T04:09:50Z</time>
      </trkpt>
      <trkpt lat="48.63873" lon="7.30318">
        <ele>408</ele>
        <time>2022-04-06T04:09:51Z</time>
      </trkpt>
      <trkpt lat="48.63868" lon="7.30313">
        <ele>409</ele>
        <time>2022-04-06T04:09:52Z</time>
      </trkpt>
      <trkpt lat="48.63861" lon="7.30309">
        <ele>409</ele>
        <time>2022-04-06T04:09:54Z</time>
      </trkpt>
      <trkpt lat="48.63818" lon="7.30309">
        <ele>406</ele>
        <time>2022-04-06T04:10:01Z</time>
      </trkpt>
      <trkpt lat="48.63801" lon="7.30311">
        <ele>405</ele>
        <time>2022-04-06T04:10:04Z</time>
      </trkpt>
      <trkpt lat="48.63718" lon="7.30348">
        <ele>398</ele>
        <time>2022-04-06T04:10:20Z</time>
      </trkpt>
      <trkpt lat="48.63659" lon="7.30365">
        <ele>395</ele>
        <time>2022-04-06T04:10:30Z</time>
      </trkpt>
      <trkpt lat="48.63577" lon="7.30374">
        <ele>389</ele>
        <time>2022-04-06T04:10:45Z</time>
      </trkpt>
      <trkpt lat="48.63562" lon="7.30378">
        <ele>386</ele>
        <time>2022-04-06T04:10:48Z</time>
      </trkpt>
      <trkpt lat="48.63537" lon="7.30393">
        <ele>380</ele>
        <time>2022-04-06T04:10:53Z</time>
      </trkpt>
      <trkpt lat="48.63538" lon="7.30406">
        <ele>377</ele>
        <time>2022-04-06T04:10:54Z</time>
      </trkpt>
      <trkpt lat="48.6355" lon="7.30478">
        <ele>375</ele>
        <time>2022-04-06T04:11:03Z</time>
      </trkpt>
      <trkpt lat="48.63548" lon="7.30491">
        <ele>375</ele>
        <time>2022-04-06T04:11:04Z</time>
      </trkpt>
      <trkpt lat="48.63527" lon="7.30525">
        <ele>372</ele>
        <time>2022-04-06T04:11:10Z</time>
      </trkpt>
      <trkpt lat="48.63517" lon="7.30537">
        <ele>370</ele>
        <time>2022-04-06T04:11:12Z</time>
      </trkpt>
      <trkpt lat="48.63488" lon="7.30547">
        <ele>369</ele>
        <time>2022-04-06T04:11:17Z</time>
      </trkpt>
      <trkpt lat="48.63476" lon="7.30549">
        <ele>371</ele>
        <time>2022-04-06T04:11:20Z</time>
      </trkpt>
      <trkpt lat="48.63451" lon="7.30552">
        <ele>374</ele>
        <time>2022-04-06T04:11:24Z</time>
      </trkpt>
      <trkpt lat="48.63449" lon="7.30542">
        <ele>374</ele>
        <time>2022-04-06T04:11:25Z</time>
      </trkpt>
      <trkpt lat="48.63446" lon="7.30534">
        <ele>374</ele>
        <time>2022-04-06T04:11:26Z</time>
      </trkpt>
      <trkpt lat="48.63436" lon="7.3053">
        <ele>374</ele>
        <time>2022-04-06T04:11:28Z</time>
      </trkpt>
      <trkpt lat="48.6343" lon="7.30533">
        <ele>375</ele>
        <time>2022-04-06T04:11:29Z</time>
      </trkpt>
      <trkpt lat="48.63427" lon="7.30541">
        <ele>377</ele>
        <time>2022-04-06T04:11:30Z</time>
      </trkpt>
      <trkpt lat="48.63426" lon="7.3056">
        <ele>379</ele>
        <time>2022-04-06T04:11:33Z</time>
      </trkpt>
      <trkpt lat="48.63443" lon="7.30655">
        <ele>383</ele>
        <time>2022-04-06T04:11:44Z</time>
      </trkpt>
      <trkpt lat="48.63472" lon="7.3076">
        <ele>384</ele>
        <time>2022-04-06T04:11:58Z</time>
      </trkpt>
      <trkpt lat="48.63473" lon="7.30779">
        <ele>385</ele>
        <time>2022-04-06T04:12:00Z</time>
      </trkpt>
      <trkpt lat="48.63467" lon="7.3084">
        <ele>393</ele>
        <time>2022-04-06T04:12:07Z</time>
      </trkpt>
      <trkpt lat="48.63459" lon="7.30899">
        <ele>398</ele>
        <time>2022-04-06T04:12:14Z</time>
      </trkpt>
      <trkpt lat="48.63435" lon="7.31015">
        <ele>404</ele>
        <time>2022-04-06T04:12:28Z</time>
      </trkpt>
      <trkpt lat="48.6342" lon="7.3108">
        <ele>408</ele>
        <time>2022-04-06T04:12:37Z</time>
      </trkpt>
      <trkpt lat="48.63406" lon="7.31171">
        <ele>412</ele>
        <time>2022-04-06T04:12:48Z</time>
      </trkpt>
      <trkpt lat="48.634" lon="7.31258">
        <ele>409</ele>
        <time>2022-04-06T04:12:58Z</time>
      </trkpt>
      <trkpt lat="48.63401" lon="7.31299">
        <ele>407</ele>
        <time>2022-04-06T04:13:03Z</time>
      </trkpt>
      <trkpt lat="48.63399" lon="7.3131">
        <ele>407</ele>
        <time>2022-04-06T04:13:04Z</time>
      </trkpt>
      <trkpt lat="48.63394" lon="7.3132">
        <ele>407</ele>
        <time>2022-04-06T04:13:05Z</time>
      </trkpt>
      <trkpt lat="48.63388" lon="7.31321">
        <ele>408</ele>
        <time>2022-04-06T04:13:07Z</time>
      </trkpt>
      <trkpt lat="48.6338" lon="7.31314">
        <ele>410</ele>
        <time>2022-04-06T04:13:08Z</time>
      </trkpt>
      <trkpt lat="48.63376" lon="7.31304">
        <ele>411</ele>
        <time>2022-04-06T04:13:10Z</time>
      </trkpt>
      <trkpt lat="48.63378" lon="7.31257">
        <ele>414</ele>
        <time>2022-04-06T04:13:15Z</time>
      </trkpt>
      <trkpt lat="48.63377" lon="7.31206">
        <ele>417</ele>
        <time>2022-04-06T04:13:21Z</time>
      </trkpt>
      <trkpt lat="48.63363" lon="7.31069">
        <ele>420</ele>
        <time>2022-04-06T04:13:37Z</time>
      </trkpt>
      <trkpt lat="48.63341" lon="7.30897">
        <ele>423</ele>
        <time>2022-04-06T04:13:58Z</time>
      </trkpt>
      <trkpt lat="48.63283" lon="7.30744">
        <ele>426</ele>
        <time>2022-04-06T04:14:19Z</time>
      </trkpt>
      <trkpt lat="48.63279" lon="7.30728">
        <ele>427</ele>
        <time>2022-04-06T04:14:21Z</time>
      </trkpt>
      <trkpt lat="48.63273" lon="7.30692">
        <ele>428</ele>
        <time>2022-04-06T04:14:25Z</time>
      </trkpt>
      <trkpt lat="48.63267" lon="7.306">
        <ele>425</ele>
        <time>2022-04-06T04:14:36Z</time>
      </trkpt>
      <trkpt lat="48.63263" lon="7.30579">
        <ele>424</ele>
        <time>2022-04-06T04:14:39Z</time>
      </trkpt>
      <trkpt lat="48.63252" lon="7.30557">
        <ele>423</ele>
        <time>2022-04-06T04:14:42Z</time>
      </trkpt>
      <trkpt lat="48.63241" lon="7.3054">
        <ele>422</ele>
        <time>2022-04-06T04:14:45Z</time>
      </trkpt>
      <trkpt lat="48.63224" lon="7.30521">
        <ele>421</ele>
        <time>2022-04-06T04:14:48Z</time>
      </trkpt>
      <trkpt lat="48.63208" lon="7.30509">
        <ele>422</ele>
        <time>2022-04-06T04:14:52Z</time>
      </trkpt>
      <trkpt lat="48.63187" lon="7.30499">
        <ele>424</ele>
        <time>2022-04-06T04:14:55Z</time>
      </trkpt>
      <trkpt lat="48.63165" lon="7.30497">
        <ele>426</ele>
        <time>2022-04-06T04:14:59Z</time>
      </trkpt>
      <trkpt lat="48.6315" lon="7.305">
        <ele>428</ele>
        <time>2022-04-06T04:15:02Z</time>
      </trkpt>
      <trkpt lat="48.63134" lon="7.30505">
        <ele>429</ele>
        <time>2022-04-06T04:15:05Z</time>
      </trkpt>
      <trkpt lat="48.63121" lon="7.30515">
        <ele>431</ele>
        <time>2022-04-06T04:15:08Z</time>
      </trkpt>
      <trkpt lat="48.63087" lon="7.30548">
        <ele>438</ele>
        <time>2022-04-06T04:15:15Z</time>
      </trkpt>
      <trkpt lat="48.63074" lon="7.30558">
        <ele>440</ele>
        <time>2022-04-06T04:15:17Z</time>
      </trkpt>
      <trkpt lat="48.63061" lon="7.30563">
        <ele>441</ele>
        <time>2022-04-06T04:15:20Z</time>
      </trkpt>
      <trkpt lat="48.62982" lon="7.30579">
        <ele>447</ele>
        <time>2022-04-06T04:15:34Z</time>
      </trkpt>
      <trkpt lat="48.6289" lon="7.30619">
        <ele>453</ele>
        <time>2022-04-06T04:15:51Z</time>
      </trkpt>
      <trkpt lat="48.62861" lon="7.30622">
        <ele>455</ele>
        <time>2022-04-06T04:15:56Z</time>
      </trkpt>
      <trkpt lat="48.6284" lon="7.30614">
        <ele>455</ele>
        <time>2022-04-06T04:16:00Z</time>
      </trkpt>
      <trkpt lat="48.62817" lon="7.30596">
        <ele>455</ele>
        <time>2022-04-06T04:16:05Z</time>
      </trkpt>
      <trkpt lat="48.62726" lon="7.30497">
        <ele>452</ele>
        <time>2022-04-06T04:16:25Z</time>
      </trkpt>
      <trkpt lat="48.62687" lon="7.30444">
        <ele>455</ele>
        <time>2022-04-06T04:16:34Z</time>
      </trkpt>
      <trkpt lat="48.6267" lon="7.30433">
        <ele>458</ele>
        <time>2022-04-06T04:16:37Z</time>
      </trkpt>
      <trkpt lat="48.62657" lon="7.30429">
        <ele>459</ele>
        <time>2022-04-06T04:16:40Z</time>
      </trkpt>
      <trkpt lat="48.62626" lon="7.30429">
        <ele>461</ele>
        <time>2022-04-06T04:16:45Z</time>
      </trkpt>
      <trkpt lat="48.62605" lon="7.30431">
        <ele>462</ele>
        <time>2022-04-06T04:16:49Z</time>
      </trkpt>
      <trkpt lat="48.62529" lon="7.3045">
        <ele>463</ele>
        <time>2022-04-06T04:17:02Z</time>
      </trkpt>
      <trkpt lat="48.62479" lon="7.30466">
        <ele>463</ele>
        <time>2022-04-06T04:17:12Z</time>
      </trkpt>
      <trkpt lat="48.62467" lon="7.30474">
        <ele>463</ele>
        <time>2022-04-06T04:17:14Z</time>
      </trkpt>
      <trkpt lat="48.62453" lon="7.3049">
        <ele>460</ele>
        <time>2022-04-06T04:17:17Z</time>
      </trkpt>
      <trkpt lat="48.62408" lon="7.30557">
        <ele>463</ele>
        <time>2022-04-06T04:17:28Z</time>
      </trkpt>
      <trkpt lat="48.62398" lon="7.30568">
        <ele>464</ele>
        <time>2022-04-06T04:17:30Z</time>
      </trkpt>
      <trkpt lat="48.62345" lon="7.30602">
        <ele>465</ele>
        <time>2022-04-06T04:17:41Z</time>
      </trkpt>
      <trkpt lat="48.62338" lon="7.3061">
        <ele>465</ele>
        <time>2022-04-06T04:17:42Z</time>
      </trkpt>
      <trkpt lat="48.62299" lon="7.30719">
        <ele>460</ele>
        <time>2022-04-06T04:17:57Z</time>
      </trkpt>
      <trkpt lat="48.62292" lon="7.30734">
        <ele>460</ele>
        <time>2022-04-06T04:17:59Z</time>
      </trkpt>
      <trkpt lat="48.62288" lon="7.30736">
        <ele>459</ele>
        <time>2022-04-06T04:18:00Z</time>
      </trkpt>
      <trkpt lat="48.62283" lon="7.30733">
        <ele>459</ele>
        <time>2022-04-06T04:18:01Z</time>
      </trkpt>
      <trkpt lat="48.62279" lon="7.30727">
        <ele>459</ele>
        <time>2022-04-06T04:18:02Z</time>
      </trkpt>
      <trkpt lat="48.62267" lon="7.30684">
        <ele>457</ele>
        <time>2022-04-06T04:18:07Z</time>
      </trkpt>
      <trkpt lat="48.62263" lon="7.30676">
        <ele>457</ele>
        <time>2022-04-06T04:18:08Z</time>
      </trkpt>
      <trkpt lat="48.6225" lon="7.30658">
        <ele>455</ele>
        <time>2022-04-06T04:18:12Z</time>
      </trkpt>
      <trkpt lat="48.62241" lon="7.30652">
        <ele>454</ele>
        <time>2022-04-06T04:18:13Z</time>
      </trkpt>
      <trkpt lat="48.62215" lon="7.30645">
        <ele>451</ele>
        <time>2022-04-06T04:18:18Z</time>
      </trkpt>
      <trkpt lat="48.62154" lon="7.30635">
        <ele>445</ele>
        <time>2022-04-06T04:18:29Z</time>
      </trkpt>
      <trkpt lat="48.62129" lon="7.30627">
        <ele>444</ele>
        <time>2022-04-06T04:18:33Z</time>
      </trkpt>
      <trkpt lat="48.62101" lon="7.30606">
        <ele>444</ele>
        <time>2022-04-06T04:18:39Z</time>
      </trkpt>
      <trkpt lat="48.62038" lon="7.30554">
        <ele>444</ele>
        <time>2022-04-06T04:18:52Z</time>
      </trkpt>
      <trkpt lat="48.62004" lon="7.30538">
        <ele>443</ele>
        <time>2022-04-06T04:18:58Z</time>
      </trkpt>
      <trkpt lat="48.61969" lon="7.30532">
        <ele>442</ele>
        <time>2022-04-06T04:19:04Z</time>
      </trkpt>
      <trkpt lat="48.61945" lon="7.30534">
        <ele>440</ele>
        <time>2022-04-06T04:19:09Z</time>
      </trkpt>
      <trkpt lat="48.61939" lon="7.30536">
        <ele>440</ele>
        <time>2022-04-06T04:19:10Z</time>
      </trkpt>
      <trkpt lat="48.61934" lon="7.30541">
        <ele>439</ele>
        <time>2022-04-06T04:19:11Z</time>
      </trkpt>
      <trkpt lat="48.61906" lon="7.30594">
        <ele>434</ele>
        <time>2022-04-06T04:19:19Z</time>
      </trkpt>
      <trkpt lat="48.61898" lon="7.30603">
        <ele>433</ele>
        <time>2022-04-06T04:19:21Z</time>
      </trkpt>
      <trkpt lat="48.61888" lon="7.30611">
        <ele>432</ele>
        <time>2022-04-06T04:19:23Z</time>
      </trkpt>
      <trkpt lat="48.61772" lon="7.3066">
        <ele>426</ele>
        <time>2022-04-06T04:19:44Z</time>
      </trkpt>
      <trkpt lat="48.61688" lon="7.30675">
        <ele>423</ele>
        <time>2022-04-06T04:19:59Z</time>
      </trkpt>
      <trkpt lat="48.6166" lon="7.30684">
        <ele>423</ele>
        <time>2022-04-06T04:20:04Z</time>
      </trkpt>
      <trkpt lat="48.61631" lon="7.30697">
        <ele>425</ele>
        <time>2022-04-06T04:20:10Z</time>
      </trkpt>
      <trkpt lat="48.61593" lon="7.30727">
        <ele>429</ele>
        <time>2022-04-06T04:20:17Z</time>
      </trkpt>
      <trkpt lat="48.61585" lon="7.30736">
        <ele>430</ele>
        <time>2022-04-06T04:20:19Z</time>
      </trkpt>
      <trkpt lat="48.61564" lon="7.30774">
        <ele>437</ele>
        <time>2022-04-06T04:20:25Z</time>
      </trkpt>
      <trkpt lat="48.61553" lon="7.3079">
        <ele>441</ele>
        <time>2022-04-06T04:20:27Z</time>
      </trkpt>
      <trkpt lat="48.61542" lon="7.30798">
        <ele>444</ele>
        <time>2022-04-06T04:20:30Z</time>
      </trkpt>
      <trkpt lat="48.61459" lon="7.30822">
        <ele>456</ele>
        <time>2022-04-06T04:20:45Z</time>
      </trkpt>
      <trkpt lat="48.6138" lon="7.30838">
        <ele>460</ele>
        <time>2022-04-06T04:20:59Z</time>
      </trkpt>
      <trkpt lat="48.61349" lon="7.30849">
        <ele>463</ele>
        <time>2022-04-06T04:21:05Z</time>
      </trkpt>
      <trkpt lat="48.61283" lon="7.30886">
        <ele>474</ele>
        <time>2022-04-06T04:21:17Z</time>
      </trkpt>
      <trkpt lat="48.61263" lon="7.30893">
        <ele>477</ele>
        <time>2022-04-06T04:21:21Z</time>
      </trkpt>
      <trkpt lat="48.61245" lon="7.30895">
        <ele>478</ele>
        <time>2022-04-06T04:21:24Z</time>
      </trkpt>
      <trkpt lat="48.61154" lon="7.30887">
        <ele>486</ele>
        <time>2022-04-06T04:21:40Z</time>
      </trkpt>
      <trkpt lat="48.61013" lon="7.30893">
        <ele>500</ele>
        <time>2022-04-06T04:22:05Z</time>
      </trkpt>
      <trkpt lat="48.60883" lon="7.30875">
        <ele>512</ele>
        <time>2022-04-06T04:22:28Z</time>
      </trkpt>
      <trkpt lat="48.60865" lon="7.3087">
        <ele>513</ele>
        <time>2022-04-06T04:22:32Z</time>
      </trkpt>
      <trkpt lat="48.60849" lon="7.3087">
        <ele>515</ele>
        <time>2022-04-06T04:22:35Z</time>
      </trkpt>
      <trkpt lat="48.60841" lon="7.30873">
        <ele>516</ele>
        <time>2022-04-06T04:22:36Z</time>
      </trkpt>
      <trkpt lat="48.60834" lon="7.3088">
        <ele>518</ele>
        <time>2022-04-06T04:22:38Z</time>
      </trkpt>
      <trkpt lat="48.60827" lon="7.30893">
        <ele>519</ele>
        <time>2022-04-06T04:22:39Z</time>
      </trkpt>
      <trkpt lat="48.6081" lon="7.30931">
        <ele>521</ele>
        <time>2022-04-06T04:22:45Z</time>
      </trkpt>
      <trkpt lat="48.60799" lon="7.30948">
        <ele>521</ele>
        <time>2022-04-06T04:22:48Z</time>
      </trkpt>
      <trkpt lat="48.60793" lon="7.30953">
        <ele>521</ele>
        <time>2022-04-06T04:22:49Z</time>
      </trkpt>
      <trkpt lat="48.60784" lon="7.3095">
        <ele>520</ele>
        <time>2022-04-06T04:22:51Z</time>
      </trkpt>
      <trkpt lat="48.60772" lon="7.30931">
        <ele>518</ele>
        <time>2022-04-06T04:22:54Z</time>
      </trkpt>
      <trkpt lat="48.60733" lon="7.3085">
        <ele>516</ele>
        <time>2022-04-06T04:23:05Z</time>
      </trkpt>
      <trkpt lat="48.6072" lon="7.30836">
        <ele>515</ele>
        <time>2022-04-06T04:23:08Z</time>
      </trkpt>
      <trkpt lat="48.60651" lon="7.30795">
        <ele>515</ele>
        <time>2022-04-06T04:23:21Z</time>
      </trkpt>
      <trkpt lat="48.60589" lon="7.30771">
        <ele>519</ele>
        <time>2022-04-06T04:23:33Z</time>
      </trkpt>
      <trkpt lat="48.6056" lon="7.30769">
        <ele>521</ele>
        <time>2022-04-06T04:23:38Z</time>
      </trkpt>
      <trkpt lat="48.60546" lon="7.30775">
        <ele>521</ele>
        <time>2022-04-06T04:23:41Z</time>
      </trkpt>
      <trkpt lat="48.60512" lon="7.30793">
        <ele>520</ele>
        <time>2022-04-06T04:23:47Z</time>
      </trkpt>
      <trkpt lat="48.60494" lon="7.30797">
        <ele>520</ele>
        <time>2022-04-06T04:23:50Z</time>
      </trkpt>
      <trkpt lat="48.60441" lon="7.30797">
        <ele>522</ele>
        <time>2022-04-06T04:24:00Z</time>
      </trkpt>
      <trkpt lat="48.60425" lon="7.30802">
        <ele>522</ele>
        <time>2022-04-06T04:24:03Z</time>
      </trkpt>
      <trkpt lat="48.6041" lon="7.30813">
        <ele>523</ele>
        <time>2022-04-06T04:24:06Z</time>
      </trkpt>
      <trkpt lat="48.60398" lon="7.30832">
        <ele>525</ele>
        <time>2022-04-06T04:24:09Z</time>
      </trkpt>
      <trkpt lat="48.60391" lon="7.30857">
        <ele>527</ele>
        <time>2022-04-06T04:24:12Z</time>
      </trkpt>
      <trkpt lat="48.60389" lon="7.30885">
        <ele>526</ele>
        <time>2022-04-06T04:24:15Z</time>
      </trkpt>
      <trkpt lat="48.60394" lon="7.3091">
        <ele>524</ele>
        <time>2022-04-06T04:24:18Z</time>
      </trkpt>
      <trkpt lat="48.6041" lon="7.3095">
        <ele>520</ele>
        <time>2022-04-06T04:24:24Z</time>
      </trkpt>
      <trkpt lat="48.60416" lon="7.30973">
        <ele>520</ele>
        <time>2022-04-06T04:24:27Z</time>
      </trkpt>
      <trkpt lat="48.60418" lon="7.30992">
        <ele>521</ele>
        <time>2022-04-06T04:24:29Z</time>
      </trkpt>
      <trkpt lat="48.60416" lon="7.31012">
        <ele>521</ele>
        <time>2022-04-06T04:24:31Z</time>
      </trkpt>
      <trkpt lat="48.60409" lon="7.31028">
        <ele>522</ele>
        <time>2022-04-06T04:24:34Z</time>
      </trkpt>
      <trkpt lat="48.6039" lon="7.31051">
        <ele>525</ele>
        <time>2022-04-06T04:24:38Z</time>
      </trkpt>
      <trkpt lat="48.60283" lon="7.31154">
        <ele>540</ele>
        <time>2022-04-06T04:25:00Z</time>
      </trkpt>
      <trkpt lat="48.60216" lon="7.31194">
        <ele>550</ele>
        <time>2022-04-06T04:25:13Z</time>
      </trkpt>
      <trkpt lat="48.60198" lon="7.31208">
        <ele>552</ele>
        <time>2022-04-06T04:25:17Z</time>
      </trkpt>
      <trkpt lat="48.60175" lon="7.31227">
        <ele>554</ele>
        <time>2022-04-06T04:25:22Z</time>
      </trkpt>
      <trkpt lat="48.60159" lon="7.31244">
        <ele>556</ele>
        <time>2022-04-06T04:25:25Z</time>
      </trkpt>
      <trkpt lat="48.60153" lon="7.31256">
        <ele>558</ele>
        <time>2022-04-06T04:25:27Z</time>
      </trkpt>
      <trkpt lat="48.60149" lon="7.31273">
        <ele>561</ele>
        <time>2022-04-06T04:25:29Z</time>
      </trkpt>
      <trkpt lat="48.60151" lon="7.31295">
        <ele>562</ele>
        <time>2022-04-06T04:25:31Z</time>
      </trkpt>
      <trkpt lat="48.60159" lon="7.31318">
        <ele>562</ele>
        <time>2022-04-06T04:25:35Z</time>
      </trkpt>
      <trkpt lat="48.60218" lon="7.31462">
        <ele>571</ele>
        <time>2022-04-06T04:25:54Z</time>
      </trkpt>
      <trkpt lat="48.60227" lon="7.31494">
        <ele>573</ele>
        <time>2022-04-06T04:25:59Z</time>
      </trkpt>
      <trkpt lat="48.60245" lon="7.31581">
        <ele>577</ele>
        <time>2022-04-06T04:26:09Z</time>
      </trkpt>
      <trkpt lat="48.6025" lon="7.31615">
        <ele>579</ele>
        <time>2022-04-06T04:26:13Z</time>
      </trkpt>
      <trkpt lat="48.60249" lon="7.3164">
        <ele>580</ele>
        <time>2022-04-06T04:26:16Z</time>
      </trkpt>
      <trkpt lat="48.60243" lon="7.3166">
        <ele>581</ele>
        <time>2022-04-06T04:26:19Z</time>
      </trkpt>
      <trkpt lat="48.60232" lon="7.31676">
        <ele>583</ele>
        <time>2022-04-06T04:26:22Z</time>
      </trkpt>
      <trkpt lat="48.60216" lon="7.31684">
        <ele>585</ele>
        <time>2022-04-06T04:26:25Z</time>
      </trkpt>
      <trkpt lat="48.60202" lon="7.31684">
        <ele>586</ele>
        <time>2022-04-06T04:26:27Z</time>
      </trkpt>
      <trkpt lat="48.60193" lon="7.31679">
        <ele>586</ele>
        <time>2022-04-06T04:26:29Z</time>
      </trkpt>
      <trkpt lat="48.60186" lon="7.31673">
        <ele>587</ele>
        <time>2022-04-06T04:26:30Z</time>
      </trkpt>
      <trkpt lat="48.60157" lon="7.31634">
        <ele>588</ele>
        <time>2022-04-06T04:26:37Z</time>
      </trkpt>
      <trkpt lat="48.60093" lon="7.31563">
        <ele>594</ele>
        <time>2022-04-06T04:26:51Z</time>
      </trkpt>
      <trkpt lat="48.60013" lon="7.315">
        <ele>598</ele>
        <time>2022-04-06T04:27:07Z</time>
      </trkpt>
      <trkpt lat="48.6" lon="7.31483">
        <ele>599</ele>
        <time>2022-04-06T04:27:10Z</time>
      </trkpt>
      <trkpt lat="48.59993" lon="7.31467">
        <ele>599</ele>
        <time>2022-04-06T04:27:13Z</time>
      </trkpt>
      <trkpt lat="48.59987" lon="7.31449">
        <ele>600</ele>
        <time>2022-04-06T04:27:15Z</time>
      </trkpt>
      <trkpt lat="48.59983" lon="7.31418">
        <ele>602</ele>
        <time>2022-04-06T04:27:19Z</time>
      </trkpt>
      <trkpt lat="48.59974" lon="7.31385">
        <ele>604</ele>
        <time>2022-04-06T04:27:23Z</time>
      </trkpt>
      <trkpt lat="48.59958" lon="7.31353">
        <ele>607</ele>
        <time>2022-04-06T04:27:28Z</time>
      </trkpt>
      <trkpt lat="48.59913" lon="7.31288">
        <ele>617</ele>
        <time>2022-04-06T04:27:39Z</time>
      </trkpt>
      <trkpt lat="48.59903" lon="7.3128">
        <ele>618</ele>
        <time>2022-04-06T04:27:41Z</time>
      </trkpt>
      <trkpt lat="48.59888" lon="7.31275">
        <ele>620</ele>
        <time>2022-04-06T04:27:43Z</time>
      </trkpt>
      <trkpt lat="48.5984" lon="7.3127">
        <ele>623</ele>
        <time>2022-04-06T04:27:52Z</time>
      </trkpt>
      <trkpt lat="48.59812" lon="7.31273">
        <ele>626</ele>
        <time>2022-04-06T04:27:57Z</time>
      </trkpt>
      <trkpt lat="48.59789" lon="7.31283">
        <ele>629</ele>
        <time>2022-04-06T04:28:01Z</time>
      </trkpt>
      <trkpt lat="48.59749" lon="7.31312">
        <ele>631</ele>
        <time>2022-04-06T04:28:09Z</time>
      </trkpt>
      <trkpt lat="48.59649" lon="7.31393">
        <ele>635</ele>
        <time>2022-04-06T04:28:29Z</time>
      </trkpt>
      <trkpt lat="48.59615" lon="7.31413">
        <ele>637</ele>
        <time>2022-04-06T04:28:36Z</time>
      </trkpt>
      <trkpt lat="48.5957" lon="7.31426">
        <ele>643</ele>
        <time>2022-04-06T04:28:44Z</time>
      </trkpt>
      <trkpt lat="48.59541" lon="7.31444">
        <ele>646</ele>
        <time>2022-04-06T04:28:50Z</time>
      </trkpt>
      <trkpt lat="48.59481" lon="7.31487">
        <ele>649</ele>
        <time>2022-04-06T04:29:01Z</time>
      </trkpt>
      <trkpt lat="48.59347" lon="7.31592">
        <ele>658</ele>
        <time>2022-04-06T04:29:28Z</time>
      </trkpt>
      <trkpt lat="48.59336" lon="7.31606">
        <ele>659</ele>
        <time>2022-04-06T04:29:31Z</time>
      </trkpt>
      <trkpt lat="48.59328" lon="7.31621">
        <ele>660</ele>
        <time>2022-04-06T04:29:33Z</time>
      </trkpt>
      <trkpt lat="48.59323" lon="7.3164">
        <ele>661</ele>
        <time>2022-04-06T04:29:36Z</time>
      </trkpt>
      <trkpt lat="48.59322" lon="7.31671">
        <ele>661</ele>
        <time>2022-04-06T04:29:39Z</time>
      </trkpt>
      <trkpt lat="48.59334" lon="7.31731">
        <ele>660</ele>
        <time>2022-04-06T04:29:47Z</time>
      </trkpt>
      <trkpt lat="48.59334" lon="7.31748">
        <ele>661</ele>
        <time>2022-04-06T04:29:49Z</time>
      </trkpt>
      <trkpt lat="48.59332" lon="7.31763">
        <ele>661</ele>
        <time>2022-04-06T04:29:50Z</time>
      </trkpt>
      <trkpt lat="48.59327" lon="7.31777">
        <ele>662</ele>
        <time>2022-04-06T04:29:52Z</time>
      </trkpt>
      <trkpt lat="48.59281" lon="7.31849">
        <ele>664</ele>
        <time>2022-04-06T04:30:04Z</time>
      </trkpt>
      <trkpt lat="48.59273" lon="7.31858">
        <ele>664</ele>
        <time>2022-04-06T04:30:06Z</time>
      </trkpt>
      <trkpt lat="48.59259" lon="7.31866">
        <ele>664</ele>
        <time>2022-04-06T04:30:08Z</time>
      </trkpt>
      <trkpt lat="48.59248" lon="7.3187">
        <ele>664</ele>
        <time>2022-04-06T04:30:10Z</time>
      </trkpt>
      <trkpt lat="48.59227" lon="7.3187">
        <ele>665</ele>
        <time>2022-04-06T04:30:14Z</time>
      </trkpt>
      <trkpt lat="48.59215" lon="7.31864">
        <ele>665</ele>
        <time>2022-04-06T04:30:16Z</time>
      </trkpt>
      <trkpt lat="48.59089" lon="7.31766">
        <ele>674</ele>
        <time>2022-04-06T04:30:42Z</time>
      </trkpt>
      <trkpt lat="48.59031" lon="7.31722">
        <ele>676</ele>
        <time>2022-04-06T04:30:53Z</time>
      </trkpt>
      <trkpt lat="48.58991" lon="7.31683">
        <ele>677</ele>
        <time>2022-04-06T04:31:02Z</time>
      </trkpt>
      <trkpt lat="48.58951" lon="7.31648">
        <ele>674</ele>
        <time>2022-04-06T04:31:10Z</time>
      </trkpt>
      <trkpt lat="48.58945" lon="7.3164">
        <ele>673</ele>
        <time>2022-04-06T04:31:11Z</time>
      </trkpt>
      <trkpt lat="48.58938" lon="7.31625">
        <ele>673</ele>
        <time>2022-04-06T04:31:13Z</time>
      </trkpt>
      <trkpt lat="48.58925" lon="7.31577">
        <ele>672</ele>
        <time>2022-04-06T04:31:20Z</time>
      </trkpt>
      <trkpt lat="48.58923" lon="7.31561">
        <ele>671</ele>
        <time>2022-04-06T04:31:21Z</time>
      </trkpt>
      <trkpt lat="48.58924" lon="7.31548">
        <ele>671</ele>
        <time>2022-04-06T04:31:23Z</time>
      </trkpt>
      <trkpt lat="48.58928" lon="7.31533">
        <ele>671</ele>
        <time>2022-04-06T04:31:25Z</time>
      </trkpt>
      <trkpt lat="48.58934" lon="7.31521">
        <ele>671</ele>
        <time>2022-04-06T04:31:27Z</time>
      </trkpt>
      <trkpt lat="48.58964" lon="7.3149">
        <ele>674</ele>
        <time>2022-04-06T04:31:33Z</time>
      </trkpt>
      <trkpt lat="48.58974" lon="7.31475">
        <ele>674</ele>
        <time>2022-04-06T04:31:36Z</time>
      </trkpt>
      <trkpt lat="48.58982" lon="7.3146">
        <ele>675</ele>
        <time>2022-04-06T04:31:38Z</time>
      </trkpt>
      <trkpt lat="48.58994" lon="7.31414">
        <ele>675</ele>
        <time>2022-04-06T04:31:44Z</time>
      </trkpt>
      <trkpt lat="48.58996" lon="7.31393">
        <ele>678</ele>
        <time>2022-04-06T04:31:46Z</time>
      </trkpt>
      <trkpt lat="48.58994" lon="7.31379">
        <ele>679</ele>
        <time>2022-04-06T04:31:48Z</time>
      </trkpt>
      <trkpt lat="48.58979" lon="7.31343">
        <ele>679</ele>
        <time>2022-04-06T04:31:53Z</time>
      </trkpt>
      <trkpt lat="48.58923" lon="7.31254">
        <ele>677</ele>
        <time>2022-04-06T04:32:07Z</time>
      </trkpt>
      <trkpt lat="48.58886" lon="7.31201">
        <ele>680</ele>
        <time>2022-04-06T04:32:16Z</time>
      </trkpt>
      <trkpt lat="48.58847" lon="7.31165">
        <ele>679</ele>
        <time>2022-04-06T04:32:25Z</time>
      </trkpt>
      <trkpt lat="48.58788" lon="7.3113">
        <ele>671</ele>
        <time>2022-04-06T04:32:36Z</time>
      </trkpt>
      <trkpt lat="48.58711" lon="7.31066">
        <ele>664</ele>
        <time>2022-04-06T04:32:52Z</time>
      </trkpt>
      <trkpt lat="48.58553" lon="7.30899">
        <ele>654</ele>
        <time>2022-04-06T04:33:26Z</time>
      </trkpt>
      <trkpt lat="48.58496" lon="7.30862">
        <ele>646</ele>
        <time>2022-04-06T04:33:37Z</time>
      </trkpt>
      <trkpt lat="48.58464" lon="7.30847">
        <ele>640</ele>
        <time>2022-04-06T04:33:43Z</time>
      </trkpt>
      <trkpt lat="48.58437" lon="7.30831">
        <ele>636</ele>
        <time>2022-04-06T04:33:48Z</time>
      </trkpt>
      <trkpt lat="48.58422" lon="7.30804">
        <ele>633</ele>
        <time>2022-04-06T04:33:52Z</time>
      </trkpt>
      <trkpt lat="48.58416" lon="7.3077">
        <ele>634</ele>
        <time>2022-04-06T04:33:56Z</time>
      </trkpt>
      <trkpt lat="48.58413" lon="7.30746">
        <ele>635</ele>
        <time>2022-04-06T04:33:59Z</time>
      </trkpt>
      <trkpt lat="48.58414" lon="7.3072">
        <ele>634</ele>
        <time>2022-04-06T04:34:02Z</time>
      </trkpt>
      <trkpt lat="48.58416" lon="7.30697">
        <ele>633</ele>
        <time>2022-04-06T04:34:05Z</time>
      </trkpt>
      <trkpt lat="48.58423" lon="7.30666">
        <ele>634</ele>
        <time>2022-04-06T04:34:09Z</time>
      </trkpt>
      <trkpt lat="48.58455" lon="7.30582">
        <ele>639</ele>
        <time>2022-04-06T04:34:20Z</time>
      </trkpt>
      <trkpt lat="48.58467" lon="7.30529">
        <ele>639</ele>
        <time>2022-04-06T04:34:27Z</time>
      </trkpt>
      <trkpt lat="48.58536" lon="7.30146">
        <ele>634</ele>
        <time>2022-04-06T04:35:14Z</time>
      </trkpt>
      <trkpt lat="48.58551" lon="7.30086">
        <ele>632</ele>
        <time>2022-04-06T04:35:21Z</time>
      </trkpt>
      <trkpt lat="48.58576" lon="7.30017">
        <ele>633</ele>
        <time>2022-04-06T04:35:30Z</time>
      </trkpt>
      <trkpt lat="48.58578" lon="7.30002">
        <ele>633</ele>
        <time>2022-04-06T04:35:32Z</time>
      </trkpt>
      <trkpt lat="48.58578" lon="7.29843">
        <ele>627</ele>
        <time>2022-04-06T04:35:51Z</time>
      </trkpt>
      <trkpt lat="48.5858" lon="7.29807">
        <ele>626</ele>
        <time>2022-04-06T04:35:55Z</time>
      </trkpt>
      <trkpt lat="48.58592" lon="7.29696">
        <ele>631</ele>
        <time>2022-04-06T04:36:08Z</time>
      </trkpt>
      <trkpt lat="48.58594" lon="7.29646">
        <ele>636</ele>
        <time>2022-04-06T04:36:14Z</time>
      </trkpt>
      <trkpt lat="48.58588" lon="7.29606">
        <ele>639</ele>
        <time>2022-04-06T04:36:19Z</time>
      </trkpt>
      <trkpt lat="48.58566" lon="7.29547">
        <ele>640</ele>
        <time>2022-04-06T04:36:27Z</time>
      </trkpt>
      <trkpt lat="48.58542" lon="7.29491">
        <ele>639</ele>
        <time>2022-04-06T04:36:35Z</time>
      </trkpt>
      <trkpt lat="48.58526" lon="7.2944">
        <ele>637</ele>
        <time>2022-04-06T04:36:42Z</time>
      </trkpt>
      <trkpt lat="48.58519" lon="7.2941">
        <ele>636</ele>
        <time>2022-04-06T04:36:45Z</time>
      </trkpt>
      <trkpt lat="48.58516" lon="7.29387">
        <ele>637</ele>
        <time>2022-04-06T04:36:48Z</time>
      </trkpt>
      <trkpt lat="48.58516" lon="7.29361">
        <ele>637</ele>
        <time>2022-04-06T04:36:51Z</time>
      </trkpt>
      <trkpt lat="48.5852" lon="7.29331">
        <ele>639</ele>
        <time>2022-04-06T04:36:55Z</time>
      </trkpt>
      <trkpt lat="48.58529" lon="7.29295">
        <ele>638</ele>
        <time>2022-04-06T04:36:59Z</time>
      </trkpt>
      <trkpt lat="48.58576" lon="7.29173">
        <ele>632</ele>
        <time>2022-04-06T04:37:16Z</time>
      </trkpt>
      <trkpt lat="48.58617" lon="7.29059">
        <ele>625</ele>
        <time>2022-04-06T04:37:31Z</time>
      </trkpt>
      <trkpt lat="48.58625" lon="7.29025">
        <ele>621</ele>
        <time>2022-04-06T04:37:35Z</time>
      </trkpt>
      <trkpt lat="48.58631" lon="7.28991">
        <ele>618</ele>
        <time>2022-04-06T04:37:39Z</time>
      </trkpt>
      <trkpt lat="48.58641" lon="7.28906">
        <ele>611</ele>
        <time>2022-04-06T04:37:50Z</time>
      </trkpt>
      <trkpt lat="48.5865" lon="7.28847">
        <ele>606</ele>
        <time>2022-04-06T04:37:57Z</time>
      </trkpt>
      <trkpt lat="48.58672" lon="7.28773">
        <ele>609</ele>
        <time>2022-04-06T04:38:06Z</time>
      </trkpt>
      <trkpt lat="48.58678" lon="7.2875">
        <ele>610</ele>
        <time>2022-04-06T04:38:09Z</time>
      </trkpt>
      <trkpt lat="48.58681" lon="7.28732">
        <ele>611</ele>
        <time>2022-04-06T04:38:11Z</time>
      </trkpt>
      <trkpt lat="48.58682" lon="7.28715">
        <ele>611</ele>
        <time>2022-04-06T04:38:13Z</time>
      </trkpt>
      <trkpt lat="48.58678" lon="7.28673">
        <ele>610</ele>
        <time>2022-04-06T04:38:18Z</time>
      </trkpt>
      <trkpt lat="48.58661" lon="7.28617">
        <ele>612</ele>
        <time>2022-04-06T04:38:26Z</time>
      </trkpt>
      <trkpt lat="48.58651" lon="7.28599">
        <ele>613</ele>
        <time>2022-04-06T04:38:28Z</time>
      </trkpt>
      <trkpt lat="48.58641" lon="7.28585">
        <ele>614</ele>
        <time>2022-04-06T04:38:31Z</time>
      </trkpt>
      <trkpt lat="48.5862" lon="7.28563">
        <ele>620</ele>
        <time>2022-04-06T04:38:35Z</time>
      </trkpt>
      <trkpt lat="48.58602" lon="7.28553">
        <ele>621</ele>
        <time>2022-04-06T04:38:39Z</time>
      </trkpt>
      <trkpt lat="48.58584" lon="7.28547">
        <ele>622</ele>
        <time>2022-04-06T04:38:42Z</time>
      </trkpt>
      <trkpt lat="48.58552" lon="7.28547">
        <ele>621</ele>
        <time>2022-04-06T04:38:48Z</time>
      </trkpt>
      <trkpt lat="48.58521" lon="7.28552">
        <ele>619</ele>
        <time>2022-04-06T04:38:53Z</time>
      </trkpt>
      <trkpt lat="48.58488" lon="7.28566">
        <ele>613</ele>
        <time>2022-04-06T04:38:59Z</time>
      </trkpt>
      <trkpt lat="48.58457" lon="7.28585">
        <ele>607</ele>
        <time>2022-04-06T04:39:05Z</time>
      </trkpt>
      <trkpt lat="48.58446" lon="7.28589">
        <ele>607</ele>
        <time>2022-04-06T04:39:07Z</time>
      </trkpt>
      <trkpt lat="48.58435" lon="7.2859">
        <ele>606</ele>
        <time>2022-04-06T04:39:09Z</time>
      </trkpt>
      <trkpt lat="48.58424" lon="7.28584">
        <ele>606</ele>
        <time>2022-04-06T04:39:11Z</time>
      </trkpt>
      <trkpt lat="48.58414" lon="7.28577">
        <ele>606</ele>
        <time>2022-04-06T04:39:13Z</time>
      </trkpt>
      <trkpt lat="48.58399" lon="7.28559">
        <ele>607</ele>
        <time>2022-04-06T04:39:17Z</time>
      </trkpt>
      <trkpt lat="48.58386" lon="7.28536">
        <ele>607</ele>
        <time>2022-04-06T04:39:20Z</time>
      </trkpt>
      <trkpt lat="48.58381" lon="7.28525">
        <ele>607</ele>
        <time>2022-04-06T04:39:22Z</time>
      </trkpt>
      <trkpt lat="48.58371" lon="7.28491">
        <ele>607</ele>
        <time>2022-04-06T04:39:26Z</time>
      </trkpt>
      <trkpt lat="48.58351" lon="7.28351">
        <ele>613</ele>
        <time>2022-04-06T04:39:43Z</time>
      </trkpt>
      <trkpt lat="48.58341" lon="7.2829">
        <ele>613</ele>
        <time>2022-04-06T04:39:51Z</time>
      </trkpt>
      <trkpt lat="48.58324" lon="7.28221">
        <ele>612</ele>
        <time>2022-04-06T04:39:59Z</time>
      </trkpt>
      <trkpt lat="48.58298" lon="7.28097">
        <ele>609</ele>
        <time>2022-04-06T04:40:15Z</time>
      </trkpt>
      <trkpt lat="48.58292" lon="7.28081">
        <ele>607</ele>
        <time>2022-04-06T04:40:17Z</time>
      </trkpt>
      <trkpt lat="48.58285" lon="7.28066">
        <ele>608</ele>
        <time>2022-04-06T04:40:19Z</time>
      </trkpt>
      <trkpt lat="48.58268" lon="7.28041">
        <ele>608</ele>
        <time>2022-04-06T04:40:23Z</time>
      </trkpt>
      <trkpt lat="48.58247" lon="7.28022">
        <ele>606</ele>
        <time>2022-04-06T04:40:27Z</time>
      </trkpt>
      <trkpt lat="48.5823" lon="7.28014">
        <ele>607</ele>
        <time>2022-04-06T04:40:31Z</time>
      </trkpt>
      <trkpt lat="48.58187" lon="7.28021">
        <ele>603</ele>
        <time>2022-04-06T04:40:38Z</time>
      </trkpt>
      <trkpt lat="48.58169" lon="7.28018">
        <ele>602</ele>
        <time>2022-04-06T04:40:42Z</time>
      </trkpt>
      <trkpt lat="48.58151" lon="7.28012">
        <ele>602</ele>
        <time>2022-04-06T04:40:45Z</time>
      </trkpt>
      <trkpt lat="48.58128" lon="7.27997">
        <ele>603</ele>
        <time>2022-04-06T04:40:49Z</time>
      </trkpt>
      <trkpt lat="48.58115" lon="7.27985">
        <ele>604</ele>
        <time>2022-04-06T04:40:52Z</time>
      </trkpt>
      <trkpt lat="48.58088" lon="7.27986">
        <ele>602</ele>
        <time>2022-04-06T04:40:57Z</time>
      </trkpt>
      <trkpt lat="48.58021" lon="7.28026">
        <ele>586</ele>
        <time>2022-04-06T04:41:10Z</time>
      </trkpt>
      <trkpt lat="48.58007" lon="7.28026">
        <ele>585</ele>
        <time>2022-04-06T04:41:12Z</time>
      </trkpt>
      <trkpt lat="48.58" lon="7.28022">
        <ele>585</ele>
        <time>2022-04-06T04:41:13Z</time>
      </trkpt>
      <trkpt lat="48.57996" lon="7.28012">
        <ele>586</ele>
        <time>2022-04-06T04:41:15Z</time>
      </trkpt>
      <trkpt lat="48.57986" lon="7.27964">
        <ele>592</ele>
        <time>2022-04-06T04:41:21Z</time>
      </trkpt>
      <trkpt lat="48.57978" lon="7.27935">
        <ele>594</ele>
        <time>2022-04-06T04:41:24Z</time>
      </trkpt>
      <trkpt lat="48.57966" lon="7.27914">
        <ele>594</ele>
        <time>2022-04-06T04:41:28Z</time>
      </trkpt>
      <trkpt lat="48.5793" lon="7.27891">
        <ele>586</ele>
        <time>2022-04-06T04:41:35Z</time>
      </trkpt>
      <trkpt lat="48.57918" lon="7.27878">
        <ele>585</ele>
        <time>2022-04-06T04:41:37Z</time>
      </trkpt>
      <trkpt lat="48.57904" lon="7.27846">
        <ele>586</ele>
        <time>2022-04-06T04:41:42Z</time>
      </trkpt>
      <trkpt lat="48.57783" lon="7.27549">
        <ele>556</ele>
        <time>2022-04-06T04:42:23Z</time>
      </trkpt>
      <trkpt lat="48.57758" lon="7.27508">
        <ele>552</ele>
        <time>2022-04-06T04:42:29Z</time>
      </trkpt>
      <trkpt lat="48.57715" lon="7.27479">
        <ele>540</ele>
        <time>2022-04-06T04:42:38Z</time>
      </trkpt>
      <trkpt lat="48.5766" lon="7.27424">
        <ele>536</ele>
        <time>2022-04-06T04:42:50Z</time>
      </trkpt>
      <trkpt lat="48.57632" lon="7.27406">
        <ele>531</ele>
        <time>2022-04-06T04:42:55Z</time>
      </trkpt>
      <trkpt lat="48.57589" lon="7.27411">
        <ele>517</ele>
        <time>2022-04-06T04:43:03Z</time>
      </trkpt>
      <trkpt lat="48.57582" lon="7.27406">
        <ele>516</ele>
        <time>2022-04-06T04:43:04Z</time>
      </trkpt>
      <trkpt lat="48.57576" lon="7.27397">
        <ele>516</ele>
        <time>2022-04-06T04:43:06Z</time>
      </trkpt>
      <trkpt lat="48.57569" lon="7.27378">
        <ele>517</ele>
        <time>2022-04-06T04:43:08Z</time>
      </trkpt>
      <trkpt lat="48.57566" lon="7.27354">
        <ele>521</ele>
        <time>2022-04-06T04:43:11Z</time>
      </trkpt>
      <trkpt lat="48.57566" lon="7.27329">
        <ele>524</ele>
        <time>2022-04-06T04:43:14Z</time>
      </trkpt>
      <trkpt lat="48.57567" lon="7.27306">
        <ele>523</ele>
        <time>2022-04-06T04:43:17Z</time>
      </trkpt>
      <trkpt lat="48.57571" lon="7.27285">
        <ele>523</ele>
        <time>2022-04-06T04:43:19Z</time>
      </trkpt>
      <trkpt lat="48.57591" lon="7.27208">
        <ele>527</ele>
        <time>2022-04-06T04:43:29Z</time>
      </trkpt>
      <trkpt lat="48.57592" lon="7.27198">
        <ele>528</ele>
        <time>2022-04-06T04:43:30Z</time>
      </trkpt>
      <trkpt lat="48.57592" lon="7.27188">
        <ele>528</ele>
        <time>2022-04-06T04:43:31Z</time>
      </trkpt>
      <trkpt lat="48.57586" lon="7.27169">
        <ele>527</ele>
        <time>2022-04-06T04:43:34Z</time>
      </trkpt>
      <trkpt lat="48.57577" lon="7.27158">
        <ele>526</ele>
        <time>2022-04-06T04:43:36Z</time>
      </trkpt>
      <trkpt lat="48.57561" lon="7.27155">
        <ele>524</ele>
        <time>2022-04-06T04:43:39Z</time>
      </trkpt>
      <trkpt lat="48.5753" lon="7.27155">
        <ele>517</ele>
        <time>2022-04-06T04:43:44Z</time>
      </trkpt>
      <trkpt lat="48.57498" lon="7.27134">
        <ele>513</ele>
        <time>2022-04-06T04:43:50Z</time>
      </trkpt>
      <trkpt lat="48.57462" lon="7.27096">
        <ele>512</ele>
        <time>2022-04-06T04:43:58Z</time>
      </trkpt>
      <trkpt lat="48.57449" lon="7.27088">
        <ele>511</ele>
        <time>2022-04-06T04:44:01Z</time>
      </trkpt>
      <trkpt lat="48.574" lon="7.27074">
        <ele>504</ele>
        <time>2022-04-06T04:44:10Z</time>
      </trkpt>
      <trkpt lat="48.57385" lon="7.27064">
        <ele>503</ele>
        <time>2022-04-06T04:44:13Z</time>
      </trkpt>
      <trkpt lat="48.57359" lon="7.27055">
        <ele>501</ele>
        <time>2022-04-06T04:44:17Z</time>
      </trkpt>
      <trkpt lat="48.57329" lon="7.27057">
        <ele>497</ele>
        <time>2022-04-06T04:44:23Z</time>
      </trkpt>
      <trkpt lat="48.57269" lon="7.27078">
        <ele>491</ele>
        <time>2022-04-06T04:44:34Z</time>
      </trkpt>
      <trkpt lat="48.57261" lon="7.27076">
        <ele>490</ele>
        <time>2022-04-06T04:44:35Z</time>
      </trkpt>
      <trkpt lat="48.57254" lon="7.27069">
        <ele>490</ele>
        <time>2022-04-06T04:44:36Z</time>
      </trkpt>
      <trkpt lat="48.5725" lon="7.27059">
        <ele>490</ele>
        <time>2022-04-06T04:44:38Z</time>
      </trkpt>
      <trkpt lat="48.57241" lon="7.27016">
        <ele>488</ele>
        <time>2022-04-06T04:44:43Z</time>
      </trkpt>
      <trkpt lat="48.57239" lon="7.26995">
        <ele>488</ele>
        <time>2022-04-06T04:44:46Z</time>
      </trkpt>
      <trkpt lat="48.5724" lon="7.26962">
        <ele>489</ele>
        <time>2022-04-06T04:44:50Z</time>
      </trkpt>
      <trkpt lat="48.57245" lon="7.26938">
        <ele>491</ele>
        <time>2022-04-06T04:44:53Z</time>
      </trkpt>
      <trkpt lat="48.57266" lon="7.26895">
        <ele>493</ele>
        <time>2022-04-06T04:44:59Z</time>
      </trkpt>
      <trkpt lat="48.57269" lon="7.26879">
        <ele>493</ele>
        <time>2022-04-06T04:45:01Z</time>
      </trkpt>
      <trkpt lat="48.5727" lon="7.26867">
        <ele>493</ele>
        <time>2022-04-06T04:45:02Z</time>
      </trkpt>
      <trkpt lat="48.57261" lon="7.26816">
        <ele>490</ele>
        <time>2022-04-06T04:45:08Z</time>
      </trkpt>
      <trkpt lat="48.57258" lon="7.26793">
        <ele>489</ele>
        <time>2022-04-06T04:45:11Z</time>
      </trkpt>
      <trkpt lat="48.57257" lon="7.26777">
        <ele>488</ele>
        <time>2022-04-06T04:45:13Z</time>
      </trkpt>
      <trkpt lat="48.5726" lon="7.26757">
        <ele>488</ele>
        <time>2022-04-06T04:45:15Z</time>
      </trkpt>
      <trkpt lat="48.57266" lon="7.26738">
        <ele>488</ele>
        <time>2022-04-06T04:45:18Z</time>
      </trkpt>
      <trkpt lat="48.57289" lon="7.26701">
        <ele>486</ele>
        <time>2022-04-06T04:45:24Z</time>
      </trkpt>
      <trkpt lat="48.57292" lon="7.26686">
        <ele>485</ele>
        <time>2022-04-06T04:45:26Z</time>
      </trkpt>
      <trkpt lat="48.57292" lon="7.26677">
        <ele>484</ele>
        <time>2022-04-06T04:45:27Z</time>
      </trkpt>
      <trkpt lat="48.57286" lon="7.26662">
        <ele>482</ele>
        <time>2022-04-06T04:45:29Z</time>
      </trkpt>
      <trkpt lat="48.57261" lon="7.26638">
        <ele>477</ele>
        <time>2022-04-06T04:45:34Z</time>
      </trkpt>
      <trkpt lat="48.57239" lon="7.26621">
        <ele>472</ele>
        <time>2022-04-06T04:45:39Z</time>
      </trkpt>
      <trkpt lat="48.57221" lon="7.26609">
        <ele>468</ele>
        <time>2022-04-06T04:45:42Z</time>
      </trkpt>
      <trkpt lat="48.5721" lon="7.26607">
        <ele>466</ele>
        <time>2022-04-06T04:45:44Z</time>
      </trkpt>
      <trkpt lat="48.57194" lon="7.26607">
        <ele>464</ele>
        <time>2022-04-06T04:45:47Z</time>
      </trkpt>
      <trkpt lat="48.5718" lon="7.26612">
        <ele>463</ele>
        <time>2022-04-06T04:45:49Z</time>
      </trkpt>
      <trkpt lat="48.57171" lon="7.26619">
        <ele>463</ele>
        <time>2022-04-06T04:45:51Z</time>
      </trkpt>
      <trkpt lat="48.57162" lon="7.26632">
        <ele>463</ele>
        <time>2022-04-06T04:45:53Z</time>
      </trkpt>
      <trkpt lat="48.57149" lon="7.26659">
        <ele>465</ele>
        <time>2022-04-06T04:45:57Z</time>
      </trkpt>
      <trkpt lat="48.57133" lon="7.26705">
        <ele>463</ele>
        <time>2022-04-06T04:46:04Z</time>
      </trkpt>
      <trkpt lat="48.57121" lon="7.26764">
        <ele>460</ele>
        <time>2022-04-06T04:46:11Z</time>
      </trkpt>
      <trkpt lat="48.57115" lon="7.26877">
        <ele>451</ele>
        <time>2022-04-06T04:46:24Z</time>
      </trkpt>
      <trkpt lat="48.57113" lon="7.26893">
        <ele>448</ele>
        <time>2022-04-06T04:46:26Z</time>
      </trkpt>
      <trkpt lat="48.57107" lon="7.26905">
        <ele>444</ele>
        <time>2022-04-06T04:46:28Z</time>
      </trkpt>
      <trkpt lat="48.57101" lon="7.26906">
        <ele>441</ele>
        <time>2022-04-06T04:46:29Z</time>
      </trkpt>
      <trkpt lat="48.57093" lon="7.269">
        <ele>439</ele>
        <time>2022-04-06T04:46:30Z</time>
      </trkpt>
      <trkpt lat="48.57085" lon="7.26882">
        <ele>439</ele>
        <time>2022-04-06T04:46:33Z</time>
      </trkpt>
      <trkpt lat="48.57073" lon="7.26836">
        <ele>443</ele>
        <time>2022-04-06T04:46:39Z</time>
      </trkpt>
      <trkpt lat="48.57057" lon="7.26806">
        <ele>441</ele>
        <time>2022-04-06T04:46:43Z</time>
      </trkpt>
      <trkpt lat="48.57021" lon="7.26762">
        <ele>436</ele>
        <time>2022-04-06T04:46:52Z</time>
      </trkpt>
      <trkpt lat="48.57013" lon="7.26749">
        <ele>435</ele>
        <time>2022-04-06T04:46:54Z</time>
      </trkpt>
      <trkpt lat="48.57009" lon="7.26736">
        <ele>434</ele>
        <time>2022-04-06T04:46:55Z</time>
      </trkpt>
      <trkpt lat="48.57" lon="7.2668">
        <ele>433</ele>
        <time>2022-04-06T04:47:02Z</time>
      </trkpt>
      <trkpt lat="48.56995" lon="7.26644">
        <ele>429</ele>
        <time>2022-04-06T04:47:07Z</time>
      </trkpt>
      <trkpt lat="48.56999" lon="7.26621">
        <ele>428</ele>
        <time>2022-04-06T04:47:09Z</time>
      </trkpt>
      <trkpt lat="48.57003" lon="7.26614">
        <ele>429</ele>
        <time>2022-04-06T04:47:10Z</time>
      </trkpt>
      <trkpt lat="48.57027" lon="7.26598">
        <ele>432</ele>
        <time>2022-04-06T04:47:15Z</time>
      </trkpt>
      <trkpt lat="48.57033" lon="7.26592">
        <ele>433</ele>
        <time>2022-04-06T04:47:16Z</time>
      </trkpt>
      <trkpt lat="48.57043" lon="7.26569">
        <ele>433</ele>
        <time>2022-04-06T04:47:20Z</time>
      </trkpt>
      <trkpt lat="48.5707" lon="7.26527">
        <ele>432</ele>
        <time>2022-04-06T04:47:26Z</time>
      </trkpt>
      <trkpt lat="48.57073" lon="7.26507">
        <ele>430</ele>
        <time>2022-04-06T04:47:29Z</time>
      </trkpt>
      <trkpt lat="48.57067" lon="7.26491">
        <ele>430</ele>
        <time>2022-04-06T04:47:31Z</time>
      </trkpt>
      <trkpt lat="48.5706" lon="7.26487">
        <ele>430</ele>
        <time>2022-04-06T04:47:32Z</time>
      </trkpt>
      <trkpt lat="48.57054" lon="7.26483">
        <ele>431</ele>
        <time>2022-04-06T04:47:34Z</time>
      </trkpt>
      <trkpt lat="48.57036" lon="7.26486">
        <ele>430</ele>
        <time>2022-04-06T04:47:37Z</time>
      </trkpt>
      <trkpt lat="48.57012" lon="7.26507">
        <ele>428</ele>
        <time>2022-04-06T04:47:42Z</time>
      </trkpt>
      <trkpt lat="48.56943" lon="7.26559">
        <ele>419</ele>
        <time>2022-04-06T04:47:55Z</time>
      </trkpt>
      <trkpt lat="48.56902" lon="7.26606">
        <ele>410</ele>
        <time>2022-04-06T04:48:05Z</time>
      </trkpt>
      <trkpt lat="48.56862" lon="7.26678">
        <ele>401</ele>
        <time>2022-04-06T04:48:16Z</time>
      </trkpt>
      <trkpt lat="48.56855" lon="7.26698">
        <ele>400</ele>
        <time>2022-04-06T04:48:18Z</time>
      </trkpt>
      <trkpt lat="48.56849" lon="7.2672">
        <ele>398</ele>
        <time>2022-04-06T04:48:21Z</time>
      </trkpt>
      <trkpt lat="48.56849" lon="7.26758">
        <ele>397</ele>
        <time>2022-04-06T04:48:26Z</time>
      </trkpt>
      <trkpt lat="48.56852" lon="7.26775">
        <ele>397</ele>
        <time>2022-04-06T04:48:28Z</time>
      </trkpt>
      <trkpt lat="48.56859" lon="7.268">
        <ele>398</ele>
        <time>2022-04-06T04:48:31Z</time>
      </trkpt>
      <trkpt lat="48.56865" lon="7.26812">
        <ele>398</ele>
        <time>2022-04-06T04:48:33Z</time>
      </trkpt>
      <trkpt lat="48.56882" lon="7.26837">
        <ele>398</ele>
        <time>2022-04-06T04:48:37Z</time>
      </trkpt>
      <trkpt lat="48.56906" lon="7.26869">
        <ele>400</ele>
        <time>2022-04-06T04:48:43Z</time>
      </trkpt>
      <trkpt lat="48.56915" lon="7.26888">
        <ele>400</ele>
        <time>2022-04-06T04:48:45Z</time>
      </trkpt>
      <trkpt lat="48.5693" lon="7.26967">
        <ele>408</ele>
        <time>2022-04-06T04:48:55Z</time>
      </trkpt>
      <trkpt lat="48.56944" lon="7.27015">
        <ele>409</ele>
        <time>2022-04-06T04:49:01Z</time>
      </trkpt>
      <trkpt lat="48.56977" lon="7.27106">
        <ele>397</ele>
        <time>2022-04-06T04:49:13Z</time>
      </trkpt>
      <trkpt lat="48.57002" lon="7.27198">
        <ele>391</ele>
        <time>2022-04-06T04:49:25Z</time>
      </trkpt>
      <trkpt lat="48.57009" lon="7.27263">
        <ele>391</ele>
        <time>2022-04-06T04:49:33Z</time>
      </trkpt>
      <trkpt lat="48.56998" lon="7.27581">
        <ele>385</ele>
        <time>2022-04-06T04:50:10Z</time>
      </trkpt>
      <trkpt lat="48.56993" lon="7.27763">
        <ele>389</ele>
        <time>2022-04-06T04:50:32Z</time>
      </trkpt>
      <trkpt lat="48.57001" lon="7.27815">
        <ele>385</ele>
        <time>2022-04-06T04:50:38Z</time>
      </trkpt>
      <trkpt lat="48.57019" lon="7.27866">
        <ele>384</ele>
        <time>2022-04-06T04:50:45Z</time>
      </trkpt>
      <trkpt lat="48.57027" lon="7.27899">
        <ele>383</ele>
        <time>2022-04-06T04:50:49Z</time>
      </trkpt>
      <trkpt lat="48.57042" lon="7.28124">
        <ele>384</ele>
        <time>2022-04-06T04:51:16Z</time>
      </trkpt>
      <trkpt lat="48.57041" lon="7.28162">
        <ele>382</ele>
        <time>2022-04-06T04:51:20Z</time>
      </trkpt>
      <trkpt lat="48.5703" lon="7.28201">
        <ele>379</ele>
        <time>2022-04-06T04:51:25Z</time>
      </trkpt>
      <trkpt lat="48.56971" lon="7.28303">
        <ele>377</ele>
        <time>2022-04-06T04:51:41Z</time>
      </trkpt>
      <trkpt lat="48.56941" lon="7.2836">
        <ele>379</ele>
        <time>2022-04-06T04:51:50Z</time>
      </trkpt>
      <trkpt lat="48.56933" lon="7.28399">
        <ele>374</ele>
        <time>2022-04-06T04:51:54Z</time>
      </trkpt>
      <trkpt lat="48.56928" lon="7.2843">
        <ele>370</ele>
        <time>2022-04-06T04:51:58Z</time>
      </trkpt>
      <trkpt lat="48.5693" lon="7.28457">
        <ele>368</ele>
        <time>2022-04-06T04:52:01Z</time>
      </trkpt>
      <trkpt lat="48.56931" lon="7.2847">
        <ele>367</ele>
        <time>2022-04-06T04:52:03Z</time>
      </trkpt>
      <trkpt lat="48.56932" lon="7.28487">
        <ele>366</ele>
        <time>2022-04-06T04:52:05Z</time>
      </trkpt>
      <trkpt lat="48.56933" lon="7.28528">
        <ele>362</ele>
        <time>2022-04-06T04:52:10Z</time>
      </trkpt>
      <trkpt lat="48.56929" lon="7.28571">
        <ele>358</ele>
        <time>2022-04-06T04:52:15Z</time>
      </trkpt>
      <trkpt lat="48.56925" lon="7.28586">
        <ele>357</ele>
        <time>2022-04-06T04:52:17Z</time>
      </trkpt>
      <trkpt lat="48.56918" lon="7.28606">
        <ele>358</ele>
        <time>2022-04-06T04:52:19Z</time>
      </trkpt>
      <trkpt lat="48.5691" lon="7.28622">
        <ele>361</ele>
        <time>2022-04-06T04:52:22Z</time>
      </trkpt>
      <trkpt lat="48.56871" lon="7.28689">
        <ele>366</ele>
        <time>2022-04-06T04:52:32Z</time>
      </trkpt>
      <trkpt lat="48.56793" lon="7.28808">
        <ele>365</ele>
        <time>2022-04-06T04:52:52Z</time>
      </trkpt>
      <trkpt lat="48.56758" lon="7.28869">
        <ele>356</ele>
        <time>2022-04-06T04:53:02Z</time>
      </trkpt>
      <trkpt lat="48.56735" lon="7.28921">
        <ele>355</ele>
        <time>2022-04-06T04:53:09Z</time>
      </trkpt>
      <trkpt lat="48.56722" lon="7.28954">
        <ele>359</ele>
        <time>2022-04-06T04:53:13Z</time>
      </trkpt>
      <trkpt lat="48.56679" lon="7.29061">
        <ele>354</ele>
        <time>2022-04-06T04:53:28Z</time>
      </trkpt>
      <trkpt lat="48.56645" lon="7.29169">
        <ele>345</ele>
        <time>2022-04-06T04:53:42Z</time>
      </trkpt>
      <trkpt lat="48.5664" lon="7.29187">
        <ele>344</ele>
        <time>2022-04-06T04:53:45Z</time>
      </trkpt>
      <trkpt lat="48.5663" lon="7.29217">
        <ele>343</ele>
        <time>2022-04-06T04:53:49Z</time>
      </trkpt>
      <trkpt lat="48.56627" lon="7.29227">
        <ele>342</ele>
        <time>2022-04-06T04:53:50Z</time>
      </trkpt>
      <trkpt lat="48.56618" lon="7.29249">
        <ele>340</ele>
        <time>2022-04-06T04:53:53Z</time>
      </trkpt>
      <trkpt lat="48.56604" lon="7.29281">
        <ele>339</ele>
        <time>2022-04-06T04:53:57Z</time>
      </trkpt>
      <trkpt lat="48.56596" lon="7.293">
        <ele>337</ele>
        <time>2022-04-06T04:54:00Z</time>
      </trkpt>
      <trkpt lat="48.5659" lon="7.29325">
        <ele>336</ele>
        <time>2022-04-06T04:54:03Z</time>
      </trkpt>
      <trkpt lat="48.56587" lon="7.29364">
        <ele>335</ele>
        <time>2022-04-06T04:54:08Z</time>
      </trkpt>
      <trkpt lat="48.56589" lon="7.2963">
        <ele>335</ele>
        <time>2022-04-06T04:54:39Z</time>
      </trkpt>
      <trkpt lat="48.5659" lon="7.29662">
        <ele>336</ele>
        <time>2022-04-06T04:54:43Z</time>
      </trkpt>
      <trkpt lat="48.56578" lon="7.2974">
        <ele>332</ele>
        <time>2022-04-06T04:54:52Z</time>
      </trkpt>
      <trkpt lat="48.56564" lon="7.29814">
        <ele>330</ele>
        <time>2022-04-06T04:55:01Z</time>
      </trkpt>
      <trkpt lat="48.56554" lon="7.29869">
        <ele>328</ele>
        <time>2022-04-06T04:55:08Z</time>
      </trkpt>
      <trkpt lat="48.56548" lon="7.299">
        <ele>327</ele>
        <time>2022-04-06T04:55:12Z</time>
      </trkpt>
      <trkpt lat="48.56526" lon="7.29941">
        <ele>325</ele>
        <time>2022-04-06T04:55:18Z</time>
      </trkpt>
      <trkpt lat="48.56504" lon="7.29988">
        <ele>323</ele>
        <time>2022-04-06T04:55:25Z</time>
      </trkpt>
      <trkpt lat="48.56501" lon="7.30005">
        <ele>323</ele>
        <time>2022-04-06T04:55:27Z</time>
      </trkpt>
      <trkpt lat="48.56498" lon="7.3003">
        <ele>325</ele>
        <time>2022-04-06T04:55:30Z</time>
      </trkpt>
      <trkpt lat="48.565" lon="7.30073">
        <ele>326</ele>
        <time>2022-04-06T04:55:35Z</time>
      </trkpt>
      <trkpt lat="48.56532" lon="7.30215">
        <ele>332</ele>
        <time>2022-04-06T04:55:53Z</time>
      </trkpt>
      <trkpt lat="48.56533" lon="7.30229">
        <ele>332</ele>
        <time>2022-04-06T04:55:54Z</time>
      </trkpt>
      <trkpt lat="48.56532" lon="7.30254">
        <ele>331</ele>
        <time>2022-04-06T04:55:57Z</time>
      </trkpt>
      <trkpt lat="48.56526" lon="7.3028">
        <ele>329</ele>
        <time>2022-04-06T04:56:01Z</time>
      </trkpt>
      <trkpt lat="48.56517" lon="7.30307">
        <ele>326</ele>
        <time>2022-04-06T04:56:04Z</time>
      </trkpt>
      <trkpt lat="48.56503" lon="7.30333">
        <ele>320</ele>
        <time>2022-04-06T04:56:08Z</time>
      </trkpt>
      <trkpt lat="48.56474" lon="7.30377">
        <ele>321</ele>
        <time>2022-04-06T04:56:15Z</time>
      </trkpt>
      <trkpt lat="48.5645" lon="7.30414">
        <ele>319</ele>
        <time>2022-04-06T04:56:21Z</time>
      </trkpt>
      <trkpt lat="48.56432" lon="7.30435">
        <ele>317</ele>
        <time>2022-04-06T04:56:25Z</time>
      </trkpt>
      <trkpt lat="48.56391" lon="7.30475">
        <ele>315</ele>
        <time>2022-04-06T04:56:34Z</time>
      </trkpt>
      <trkpt lat="48.5637" lon="7.30494">
        <ele>312</ele>
        <time>2022-04-06T04:56:39Z</time>
      </trkpt>
      <trkpt lat="48.56357" lon="7.30509">
        <ele>311</ele>
        <time>2022-04-06T04:56:41Z</time>
      </trkpt>
      <trkpt lat="48.56349" lon="7.30517">
        <ele>311</ele>
        <time>2022-04-06T04:56:43Z</time>
      </trkpt>
      <trkpt lat="48.56339" lon="7.30534">
        <ele>312</ele>
        <time>2022-04-06T04:56:46Z</time>
      </trkpt>
      <trkpt lat="48.5632" lon="7.30563">
        <ele>313</ele>
        <time>2022-04-06T04:56:51Z</time>
      </trkpt>
      <trkpt lat="48.5629" lon="7.30614">
        <ele>314</ele>
        <time>2022-04-06T04:56:59Z</time>
      </trkpt>
      <trkpt lat="48.56287" lon="7.3062">
        <ele>314</ele>
        <time>2022-04-06T04:57:00Z</time>
      </trkpt>
      <trkpt lat="48.56252" lon="7.30695">
        <ele>317</ele>
        <time>2022-04-06T04:57:10Z</time>
      </trkpt>
      <trkpt lat="48.56233" lon="7.30717">
        <ele>319</ele>
        <time>2022-04-06T04:57:15Z</time>
      </trkpt>
      <trkpt lat="48.56198" lon="7.30741">
        <ele>317</ele>
        <time>2022-04-06T04:57:21Z</time>
      </trkpt>
      <trkpt lat="48.56093" lon="7.30803">
        <ele>317</ele>
        <time>2022-04-06T04:57:42Z</time>
      </trkpt>
      <trkpt lat="48.5606" lon="7.3082">
        <ele>314</ele>
        <time>2022-04-06T04:57:48Z</time>
      </trkpt>
      <trkpt lat="48.56038" lon="7.30827">
        <ele>311</ele>
        <time>2022-04-06T04:57:52Z</time>
      </trkpt>
      <trkpt lat="48.56008" lon="7.30832">
        <ele>305</ele>
        <time>2022-04-06T04:57:57Z</time>
      </trkpt>
      <trkpt lat="48.55969" lon="7.3084">
        <ele>303</ele>
        <time>2022-04-06T04:58:04Z</time>
      </trkpt>
      <trkpt lat="48.55952" lon="7.30846">
        <ele>304</ele>
        <time>2022-04-06T04:58:07Z</time>
      </trkpt>
      <trkpt lat="48.55942" lon="7.30852">
        <ele>304</ele>
        <time>2022-04-06T04:58:09Z</time>
      </trkpt>
      <trkpt lat="48.55932" lon="7.30862">
        <ele>304</ele>
        <time>2022-04-06T04:58:11Z</time>
      </trkpt>
      <trkpt lat="48.55924" lon="7.30876">
        <ele>304</ele>
        <time>2022-04-06T04:58:13Z</time>
      </trkpt>
      <trkpt lat="48.55906" lon="7.30912">
        <ele>304</ele>
        <time>2022-04-06T04:58:19Z</time>
      </trkpt>
      <trkpt lat="48.55878" lon="7.30998">
        <ele>308</ele>
        <time>2022-04-06T04:58:30Z</time>
      </trkpt>
      <trkpt lat="48.55864" lon="7.31032">
        <ele>311</ele>
        <time>2022-04-06T04:58:35Z</time>
      </trkpt>
      <trkpt lat="48.55791" lon="7.31123">
        <ele>308</ele>
        <time>2022-04-06T04:58:52Z</time>
      </trkpt>
      <trkpt lat="48.55774" lon="7.31147">
        <ele>306</ele>
        <time>2022-04-06T04:58:56Z</time>
      </trkpt>
      <trkpt lat="48.55737" lon="7.31219">
        <ele>305</ele>
        <time>2022-04-06T04:59:06Z</time>
      </trkpt>
      <trkpt lat="48.55718" lon="7.31249">
        <ele>305</ele>
        <time>2022-04-06T04:59:11Z</time>
      </trkpt>
      <trkpt lat="48.55693" lon="7.31275">
        <ele>305</ele>
        <time>2022-04-06T04:59:17Z</time>
      </trkpt>
      <trkpt lat="48.55661" lon="7.31303">
        <ele>303</ele>
        <time>2022-04-06T04:59:23Z</time>
      </trkpt>
      <trkpt lat="48.55562" lon="7.31428">
        <ele>301</ele>
        <time>2022-04-06T04:59:46Z</time>
      </trkpt>
      <trkpt lat="48.55542" lon="7.31465">
        <ele>300</ele>
        <time>2022-04-06T04:59:52Z</time>
      </trkpt>
      <trkpt lat="48.55472" lon="7.31613">
        <ele>299</ele>
        <time>2022-04-06T05:00:13Z</time>
      </trkpt>
      <trkpt lat="48.55422" lon="7.31735">
        <ele>299</ele>
        <time>2022-04-06T05:00:30Z</time>
      </trkpt>
      <trkpt lat="48.55412" lon="7.31756">
        <ele>298</ele>
        <time>2022-04-06T05:00:33Z</time>
      </trkpt>
      <trkpt lat="48.55392" lon="7.31796">
        <ele>299</ele>
        <time>2022-04-06T05:00:39Z</time>
      </trkpt>
      <trkpt lat="48.55358" lon="7.31849">
        <ele>297</ele>
        <time>2022-04-06T05:00:48Z</time>
      </trkpt>
      <trkpt lat="48.55315" lon="7.31904">
        <ele>296</ele>
        <time>2022-04-06T05:00:58Z</time>
      </trkpt>
      <trkpt lat="48.55242" lon="7.32032">
        <ele>292</ele>
        <time>2022-04-06T05:01:18Z</time>
      </trkpt>
      <trkpt lat="48.55231" lon="7.32049">
        <ele>292</ele>
        <time>2022-04-06T05:01:21Z</time>
      </trkpt>
      <trkpt lat="48.55211" lon="7.32071">
        <ele>289</ele>
        <time>2022-04-06T05:01:25Z</time>
      </trkpt>
      <trkpt lat="48.55187" lon="7.32107">
        <ele>287</ele>
        <time>2022-04-06T05:01:31Z</time>
      </trkpt>
      <trkpt lat="48.55162" lon="7.32162">
        <ele>286</ele>
        <time>2022-04-06T05:01:39Z</time>
      </trkpt>
      <trkpt lat="48.55143" lon="7.32213">
        <ele>286</ele>
        <time>2022-04-06T05:01:46Z</time>
      </trkpt>
      <trkpt lat="48.55108" lon="7.32329">
        <ele>281</ele>
        <time>2022-04-06T05:02:01Z</time>
      </trkpt>
      <trkpt lat="48.55098" lon="7.32353">
        <ele>278</ele>
        <time>2022-04-06T05:02:04Z</time>
      </trkpt>
      <trkpt lat="48.55078" lon="7.32384">
        <ele>274</ele>
        <time>2022-04-06T05:02:09Z</time>
      </trkpt>
      <trkpt lat="48.55069" lon="7.32393">
        <ele>274</ele>
        <time>2022-04-06T05:02:11Z</time>
      </trkpt>
      <trkpt lat="48.55066" lon="7.32388">
        <ele>274</ele>
        <time>2022-04-06T05:02:12Z</time>
      </trkpt>
      <trkpt lat="48.55062" lon="7.32387">
        <ele>274</ele>
        <time>2022-04-06T05:02:13Z</time>
      </trkpt>
      <trkpt lat="48.55058" lon="7.32389">
        <ele>273</ele>
        <time>2022-04-06T05:02:13Z</time>
      </trkpt>
      <trkpt lat="48.55056" lon="7.32394">
        <ele>273</ele>
        <time>2022-04-06T05:02:14Z</time>
      </trkpt>
      <trkpt lat="48.55056" lon="7.324">
        <ele>273</ele>
        <time>2022-04-06T05:02:15Z</time>
      </trkpt>
      <trkpt lat="48.55058" lon="7.32405">
        <ele>274</ele>
        <time>2022-04-06T05:02:15Z</time>
      </trkpt>
      <trkpt lat="48.55061" lon="7.32408">
        <ele>274</ele>
        <time>2022-04-06T05:02:16Z</time>
      </trkpt>
      <trkpt lat="48.55058" lon="7.32424">
        <ele>274</ele>
        <time>2022-04-06T05:02:18Z</time>
      </trkpt>
      <trkpt lat="48.55028" lon="7.32508">
        <ele>275</ele>
        <time>2022-04-06T05:02:29Z</time>
      </trkpt>
      <trkpt lat="48.55022" lon="7.32529">
        <ele>275</ele>
        <time>2022-04-06T05:02:32Z</time>
      </trkpt>
      <trkpt lat="48.55021" lon="7.32543">
        <ele>275</ele>
        <time>2022-04-06T05:02:34Z</time>
      </trkpt>
      <trkpt lat="48.55025" lon="7.32634">
        <ele>277</ele>
        <time>2022-04-06T05:02:44Z</time>
      </trkpt>
      <trkpt lat="48.55024" lon="7.32653">
        <ele>277</ele>
        <time>2022-04-06T05:02:47Z</time>
      </trkpt>
      <trkpt lat="48.55015" lon="7.32696">
        <ele>276</ele>
        <time>2022-04-06T05:02:52Z</time>
      </trkpt>
      <trkpt lat="48.55002" lon="7.32736">
        <ele>276</ele>
        <time>2022-04-06T05:02:57Z</time>
      </trkpt>
      <trkpt lat="48.55" lon="7.32749">
        <ele>276</ele>
        <time>2022-04-06T05:02:59Z</time>
      </trkpt>
      <trkpt lat="48.55002" lon="7.32783">
        <ele>277</ele>
        <time>2022-04-06T05:03:03Z</time>
      </trkpt>
      <trkpt lat="48.55002" lon="7.32798">
        <ele>277</ele>
        <time>2022-04-06T05:03:05Z</time>
      </trkpt>
      <trkpt lat="48.55014" lon="7.32855">
        <ele>278</ele>
        <time>2022-04-06T05:03:12Z</time>
      </trkpt>
      <trkpt lat="48.55015" lon="7.32868">
        <ele>278</ele>
        <time>2022-04-06T05:03:13Z</time>
      </trkpt>
      <trkpt lat="48.5502" lon="7.32924">
        <ele>278</ele>
        <time>2022-04-06T05:03:20Z</time>
      </trkpt>
      <trkpt lat="48.5502" lon="7.32949">
        <ele>278</ele>
        <time>2022-04-06T05:03:23Z</time>
      </trkpt>
      <trkpt lat="48.55017" lon="7.32981">
        <ele>279</ele>
        <time>2022-04-06T05:03:27Z</time>
      </trkpt>
      <trkpt lat="48.55014" lon="7.32998">
        <ele>279</ele>
        <time>2022-04-06T05:03:29Z</time>
      </trkpt>
      <trkpt lat="48.55008" lon="7.3302">
        <ele>279</ele>
        <time>2022-04-06T05:03:31Z</time>
      </trkpt>
      <trkpt lat="48.54999" lon="7.3304">
        <ele>278</ele>
        <time>2022-04-06T05:03:34Z</time>
      </trkpt>
      <trkpt lat="48.54977" lon="7.33071">
        <ele>277</ele>
        <time>2022-04-06T05:03:40Z</time>
      </trkpt>
      <trkpt lat="48.54963" lon="7.33094">
        <ele>277</ele>
        <time>2022-04-06T05:03:43Z</time>
      </trkpt>
      <trkpt lat="48.54953" lon="7.33116">
        <ele>277</ele>
        <time>2022-04-06T05:03:46Z</time>
      </trkpt>
      <trkpt lat="48.54948" lon="7.33139">
        <ele>277</ele>
        <time>2022-04-06T05:03:49Z</time>
      </trkpt>
      <trkpt lat="48.54946" lon="7.33146">
        <ele>277</ele>
        <time>2022-04-06T05:03:50Z</time>
      </trkpt>
      <trkpt lat="48.54942" lon="7.33151">
        <ele>276</ele>
        <time>2022-04-06T05:03:51Z</time>
      </trkpt>
      <trkpt lat="48.54935" lon="7.3316">
        <ele>276</ele>
        <time>2022-04-06T05:03:53Z</time>
      </trkpt>
      <trkpt lat="48.5491" lon="7.3323">
        <ele>275</ele>
        <time>2022-04-06T05:04:02Z</time>
      </trkpt>
      <trkpt lat="48.54907" lon="7.33242">
        <ele>275</ele>
        <time>2022-04-06T05:04:04Z</time>
      </trkpt>
      <trkpt lat="48.54892" lon="7.33291">
        <ele>275</ele>
        <time>2022-04-06T05:04:10Z</time>
      </trkpt>
      <trkpt lat="48.5489" lon="7.33303">
        <ele>275</ele>
        <time>2022-04-06T05:04:11Z</time>
      </trkpt>
      <trkpt lat="48.5489" lon="7.33341">
        <ele>275</ele>
        <time>2022-04-06T05:04:16Z</time>
      </trkpt>
      <trkpt lat="48.54889" lon="7.33348">
        <ele>275</ele>
        <time>2022-04-06T05:04:17Z</time>
      </trkpt>
      <trkpt lat="48.54887" lon="7.33356">
        <ele>275</ele>
        <time>2022-04-06T05:04:18Z</time>
      </trkpt>
      <trkpt lat="48.54881" lon="7.33364">
        <ele>275</ele>
        <time>2022-04-06T05:04:19Z</time>
      </trkpt>
      <trkpt lat="48.54859" lon="7.33389">
        <ele>275</ele>
        <time>2022-04-06T05:04:24Z</time>
      </trkpt>
      <trkpt lat="48.54834" lon="7.33429">
        <ele>274</ele>
        <time>2022-04-06T05:04:31Z</time>
      </trkpt>
      <trkpt lat="48.5478" lon="7.33546">
        <ele>272</ele>
        <time>2022-04-06T05:04:47Z</time>
      </trkpt>
      <trkpt lat="48.54776" lon="7.33554">
        <ele>272</ele>
        <time>2022-04-06T05:04:49Z</time>
      </trkpt>
      <trkpt lat="48.54767" lon="7.33582">
        <ele>272</ele>
        <time>2022-04-06T05:04:52Z</time>
      </trkpt>
      <trkpt lat="48.54759" lon="7.33614">
        <ele>271</ele>
        <time>2022-04-06T05:04:56Z</time>
      </trkpt>
      <trkpt lat="48.54748" lon="7.33638">
        <ele>270</ele>
        <time>2022-04-06T05:05:00Z</time>
      </trkpt>
      <trkpt lat="48.54721" lon="7.33724">
        <ele>270</ele>
        <time>2022-04-06T05:05:11Z</time>
      </trkpt>
      <trkpt lat="48.54713" lon="7.33741">
        <ele>269</ele>
        <time>2022-04-06T05:05:13Z</time>
      </trkpt>
      <trkpt lat="48.54694" lon="7.33779">
        <ele>269</ele>
        <time>2022-04-06T05:05:19Z</time>
      </trkpt>
      <trkpt lat="48.5466" lon="7.33825">
        <ele>265</ele>
        <time>2022-04-06T05:05:27Z</time>
      </trkpt>
      <trkpt lat="48.54583" lon="7.33937">
        <ele>260</ele>
        <time>2022-04-06T05:05:46Z</time>
      </trkpt>
      <trkpt lat="48.54535" lon="7.34025">
        <ele>259</ele>
        <time>2022-04-06T05:06:00Z</time>
      </trkpt>
      <trkpt lat="48.54524" lon="7.34036">
        <ele>259</ele>
        <time>2022-04-06T05:06:02Z</time>
      </trkpt>
      <trkpt lat="48.54517" lon="7.3404">
        <ele>258</ele>
        <time>2022-04-06T05:06:03Z</time>
      </trkpt>
      <trkpt lat="48.54512" lon="7.3404">
        <ele>258</ele>
        <time>2022-04-06T05:06:04Z</time>
      </trkpt>
      <trkpt lat="48.54498" lon="7.34028">
        <ele>257</ele>
        <time>2022-04-06T05:06:07Z</time>
      </trkpt>
      <trkpt lat="48.54448" lon="7.33984">
        <ele>256</ele>
        <time>2022-04-06T05:06:17Z</time>
      </trkpt>
      <trkpt lat="48.54426" lon="7.33968">
        <ele>256</ele>
        <time>2022-04-06T05:06:22Z</time>
      </trkpt>
      <trkpt lat="48.54395" lon="7.33957">
        <ele>256</ele>
        <time>2022-04-06T05:06:27Z</time>
      </trkpt>
      <trkpt lat="48.54384" lon="7.33955">
        <ele>256</ele>
        <time>2022-04-06T05:06:29Z</time>
      </trkpt>
      <trkpt lat="48.54373" lon="7.3396">
        <ele>256</ele>
        <time>2022-04-06T05:06:31Z</time>
      </trkpt>
      <trkpt lat="48.54362" lon="7.3397">
        <ele>256</ele>
        <time>2022-04-06T05:06:34Z</time>
      </trkpt>
      <trkpt lat="48.54341" lon="7.33989">
        <ele>256</ele>
        <time>2022-04-06T05:06:38Z</time>
      </trkpt>
      <trkpt lat="48.54309" lon="7.34005">
        <ele>256</ele>
        <time>2022-04-06T05:06:44Z</time>
      </trkpt>
      <trkpt lat="48.54293" lon="7.34016">
        <ele>256</ele>
        <time>2022-04-06T05:06:47Z</time>
      </trkpt>
      <trkpt lat="48.5428" lon="7.34034">
        <ele>256</ele>
        <time>2022-04-06T05:06:50Z</time>
      </trkpt>
      <trkpt lat="48.54267" lon="7.34055">
        <ele>255</ele>
        <time>2022-04-06T05:06:54Z</time>
      </trkpt>
      <trkpt lat="48.5425" lon="7.34107">
        <ele>253</ele>
        <time>2022-04-06T05:07:00Z</time>
      </trkpt>
      <trkpt lat="48.54239" lon="7.34153">
        <ele>252</ele>
        <time>2022-04-06T05:07:06Z</time>
      </trkpt>
      <trkpt lat="48.54184" lon="7.34239">
        <ele>251</ele>
        <time>2022-04-06T05:07:20Z</time>
      </trkpt>
      <trkpt lat="48.54165" lon="7.34267">
        <ele>251</ele>
        <time>2022-04-06T05:07:25Z</time>
      </trkpt>
      <trkpt lat="48.54151" lon="7.34279">
        <ele>252</ele>
        <time>2022-04-06T05:07:28Z</time>
      </trkpt>
      <trkpt lat="48.5411" lon="7.34301">
        <ele>253</ele>
        <time>2022-04-06T05:07:36Z</time>
      </trkpt>
      <trkpt lat="48.54071" lon="7.34356">
        <ele>250</ele>
        <time>2022-04-06T05:07:45Z</time>
      </trkpt>
      <trkpt lat="48.53978" lon="7.34498">
        <ele>247</ele>
        <time>2022-04-06T05:08:09Z</time>
      </trkpt>
      <trkpt lat="48.53968" lon="7.34509">
        <ele>248</ele>
        <time>2022-04-06T05:08:11Z</time>
      </trkpt>
      <trkpt lat="48.53853" lon="7.34595">
        <ele>247</ele>
        <time>2022-04-06T05:08:34Z</time>
      </trkpt>
      <trkpt lat="48.53823" lon="7.34608">
        <ele>247</ele>
        <time>2022-04-06T05:08:39Z</time>
      </trkpt>
      <trkpt lat="48.53737" lon="7.34625">
        <ele>247</ele>
        <time>2022-04-06T05:08:55Z</time>
      </trkpt>
      <trkpt lat="48.53565" lon="7.3464">
        <ele>244</ele>
        <time>2022-04-06T05:09:25Z</time>
      </trkpt>
      <trkpt lat="48.5337" lon="7.34662">
        <ele>245</ele>
        <time>2022-04-06T05:10:00Z</time>
      </trkpt>
      <trkpt lat="48.53264" lon="7.3468">
        <ele>247</ele>
        <time>2022-04-06T05:10:19Z</time>
      </trkpt>
      <trkpt lat="48.5318" lon="7.34705">
        <ele>243</ele>
        <time>2022-04-06T05:10:34Z</time>
      </trkpt>
      <trkpt lat="48.53095" lon="7.34738">
        <ele>241</ele>
        <time>2022-04-06T05:10:50Z</time>
      </trkpt>
      <trkpt lat="48.52987" lon="7.34788">
        <ele>239</ele>
        <time>2022-04-06T05:11:10Z</time>
      </trkpt>
      <trkpt lat="48.52942" lon="7.34794">
        <ele>239</ele>
        <time>2022-04-06T05:11:18Z</time>
      </trkpt>
      <trkpt lat="48.52699" lon="7.34804">
        <ele>233</ele>
        <time>2022-04-06T05:12:01Z</time>
      </trkpt>
      <trkpt lat="48.52669" lon="7.34803">
        <ele>233</ele>
        <time>2022-04-06T05:12:07Z</time>
      </trkpt>
      <trkpt lat="48.52652" lon="7.34794">
        <ele>233</ele>
        <time>2022-04-06T05:12:10Z</time>
      </trkpt>
      <trkpt lat="48.52636" lon="7.34775">
        <ele>233</ele>
        <time>2022-04-06T05:12:14Z</time>
      </trkpt>
      <trkpt lat="48.52628" lon="7.34755">
        <ele>234</ele>
        <time>2022-04-06T05:12:16Z</time>
      </trkpt>
      <trkpt lat="48.52623" lon="7.34733">
        <ele>234</ele>
        <time>2022-04-06T05:12:19Z</time>
      </trkpt>
      <trkpt lat="48.5262" lon="7.34699">
        <ele>234</ele>
        <time>2022-04-06T05:12:23Z</time>
      </trkpt>
      <trkpt lat="48.52613" lon="7.34674">
        <ele>234</ele>
        <time>2022-04-06T05:12:26Z</time>
      </trkpt>
      <trkpt lat="48.52612" lon="7.34661">
        <ele>234</ele>
        <time>2022-04-06T05:12:28Z</time>
      </trkpt>
      <trkpt lat="48.5261" lon="7.34655">
        <ele>234</ele>
        <time>2022-04-06T05:12:29Z</time>
      </trkpt>
      <trkpt lat="48.52617" lon="7.34607">
        <ele>235</ele>
        <time>2022-04-06T05:12:34Z</time>
      </trkpt>
      <trkpt lat="48.52657" lon="7.34511">
        <ele>236</ele>
        <time>2022-04-06T05:12:48Z</time>
      </trkpt>
      <trkpt lat="48.52664" lon="7.34489">
        <ele>237</ele>
        <time>2022-04-06T05:12:51Z</time>
      </trkpt>
      <trkpt lat="48.52669" lon="7.34464">
        <ele>238</ele>
        <time>2022-04-06T05:12:54Z</time>
      </trkpt>
      <trkpt lat="48.52673" lon="7.34409">
        <ele>238</ele>
        <time>2022-04-06T05:13:00Z</time>
      </trkpt>
      <trkpt lat="48.52672" lon="7.3431">
        <ele>238</ele>
        <time>2022-04-06T05:13:12Z</time>
      </trkpt>
      <trkpt lat="48.52673" lon="7.34254">
        <ele>238</ele>
        <time>2022-04-06T05:13:18Z</time>
      </trkpt>
      <trkpt lat="48.52685" lon="7.34113">
        <ele>239</ele>
        <time>2022-04-06T05:13:35Z</time>
      </trkpt>
      <trkpt lat="48.52687" lon="7.34079">
        <ele>239</ele>
        <time>2022-04-06T05:13:39Z</time>
      </trkpt>
      <trkpt lat="48.52681" lon="7.33921">
        <ele>239</ele>
        <time>2022-04-06T05:13:58Z</time>
      </trkpt>
      <trkpt lat="48.52683" lon="7.33871">
        <ele>238</ele>
        <time>2022-04-06T05:14:04Z</time>
      </trkpt>
      <trkpt lat="48.5269" lon="7.33804">
        <ele>239</ele>
        <time>2022-04-06T05:14:12Z</time>
      </trkpt>
      <trkpt lat="48.52691" lon="7.33754">
        <ele>239</ele>
        <time>2022-04-06T05:14:18Z</time>
      </trkpt>
      <trkpt lat="48.52687" lon="7.33711">
        <ele>239</ele>
        <time>2022-04-06T05:14:23Z</time>
      </trkpt>
      <trkpt lat="48.52662" lon="7.33578">
        <ele>237</ele>
        <time>2022-04-06T05:14:39Z</time>
      </trkpt>
      <trkpt lat="48.52654" lon="7.33517">
        <ele>238</ele>
        <time>2022-04-06T05:14:46Z</time>
      </trkpt>
      <trkpt lat="48.52642" lon="7.3339">
        <ele>238</ele>
        <time>2022-04-06T05:15:02Z</time>
      </trkpt>
      <trkpt lat="48.52637" lon="7.33355">
        <ele>238</ele>
        <time>2022-04-06T05:15:06Z</time>
      </trkpt>
      <trkpt lat="48.5261" lon="7.33253">
        <ele>238</ele>
        <time>2022-04-06T05:15:19Z</time>
      </trkpt>
      <trkpt lat="48.52604" lon="7.33224">
        <ele>238</ele>
        <time>2022-04-06T05:15:22Z</time>
      </trkpt>
      <trkpt lat="48.52596" lon="7.33155">
        <ele>238</ele>
        <time>2022-04-06T05:15:31Z</time>
      </trkpt>
      <trkpt lat="48.52595" lon="7.33114">
        <ele>237</ele>
        <time>2022-04-06T05:15:35Z</time>
      </trkpt>
      <trkpt lat="48.52598" lon="7.32978">
        <ele>237</ele>
        <time>2022-04-06T05:15:51Z</time>
      </trkpt>
      <trkpt lat="48.52601" lon="7.32922">
        <ele>238</ele>
        <time>2022-04-06T05:15:58Z</time>
      </trkpt>
      <trkpt lat="48.52622" lon="7.32796">
        <ele>239</ele>
        <time>2022-04-06T05:16:13Z</time>
      </trkpt>
      <trkpt lat="48.52622" lon="7.32739">
        <ele>239</ele>
        <time>2022-04-06T05:16:20Z</time>
      </trkpt>
      <trkpt lat="48.52623" lon="7.32728">
        <ele>239</ele>
        <time>2022-04-06T05:16:21Z</time>
      </trkpt>
      <trkpt lat="48.52637" lon="7.32662">
        <ele>240</ele>
        <time>2022-04-06T05:16:30Z</time>
      </trkpt>
      <trkpt lat="48.52677" lon="7.32523">
        <ele>241</ele>
        <time>2022-04-06T05:16:47Z</time>
      </trkpt>
      <trkpt lat="48.52679" lon="7.32506">
        <ele>241</ele>
        <time>2022-04-06T05:16:49Z</time>
      </trkpt>
      <trkpt lat="48.5268" lon="7.32489">
        <ele>242</ele>
        <time>2022-04-06T05:16:51Z</time>
      </trkpt>
      <trkpt lat="48.52674" lon="7.32434">
        <ele>242</ele>
        <time>2022-04-06T05:16:58Z</time>
      </trkpt>
      <trkpt lat="48.52654" lon="7.32324">
        <ele>240</ele>
        <time>2022-04-06T05:17:11Z</time>
      </trkpt>
      <trkpt lat="48.5265" lon="7.32293">
        <ele>240</ele>
        <time>2022-04-06T05:17:15Z</time>
      </trkpt>
      <trkpt lat="48.52648" lon="7.32265">
        <ele>240</ele>
        <time>2022-04-06T05:17:18Z</time>
      </trkpt>
      <trkpt lat="48.52652" lon="7.32174">
        <ele>243</ele>
        <time>2022-04-06T05:17:29Z</time>
      </trkpt>
      <trkpt lat="48.52653" lon="7.32124">
        <ele>244</ele>
        <time>2022-04-06T05:17:35Z</time>
      </trkpt>
      <trkpt lat="48.52651" lon="7.32088">
        <ele>245</ele>
        <time>2022-04-06T05:17:39Z</time>
      </trkpt>
      <trkpt lat="48.52617" lon="7.31883">
        <ele>245</ele>
        <time>2022-04-06T05:18:04Z</time>
      </trkpt>
      <trkpt lat="48.52616" lon="7.31846">
        <ele>245</ele>
        <time>2022-04-06T05:18:09Z</time>
      </trkpt>
      <trkpt lat="48.52619" lon="7.31782">
        <ele>247</ele>
        <time>2022-04-06T05:18:16Z</time>
      </trkpt>
      <trkpt lat="48.52618" lon="7.31721">
        <ele>249</ele>
        <time>2022-04-06T05:18:23Z</time>
      </trkpt>
      <trkpt lat="48.52615" lon="7.31664">
        <ele>250</ele>
        <time>2022-04-06T05:18:30Z</time>
      </trkpt>
      <trkpt lat="48.52603" lon="7.31607">
        <ele>251</ele>
        <time>2022-04-06T05:18:37Z</time>
      </trkpt>
      <trkpt lat="48.5256" lon="7.31448">
        <ele>252</ele>
        <time>2022-04-06T05:18:57Z</time>
      </trkpt>
      <trkpt lat="48.52541" lon="7.31363">
        <ele>253</ele>
        <time>2022-04-06T05:19:08Z</time>
      </trkpt>
      <trkpt lat="48.52533" lon="7.31309">
        <ele>252</ele>
        <time>2022-04-06T05:19:15Z</time>
      </trkpt>
      <trkpt lat="48.52518" lon="7.31152">
        <ele>250</ele>
        <time>2022-04-06T05:19:33Z</time>
      </trkpt>
      <trkpt lat="48.52516" lon="7.31142">
        <ele>250</ele>
        <time>2022-04-06T05:19:34Z</time>
      </trkpt>
      <trkpt lat="48.52496" lon="7.31">
        <ele>253</ele>
        <time>2022-04-06T05:19:52Z</time>
      </trkpt>
      <trkpt lat="48.52483" lon="7.30938">
        <ele>258</ele>
        <time>2022-04-06T05:19:59Z</time>
      </trkpt>
      <trkpt lat="48.52462" lon="7.30878">
        <ele>259</ele>
        <time>2022-04-06T05:20:07Z</time>
      </trkpt>
      <trkpt lat="48.52438" lon="7.3082">
        <ele>259</ele>
        <time>2022-04-06T05:20:15Z</time>
      </trkpt>
      <trkpt lat="48.52385" lon="7.30718">
        <ele>261</ele>
        <time>2022-04-06T05:20:31Z</time>
      </trkpt>
      <trkpt lat="48.52371" lon="7.3068">
        <ele>261</ele>
        <time>2022-04-06T05:20:36Z</time>
      </trkpt>
      <trkpt lat="48.52354" lon="7.30578">
        <ele>264</ele>
        <time>2022-04-06T05:20:48Z</time>
      </trkpt>
      <trkpt lat="48.52353" lon="7.30566">
        <ele>264</ele>
        <time>2022-04-06T05:20:49Z</time>
      </trkpt>
      <trkpt lat="48.52353" lon="7.30546">
        <ele>263</ele>
        <time>2022-04-06T05:20:52Z</time>
      </trkpt>
      <trkpt lat="48.52383" lon="7.30452">
        <ele>270</ele>
        <time>2022-04-06T05:21:04Z</time>
      </trkpt>
      <trkpt lat="48.52395" lon="7.30404">
        <ele>271</ele>
        <time>2022-04-06T05:21:10Z</time>
      </trkpt>
      <trkpt lat="48.52408" lon="7.30346">
        <ele>273</ele>
        <time>2022-04-06T05:21:17Z</time>
      </trkpt>
      <trkpt lat="48.5241" lon="7.30329">
        <ele>273</ele>
        <time>2022-04-06T05:21:19Z</time>
      </trkpt>
      <trkpt lat="48.52412" lon="7.3029">
        <ele>273</ele>
        <time>2022-04-06T05:21:24Z</time>
      </trkpt>
      <trkpt lat="48.52406" lon="7.30197">
        <ele>271</ele>
        <time>2022-04-06T05:21:35Z</time>
      </trkpt>
      <trkpt lat="48.52403" lon="7.30161">
        <ele>271</ele>
        <time>2022-04-06T05:21:39Z</time>
      </trkpt>
      <trkpt lat="48.52396" lon="7.30128">
        <ele>271</ele>
        <time>2022-04-06T05:21:43Z</time>
      </trkpt>
      <trkpt lat="48.52388" lon="7.30109">
        <ele>270</ele>
        <time>2022-04-06T05:21:46Z</time>
      </trkpt>
      <trkpt lat="48.52371" lon="7.3008">
        <ele>267</ele>
        <time>2022-04-06T05:21:51Z</time>
      </trkpt>
      <trkpt lat="48.52347" lon="7.30033">
        <ele>266</ele>
        <time>2022-04-06T05:21:58Z</time>
      </trkpt>
      <trkpt lat="48.52314" lon="7.29954">
        <ele>266</ele>
        <time>2022-04-06T05:22:09Z</time>
      </trkpt>
      <trkpt lat="48.52296" lon="7.29901">
        <ele>265</ele>
        <time>2022-04-06T05:22:16Z</time>
      </trkpt>
      <trkpt lat="48.5229" lon="7.29866">
        <ele>264</ele>
        <time>2022-04-06T05:22:20Z</time>
      </trkpt>
      <trkpt lat="48.52287" lon="7.2981">
        <ele>266</ele>
        <time>2022-04-06T05:22:27Z</time>
      </trkpt>
      <trkpt lat="48.52281" lon="7.29778">
        <ele>266</ele>
        <time>2022-04-06T05:22:30Z</time>
      </trkpt>
      <trkpt lat="48.52277" lon="7.29764">
        <ele>266</ele>
        <time>2022-04-06T05:22:32Z</time>
      </trkpt>
      <trkpt lat="48.52255" lon="7.29707">
        <ele>263</ele>
        <time>2022-04-06T05:22:40Z</time>
      </trkpt>
      <trkpt lat="48.52237" lon="7.29649">
        <ele>264</ele>
        <time>2022-04-06T05:22:48Z</time>
      </trkpt>
      <trkpt lat="48.52207" lon="7.29449">
        <ele>266</ele>
        <time>2022-04-06T05:23:12Z</time>
      </trkpt>
      <trkpt lat="48.52197" lon="7.29407">
        <ele>266</ele>
        <time>2022-04-06T05:23:17Z</time>
      </trkpt>
      <trkpt lat="48.52186" lon="7.29371">
        <ele>265</ele>
        <time>2022-04-06T05:23:22Z</time>
      </trkpt>
      <trkpt lat="48.52174" lon="7.2934">
        <ele>264</ele>
        <time>2022-04-06T05:23:26Z</time>
      </trkpt>
      <trkpt lat="48.5215" lon="7.29291">
        <ele>262</ele>
        <time>2022-04-06T05:23:33Z</time>
      </trkpt>
      <trkpt lat="48.52144" lon="7.29277">
        <ele>261</ele>
        <time>2022-04-06T05:23:35Z</time>
      </trkpt>
      <trkpt lat="48.52122" lon="7.29175">
        <ele>259</ele>
        <time>2022-04-06T05:23:48Z</time>
      </trkpt>
      <trkpt lat="48.52119" lon="7.29163">
        <ele>258</ele>
        <time>2022-04-06T05:23:49Z</time>
      </trkpt>
      <trkpt lat="48.52109" lon="7.29143">
        <ele>258</ele>
        <time>2022-04-06T05:23:52Z</time>
      </trkpt>
      <trkpt lat="48.52034" lon="7.29041">
        <ele>260</ele>
        <time>2022-04-06T05:24:10Z</time>
      </trkpt>
      <trkpt lat="48.52025" lon="7.29017">
        <ele>261</ele>
        <time>2022-04-06T05:24:13Z</time>
      </trkpt>
      <trkpt lat="48.52006" lon="7.28895">
        <ele>269</ele>
        <time>2022-04-06T05:24:28Z</time>
      </trkpt>
      <trkpt lat="48.51997" lon="7.28856">
        <ele>270</ele>
        <time>2022-04-06T05:24:33Z</time>
      </trkpt>
      <trkpt lat="48.51981" lon="7.28812">
        <ele>271</ele>
        <time>2022-04-06T05:24:39Z</time>
      </trkpt>
      <trkpt lat="48.51965" lon="7.28786">
        <ele>272</ele>
        <time>2022-04-06T05:24:43Z</time>
      </trkpt>
      <trkpt lat="48.51958" lon="7.28781">
        <ele>273</ele>
        <time>2022-04-06T05:24:44Z</time>
      </trkpt>
      <trkpt lat="48.51917" lon="7.2884">
        <ele>268</ele>
        <time>2022-04-06T05:24:55Z</time>
      </trkpt>
      <trkpt lat="48.51896" lon="7.28873">
        <ele>265</ele>
        <time>2022-04-06T05:25:00Z</time>
      </trkpt>
      <trkpt lat="48.51878" lon="7.28908">
        <ele>263</ele>
        <time>2022-04-06T05:25:05Z</time>
      </trkpt>
      <trkpt lat="48.51863" lon="7.2895">
        <ele>260</ele>
        <time>2022-04-06T05:25:11Z</time>
      </trkpt>
      <trkpt lat="48.51843" lon="7.29016">
        <ele>256</ele>
        <time>2022-04-06T05:25:19Z</time>
      </trkpt>
      <trkpt lat="48.51778" lon="7.29154">
        <ele>252</ele>
        <time>2022-04-06T05:25:39Z</time>
      </trkpt>
      <trkpt lat="48.51769" lon="7.29176">
        <ele>252</ele>
        <time>2022-04-06T05:25:42Z</time>
      </trkpt>
      <trkpt lat="48.51765" lon="7.29195">
        <ele>252</ele>
        <time>2022-04-06T05:25:45Z</time>
      </trkpt>
      <trkpt lat="48.51751" lon="7.29285">
        <ele>252</ele>
        <time>2022-04-06T05:25:56Z</time>
      </trkpt>
      <trkpt lat="48.51742" lon="7.29307">
        <ele>252</ele>
        <time>2022-04-06T05:25:59Z</time>
      </trkpt>
      <trkpt lat="48.51735" lon="7.29316">
        <ele>252</ele>
        <time>2022-04-06T05:26:00Z</time>
      </trkpt>
      <trkpt lat="48.51723" lon="7.29324">
        <ele>253</ele>
        <time>2022-04-06T05:26:03Z</time>
      </trkpt>
      <trkpt lat="48.51708" lon="7.29328">
        <ele>253</ele>
        <time>2022-04-06T05:26:05Z</time>
      </trkpt>
      <trkpt lat="48.51689" lon="7.29328">
        <ele>253</ele>
        <time>2022-04-06T05:26:09Z</time>
      </trkpt>
      <trkpt lat="48.51659" lon="7.29329">
        <ele>254</ele>
        <time>2022-04-06T05:26:14Z</time>
      </trkpt>
      <trkpt lat="48.51627" lon="7.29334">
        <ele>254</ele>
        <time>2022-04-06T05:26:20Z</time>
      </trkpt>
      <trkpt lat="48.51618" lon="7.29337">
        <ele>253</ele>
        <time>2022-04-06T05:26:21Z</time>
      </trkpt>
      <trkpt lat="48.51606" lon="7.29344">
        <ele>253</ele>
        <time>2022-04-06T05:26:24Z</time>
      </trkpt>
      <trkpt lat="48.51596" lon="7.29355">
        <ele>253</ele>
        <time>2022-04-06T05:26:26Z</time>
      </trkpt>
      <trkpt lat="48.51586" lon="7.29371">
        <ele>253</ele>
        <time>2022-04-06T05:26:28Z</time>
      </trkpt>
      <trkpt lat="48.51578" lon="7.29393">
        <ele>252</ele>
        <time>2022-04-06T05:26:31Z</time>
      </trkpt>
      <trkpt lat="48.51575" lon="7.29413">
        <ele>252</ele>
        <time>2022-04-06T05:26:34Z</time>
      </trkpt>
      <trkpt lat="48.51576" lon="7.29444">
        <ele>252</ele>
        <time>2022-04-06T05:26:38Z</time>
      </trkpt>
      <trkpt lat="48.51581" lon="7.2947">
        <ele>251</ele>
        <time>2022-04-06T05:26:41Z</time>
      </trkpt>
      <trkpt lat="48.51586" lon="7.29488">
        <ele>251</ele>
        <time>2022-04-06T05:26:43Z</time>
      </trkpt>
      <trkpt lat="48.51591" lon="7.29502">
        <ele>251</ele>
        <time>2022-04-06T05:26:45Z</time>
      </trkpt>
      <trkpt lat="48.51615" lon="7.29567">
        <ele>251</ele>
        <time>2022-04-06T05:26:54Z</time>
      </trkpt>
      <trkpt lat="48.51616" lon="7.29577">
        <ele>252</ele>
        <time>2022-04-06T05:26:55Z</time>
      </trkpt>
      <trkpt lat="48.51616" lon="7.29581">
        <ele>252</ele>
        <time>2022-04-06T05:26:55Z</time>
      </trkpt>
      <trkpt lat="48.51611" lon="7.29588">
        <ele>252</ele>
        <time>2022-04-06T05:26:57Z</time>
      </trkpt>
      <trkpt lat="48.51613" lon="7.29598">
        <ele>252</ele>
        <time>2022-04-06T05:26:58Z</time>
      </trkpt>
      <trkpt lat="48.51606" lon="7.29608">
        <ele>253</ele>
        <time>2022-04-06T05:26:59Z</time>
      </trkpt>
      <trkpt lat="48.51607" lon="7.29624">
        <ele>254</ele>
        <time>2022-04-06T05:27:01Z</time>
      </trkpt>
      <trkpt lat="48.51617" lon="7.29647">
        <ele>254</ele>
        <time>2022-04-06T05:27:05Z</time>
      </trkpt>
      <trkpt lat="48.51632" lon="7.29666">
        <ele>255</ele>
        <time>2022-04-06T05:27:08Z</time>
      </trkpt>
      <trkpt lat="48.51639" lon="7.29672">
        <ele>255</ele>
        <time>2022-04-06T05:27:10Z</time>
      </trkpt>
      <trkpt lat="48.51613" lon="7.29716">
        <ele>258</ele>
        <time>2022-04-06T05:27:16Z</time>
      </trkpt>
      <trkpt lat="48.516" lon="7.29734">
        <ele>260</ele>
        <time>2022-04-06T05:27:20Z</time>
      </trkpt>
      <trkpt lat="48.51596" lon="7.29751">
        <ele>261</ele>
        <time>2022-04-06T05:27:22Z</time>
      </trkpt>
      <trkpt lat="48.51599" lon="7.29765">
        <ele>262</ele>
        <time>2022-04-06T05:27:23Z</time>
      </trkpt>
      <trkpt lat="48.51605" lon="7.29779">
        <ele>262</ele>
        <time>2022-04-06T05:27:25Z</time>
      </trkpt>
      <trkpt lat="48.5159" lon="7.29803">
        <ele>264</ele>
        <time>2022-04-06T05:27:29Z</time>
      </trkpt>
      <trkpt lat="48.51546" lon="7.29844">
        <ele>268</ele>
        <time>2022-04-06T05:27:39Z</time>
      </trkpt>
      <trkpt lat="48.5153" lon="7.29868">
        <ele>270</ele>
        <time>2022-04-06T05:27:43Z</time>
      </trkpt>
      <trkpt lat="48.51515" lon="7.29869">
        <ele>271</ele>
        <time>2022-04-06T05:27:45Z</time>
      </trkpt>
      <trkpt lat="48.51507" lon="7.29872">
        <ele>272</ele>
        <time>2022-04-06T05:27:47Z</time>
      </trkpt>
      <trkpt lat="48.51483" lon="7.29889">
        <ele>274</ele>
        <time>2022-04-06T05:27:51Z</time>
      </trkpt>
      <trkpt lat="48.51363" lon="7.29952">
        <ele>286</ele>
        <time>2022-04-06T05:28:14Z</time>
      </trkpt>
      <trkpt lat="48.51327" lon="7.29955">
        <ele>291</ele>
        <time>2022-04-06T05:28:20Z</time>
      </trkpt>
      <trkpt lat="48.51246" lon="7.29945">
        <ele>305</ele>
        <time>2022-04-06T05:28:35Z</time>
      </trkpt>
      <trkpt lat="48.5123" lon="7.29945">
        <ele>309</ele>
        <time>2022-04-06T05:28:38Z</time>
      </trkpt>
      <trkpt lat="48.51213" lon="7.29949">
        <ele>313</ele>
        <time>2022-04-06T05:28:41Z</time>
      </trkpt>
      <trkpt lat="48.51194" lon="7.29956">
        <ele>316</ele>
        <time>2022-04-06T05:28:44Z</time>
      </trkpt>
      <trkpt lat="48.51161" lon="7.29982">
        <ele>318</ele>
        <time>2022-04-06T05:28:51Z</time>
      </trkpt>
      <trkpt lat="48.5115" lon="7.29995">
        <ele>319</ele>
        <time>2022-04-06T05:28:53Z</time>
      </trkpt>
      <trkpt lat="48.51083" lon="7.30082">
        <ele>324</ele>
        <time>2022-04-06T05:29:09Z</time>
      </trkpt>
      <trkpt lat="48.51038" lon="7.30119">
        <ele>334</ele>
        <time>2022-04-06T05:29:18Z</time>
      </trkpt>
      <trkpt lat="48.50955" lon="7.30168">
        <ele>341</ele>
        <time>2022-04-06T05:29:34Z</time>
      </trkpt>
      <trkpt lat="48.50939" lon="7.30168">
        <ele>343</ele>
        <time>2022-04-06T05:29:37Z</time>
      </trkpt>
      <trkpt lat="48.50869" lon="7.30145">
        <ele>355</ele>
        <time>2022-04-06T05:29:50Z</time>
      </trkpt>
      <trkpt lat="48.50849" lon="7.30131">
        <ele>359</ele>
        <time>2022-04-06T05:29:54Z</time>
      </trkpt>
      <trkpt lat="48.50819" lon="7.30102">
        <ele>368</ele>
        <time>2022-04-06T05:30:00Z</time>
      </trkpt>
      <trkpt lat="48.5078" lon="7.30075">
        <ele>376</ele>
        <time>2022-04-06T05:30:08Z</time>
      </trkpt>
      <trkpt lat="48.50751" lon="7.30071">
        <ele>378</ele>
        <time>2022-04-06T05:30:13Z</time>
      </trkpt>
      <trkpt lat="48.50735" lon="7.30071">
        <ele>380</ele>
        <time>2022-04-06T05:30:16Z</time>
      </trkpt>
      <trkpt lat="48.50698" lon="7.30079">
        <ele>384</ele>
        <time>2022-04-06T05:30:22Z</time>
      </trkpt>
      <trkpt lat="48.50643" lon="7.30086">
        <ele>390</ele>
        <time>2022-04-06T05:30:32Z</time>
      </trkpt>
      <trkpt lat="48.50601" lon="7.30086">
        <ele>397</ele>
        <time>2022-04-06T05:30:40Z</time>
      </trkpt>
      <trkpt lat="48.50564" lon="7.30083">
        <ele>404</ele>
        <time>2022-04-06T05:30:46Z</time>
      </trkpt>
      <trkpt lat="48.50553" lon="7.30084">
        <ele>406</ele>
        <time>2022-04-06T05:30:48Z</time>
      </trkpt>
      <trkpt lat="48.50543" lon="7.30089">
        <ele>407</ele>
        <time>2022-04-06T05:30:50Z</time>
      </trkpt>
      <trkpt lat="48.50467" lon="7.30157">
        <ele>413</ele>
        <time>2022-04-06T05:31:06Z</time>
      </trkpt>
      <trkpt lat="48.5043" lon="7.30187">
        <ele>415</ele>
        <time>2022-04-06T05:31:13Z</time>
      </trkpt>
      <trkpt lat="48.50361" lon="7.30229">
        <ele>427</ele>
        <time>2022-04-06T05:31:26Z</time>
      </trkpt>
      <trkpt lat="48.50346" lon="7.30244">
        <ele>431</ele>
        <time>2022-04-06T05:31:30Z</time>
      </trkpt>
      <trkpt lat="48.50326" lon="7.30269">
        <ele>435</ele>
        <time>2022-04-06T05:31:34Z</time>
      </trkpt>
      <trkpt lat="48.50277" lon="7.30347">
        <ele>443</ele>
        <time>2022-04-06T05:31:47Z</time>
      </trkpt>
      <trkpt lat="48.50257" lon="7.30382">
        <ele>446</ele>
        <time>2022-04-06T05:31:52Z</time>
      </trkpt>
      <trkpt lat="48.50162" lon="7.30518">
        <ele>461</ele>
        <time>2022-04-06T05:32:16Z</time>
      </trkpt>
      <trkpt lat="48.5015" lon="7.30528">
        <ele>464</ele>
        <time>2022-04-06T05:32:18Z</time>
      </trkpt>
      <trkpt lat="48.50081" lon="7.3057">
        <ele>477</ele>
        <time>2022-04-06T05:32:31Z</time>
      </trkpt>
      <trkpt lat="48.50055" lon="7.30583">
        <ele>481</ele>
        <time>2022-04-06T05:32:36Z</time>
      </trkpt>
      <trkpt lat="48.50007" lon="7.30604">
        <ele>490</ele>
        <time>2022-04-06T05:32:45Z</time>
      </trkpt>
      <trkpt lat="48.49993" lon="7.30607">
        <ele>493</ele>
        <time>2022-04-06T05:32:48Z</time>
      </trkpt>
      <trkpt lat="48.49971" lon="7.30606">
        <ele>498</ele>
        <time>2022-04-06T05:32:52Z</time>
      </trkpt>
      <trkpt lat="48.49958" lon="7.30609">
        <ele>501</ele>
        <time>2022-04-06T05:32:54Z</time>
      </trkpt>
      <trkpt lat="48.49954" lon="7.30612">
        <ele>502</ele>
        <time>2022-04-06T05:32:55Z</time>
      </trkpt>
      <trkpt lat="48.49946" lon="7.30631">
        <ele>502</ele>
        <time>2022-04-06T05:32:57Z</time>
      </trkpt>
      <trkpt lat="48.49936" lon="7.30671">
        <ele>502</ele>
        <time>2022-04-06T05:33:02Z</time>
      </trkpt>
      <trkpt lat="48.49923" lon="7.30735">
        <ele>507</ele>
        <time>2022-04-06T05:33:10Z</time>
      </trkpt>
      <trkpt lat="48.49922" lon="7.30745">
        <ele>508</ele>
        <time>2022-04-06T05:33:11Z</time>
      </trkpt>
      <trkpt lat="48.49922" lon="7.30766">
        <ele>510</ele>
        <time>2022-04-06T05:33:14Z</time>
      </trkpt>
      <trkpt lat="48.49942" lon="7.30919">
        <ele>521</ele>
        <time>2022-04-06T05:33:32Z</time>
      </trkpt>
      <trkpt lat="48.49941" lon="7.30977">
        <ele>525</ele>
        <time>2022-04-06T05:33:39Z</time>
      </trkpt>
      <trkpt lat="48.49939" lon="7.3102">
        <ele>529</ele>
        <time>2022-04-06T05:33:44Z</time>
      </trkpt>
      <trkpt lat="48.49935" lon="7.3106">
        <ele>533</ele>
        <time>2022-04-06T05:33:49Z</time>
      </trkpt>
      <trkpt lat="48.49929" lon="7.31098">
        <ele>536</ele>
        <time>2022-04-06T05:33:54Z</time>
      </trkpt>
      <trkpt lat="48.49922" lon="7.3113">
        <ele>537</ele>
        <time>2022-04-06T05:33:58Z</time>
      </trkpt>
      <trkpt lat="48.49919" lon="7.31136">
        <ele>538</ele>
        <time>2022-04-06T05:33:58Z</time>
      </trkpt>
      <trkpt lat="48.49916" lon="7.31139">
        <ele>538</ele>
        <time>2022-04-06T05:33:59Z</time>
      </trkpt>
      <trkpt lat="48.49913" lon="7.31139">
        <ele>539</ele>
        <time>2022-04-06T05:34:00Z</time>
      </trkpt>
      <trkpt lat="48.49911" lon="7.31156">
        <ele>539</ele>
        <time>2022-04-06T05:34:02Z</time>
      </trkpt>
      <trkpt lat="48.49903" lon="7.31199">
        <ele>542</ele>
        <time>2022-04-06T05:34:07Z</time>
      </trkpt>
      <trkpt lat="48.49901" lon="7.31229">
        <ele>543</ele>
        <time>2022-04-06T05:34:10Z</time>
      </trkpt>
      <trkpt lat="48.49902" lon="7.31263">
        <ele>544</ele>
        <time>2022-04-06T05:34:15Z</time>
      </trkpt>
      <trkpt lat="48.49906" lon="7.31302">
        <ele>545</ele>
        <time>2022-04-06T05:34:19Z</time>
      </trkpt>
      <trkpt lat="48.49907" lon="7.3135">
        <ele>544</ele>
        <time>2022-04-06T05:34:25Z</time>
      </trkpt>
      <trkpt lat="48.49906" lon="7.31362">
        <ele>544</ele>
        <time>2022-04-06T05:34:26Z</time>
      </trkpt>
      <trkpt lat="48.49902" lon="7.31375">
        <ele>544</ele>
        <time>2022-04-06T05:34:28Z</time>
      </trkpt>
      <trkpt lat="48.49891" lon="7.31397">
        <ele>543</ele>
        <time>2022-04-06T05:34:31Z</time>
      </trkpt>
      <trkpt lat="48.49875" lon="7.31419">
        <ele>541</ele>
        <time>2022-04-06T05:34:35Z</time>
      </trkpt>
      <trkpt lat="48.49867" lon="7.31422">
        <ele>541</ele>
        <time>2022-04-06T05:34:37Z</time>
      </trkpt>
      <trkpt lat="48.49868" lon="7.31404">
        <ele>543</ele>
        <time>2022-04-06T05:34:39Z</time>
      </trkpt>
      <trkpt lat="48.49873" lon="7.31386">
        <ele>545</ele>
        <time>2022-04-06T05:34:41Z</time>
      </trkpt>
      <trkpt lat="48.49878" lon="7.31376">
        <ele>545</ele>
        <time>2022-04-06T05:34:42Z</time>
      </trkpt>
      <trkpt lat="48.4988" lon="7.31368">
        <ele>546</ele>
        <time>2022-04-06T05:34:43Z</time>
      </trkpt>
      <trkpt lat="48.4988" lon="7.31354">
        <ele>547</ele>
        <time>2022-04-06T05:34:45Z</time>
      </trkpt>
      <trkpt lat="48.49875" lon="7.31323">
        <ele>549</ele>
        <time>2022-04-06T05:34:49Z</time>
      </trkpt>
      <trkpt lat="48.49863" lon="7.31286">
        <ele>551</ele>
        <time>2022-04-06T05:34:54Z</time>
      </trkpt>
      <trkpt lat="48.49854" lon="7.31269">
        <ele>553</ele>
        <time>2022-04-06T05:34:56Z</time>
      </trkpt>
      <trkpt lat="48.49841" lon="7.31263">
        <ele>555</ele>
        <time>2022-04-06T05:34:59Z</time>
      </trkpt>
      <trkpt lat="48.49828" lon="7.31264">
        <ele>558</ele>
        <time>2022-04-06T05:35:01Z</time>
      </trkpt>
      <trkpt lat="48.49812" lon="7.31281">
        <ele>561</ele>
        <time>2022-04-06T05:35:04Z</time>
      </trkpt>
      <trkpt lat="48.49778" lon="7.31312">
        <ele>564</ele>
        <time>2022-04-06T05:35:12Z</time>
      </trkpt>
      <trkpt lat="48.49759" lon="7.31323">
        <ele>565</ele>
        <time>2022-04-06T05:35:15Z</time>
      </trkpt>
      <trkpt lat="48.49747" lon="7.31325">
        <ele>567</ele>
        <time>2022-04-06T05:35:17Z</time>
      </trkpt>
      <trkpt lat="48.49711" lon="7.31323">
        <ele>576</ele>
        <time>2022-04-06T05:35:24Z</time>
      </trkpt>
      <trkpt lat="48.4969" lon="7.31329">
        <ele>580</ele>
        <time>2022-04-06T05:35:28Z</time>
      </trkpt>
      <trkpt lat="48.49649" lon="7.3135">
        <ele>584</ele>
        <time>2022-04-06T05:35:35Z</time>
      </trkpt>
      <trkpt lat="48.49612" lon="7.31366">
        <ele>587</ele>
        <time>2022-04-06T05:35:42Z</time>
      </trkpt>
      <trkpt lat="48.49543" lon="7.31402">
        <ele>593</ele>
        <time>2022-04-06T05:35:55Z</time>
      </trkpt>
      <trkpt lat="48.49519" lon="7.3142">
        <ele>593</ele>
        <time>2022-04-06T05:36:00Z</time>
      </trkpt>
      <trkpt lat="48.49493" lon="7.31431">
        <ele>596</ele>
        <time>2022-04-06T05:36:05Z</time>
      </trkpt>
      <trkpt lat="48.49461" lon="7.3144">
        <ele>601</ele>
        <time>2022-04-06T05:36:10Z</time>
      </trkpt>
      <trkpt lat="48.4944" lon="7.31451">
        <ele>602</ele>
        <time>2022-04-06T05:36:14Z</time>
      </trkpt>
      <trkpt lat="48.49399" lon="7.31499">
        <ele>597</ele>
        <time>2022-04-06T05:36:24Z</time>
      </trkpt>
      <trkpt lat="48.49385" lon="7.31511">
        <ele>597</ele>
        <time>2022-04-06T05:36:26Z</time>
      </trkpt>
      <trkpt lat="48.49366" lon="7.31522">
        <ele>597</ele>
        <time>2022-04-06T05:36:30Z</time>
      </trkpt>
      <trkpt lat="48.49336" lon="7.31514">
        <ele>604</ele>
        <time>2022-04-06T05:36:36Z</time>
      </trkpt>
      <trkpt lat="48.49301" lon="7.3149">
        <ele>607</ele>
        <time>2022-04-06T05:36:42Z</time>
      </trkpt>
      <trkpt lat="48.49288" lon="7.31472">
        <ele>609</ele>
        <time>2022-04-06T05:36:46Z</time>
      </trkpt>
      <trkpt lat="48.49253" lon="7.31431">
        <ele>614</ele>
        <time>2022-04-06T05:36:53Z</time>
      </trkpt>
      <trkpt lat="48.49229" lon="7.31385">
        <ele>616</ele>
        <time>2022-04-06T05:37:00Z</time>
      </trkpt>
      <trkpt lat="48.4919" lon="7.31327">
        <ele>617</ele>
        <time>2022-04-06T05:37:10Z</time>
      </trkpt>
      <trkpt lat="48.49163" lon="7.31282">
        <ele>619</ele>
        <time>2022-04-06T05:37:17Z</time>
      </trkpt>
      <trkpt lat="48.49126" lon="7.31234">
        <ele>618</ele>
        <time>2022-04-06T05:37:26Z</time>
      </trkpt>
      <trkpt lat="48.49089" lon="7.31179">
        <ele>618</ele>
        <time>2022-04-06T05:37:35Z</time>
      </trkpt>
      <trkpt lat="48.49065" lon="7.31139">
        <ele>620</ele>
        <time>2022-04-06T05:37:41Z</time>
      </trkpt>
      <trkpt lat="48.49051" lon="7.31108">
        <ele>622</ele>
        <time>2022-04-06T05:37:46Z</time>
      </trkpt>
      <trkpt lat="48.49031" lon="7.31076">
        <ele>623</ele>
        <time>2022-04-06T05:37:51Z</time>
      </trkpt>
      <trkpt lat="48.49009" lon="7.31055">
        <ele>622</ele>
        <time>2022-04-06T05:37:56Z</time>
      </trkpt>
      <trkpt lat="48.48989" lon="7.31029">
        <ele>624</ele>
        <time>2022-04-06T05:38:00Z</time>
      </trkpt>
      <trkpt lat="48.48971" lon="7.31014">
        <ele>625</ele>
        <time>2022-04-06T05:38:04Z</time>
      </trkpt>
      <trkpt lat="48.48965" lon="7.31013">
        <ele>624</ele>
        <time>2022-04-06T05:38:05Z</time>
      </trkpt>
      <trkpt lat="48.48935" lon="7.30973">
        <ele>628</ele>
        <time>2022-04-06T05:38:12Z</time>
      </trkpt>
      <trkpt lat="48.48917" lon="7.30954">
        <ele>630</ele>
        <time>2022-04-06T05:38:16Z</time>
      </trkpt>
      <trkpt lat="48.48911" lon="7.3095">
        <ele>631</ele>
        <time>2022-04-06T05:38:17Z</time>
      </trkpt>
      <trkpt lat="48.48899" lon="7.30951">
        <ele>633</ele>
        <time>2022-04-06T05:38:19Z</time>
      </trkpt>
      <trkpt lat="48.48891" lon="7.30959">
        <ele>633</ele>
        <time>2022-04-06T05:38:21Z</time>
      </trkpt>
      <trkpt lat="48.4888" lon="7.30985">
        <ele>630</ele>
        <time>2022-04-06T05:38:25Z</time>
      </trkpt>
      <trkpt lat="48.48867" lon="7.31027">
        <ele>628</ele>
        <time>2022-04-06T05:38:30Z</time>
      </trkpt>
      <trkpt lat="48.48863" lon="7.31053">
        <ele>626</ele>
        <time>2022-04-06T05:38:33Z</time>
      </trkpt>
      <trkpt lat="48.48861" lon="7.31108">
        <ele>623</ele>
        <time>2022-04-06T05:38:40Z</time>
      </trkpt>
      <trkpt lat="48.48855" lon="7.31154">
        <ele>624</ele>
        <time>2022-04-06T05:38:45Z</time>
      </trkpt>
      <trkpt lat="48.48843" lon="7.31205">
        <ele>627</ele>
        <time>2022-04-06T05:38:52Z</time>
      </trkpt>
      <trkpt lat="48.48833" lon="7.31232">
        <ele>630</ele>
        <time>2022-04-06T05:38:55Z</time>
      </trkpt>
      <trkpt lat="48.48827" lon="7.3124">
        <ele>629</ele>
        <time>2022-04-06T05:38:57Z</time>
      </trkpt>
      <trkpt lat="48.48813" lon="7.31252">
        <ele>628</ele>
        <time>2022-04-06T05:39:00Z</time>
      </trkpt>
      <trkpt lat="48.488" lon="7.31252">
        <ele>628</ele>
        <time>2022-04-06T05:39:02Z</time>
      </trkpt>
      <trkpt lat="48.48794" lon="7.31249">
        <ele>628</ele>
        <time>2022-04-06T05:39:03Z</time>
      </trkpt>
      <trkpt lat="48.48786" lon="7.3124">
        <ele>628</ele>
        <time>2022-04-06T05:39:05Z</time>
      </trkpt>
      <trkpt lat="48.48774" lon="7.31214">
        <ele>630</ele>
        <time>2022-04-06T05:39:09Z</time>
      </trkpt>
      <trkpt lat="48.48763" lon="7.31177">
        <ele>632</ele>
        <time>2022-04-06T05:39:14Z</time>
      </trkpt>
      <trkpt lat="48.48759" lon="7.31155">
        <ele>633</ele>
        <time>2022-04-06T05:39:16Z</time>
      </trkpt>
      <trkpt lat="48.48758" lon="7.3114">
        <ele>634</ele>
        <time>2022-04-06T05:39:18Z</time>
      </trkpt>
      <trkpt lat="48.48759" lon="7.31125">
        <ele>635</ele>
        <time>2022-04-06T05:39:20Z</time>
      </trkpt>
      <trkpt lat="48.48776" lon="7.3107">
        <ele>637</ele>
        <time>2022-04-06T05:39:27Z</time>
      </trkpt>
      <trkpt lat="48.48759" lon="7.31125">
        <ele>635</ele>
        <time>2022-04-06T05:39:34Z</time>
      </trkpt>
      <trkpt lat="48.48758" lon="7.3114">
        <ele>634</ele>
        <time>2022-04-06T05:39:36Z</time>
      </trkpt>
      <trkpt lat="48.48759" lon="7.31155">
        <ele>633</ele>
        <time>2022-04-06T05:39:38Z</time>
      </trkpt>
      <trkpt lat="48.48763" lon="7.31177">
        <ele>632</ele>
        <time>2022-04-06T05:39:40Z</time>
      </trkpt>
      <trkpt lat="48.48774" lon="7.31214">
        <ele>630</ele>
        <time>2022-04-06T05:39:45Z</time>
      </trkpt>
      <trkpt lat="48.48786" lon="7.3124">
        <ele>628</ele>
        <time>2022-04-06T05:39:49Z</time>
      </trkpt>
      <trkpt lat="48.48794" lon="7.31249">
        <ele>628</ele>
        <time>2022-04-06T05:39:51Z</time>
      </trkpt>
      <trkpt lat="48.488" lon="7.31252">
        <ele>628</ele>
        <time>2022-04-06T05:39:52Z</time>
      </trkpt>
      <trkpt lat="48.48813" lon="7.31252">
        <ele>628</ele>
        <time>2022-04-06T05:39:54Z</time>
      </trkpt>
      <trkpt lat="48.48827" lon="7.3124">
        <ele>629</ele>
        <time>2022-04-06T05:39:57Z</time>
      </trkpt>
      <trkpt lat="48.48833" lon="7.31232">
        <ele>630</ele>
        <time>2022-04-06T05:39:58Z</time>
      </trkpt>
      <trkpt lat="48.48843" lon="7.31205">
        <ele>627</ele>
        <time>2022-04-06T05:40:02Z</time>
      </trkpt>
      <trkpt lat="48.48855" lon="7.31154">
        <ele>624</ele>
        <time>2022-04-06T05:40:08Z</time>
      </trkpt>
      <trkpt lat="48.48861" lon="7.31108">
        <ele>623</ele>
        <time>2022-04-06T05:40:14Z</time>
      </trkpt>
      <trkpt lat="48.48863" lon="7.31053">
        <ele>626</ele>
        <time>2022-04-06T05:40:20Z</time>
      </trkpt>
      <trkpt lat="48.48867" lon="7.31027">
        <ele>628</ele>
        <time>2022-04-06T05:40:24Z</time>
      </trkpt>
      <trkpt lat="48.48887" lon="7.30967">
        <ele>632</ele>
        <time>2022-04-06T05:40:31Z</time>
      </trkpt>
      <trkpt lat="48.48891" lon="7.30959">
        <ele>633</ele>
        <time>2022-04-06T05:40:33Z</time>
      </trkpt>
      <trkpt lat="48.48899" lon="7.30951">
        <ele>633</ele>
        <time>2022-04-06T05:40:34Z</time>
      </trkpt>
      <trkpt lat="48.48911" lon="7.3095">
        <ele>631</ele>
        <time>2022-04-06T05:40:36Z</time>
      </trkpt>
      <trkpt lat="48.48917" lon="7.30954">
        <ele>630</ele>
        <time>2022-04-06T05:40:38Z</time>
      </trkpt>
      <trkpt lat="48.48935" lon="7.30973">
        <ele>628</ele>
        <time>2022-04-06T05:40:42Z</time>
      </trkpt>
      <trkpt lat="48.48965" lon="7.31013">
        <ele>624</ele>
        <time>2022-04-06T05:40:49Z</time>
      </trkpt>
      <trkpt lat="48.48975" lon="7.31029">
        <ele>622</ele>
        <time>2022-04-06T05:40:51Z</time>
      </trkpt>
      <trkpt lat="48.49017" lon="7.31106">
        <ele>613</ele>
        <time>2022-04-06T05:41:03Z</time>
      </trkpt>
      <trkpt lat="48.49044" lon="7.31197">
        <ele>604</ele>
        <time>2022-04-06T05:41:15Z</time>
      </trkpt>
      <trkpt lat="48.49053" lon="7.31237">
        <ele>598</ele>
        <time>2022-04-06T05:41:20Z</time>
      </trkpt>
      <trkpt lat="48.49061" lon="7.31278">
        <ele>593</ele>
        <time>2022-04-06T05:41:25Z</time>
      </trkpt>
      <trkpt lat="48.49069" lon="7.313">
        <ele>591</ele>
        <time>2022-04-06T05:41:28Z</time>
      </trkpt>
      <trkpt lat="48.4908" lon="7.31327">
        <ele>589</ele>
        <time>2022-04-06T05:41:32Z</time>
      </trkpt>
      <trkpt lat="48.49095" lon="7.31364">
        <ele>586</ele>
        <time>2022-04-06T05:41:37Z</time>
      </trkpt>
      <trkpt lat="48.49112" lon="7.31408">
        <ele>583</ele>
        <time>2022-04-06T05:41:43Z</time>
      </trkpt>
      <trkpt lat="48.49129" lon="7.3147">
        <ele>580</ele>
        <time>2022-04-06T05:41:51Z</time>
      </trkpt>
      <trkpt lat="48.49139" lon="7.31514">
        <ele>577</ele>
        <time>2022-04-06T05:41:56Z</time>
      </trkpt>
      <trkpt lat="48.49142" lon="7.31533">
        <ele>576</ele>
        <time>2022-04-06T05:41:58Z</time>
      </trkpt>
      <trkpt lat="48.49142" lon="7.31553">
        <ele>574</ele>
        <time>2022-04-06T05:42:01Z</time>
      </trkpt>
      <trkpt lat="48.49141" lon="7.31592">
        <ele>570</ele>
        <time>2022-04-06T05:42:05Z</time>
      </trkpt>
      <trkpt lat="48.49124" lon="7.31702">
        <ele>560</ele>
        <time>2022-04-06T05:42:19Z</time>
      </trkpt>
      <trkpt lat="48.49114" lon="7.31757">
        <ele>557</ele>
        <time>2022-04-06T05:42:25Z</time>
      </trkpt>
      <trkpt lat="48.491" lon="7.31794">
        <ele>555</ele>
        <time>2022-04-06T05:42:30Z</time>
      </trkpt>
      <trkpt lat="48.49094" lon="7.31809">
        <ele>555</ele>
        <time>2022-04-06T05:42:32Z</time>
      </trkpt>
      <trkpt lat="48.49095" lon="7.31835">
        <ele>554</ele>
        <time>2022-04-06T05:42:36Z</time>
      </trkpt>
      <trkpt lat="48.49087" lon="7.31844">
        <ele>554</ele>
        <time>2022-04-06T05:42:37Z</time>
      </trkpt>
      <trkpt lat="48.49078" lon="7.31847">
        <ele>552</ele>
        <time>2022-04-06T05:42:39Z</time>
      </trkpt>
      <trkpt lat="48.49069" lon="7.31846">
        <ele>551</ele>
        <time>2022-04-06T05:42:41Z</time>
      </trkpt>
      <trkpt lat="48.49046" lon="7.31814">
        <ele>547</ele>
        <time>2022-04-06T05:42:46Z</time>
      </trkpt>
      <trkpt lat="48.49038" lon="7.31807">
        <ele>546</ele>
        <time>2022-04-06T05:42:48Z</time>
      </trkpt>
      <trkpt lat="48.4903" lon="7.31807">
        <ele>544</ele>
        <time>2022-04-06T05:42:49Z</time>
      </trkpt>
      <trkpt lat="48.49021" lon="7.31813">
        <ele>543</ele>
        <time>2022-04-06T05:42:51Z</time>
      </trkpt>
      <trkpt lat="48.49014" lon="7.31826">
        <ele>541</ele>
        <time>2022-04-06T05:42:53Z</time>
      </trkpt>
      <trkpt lat="48.49001" lon="7.31934">
        <ele>542</ele>
        <time>2022-04-06T05:43:06Z</time>
      </trkpt>
      <trkpt lat="48.48996" lon="7.31952">
        <ele>542</ele>
        <time>2022-04-06T05:43:08Z</time>
      </trkpt>
      <trkpt lat="48.48981" lon="7.3199">
        <ele>540</ele>
        <time>2022-04-06T05:43:13Z</time>
      </trkpt>
      <trkpt lat="48.48977" lon="7.32007">
        <ele>539</ele>
        <time>2022-04-06T05:43:15Z</time>
      </trkpt>
      <trkpt lat="48.48979" lon="7.32022">
        <ele>539</ele>
        <time>2022-04-06T05:43:17Z</time>
      </trkpt>
      <trkpt lat="48.48982" lon="7.32029">
        <ele>538</ele>
        <time>2022-04-06T05:43:18Z</time>
      </trkpt>
      <trkpt lat="48.48989" lon="7.32034">
        <ele>539</ele>
        <time>2022-04-06T05:43:20Z</time>
      </trkpt>
      <trkpt lat="48.49038" lon="7.32046">
        <ele>539</ele>
        <time>2022-04-06T05:43:28Z</time>
      </trkpt>
      <trkpt lat="48.49049" lon="7.32053">
        <ele>539</ele>
        <time>2022-04-06T05:43:31Z</time>
      </trkpt>
      <trkpt lat="48.49143" lon="7.32152">
        <ele>526</ele>
        <time>2022-04-06T05:43:51Z</time>
      </trkpt>
      <trkpt lat="48.49153" lon="7.32164">
        <ele>525</ele>
        <time>2022-04-06T05:43:53Z</time>
      </trkpt>
      <trkpt lat="48.49171" lon="7.32194">
        <ele>524</ele>
        <time>2022-04-06T05:43:58Z</time>
      </trkpt>
      <trkpt lat="48.49183" lon="7.32207">
        <ele>522</ele>
        <time>2022-04-06T05:44:01Z</time>
      </trkpt>
      <trkpt lat="48.49191" lon="7.32212">
        <ele>522</ele>
        <time>2022-04-06T05:44:02Z</time>
      </trkpt>
      <trkpt lat="48.49216" lon="7.32217">
        <ele>521</ele>
        <time>2022-04-06T05:44:07Z</time>
      </trkpt>
      <trkpt lat="48.49221" lon="7.32232">
        <ele>520</ele>
        <time>2022-04-06T05:44:09Z</time>
      </trkpt>
      <trkpt lat="48.49222" lon="7.32248">
        <ele>519</ele>
        <time>2022-04-06T05:44:11Z</time>
      </trkpt>
      <trkpt lat="48.49218" lon="7.32286">
        <ele>518</ele>
        <time>2022-04-06T05:44:15Z</time>
      </trkpt>
      <trkpt lat="48.49217" lon="7.32311">
        <ele>517</ele>
        <time>2022-04-06T05:44:18Z</time>
      </trkpt>
      <trkpt lat="48.49212" lon="7.32322">
        <ele>517</ele>
        <time>2022-04-06T05:44:20Z</time>
      </trkpt>
      <trkpt lat="48.49214" lon="7.32339">
        <ele>516</ele>
        <time>2022-04-06T05:44:22Z</time>
      </trkpt>
      <trkpt lat="48.49194" lon="7.32345">
        <ele>515</ele>
        <time>2022-04-06T05:44:25Z</time>
      </trkpt>
      <trkpt lat="48.49181" lon="7.32342">
        <ele>514</ele>
        <time>2022-04-06T05:44:28Z</time>
      </trkpt>
      <trkpt lat="48.49154" lon="7.32299">
        <ele>514</ele>
        <time>2022-04-06T05:44:35Z</time>
      </trkpt>
      <trkpt lat="48.49133" lon="7.32275">
        <ele>514</ele>
        <time>2022-04-06T05:44:39Z</time>
      </trkpt>
      <trkpt lat="48.49114" lon="7.32261">
        <ele>512</ele>
        <time>2022-04-06T05:44:43Z</time>
      </trkpt>
      <trkpt lat="48.49076" lon="7.32239">
        <ele>511</ele>
        <time>2022-04-06T05:44:50Z</time>
      </trkpt>
      <trkpt lat="48.4906" lon="7.32237">
        <ele>511</ele>
        <time>2022-04-06T05:44:53Z</time>
      </trkpt>
      <trkpt lat="48.49045" lon="7.32239">
        <ele>510</ele>
        <time>2022-04-06T05:44:56Z</time>
      </trkpt>
      <trkpt lat="48.49032" lon="7.32249">
        <ele>508</ele>
        <time>2022-04-06T05:44:58Z</time>
      </trkpt>
      <trkpt lat="48.49" lon="7.32284">
        <ele>502</ele>
        <time>2022-04-06T05:45:05Z</time>
      </trkpt>
      <trkpt lat="48.48986" lon="7.32293">
        <ele>499</ele>
        <time>2022-04-06T05:45:08Z</time>
      </trkpt>
      <trkpt lat="48.48977" lon="7.32297">
        <ele>497</ele>
        <time>2022-04-06T05:45:10Z</time>
      </trkpt>
      <trkpt lat="48.48959" lon="7.32295">
        <ele>496</ele>
        <time>2022-04-06T05:45:13Z</time>
      </trkpt>
      <trkpt lat="48.48928" lon="7.32278">
        <ele>496</ele>
        <time>2022-04-06T05:45:19Z</time>
      </trkpt>
      <trkpt lat="48.48915" lon="7.32265">
        <ele>496</ele>
        <time>2022-04-06T05:45:22Z</time>
      </trkpt>
      <trkpt lat="48.48898" lon="7.32236">
        <ele>498</ele>
        <time>2022-04-06T05:45:26Z</time>
      </trkpt>
      <trkpt lat="48.48824" lon="7.32098">
        <ele>498</ele>
        <time>2022-04-06T05:45:47Z</time>
      </trkpt>
      <trkpt lat="48.48816" lon="7.3209">
        <ele>498</ele>
        <time>2022-04-06T05:45:49Z</time>
      </trkpt>
      <trkpt lat="48.48809" lon="7.32088">
        <ele>497</ele>
        <time>2022-04-06T05:45:50Z</time>
      </trkpt>
      <trkpt lat="48.48804" lon="7.3209">
        <ele>496</ele>
        <time>2022-04-06T05:45:51Z</time>
      </trkpt>
      <trkpt lat="48.48738" lon="7.32183">
        <ele>487</ele>
        <time>2022-04-06T05:46:07Z</time>
      </trkpt>
      <trkpt lat="48.4873" lon="7.32195">
        <ele>488</ele>
        <time>2022-04-06T05:46:09Z</time>
      </trkpt>
      <trkpt lat="48.48723" lon="7.32214">
        <ele>489</ele>
        <time>2022-04-06T05:46:12Z</time>
      </trkpt>
      <trkpt lat="48.48709" lon="7.32204">
        <ele>490</ele>
        <time>2022-04-06T05:46:15Z</time>
      </trkpt>
      <trkpt lat="48.4859" lon="7.32122">
        <ele>497</ele>
        <time>2022-04-06T05:46:38Z</time>
      </trkpt>
      <trkpt lat="48.48557" lon="7.32092">
        <ele>503</ele>
        <time>2022-04-06T05:46:45Z</time>
      </trkpt>
      <trkpt lat="48.48488" lon="7.32018">
        <ele>508</ele>
        <time>2022-04-06T05:47:00Z</time>
      </trkpt>
      <trkpt lat="48.48459" lon="7.31999">
        <ele>513</ele>
        <time>2022-04-06T05:47:05Z</time>
      </trkpt>
      <trkpt lat="48.48441" lon="7.31995">
        <ele>517</ele>
        <time>2022-04-06T05:47:09Z</time>
      </trkpt>
      <trkpt lat="48.48405" lon="7.31985">
        <ele>521</ele>
        <time>2022-04-06T05:47:15Z</time>
      </trkpt>
      <trkpt lat="48.48366" lon="7.31983">
        <ele>521</ele>
        <time>2022-04-06T05:47:22Z</time>
      </trkpt>
      <trkpt lat="48.48312" lon="7.31998">
        <ele>522</ele>
        <time>2022-04-06T05:47:32Z</time>
      </trkpt>
      <trkpt lat="48.48259" lon="7.3204">
        <ele>531</ele>
        <time>2022-04-06T05:47:42Z</time>
      </trkpt>
      <trkpt lat="48.48207" lon="7.32067">
        <ele>535</ele>
        <time>2022-04-06T05:47:52Z</time>
      </trkpt>
      <trkpt lat="48.48151" lon="7.3208">
        <ele>538</ele>
        <time>2022-04-06T05:48:02Z</time>
      </trkpt>
      <trkpt lat="48.48131" lon="7.32074">
        <ele>540</ele>
        <time>2022-04-06T05:48:06Z</time>
      </trkpt>
      <trkpt lat="48.48069" lon="7.32032">
        <ele>541</ele>
        <time>2022-04-06T05:48:18Z</time>
      </trkpt>
      <trkpt lat="48.48043" lon="7.3202">
        <ele>543</ele>
        <time>2022-04-06T05:48:23Z</time>
      </trkpt>
      <trkpt lat="48.48028" lon="7.32022">
        <ele>545</ele>
        <time>2022-04-06T05:48:26Z</time>
      </trkpt>
      <trkpt lat="48.48014" lon="7.32032">
        <ele>548</ele>
        <time>2022-04-06T05:48:28Z</time>
      </trkpt>
      <trkpt lat="48.47987" lon="7.32085">
        <ele>554</ele>
        <time>2022-04-06T05:48:36Z</time>
      </trkpt>
      <trkpt lat="48.47972" lon="7.321">
        <ele>557</ele>
        <time>2022-04-06T05:48:39Z</time>
      </trkpt>
      <trkpt lat="48.47934" lon="7.32119">
        <ele>560</ele>
        <time>2022-04-06T05:48:47Z</time>
      </trkpt>
      <trkpt lat="48.47858" lon="7.32119">
        <ele>561</ele>
        <time>2022-04-06T05:49:00Z</time>
      </trkpt>
      <trkpt lat="48.47829" lon="7.32129">
        <ele>562</ele>
        <time>2022-04-06T05:49:05Z</time>
      </trkpt>
      <trkpt lat="48.47774" lon="7.32166">
        <ele>565</ele>
        <time>2022-04-06T05:49:16Z</time>
      </trkpt>
      <trkpt lat="48.47742" lon="7.32182">
        <ele>569</ele>
        <time>2022-04-06T05:49:22Z</time>
      </trkpt>
      <trkpt lat="48.47708" lon="7.32191">
        <ele>573</ele>
        <time>2022-04-06T05:49:28Z</time>
      </trkpt>
      <trkpt lat="48.47606" lon="7.32186">
        <ele>578</ele>
        <time>2022-04-06T05:49:46Z</time>
      </trkpt>
      <trkpt lat="48.47463" lon="7.32163">
        <ele>581</ele>
        <time>2022-04-06T05:50:12Z</time>
      </trkpt>
      <trkpt lat="48.47421" lon="7.32158">
        <ele>584</ele>
        <time>2022-04-06T05:50:19Z</time>
      </trkpt>
      <trkpt lat="48.47331" lon="7.32135">
        <ele>589</ele>
        <time>2022-04-06T05:50:36Z</time>
      </trkpt>
      <trkpt lat="48.47319" lon="7.32136">
        <ele>590</ele>
        <time>2022-04-06T05:50:38Z</time>
      </trkpt>
      <trkpt lat="48.47309" lon="7.3214">
        <ele>591</ele>
        <time>2022-04-06T05:50:40Z</time>
      </trkpt>
      <trkpt lat="48.47239" lon="7.32193">
        <ele>595</ele>
        <time>2022-04-06T05:50:54Z</time>
      </trkpt>
      <trkpt lat="48.47129" lon="7.32346">
        <ele>604</ele>
        <time>2022-04-06T05:51:20Z</time>
      </trkpt>
      <trkpt lat="48.47105" lon="7.32371">
        <ele>607</ele>
        <time>2022-04-06T05:51:25Z</time>
      </trkpt>
      <trkpt lat="48.47095" lon="7.32378">
        <ele>607</ele>
        <time>2022-04-06T05:51:27Z</time>
      </trkpt>
      <trkpt lat="48.47085" lon="7.32381">
        <ele>606</ele>
        <time>2022-04-06T05:51:29Z</time>
      </trkpt>
      <trkpt lat="48.47024" lon="7.32378">
        <ele>601</ele>
        <time>2022-04-06T05:51:40Z</time>
      </trkpt>
      <trkpt lat="48.46986" lon="7.32384">
        <ele>598</ele>
        <time>2022-04-06T05:51:47Z</time>
      </trkpt>
      <trkpt lat="48.46934" lon="7.32411">
        <ele>598</ele>
        <time>2022-04-06T05:51:57Z</time>
      </trkpt>
      <trkpt lat="48.46901" lon="7.32414">
        <ele>601</ele>
        <time>2022-04-06T05:52:02Z</time>
      </trkpt>
      <trkpt lat="48.46875" lon="7.32407">
        <ele>606</ele>
        <time>2022-04-06T05:52:07Z</time>
      </trkpt>
      <trkpt lat="48.46858" lon="7.32397">
        <ele>608</ele>
        <time>2022-04-06T05:52:10Z</time>
      </trkpt>
      <trkpt lat="48.46767" lon="7.32301">
        <ele>612</ele>
        <time>2022-04-06T05:52:30Z</time>
      </trkpt>
      <trkpt lat="48.46665" lon="7.3221">
        <ele>615</ele>
        <time>2022-04-06T05:52:51Z</time>
      </trkpt>
      <trkpt lat="48.46623" lon="7.32158">
        <ele>615</ele>
        <time>2022-04-06T05:53:01Z</time>
      </trkpt>
      <trkpt lat="48.4655" lon="7.32094">
        <ele>621</ele>
        <time>2022-04-06T05:53:16Z</time>
      </trkpt>
      <trkpt lat="48.46524" lon="7.32053">
        <ele>622</ele>
        <time>2022-04-06T05:53:23Z</time>
      </trkpt>
      <trkpt lat="48.46507" lon="7.32018">
        <ele>620</ele>
        <time>2022-04-06T05:53:28Z</time>
      </trkpt>
      <trkpt lat="48.46491" lon="7.31994">
        <ele>620</ele>
        <time>2022-04-06T05:53:32Z</time>
      </trkpt>
      <trkpt lat="48.46468" lon="7.3197">
        <ele>623</ele>
        <time>2022-04-06T05:53:37Z</time>
      </trkpt>
      <trkpt lat="48.46441" lon="7.31958">
        <ele>625</ele>
        <time>2022-04-06T05:53:42Z</time>
      </trkpt>
      <trkpt lat="48.46251" lon="7.31937">
        <ele>625</ele>
        <time>2022-04-06T05:54:16Z</time>
      </trkpt>
      <trkpt lat="48.4621" lon="7.31938">
        <ele>628</ele>
        <time>2022-04-06T05:54:23Z</time>
      </trkpt>
      <trkpt lat="48.46102" lon="7.31957">
        <ele>633</ele>
        <time>2022-04-06T05:54:42Z</time>
      </trkpt>
      <trkpt lat="48.45996" lon="7.31989">
        <ele>637</ele>
        <time>2022-04-06T05:55:02Z</time>
      </trkpt>
      <trkpt lat="48.45853" lon="7.32048">
        <ele>642</ele>
        <time>2022-04-06T05:55:28Z</time>
      </trkpt>
      <trkpt lat="48.45838" lon="7.3205">
        <ele>642</ele>
        <time>2022-04-06T05:55:31Z</time>
      </trkpt>
      <trkpt lat="48.45823" lon="7.32048">
        <ele>643</ele>
        <time>2022-04-06T05:55:33Z</time>
      </trkpt>
      <trkpt lat="48.45807" lon="7.32042">
        <ele>644</ele>
        <time>2022-04-06T05:55:36Z</time>
      </trkpt>
      <trkpt lat="48.45794" lon="7.32033">
        <ele>644</ele>
        <time>2022-04-06T05:55:39Z</time>
      </trkpt>
      <trkpt lat="48.45755" lon="7.31989">
        <ele>641</ele>
        <time>2022-04-06T05:55:47Z</time>
      </trkpt>
      <trkpt lat="48.45716" lon="7.31945">
        <ele>644</ele>
        <time>2022-04-06T05:55:56Z</time>
      </trkpt>
      <trkpt lat="48.45698" lon="7.3193">
        <ele>646</ele>
        <time>2022-04-06T05:56:00Z</time>
      </trkpt>
      <trkpt lat="48.45663" lon="7.31912">
        <ele>649</ele>
        <time>2022-04-06T05:56:06Z</time>
      </trkpt>
      <trkpt lat="48.45616" lon="7.31897">
        <ele>654</ele>
        <time>2022-04-06T05:56:15Z</time>
      </trkpt>
      <trkpt lat="48.45502" lon="7.31884">
        <ele>661</ele>
        <time>2022-04-06T05:56:35Z</time>
      </trkpt>
      <trkpt lat="48.45472" lon="7.31876">
        <ele>663</ele>
        <time>2022-04-06T05:56:41Z</time>
      </trkpt>
      <trkpt lat="48.45452" lon="7.31866">
        <ele>664</ele>
        <time>2022-04-06T05:56:44Z</time>
      </trkpt>
      <trkpt lat="48.45395" lon="7.31828">
        <ele>666</ele>
        <time>2022-04-06T05:56:56Z</time>
      </trkpt>
      <trkpt lat="48.45374" lon="7.31817">
        <ele>669</ele>
        <time>2022-04-06T05:56:59Z</time>
      </trkpt>
      <trkpt lat="48.45327" lon="7.31803">
        <ele>676</ele>
        <time>2022-04-06T05:57:08Z</time>
      </trkpt>
      <trkpt lat="48.45281" lon="7.31797">
        <ele>681</ele>
        <time>2022-04-06T05:57:16Z</time>
      </trkpt>
      <trkpt lat="48.45264" lon="7.31789">
        <ele>682</ele>
        <time>2022-04-06T05:57:19Z</time>
      </trkpt>
      <trkpt lat="48.45212" lon="7.31752">
        <ele>684</ele>
        <time>2022-04-06T05:57:30Z</time>
      </trkpt>
      <trkpt lat="48.45131" lon="7.31709">
        <ele>689</ele>
        <time>2022-04-06T05:57:45Z</time>
      </trkpt>
      <trkpt lat="48.45116" lon="7.31696">
        <ele>689</ele>
        <time>2022-04-06T05:57:48Z</time>
      </trkpt>
      <trkpt lat="48.45093" lon="7.31675">
        <ele>688</ele>
        <time>2022-04-06T05:57:53Z</time>
      </trkpt>
      <trkpt lat="48.45041" lon="7.31627">
        <ele>693</ele>
        <time>2022-04-06T05:58:04Z</time>
      </trkpt>
      <trkpt lat="48.45004" lon="7.31604">
        <ele>696</ele>
        <time>2022-04-06T05:58:11Z</time>
      </trkpt>
      <trkpt lat="48.4488" lon="7.31565">
        <ele>703</ele>
        <time>2022-04-06T05:58:33Z</time>
      </trkpt>
      <trkpt lat="48.44871" lon="7.31557">
        <ele>703</ele>
        <time>2022-04-06T05:58:35Z</time>
      </trkpt>
      <trkpt lat="48.44856" lon="7.31522">
        <ele>704</ele>
        <time>2022-04-06T05:58:40Z</time>
      </trkpt>
      <trkpt lat="48.44848" lon="7.31511">
        <ele>703</ele>
        <time>2022-04-06T05:58:42Z</time>
      </trkpt>
      <trkpt lat="48.44833" lon="7.31504">
        <ele>703</ele>
        <time>2022-04-06T05:58:45Z</time>
      </trkpt>
      <trkpt lat="48.44816" lon="7.31503">
        <ele>703</ele>
        <time>2022-04-06T05:58:48Z</time>
      </trkpt>
      <trkpt lat="48.44764" lon="7.31517">
        <ele>703</ele>
        <time>2022-04-06T05:58:57Z</time>
      </trkpt>
      <trkpt lat="48.44744" lon="7.31518">
        <ele>703</ele>
        <time>2022-04-06T05:59:01Z</time>
      </trkpt>
      <trkpt lat="48.44732" lon="7.31515">
        <ele>704</ele>
        <time>2022-04-06T05:59:03Z</time>
      </trkpt>
      <trkpt lat="48.44718" lon="7.31503">
        <ele>706</ele>
        <time>2022-04-06T05:59:06Z</time>
      </trkpt>
      <trkpt lat="48.44688" lon="7.31467">
        <ele>714</ele>
        <time>2022-04-06T05:59:13Z</time>
      </trkpt>
      <trkpt lat="48.44675" lon="7.31458">
        <ele>717</ele>
        <time>2022-04-06T05:59:15Z</time>
      </trkpt>
      <trkpt lat="48.44608" lon="7.31439">
        <ele>731</ele>
        <time>2022-04-06T05:59:27Z</time>
      </trkpt>
      <trkpt lat="48.44597" lon="7.31432">
        <ele>732</ele>
        <time>2022-04-06T05:59:29Z</time>
      </trkpt>
      <trkpt lat="48.4459" lon="7.31421">
        <ele>733</ele>
        <time>2022-04-06T05:59:31Z</time>
      </trkpt>
      <trkpt lat="48.44585" lon="7.31404">
        <ele>734</ele>
        <time>2022-04-06T05:59:33Z</time>
      </trkpt>
      <trkpt lat="48.44583" lon="7.31344">
        <ele>738</ele>
        <time>2022-04-06T05:59:40Z</time>
      </trkpt>
      <trkpt lat="48.44579" lon="7.31322">
        <ele>739</ele>
        <time>2022-04-06T05:59:43Z</time>
      </trkpt>
      <trkpt lat="48.44528" lon="7.31174">
        <ele>749</ele>
        <time>2022-04-06T06:00:03Z</time>
      </trkpt>
      <trkpt lat="48.44511" lon="7.3114">
        <ele>753</ele>
        <time>2022-04-06T06:00:08Z</time>
      </trkpt>
      <trkpt lat="48.44485" lon="7.31105">
        <ele>758</ele>
        <time>2022-04-06T06:00:14Z</time>
      </trkpt>
      <trkpt lat="48.44449" lon="7.31066">
        <ele>763</ele>
        <time>2022-04-06T06:00:22Z</time>
      </trkpt>
      <trkpt lat="48.44438" lon="7.31058">
        <ele>764</ele>
        <time>2022-04-06T06:00:24Z</time>
      </trkpt>
      <trkpt lat="48.44423" lon="7.31053">
        <ele>765</ele>
        <time>2022-04-06T06:00:27Z</time>
      </trkpt>
      <trkpt lat="48.44402" lon="7.3105">
        <ele>767</ele>
        <time>2022-04-06T06:00:31Z</time>
      </trkpt>
      <trkpt lat="48.44363" lon="7.31054">
        <ele>772</ele>
        <time>2022-04-06T06:00:38Z</time>
      </trkpt>
      <trkpt lat="48.44345" lon="7.31051">
        <ele>775</ele>
        <time>2022-04-06T06:00:41Z</time>
      </trkpt>
      <trkpt lat="48.44324" lon="7.31042">
        <ele>778</ele>
        <time>2022-04-06T06:00:45Z</time>
      </trkpt>
      <trkpt lat="48.44309" lon="7.31039">
        <ele>779</ele>
        <time>2022-04-06T06:00:47Z</time>
      </trkpt>
      <trkpt lat="48.44293" lon="7.31042">
        <ele>780</ele>
        <time>2022-04-06T06:00:50Z</time>
      </trkpt>
      <trkpt lat="48.44218" lon="7.31063">
        <ele>784</ele>
        <time>2022-04-06T06:01:04Z</time>
      </trkpt>
      <trkpt lat="48.44198" lon="7.31065">
        <ele>784</ele>
        <time>2022-04-06T06:01:07Z</time>
      </trkpt>
      <trkpt lat="48.44151" lon="7.31057">
        <ele>787</ele>
        <time>2022-04-06T06:01:16Z</time>
      </trkpt>
      <trkpt lat="48.44139" lon="7.31058">
        <ele>787</ele>
        <time>2022-04-06T06:01:18Z</time>
      </trkpt>
      <trkpt lat="48.44126" lon="7.31064">
        <ele>788</ele>
        <time>2022-04-06T06:01:20Z</time>
      </trkpt>
      <trkpt lat="48.44111" lon="7.31079">
        <ele>787</ele>
        <time>2022-04-06T06:01:24Z</time>
      </trkpt>
      <trkpt lat="48.441" lon="7.31097">
        <ele>789</ele>
        <time>2022-04-06T06:01:26Z</time>
      </trkpt>
      <trkpt lat="48.44094" lon="7.31112">
        <ele>791</ele>
        <time>2022-04-06T06:01:29Z</time>
      </trkpt>
      <trkpt lat="48.4409" lon="7.31134">
        <ele>793</ele>
        <time>2022-04-06T06:01:31Z</time>
      </trkpt>
      <trkpt lat="48.44089" lon="7.31162">
        <ele>796</ele>
        <time>2022-04-06T06:01:35Z</time>
      </trkpt>
      <trkpt lat="48.44089" lon="7.31163">
        <ele>796</ele>
        <time>2022-04-06T06:01:35Z</time>
      </trkpt>
      <trkpt lat="48.44093" lon="7.3119">
        <ele>799</ele>
        <time>2022-04-06T06:01:38Z</time>
      </trkpt>
      <trkpt lat="48.44103" lon="7.31215">
        <ele>801</ele>
        <time>2022-04-06T06:01:41Z</time>
      </trkpt>
      <trkpt lat="48.44119" lon="7.31243">
        <ele>802</ele>
        <time>2022-04-06T06:01:46Z</time>
      </trkpt>
      <trkpt lat="48.44131" lon="7.31269">
        <ele>804</ele>
        <time>2022-04-06T06:01:49Z</time>
      </trkpt>
      <trkpt lat="48.44145" lon="7.31311">
        <ele>806</ele>
        <time>2022-04-06T06:01:55Z</time>
      </trkpt>
      <trkpt lat="48.44158" lon="7.31345">
        <ele>808</ele>
        <time>2022-04-06T06:02:00Z</time>
      </trkpt>
      <trkpt lat="48.44183" lon="7.31389">
        <ele>809</ele>
        <time>2022-04-06T06:02:06Z</time>
      </trkpt>
      <trkpt lat="48.44197" lon="7.31424">
        <ele>811</ele>
        <time>2022-04-06T06:02:11Z</time>
      </trkpt>
      <trkpt lat="48.44204" lon="7.31456">
        <ele>814</ele>
        <time>2022-04-06T06:02:15Z</time>
      </trkpt>
      <trkpt lat="48.44206" lon="7.31481">
        <ele>817</ele>
        <time>2022-04-06T06:02:18Z</time>
      </trkpt>
      <trkpt lat="48.44206" lon="7.31541">
        <ele>821</ele>
        <time>2022-04-06T06:02:25Z</time>
      </trkpt>
      <trkpt lat="48.44202" lon="7.31614">
        <ele>825</ele>
        <time>2022-04-06T06:02:34Z</time>
      </trkpt>
      <trkpt lat="48.44197" lon="7.31682">
        <ele>829</ele>
        <time>2022-04-06T06:02:42Z</time>
      </trkpt>
      <trkpt lat="48.44188" lon="7.31739">
        <ele>832</ele>
        <time>2022-04-06T06:02:49Z</time>
      </trkpt>
      <trkpt lat="48.44118" lon="7.3201">
        <ele>845</ele>
        <time>2022-04-06T06:03:23Z</time>
      </trkpt>
      <trkpt lat="48.44102" lon="7.32061">
        <ele>846</ele>
        <time>2022-04-06T06:03:30Z</time>
      </trkpt>
      <trkpt lat="48.44048" lon="7.32172">
        <ele>850</ele>
        <time>2022-04-06T06:03:46Z</time>
      </trkpt>
      <trkpt lat="48.44032" lon="7.32189">
        <ele>852</ele>
        <time>2022-04-06T06:03:50Z</time>
      </trkpt>
      <trkpt lat="48.44016" lon="7.322">
        <ele>853</ele>
        <time>2022-04-06T06:03:53Z</time>
      </trkpt>
      <trkpt lat="48.43963" lon="7.32215">
        <ele>859</ele>
        <time>2022-04-06T06:04:02Z</time>
      </trkpt>
      <trkpt lat="48.43936" lon="7.32225">
        <ele>862</ele>
        <time>2022-04-06T06:04:07Z</time>
      </trkpt>
      <trkpt lat="48.43898" lon="7.32247">
        <ele>867</ele>
        <time>2022-04-06T06:04:15Z</time>
      </trkpt>
      <trkpt lat="48.43886" lon="7.3226">
        <ele>868</ele>
        <time>2022-04-06T06:04:17Z</time>
      </trkpt>
      <trkpt lat="48.43874" lon="7.32278">
        <ele>870</ele>
        <time>2022-04-06T06:04:20Z</time>
      </trkpt>
      <trkpt lat="48.43862" lon="7.32303">
        <ele>870</ele>
        <time>2022-04-06T06:04:24Z</time>
      </trkpt>
      <trkpt lat="48.43849" lon="7.32347">
        <ele>870</ele>
        <time>2022-04-06T06:04:30Z</time>
      </trkpt>
      <trkpt lat="48.43835" lon="7.32379">
        <ele>869</ele>
        <time>2022-04-06T06:04:34Z</time>
      </trkpt>
      <trkpt lat="48.43816" lon="7.32408">
        <ele>870</ele>
        <time>2022-04-06T06:04:39Z</time>
      </trkpt>
      <trkpt lat="48.43777" lon="7.32448">
        <ele>876</ele>
        <time>2022-04-06T06:04:47Z</time>
      </trkpt>
      <trkpt lat="48.43773" lon="7.32452">
        <ele>876</ele>
        <time>2022-04-06T06:04:48Z</time>
      </trkpt>
      <trkpt lat="48.43767" lon="7.32464">
        <ele>877</ele>
        <time>2022-04-06T06:04:50Z</time>
      </trkpt>
      <trkpt lat="48.43763" lon="7.32478">
        <ele>877</ele>
        <time>2022-04-06T06:04:52Z</time>
      </trkpt>
      <trkpt lat="48.43765" lon="7.32495">
        <ele>876</ele>
        <time>2022-04-06T06:04:54Z</time>
      </trkpt>
      <trkpt lat="48.43791" lon="7.32571">
        <ele>879</ele>
        <time>2022-04-06T06:05:04Z</time>
      </trkpt>
      <trkpt lat="48.43795" lon="7.32589">
        <ele>880</ele>
        <time>2022-04-06T06:05:06Z</time>
      </trkpt>
      <trkpt lat="48.43796" lon="7.326">
        <ele>882</ele>
        <time>2022-04-06T06:05:07Z</time>
      </trkpt>
      <trkpt lat="48.43795" lon="7.32605">
        <ele>882</ele>
        <time>2022-04-06T06:05:08Z</time>
      </trkpt>
      <trkpt lat="48.43794" lon="7.3261">
        <ele>883</ele>
        <time>2022-04-06T06:05:09Z</time>
      </trkpt>
      <trkpt lat="48.43774" lon="7.32598">
        <ele>884</ele>
        <time>2022-04-06T06:05:12Z</time>
      </trkpt>
      <trkpt lat="48.43638" lon="7.32468">
        <ele>895</ele>
        <time>2022-04-06T06:05:41Z</time>
      </trkpt>
      <trkpt lat="48.43579" lon="7.32418">
        <ele>902</ele>
        <time>2022-04-06T06:05:53Z</time>
      </trkpt>
      <trkpt lat="48.43565" lon="7.32399">
        <ele>906</ele>
        <time>2022-04-06T06:05:57Z</time>
      </trkpt>
      <trkpt lat="48.4356" lon="7.32383">
        <ele>908</ele>
        <time>2022-04-06T06:05:59Z</time>
      </trkpt>
      <trkpt lat="48.43559" lon="7.3236">
        <ele>910</ele>
        <time>2022-04-06T06:06:01Z</time>
      </trkpt>
      <trkpt lat="48.43564" lon="7.32335">
        <ele>911</ele>
        <time>2022-04-06T06:06:04Z</time>
      </trkpt>
      <trkpt lat="48.43582" lon="7.32278">
        <ele>910</ele>
        <time>2022-04-06T06:06:12Z</time>
      </trkpt>
      <trkpt lat="48.43586" lon="7.32252">
        <ele>911</ele>
        <time>2022-04-06T06:06:15Z</time>
      </trkpt>
      <trkpt lat="48.43587" lon="7.32228">
        <ele>912</ele>
        <time>2022-04-06T06:06:18Z</time>
      </trkpt>
      <trkpt lat="48.43584" lon="7.32177">
        <ele>914</ele>
        <time>2022-04-06T06:06:24Z</time>
      </trkpt>
      <trkpt lat="48.43578" lon="7.32135">
        <ele>915</ele>
        <time>2022-04-06T06:06:29Z</time>
      </trkpt>
      <trkpt lat="48.43572" lon="7.32117">
        <ele>916</ele>
        <time>2022-04-06T06:06:31Z</time>
      </trkpt>
      <trkpt lat="48.43554" lon="7.32089">
        <ele>917</ele>
        <time>2022-04-06T06:06:36Z</time>
      </trkpt>
      <trkpt lat="48.43537" lon="7.32077">
        <ele>918</ele>
        <time>2022-04-06T06:06:39Z</time>
      </trkpt>
      <trkpt lat="48.43522" lon="7.32073">
        <ele>919</ele>
        <time>2022-04-06T06:06:42Z</time>
      </trkpt>
      <trkpt lat="48.43505" lon="7.32072">
        <ele>920</ele>
        <time>2022-04-06T06:06:45Z</time>
      </trkpt>
      <trkpt lat="48.4348" lon="7.32072">
        <ele>922</ele>
        <time>2022-04-06T06:06:49Z</time>
      </trkpt>
      <trkpt lat="48.43428" lon="7.32065">
        <ele>925</ele>
        <time>2022-04-06T06:06:59Z</time>
      </trkpt>
      <trkpt lat="48.43416" lon="7.32057">
        <ele>925</ele>
        <time>2022-04-06T06:07:01Z</time>
      </trkpt>
      <trkpt lat="48.43377" lon="7.3202">
        <ele>925</ele>
        <time>2022-04-06T06:07:09Z</time>
      </trkpt>
      <trkpt lat="48.43291" lon="7.31919">
        <ele>928</ele>
        <time>2022-04-06T06:07:29Z</time>
      </trkpt>
      <trkpt lat="48.43255" lon="7.31864">
        <ele>928</ele>
        <time>2022-04-06T06:07:38Z</time>
      </trkpt>
      <trkpt lat="48.43241" lon="7.31851">
        <ele>928</ele>
        <time>2022-04-06T06:07:41Z</time>
      </trkpt>
      <trkpt lat="48.43226" lon="7.31842">
        <ele>929</ele>
        <time>2022-04-06T06:07:44Z</time>
      </trkpt>
      <trkpt lat="48.43182" lon="7.31826">
        <ele>931</ele>
        <time>2022-04-06T06:07:52Z</time>
      </trkpt>
      <trkpt lat="48.43106" lon="7.31817">
        <ele>936</ele>
        <time>2022-04-06T06:08:05Z</time>
      </trkpt>
      <trkpt lat="48.43083" lon="7.31808">
        <ele>937</ele>
        <time>2022-04-06T06:08:09Z</time>
      </trkpt>
      <trkpt lat="48.43055" lon="7.31793">
        <ele>941</ele>
        <time>2022-04-06T06:08:15Z</time>
      </trkpt>
      <trkpt lat="48.43" lon="7.31755">
        <ele>947</ele>
        <time>2022-04-06T06:08:26Z</time>
      </trkpt>
      <trkpt lat="48.42955" lon="7.31708">
        <ele>951</ele>
        <time>2022-04-06T06:08:35Z</time>
      </trkpt>
      <trkpt lat="48.42909" lon="7.31654">
        <ele>954</ele>
        <time>2022-04-06T06:08:46Z</time>
      </trkpt>
      <trkpt lat="48.42871" lon="7.31601">
        <ele>954</ele>
        <time>2022-04-06T06:08:55Z</time>
      </trkpt>
      <trkpt lat="48.42848" lon="7.31553">
        <ele>953</ele>
        <time>2022-04-06T06:09:02Z</time>
      </trkpt>
      <trkpt lat="48.42826" lon="7.31506">
        <ele>954</ele>
        <time>2022-04-06T06:09:09Z</time>
      </trkpt>
      <trkpt lat="48.42824" lon="7.31501">
        <ele>953</ele>
        <time>2022-04-06T06:09:09Z</time>
      </trkpt>
      <trkpt lat="48.42821" lon="7.31495">
        <ele>953</ele>
        <time>2022-04-06T06:09:10Z</time>
      </trkpt>
      <trkpt lat="48.4281" lon="7.31471">
        <ele>953</ele>
        <time>2022-04-06T06:09:14Z</time>
      </trkpt>
      <trkpt lat="48.42806" lon="7.31461">
        <ele>953</ele>
        <time>2022-04-06T06:09:15Z</time>
      </trkpt>
      <trkpt lat="48.428" lon="7.31445">
        <ele>954</ele>
        <time>2022-04-06T06:09:17Z</time>
      </trkpt>
      <trkpt lat="48.42793" lon="7.31411">
        <ele>955</ele>
        <time>2022-04-06T06:09:21Z</time>
      </trkpt>
      <trkpt lat="48.42788" lon="7.31375">
        <ele>958</ele>
        <time>2022-04-06T06:09:26Z</time>
      </trkpt>
      <trkpt lat="48.42784" lon="7.31332">
        <ele>962</ele>
        <time>2022-04-06T06:09:31Z</time>
      </trkpt>
      <trkpt lat="48.42769" lon="7.31164">
        <ele>974</ele>
        <time>2022-04-06T06:09:51Z</time>
      </trkpt>
      <trkpt lat="48.42754" lon="7.31051">
        <ele>981</ele>
        <time>2022-04-06T06:10:04Z</time>
      </trkpt>
      <trkpt lat="48.42748" lon="7.30925">
        <ele>990</ele>
        <time>2022-04-06T06:10:19Z</time>
      </trkpt>
      <trkpt lat="48.42745" lon="7.30888">
        <ele>993</ele>
        <time>2022-04-06T06:10:24Z</time>
      </trkpt>
      <trkpt lat="48.42737" lon="7.30835">
        <ele>998</ele>
        <time>2022-04-06T06:10:30Z</time>
      </trkpt>
      <trkpt lat="48.42717" lon="7.30741">
        <ele>1003</ele>
        <time>2022-04-06T06:10:42Z</time>
      </trkpt>
      <trkpt lat="48.42705" lon="7.30698">
        <ele>1007</ele>
        <time>2022-04-06T06:10:47Z</time>
      </trkpt>
      <trkpt lat="48.42651" lon="7.30552">
        <ele>1016</ele>
        <time>2022-04-06T06:11:07Z</time>
      </trkpt>
      <trkpt lat="48.42639" lon="7.3052">
        <ele>1016</ele>
        <time>2022-04-06T06:11:11Z</time>
      </trkpt>
      <trkpt lat="48.42614" lon="7.30448">
        <ele>1019</ele>
        <time>2022-04-06T06:11:21Z</time>
      </trkpt>
      <trkpt lat="48.42596" lon="7.30405">
        <ele>1022</ele>
        <time>2022-04-06T06:11:27Z</time>
      </trkpt>
      <trkpt lat="48.42582" lon="7.30376">
        <ele>1024</ele>
        <time>2022-04-06T06:11:31Z</time>
      </trkpt>
      <trkpt lat="48.42569" lon="7.3035">
        <ele>1024</ele>
        <time>2022-04-06T06:11:35Z</time>
      </trkpt>
      <trkpt lat="48.42496" lon="7.3023">
        <ele>1029</ele>
        <time>2022-04-06T06:11:54Z</time>
      </trkpt>
      <trkpt lat="48.42399" lon="7.30111">
        <ele>1031</ele>
        <time>2022-04-06T06:12:17Z</time>
      </trkpt>
      <trkpt lat="48.42329" lon="7.30031">
        <ele>1034</ele>
        <time>2022-04-06T06:12:32Z</time>
      </trkpt>
      <trkpt lat="48.42259" lon="7.29945">
        <ele>1031</ele>
        <time>2022-04-06T06:12:48Z</time>
      </trkpt>
      <trkpt lat="48.42242" lon="7.29919">
        <ele>1031</ele>
        <time>2022-04-06T06:12:53Z</time>
      </trkpt>
      <trkpt lat="48.42206" lon="7.29845">
        <ele>1030</ele>
        <time>2022-04-06T06:13:03Z</time>
      </trkpt>
      <trkpt lat="48.42181" lon="7.29797">
        <ele>1030</ele>
        <time>2022-04-06T06:13:11Z</time>
      </trkpt>
      <trkpt lat="48.42168" lon="7.29776">
        <ele>1029</ele>
        <time>2022-04-06T06:13:14Z</time>
      </trkpt>
      <trkpt lat="48.421" lon="7.29686">
        <ele>1029</ele>
        <time>2022-04-06T06:13:30Z</time>
      </trkpt>
      <trkpt lat="48.4191" lon="7.29447">
        <ele>1020</ele>
        <time>2022-04-06T06:14:14Z</time>
      </trkpt>
      <trkpt lat="48.41899" lon="7.29435">
        <ele>1019</ele>
        <time>2022-04-06T06:14:17Z</time>
      </trkpt>
      <trkpt lat="48.41885" lon="7.2942">
        <ele>1019</ele>
        <time>2022-04-06T06:14:20Z</time>
      </trkpt>
      <trkpt lat="48.41863" lon="7.294">
        <ele>1018</ele>
        <time>2022-04-06T06:14:24Z</time>
      </trkpt>
      <trkpt lat="48.41838" lon="7.29378">
        <ele>1018</ele>
        <time>2022-04-06T06:14:29Z</time>
      </trkpt>
      <trkpt lat="48.41821" lon="7.29361">
        <ele>1016</ele>
        <time>2022-04-06T06:14:33Z</time>
      </trkpt>
      <trkpt lat="48.41756" lon="7.29279">
        <ele>1015</ele>
        <time>2022-04-06T06:14:48Z</time>
      </trkpt>
      <trkpt lat="48.41697" lon="7.29202">
        <ele>1015</ele>
        <time>2022-04-06T06:15:02Z</time>
      </trkpt>
      <trkpt lat="48.41681" lon="7.29183">
        <ele>1016</ele>
        <time>2022-04-06T06:15:06Z</time>
      </trkpt>
      <trkpt lat="48.41665" lon="7.29163">
        <ele>1017</ele>
        <time>2022-04-06T06:15:09Z</time>
      </trkpt>
      <trkpt lat="48.41616" lon="7.29107">
        <ele>1017</ele>
        <time>2022-04-06T06:15:20Z</time>
      </trkpt>
      <trkpt lat="48.41511" lon="7.28995">
        <ele>1021</ele>
        <time>2022-04-06T06:15:43Z</time>
      </trkpt>
      <trkpt lat="48.41493" lon="7.28975">
        <ele>1022</ele>
        <time>2022-04-06T06:15:47Z</time>
      </trkpt>
      <trkpt lat="48.41453" lon="7.28932">
        <ele>1027</ele>
        <time>2022-04-06T06:15:56Z</time>
      </trkpt>
      <trkpt lat="48.41207" lon="7.28668">
        <ele>1038</ele>
        <time>2022-04-06T06:16:50Z</time>
      </trkpt>
      <trkpt lat="48.41164" lon="7.28617">
        <ele>1037</ele>
        <time>2022-04-06T06:16:59Z</time>
      </trkpt>
      <trkpt lat="48.41139" lon="7.28583">
        <ele>1038</ele>
        <time>2022-04-06T06:17:05Z</time>
      </trkpt>
      <trkpt lat="48.41126" lon="7.28563">
        <ele>1038</ele>
        <time>2022-04-06T06:17:09Z</time>
      </trkpt>
      <trkpt lat="48.41115" lon="7.28543">
        <ele>1038</ele>
        <time>2022-04-06T06:17:12Z</time>
      </trkpt>
      <trkpt lat="48.41104" lon="7.28522">
        <ele>1038</ele>
        <time>2022-04-06T06:17:15Z</time>
      </trkpt>
      <trkpt lat="48.41072" lon="7.28462">
        <ele>1041</ele>
        <time>2022-04-06T06:17:24Z</time>
      </trkpt>
      <trkpt lat="48.41039" lon="7.284">
        <ele>1044</ele>
        <time>2022-04-06T06:17:33Z</time>
      </trkpt>
      <trkpt lat="48.40995" lon="7.28311">
        <ele>1049</ele>
        <time>2022-04-06T06:17:46Z</time>
      </trkpt>
      <trkpt lat="48.40974" lon="7.28254">
        <ele>1049</ele>
        <time>2022-04-06T06:17:54Z</time>
      </trkpt>
      <trkpt lat="48.40935" lon="7.28133">
        <ele>1052</ele>
        <time>2022-04-06T06:18:10Z</time>
      </trkpt>
      <trkpt lat="48.40918" lon="7.28094">
        <ele>1054</ele>
        <time>2022-04-06T06:18:16Z</time>
      </trkpt>
      <trkpt lat="48.40909" lon="7.28076">
        <ele>1055</ele>
        <time>2022-04-06T06:18:18Z</time>
      </trkpt>
      <trkpt lat="48.40892" lon="7.28043">
        <ele>1056</ele>
        <time>2022-04-06T06:18:23Z</time>
      </trkpt>
      <trkpt lat="48.40877" lon="7.28011">
        <ele>1057</ele>
        <time>2022-04-06T06:18:28Z</time>
      </trkpt>
      <trkpt lat="48.40871" lon="7.27995">
        <ele>1057</ele>
        <time>2022-04-06T06:18:30Z</time>
      </trkpt>
      <trkpt lat="48.40859" lon="7.27942">
        <ele>1058</ele>
        <time>2022-04-06T06:18:37Z</time>
      </trkpt>
      <trkpt lat="48.40853" lon="7.27902">
        <ele>1058</ele>
        <time>2022-04-06T06:18:41Z</time>
      </trkpt>
      <trkpt lat="48.40848" lon="7.27838">
        <ele>1060</ele>
        <time>2022-04-06T06:18:49Z</time>
      </trkpt>
      <trkpt lat="48.40841" lon="7.27649">
        <ele>1065</ele>
        <time>2022-04-06T06:19:11Z</time>
      </trkpt>
      <trkpt lat="48.40836" lon="7.27587">
        <ele>1064</ele>
        <time>2022-04-06T06:19:19Z</time>
      </trkpt>
      <trkpt lat="48.40826" lon="7.27522">
        <ele>1062</ele>
        <time>2022-04-06T06:19:27Z</time>
      </trkpt>
      <trkpt lat="48.40798" lon="7.27361">
        <ele>1059</ele>
        <time>2022-04-06T06:19:46Z</time>
      </trkpt>
      <trkpt lat="48.4079" lon="7.27321">
        <ele>1060</ele>
        <time>2022-04-06T06:19:51Z</time>
      </trkpt>
      <trkpt lat="48.40786" lon="7.27305">
        <ele>1060</ele>
        <time>2022-04-06T06:19:53Z</time>
      </trkpt>
      <trkpt lat="48.40781" lon="7.27288">
        <ele>1060</ele>
        <time>2022-04-06T06:19:55Z</time>
      </trkpt>
      <trkpt lat="48.40775" lon="7.27272">
        <ele>1061</ele>
        <time>2022-04-06T06:19:58Z</time>
      </trkpt>
      <trkpt lat="48.4074" lon="7.27194">
        <ele>1062</ele>
        <time>2022-04-06T06:20:09Z</time>
      </trkpt>
      <trkpt lat="48.40725" lon="7.27168">
        <ele>1062</ele>
        <time>2022-04-06T06:20:13Z</time>
      </trkpt>
      <trkpt lat="48.40704" lon="7.27138">
        <ele>1063</ele>
        <time>2022-04-06T06:20:18Z</time>
      </trkpt>
      <trkpt lat="48.40686" lon="7.27117">
        <ele>1063</ele>
        <time>2022-04-06T06:20:22Z</time>
      </trkpt>
      <trkpt lat="48.40672" lon="7.27103">
        <ele>1064</ele>
        <time>2022-04-06T06:20:25Z</time>
      </trkpt>
      <trkpt lat="48.40637" lon="7.27073">
        <ele>1068</ele>
        <time>2022-04-06T06:20:32Z</time>
      </trkpt>
      <trkpt lat="48.40564" lon="7.27029">
        <ele>1073</ele>
        <time>2022-04-06T06:20:46Z</time>
      </trkpt>
      <trkpt lat="48.40523" lon="7.27006">
        <ele>1076</ele>
        <time>2022-04-06T06:20:54Z</time>
      </trkpt>
      <trkpt lat="48.40478" lon="7.2699">
        <ele>1078</ele>
        <time>2022-04-06T06:21:02Z</time>
      </trkpt>
      <trkpt lat="48.40432" lon="7.26986">
        <ele>1079</ele>
        <time>2022-04-06T06:21:10Z</time>
      </trkpt>
      <trkpt lat="48.40327" lon="7.26987">
        <ele>1078</ele>
        <time>2022-04-06T06:21:29Z</time>
      </trkpt>
      <trkpt lat="48.40286" lon="7.26985">
        <ele>1078</ele>
        <time>2022-04-06T06:21:36Z</time>
      </trkpt>
      <trkpt lat="48.40257" lon="7.26979">
        <ele>1078</ele>
        <time>2022-04-06T06:21:42Z</time>
      </trkpt>
      <trkpt lat="48.40218" lon="7.26966">
        <ele>1077</ele>
        <time>2022-04-06T06:21:49Z</time>
      </trkpt>
      <trkpt lat="48.40203" lon="7.26957">
        <ele>1076</ele>
        <time>2022-04-06T06:21:52Z</time>
      </trkpt>
      <trkpt lat="48.40195" lon="7.26951">
        <ele>1076</ele>
        <time>2022-04-06T06:21:53Z</time>
      </trkpt>
      <trkpt lat="48.40169" lon="7.26936">
        <ele>1075</ele>
        <time>2022-04-06T06:21:58Z</time>
      </trkpt>
      <trkpt lat="48.40144" lon="7.26917">
        <ele>1074</ele>
        <time>2022-04-06T06:22:03Z</time>
      </trkpt>
      <trkpt lat="48.40018" lon="7.26802">
        <ele>1071</ele>
        <time>2022-04-06T06:22:29Z</time>
      </trkpt>
      <trkpt lat="48.39984" lon="7.2677">
        <ele>1073</ele>
        <time>2022-04-06T06:22:36Z</time>
      </trkpt>
      <trkpt lat="48.39922" lon="7.26715">
        <ele>1075</ele>
        <time>2022-04-06T06:22:49Z</time>
      </trkpt>
      <trkpt lat="48.39899" lon="7.26696">
        <ele>1076</ele>
        <time>2022-04-06T06:22:54Z</time>
      </trkpt>
      <trkpt lat="48.39878" lon="7.26681">
        <ele>1077</ele>
        <time>2022-04-06T06:22:58Z</time>
      </trkpt>
      <trkpt lat="48.39862" lon="7.26672">
        <ele>1078</ele>
        <time>2022-04-06T06:23:01Z</time>
      </trkpt>
      <trkpt lat="48.39847" lon="7.26666">
        <ele>1079</ele>
        <time>2022-04-06T06:23:04Z</time>
      </trkpt>
      <trkpt lat="48.39828" lon="7.26661">
        <ele>1081</ele>
        <time>2022-04-06T06:23:07Z</time>
      </trkpt>
      <trkpt lat="48.39789" lon="7.26657">
        <ele>1083</ele>
        <time>2022-04-06T06:23:14Z</time>
      </trkpt>
      <trkpt lat="48.39759" lon="7.26661">
        <ele>1084</ele>
        <time>2022-04-06T06:23:20Z</time>
      </trkpt>
      <trkpt lat="48.39742" lon="7.26667">
        <ele>1085</ele>
        <time>2022-04-06T06:23:23Z</time>
      </trkpt>
      <trkpt lat="48.39727" lon="7.26673">
        <ele>1085</ele>
        <time>2022-04-06T06:23:25Z</time>
      </trkpt>
      <trkpt lat="48.39715" lon="7.2668">
        <ele>1085</ele>
        <time>2022-04-06T06:23:28Z</time>
      </trkpt>
      <trkpt lat="48.39702" lon="7.26689">
        <ele>1085</ele>
        <time>2022-04-06T06:23:30Z</time>
      </trkpt>
      <trkpt lat="48.39557" lon="7.26809">
        <ele>1094</ele>
        <time>2022-04-06T06:24:00Z</time>
      </trkpt>
      <trkpt lat="48.39508" lon="7.26853">
        <ele>1098</ele>
        <time>2022-04-06T06:24:10Z</time>
      </trkpt>
      <trkpt lat="48.39502" lon="7.26858">
        <ele>1098</ele>
        <time>2022-04-06T06:24:11Z</time>
      </trkpt>
      <trkpt lat="48.39482" lon="7.26875">
        <ele>1099</ele>
        <time>2022-04-06T06:24:15Z</time>
      </trkpt>
      <trkpt lat="48.39466" lon="7.26887">
        <ele>1099</ele>
        <time>2022-04-06T06:24:18Z</time>
      </trkpt>
      <trkpt lat="48.39462" lon="7.26879">
        <ele>1099</ele>
        <time>2022-04-06T06:24:19Z</time>
      </trkpt>
      <trkpt lat="48.39452" lon="7.26868">
        <ele>1098</ele>
        <time>2022-04-06T06:24:22Z</time>
      </trkpt>
      <trkpt lat="48.39445" lon="7.26865">
        <ele>1097</ele>
        <time>2022-04-06T06:24:23Z</time>
      </trkpt>
      <trkpt lat="48.39432" lon="7.26867">
        <ele>1097</ele>
        <time>2022-04-06T06:24:25Z</time>
      </trkpt>
      <trkpt lat="48.39421" lon="7.26877">
        <ele>1097</ele>
        <time>2022-04-06T06:24:28Z</time>
      </trkpt>
      <trkpt lat="48.39414" lon="7.26893">
        <ele>1097</ele>
        <time>2022-04-06T06:24:30Z</time>
      </trkpt>
      <trkpt lat="48.39412" lon="7.26903">
        <ele>1098</ele>
        <time>2022-04-06T06:24:31Z</time>
      </trkpt>
      <trkpt lat="48.39412" lon="7.26913">
        <ele>1098</ele>
        <time>2022-04-06T06:24:32Z</time>
      </trkpt>
      <trkpt lat="48.39396" lon="7.26915">
        <ele>1098</ele>
        <time>2022-04-06T06:24:35Z</time>
      </trkpt>
      <trkpt lat="48.39298" lon="7.2693">
        <ele>1098</ele>
        <time>2022-04-06T06:24:53Z</time>
      </trkpt>
      <trkpt lat="48.39145" lon="7.26955">
        <ele>1085</ele>
        <time>2022-04-06T06:25:20Z</time>
      </trkpt>
      <trkpt lat="48.39024" lon="7.26975">
        <ele>1072</ele>
        <time>2022-04-06T06:25:42Z</time>
      </trkpt>
      <trkpt lat="48.39017" lon="7.26976">
        <ele>1072</ele>
        <time>2022-04-06T06:25:43Z</time>
      </trkpt>
      <trkpt lat="48.38999" lon="7.26979">
        <ele>1070</ele>
        <time>2022-04-06T06:25:46Z</time>
      </trkpt>
      <trkpt lat="48.38828" lon="7.27">
        <ele>1068</ele>
        <time>2022-04-06T06:26:17Z</time>
      </trkpt>
      <trkpt lat="48.38816" lon="7.27002">
        <ele>1066</ele>
        <time>2022-04-06T06:26:19Z</time>
      </trkpt>
      <trkpt lat="48.38784" lon="7.27">
        <ele>1064</ele>
        <time>2022-04-06T06:26:25Z</time>
      </trkpt>
      <trkpt lat="48.38763" lon="7.26984">
        <ele>1062</ele>
        <time>2022-04-06T06:26:29Z</time>
      </trkpt>
      <trkpt lat="48.38751" lon="7.26964">
        <ele>1059</ele>
        <time>2022-04-06T06:26:32Z</time>
      </trkpt>
      <trkpt lat="48.38743" lon="7.26936">
        <ele>1056</ele>
        <time>2022-04-06T06:26:36Z</time>
      </trkpt>
      <trkpt lat="48.38751" lon="7.26816">
        <ele>1051</ele>
        <time>2022-04-06T06:26:50Z</time>
      </trkpt>
      <trkpt lat="48.38775" lon="7.26677">
        <ele>1042</ele>
        <time>2022-04-06T06:27:07Z</time>
      </trkpt>
      <trkpt lat="48.38802" lon="7.26446">
        <ele>1030</ele>
        <time>2022-04-06T06:27:34Z</time>
      </trkpt>
      <trkpt lat="48.3881" lon="7.26311">
        <ele>1023</ele>
        <time>2022-04-06T06:27:50Z</time>
      </trkpt>
      <trkpt lat="48.38808" lon="7.26216">
        <ele>1018</ele>
        <time>2022-04-06T06:28:02Z</time>
      </trkpt>
      <trkpt lat="48.38783" lon="7.26065">
        <ele>1005</ele>
        <time>2022-04-06T06:28:20Z</time>
      </trkpt>
      <trkpt lat="48.38762" lon="7.2601">
        <ele>1002</ele>
        <time>2022-04-06T06:28:28Z</time>
      </trkpt>
      <trkpt lat="48.38598" lon="7.25812">
        <ele>986</ele>
        <time>2022-04-06T06:29:05Z</time>
      </trkpt>
      <trkpt lat="48.38568" lon="7.25794">
        <ele>984</ele>
        <time>2022-04-06T06:29:11Z</time>
      </trkpt>
      <trkpt lat="48.38515" lon="7.25777">
        <ele>979</ele>
        <time>2022-04-06T06:29:20Z</time>
      </trkpt>
      <trkpt lat="48.385" lon="7.25773">
        <ele>978</ele>
        <time>2022-04-06T06:29:23Z</time>
      </trkpt>
      <trkpt lat="48.38477" lon="7.25769">
        <ele>976</ele>
        <time>2022-04-06T06:29:27Z</time>
      </trkpt>
      <trkpt lat="48.38435" lon="7.2577">
        <ele>972</ele>
        <time>2022-04-06T06:29:35Z</time>
      </trkpt>
      <trkpt lat="48.38408" lon="7.25774">
        <ele>970</ele>
        <time>2022-04-06T06:29:40Z</time>
      </trkpt>
      <trkpt lat="48.3839" lon="7.25776">
        <ele>969</ele>
        <time>2022-04-06T06:29:43Z</time>
      </trkpt>
      <trkpt lat="48.38376" lon="7.2578">
        <ele>968</ele>
        <time>2022-04-06T06:29:45Z</time>
      </trkpt>
      <trkpt lat="48.3837" lon="7.25781">
        <ele>967</ele>
        <time>2022-04-06T06:29:46Z</time>
      </trkpt>
      <trkpt lat="48.38367" lon="7.25778">
        <ele>967</ele>
        <time>2022-04-06T06:29:47Z</time>
      </trkpt>
      <trkpt lat="48.38361" lon="7.25769">
        <ele>967</ele>
        <time>2022-04-06T06:29:48Z</time>
      </trkpt>
      <trkpt lat="48.38347" lon="7.25743">
        <ele>966</ele>
        <time>2022-04-06T06:29:52Z</time>
      </trkpt>
      <trkpt lat="48.38331" lon="7.25713">
        <ele>967</ele>
        <time>2022-04-06T06:29:57Z</time>
      </trkpt>
      <trkpt lat="48.383" lon="7.25658">
        <ele>971</ele>
        <time>2022-04-06T06:30:06Z</time>
      </trkpt>
      <trkpt lat="48.38284" lon="7.25624">
        <ele>973</ele>
        <time>2022-04-06T06:30:10Z</time>
      </trkpt>
      <trkpt lat="48.38204" lon="7.25459">
        <ele>982</ele>
        <time>2022-04-06T06:30:35Z</time>
      </trkpt>
      <trkpt lat="48.38154" lon="7.25297">
        <ele>979</ele>
        <time>2022-04-06T06:30:56Z</time>
      </trkpt>
      <trkpt lat="48.38151" lon="7.25287">
        <ele>979</ele>
        <time>2022-04-06T06:30:57Z</time>
      </trkpt>
      <trkpt lat="48.38146" lon="7.25277">
        <ele>979</ele>
        <time>2022-04-06T06:30:58Z</time>
      </trkpt>
      <trkpt lat="48.38141" lon="7.25267">
        <ele>979</ele>
        <time>2022-04-06T06:31:00Z</time>
      </trkpt>
      <trkpt lat="48.38125" lon="7.25245">
        <ele>978</ele>
        <time>2022-04-06T06:31:04Z</time>
      </trkpt>
      <trkpt lat="48.38019" lon="7.25127">
        <ele>982</ele>
        <time>2022-04-06T06:31:27Z</time>
      </trkpt>
      <trkpt lat="48.37995" lon="7.25087">
        <ele>984</ele>
        <time>2022-04-06T06:31:34Z</time>
      </trkpt>
      <trkpt lat="48.37971" lon="7.25028">
        <ele>988</ele>
        <time>2022-04-06T06:31:42Z</time>
      </trkpt>
      <trkpt lat="48.37962" lon="7.24984">
        <ele>991</ele>
        <time>2022-04-06T06:31:47Z</time>
      </trkpt>
      <trkpt lat="48.37958" lon="7.24937">
        <ele>994</ele>
        <time>2022-04-06T06:31:53Z</time>
      </trkpt>
      <trkpt lat="48.37958" lon="7.24916">
        <ele>995</ele>
        <time>2022-04-06T06:31:55Z</time>
      </trkpt>
      <trkpt lat="48.37962" lon="7.24893">
        <ele>995</ele>
        <time>2022-04-06T06:31:58Z</time>
      </trkpt>
      <trkpt lat="48.37967" lon="7.24875">
        <ele>995</ele>
        <time>2022-04-06T06:32:00Z</time>
      </trkpt>
      <trkpt lat="48.37982" lon="7.24846">
        <ele>999</ele>
        <time>2022-04-06T06:32:05Z</time>
      </trkpt>
      <trkpt lat="48.38009" lon="7.24806">
        <ele>1001</ele>
        <time>2022-04-06T06:32:12Z</time>
      </trkpt>
      <trkpt lat="48.3812" lon="7.24683">
        <ele>1005</ele>
        <time>2022-04-06T06:32:36Z</time>
      </trkpt>
      <trkpt lat="48.3814" lon="7.24656">
        <ele>1006</ele>
        <time>2022-04-06T06:32:41Z</time>
      </trkpt>
      <trkpt lat="48.38151" lon="7.24632">
        <ele>1007</ele>
        <time>2022-04-06T06:32:44Z</time>
      </trkpt>
      <trkpt lat="48.38156" lon="7.24612">
        <ele>1007</ele>
        <time>2022-04-06T06:32:47Z</time>
      </trkpt>
      <trkpt lat="48.38157" lon="7.24593">
        <ele>1007</ele>
        <time>2022-04-06T06:32:49Z</time>
      </trkpt>
      <trkpt lat="48.38154" lon="7.24561">
        <ele>1006</ele>
        <time>2022-04-06T06:32:53Z</time>
      </trkpt>
      <trkpt lat="48.38144" lon="7.24494">
        <ele>1005</ele>
        <time>2022-04-06T06:33:01Z</time>
      </trkpt>
      <trkpt lat="48.38136" lon="7.24464">
        <ele>1005</ele>
        <time>2022-04-06T06:33:05Z</time>
      </trkpt>
      <trkpt lat="48.381" lon="7.24343">
        <ele>1000</ele>
        <time>2022-04-06T06:33:20Z</time>
      </trkpt>
      <trkpt lat="48.38089" lon="7.2428">
        <ele>999</ele>
        <time>2022-04-06T06:33:28Z</time>
      </trkpt>
      <trkpt lat="48.38087" lon="7.24248">
        <ele>999</ele>
        <time>2022-04-06T06:33:32Z</time>
      </trkpt>
      <trkpt lat="48.38088" lon="7.2422">
        <ele>998</ele>
        <time>2022-04-06T06:33:35Z</time>
      </trkpt>
      <trkpt lat="48.38091" lon="7.24198">
        <ele>997</ele>
        <time>2022-04-06T06:33:38Z</time>
      </trkpt>
      <trkpt lat="48.38098" lon="7.24174">
        <ele>996</ele>
        <time>2022-04-06T06:33:41Z</time>
      </trkpt>
      <trkpt lat="48.38106" lon="7.24159">
        <ele>995</ele>
        <time>2022-04-06T06:33:43Z</time>
      </trkpt>
      <trkpt lat="48.38125" lon="7.24133">
        <ele>994</ele>
        <time>2022-04-06T06:33:48Z</time>
      </trkpt>
      <trkpt lat="48.3823" lon="7.24061">
        <ele>982</ele>
        <time>2022-04-06T06:34:08Z</time>
      </trkpt>
      <trkpt lat="48.38247" lon="7.24043">
        <ele>979</ele>
        <time>2022-04-06T06:34:12Z</time>
      </trkpt>
      <trkpt lat="48.38263" lon="7.24021">
        <ele>978</ele>
        <time>2022-04-06T06:34:16Z</time>
      </trkpt>
      <trkpt lat="48.38275" lon="7.23997">
        <ele>977</ele>
        <time>2022-04-06T06:34:20Z</time>
      </trkpt>
      <trkpt lat="48.38281" lon="7.23977">
        <ele>976</ele>
        <time>2022-04-06T06:34:22Z</time>
      </trkpt>
      <trkpt lat="48.38284" lon="7.23959">
        <ele>975</ele>
        <time>2022-04-06T06:34:24Z</time>
      </trkpt>
      <trkpt lat="48.38287" lon="7.23939">
        <ele>974</ele>
        <time>2022-04-06T06:34:27Z</time>
      </trkpt>
      <trkpt lat="48.38288" lon="7.23894">
        <ele>970</ele>
        <time>2022-04-06T06:34:32Z</time>
      </trkpt>
      <trkpt lat="48.38291" lon="7.2386">
        <ele>967</ele>
        <time>2022-04-06T06:34:36Z</time>
      </trkpt>
      <trkpt lat="48.38298" lon="7.23818">
        <ele>963</ele>
        <time>2022-04-06T06:34:41Z</time>
      </trkpt>
      <trkpt lat="48.38309" lon="7.23781">
        <ele>960</ele>
        <time>2022-04-06T06:34:46Z</time>
      </trkpt>
      <trkpt lat="48.38324" lon="7.23746">
        <ele>957</ele>
        <time>2022-04-06T06:34:51Z</time>
      </trkpt>
      <trkpt lat="48.38381" lon="7.2367">
        <ele>955</ele>
        <time>2022-04-06T06:35:04Z</time>
      </trkpt>
      <trkpt lat="48.38423" lon="7.23618">
        <ele>951</ele>
        <time>2022-04-06T06:35:14Z</time>
      </trkpt>
      <trkpt lat="48.38445" lon="7.23596">
        <ele>949</ele>
        <time>2022-04-06T06:35:19Z</time>
      </trkpt>
      <trkpt lat="48.38463" lon="7.23585">
        <ele>948</ele>
        <time>2022-04-06T06:35:22Z</time>
      </trkpt>
      <trkpt lat="48.38633" lon="7.23529">
        <ele>939</ele>
        <time>2022-04-06T06:35:53Z</time>
      </trkpt>
      <trkpt lat="48.3873" lon="7.23494">
        <ele>939</ele>
        <time>2022-04-06T06:36:11Z</time>
      </trkpt>
      <trkpt lat="48.38756" lon="7.23476">
        <ele>939</ele>
        <time>2022-04-06T06:36:16Z</time>
      </trkpt>
      <trkpt lat="48.38774" lon="7.23455">
        <ele>939</ele>
        <time>2022-04-06T06:36:20Z</time>
      </trkpt>
      <trkpt lat="48.38839" lon="7.23335">
        <ele>934</ele>
        <time>2022-04-06T06:36:38Z</time>
      </trkpt>
      <trkpt lat="48.38881" lon="7.23252">
        <ele>928</ele>
        <time>2022-04-06T06:36:51Z</time>
      </trkpt>
      <trkpt lat="48.38893" lon="7.23225">
        <ele>928</ele>
        <time>2022-04-06T06:36:55Z</time>
      </trkpt>
      <trkpt lat="48.38903" lon="7.23195">
        <ele>927</ele>
        <time>2022-04-06T06:36:59Z</time>
      </trkpt>
      <trkpt lat="48.38913" lon="7.2316">
        <ele>926</ele>
        <time>2022-04-06T06:37:03Z</time>
      </trkpt>
      <trkpt lat="48.38922" lon="7.2312">
        <ele>926</ele>
        <time>2022-04-06T06:37:08Z</time>
      </trkpt>
      <trkpt lat="48.38926" lon="7.23081">
        <ele>925</ele>
        <time>2022-04-06T06:37:13Z</time>
      </trkpt>
      <trkpt lat="48.38931" lon="7.23027">
        <ele>922</ele>
        <time>2022-04-06T06:37:19Z</time>
      </trkpt>
      <trkpt lat="48.38932" lon="7.23001">
        <ele>921</ele>
        <time>2022-04-06T06:37:22Z</time>
      </trkpt>
      <trkpt lat="48.38931" lon="7.22969">
        <ele>920</ele>
        <time>2022-04-06T06:37:26Z</time>
      </trkpt>
      <trkpt lat="48.38926" lon="7.22942">
        <ele>919</ele>
        <time>2022-04-06T06:37:29Z</time>
      </trkpt>
      <trkpt lat="48.38918" lon="7.22928">
        <ele>918</ele>
        <time>2022-04-06T06:37:32Z</time>
      </trkpt>
      <trkpt lat="48.38905" lon="7.2291">
        <ele>915</ele>
        <time>2022-04-06T06:37:35Z</time>
      </trkpt>
      <trkpt lat="48.38894" lon="7.22901">
        <ele>914</ele>
        <time>2022-04-06T06:37:37Z</time>
      </trkpt>
      <trkpt lat="48.38879" lon="7.22893">
        <ele>913</ele>
        <time>2022-04-06T06:37:40Z</time>
      </trkpt>
      <trkpt lat="48.38859" lon="7.22893">
        <ele>910</ele>
        <time>2022-04-06T06:37:43Z</time>
      </trkpt>
      <trkpt lat="48.38849" lon="7.22897">
        <ele>909</ele>
        <time>2022-04-06T06:37:45Z</time>
      </trkpt>
      <trkpt lat="48.38835" lon="7.22906">
        <ele>908</ele>
        <time>2022-04-06T06:37:48Z</time>
      </trkpt>
      <trkpt lat="48.38818" lon="7.22923">
        <ele>906</ele>
        <time>2022-04-06T06:37:51Z</time>
      </trkpt>
      <trkpt lat="48.38806" lon="7.22939">
        <ele>906</ele>
        <time>2022-04-06T06:37:54Z</time>
      </trkpt>
      <trkpt lat="48.38774" lon="7.22975">
        <ele>902</ele>
        <time>2022-04-06T06:38:01Z</time>
      </trkpt>
      <trkpt lat="48.38752" lon="7.22991">
        <ele>899</ele>
        <time>2022-04-06T06:38:06Z</time>
      </trkpt>
      <trkpt lat="48.38692" lon="7.2301">
        <ele>892</ele>
        <time>2022-04-06T06:38:17Z</time>
      </trkpt>
      <trkpt lat="48.38656" lon="7.2302">
        <ele>887</ele>
        <time>2022-04-06T06:38:23Z</time>
      </trkpt>
      <trkpt lat="48.38628" lon="7.23028">
        <ele>882</ele>
        <time>2022-04-06T06:38:28Z</time>
      </trkpt>
      <trkpt lat="48.38608" lon="7.23039">
        <ele>879</ele>
        <time>2022-04-06T06:38:32Z</time>
      </trkpt>
      <trkpt lat="48.3859" lon="7.23055">
        <ele>878</ele>
        <time>2022-04-06T06:38:36Z</time>
      </trkpt>
      <trkpt lat="48.38576" lon="7.23074">
        <ele>877</ele>
        <time>2022-04-06T06:38:39Z</time>
      </trkpt>
      <trkpt lat="48.38565" lon="7.23098">
        <ele>875</ele>
        <time>2022-04-06T06:38:43Z</time>
      </trkpt>
      <trkpt lat="48.38558" lon="7.2312">
        <ele>873</ele>
        <time>2022-04-06T06:38:45Z</time>
      </trkpt>
      <trkpt lat="48.38554" lon="7.23146">
        <ele>873</ele>
        <time>2022-04-06T06:38:49Z</time>
      </trkpt>
      <trkpt lat="48.38553" lon="7.23164">
        <ele>873</ele>
        <time>2022-04-06T06:38:51Z</time>
      </trkpt>
      <trkpt lat="48.38557" lon="7.2322">
        <ele>878</ele>
        <time>2022-04-06T06:38:57Z</time>
      </trkpt>
      <trkpt lat="48.38557" lon="7.2324">
        <ele>879</ele>
        <time>2022-04-06T06:39:00Z</time>
      </trkpt>
      <trkpt lat="48.38553" lon="7.23259">
        <ele>881</ele>
        <time>2022-04-06T06:39:02Z</time>
      </trkpt>
      <trkpt lat="48.38544" lon="7.23274">
        <ele>882</ele>
        <time>2022-04-06T06:39:05Z</time>
      </trkpt>
      <trkpt lat="48.38533" lon="7.23286">
        <ele>883</ele>
        <time>2022-04-06T06:39:07Z</time>
      </trkpt>
      <trkpt lat="48.38515" lon="7.23294">
        <ele>882</ele>
        <time>2022-04-06T06:39:10Z</time>
      </trkpt>
      <trkpt lat="48.38498" lon="7.23297">
        <ele>881</ele>
        <time>2022-04-06T06:39:13Z</time>
      </trkpt>
      <trkpt lat="48.38454" lon="7.23301">
        <ele>876</ele>
        <time>2022-04-06T06:39:21Z</time>
      </trkpt>
      <trkpt lat="48.38307" lon="7.23318">
        <ele>860</ele>
        <time>2022-04-06T06:39:47Z</time>
      </trkpt>
      <trkpt lat="48.38213" lon="7.23299">
        <ele>847</ele>
        <time>2022-04-06T06:40:04Z</time>
      </trkpt>
      <trkpt lat="48.38178" lon="7.23299">
        <ele>843</ele>
        <time>2022-04-06T06:40:10Z</time>
      </trkpt>
      <trkpt lat="48.38149" lon="7.23308">
        <ele>838</ele>
        <time>2022-04-06T06:40:16Z</time>
      </trkpt>
      <trkpt lat="48.38124" lon="7.23326">
        <ele>833</ele>
        <time>2022-04-06T06:40:21Z</time>
      </trkpt>
      <trkpt lat="48.38103" lon="7.23353">
        <ele>830</ele>
        <time>2022-04-06T06:40:26Z</time>
      </trkpt>
      <trkpt lat="48.38082" lon="7.23395">
        <ele>830</ele>
        <time>2022-04-06T06:40:32Z</time>
      </trkpt>
      <trkpt lat="48.38043" lon="7.235">
        <ele>835</ele>
        <time>2022-04-06T06:40:46Z</time>
      </trkpt>
      <trkpt lat="48.38031" lon="7.23517">
        <ele>836</ele>
        <time>2022-04-06T06:40:49Z</time>
      </trkpt>
      <trkpt lat="48.38019" lon="7.23526">
        <ele>835</ele>
        <time>2022-04-06T06:40:51Z</time>
      </trkpt>
      <trkpt lat="48.38008" lon="7.2353">
        <ele>833</ele>
        <time>2022-04-06T06:40:53Z</time>
      </trkpt>
      <trkpt lat="48.37993" lon="7.23526">
        <ele>830</ele>
        <time>2022-04-06T06:40:56Z</time>
      </trkpt>
      <trkpt lat="48.37933" lon="7.23477">
        <ele>814</ele>
        <time>2022-04-06T06:41:08Z</time>
      </trkpt>
      <trkpt lat="48.37904" lon="7.23456">
        <ele>807</ele>
        <time>2022-04-06T06:41:14Z</time>
      </trkpt>
      <trkpt lat="48.37884" lon="7.23447">
        <ele>803</ele>
        <time>2022-04-06T06:41:18Z</time>
      </trkpt>
      <trkpt lat="48.37867" lon="7.23446">
        <ele>802</ele>
        <time>2022-04-06T06:41:21Z</time>
      </trkpt>
      <trkpt lat="48.37843" lon="7.23449">
        <ele>802</ele>
        <time>2022-04-06T06:41:25Z</time>
      </trkpt>
      <trkpt lat="48.37823" lon="7.23457">
        <ele>801</ele>
        <time>2022-04-06T06:41:29Z</time>
      </trkpt>
      <trkpt lat="48.37786" lon="7.23484">
        <ele>800</ele>
        <time>2022-04-06T06:41:36Z</time>
      </trkpt>
      <trkpt lat="48.3775" lon="7.23511">
        <ele>798</ele>
        <time>2022-04-06T06:41:43Z</time>
      </trkpt>
      <trkpt lat="48.37719" lon="7.2354">
        <ele>799</ele>
        <time>2022-04-06T06:41:50Z</time>
      </trkpt>
      <trkpt lat="48.37701" lon="7.23554">
        <ele>799</ele>
        <time>2022-04-06T06:41:53Z</time>
      </trkpt>
      <trkpt lat="48.3768" lon="7.23562">
        <ele>797</ele>
        <time>2022-04-06T06:41:57Z</time>
      </trkpt>
      <trkpt lat="48.37659" lon="7.23565">
        <ele>795</ele>
        <time>2022-04-06T06:42:01Z</time>
      </trkpt>
      <trkpt lat="48.37642" lon="7.23562">
        <ele>795</ele>
        <time>2022-04-06T06:42:04Z</time>
      </trkpt>
      <trkpt lat="48.37459" lon="7.23435">
        <ele>771</ele>
        <time>2022-04-06T06:42:40Z</time>
      </trkpt>
      <trkpt lat="48.3744" lon="7.23413">
        <ele>767</ele>
        <time>2022-04-06T06:42:44Z</time>
      </trkpt>
      <trkpt lat="48.37427" lon="7.23392">
        <ele>765</ele>
        <time>2022-04-06T06:42:47Z</time>
      </trkpt>
      <trkpt lat="48.3742" lon="7.23374">
        <ele>763</ele>
        <time>2022-04-06T06:42:50Z</time>
      </trkpt>
      <trkpt lat="48.37414" lon="7.23342">
        <ele>758</ele>
        <time>2022-04-06T06:42:54Z</time>
      </trkpt>
      <trkpt lat="48.37412" lon="7.23322">
        <ele>755</ele>
        <time>2022-04-06T06:42:56Z</time>
      </trkpt>
      <trkpt lat="48.37413" lon="7.23302">
        <ele>753</ele>
        <time>2022-04-06T06:42:59Z</time>
      </trkpt>
      <trkpt lat="48.37419" lon="7.23224">
        <ele>749</ele>
        <time>2022-04-06T06:43:08Z</time>
      </trkpt>
      <trkpt lat="48.37426" lon="7.23154">
        <ele>749</ele>
        <time>2022-04-06T06:43:16Z</time>
      </trkpt>
      <trkpt lat="48.37427" lon="7.23125">
        <ele>750</ele>
        <time>2022-04-06T06:43:20Z</time>
      </trkpt>
      <trkpt lat="48.37426" lon="7.23106">
        <ele>750</ele>
        <time>2022-04-06T06:43:22Z</time>
      </trkpt>
      <trkpt lat="48.37423" lon="7.23077">
        <ele>751</ele>
        <time>2022-04-06T06:43:25Z</time>
      </trkpt>
      <trkpt lat="48.37408" lon="7.2297">
        <ele>749</ele>
        <time>2022-04-06T06:43:38Z</time>
      </trkpt>
      <trkpt lat="48.37393" lon="7.22897">
        <ele>742</ele>
        <time>2022-04-06T06:43:47Z</time>
      </trkpt>
      <trkpt lat="48.37386" lon="7.22875">
        <ele>740</ele>
        <time>2022-04-06T06:43:50Z</time>
      </trkpt>
      <trkpt lat="48.37377" lon="7.22856">
        <ele>739</ele>
        <time>2022-04-06T06:43:53Z</time>
      </trkpt>
      <trkpt lat="48.37362" lon="7.22832">
        <ele>739</ele>
        <time>2022-04-06T06:43:57Z</time>
      </trkpt>
      <trkpt lat="48.37355" lon="7.22824">
        <ele>739</ele>
        <time>2022-04-06T06:43:58Z</time>
      </trkpt>
      <trkpt lat="48.37348" lon="7.22818">
        <ele>740</ele>
        <time>2022-04-06T06:44:00Z</time>
      </trkpt>
      <trkpt lat="48.37311" lon="7.22786">
        <ele>737</ele>
        <time>2022-04-06T06:44:07Z</time>
      </trkpt>
      <trkpt lat="48.37297" lon="7.22769">
        <ele>736</ele>
        <time>2022-04-06T06:44:11Z</time>
      </trkpt>
      <trkpt lat="48.37287" lon="7.22745">
        <ele>736</ele>
        <time>2022-04-06T06:44:14Z</time>
      </trkpt>
      <trkpt lat="48.37281" lon="7.22713">
        <ele>737</ele>
        <time>2022-04-06T06:44:18Z</time>
      </trkpt>
      <trkpt lat="48.37261" lon="7.22512">
        <ele>736</ele>
        <time>2022-04-06T06:44:42Z</time>
      </trkpt>
      <trkpt lat="48.37258" lon="7.22477">
        <ele>735</ele>
        <time>2022-04-06T06:44:46Z</time>
      </trkpt>
      <trkpt lat="48.37259" lon="7.2244">
        <ele>734</ele>
        <time>2022-04-06T06:44:50Z</time>
      </trkpt>
      <trkpt lat="48.3727" lon="7.22363">
        <ele>729</ele>
        <time>2022-04-06T06:45:00Z</time>
      </trkpt>
      <trkpt lat="48.37272" lon="7.22334">
        <ele>726</ele>
        <time>2022-04-06T06:45:03Z</time>
      </trkpt>
      <trkpt lat="48.3727" lon="7.22266">
        <ele>719</ele>
        <time>2022-04-06T06:45:11Z</time>
      </trkpt>
      <trkpt lat="48.37264" lon="7.22178">
        <ele>712</ele>
        <time>2022-04-06T06:45:22Z</time>
      </trkpt>
      <trkpt lat="48.3726" lon="7.22142">
        <ele>711</ele>
        <time>2022-04-06T06:45:26Z</time>
      </trkpt>
      <trkpt lat="48.37251" lon="7.22087">
        <ele>711</ele>
        <time>2022-04-06T06:45:33Z</time>
      </trkpt>
      <trkpt lat="48.3722" lon="7.21959">
        <ele>700</ele>
        <time>2022-04-06T06:45:49Z</time>
      </trkpt>
      <trkpt lat="48.37215" lon="7.21928">
        <ele>700</ele>
        <time>2022-04-06T06:45:53Z</time>
      </trkpt>
      <trkpt lat="48.37212" lon="7.21898">
        <ele>701</ele>
        <time>2022-04-06T06:45:56Z</time>
      </trkpt>
      <trkpt lat="48.37212" lon="7.21885">
        <ele>701</ele>
        <time>2022-04-06T06:45:58Z</time>
      </trkpt>
      <trkpt lat="48.37211" lon="7.21873">
        <ele>702</ele>
        <time>2022-04-06T06:45:59Z</time>
      </trkpt>
      <trkpt lat="48.37213" lon="7.21801">
        <ele>700</ele>
        <time>2022-04-06T06:46:08Z</time>
      </trkpt>
      <trkpt lat="48.37216" lon="7.21747">
        <ele>697</ele>
        <time>2022-04-06T06:46:14Z</time>
      </trkpt>
      <trkpt lat="48.37219" lon="7.21724">
        <ele>697</ele>
        <time>2022-04-06T06:46:17Z</time>
      </trkpt>
      <trkpt lat="48.37229" lon="7.21673">
        <ele>696</ele>
        <time>2022-04-06T06:46:23Z</time>
      </trkpt>
      <trkpt lat="48.37247" lon="7.21607">
        <ele>693</ele>
        <time>2022-04-06T06:46:32Z</time>
      </trkpt>
      <trkpt lat="48.37256" lon="7.21581">
        <ele>692</ele>
        <time>2022-04-06T06:46:35Z</time>
      </trkpt>
      <trkpt lat="48.37285" lon="7.21509">
        <ele>687</ele>
        <time>2022-04-06T06:46:45Z</time>
      </trkpt>
      <trkpt lat="48.37301" lon="7.21459">
        <ele>682</ele>
        <time>2022-04-06T06:46:52Z</time>
      </trkpt>
      <trkpt lat="48.37328" lon="7.21324">
        <ele>674</ele>
        <time>2022-04-06T06:47:08Z</time>
      </trkpt>
      <trkpt lat="48.37334" lon="7.21284">
        <ele>672</ele>
        <time>2022-04-06T06:47:13Z</time>
      </trkpt>
      <trkpt lat="48.37338" lon="7.21235">
        <ele>670</ele>
        <time>2022-04-06T06:47:19Z</time>
      </trkpt>
      <trkpt lat="48.37326" lon="7.21056">
        <ele>663</ele>
        <time>2022-04-06T06:47:40Z</time>
      </trkpt>
      <trkpt lat="48.37326" lon="7.21016">
        <ele>661</ele>
        <time>2022-04-06T06:47:45Z</time>
      </trkpt>
      <trkpt lat="48.37329" lon="7.2099">
        <ele>659</ele>
        <time>2022-04-06T06:47:48Z</time>
      </trkpt>
      <trkpt lat="48.37332" lon="7.20974">
        <ele>657</ele>
        <time>2022-04-06T06:47:50Z</time>
      </trkpt>
      <trkpt lat="48.37341" lon="7.20946">
        <ele>654</ele>
        <time>2022-04-06T06:47:54Z</time>
      </trkpt>
      <trkpt lat="48.37357" lon="7.20904">
        <ele>648</ele>
        <time>2022-04-06T06:47:59Z</time>
      </trkpt>
      <trkpt lat="48.37362" lon="7.20883">
        <ele>645</ele>
        <time>2022-04-06T06:48:02Z</time>
      </trkpt>
      <trkpt lat="48.37363" lon="7.20862">
        <ele>643</ele>
        <time>2022-04-06T06:48:05Z</time>
      </trkpt>
      <trkpt lat="48.37359" lon="7.20846">
        <ele>642</ele>
        <time>2022-04-06T06:48:07Z</time>
      </trkpt>
      <trkpt lat="48.37354" lon="7.20835">
        <ele>642</ele>
        <time>2022-04-06T06:48:08Z</time>
      </trkpt>
      <trkpt lat="48.37347" lon="7.20827">
        <ele>642</ele>
        <time>2022-04-06T06:48:10Z</time>
      </trkpt>
      <trkpt lat="48.37333" lon="7.20818">
        <ele>642</ele>
        <time>2022-04-06T06:48:12Z</time>
      </trkpt>
      <trkpt lat="48.37313" lon="7.20809">
        <ele>644</ele>
        <time>2022-04-06T06:48:16Z</time>
      </trkpt>
      <trkpt lat="48.37287" lon="7.20787">
        <ele>646</ele>
        <time>2022-04-06T06:48:21Z</time>
      </trkpt>
      <trkpt lat="48.37277" lon="7.20773">
        <ele>646</ele>
        <time>2022-04-06T06:48:24Z</time>
      </trkpt>
      <trkpt lat="48.37269" lon="7.20753">
        <ele>644</ele>
        <time>2022-04-06T06:48:27Z</time>
      </trkpt>
      <trkpt lat="48.37239" lon="7.20631">
        <ele>631</ele>
        <time>2022-04-06T06:48:42Z</time>
      </trkpt>
      <trkpt lat="48.3723" lon="7.20605">
        <ele>630</ele>
        <time>2022-04-06T06:48:45Z</time>
      </trkpt>
      <trkpt lat="48.37219" lon="7.20578">
        <ele>628</ele>
        <time>2022-04-06T06:48:49Z</time>
      </trkpt>
      <trkpt lat="48.37204" lon="7.20554">
        <ele>627</ele>
        <time>2022-04-06T06:48:53Z</time>
      </trkpt>
      <trkpt lat="48.37188" lon="7.20534">
        <ele>626</ele>
        <time>2022-04-06T06:48:57Z</time>
      </trkpt>
      <trkpt lat="48.37171" lon="7.20515">
        <ele>625</ele>
        <time>2022-04-06T06:49:01Z</time>
      </trkpt>
      <trkpt lat="48.37152" lon="7.20499">
        <ele>622</ele>
        <time>2022-04-06T06:49:04Z</time>
      </trkpt>
      <trkpt lat="48.37131" lon="7.20485">
        <ele>618</ele>
        <time>2022-04-06T06:49:08Z</time>
      </trkpt>
      <trkpt lat="48.37116" lon="7.2048">
        <ele>616</ele>
        <time>2022-04-06T06:49:11Z</time>
      </trkpt>
      <trkpt lat="48.371" lon="7.20479">
        <ele>615</ele>
        <time>2022-04-06T06:49:14Z</time>
      </trkpt>
      <trkpt lat="48.37086" lon="7.20481">
        <ele>615</ele>
        <time>2022-04-06T06:49:17Z</time>
      </trkpt>
      <trkpt lat="48.37065" lon="7.20492">
        <ele>612</ele>
        <time>2022-04-06T06:49:21Z</time>
      </trkpt>
      <trkpt lat="48.37056" lon="7.20499">
        <ele>612</ele>
        <time>2022-04-06T06:49:22Z</time>
      </trkpt>
      <trkpt lat="48.36945" lon="7.20618">
        <ele>607</ele>
        <time>2022-04-06T06:49:47Z</time>
      </trkpt>
      <trkpt lat="48.36926" lon="7.20636">
        <ele>604</ele>
        <time>2022-04-06T06:49:51Z</time>
      </trkpt>
      <trkpt lat="48.36894" lon="7.20659">
        <ele>600</ele>
        <time>2022-04-06T06:49:57Z</time>
      </trkpt>
      <trkpt lat="48.36867" lon="7.20686">
        <ele>599</ele>
        <time>2022-04-06T06:50:03Z</time>
      </trkpt>
      <trkpt lat="48.36838" lon="7.2073">
        <ele>600</ele>
        <time>2022-04-06T06:50:10Z</time>
      </trkpt>
      <trkpt lat="48.3682" lon="7.20749">
        <ele>600</ele>
        <time>2022-04-06T06:50:14Z</time>
      </trkpt>
      <trkpt lat="48.36794" lon="7.20763">
        <ele>598</ele>
        <time>2022-04-06T06:50:19Z</time>
      </trkpt>
      <trkpt lat="48.36779" lon="7.20764">
        <ele>595</ele>
        <time>2022-04-06T06:50:21Z</time>
      </trkpt>
      <trkpt lat="48.3677" lon="7.20763">
        <ele>593</ele>
        <time>2022-04-06T06:50:23Z</time>
      </trkpt>
      <trkpt lat="48.36757" lon="7.20757">
        <ele>591</ele>
        <time>2022-04-06T06:50:26Z</time>
      </trkpt>
      <trkpt lat="48.36751" lon="7.20752">
        <ele>589</ele>
        <time>2022-04-06T06:50:27Z</time>
      </trkpt>
      <trkpt lat="48.36743" lon="7.20733">
        <ele>587</ele>
        <time>2022-04-06T06:50:29Z</time>
      </trkpt>
      <trkpt lat="48.36742" lon="7.2073">
        <ele>587</ele>
        <time>2022-04-06T06:50:30Z</time>
      </trkpt>
      <trkpt lat="48.36741" lon="7.20724">
        <ele>587</ele>
        <time>2022-04-06T06:50:31Z</time>
      </trkpt>
      <trkpt lat="48.3674" lon="7.20714">
        <ele>586</ele>
        <time>2022-04-06T06:50:32Z</time>
      </trkpt>
      <trkpt lat="48.36747" lon="7.20685">
        <ele>587</ele>
        <time>2022-04-06T06:50:35Z</time>
      </trkpt>
      <trkpt lat="48.36765" lon="7.20607">
        <ele>590</ele>
        <time>2022-04-06T06:50:45Z</time>
      </trkpt>
      <trkpt lat="48.36773" lon="7.2043">
        <ele>580</ele>
        <time>2022-04-06T06:51:06Z</time>
      </trkpt>
      <trkpt lat="48.36767" lon="7.20397">
        <ele>578</ele>
        <time>2022-04-06T06:51:10Z</time>
      </trkpt>
      <trkpt lat="48.36752" lon="7.2036">
        <ele>577</ele>
        <time>2022-04-06T06:51:15Z</time>
      </trkpt>
      <trkpt lat="48.36731" lon="7.20338">
        <ele>576</ele>
        <time>2022-04-06T06:51:20Z</time>
      </trkpt>
      <trkpt lat="48.36676" lon="7.20314">
        <ele>576</ele>
        <time>2022-04-06T06:51:30Z</time>
      </trkpt>
      <trkpt lat="48.36545" lon="7.20266">
        <ele>569</ele>
        <time>2022-04-06T06:51:54Z</time>
      </trkpt>
      <trkpt lat="48.36531" lon="7.20267">
        <ele>567</ele>
        <time>2022-04-06T06:51:56Z</time>
      </trkpt>
      <trkpt lat="48.36507" lon="7.20276">
        <ele>566</ele>
        <time>2022-04-06T06:52:01Z</time>
      </trkpt>
      <trkpt lat="48.36495" lon="7.20278">
        <ele>564</ele>
        <time>2022-04-06T06:52:03Z</time>
      </trkpt>
      <trkpt lat="48.36479" lon="7.20268">
        <ele>561</ele>
        <time>2022-04-06T06:52:06Z</time>
      </trkpt>
      <trkpt lat="48.36476" lon="7.20255">
        <ele>560</ele>
        <time>2022-04-06T06:52:08Z</time>
      </trkpt>
      <trkpt lat="48.36476" lon="7.20234">
        <ele>558</ele>
        <time>2022-04-06T06:52:10Z</time>
      </trkpt>
      <trkpt lat="48.36492" lon="7.2019">
        <ele>557</ele>
        <time>2022-04-06T06:52:16Z</time>
      </trkpt>
      <trkpt lat="48.36499" lon="7.20162">
        <ele>556</ele>
        <time>2022-04-06T06:52:20Z</time>
      </trkpt>
      <trkpt lat="48.36503" lon="7.20076">
        <ele>551</ele>
        <time>2022-04-06T06:52:30Z</time>
      </trkpt>
      <trkpt lat="48.3651" lon="7.20046">
        <ele>550</ele>
        <time>2022-04-06T06:52:34Z</time>
      </trkpt>
      <trkpt lat="48.36535" lon="7.19992">
        <ele>554</ele>
        <time>2022-04-06T06:52:41Z</time>
      </trkpt>
      <trkpt lat="48.3654" lon="7.19979">
        <ele>555</ele>
        <time>2022-04-06T06:52:43Z</time>
      </trkpt>
      <trkpt lat="48.36538" lon="7.19966">
        <ele>554</ele>
        <time>2022-04-06T06:52:45Z</time>
      </trkpt>
      <trkpt lat="48.36531" lon="7.19955">
        <ele>551</ele>
        <time>2022-04-06T06:52:47Z</time>
      </trkpt>
      <trkpt lat="48.36523" lon="7.19951">
        <ele>548</ele>
        <time>2022-04-06T06:52:48Z</time>
      </trkpt>
      <trkpt lat="48.36514" lon="7.19954">
        <ele>546</ele>
        <time>2022-04-06T06:52:50Z</time>
      </trkpt>
      <trkpt lat="48.36507" lon="7.19962">
        <ele>544</ele>
        <time>2022-04-06T06:52:51Z</time>
      </trkpt>
      <trkpt lat="48.36499" lon="7.20008">
        <ele>545</ele>
        <time>2022-04-06T06:52:57Z</time>
      </trkpt>
      <trkpt lat="48.36493" lon="7.20023">
        <ele>545</ele>
        <time>2022-04-06T06:52:59Z</time>
      </trkpt>
      <trkpt lat="48.36484" lon="7.20036">
        <ele>545</ele>
        <time>2022-04-06T06:53:01Z</time>
      </trkpt>
      <trkpt lat="48.36476" lon="7.20043">
        <ele>545</ele>
        <time>2022-04-06T06:53:03Z</time>
      </trkpt>
      <trkpt lat="48.36466" lon="7.20044">
        <ele>544</ele>
        <time>2022-04-06T06:53:05Z</time>
      </trkpt>
      <trkpt lat="48.36458" lon="7.20036">
        <ele>543</ele>
        <time>2022-04-06T06:53:06Z</time>
      </trkpt>
      <trkpt lat="48.36454" lon="7.20028">
        <ele>542</ele>
        <time>2022-04-06T06:53:08Z</time>
      </trkpt>
      <trkpt lat="48.3645" lon="7.20007">
        <ele>540</ele>
        <time>2022-04-06T06:53:10Z</time>
      </trkpt>
      <trkpt lat="48.36452" lon="7.19995">
        <ele>540</ele>
        <time>2022-04-06T06:53:12Z</time>
      </trkpt>
      <trkpt lat="48.36455" lon="7.19986">
        <ele>539</ele>
        <time>2022-04-06T06:53:13Z</time>
      </trkpt>
      <trkpt lat="48.36458" lon="7.19983">
        <ele>540</ele>
        <time>2022-04-06T06:53:13Z</time>
      </trkpt>
      <trkpt lat="48.36461" lon="7.19974">
        <ele>539</ele>
        <time>2022-04-06T06:53:15Z</time>
      </trkpt>
      <trkpt lat="48.36461" lon="7.19967">
        <ele>539</ele>
        <time>2022-04-06T06:53:15Z</time>
      </trkpt>
      <trkpt lat="48.3646" lon="7.19961">
        <ele>539</ele>
        <time>2022-04-06T06:53:16Z</time>
      </trkpt>
      <trkpt lat="48.36456" lon="7.19956">
        <ele>538</ele>
        <time>2022-04-06T06:53:17Z</time>
      </trkpt>
      <trkpt lat="48.36453" lon="7.19953">
        <ele>538</ele>
        <time>2022-04-06T06:53:18Z</time>
      </trkpt>
      <trkpt lat="48.36449" lon="7.19953">
        <ele>537</ele>
        <time>2022-04-06T06:53:18Z</time>
      </trkpt>
      <trkpt lat="48.36445" lon="7.19955">
        <ele>537</ele>
        <time>2022-04-06T06:53:19Z</time>
      </trkpt>
      <trkpt lat="48.36438" lon="7.19955">
        <ele>536</ele>
        <time>2022-04-06T06:53:20Z</time>
      </trkpt>
      <trkpt lat="48.3643" lon="7.19954">
        <ele>536</ele>
        <time>2022-04-06T06:53:22Z</time>
      </trkpt>
      <trkpt lat="48.36423" lon="7.1995">
        <ele>535</ele>
        <time>2022-04-06T06:53:23Z</time>
      </trkpt>
      <trkpt lat="48.36399" lon="7.1994">
        <ele>536</ele>
        <time>2022-04-06T06:53:28Z</time>
      </trkpt>
      <trkpt lat="48.36392" lon="7.1994">
        <ele>537</ele>
        <time>2022-04-06T06:53:29Z</time>
      </trkpt>
      <trkpt lat="48.36385" lon="7.19935">
        <ele>537</ele>
        <time>2022-04-06T06:53:30Z</time>
      </trkpt>
      <trkpt lat="48.36381" lon="7.19933">
        <ele>538</ele>
        <time>2022-04-06T06:53:31Z</time>
      </trkpt>
      <trkpt lat="48.36379" lon="7.19929">
        <ele>538</ele>
        <time>2022-04-06T06:53:32Z</time>
      </trkpt>
      <trkpt lat="48.36376" lon="7.19927">
        <ele>538</ele>
        <time>2022-04-06T06:53:32Z</time>
      </trkpt>
      <trkpt lat="48.36372" lon="7.19926">
        <ele>539</ele>
        <time>2022-04-06T06:53:33Z</time>
      </trkpt>
      <trkpt lat="48.36368" lon="7.1992">
        <ele>539</ele>
        <time>2022-04-06T06:53:34Z</time>
      </trkpt>
      <trkpt lat="48.36362" lon="7.19906">
        <ele>539</ele>
        <time>2022-04-06T06:53:36Z</time>
      </trkpt>
      <trkpt lat="48.36358" lon="7.19901">
        <ele>539</ele>
        <time>2022-04-06T06:53:37Z</time>
      </trkpt>
      <trkpt lat="48.36334" lon="7.19835">
        <ele>535</ele>
        <time>2022-04-06T06:53:46Z</time>
      </trkpt>
      <trkpt lat="48.36291" lon="7.19713">
        <ele>542</ele>
        <time>2022-04-06T06:54:02Z</time>
      </trkpt>
      <trkpt lat="48.36261" lon="7.19619">
        <ele>547</ele>
        <time>2022-04-06T06:54:14Z</time>
      </trkpt>
      <trkpt lat="48.36252" lon="7.19579">
        <ele>546</ele>
        <time>2022-04-06T06:54:19Z</time>
      </trkpt>
      <trkpt lat="48.36246" lon="7.19535">
        <ele>547</ele>
        <time>2022-04-06T06:54:25Z</time>
      </trkpt>
      <trkpt lat="48.36245" lon="7.19512">
        <ele>547</ele>
        <time>2022-04-06T06:54:27Z</time>
      </trkpt>
      <trkpt lat="48.36244" lon="7.19489">
        <ele>547</ele>
        <time>2022-04-06T06:54:30Z</time>
      </trkpt>
      <trkpt lat="48.3625" lon="7.19384">
        <ele>546</ele>
        <time>2022-04-06T06:54:43Z</time>
      </trkpt>
      <trkpt lat="48.36249" lon="7.19321">
        <ele>551</ele>
        <time>2022-04-06T06:54:50Z</time>
      </trkpt>
      <trkpt lat="48.3624" lon="7.1921">
        <ele>555</ele>
        <time>2022-04-06T06:55:03Z</time>
      </trkpt>
      <trkpt lat="48.36228" lon="7.1909">
        <ele>560</ele>
        <time>2022-04-06T06:55:18Z</time>
      </trkpt>
      <trkpt lat="48.36212" lon="7.19002">
        <ele>561</ele>
        <time>2022-04-06T06:55:28Z</time>
      </trkpt>
      <trkpt lat="48.36166" lon="7.18834">
        <ele>561</ele>
        <time>2022-04-06T06:55:50Z</time>
      </trkpt>
      <trkpt lat="48.36154" lon="7.18728">
        <ele>563</ele>
        <time>2022-04-06T06:56:03Z</time>
      </trkpt>
      <trkpt lat="48.36167" lon="7.18542">
        <ele>567</ele>
        <time>2022-04-06T06:56:25Z</time>
      </trkpt>
      <trkpt lat="48.36165" lon="7.18502">
        <ele>567</ele>
        <time>2022-04-06T06:56:29Z</time>
      </trkpt>
      <trkpt lat="48.36159" lon="7.18469">
        <ele>567</ele>
        <time>2022-04-06T06:56:33Z</time>
      </trkpt>
      <trkpt lat="48.3612" lon="7.18373">
        <ele>566</ele>
        <time>2022-04-06T06:56:47Z</time>
      </trkpt>
      <trkpt lat="48.36112" lon="7.18343">
        <ele>566</ele>
        <time>2022-04-06T06:56:51Z</time>
      </trkpt>
      <trkpt lat="48.36071" lon="7.18104">
        <ele>582</ele>
        <time>2022-04-06T06:57:20Z</time>
      </trkpt>
      <trkpt lat="48.36051" lon="7.18031">
        <ele>588</ele>
        <time>2022-04-06T06:57:29Z</time>
      </trkpt>
      <trkpt lat="48.36002" lon="7.17899">
        <ele>591</ele>
        <time>2022-04-06T06:57:47Z</time>
      </trkpt>
      <trkpt lat="48.35993" lon="7.17846">
        <ele>593</ele>
        <time>2022-04-06T06:57:53Z</time>
      </trkpt>
      <trkpt lat="48.35992" lon="7.17809">
        <ele>593</ele>
        <time>2022-04-06T06:57:58Z</time>
      </trkpt>
      <trkpt lat="48.35994" lon="7.17765">
        <ele>594</ele>
        <time>2022-04-06T06:58:03Z</time>
      </trkpt>
      <trkpt lat="48.35973" lon="7.17767">
        <ele>596</ele>
        <time>2022-04-06T06:58:07Z</time>
      </trkpt>
      <trkpt lat="48.35941" lon="7.17779">
        <ele>599</ele>
        <time>2022-04-06T06:58:13Z</time>
      </trkpt>
      <trkpt lat="48.35921" lon="7.17781">
        <ele>601</ele>
        <time>2022-04-06T06:58:16Z</time>
      </trkpt>
      <trkpt lat="48.359" lon="7.17771">
        <ele>604</ele>
        <time>2022-04-06T06:58:20Z</time>
      </trkpt>
      <trkpt lat="48.35884" lon="7.17748">
        <ele>606</ele>
        <time>2022-04-06T06:58:24Z</time>
      </trkpt>
      <trkpt lat="48.35871" lon="7.17719">
        <ele>607</ele>
        <time>2022-04-06T06:58:28Z</time>
      </trkpt>
      <trkpt lat="48.35845" lon="7.17649">
        <ele>609</ele>
        <time>2022-04-06T06:58:38Z</time>
      </trkpt>
      <trkpt lat="48.3583" lon="7.17639">
        <ele>612</ele>
        <time>2022-04-06T06:58:41Z</time>
      </trkpt>
      <trkpt lat="48.35813" lon="7.17635">
        <ele>613</ele>
        <time>2022-04-06T06:58:44Z</time>
      </trkpt>
      <trkpt lat="48.35799" lon="7.17642">
        <ele>614</ele>
        <time>2022-04-06T06:58:46Z</time>
      </trkpt>
      <trkpt lat="48.35685" lon="7.17746">
        <ele>631</ele>
        <time>2022-04-06T06:59:10Z</time>
      </trkpt>
      <trkpt lat="48.35665" lon="7.17785">
        <ele>633</ele>
        <time>2022-04-06T06:59:16Z</time>
      </trkpt>
      <trkpt lat="48.35647" lon="7.17805">
        <ele>634</ele>
        <time>2022-04-06T06:59:20Z</time>
      </trkpt>
      <trkpt lat="48.35625" lon="7.1781">
        <ele>636</ele>
        <time>2022-04-06T06:59:24Z</time>
      </trkpt>
      <trkpt lat="48.35525" lon="7.17791">
        <ele>644</ele>
        <time>2022-04-06T06:59:42Z</time>
      </trkpt>
      <trkpt lat="48.35491" lon="7.17776">
        <ele>647</ele>
        <time>2022-04-06T06:59:48Z</time>
      </trkpt>
      <trkpt lat="48.35466" lon="7.17776">
        <ele>650</ele>
        <time>2022-04-06T06:59:52Z</time>
      </trkpt>
      <trkpt lat="48.35449" lon="7.17791">
        <ele>651</ele>
        <time>2022-04-06T06:59:56Z</time>
      </trkpt>
      <trkpt lat="48.35434" lon="7.17827">
        <ele>652</ele>
        <time>2022-04-06T07:00:01Z</time>
      </trkpt>
      <trkpt lat="48.35422" lon="7.17865">
        <ele>650</ele>
        <time>2022-04-06T07:00:06Z</time>
      </trkpt>
      <trkpt lat="48.35404" lon="7.1789">
        <ele>653</ele>
        <time>2022-04-06T07:00:10Z</time>
      </trkpt>
      <trkpt lat="48.35366" lon="7.17921">
        <ele>663</ele>
        <time>2022-04-06T07:00:18Z</time>
      </trkpt>
      <trkpt lat="48.35348" lon="7.18004">
        <ele>662</ele>
        <time>2022-04-06T07:00:28Z</time>
      </trkpt>
      <trkpt lat="48.3531" lon="7.18096">
        <ele>672</ele>
        <time>2022-04-06T07:00:41Z</time>
      </trkpt>
      <trkpt lat="48.35305" lon="7.18154">
        <ele>676</ele>
        <time>2022-04-06T07:00:48Z</time>
      </trkpt>
      <trkpt lat="48.35294" lon="7.18185">
        <ele>679</ele>
        <time>2022-04-06T07:00:52Z</time>
      </trkpt>
      <trkpt lat="48.35277" lon="7.1821">
        <ele>682</ele>
        <time>2022-04-06T07:00:56Z</time>
      </trkpt>
      <trkpt lat="48.35225" lon="7.18305">
        <ele>688</ele>
        <time>2022-04-06T07:01:11Z</time>
      </trkpt>
      <trkpt lat="48.35182" lon="7.18357">
        <ele>693</ele>
        <time>2022-04-06T07:01:21Z</time>
      </trkpt>
      <trkpt lat="48.35166" lon="7.18401">
        <ele>689</ele>
        <time>2022-04-06T07:01:27Z</time>
      </trkpt>
      <trkpt lat="48.35149" lon="7.18442">
        <ele>691</ele>
        <time>2022-04-06T07:01:32Z</time>
      </trkpt>
      <trkpt lat="48.35081" lon="7.18571">
        <ele>690</ele>
        <time>2022-04-06T07:01:52Z</time>
      </trkpt>
      <trkpt lat="48.35061" lon="7.18602">
        <ele>692</ele>
        <time>2022-04-06T07:01:57Z</time>
      </trkpt>
      <trkpt lat="48.3504" lon="7.18629">
        <ele>693</ele>
        <time>2022-04-06T07:02:02Z</time>
      </trkpt>
      <trkpt lat="48.34968" lon="7.18711">
        <ele>698</ele>
        <time>2022-04-06T07:02:18Z</time>
      </trkpt>
      <trkpt lat="48.34956" lon="7.18729">
        <ele>700</ele>
        <time>2022-04-06T07:02:21Z</time>
      </trkpt>
      <trkpt lat="48.34949" lon="7.18744">
        <ele>699</ele>
        <time>2022-04-06T07:02:23Z</time>
      </trkpt>
      <trkpt lat="48.34928" lon="7.18802">
        <ele>697</ele>
        <time>2022-04-06T07:02:31Z</time>
      </trkpt>
      <trkpt lat="48.34921" lon="7.18825">
        <ele>696</ele>
        <time>2022-04-06T07:02:34Z</time>
      </trkpt>
      <trkpt lat="48.34898" lon="7.18928">
        <ele>688</ele>
        <time>2022-04-06T07:02:47Z</time>
      </trkpt>
      <trkpt lat="48.34886" lon="7.18962">
        <ele>687</ele>
        <time>2022-04-06T07:02:51Z</time>
      </trkpt>
      <trkpt lat="48.34871" lon="7.18992">
        <ele>687</ele>
        <time>2022-04-06T07:02:56Z</time>
      </trkpt>
      <trkpt lat="48.34814" lon="7.19095">
        <ele>684</ele>
        <time>2022-04-06T07:03:12Z</time>
      </trkpt>
      <trkpt lat="48.34794" lon="7.19126">
        <ele>684</ele>
        <time>2022-04-06T07:03:17Z</time>
      </trkpt>
      <trkpt lat="48.34779" lon="7.19141">
        <ele>685</ele>
        <time>2022-04-06T07:03:20Z</time>
      </trkpt>
      <trkpt lat="48.34753" lon="7.19154">
        <ele>686</ele>
        <time>2022-04-06T07:03:25Z</time>
      </trkpt>
      <trkpt lat="48.34733" lon="7.19154">
        <ele>686</ele>
        <time>2022-04-06T07:03:28Z</time>
      </trkpt>
      <trkpt lat="48.34717" lon="7.1915">
        <ele>685</ele>
        <time>2022-04-06T07:03:31Z</time>
      </trkpt>
      <trkpt lat="48.34608" lon="7.19089">
        <ele>691</ele>
        <time>2022-04-06T07:03:52Z</time>
      </trkpt>
      <trkpt lat="48.34576" lon="7.19078">
        <ele>693</ele>
        <time>2022-04-06T07:03:58Z</time>
      </trkpt>
      <trkpt lat="48.34551" lon="7.19073">
        <ele>695</ele>
        <time>2022-04-06T07:04:02Z</time>
      </trkpt>
      <trkpt lat="48.34415" lon="7.19068">
        <ele>687</ele>
        <time>2022-04-06T07:04:27Z</time>
      </trkpt>
      <trkpt lat="48.34356" lon="7.1906">
        <ele>684</ele>
        <time>2022-04-06T07:04:37Z</time>
      </trkpt>
      <trkpt lat="48.34237" lon="7.19041">
        <ele>686</ele>
        <time>2022-04-06T07:04:58Z</time>
      </trkpt>
      <trkpt lat="48.34221" lon="7.19033">
        <ele>686</ele>
        <time>2022-04-06T07:05:01Z</time>
      </trkpt>
      <trkpt lat="48.34194" lon="7.1901">
        <ele>685</ele>
        <time>2022-04-06T07:05:07Z</time>
      </trkpt>
      <trkpt lat="48.34179" lon="7.18993">
        <ele>685</ele>
        <time>2022-04-06T07:05:10Z</time>
      </trkpt>
      <trkpt lat="48.34164" lon="7.1897">
        <ele>684</ele>
        <time>2022-04-06T07:05:14Z</time>
      </trkpt>
      <trkpt lat="48.34122" lon="7.18886">
        <ele>686</ele>
        <time>2022-04-06T07:05:26Z</time>
      </trkpt>
      <trkpt lat="48.34045" lon="7.18757">
        <ele>685</ele>
        <time>2022-04-06T07:05:47Z</time>
      </trkpt>
      <trkpt lat="48.34028" lon="7.18741">
        <ele>683</ele>
        <time>2022-04-06T07:05:51Z</time>
      </trkpt>
      <trkpt lat="48.3399" lon="7.18712">
        <ele>678</ele>
        <time>2022-04-06T07:05:58Z</time>
      </trkpt>
      <trkpt lat="48.3398" lon="7.18702">
        <ele>677</ele>
        <time>2022-04-06T07:06:00Z</time>
      </trkpt>
      <trkpt lat="48.33971" lon="7.1869">
        <ele>676</ele>
        <time>2022-04-06T07:06:02Z</time>
      </trkpt>
      <trkpt lat="48.33965" lon="7.18677">
        <ele>676</ele>
        <time>2022-04-06T07:06:04Z</time>
      </trkpt>
      <trkpt lat="48.33955" lon="7.18639">
        <ele>678</ele>
        <time>2022-04-06T07:06:09Z</time>
      </trkpt>
      <trkpt lat="48.33948" lon="7.18618">
        <ele>679</ele>
        <time>2022-04-06T07:06:12Z</time>
      </trkpt>
      <trkpt lat="48.33941" lon="7.18603">
        <ele>679</ele>
        <time>2022-04-06T07:06:14Z</time>
      </trkpt>
      <trkpt lat="48.33926" lon="7.18587">
        <ele>678</ele>
        <time>2022-04-06T07:06:17Z</time>
      </trkpt>
      <trkpt lat="48.33848" lon="7.18535">
        <ele>669</ele>
        <time>2022-04-06T07:06:32Z</time>
      </trkpt>
      <trkpt lat="48.3383" lon="7.18527">
        <ele>668</ele>
        <time>2022-04-06T07:06:36Z</time>
      </trkpt>
      <trkpt lat="48.33741" lon="7.18519">
        <ele>670</ele>
        <time>2022-04-06T07:06:52Z</time>
      </trkpt>
      <trkpt lat="48.33685" lon="7.18502">
        <ele>672</ele>
        <time>2022-04-06T07:07:02Z</time>
      </trkpt>
      <trkpt lat="48.33673" lon="7.18501">
        <ele>672</ele>
        <time>2022-04-06T07:07:04Z</time>
      </trkpt>
      <trkpt lat="48.33661" lon="7.18502">
        <ele>671</ele>
        <time>2022-04-06T07:07:06Z</time>
      </trkpt>
      <trkpt lat="48.33651" lon="7.18507">
        <ele>669</ele>
        <time>2022-04-06T07:07:08Z</time>
      </trkpt>
      <trkpt lat="48.33644" lon="7.18514">
        <ele>668</ele>
        <time>2022-04-06T07:07:10Z</time>
      </trkpt>
      <trkpt lat="48.33638" lon="7.18527">
        <ele>666</ele>
        <time>2022-04-06T07:07:11Z</time>
      </trkpt>
      <trkpt lat="48.33635" lon="7.18539">
        <ele>664</ele>
        <time>2022-04-06T07:07:13Z</time>
      </trkpt>
      <trkpt lat="48.33636" lon="7.1857">
        <ele>660</ele>
        <time>2022-04-06T07:07:17Z</time>
      </trkpt>
      <trkpt lat="48.3366" lon="7.18765">
        <ele>654</ele>
        <time>2022-04-06T07:07:40Z</time>
      </trkpt>
      <trkpt lat="48.33659" lon="7.18785">
        <ele>653</ele>
        <time>2022-04-06T07:07:42Z</time>
      </trkpt>
      <trkpt lat="48.33652" lon="7.18801">
        <ele>651</ele>
        <time>2022-04-06T07:07:45Z</time>
      </trkpt>
      <trkpt lat="48.33648" lon="7.18805">
        <ele>651</ele>
        <time>2022-04-06T07:07:46Z</time>
      </trkpt>
      <trkpt lat="48.33637" lon="7.18808">
        <ele>649</ele>
        <time>2022-04-06T07:07:47Z</time>
      </trkpt>
      <trkpt lat="48.33628" lon="7.18806">
        <ele>648</ele>
        <time>2022-04-06T07:07:49Z</time>
      </trkpt>
      <trkpt lat="48.3362" lon="7.18799">
        <ele>647</ele>
        <time>2022-04-06T07:07:51Z</time>
      </trkpt>
      <trkpt lat="48.3361" lon="7.18778">
        <ele>648</ele>
        <time>2022-04-06T07:07:54Z</time>
      </trkpt>
      <trkpt lat="48.33583" lon="7.18675">
        <ele>650</ele>
        <time>2022-04-06T07:08:07Z</time>
      </trkpt>
      <trkpt lat="48.33565" lon="7.18616">
        <ele>647</ele>
        <time>2022-04-06T07:08:15Z</time>
      </trkpt>
      <trkpt lat="48.33544" lon="7.18522">
        <ele>648</ele>
        <time>2022-04-06T07:08:26Z</time>
      </trkpt>
      <trkpt lat="48.33538" lon="7.18509">
        <ele>648</ele>
        <time>2022-04-06T07:08:28Z</time>
      </trkpt>
      <trkpt lat="48.33505" lon="7.1847">
        <ele>643</ele>
        <time>2022-04-06T07:08:36Z</time>
      </trkpt>
      <trkpt lat="48.33486" lon="7.18442">
        <ele>640</ele>
        <time>2022-04-06T07:08:40Z</time>
      </trkpt>
      <trkpt lat="48.33461" lon="7.18389">
        <ele>638</ele>
        <time>2022-04-06T07:08:48Z</time>
      </trkpt>
      <trkpt lat="48.33436" lon="7.18329">
        <ele>635</ele>
        <time>2022-04-06T07:08:56Z</time>
      </trkpt>
      <trkpt lat="48.334" lon="7.18232">
        <ele>631</ele>
        <time>2022-04-06T07:09:10Z</time>
      </trkpt>
      <trkpt lat="48.33389" lon="7.18209">
        <ele>629</ele>
        <time>2022-04-06T07:09:13Z</time>
      </trkpt>
      <trkpt lat="48.33378" lon="7.18192">
        <ele>627</ele>
        <time>2022-04-06T07:09:16Z</time>
      </trkpt>
      <trkpt lat="48.3337" lon="7.18185">
        <ele>626</ele>
        <time>2022-04-06T07:09:17Z</time>
      </trkpt>
      <trkpt lat="48.3336" lon="7.18182">
        <ele>624</ele>
        <time>2022-04-06T07:09:19Z</time>
      </trkpt>
      <trkpt lat="48.33104" lon="7.18186">
        <ele>630</ele>
        <time>2022-04-06T07:10:05Z</time>
      </trkpt>
      <trkpt lat="48.3308" lon="7.18205">
        <ele>635</ele>
        <time>2022-04-06T07:10:10Z</time>
      </trkpt>
      <trkpt lat="48.33066" lon="7.18247">
        <ele>638</ele>
        <time>2022-04-06T07:10:15Z</time>
      </trkpt>
      <trkpt lat="48.33058" lon="7.18299">
        <ele>641</ele>
        <time>2022-04-06T07:10:21Z</time>
      </trkpt>
      <trkpt lat="48.33065" lon="7.18489">
        <ele>642</ele>
        <time>2022-04-06T07:10:44Z</time>
      </trkpt>
      <trkpt lat="48.33068" lon="7.18663">
        <ele>643</ele>
        <time>2022-04-06T07:11:05Z</time>
      </trkpt>
      <trkpt lat="48.33059" lon="7.18755">
        <ele>638</ele>
        <time>2022-04-06T07:11:16Z</time>
      </trkpt>
      <trkpt lat="48.3304" lon="7.18773">
        <ele>638</ele>
        <time>2022-04-06T07:11:20Z</time>
      </trkpt>
      <trkpt lat="48.33018" lon="7.18761">
        <ele>639</ele>
        <time>2022-04-06T07:11:24Z</time>
      </trkpt>
      <trkpt lat="48.33005" lon="7.18728">
        <ele>641</ele>
        <time>2022-04-06T07:11:28Z</time>
      </trkpt>
      <trkpt lat="48.32959" lon="7.18535">
        <ele>641</ele>
        <time>2022-04-06T07:11:53Z</time>
      </trkpt>
      <trkpt lat="48.32924" lon="7.1835">
        <ele>637</ele>
        <time>2022-04-06T07:12:15Z</time>
      </trkpt>
      <trkpt lat="48.32879" lon="7.18085">
        <ele>638</ele>
        <time>2022-04-06T07:12:48Z</time>
      </trkpt>
      <trkpt lat="48.32843" lon="7.17994">
        <ele>636</ele>
        <time>2022-04-06T07:13:00Z</time>
      </trkpt>
      <trkpt lat="48.3281" lon="7.17935">
        <ele>630</ele>
        <time>2022-04-06T07:13:09Z</time>
      </trkpt>
      <trkpt lat="48.32687" lon="7.17772">
        <ele>611</ele>
        <time>2022-04-06T07:13:38Z</time>
      </trkpt>
      <trkpt lat="48.32676" lon="7.17761">
        <ele>608</ele>
        <time>2022-04-06T07:13:41Z</time>
      </trkpt>
      <trkpt lat="48.32661" lon="7.17755">
        <ele>606</ele>
        <time>2022-04-06T07:13:44Z</time>
      </trkpt>
      <trkpt lat="48.32624" lon="7.17758">
        <ele>607</ele>
        <time>2022-04-06T07:13:50Z</time>
      </trkpt>
      <trkpt lat="48.32619" lon="7.17761">
        <ele>608</ele>
        <time>2022-04-06T07:13:51Z</time>
      </trkpt>
      <trkpt lat="48.32625" lon="7.17786">
        <ele>607</ele>
        <time>2022-04-06T07:13:54Z</time>
      </trkpt>
      <trkpt lat="48.32656" lon="7.17879">
        <ele>601</ele>
        <time>2022-04-06T07:14:07Z</time>
      </trkpt>
      <trkpt lat="48.32663" lon="7.17908">
        <ele>599</ele>
        <time>2022-04-06T07:14:10Z</time>
      </trkpt>
      <trkpt lat="48.32667" lon="7.17944">
        <ele>597</ele>
        <time>2022-04-06T07:14:15Z</time>
      </trkpt>
      <trkpt lat="48.32671" lon="7.18056">
        <ele>594</ele>
        <time>2022-04-06T07:14:28Z</time>
      </trkpt>
      <trkpt lat="48.32674" lon="7.18088">
        <ele>593</ele>
        <time>2022-04-06T07:14:32Z</time>
      </trkpt>
      <trkpt lat="48.32678" lon="7.18111">
        <ele>593</ele>
        <time>2022-04-06T07:14:34Z</time>
      </trkpt>
      <trkpt lat="48.32685" lon="7.18138">
        <ele>593</ele>
        <time>2022-04-06T07:14:38Z</time>
      </trkpt>
      <trkpt lat="48.32719" lon="7.18223">
        <ele>594</ele>
        <time>2022-04-06T07:14:50Z</time>
      </trkpt>
      <trkpt lat="48.32727" lon="7.1825">
        <ele>595</ele>
        <time>2022-04-06T07:14:53Z</time>
      </trkpt>
      <trkpt lat="48.32731" lon="7.18272">
        <ele>594</ele>
        <time>2022-04-06T07:14:56Z</time>
      </trkpt>
      <trkpt lat="48.32734" lon="7.18299">
        <ele>593</ele>
        <time>2022-04-06T07:14:59Z</time>
      </trkpt>
      <trkpt lat="48.32743" lon="7.18506">
        <ele>583</ele>
        <time>2022-04-06T07:15:24Z</time>
      </trkpt>
      <trkpt lat="48.32763" lon="7.18701">
        <ele>574</ele>
        <time>2022-04-06T07:15:47Z</time>
      </trkpt>
      <trkpt lat="48.32793" lon="7.18891">
        <ele>570</ele>
        <time>2022-04-06T07:16:10Z</time>
      </trkpt>
      <trkpt lat="48.32797" lon="7.18942">
        <ele>568</ele>
        <time>2022-04-06T07:16:16Z</time>
      </trkpt>
      <trkpt lat="48.328" lon="7.19038">
        <ele>560</ele>
        <time>2022-04-06T07:16:27Z</time>
      </trkpt>
      <trkpt lat="48.32804" lon="7.19086">
        <ele>555</ele>
        <time>2022-04-06T07:16:33Z</time>
      </trkpt>
      <trkpt lat="48.32822" lon="7.19155">
        <ele>551</ele>
        <time>2022-04-06T07:16:42Z</time>
      </trkpt>
      <trkpt lat="48.32837" lon="7.1919">
        <ele>548</ele>
        <time>2022-04-06T07:16:47Z</time>
      </trkpt>
      <trkpt lat="48.32881" lon="7.19337">
        <ele>544</ele>
        <time>2022-04-06T07:17:06Z</time>
      </trkpt>
      <trkpt lat="48.32934" lon="7.19496">
        <ele>537</ele>
        <time>2022-04-06T07:17:27Z</time>
      </trkpt>
      <trkpt lat="48.32983" lon="7.19565">
        <ele>529</ele>
        <time>2022-04-06T07:17:39Z</time>
      </trkpt>
      <trkpt lat="48.33013" lon="7.19618">
        <ele>517</ele>
        <time>2022-04-06T07:17:47Z</time>
      </trkpt>
      <trkpt lat="48.33019" lon="7.19623">
        <ele>515</ele>
        <time>2022-04-06T07:17:48Z</time>
      </trkpt>
      <trkpt lat="48.33028" lon="7.19621">
        <ele>514</ele>
        <time>2022-04-06T07:17:50Z</time>
      </trkpt>
      <trkpt lat="48.33036" lon="7.19617">
        <ele>513</ele>
        <time>2022-04-06T07:17:51Z</time>
      </trkpt>
      <trkpt lat="48.33083" lon="7.19522">
        <ele>523</ele>
        <time>2022-04-06T07:18:06Z</time>
      </trkpt>
      <trkpt lat="48.33146" lon="7.19416">
        <ele>519</ele>
        <time>2022-04-06T07:18:22Z</time>
      </trkpt>
      <trkpt lat="48.33177" lon="7.19366">
        <ele>520</ele>
        <time>2022-04-06T07:18:30Z</time>
      </trkpt>
      <trkpt lat="48.33232" lon="7.19293">
        <ele>523</ele>
        <time>2022-04-06T07:18:43Z</time>
      </trkpt>
      <trkpt lat="48.33243" lon="7.19283">
        <ele>523</ele>
        <time>2022-04-06T07:18:46Z</time>
      </trkpt>
      <trkpt lat="48.3325" lon="7.1928">
        <ele>521</ele>
        <time>2022-04-06T07:18:47Z</time>
      </trkpt>
      <trkpt lat="48.33258" lon="7.19282">
        <ele>520</ele>
        <time>2022-04-06T07:18:48Z</time>
      </trkpt>
      <trkpt lat="48.33268" lon="7.19296">
        <ele>517</ele>
        <time>2022-04-06T07:18:51Z</time>
      </trkpt>
      <trkpt lat="48.33271" lon="7.19307">
        <ele>515</ele>
        <time>2022-04-06T07:18:52Z</time>
      </trkpt>
      <trkpt lat="48.3327" lon="7.19325">
        <ele>512</ele>
        <time>2022-04-06T07:18:54Z</time>
      </trkpt>
      <trkpt lat="48.33255" lon="7.1943">
        <ele>501</ele>
        <time>2022-04-06T07:19:07Z</time>
      </trkpt>
      <trkpt lat="48.33254" lon="7.19444">
        <ele>500</ele>
        <time>2022-04-06T07:19:09Z</time>
      </trkpt>
      <trkpt lat="48.33256" lon="7.19462">
        <ele>500</ele>
        <time>2022-04-06T07:19:11Z</time>
      </trkpt>
      <trkpt lat="48.33268" lon="7.19513">
        <ele>502</ele>
        <time>2022-04-06T07:19:17Z</time>
      </trkpt>
      <trkpt lat="48.3327" lon="7.19532">
        <ele>504</ele>
        <time>2022-04-06T07:19:20Z</time>
      </trkpt>
      <trkpt lat="48.33268" lon="7.19562">
        <ele>505</ele>
        <time>2022-04-06T07:19:23Z</time>
      </trkpt>
      <trkpt lat="48.33262" lon="7.19577">
        <ele>503</ele>
        <time>2022-04-06T07:19:25Z</time>
      </trkpt>
      <trkpt lat="48.33252" lon="7.19597">
        <ele>500</ele>
        <time>2022-04-06T07:19:28Z</time>
      </trkpt>
      <trkpt lat="48.33231" lon="7.19624">
        <ele>499</ele>
        <time>2022-04-06T07:19:33Z</time>
      </trkpt>
      <trkpt lat="48.33196" lon="7.19675">
        <ele>494</ele>
        <time>2022-04-06T07:19:42Z</time>
      </trkpt>
      <trkpt lat="48.33168" lon="7.19738">
        <ele>489</ele>
        <time>2022-04-06T07:19:51Z</time>
      </trkpt>
      <trkpt lat="48.33154" lon="7.19775">
        <ele>491</ele>
        <time>2022-04-06T07:19:56Z</time>
      </trkpt>
      <trkpt lat="48.33141" lon="7.19801">
        <ele>492</ele>
        <time>2022-04-06T07:20:00Z</time>
      </trkpt>
      <trkpt lat="48.33124" lon="7.19826">
        <ele>489</ele>
        <time>2022-04-06T07:20:04Z</time>
      </trkpt>
      <trkpt lat="48.33082" lon="7.1987">
        <ele>480</ele>
        <time>2022-04-06T07:20:13Z</time>
      </trkpt>
      <trkpt lat="48.33069" lon="7.19891">
        <ele>481</ele>
        <time>2022-04-06T07:20:16Z</time>
      </trkpt>
      <trkpt lat="48.33064" lon="7.19908">
        <ele>481</ele>
        <time>2022-04-06T07:20:19Z</time>
      </trkpt>
      <trkpt lat="48.33063" lon="7.19929">
        <ele>481</ele>
        <time>2022-04-06T07:20:21Z</time>
      </trkpt>
      <trkpt lat="48.33069" lon="7.19984">
        <ele>481</ele>
        <time>2022-04-06T07:20:28Z</time>
      </trkpt>
      <trkpt lat="48.33068" lon="7.20014">
        <ele>481</ele>
        <time>2022-04-06T07:20:31Z</time>
      </trkpt>
      <trkpt lat="48.33057" lon="7.20139">
        <ele>480</ele>
        <time>2022-04-06T07:20:46Z</time>
      </trkpt>
      <trkpt lat="48.33056" lon="7.2018">
        <ele>479</ele>
        <time>2022-04-06T07:20:51Z</time>
      </trkpt>
      <trkpt lat="48.3306" lon="7.20251">
        <ele>474</ele>
        <time>2022-04-06T07:20:59Z</time>
      </trkpt>
      <trkpt lat="48.33069" lon="7.20353">
        <ele>463</ele>
        <time>2022-04-06T07:21:12Z</time>
      </trkpt>
      <trkpt lat="48.33069" lon="7.20399">
        <ele>458</ele>
        <time>2022-04-06T07:21:17Z</time>
      </trkpt>
      <trkpt lat="48.33066" lon="7.20455">
        <ele>456</ele>
        <time>2022-04-06T07:21:24Z</time>
      </trkpt>
      <trkpt lat="48.33056" lon="7.20504">
        <ele>455</ele>
        <time>2022-04-06T07:21:30Z</time>
      </trkpt>
      <trkpt lat="48.33041" lon="7.20542">
        <ele>455</ele>
        <time>2022-04-06T07:21:35Z</time>
      </trkpt>
      <trkpt lat="48.33017" lon="7.20573">
        <ele>450</ele>
        <time>2022-04-06T07:21:41Z</time>
      </trkpt>
      <trkpt lat="48.32967" lon="7.20613">
        <ele>450</ele>
        <time>2022-04-06T07:21:51Z</time>
      </trkpt>
      <trkpt lat="48.32858" lon="7.20687">
        <ele>438</ele>
        <time>2022-04-06T07:22:12Z</time>
      </trkpt>
      <trkpt lat="48.32825" lon="7.20706">
        <ele>437</ele>
        <time>2022-04-06T07:22:18Z</time>
      </trkpt>
      <trkpt lat="48.32754" lon="7.20725">
        <ele>432</ele>
        <time>2022-04-06T07:22:31Z</time>
      </trkpt>
      <trkpt lat="48.32703" lon="7.20729">
        <ele>433</ele>
        <time>2022-04-06T07:22:40Z</time>
      </trkpt>
      <trkpt lat="48.32687" lon="7.20728">
        <ele>434</ele>
        <time>2022-04-06T07:22:43Z</time>
      </trkpt>
      <trkpt lat="48.32679" lon="7.20729">
        <ele>434</ele>
        <time>2022-04-06T07:22:44Z</time>
      </trkpt>
      <trkpt lat="48.32665" lon="7.20737">
        <ele>433</ele>
        <time>2022-04-06T07:22:47Z</time>
      </trkpt>
      <trkpt lat="48.32647" lon="7.20755">
        <ele>432</ele>
        <time>2022-04-06T07:22:51Z</time>
      </trkpt>
      <trkpt lat="48.32636" lon="7.20775">
        <ele>433</ele>
        <time>2022-04-06T07:22:54Z</time>
      </trkpt>
      <trkpt lat="48.32623" lon="7.20806">
        <ele>431</ele>
        <time>2022-04-06T07:22:58Z</time>
      </trkpt>
      <trkpt lat="48.32613" lon="7.20838">
        <ele>429</ele>
        <time>2022-04-06T07:23:03Z</time>
      </trkpt>
      <trkpt lat="48.32595" lon="7.20953">
        <ele>420</ele>
        <time>2022-04-06T07:23:17Z</time>
      </trkpt>
      <trkpt lat="48.3259" lon="7.21012">
        <ele>415</ele>
        <time>2022-04-06T07:23:24Z</time>
      </trkpt>
      <trkpt lat="48.3259" lon="7.21083">
        <ele>412</ele>
        <time>2022-04-06T07:23:32Z</time>
      </trkpt>
      <trkpt lat="48.32592" lon="7.21132">
        <ele>412</ele>
        <time>2022-04-06T07:23:38Z</time>
      </trkpt>
      <trkpt lat="48.32606" lon="7.21244">
        <ele>411</ele>
        <time>2022-04-06T07:23:51Z</time>
      </trkpt>
      <trkpt lat="48.32611" lon="7.21311">
        <ele>410</ele>
        <time>2022-04-06T07:23:59Z</time>
      </trkpt>
      <trkpt lat="48.32617" lon="7.21328">
        <ele>410</ele>
        <time>2022-04-06T07:24:02Z</time>
      </trkpt>
      <trkpt lat="48.32663" lon="7.21406">
        <ele>405</ele>
        <time>2022-04-06T07:24:14Z</time>
      </trkpt>
      <trkpt lat="48.32676" lon="7.21434">
        <ele>407</ele>
        <time>2022-04-06T07:24:18Z</time>
      </trkpt>
      <trkpt lat="48.3268" lon="7.21456">
        <ele>408</ele>
        <time>2022-04-06T07:24:21Z</time>
      </trkpt>
      <trkpt lat="48.32691" lon="7.21631">
        <ele>402</ele>
        <time>2022-04-06T07:24:41Z</time>
      </trkpt>
      <trkpt lat="48.32696" lon="7.21677">
        <ele>402</ele>
        <time>2022-04-06T07:24:47Z</time>
      </trkpt>
      <trkpt lat="48.32713" lon="7.21755">
        <ele>407</ele>
        <time>2022-04-06T07:24:57Z</time>
      </trkpt>
      <trkpt lat="48.32718" lon="7.21794">
        <ele>409</ele>
        <time>2022-04-06T07:25:01Z</time>
      </trkpt>
      <trkpt lat="48.32721" lon="7.21856">
        <ele>410</ele>
        <time>2022-04-06T07:25:09Z</time>
      </trkpt>
      <trkpt lat="48.3272" lon="7.21936">
        <ele>408</ele>
        <time>2022-04-06T07:25:18Z</time>
      </trkpt>
      <trkpt lat="48.32705" lon="7.22107">
        <ele>403</ele>
        <time>2022-04-06T07:25:39Z</time>
      </trkpt>
      <trkpt lat="48.32703" lon="7.22219">
        <ele>404</ele>
        <time>2022-04-06T07:25:52Z</time>
      </trkpt>
      <trkpt lat="48.32701" lon="7.22243">
        <ele>403</ele>
        <time>2022-04-06T07:25:55Z</time>
      </trkpt>
      <trkpt lat="48.32698" lon="7.22262">
        <ele>401</ele>
        <time>2022-04-06T07:25:57Z</time>
      </trkpt>
      <trkpt lat="48.32691" lon="7.2228">
        <ele>398</ele>
        <time>2022-04-06T07:25:59Z</time>
      </trkpt>
      <trkpt lat="48.32606" lon="7.22398">
        <ele>388</ele>
        <time>2022-04-06T07:26:20Z</time>
      </trkpt>
      <trkpt lat="48.32583" lon="7.22441">
        <ele>385</ele>
        <time>2022-04-06T07:26:27Z</time>
      </trkpt>
      <trkpt lat="48.32495" lon="7.22642">
        <ele>382</ele>
        <time>2022-04-06T07:26:55Z</time>
      </trkpt>
      <trkpt lat="48.3245" lon="7.22705">
        <ele>384</ele>
        <time>2022-04-06T07:27:06Z</time>
      </trkpt>
      <trkpt lat="48.32429" lon="7.22744">
        <ele>382</ele>
        <time>2022-04-06T07:27:12Z</time>
      </trkpt>
      <trkpt lat="48.32409" lon="7.22794">
        <ele>383</ele>
        <time>2022-04-06T07:27:19Z</time>
      </trkpt>
      <trkpt lat="48.32398" lon="7.22847">
        <ele>386</ele>
        <time>2022-04-06T07:27:25Z</time>
      </trkpt>
      <trkpt lat="48.3239" lon="7.22911">
        <ele>389</ele>
        <time>2022-04-06T07:27:33Z</time>
      </trkpt>
      <trkpt lat="48.3239" lon="7.22976">
        <ele>390</ele>
        <time>2022-04-06T07:27:41Z</time>
      </trkpt>
      <trkpt lat="48.32384" lon="7.23">
        <ele>389</ele>
        <time>2022-04-06T07:27:44Z</time>
      </trkpt>
      <trkpt lat="48.32355" lon="7.2305">
        <ele>384</ele>
        <time>2022-04-06T07:27:52Z</time>
      </trkpt>
      <trkpt lat="48.32336" lon="7.23097">
        <ele>380</ele>
        <time>2022-04-06T07:27:58Z</time>
      </trkpt>
      <trkpt lat="48.32314" lon="7.23176">
        <ele>383</ele>
        <time>2022-04-06T07:28:08Z</time>
      </trkpt>
      <trkpt lat="48.32304" lon="7.23252">
        <ele>385</ele>
        <time>2022-04-06T07:28:17Z</time>
      </trkpt>
      <trkpt lat="48.32301" lon="7.23293">
        <ele>381</ele>
        <time>2022-04-06T07:28:22Z</time>
      </trkpt>
      <trkpt lat="48.32301" lon="7.23315">
        <ele>379</ele>
        <time>2022-04-06T07:28:25Z</time>
      </trkpt>
      <trkpt lat="48.32306" lon="7.23361">
        <ele>375</ele>
        <time>2022-04-06T07:28:30Z</time>
      </trkpt>
      <trkpt lat="48.32311" lon="7.23393">
        <ele>372</ele>
        <time>2022-04-06T07:28:34Z</time>
      </trkpt>
      <trkpt lat="48.32317" lon="7.23413">
        <ele>370</ele>
        <time>2022-04-06T07:28:37Z</time>
      </trkpt>
      <trkpt lat="48.324" lon="7.23541">
        <ele>371</ele>
        <time>2022-04-06T07:28:58Z</time>
      </trkpt>
      <trkpt lat="48.32417" lon="7.23579">
        <ele>369</ele>
        <time>2022-04-06T07:29:04Z</time>
      </trkpt>
      <trkpt lat="48.32424" lon="7.23605">
        <ele>370</ele>
        <time>2022-04-06T07:29:07Z</time>
      </trkpt>
      <trkpt lat="48.32455" lon="7.23764">
        <ele>371</ele>
        <time>2022-04-06T07:29:26Z</time>
      </trkpt>
      <trkpt lat="48.32473" lon="7.23872">
        <ele>370</ele>
        <time>2022-04-06T07:29:40Z</time>
      </trkpt>
      <trkpt lat="48.32483" lon="7.24021">
        <ele>360</ele>
        <time>2022-04-06T07:29:57Z</time>
      </trkpt>
      <trkpt lat="48.32501" lon="7.24135">
        <ele>355</ele>
        <time>2022-04-06T07:30:11Z</time>
      </trkpt>
      <trkpt lat="48.32505" lon="7.24182">
        <ele>355</ele>
        <time>2022-04-06T07:30:17Z</time>
      </trkpt>
      <trkpt lat="48.3251" lon="7.24409">
        <ele>352</ele>
        <time>2022-04-06T07:30:44Z</time>
      </trkpt>
      <trkpt lat="48.3251" lon="7.24471">
        <ele>353</ele>
        <time>2022-04-06T07:30:51Z</time>
      </trkpt>
      <trkpt lat="48.32499" lon="7.24661">
        <ele>352</ele>
        <time>2022-04-06T07:31:14Z</time>
      </trkpt>
      <trkpt lat="48.3249" lon="7.24703">
        <ele>355</ele>
        <time>2022-04-06T07:31:19Z</time>
      </trkpt>
      <trkpt lat="48.32448" lon="7.24851">
        <ele>351</ele>
        <time>2022-04-06T07:31:38Z</time>
      </trkpt>
      <trkpt lat="48.32443" lon="7.24893">
        <ele>351</ele>
        <time>2022-04-06T07:31:43Z</time>
      </trkpt>
      <trkpt lat="48.32434" lon="7.25006">
        <ele>348</ele>
        <time>2022-04-06T07:31:56Z</time>
      </trkpt>
      <trkpt lat="48.32433" lon="7.25023">
        <ele>347</ele>
        <time>2022-04-06T07:31:58Z</time>
      </trkpt>
      <trkpt lat="48.32424" lon="7.25128">
        <ele>342</ele>
        <time>2022-04-06T07:32:11Z</time>
      </trkpt>
      <trkpt lat="48.3242" lon="7.25151">
        <ele>340</ele>
        <time>2022-04-06T07:32:14Z</time>
      </trkpt>
      <trkpt lat="48.32412" lon="7.25176">
        <ele>339</ele>
        <time>2022-04-06T07:32:17Z</time>
      </trkpt>
      <trkpt lat="48.32387" lon="7.2524">
        <ele>340</ele>
        <time>2022-04-06T07:32:26Z</time>
      </trkpt>
      <trkpt lat="48.32376" lon="7.25273">
        <ele>341</ele>
        <time>2022-04-06T07:32:30Z</time>
      </trkpt>
      <trkpt lat="48.32357" lon="7.25335">
        <ele>343</ele>
        <time>2022-04-06T07:32:38Z</time>
      </trkpt>
      <trkpt lat="48.32347" lon="7.25385">
        <ele>347</ele>
        <time>2022-04-06T07:32:44Z</time>
      </trkpt>
      <trkpt lat="48.32347" lon="7.25425">
        <ele>349</ele>
        <time>2022-04-06T07:32:49Z</time>
      </trkpt>
      <trkpt lat="48.32353" lon="7.25454">
        <ele>348</ele>
        <time>2022-04-06T07:32:53Z</time>
      </trkpt>
      <trkpt lat="48.32386" lon="7.25562">
        <ele>338</ele>
        <time>2022-04-06T07:33:07Z</time>
      </trkpt>
      <trkpt lat="48.32459" lon="7.25838">
        <ele>323</ele>
        <time>2022-04-06T07:33:42Z</time>
      </trkpt>
      <trkpt lat="48.32475" lon="7.25885">
        <ele>323</ele>
        <time>2022-04-06T07:33:48Z</time>
      </trkpt>
      <trkpt lat="48.325" lon="7.25944">
        <ele>321</ele>
        <time>2022-04-06T07:33:56Z</time>
      </trkpt>
      <trkpt lat="48.32534" lon="7.26021">
        <ele>321</ele>
        <time>2022-04-06T07:34:07Z</time>
      </trkpt>
      <trkpt lat="48.32657" lon="7.26305">
        <ele>312</ele>
        <time>2022-04-06T07:34:47Z</time>
      </trkpt>
      <trkpt lat="48.32657" lon="7.26307">
        <ele>312</ele>
        <time>2022-04-06T07:34:48Z</time>
      </trkpt>
      <trkpt lat="48.32677" lon="7.26354">
        <ele>310</ele>
        <time>2022-04-06T07:34:54Z</time>
      </trkpt>
      <trkpt lat="48.32725" lon="7.26467">
        <ele>307</ele>
        <time>2022-04-06T07:35:10Z</time>
      </trkpt>
      <trkpt lat="48.32734" lon="7.2649">
        <ele>307</ele>
        <time>2022-04-06T07:35:13Z</time>
      </trkpt>
      <trkpt lat="48.32748" lon="7.26523">
        <ele>306</ele>
        <time>2022-04-06T07:35:18Z</time>
      </trkpt>
      <trkpt lat="48.32745" lon="7.26526">
        <ele>307</ele>
        <time>2022-04-06T07:35:19Z</time>
      </trkpt>
      <trkpt lat="48.3274" lon="7.26529">
        <ele>307</ele>
        <time>2022-04-06T07:35:20Z</time>
      </trkpt>
      <trkpt lat="48.327" lon="7.26533">
        <ele>310</ele>
        <time>2022-04-06T07:35:27Z</time>
      </trkpt>
      <trkpt lat="48.32695" lon="7.26533">
        <ele>311</ele>
        <time>2022-04-06T07:35:28Z</time>
      </trkpt>
      <trkpt lat="48.3269" lon="7.26531">
        <ele>311</ele>
        <time>2022-04-06T07:35:28Z</time>
      </trkpt>
      <trkpt lat="48.32682" lon="7.26527">
        <ele>311</ele>
        <time>2022-04-06T07:35:30Z</time>
      </trkpt>
      <trkpt lat="48.32658" lon="7.26504">
        <ele>313</ele>
        <time>2022-04-06T07:35:35Z</time>
      </trkpt>
      <trkpt lat="48.32621" lon="7.26475">
        <ele>320</ele>
        <time>2022-04-06T07:35:42Z</time>
      </trkpt>
      <trkpt lat="48.32605" lon="7.26458">
        <ele>323</ele>
        <time>2022-04-06T07:35:46Z</time>
      </trkpt>
      <trkpt lat="48.32559" lon="7.26383">
        <ele>328</ele>
        <time>2022-04-06T07:35:58Z</time>
      </trkpt>
      <trkpt lat="48.32545" lon="7.2635">
        <ele>328</ele>
        <time>2022-04-06T07:36:03Z</time>
      </trkpt>
      <trkpt lat="48.32542" lon="7.26341">
        <ele>328</ele>
        <time>2022-04-06T07:36:04Z</time>
      </trkpt>
      <trkpt lat="48.3254" lon="7.26333">
        <ele>328</ele>
        <time>2022-04-06T07:36:05Z</time>
      </trkpt>
      <trkpt lat="48.32527" lon="7.26233">
        <ele>327</ele>
        <time>2022-04-06T07:36:17Z</time>
      </trkpt>
      <trkpt lat="48.3251" lon="7.26159">
        <ele>324</ele>
        <time>2022-04-06T07:36:26Z</time>
      </trkpt>
      <trkpt lat="48.32499" lon="7.26065">
        <ele>325</ele>
        <time>2022-04-06T07:36:37Z</time>
      </trkpt>
      <trkpt lat="48.32496" lon="7.26047">
        <ele>325</ele>
        <time>2022-04-06T07:36:40Z</time>
      </trkpt>
      <trkpt lat="48.32491" lon="7.2602">
        <ele>325</ele>
        <time>2022-04-06T07:36:43Z</time>
      </trkpt>
      <trkpt lat="48.32478" lon="7.25973">
        <ele>326</ele>
        <time>2022-04-06T07:36:49Z</time>
      </trkpt>
      <trkpt lat="48.3247" lon="7.25959">
        <ele>327</ele>
        <time>2022-04-06T07:36:51Z</time>
      </trkpt>
      <trkpt lat="48.32461" lon="7.25947">
        <ele>328</ele>
        <time>2022-04-06T07:36:53Z</time>
      </trkpt>
      <trkpt lat="48.32452" lon="7.25938">
        <ele>328</ele>
        <time>2022-04-06T07:36:55Z</time>
      </trkpt>
      <trkpt lat="48.3244" lon="7.25931">
        <ele>330</ele>
        <time>2022-04-06T07:36:58Z</time>
      </trkpt>
      <trkpt lat="48.32422" lon="7.25918">
        <ele>331</ele>
        <time>2022-04-06T07:37:01Z</time>
      </trkpt>
      <trkpt lat="48.3236" lon="7.25864">
        <ele>336</ele>
        <time>2022-04-06T07:37:14Z</time>
      </trkpt>
      <trkpt lat="48.32328" lon="7.25847">
        <ele>337</ele>
        <time>2022-04-06T07:37:20Z</time>
      </trkpt>
      <trkpt lat="48.32267" lon="7.25821">
        <ele>347</ele>
        <time>2022-04-06T07:37:31Z</time>
      </trkpt>
      <trkpt lat="48.32248" lon="7.25813">
        <ele>349</ele>
        <time>2022-04-06T07:37:35Z</time>
      </trkpt>
      <trkpt lat="48.32235" lon="7.25809">
        <ele>350</ele>
        <time>2022-04-06T07:37:37Z</time>
      </trkpt>
      <trkpt lat="48.32154" lon="7.25798">
        <ele>356</ele>
        <time>2022-04-06T07:37:52Z</time>
      </trkpt>
      <trkpt lat="48.32142" lon="7.25798">
        <ele>357</ele>
        <time>2022-04-06T07:37:54Z</time>
      </trkpt>
      <trkpt lat="48.32136" lon="7.25798">
        <ele>357</ele>
        <time>2022-04-06T07:37:55Z</time>
      </trkpt>
      <trkpt lat="48.32084" lon="7.2581">
        <ele>362</ele>
        <time>2022-04-06T07:38:04Z</time>
      </trkpt>
      <trkpt lat="48.31997" lon="7.2582">
        <ele>361</ele>
        <time>2022-04-06T07:38:20Z</time>
      </trkpt>
      <trkpt lat="48.31968" lon="7.25829">
        <ele>361</ele>
        <time>2022-04-06T07:38:25Z</time>
      </trkpt>
      <trkpt lat="48.31963" lon="7.25831">
        <ele>361</ele>
        <time>2022-04-06T07:38:26Z</time>
      </trkpt>
      <trkpt lat="48.31915" lon="7.25852">
        <ele>362</ele>
        <time>2022-04-06T07:38:35Z</time>
      </trkpt>
      <trkpt lat="48.31911" lon="7.25853">
        <ele>362</ele>
        <time>2022-04-06T07:38:35Z</time>
      </trkpt>
      <trkpt lat="48.31901" lon="7.25856">
        <ele>363</ele>
        <time>2022-04-06T07:38:37Z</time>
      </trkpt>
      <trkpt lat="48.31868" lon="7.25864">
        <ele>365</ele>
        <time>2022-04-06T07:38:43Z</time>
      </trkpt>
      <trkpt lat="48.31837" lon="7.25884">
        <ele>366</ele>
        <time>2022-04-06T07:38:49Z</time>
      </trkpt>
      <trkpt lat="48.31798" lon="7.25901">
        <ele>369</ele>
        <time>2022-04-06T07:38:56Z</time>
      </trkpt>
      <trkpt lat="48.31779" lon="7.25909">
        <ele>369</ele>
        <time>2022-04-06T07:39:00Z</time>
      </trkpt>
      <trkpt lat="48.31776" lon="7.25911">
        <ele>369</ele>
        <time>2022-04-06T07:39:00Z</time>
      </trkpt>
      <trkpt lat="48.31651" lon="7.25955">
        <ele>382</ele>
        <time>2022-04-06T07:39:23Z</time>
      </trkpt>
      <trkpt lat="48.31616" lon="7.25977">
        <ele>384</ele>
        <time>2022-04-06T07:39:30Z</time>
      </trkpt>
      <trkpt lat="48.31582" lon="7.2601">
        <ele>384</ele>
        <time>2022-04-06T07:39:37Z</time>
      </trkpt>
      <trkpt lat="48.31561" lon="7.26034">
        <ele>388</ele>
        <time>2022-04-06T07:39:42Z</time>
      </trkpt>
      <trkpt lat="48.3154" lon="7.26058">
        <ele>387</ele>
        <time>2022-04-06T07:39:47Z</time>
      </trkpt>
      <trkpt lat="48.3153" lon="7.26068">
        <ele>386</ele>
        <time>2022-04-06T07:39:49Z</time>
      </trkpt>
      <trkpt lat="48.31518" lon="7.26081">
        <ele>384</ele>
        <time>2022-04-06T07:39:51Z</time>
      </trkpt>
      <trkpt lat="48.31513" lon="7.26083">
        <ele>383</ele>
        <time>2022-04-06T07:39:52Z</time>
      </trkpt>
      <trkpt lat="48.31481" lon="7.26072">
        <ele>385</ele>
        <time>2022-04-06T07:39:58Z</time>
      </trkpt>
      <trkpt lat="48.31465" lon="7.26062">
        <ele>388</ele>
        <time>2022-04-06T07:40:01Z</time>
      </trkpt>
      <trkpt lat="48.31436" lon="7.26017">
        <ele>393</ele>
        <time>2022-04-06T07:40:09Z</time>
      </trkpt>
      <trkpt lat="48.31422" lon="7.25994">
        <ele>395</ele>
        <time>2022-04-06T07:40:12Z</time>
      </trkpt>
      <trkpt lat="48.31417" lon="7.25992">
        <ele>395</ele>
        <time>2022-04-06T07:40:13Z</time>
      </trkpt>
      <trkpt lat="48.31413" lon="7.25993">
        <ele>396</ele>
        <time>2022-04-06T07:40:14Z</time>
      </trkpt>
      <trkpt lat="48.31408" lon="7.25993">
        <ele>397</ele>
        <time>2022-04-06T07:40:15Z</time>
      </trkpt>
      <trkpt lat="48.31402" lon="7.25997">
        <ele>398</ele>
        <time>2022-04-06T07:40:16Z</time>
      </trkpt>
      <trkpt lat="48.31397" lon="7.26006">
        <ele>399</ele>
        <time>2022-04-06T07:40:17Z</time>
      </trkpt>
      <trkpt lat="48.31395" lon="7.26016">
        <ele>400</ele>
        <time>2022-04-06T07:40:19Z</time>
      </trkpt>
      <trkpt lat="48.31395" lon="7.26027">
        <ele>401</ele>
        <time>2022-04-06T07:40:20Z</time>
      </trkpt>
      <trkpt lat="48.314" lon="7.26037">
        <ele>399</ele>
        <time>2022-04-06T07:40:21Z</time>
      </trkpt>
      <trkpt lat="48.31429" lon="7.2607">
        <ele>391</ele>
        <time>2022-04-06T07:40:28Z</time>
      </trkpt>
      <trkpt lat="48.31435" lon="7.26079">
        <ele>390</ele>
        <time>2022-04-06T07:40:29Z</time>
      </trkpt>
      <trkpt lat="48.31437" lon="7.26092">
        <ele>390</ele>
        <time>2022-04-06T07:40:31Z</time>
      </trkpt>
      <trkpt lat="48.31437" lon="7.26104">
        <ele>390</ele>
        <time>2022-04-06T07:40:32Z</time>
      </trkpt>
      <trkpt lat="48.31433" lon="7.26118">
        <ele>392</ele>
        <time>2022-04-06T07:40:34Z</time>
      </trkpt>
      <trkpt lat="48.31387" lon="7.26215">
        <ele>408</ele>
        <time>2022-04-06T07:40:48Z</time>
      </trkpt>
      <trkpt lat="48.31358" lon="7.26261">
        <ele>415</ele>
        <time>2022-04-06T07:40:56Z</time>
      </trkpt>
      <trkpt lat="48.31345" lon="7.2628">
        <ele>416</ele>
        <time>2022-04-06T07:40:59Z</time>
      </trkpt>
      <trkpt lat="48.31286" lon="7.26347">
        <ele>415</ele>
        <time>2022-04-06T07:41:12Z</time>
      </trkpt>
      <trkpt lat="48.31277" lon="7.26364">
        <ele>416</ele>
        <time>2022-04-06T07:41:15Z</time>
      </trkpt>
      <trkpt lat="48.31251" lon="7.26425">
        <ele>414</ele>
        <time>2022-04-06T07:41:23Z</time>
      </trkpt>
      <trkpt lat="48.31238" lon="7.26466">
        <ele>417</ele>
        <time>2022-04-06T07:41:29Z</time>
      </trkpt>
      <trkpt lat="48.31238" lon="7.26475">
        <ele>416</ele>
        <time>2022-04-06T07:41:30Z</time>
      </trkpt>
      <trkpt lat="48.31242" lon="7.26484">
        <ele>415</ele>
        <time>2022-04-06T07:41:31Z</time>
      </trkpt>
      <trkpt lat="48.31246" lon="7.26489">
        <ele>415</ele>
        <time>2022-04-06T07:41:32Z</time>
      </trkpt>
      <trkpt lat="48.31254" lon="7.26493">
        <ele>414</ele>
        <time>2022-04-06T07:41:34Z</time>
      </trkpt>
      <trkpt lat="48.3126" lon="7.26493">
        <ele>414</ele>
        <time>2022-04-06T07:41:35Z</time>
      </trkpt>
      <trkpt lat="48.31276" lon="7.26484">
        <ele>413</ele>
        <time>2022-04-06T07:41:38Z</time>
      </trkpt>
      <trkpt lat="48.31284" lon="7.26485">
        <ele>413</ele>
        <time>2022-04-06T07:41:39Z</time>
      </trkpt>
      <trkpt lat="48.31292" lon="7.26491">
        <ele>413</ele>
        <time>2022-04-06T07:41:41Z</time>
      </trkpt>
      <trkpt lat="48.31296" lon="7.26495">
        <ele>413</ele>
        <time>2022-04-06T07:41:42Z</time>
      </trkpt>
      <trkpt lat="48.31298" lon="7.26498">
        <ele>413</ele>
        <time>2022-04-06T07:41:42Z</time>
      </trkpt>
      <trkpt lat="48.31304" lon="7.26512">
        <ele>415</ele>
        <time>2022-04-06T07:41:44Z</time>
      </trkpt>
      <trkpt lat="48.31318" lon="7.26552">
        <ele>420</ele>
        <time>2022-04-06T07:41:49Z</time>
      </trkpt>
      <trkpt lat="48.31331" lon="7.2658">
        <ele>424</ele>
        <time>2022-04-06T07:41:53Z</time>
      </trkpt>
      <trkpt lat="48.31343" lon="7.26599">
        <ele>427</ele>
        <time>2022-04-06T07:41:56Z</time>
      </trkpt>
      <trkpt lat="48.31369" lon="7.2664">
        <ele>434</ele>
        <time>2022-04-06T07:42:03Z</time>
      </trkpt>
      <trkpt lat="48.31383" lon="7.26671">
        <ele>438</ele>
        <time>2022-04-06T07:42:08Z</time>
      </trkpt>
      <trkpt lat="48.31399" lon="7.26688">
        <ele>442</ele>
        <time>2022-04-06T07:42:11Z</time>
      </trkpt>
      <trkpt lat="48.31431" lon="7.26702">
        <ele>448</ele>
        <time>2022-04-06T07:42:17Z</time>
      </trkpt>
      <trkpt lat="48.31438" lon="7.26708">
        <ele>451</ele>
        <time>2022-04-06T07:42:18Z</time>
      </trkpt>
      <trkpt lat="48.31443" lon="7.26715">
        <ele>454</ele>
        <time>2022-04-06T07:42:20Z</time>
      </trkpt>
      <trkpt lat="48.31445" lon="7.26726">
        <ele>456</ele>
        <time>2022-04-06T07:42:21Z</time>
      </trkpt>
      <trkpt lat="48.31444" lon="7.26734">
        <ele>457</ele>
        <time>2022-04-06T07:42:22Z</time>
      </trkpt>
      <trkpt lat="48.31442" lon="7.26742">
        <ele>459</ele>
        <time>2022-04-06T07:42:23Z</time>
      </trkpt>
      <trkpt lat="48.31437" lon="7.26748">
        <ele>459</ele>
        <time>2022-04-06T07:42:24Z</time>
      </trkpt>
      <trkpt lat="48.31432" lon="7.26752">
        <ele>460</ele>
        <time>2022-04-06T07:42:25Z</time>
      </trkpt>
      <trkpt lat="48.31425" lon="7.26751">
        <ele>459</ele>
        <time>2022-04-06T07:42:26Z</time>
      </trkpt>
      <trkpt lat="48.31415" lon="7.26744">
        <ele>456</ele>
        <time>2022-04-06T07:42:28Z</time>
      </trkpt>
      <trkpt lat="48.31379" lon="7.2672">
        <ele>452</ele>
        <time>2022-04-06T07:42:35Z</time>
      </trkpt>
      <trkpt lat="48.31327" lon="7.26686">
        <ele>445</ele>
        <time>2022-04-06T07:42:45Z</time>
      </trkpt>
      <trkpt lat="48.31318" lon="7.26687">
        <ele>446</ele>
        <time>2022-04-06T07:42:47Z</time>
      </trkpt>
      <trkpt lat="48.31306" lon="7.26693">
        <ele>447</ele>
        <time>2022-04-06T07:42:49Z</time>
      </trkpt>
      <trkpt lat="48.31294" lon="7.26705">
        <ele>450</ele>
        <time>2022-04-06T07:42:52Z</time>
      </trkpt>
      <trkpt lat="48.3128" lon="7.26747">
        <ele>459</ele>
        <time>2022-04-06T07:42:57Z</time>
      </trkpt>
      <trkpt lat="48.31265" lon="7.2679">
        <ele>466</ele>
        <time>2022-04-06T07:43:03Z</time>
      </trkpt>
      <trkpt lat="48.31258" lon="7.26806">
        <ele>468</ele>
        <time>2022-04-06T07:43:05Z</time>
      </trkpt>
      <trkpt lat="48.31249" lon="7.26811">
        <ele>468</ele>
        <time>2022-04-06T07:43:07Z</time>
      </trkpt>
      <trkpt lat="48.31244" lon="7.26811">
        <ele>469</ele>
        <time>2022-04-06T07:43:08Z</time>
      </trkpt>
      <trkpt lat="48.31236" lon="7.26806">
        <ele>469</ele>
        <time>2022-04-06T07:43:10Z</time>
      </trkpt>
      <trkpt lat="48.31232" lon="7.268">
        <ele>469</ele>
        <time>2022-04-06T07:43:11Z</time>
      </trkpt>
      <trkpt lat="48.31228" lon="7.26792">
        <ele>468</ele>
        <time>2022-04-06T07:43:12Z</time>
      </trkpt>
      <trkpt lat="48.31224" lon="7.26725">
        <ele>458</ele>
        <time>2022-04-06T07:43:20Z</time>
      </trkpt>
      <trkpt lat="48.31222" lon="7.26718">
        <ele>457</ele>
        <time>2022-04-06T07:43:21Z</time>
      </trkpt>
      <trkpt lat="48.31218" lon="7.26711">
        <ele>456</ele>
        <time>2022-04-06T07:43:22Z</time>
      </trkpt>
      <trkpt lat="48.31213" lon="7.26706">
        <ele>456</ele>
        <time>2022-04-06T07:43:23Z</time>
      </trkpt>
      <trkpt lat="48.31177" lon="7.26695">
        <ele>460</ele>
        <time>2022-04-06T07:43:29Z</time>
      </trkpt>
      <trkpt lat="48.31122" lon="7.26696">
        <ele>464</ele>
        <time>2022-04-06T07:43:39Z</time>
      </trkpt>
      <trkpt lat="48.31025" lon="7.26732">
        <ele>475</ele>
        <time>2022-04-06T07:43:57Z</time>
      </trkpt>
      <trkpt lat="48.31011" lon="7.26732">
        <ele>475</ele>
        <time>2022-04-06T07:43:59Z</time>
      </trkpt>
      <trkpt lat="48.30992" lon="7.26732">
        <ele>478</ele>
        <time>2022-04-06T07:44:03Z</time>
      </trkpt>
      <trkpt lat="48.30977" lon="7.26731">
        <ele>483</ele>
        <time>2022-04-06T07:44:05Z</time>
      </trkpt>
      <trkpt lat="48.30958" lon="7.26728">
        <ele>489</ele>
        <time>2022-04-06T07:44:09Z</time>
      </trkpt>
      <trkpt lat="48.30947" lon="7.2673">
        <ele>493</ele>
        <time>2022-04-06T07:44:11Z</time>
      </trkpt>
      <trkpt lat="48.30941" lon="7.26738">
        <ele>496</ele>
        <time>2022-04-06T07:44:12Z</time>
      </trkpt>
      <trkpt lat="48.30937" lon="7.26752">
        <ele>500</ele>
        <time>2022-04-06T07:44:14Z</time>
      </trkpt>
      <trkpt lat="48.3094" lon="7.26771">
        <ele>502</ele>
        <time>2022-04-06T07:44:16Z</time>
      </trkpt>
      <trkpt lat="48.30943" lon="7.26776">
        <ele>502</ele>
        <time>2022-04-06T07:44:17Z</time>
      </trkpt>
      <trkpt lat="48.30953" lon="7.26782">
        <ele>500</ele>
        <time>2022-04-06T07:44:19Z</time>
      </trkpt>
      <trkpt lat="48.30956" lon="7.26783">
        <ele>500</ele>
        <time>2022-04-06T07:44:20Z</time>
      </trkpt>
      <trkpt lat="48.30985" lon="7.26785">
        <ele>493</ele>
        <time>2022-04-06T07:44:25Z</time>
      </trkpt>
      <trkpt lat="48.31068" lon="7.26795">
        <ele>489</ele>
        <time>2022-04-06T07:44:40Z</time>
      </trkpt>
      <trkpt lat="48.31116" lon="7.26806">
        <ele>486</ele>
        <time>2022-04-06T07:44:48Z</time>
      </trkpt>
      <trkpt lat="48.31124" lon="7.26811">
        <ele>486</ele>
        <time>2022-04-06T07:44:50Z</time>
      </trkpt>
      <trkpt lat="48.31134" lon="7.26827">
        <ele>487</ele>
        <time>2022-04-06T07:44:52Z</time>
      </trkpt>
      <trkpt lat="48.31137" lon="7.26895">
        <ele>498</ele>
        <time>2022-04-06T07:45:00Z</time>
      </trkpt>
      <trkpt lat="48.3114" lon="7.2693">
        <ele>503</ele>
        <time>2022-04-06T07:45:05Z</time>
      </trkpt>
      <trkpt lat="48.31165" lon="7.27023">
        <ele>511</ele>
        <time>2022-04-06T07:45:16Z</time>
      </trkpt>
      <trkpt lat="48.31174" lon="7.27052">
        <ele>515</ele>
        <time>2022-04-06T07:45:20Z</time>
      </trkpt>
      <trkpt lat="48.31189" lon="7.27083">
        <ele>522</ele>
        <time>2022-04-06T07:45:25Z</time>
      </trkpt>
      <trkpt lat="48.312" lon="7.27096">
        <ele>527</ele>
        <time>2022-04-06T07:45:27Z</time>
      </trkpt>
      <trkpt lat="48.31202" lon="7.2711">
        <ele>531</ele>
        <time>2022-04-06T07:45:29Z</time>
      </trkpt>
      <trkpt lat="48.31199" lon="7.27119">
        <ele>533</ele>
        <time>2022-04-06T07:45:30Z</time>
      </trkpt>
      <trkpt lat="48.31192" lon="7.2713">
        <ele>535</ele>
        <time>2022-04-06T07:45:32Z</time>
      </trkpt>
      <trkpt lat="48.31182" lon="7.27131">
        <ele>534</ele>
        <time>2022-04-06T07:45:34Z</time>
      </trkpt>
      <trkpt lat="48.31176" lon="7.27124">
        <ele>531</ele>
        <time>2022-04-06T07:45:35Z</time>
      </trkpt>
      <trkpt lat="48.31172" lon="7.2711">
        <ele>527</ele>
        <time>2022-04-06T07:45:37Z</time>
      </trkpt>
      <trkpt lat="48.3116" lon="7.2708">
        <ele>521</ele>
        <time>2022-04-06T07:45:41Z</time>
      </trkpt>
      <trkpt lat="48.31145" lon="7.27047">
        <ele>520</ele>
        <time>2022-04-06T07:45:46Z</time>
      </trkpt>
      <trkpt lat="48.31094" lon="7.27003">
        <ele>526</ele>
        <time>2022-04-06T07:45:56Z</time>
      </trkpt>
      <trkpt lat="48.31055" lon="7.26953">
        <ele>527</ele>
        <time>2022-04-06T07:46:05Z</time>
      </trkpt>
      <trkpt lat="48.31019" lon="7.26942">
        <ele>533</ele>
        <time>2022-04-06T07:46:12Z</time>
      </trkpt>
      <trkpt lat="48.30993" lon="7.26927">
        <ele>534</ele>
        <time>2022-04-06T07:46:17Z</time>
      </trkpt>
      <trkpt lat="48.30967" lon="7.26924">
        <ele>536</ele>
        <time>2022-04-06T07:46:22Z</time>
      </trkpt>
      <trkpt lat="48.30884" lon="7.26936">
        <ele>545</ele>
        <time>2022-04-06T07:46:36Z</time>
      </trkpt>
      <trkpt lat="48.30848" lon="7.26939">
        <ele>548</ele>
        <time>2022-04-06T07:46:43Z</time>
      </trkpt>
      <trkpt lat="48.30828" lon="7.26931">
        <ele>547</ele>
        <time>2022-04-06T07:46:46Z</time>
      </trkpt>
      <trkpt lat="48.30825" lon="7.26929">
        <ele>547</ele>
        <time>2022-04-06T07:46:47Z</time>
      </trkpt>
      <trkpt lat="48.30812" lon="7.2692">
        <ele>547</ele>
        <time>2022-04-06T07:46:50Z</time>
      </trkpt>
      <trkpt lat="48.30784" lon="7.26894">
        <ele>551</ele>
        <time>2022-04-06T07:46:55Z</time>
      </trkpt>
      <trkpt lat="48.30776" lon="7.26879">
        <ele>552</ele>
        <time>2022-04-06T07:46:58Z</time>
      </trkpt>
      <trkpt lat="48.30775" lon="7.26873">
        <ele>552</ele>
        <time>2022-04-06T07:46:58Z</time>
      </trkpt>
      <trkpt lat="48.30774" lon="7.2687">
        <ele>553</ele>
        <time>2022-04-06T07:46:59Z</time>
      </trkpt>
      <trkpt lat="48.30774" lon="7.2686">
        <ele>553</ele>
        <time>2022-04-06T07:47:00Z</time>
      </trkpt>
      <trkpt lat="48.30777" lon="7.26849">
        <ele>552</ele>
        <time>2022-04-06T07:47:01Z</time>
      </trkpt>
      <trkpt lat="48.30781" lon="7.26836">
        <ele>550</ele>
        <time>2022-04-06T07:47:03Z</time>
      </trkpt>
      <trkpt lat="48.30796" lon="7.26807">
        <ele>546</ele>
        <time>2022-04-06T07:47:07Z</time>
      </trkpt>
      <trkpt lat="48.308" lon="7.26797">
        <ele>545</ele>
        <time>2022-04-06T07:47:09Z</time>
      </trkpt>
      <trkpt lat="48.30799" lon="7.26782">
        <ele>545</ele>
        <time>2022-04-06T07:47:11Z</time>
      </trkpt>
      <trkpt lat="48.30794" lon="7.26772">
        <ele>546</ele>
        <time>2022-04-06T07:47:12Z</time>
      </trkpt>
      <trkpt lat="48.30781" lon="7.26763">
        <ele>549</ele>
        <time>2022-04-06T07:47:15Z</time>
      </trkpt>
      <trkpt lat="48.30753" lon="7.26737">
        <ele>555</ele>
        <time>2022-04-06T07:47:21Z</time>
      </trkpt>
      <trkpt lat="48.30732" lon="7.26707">
        <ele>563</ele>
        <time>2022-04-06T07:47:26Z</time>
      </trkpt>
      <trkpt lat="48.3072" lon="7.26679">
        <ele>567</ele>
        <time>2022-04-06T07:47:30Z</time>
      </trkpt>
      <trkpt lat="48.30717" lon="7.26666">
        <ele>568</ele>
        <time>2022-04-06T07:47:31Z</time>
      </trkpt>
      <trkpt lat="48.30718" lon="7.26651">
        <ele>567</ele>
        <time>2022-04-06T07:47:33Z</time>
      </trkpt>
      <trkpt lat="48.30735" lon="7.2662">
        <ele>560</ele>
        <time>2022-04-06T07:47:38Z</time>
      </trkpt>
      <trkpt lat="48.30733" lon="7.266">
        <ele>560</ele>
        <time>2022-04-06T07:47:40Z</time>
      </trkpt>
      <trkpt lat="48.30721" lon="7.26589">
        <ele>565</ele>
        <time>2022-04-06T07:47:43Z</time>
      </trkpt>
      <trkpt lat="48.30691" lon="7.2657">
        <ele>577</ele>
        <time>2022-04-06T07:47:48Z</time>
      </trkpt>
      <trkpt lat="48.30685" lon="7.26561">
        <ele>579</ele>
        <time>2022-04-06T07:47:50Z</time>
      </trkpt>
      <trkpt lat="48.30682" lon="7.26547">
        <ele>579</ele>
        <time>2022-04-06T07:47:52Z</time>
      </trkpt>
      <trkpt lat="48.30683" lon="7.26522">
        <ele>577</ele>
        <time>2022-04-06T07:47:55Z</time>
      </trkpt>
      <trkpt lat="48.30679" lon="7.26496">
        <ele>578</ele>
        <time>2022-04-06T07:47:58Z</time>
      </trkpt>
      <trkpt lat="48.3067" lon="7.26463">
        <ele>579</ele>
        <time>2022-04-06T07:48:02Z</time>
      </trkpt>
      <trkpt lat="48.30656" lon="7.26423">
        <ele>581</ele>
        <time>2022-04-06T07:48:07Z</time>
      </trkpt>
      <trkpt lat="48.30641" lon="7.26388">
        <ele>582</ele>
        <time>2022-04-06T07:48:12Z</time>
      </trkpt>
      <trkpt lat="48.3062" lon="7.26353">
        <ele>585</ele>
        <time>2022-04-06T07:48:18Z</time>
      </trkpt>
      <trkpt lat="48.30596" lon="7.2632">
        <ele>591</ele>
        <time>2022-04-06T07:48:24Z</time>
      </trkpt>
      <trkpt lat="48.30562" lon="7.26287">
        <ele>598</ele>
        <time>2022-04-06T07:48:31Z</time>
      </trkpt>
      <trkpt lat="48.30555" lon="7.26273">
        <ele>597</ele>
        <time>2022-04-06T07:48:33Z</time>
      </trkpt>
      <trkpt lat="48.30545" lon="7.2623">
        <ele>594</ele>
        <time>2022-04-06T07:48:38Z</time>
      </trkpt>
      <trkpt lat="48.30503" lon="7.2613">
        <ele>604</ele>
        <time>2022-04-06T07:48:52Z</time>
      </trkpt>
      <trkpt lat="48.30491" lon="7.26066">
        <ele>609</ele>
        <time>2022-04-06T07:49:00Z</time>
      </trkpt>
      <trkpt lat="48.30481" lon="7.26042">
        <ele>610</ele>
        <time>2022-04-06T07:49:04Z</time>
      </trkpt>
      <trkpt lat="48.30469" lon="7.26022">
        <ele>611</ele>
        <time>2022-04-06T07:49:07Z</time>
      </trkpt>
      <trkpt lat="48.30465" lon="7.26018">
        <ele>610</ele>
        <time>2022-04-06T07:49:08Z</time>
      </trkpt>
      <trkpt lat="48.3046" lon="7.26013">
        <ele>610</ele>
        <time>2022-04-06T07:49:09Z</time>
      </trkpt>
      <trkpt lat="48.30451" lon="7.2601">
        <ele>609</ele>
        <time>2022-04-06T07:49:10Z</time>
      </trkpt>
      <trkpt lat="48.30442" lon="7.26009">
        <ele>608</ele>
        <time>2022-04-06T07:49:12Z</time>
      </trkpt>
      <trkpt lat="48.30396" lon="7.26009">
        <ele>603</ele>
        <time>2022-04-06T07:49:20Z</time>
      </trkpt>
      <trkpt lat="48.30379" lon="7.26013">
        <ele>602</ele>
        <time>2022-04-06T07:49:23Z</time>
      </trkpt>
      <trkpt lat="48.30372" lon="7.2602">
        <ele>602</ele>
        <time>2022-04-06T07:49:25Z</time>
      </trkpt>
      <trkpt lat="48.30366" lon="7.26029">
        <ele>603</ele>
        <time>2022-04-06T07:49:26Z</time>
      </trkpt>
      <trkpt lat="48.30339" lon="7.26064">
        <ele>605</ele>
        <time>2022-04-06T07:49:33Z</time>
      </trkpt>
      <trkpt lat="48.30319" lon="7.26065">
        <ele>607</ele>
        <time>2022-04-06T07:49:36Z</time>
      </trkpt>
      <trkpt lat="48.30304" lon="7.26046">
        <ele>607</ele>
        <time>2022-04-06T07:49:40Z</time>
      </trkpt>
      <trkpt lat="48.30282" lon="7.25963">
        <ele>596</ele>
        <time>2022-04-06T07:49:50Z</time>
      </trkpt>
      <trkpt lat="48.30248" lon="7.25894">
        <ele>587</ele>
        <time>2022-04-06T07:50:00Z</time>
      </trkpt>
      <trkpt lat="48.30219" lon="7.25868">
        <ele>581</ele>
        <time>2022-04-06T07:50:06Z</time>
      </trkpt>
      <trkpt lat="48.3018" lon="7.25847">
        <ele>578</ele>
        <time>2022-04-06T07:50:14Z</time>
      </trkpt>
      <trkpt lat="48.30132" lon="7.25845">
        <ele>583</ele>
        <time>2022-04-06T07:50:22Z</time>
      </trkpt>
      <trkpt lat="48.30109" lon="7.25832">
        <ele>583</ele>
        <time>2022-04-06T07:50:27Z</time>
      </trkpt>
      <trkpt lat="48.30073" lon="7.25763">
        <ele>566</ele>
        <time>2022-04-06T07:50:37Z</time>
      </trkpt>
      <trkpt lat="48.30054" lon="7.25748">
        <ele>564</ele>
        <time>2022-04-06T07:50:41Z</time>
      </trkpt>
      <trkpt lat="48.30004" lon="7.25748">
        <ele>571</ele>
        <time>2022-04-06T07:50:50Z</time>
      </trkpt>
      <trkpt lat="48.29985" lon="7.25731">
        <ele>567</ele>
        <time>2022-04-06T07:50:54Z</time>
      </trkpt>
      <trkpt lat="48.29966" lon="7.25681">
        <ele>557</ele>
        <time>2022-04-06T07:51:00Z</time>
      </trkpt>
      <trkpt lat="48.29951" lon="7.25654">
        <ele>552</ele>
        <time>2022-04-06T07:51:05Z</time>
      </trkpt>
      <trkpt lat="48.29922" lon="7.2563">
        <ele>552</ele>
        <time>2022-04-06T07:51:11Z</time>
      </trkpt>
      <trkpt lat="48.2985" lon="7.25588">
        <ele>542</ele>
        <time>2022-04-06T07:51:24Z</time>
      </trkpt>
      <trkpt lat="48.29839" lon="7.25587">
        <ele>542</ele>
        <time>2022-04-06T07:51:26Z</time>
      </trkpt>
      <trkpt lat="48.2983" lon="7.2559">
        <ele>542</ele>
        <time>2022-04-06T07:51:28Z</time>
      </trkpt>
      <trkpt lat="48.29791" lon="7.25657">
        <ele>548</ele>
        <time>2022-04-06T07:51:38Z</time>
      </trkpt>
      <trkpt lat="48.29785" lon="7.25664">
        <ele>549</ele>
        <time>2022-04-06T07:51:40Z</time>
      </trkpt>
      <trkpt lat="48.29778" lon="7.25668">
        <ele>549</ele>
        <time>2022-04-06T07:51:41Z</time>
      </trkpt>
      <trkpt lat="48.29772" lon="7.25668">
        <ele>549</ele>
        <time>2022-04-06T07:51:42Z</time>
      </trkpt>
      <trkpt lat="48.29715" lon="7.25643">
        <ele>542</ele>
        <time>2022-04-06T07:51:53Z</time>
      </trkpt>
      <trkpt lat="48.29696" lon="7.25642">
        <ele>541</ele>
        <time>2022-04-06T07:51:56Z</time>
      </trkpt>
      <trkpt lat="48.29658" lon="7.25653">
        <ele>541</ele>
        <time>2022-04-06T07:52:03Z</time>
      </trkpt>
      <trkpt lat="48.29605" lon="7.25685">
        <ele>532</ele>
        <time>2022-04-06T07:52:13Z</time>
      </trkpt>
      <trkpt lat="48.29581" lon="7.25716">
        <ele>529</ele>
        <time>2022-04-06T07:52:19Z</time>
      </trkpt>
      <trkpt lat="48.29563" lon="7.25762">
        <ele>526</ele>
        <time>2022-04-06T07:52:25Z</time>
      </trkpt>
      <trkpt lat="48.29559" lon="7.25791">
        <ele>524</ele>
        <time>2022-04-06T07:52:29Z</time>
      </trkpt>
      <trkpt lat="48.29557" lon="7.25825">
        <ele>523</ele>
        <time>2022-04-06T07:52:33Z</time>
      </trkpt>
      <trkpt lat="48.29559" lon="7.25849">
        <ele>523</ele>
        <time>2022-04-06T07:52:35Z</time>
      </trkpt>
      <trkpt lat="48.29566" lon="7.25873">
        <ele>523</ele>
        <time>2022-04-06T07:52:39Z</time>
      </trkpt>
      <trkpt lat="48.29608" lon="7.25964">
        <ele>525</ele>
        <time>2022-04-06T07:52:52Z</time>
      </trkpt>
      <trkpt lat="48.2961" lon="7.25977">
        <ele>524</ele>
        <time>2022-04-06T07:52:53Z</time>
      </trkpt>
      <trkpt lat="48.29607" lon="7.25987">
        <ele>522</ele>
        <time>2022-04-06T07:52:55Z</time>
      </trkpt>
      <trkpt lat="48.29601" lon="7.25992">
        <ele>520</ele>
        <time>2022-04-06T07:52:56Z</time>
      </trkpt>
      <trkpt lat="48.29596" lon="7.25993">
        <ele>519</ele>
        <time>2022-04-06T07:52:57Z</time>
      </trkpt>
      <trkpt lat="48.29589" lon="7.2599">
        <ele>517</ele>
        <time>2022-04-06T07:52:58Z</time>
      </trkpt>
      <trkpt lat="48.29586" lon="7.25978">
        <ele>518</ele>
        <time>2022-04-06T07:53:00Z</time>
      </trkpt>
      <trkpt lat="48.29586" lon="7.25955">
        <ele>520</ele>
        <time>2022-04-06T07:53:02Z</time>
      </trkpt>
      <trkpt lat="48.29583" lon="7.25938">
        <ele>521</ele>
        <time>2022-04-06T07:53:04Z</time>
      </trkpt>
      <trkpt lat="48.29573" lon="7.25916">
        <ele>522</ele>
        <time>2022-04-06T07:53:07Z</time>
      </trkpt>
      <trkpt lat="48.29547" lon="7.25884">
        <ele>519</ele>
        <time>2022-04-06T07:53:13Z</time>
      </trkpt>
      <trkpt lat="48.29536" lon="7.2586">
        <ele>516</ele>
        <time>2022-04-06T07:53:17Z</time>
      </trkpt>
      <trkpt lat="48.2953" lon="7.2584">
        <ele>514</ele>
        <time>2022-04-06T07:53:20Z</time>
      </trkpt>
      <trkpt lat="48.29521" lon="7.25787">
        <ele>510</ele>
        <time>2022-04-06T07:53:26Z</time>
      </trkpt>
      <trkpt lat="48.29518" lon="7.25758">
        <ele>508</ele>
        <time>2022-04-06T07:53:29Z</time>
      </trkpt>
      <trkpt lat="48.29522" lon="7.25714">
        <ele>504</ele>
        <time>2022-04-06T07:53:35Z</time>
      </trkpt>
      <trkpt lat="48.29526" lon="7.25687">
        <ele>501</ele>
        <time>2022-04-06T07:53:38Z</time>
      </trkpt>
      <trkpt lat="48.29534" lon="7.25656">
        <ele>499</ele>
        <time>2022-04-06T07:53:42Z</time>
      </trkpt>
      <trkpt lat="48.29564" lon="7.25592">
        <ele>496</ele>
        <time>2022-04-06T07:53:51Z</time>
      </trkpt>
      <trkpt lat="48.29593" lon="7.25551">
        <ele>494</ele>
        <time>2022-04-06T07:53:58Z</time>
      </trkpt>
      <trkpt lat="48.29614" lon="7.2553">
        <ele>491</ele>
        <time>2022-04-06T07:54:03Z</time>
      </trkpt>
      <trkpt lat="48.29634" lon="7.25516">
        <ele>491</ele>
        <time>2022-04-06T07:54:07Z</time>
      </trkpt>
      <trkpt lat="48.29691" lon="7.2549">
        <ele>495</ele>
        <time>2022-04-06T07:54:17Z</time>
      </trkpt>
      <trkpt lat="48.29777" lon="7.25384">
        <ele>476</ele>
        <time>2022-04-06T07:54:37Z</time>
      </trkpt>
      <trkpt lat="48.29798" lon="7.2537">
        <ele>474</ele>
        <time>2022-04-06T07:54:41Z</time>
      </trkpt>
      <trkpt lat="48.29821" lon="7.25364">
        <ele>475</ele>
        <time>2022-04-06T07:54:45Z</time>
      </trkpt>
      <trkpt lat="48.29862" lon="7.25368">
        <ele>480</ele>
        <time>2022-04-06T07:54:53Z</time>
      </trkpt>
      <trkpt lat="48.2987" lon="7.25365">
        <ele>479</ele>
        <time>2022-04-06T07:54:54Z</time>
      </trkpt>
      <trkpt lat="48.29875" lon="7.25357">
        <ele>476</ele>
        <time>2022-04-06T07:54:55Z</time>
      </trkpt>
      <trkpt lat="48.29876" lon="7.25352">
        <ele>473</ele>
        <time>2022-04-06T07:54:56Z</time>
      </trkpt>
      <trkpt lat="48.29875" lon="7.25347">
        <ele>471</ele>
        <time>2022-04-06T07:54:57Z</time>
      </trkpt>
      <trkpt lat="48.29875" lon="7.25342">
        <ele>469</ele>
        <time>2022-04-06T07:54:57Z</time>
      </trkpt>
      <trkpt lat="48.2987" lon="7.25337">
        <ele>467</ele>
        <time>2022-04-06T07:54:58Z</time>
      </trkpt>
      <trkpt lat="48.29864" lon="7.25335">
        <ele>465</ele>
        <time>2022-04-06T07:54:59Z</time>
      </trkpt>
      <trkpt lat="48.29831" lon="7.2534">
        <ele>467</ele>
        <time>2022-04-06T07:55:05Z</time>
      </trkpt>
      <trkpt lat="48.29777" lon="7.25343">
        <ele>460</ele>
        <time>2022-04-06T07:55:15Z</time>
      </trkpt>
      <trkpt lat="48.29756" lon="7.25355">
        <ele>462</ele>
        <time>2022-04-06T07:55:19Z</time>
      </trkpt>
      <trkpt lat="48.29686" lon="7.25417">
        <ele>463</ele>
        <time>2022-04-06T07:55:33Z</time>
      </trkpt>
      <trkpt lat="48.29672" lon="7.25426">
        <ele>463</ele>
        <time>2022-04-06T07:55:36Z</time>
      </trkpt>
      <trkpt lat="48.29627" lon="7.2543">
        <ele>455</ele>
        <time>2022-04-06T07:55:44Z</time>
      </trkpt>
      <trkpt lat="48.29583" lon="7.25441">
        <ele>451</ele>
        <time>2022-04-06T07:55:52Z</time>
      </trkpt>
      <trkpt lat="48.29533" lon="7.25463">
        <ele>443</ele>
        <time>2022-04-06T07:56:01Z</time>
      </trkpt>
      <trkpt lat="48.29467" lon="7.25527">
        <ele>437</ele>
        <time>2022-04-06T07:56:15Z</time>
      </trkpt>
      <trkpt lat="48.29454" lon="7.25552">
        <ele>439</ele>
        <time>2022-04-06T07:56:19Z</time>
      </trkpt>
      <trkpt lat="48.29448" lon="7.25578">
        <ele>444</ele>
        <time>2022-04-06T07:56:22Z</time>
      </trkpt>
      <trkpt lat="48.29442" lon="7.25591">
        <ele>446</ele>
        <time>2022-04-06T07:56:24Z</time>
      </trkpt>
      <trkpt lat="48.29433" lon="7.25599">
        <ele>445</ele>
        <time>2022-04-06T07:56:26Z</time>
      </trkpt>
      <trkpt lat="48.29421" lon="7.25598">
        <ele>440</ele>
        <time>2022-04-06T07:56:28Z</time>
      </trkpt>
      <trkpt lat="48.29399" lon="7.2558">
        <ele>428</ele>
        <time>2022-04-06T07:56:33Z</time>
      </trkpt>
      <trkpt lat="48.29383" lon="7.25579">
        <ele>423</ele>
        <time>2022-04-06T07:56:35Z</time>
      </trkpt>
      <trkpt lat="48.29359" lon="7.25592">
        <ele>419</ele>
        <time>2022-04-06T07:56:40Z</time>
      </trkpt>
      <trkpt lat="48.29334" lon="7.25614">
        <ele>418</ele>
        <time>2022-04-06T07:56:45Z</time>
      </trkpt>
      <trkpt lat="48.29292" lon="7.2565">
        <ele>413</ele>
        <time>2022-04-06T07:56:54Z</time>
      </trkpt>
      <trkpt lat="48.29231" lon="7.2574">
        <ele>404</ele>
        <time>2022-04-06T07:57:09Z</time>
      </trkpt>
      <trkpt lat="48.29225" lon="7.25757">
        <ele>403</ele>
        <time>2022-04-06T07:57:11Z</time>
      </trkpt>
      <trkpt lat="48.29226" lon="7.25769">
        <ele>404</ele>
        <time>2022-04-06T07:57:13Z</time>
      </trkpt>
      <trkpt lat="48.2923" lon="7.25788">
        <ele>407</ele>
        <time>2022-04-06T07:57:15Z</time>
      </trkpt>
      <trkpt lat="48.29231" lon="7.25805">
        <ele>408</ele>
        <time>2022-04-06T07:57:17Z</time>
      </trkpt>
      <trkpt lat="48.29228" lon="7.2583">
        <ele>408</ele>
        <time>2022-04-06T07:57:20Z</time>
      </trkpt>
      <trkpt lat="48.29224" lon="7.2585">
        <ele>409</ele>
        <time>2022-04-06T07:57:23Z</time>
      </trkpt>
      <trkpt lat="48.29219" lon="7.25863">
        <ele>410</ele>
        <time>2022-04-06T07:57:24Z</time>
      </trkpt>
      <trkpt lat="48.29208" lon="7.25875">
        <ele>408</ele>
        <time>2022-04-06T07:57:27Z</time>
      </trkpt>
      <trkpt lat="48.29168" lon="7.25882">
        <ele>397</ele>
        <time>2022-04-06T07:57:34Z</time>
      </trkpt>
      <trkpt lat="48.2915" lon="7.2589">
        <ele>395</ele>
        <time>2022-04-06T07:57:37Z</time>
      </trkpt>
      <trkpt lat="48.29099" lon="7.25939">
        <ele>399</ele>
        <time>2022-04-06T07:57:48Z</time>
      </trkpt>
      <trkpt lat="48.29083" lon="7.25944">
        <ele>398</ele>
        <time>2022-04-06T07:57:51Z</time>
      </trkpt>
      <trkpt lat="48.29041" lon="7.25938">
        <ele>396</ele>
        <time>2022-04-06T07:57:58Z</time>
      </trkpt>
      <trkpt lat="48.29023" lon="7.25931">
        <ele>395</ele>
        <time>2022-04-06T07:58:02Z</time>
      </trkpt>
      <trkpt lat="48.29014" lon="7.25923">
        <ele>394</ele>
        <time>2022-04-06T07:58:04Z</time>
      </trkpt>
      <trkpt lat="48.29009" lon="7.25909">
        <ele>392</ele>
        <time>2022-04-06T07:58:05Z</time>
      </trkpt>
      <trkpt lat="48.29001" lon="7.25835">
        <ele>378</ele>
        <time>2022-04-06T07:58:14Z</time>
      </trkpt>
      <trkpt lat="48.28998" lon="7.2582">
        <ele>376</ele>
        <time>2022-04-06T07:58:16Z</time>
      </trkpt>
      <trkpt lat="48.2899" lon="7.25803">
        <ele>373</ele>
        <time>2022-04-06T07:58:19Z</time>
      </trkpt>
      <trkpt lat="48.28978" lon="7.25791">
        <ele>371</ele>
        <time>2022-04-06T07:58:21Z</time>
      </trkpt>
      <trkpt lat="48.28957" lon="7.25784">
        <ele>370</ele>
        <time>2022-04-06T07:58:25Z</time>
      </trkpt>
      <trkpt lat="48.28888" lon="7.25775">
        <ele>367</ele>
        <time>2022-04-06T07:58:37Z</time>
      </trkpt>
      <trkpt lat="48.28863" lon="7.25776">
        <ele>364</ele>
        <time>2022-04-06T07:58:42Z</time>
      </trkpt>
      <trkpt lat="48.28845" lon="7.25782">
        <ele>364</ele>
        <time>2022-04-06T07:58:45Z</time>
      </trkpt>
      <trkpt lat="48.28693" lon="7.2586">
        <ele>349</ele>
        <time>2022-04-06T07:59:14Z</time>
      </trkpt>
      <trkpt lat="48.28682" lon="7.25872">
        <ele>348</ele>
        <time>2022-04-06T07:59:16Z</time>
      </trkpt>
      <trkpt lat="48.286" lon="7.26006">
        <ele>341</ele>
        <time>2022-04-06T07:59:38Z</time>
      </trkpt>
      <trkpt lat="48.28589" lon="7.26017">
        <ele>338</ele>
        <time>2022-04-06T07:59:40Z</time>
      </trkpt>
      <trkpt lat="48.28554" lon="7.26021">
        <ele>328</ele>
        <time>2022-04-06T07:59:46Z</time>
      </trkpt>
      <trkpt lat="48.28547" lon="7.26027">
        <ele>327</ele>
        <time>2022-04-06T07:59:48Z</time>
      </trkpt>
      <trkpt lat="48.28544" lon="7.26036">
        <ele>326</ele>
        <time>2022-04-06T07:59:49Z</time>
      </trkpt>
      <trkpt lat="48.28544" lon="7.26049">
        <ele>326</ele>
        <time>2022-04-06T07:59:50Z</time>
      </trkpt>
      <trkpt lat="48.28548" lon="7.2606">
        <ele>327</ele>
        <time>2022-04-06T07:59:52Z</time>
      </trkpt>
      <trkpt lat="48.28599" lon="7.26103">
        <ele>337</ele>
        <time>2022-04-06T08:00:02Z</time>
      </trkpt>
      <trkpt lat="48.28631" lon="7.26135">
        <ele>339</ele>
        <time>2022-04-06T08:00:09Z</time>
      </trkpt>
      <trkpt lat="48.28673" lon="7.26193">
        <ele>339</ele>
        <time>2022-04-06T08:00:19Z</time>
      </trkpt>
      <trkpt lat="48.28686" lon="7.26216">
        <ele>338</ele>
        <time>2022-04-06T08:00:23Z</time>
      </trkpt>
      <trkpt lat="48.28687" lon="7.2623">
        <ele>337</ele>
        <time>2022-04-06T08:00:25Z</time>
      </trkpt>
      <trkpt lat="48.28683" lon="7.26245">
        <ele>334</ele>
        <time>2022-04-06T08:00:26Z</time>
      </trkpt>
      <trkpt lat="48.28678" lon="7.26251">
        <ele>334</ele>
        <time>2022-04-06T08:00:28Z</time>
      </trkpt>
      <trkpt lat="48.28673" lon="7.26254">
        <ele>334</ele>
        <time>2022-04-06T08:00:29Z</time>
      </trkpt>
      <trkpt lat="48.28666" lon="7.26253">
        <ele>334</ele>
        <time>2022-04-06T08:00:30Z</time>
      </trkpt>
      <trkpt lat="48.28639" lon="7.26238">
        <ele>330</ele>
        <time>2022-04-06T08:00:35Z</time>
      </trkpt>
      <trkpt lat="48.28621" lon="7.26233">
        <ele>328</ele>
        <time>2022-04-06T08:00:38Z</time>
      </trkpt>
      <trkpt lat="48.28581" lon="7.26228">
        <ele>323</ele>
        <time>2022-04-06T08:00:45Z</time>
      </trkpt>
      <trkpt lat="48.28516" lon="7.26219">
        <ele>316</ele>
        <time>2022-04-06T08:00:57Z</time>
      </trkpt>
      <trkpt lat="48.28487" lon="7.26212">
        <ele>314</ele>
        <time>2022-04-06T08:01:02Z</time>
      </trkpt>
      <trkpt lat="48.28474" lon="7.26205">
        <ele>314</ele>
        <time>2022-04-06T08:01:05Z</time>
      </trkpt>
      <trkpt lat="48.28462" lon="7.26194">
        <ele>313</ele>
        <time>2022-04-06T08:01:07Z</time>
      </trkpt>
      <trkpt lat="48.2845" lon="7.26173">
        <ele>311</ele>
        <time>2022-04-06T08:01:10Z</time>
      </trkpt>
      <trkpt lat="48.28422" lon="7.26096">
        <ele>306</ele>
        <time>2022-04-06T08:01:21Z</time>
      </trkpt>
      <trkpt lat="48.28416" lon="7.26081">
        <ele>305</ele>
        <time>2022-04-06T08:01:23Z</time>
      </trkpt>
      <trkpt lat="48.28401" lon="7.26094">
        <ele>305</ele>
        <time>2022-04-06T08:01:26Z</time>
      </trkpt>
      <trkpt lat="48.28374" lon="7.26117">
        <ele>305</ele>
        <time>2022-04-06T08:01:31Z</time>
      </trkpt>
      <trkpt lat="48.28357" lon="7.26142">
        <ele>305</ele>
        <time>2022-04-06T08:01:36Z</time>
      </trkpt>
      <trkpt lat="48.28339" lon="7.26184">
        <ele>305</ele>
        <time>2022-04-06T08:01:42Z</time>
      </trkpt>
      <trkpt lat="48.28294" lon="7.26268">
        <ele>309</ele>
        <time>2022-04-06T08:01:54Z</time>
      </trkpt>
      <trkpt lat="48.28258" lon="7.2635">
        <ele>310</ele>
        <time>2022-04-06T08:02:06Z</time>
      </trkpt>
      <trkpt lat="48.28253" lon="7.26359">
        <ele>310</ele>
        <time>2022-04-06T08:02:07Z</time>
      </trkpt>
      <trkpt lat="48.28246" lon="7.26365">
        <ele>309</ele>
        <time>2022-04-06T08:02:09Z</time>
      </trkpt>
      <trkpt lat="48.28218" lon="7.26391">
        <ele>307</ele>
        <time>2022-04-06T08:02:15Z</time>
      </trkpt>
      <trkpt lat="48.28207" lon="7.26407">
        <ele>307</ele>
        <time>2022-04-06T08:02:17Z</time>
      </trkpt>
      <trkpt lat="48.28196" lon="7.26436">
        <ele>306</ele>
        <time>2022-04-06T08:02:21Z</time>
      </trkpt>
      <trkpt lat="48.28193" lon="7.26448">
        <ele>306</ele>
        <time>2022-04-06T08:02:23Z</time>
      </trkpt>
      <trkpt lat="48.28184" lon="7.26483">
        <ele>305</ele>
        <time>2022-04-06T08:02:27Z</time>
      </trkpt>
      <trkpt lat="48.28177" lon="7.26502">
        <ele>304</ele>
        <time>2022-04-06T08:02:30Z</time>
      </trkpt>
      <trkpt lat="48.28161" lon="7.26538">
        <ele>302</ele>
        <time>2022-04-06T08:02:35Z</time>
      </trkpt>
      <trkpt lat="48.28122" lon="7.26621">
        <ele>301</ele>
        <time>2022-04-06T08:02:47Z</time>
      </trkpt>
      <trkpt lat="48.28115" lon="7.26631">
        <ele>300</ele>
        <time>2022-04-06T08:02:49Z</time>
      </trkpt>
      <trkpt lat="48.28105" lon="7.26642">
        <ele>299</ele>
        <time>2022-04-06T08:02:51Z</time>
      </trkpt>
      <trkpt lat="48.28048" lon="7.26706">
        <ele>300</ele>
        <time>2022-04-06T08:03:04Z</time>
      </trkpt>
      <trkpt lat="48.27973" lon="7.26816">
        <ele>304</ele>
        <time>2022-04-06T08:03:22Z</time>
      </trkpt>
      <trkpt lat="48.27963" lon="7.26835">
        <ele>306</ele>
        <time>2022-04-06T08:03:25Z</time>
      </trkpt>
      <trkpt lat="48.27957" lon="7.26856">
        <ele>305</ele>
        <time>2022-04-06T08:03:28Z</time>
      </trkpt>
      <trkpt lat="48.27952" lon="7.26876">
        <ele>303</ele>
        <time>2022-04-06T08:03:30Z</time>
      </trkpt>
      <trkpt lat="48.27949" lon="7.26922">
        <ele>297</ele>
        <time>2022-04-06T08:03:36Z</time>
      </trkpt>
      <trkpt lat="48.27949" lon="7.26933">
        <ele>297</ele>
        <time>2022-04-06T08:03:37Z</time>
      </trkpt>
      <trkpt lat="48.27947" lon="7.26959">
        <ele>296</ele>
        <time>2022-04-06T08:03:40Z</time>
      </trkpt>
      <trkpt lat="48.27936" lon="7.26996">
        <ele>295</ele>
        <time>2022-04-06T08:03:45Z</time>
      </trkpt>
      <trkpt lat="48.27929" lon="7.27011">
        <ele>295</ele>
        <time>2022-04-06T08:03:47Z</time>
      </trkpt>
      <trkpt lat="48.27921" lon="7.27023">
        <ele>295</ele>
        <time>2022-04-06T08:03:49Z</time>
      </trkpt>
      <trkpt lat="48.27875" lon="7.27072">
        <ele>296</ele>
        <time>2022-04-06T08:03:59Z</time>
      </trkpt>
      <trkpt lat="48.27862" lon="7.27093">
        <ele>296</ele>
        <time>2022-04-06T08:04:03Z</time>
      </trkpt>
      <trkpt lat="48.27829" lon="7.27157">
        <ele>295</ele>
        <time>2022-04-06T08:04:12Z</time>
      </trkpt>
      <trkpt lat="48.27817" lon="7.27184">
        <ele>294</ele>
        <time>2022-04-06T08:04:16Z</time>
      </trkpt>
      <trkpt lat="48.27801" lon="7.27224">
        <ele>294</ele>
        <time>2022-04-06T08:04:22Z</time>
      </trkpt>
      <trkpt lat="48.27784" lon="7.27274">
        <ele>292</ele>
        <time>2022-04-06T08:04:28Z</time>
      </trkpt>
      <trkpt lat="48.27772" lon="7.27332">
        <ele>291</ele>
        <time>2022-04-06T08:04:35Z</time>
      </trkpt>
      <trkpt lat="48.27768" lon="7.27363">
        <ele>290</ele>
        <time>2022-04-06T08:04:39Z</time>
      </trkpt>
      <trkpt lat="48.27766" lon="7.27397">
        <ele>290</ele>
        <time>2022-04-06T08:04:43Z</time>
      </trkpt>
      <trkpt lat="48.27775" lon="7.27576">
        <ele>288</ele>
        <time>2022-04-06T08:05:04Z</time>
      </trkpt>
      <trkpt lat="48.27773" lon="7.27612">
        <ele>288</ele>
        <time>2022-04-06T08:05:09Z</time>
      </trkpt>
      <trkpt lat="48.27759" lon="7.27704">
        <ele>289</ele>
        <time>2022-04-06T08:05:20Z</time>
      </trkpt>
      <trkpt lat="48.27734" lon="7.2778">
        <ele>288</ele>
        <time>2022-04-06T08:05:30Z</time>
      </trkpt>
      <trkpt lat="48.27716" lon="7.27814">
        <ele>288</ele>
        <time>2022-04-06T08:05:35Z</time>
      </trkpt>
      <trkpt lat="48.27692" lon="7.2784">
        <ele>286</ele>
        <time>2022-04-06T08:05:40Z</time>
      </trkpt>
      <trkpt lat="48.27676" lon="7.27851">
        <ele>285</ele>
        <time>2022-04-06T08:05:44Z</time>
      </trkpt>
      <trkpt lat="48.27642" lon="7.2787">
        <ele>284</ele>
        <time>2022-04-06T08:05:50Z</time>
      </trkpt>
      <trkpt lat="48.27593" lon="7.27892">
        <ele>280</ele>
        <time>2022-04-06T08:05:59Z</time>
      </trkpt>
      <trkpt lat="48.27536" lon="7.27933">
        <ele>280</ele>
        <time>2022-04-06T08:06:10Z</time>
      </trkpt>
      <trkpt lat="48.27468" lon="7.27988">
        <ele>281</ele>
        <time>2022-04-06T08:06:24Z</time>
      </trkpt>
      <trkpt lat="48.27428" lon="7.28034">
        <ele>283</ele>
        <time>2022-04-06T08:06:33Z</time>
      </trkpt>
      <trkpt lat="48.27377" lon="7.28066">
        <ele>280</ele>
        <time>2022-04-06T08:06:43Z</time>
      </trkpt>
      <trkpt lat="48.2735" lon="7.28068">
        <ele>276</ele>
        <time>2022-04-06T08:06:48Z</time>
      </trkpt>
      <trkpt lat="48.27328" lon="7.28057">
        <ele>273</ele>
        <time>2022-04-06T08:06:52Z</time>
      </trkpt>
      <trkpt lat="48.27315" lon="7.28051">
        <ele>273</ele>
        <time>2022-04-06T08:06:54Z</time>
      </trkpt>
      <trkpt lat="48.27308" lon="7.28049">
        <ele>273</ele>
        <time>2022-04-06T08:06:55Z</time>
      </trkpt>
      <trkpt lat="48.27294" lon="7.28048">
        <ele>272</ele>
        <time>2022-04-06T08:06:58Z</time>
      </trkpt>
      <trkpt lat="48.27279" lon="7.28051">
        <ele>272</ele>
        <time>2022-04-06T08:07:01Z</time>
      </trkpt>
      <trkpt lat="48.27255" lon="7.28065">
        <ele>271</ele>
        <time>2022-04-06T08:07:05Z</time>
      </trkpt>
      <trkpt lat="48.27247" lon="7.2807">
        <ele>271</ele>
        <time>2022-04-06T08:07:07Z</time>
      </trkpt>
      <trkpt lat="48.27245" lon="7.28072">
        <ele>271</ele>
        <time>2022-04-06T08:07:07Z</time>
      </trkpt>
      <trkpt lat="48.27242" lon="7.28074">
        <ele>271</ele>
        <time>2022-04-06T08:07:08Z</time>
      </trkpt>
      <trkpt lat="48.27218" lon="7.2809">
        <ele>270</ele>
        <time>2022-04-06T08:07:12Z</time>
      </trkpt>
      <trkpt lat="48.27213" lon="7.28093">
        <ele>270</ele>
        <time>2022-04-06T08:07:13Z</time>
      </trkpt>
      <trkpt lat="48.27205" lon="7.28095">
        <ele>270</ele>
        <time>2022-04-06T08:07:15Z</time>
      </trkpt>
      <trkpt lat="48.27149" lon="7.28096">
        <ele>269</ele>
        <time>2022-04-06T08:07:25Z</time>
      </trkpt>
      <trkpt lat="48.2714" lon="7.28096">
        <ele>269</ele>
        <time>2022-04-06T08:07:26Z</time>
      </trkpt>
      <trkpt lat="48.27116" lon="7.281">
        <ele>269</ele>
        <time>2022-04-06T08:07:31Z</time>
      </trkpt>
      <trkpt lat="48.27088" lon="7.28114">
        <ele>269</ele>
        <time>2022-04-06T08:07:36Z</time>
      </trkpt>
      <trkpt lat="48.27084" lon="7.28116">
        <ele>269</ele>
        <time>2022-04-06T08:07:37Z</time>
      </trkpt>
      <trkpt lat="48.27084" lon="7.28123">
        <ele>269</ele>
        <time>2022-04-06T08:07:38Z</time>
      </trkpt>
      <trkpt lat="48.27085" lon="7.28139">
        <ele>269</ele>
        <time>2022-04-06T08:07:39Z</time>
      </trkpt>
      <trkpt lat="48.27086" lon="7.28151">
        <ele>269</ele>
        <time>2022-04-06T08:07:41Z</time>
      </trkpt>
      <trkpt lat="48.27092" lon="7.28181">
        <ele>269</ele>
        <time>2022-04-06T08:07:45Z</time>
      </trkpt>
      <trkpt lat="48.27095" lon="7.282">
        <ele>269</ele>
        <time>2022-04-06T08:07:47Z</time>
      </trkpt>
      <trkpt lat="48.27094" lon="7.28207">
        <ele>269</ele>
        <time>2022-04-06T08:07:48Z</time>
      </trkpt>
      <trkpt lat="48.27093" lon="7.28227">
        <ele>270</ele>
        <time>2022-04-06T08:07:50Z</time>
      </trkpt>
      <trkpt lat="48.2709" lon="7.28252">
        <ele>270</ele>
        <time>2022-04-06T08:07:53Z</time>
      </trkpt>
      <trkpt lat="48.27086" lon="7.28274">
        <ele>269</ele>
        <time>2022-04-06T08:07:56Z</time>
      </trkpt>
      <trkpt lat="48.27077" lon="7.2829">
        <ele>269</ele>
        <time>2022-04-06T08:07:58Z</time>
      </trkpt>
      <trkpt lat="48.27073" lon="7.28295">
        <ele>269</ele>
        <time>2022-04-06T08:07:59Z</time>
      </trkpt>
      <trkpt lat="48.27061" lon="7.28308">
        <ele>269</ele>
        <time>2022-04-06T08:08:02Z</time>
      </trkpt>
      <trkpt lat="48.27047" lon="7.28329">
        <ele>270</ele>
        <time>2022-04-06T08:08:05Z</time>
      </trkpt>
      <trkpt lat="48.27045" lon="7.28343">
        <ele>270</ele>
        <time>2022-04-06T08:08:07Z</time>
      </trkpt>
      <trkpt lat="48.27042" lon="7.28408">
        <ele>268</ele>
        <time>2022-04-06T08:08:15Z</time>
      </trkpt>
      <trkpt lat="48.27033" lon="7.28487">
        <ele>268</ele>
        <time>2022-04-06T08:08:24Z</time>
      </trkpt>
      <trkpt lat="48.27024" lon="7.28518">
        <ele>268</ele>
        <time>2022-04-06T08:08:28Z</time>
      </trkpt>
      <trkpt lat="48.27011" lon="7.2854">
        <ele>269</ele>
        <time>2022-04-06T08:08:32Z</time>
      </trkpt>
      <trkpt lat="48.26973" lon="7.28618">
        <ele>268</ele>
        <time>2022-04-06T08:08:43Z</time>
      </trkpt>
      <trkpt lat="48.26967" lon="7.2863">
        <ele>268</ele>
        <time>2022-04-06T08:08:45Z</time>
      </trkpt>
      <trkpt lat="48.26933" lon="7.28717">
        <ele>267</ele>
        <time>2022-04-06T08:08:57Z</time>
      </trkpt>
      <trkpt lat="48.26923" lon="7.28723">
        <ele>267</ele>
        <time>2022-04-06T08:08:59Z</time>
      </trkpt>
      <trkpt lat="48.26915" lon="7.28727">
        <ele>267</ele>
        <time>2022-04-06T08:09:00Z</time>
      </trkpt>
      <trkpt lat="48.26906" lon="7.28722">
        <ele>271</ele>
        <time>2022-04-06T08:09:02Z</time>
      </trkpt>
      <trkpt lat="48.26897" lon="7.28723">
        <ele>275</ele>
        <time>2022-04-06T08:09:04Z</time>
      </trkpt>
      <trkpt lat="48.2689" lon="7.2873">
        <ele>277</ele>
        <time>2022-04-06T08:09:05Z</time>
      </trkpt>
      <trkpt lat="48.26886" lon="7.28742">
        <ele>279</ele>
        <time>2022-04-06T08:09:07Z</time>
      </trkpt>
      <trkpt lat="48.26886" lon="7.28754">
        <ele>279</ele>
        <time>2022-04-06T08:09:08Z</time>
      </trkpt>
      <trkpt lat="48.26889" lon="7.28765">
        <ele>278</ele>
        <time>2022-04-06T08:09:10Z</time>
      </trkpt>
      <trkpt lat="48.26896" lon="7.28773">
        <ele>275</ele>
        <time>2022-04-06T08:09:11Z</time>
      </trkpt>
      <trkpt lat="48.26903" lon="7.28867">
        <ele>274</ele>
        <time>2022-04-06T08:09:22Z</time>
      </trkpt>
      <trkpt lat="48.26905" lon="7.28872">
        <ele>273</ele>
        <time>2022-04-06T08:09:23Z</time>
      </trkpt>
      <trkpt lat="48.26908" lon="7.2909">
        <ele>267</ele>
        <time>2022-04-06T08:09:49Z</time>
      </trkpt>
      <trkpt lat="48.2687" lon="7.29111">
        <ele>272</ele>
        <time>2022-04-06T08:09:56Z</time>
      </trkpt>
      <trkpt lat="48.26756" lon="7.29099">
        <ele>286</ele>
        <time>2022-04-06T08:10:16Z</time>
      </trkpt>
      <trkpt lat="48.26734" lon="7.29106">
        <ele>289</ele>
        <time>2022-04-06T08:10:20Z</time>
      </trkpt>
      <trkpt lat="48.26717" lon="7.29116">
        <ele>291</ele>
        <time>2022-04-06T08:10:24Z</time>
      </trkpt>
      <trkpt lat="48.26627" lon="7.29205">
        <ele>298</ele>
        <time>2022-04-06T08:10:43Z</time>
      </trkpt>
      <trkpt lat="48.26561" lon="7.29266">
        <ele>305</ele>
        <time>2022-04-06T08:10:57Z</time>
      </trkpt>
      <trkpt lat="48.26535" lon="7.29312">
        <ele>312</ele>
        <time>2022-04-06T08:11:04Z</time>
      </trkpt>
      <trkpt lat="48.2652" lon="7.29349">
        <ele>313</ele>
        <time>2022-04-06T08:11:09Z</time>
      </trkpt>
      <trkpt lat="48.26484" lon="7.29478">
        <ele>322</ele>
        <time>2022-04-06T08:11:26Z</time>
      </trkpt>
      <trkpt lat="48.26469" lon="7.29511">
        <ele>325</ele>
        <time>2022-04-06T08:11:30Z</time>
      </trkpt>
      <trkpt lat="48.26452" lon="7.29534">
        <ele>327</ele>
        <time>2022-04-06T08:11:34Z</time>
      </trkpt>
      <trkpt lat="48.26425" lon="7.29558">
        <ele>327</ele>
        <time>2022-04-06T08:11:40Z</time>
      </trkpt>
      <trkpt lat="48.26397" lon="7.29573">
        <ele>325</ele>
        <time>2022-04-06T08:11:45Z</time>
      </trkpt>
      <trkpt lat="48.26293" lon="7.29614">
        <ele>333</ele>
        <time>2022-04-06T08:12:04Z</time>
      </trkpt>
      <trkpt lat="48.26217" lon="7.29653">
        <ele>339</ele>
        <time>2022-04-06T08:12:19Z</time>
      </trkpt>
      <trkpt lat="48.26167" lon="7.29675">
        <ele>342</ele>
        <time>2022-04-06T08:12:28Z</time>
      </trkpt>
      <trkpt lat="48.26142" lon="7.29676">
        <ele>344</ele>
        <time>2022-04-06T08:12:32Z</time>
      </trkpt>
      <trkpt lat="48.26088" lon="7.29661">
        <ele>348</ele>
        <time>2022-04-06T08:12:42Z</time>
      </trkpt>
      <trkpt lat="48.26066" lon="7.29658">
        <ele>351</ele>
        <time>2022-04-06T08:12:46Z</time>
      </trkpt>
      <trkpt lat="48.26045" lon="7.29661">
        <ele>354</ele>
        <time>2022-04-06T08:12:50Z</time>
      </trkpt>
      <trkpt lat="48.25949" lon="7.29684">
        <ele>365</ele>
        <time>2022-04-06T08:13:07Z</time>
      </trkpt>
      <trkpt lat="48.25922" lon="7.29695">
        <ele>366</ele>
        <time>2022-04-06T08:13:12Z</time>
      </trkpt>
      <trkpt lat="48.2588" lon="7.2972">
        <ele>371</ele>
        <time>2022-04-06T08:13:20Z</time>
      </trkpt>
      <trkpt lat="48.25846" lon="7.29753">
        <ele>372</ele>
        <time>2022-04-06T08:13:27Z</time>
      </trkpt>
      <trkpt lat="48.25796" lon="7.29822">
        <ele>374</ele>
        <time>2022-04-06T08:13:39Z</time>
      </trkpt>
      <trkpt lat="48.25753" lon="7.29862">
        <ele>383</ele>
        <time>2022-04-06T08:13:48Z</time>
      </trkpt>
      <trkpt lat="48.25745" lon="7.29882">
        <ele>384</ele>
        <time>2022-04-06T08:13:51Z</time>
      </trkpt>
      <trkpt lat="48.25745" lon="7.29902">
        <ele>384</ele>
        <time>2022-04-06T08:13:54Z</time>
      </trkpt>
      <trkpt lat="48.25756" lon="7.29923">
        <ele>386</ele>
        <time>2022-04-06T08:13:57Z</time>
      </trkpt>
      <trkpt lat="48.25768" lon="7.29929">
        <ele>388</ele>
        <time>2022-04-06T08:13:59Z</time>
      </trkpt>
      <trkpt lat="48.25795" lon="7.29926">
        <ele>387</ele>
        <time>2022-04-06T08:14:04Z</time>
      </trkpt>
      <trkpt lat="48.25839" lon="7.29919">
        <ele>385</ele>
        <time>2022-04-06T08:14:12Z</time>
      </trkpt>
      <trkpt lat="48.25852" lon="7.29915">
        <ele>385</ele>
        <time>2022-04-06T08:14:14Z</time>
      </trkpt>
      <trkpt lat="48.25894" lon="7.2989">
        <ele>383</ele>
        <time>2022-04-06T08:14:22Z</time>
      </trkpt>
      <trkpt lat="48.25935" lon="7.29858">
        <ele>377</ele>
        <time>2022-04-06T08:14:30Z</time>
      </trkpt>
      <trkpt lat="48.26008" lon="7.29839">
        <ele>385</ele>
        <time>2022-04-06T08:14:43Z</time>
      </trkpt>
      <trkpt lat="48.26121" lon="7.29833">
        <ele>390</ele>
        <time>2022-04-06T08:15:04Z</time>
      </trkpt>
      <trkpt lat="48.26172" lon="7.29838">
        <ele>394</ele>
        <time>2022-04-06T08:15:13Z</time>
      </trkpt>
      <trkpt lat="48.262" lon="7.29845">
        <ele>396</ele>
        <time>2022-04-06T08:15:18Z</time>
      </trkpt>
      <trkpt lat="48.26229" lon="7.29848">
        <ele>396</ele>
        <time>2022-04-06T08:15:23Z</time>
      </trkpt>
      <trkpt lat="48.26252" lon="7.29844">
        <ele>395</ele>
        <time>2022-04-06T08:15:27Z</time>
      </trkpt>
      <trkpt lat="48.26279" lon="7.29833">
        <ele>393</ele>
        <time>2022-04-06T08:15:32Z</time>
      </trkpt>
      <trkpt lat="48.26289" lon="7.29826">
        <ele>391</ele>
        <time>2022-04-06T08:15:34Z</time>
      </trkpt>
      <trkpt lat="48.26311" lon="7.29823">
        <ele>390</ele>
        <time>2022-04-06T08:15:38Z</time>
      </trkpt>
      <trkpt lat="48.26325" lon="7.29832">
        <ele>390</ele>
        <time>2022-04-06T08:15:41Z</time>
      </trkpt>
      <trkpt lat="48.26333" lon="7.29846">
        <ele>389</ele>
        <time>2022-04-06T08:15:43Z</time>
      </trkpt>
      <trkpt lat="48.26336" lon="7.29865">
        <ele>387</ele>
        <time>2022-04-06T08:15:45Z</time>
      </trkpt>
      <trkpt lat="48.26336" lon="7.29884">
        <ele>386</ele>
        <time>2022-04-06T08:15:47Z</time>
      </trkpt>
      <trkpt lat="48.26329" lon="7.29905">
        <ele>387</ele>
        <time>2022-04-06T08:15:50Z</time>
      </trkpt>
      <trkpt lat="48.26324" lon="7.29914">
        <ele>387</ele>
        <time>2022-04-06T08:15:51Z</time>
      </trkpt>
      <trkpt lat="48.26313" lon="7.29919">
        <ele>389</ele>
        <time>2022-04-06T08:15:54Z</time>
      </trkpt>
      <trkpt lat="48.26289" lon="7.29918">
        <ele>394</ele>
        <time>2022-04-06T08:15:58Z</time>
      </trkpt>
      <trkpt lat="48.2626" lon="7.29907">
        <ele>400</ele>
        <time>2022-04-06T08:16:03Z</time>
      </trkpt>
      <trkpt lat="48.26234" lon="7.29906">
        <ele>404</ele>
        <time>2022-04-06T08:16:08Z</time>
      </trkpt>
      <trkpt lat="48.26168" lon="7.29895">
        <ele>410</ele>
        <time>2022-04-06T08:16:20Z</time>
      </trkpt>
      <trkpt lat="48.2614" lon="7.29894">
        <ele>410</ele>
        <time>2022-04-06T08:16:25Z</time>
      </trkpt>
      <trkpt lat="48.25999" lon="7.29935">
        <ele>420</ele>
        <time>2022-04-06T08:16:50Z</time>
      </trkpt>
      <trkpt lat="48.25966" lon="7.29938">
        <ele>414</ele>
        <time>2022-04-06T08:16:56Z</time>
      </trkpt>
      <trkpt lat="48.25953" lon="7.29945">
        <ele>413</ele>
        <time>2022-04-06T08:16:58Z</time>
      </trkpt>
      <trkpt lat="48.2594" lon="7.29962">
        <ele>416</ele>
        <time>2022-04-06T08:17:01Z</time>
      </trkpt>
      <trkpt lat="48.25918" lon="7.30018">
        <ele>427</ele>
        <time>2022-04-06T08:17:09Z</time>
      </trkpt>
      <trkpt lat="48.25904" lon="7.30058">
        <ele>437</ele>
        <time>2022-04-06T08:17:15Z</time>
      </trkpt>
      <trkpt lat="48.25895" lon="7.30073">
        <ele>441</ele>
        <time>2022-04-06T08:17:17Z</time>
      </trkpt>
      <trkpt lat="48.25883" lon="7.30081">
        <ele>442</ele>
        <time>2022-04-06T08:17:19Z</time>
      </trkpt>
      <trkpt lat="48.25874" lon="7.30084">
        <ele>443</ele>
        <time>2022-04-06T08:17:21Z</time>
      </trkpt>
      <trkpt lat="48.25814" lon="7.30076">
        <ele>437</ele>
        <time>2022-04-06T08:17:32Z</time>
      </trkpt>
      <trkpt lat="48.25728" lon="7.30091">
        <ele>443</ele>
        <time>2022-04-06T08:17:47Z</time>
      </trkpt>
      <trkpt lat="48.25681" lon="7.30111">
        <ele>451</ele>
        <time>2022-04-06T08:17:56Z</time>
      </trkpt>
      <trkpt lat="48.25642" lon="7.30133">
        <ele>457</ele>
        <time>2022-04-06T08:18:03Z</time>
      </trkpt>
      <trkpt lat="48.25588" lon="7.30176">
        <ele>465</ele>
        <time>2022-04-06T08:18:14Z</time>
      </trkpt>
      <trkpt lat="48.25517" lon="7.30223">
        <ele>472</ele>
        <time>2022-04-06T08:18:28Z</time>
      </trkpt>
      <trkpt lat="48.25501" lon="7.30227">
        <ele>471</ele>
        <time>2022-04-06T08:18:31Z</time>
      </trkpt>
      <trkpt lat="48.25447" lon="7.30231">
        <ele>470</ele>
        <time>2022-04-06T08:18:40Z</time>
      </trkpt>
      <trkpt lat="48.25403" lon="7.30238">
        <ele>471</ele>
        <time>2022-04-06T08:18:48Z</time>
      </trkpt>
      <trkpt lat="48.2533" lon="7.30259">
        <ele>477</ele>
        <time>2022-04-06T08:19:01Z</time>
      </trkpt>
      <trkpt lat="48.25309" lon="7.30273">
        <ele>478</ele>
        <time>2022-04-06T08:19:06Z</time>
      </trkpt>
      <trkpt lat="48.25286" lon="7.30301">
        <ele>481</ele>
        <time>2022-04-06T08:19:11Z</time>
      </trkpt>
      <trkpt lat="48.2526" lon="7.30344">
        <ele>484</ele>
        <time>2022-04-06T08:19:18Z</time>
      </trkpt>
      <trkpt lat="48.25218" lon="7.30446">
        <ele>495</ele>
        <time>2022-04-06T08:19:32Z</time>
      </trkpt>
      <trkpt lat="48.25168" lon="7.30539">
        <ele>494</ele>
        <time>2022-04-06T08:19:46Z</time>
      </trkpt>
      <trkpt lat="48.25114" lon="7.30625">
        <ele>499</ele>
        <time>2022-04-06T08:20:00Z</time>
      </trkpt>
      <trkpt lat="48.25105" lon="7.30647">
        <ele>499</ele>
        <time>2022-04-06T08:20:03Z</time>
      </trkpt>
      <trkpt lat="48.25087" lon="7.30696">
        <ele>499</ele>
        <time>2022-04-06T08:20:10Z</time>
      </trkpt>
      <trkpt lat="48.2508" lon="7.30725">
        <ele>501</ele>
        <time>2022-04-06T08:20:13Z</time>
      </trkpt>
      <trkpt lat="48.25077" lon="7.30754">
        <ele>502</ele>
        <time>2022-04-06T08:20:17Z</time>
      </trkpt>
      <trkpt lat="48.25078" lon="7.30775">
        <ele>503</ele>
        <time>2022-04-06T08:20:19Z</time>
      </trkpt>
      <trkpt lat="48.25085" lon="7.30811">
        <ele>502</ele>
        <time>2022-04-06T08:20:24Z</time>
      </trkpt>
      <trkpt lat="48.25114" lon="7.30923">
        <ele>499</ele>
        <time>2022-04-06T08:20:38Z</time>
      </trkpt>
      <trkpt lat="48.25118" lon="7.3096">
        <ele>500</ele>
        <time>2022-04-06T08:20:42Z</time>
      </trkpt>
      <trkpt lat="48.25118" lon="7.30989">
        <ele>504</ele>
        <time>2022-04-06T08:20:46Z</time>
      </trkpt>
      <trkpt lat="48.25114" lon="7.31048">
        <ele>508</ele>
        <time>2022-04-06T08:20:53Z</time>
      </trkpt>
      <trkpt lat="48.2508" lon="7.31345">
        <ele>519</ele>
        <time>2022-04-06T08:21:29Z</time>
      </trkpt>
      <trkpt lat="48.25071" lon="7.31382">
        <ele>517</ele>
        <time>2022-04-06T08:21:33Z</time>
      </trkpt>
      <trkpt lat="48.25066" lon="7.31396">
        <ele>517</ele>
        <time>2022-04-06T08:21:35Z</time>
      </trkpt>
      <trkpt lat="48.25055" lon="7.3141">
        <ele>519</ele>
        <time>2022-04-06T08:21:38Z</time>
      </trkpt>
      <trkpt lat="48.25012" lon="7.31451">
        <ele>527</ele>
        <time>2022-04-06T08:21:47Z</time>
      </trkpt>
      <trkpt lat="48.24992" lon="7.31477">
        <ele>530</ele>
        <time>2022-04-06T08:21:52Z</time>
      </trkpt>
      <trkpt lat="48.24939" lon="7.31564">
        <ele>537</ele>
        <time>2022-04-06T08:22:06Z</time>
      </trkpt>
      <trkpt lat="48.24863" lon="7.31667">
        <ele>545</ele>
        <time>2022-04-06T08:22:24Z</time>
      </trkpt>
      <trkpt lat="48.24779" lon="7.31744">
        <ele>549</ele>
        <time>2022-04-06T08:22:41Z</time>
      </trkpt>
      <trkpt lat="48.24719" lon="7.31795">
        <ele>558</ele>
        <time>2022-04-06T08:22:53Z</time>
      </trkpt>
      <trkpt lat="48.2471" lon="7.31811">
        <ele>558</ele>
        <time>2022-04-06T08:22:56Z</time>
      </trkpt>
      <trkpt lat="48.24707" lon="7.31826">
        <ele>558</ele>
        <time>2022-04-06T08:22:58Z</time>
      </trkpt>
      <trkpt lat="48.24709" lon="7.31839">
        <ele>557</ele>
        <time>2022-04-06T08:22:59Z</time>
      </trkpt>
      <trkpt lat="48.24713" lon="7.31855">
        <ele>556</ele>
        <time>2022-04-06T08:23:01Z</time>
      </trkpt>
      <trkpt lat="48.24756" lon="7.31904">
        <ele>548</ele>
        <time>2022-04-06T08:23:11Z</time>
      </trkpt>
      <trkpt lat="48.24761" lon="7.31918">
        <ele>548</ele>
        <time>2022-04-06T08:23:13Z</time>
      </trkpt>
      <trkpt lat="48.24762" lon="7.3194">
        <ele>548</ele>
        <time>2022-04-06T08:23:16Z</time>
      </trkpt>
      <trkpt lat="48.24761" lon="7.31953">
        <ele>548</ele>
        <time>2022-04-06T08:23:17Z</time>
      </trkpt>
      <trkpt lat="48.24757" lon="7.31969">
        <ele>549</ele>
        <time>2022-04-06T08:23:19Z</time>
      </trkpt>
      <trkpt lat="48.24751" lon="7.31985">
        <ele>550</ele>
        <time>2022-04-06T08:23:21Z</time>
      </trkpt>
      <trkpt lat="48.24718" lon="7.32038">
        <ele>556</ele>
        <time>2022-04-06T08:23:30Z</time>
      </trkpt>
      <trkpt lat="48.24664" lon="7.3212">
        <ele>559</ele>
        <time>2022-04-06T08:23:44Z</time>
      </trkpt>
      <trkpt lat="48.24625" lon="7.32169">
        <ele>559</ele>
        <time>2022-04-06T08:23:53Z</time>
      </trkpt>
      <trkpt lat="48.24615" lon="7.32176">
        <ele>560</ele>
        <time>2022-04-06T08:23:55Z</time>
      </trkpt>
      <trkpt lat="48.24606" lon="7.32179">
        <ele>561</ele>
        <time>2022-04-06T08:23:56Z</time>
      </trkpt>
      <trkpt lat="48.24579" lon="7.32179">
        <ele>568</ele>
        <time>2022-04-06T08:24:01Z</time>
      </trkpt>
      <trkpt lat="48.24564" lon="7.32183">
        <ele>571</ele>
        <time>2022-04-06T08:24:04Z</time>
      </trkpt>
      <trkpt lat="48.24555" lon="7.32191">
        <ele>573</ele>
        <time>2022-04-06T08:24:06Z</time>
      </trkpt>
      <trkpt lat="48.24548" lon="7.32202">
        <ele>574</ele>
        <time>2022-04-06T08:24:07Z</time>
      </trkpt>
      <trkpt lat="48.24544" lon="7.32218">
        <ele>573</ele>
        <time>2022-04-06T08:24:09Z</time>
      </trkpt>
      <trkpt lat="48.24525" lon="7.32334">
        <ele>573</ele>
        <time>2022-04-06T08:24:24Z</time>
      </trkpt>
      <trkpt lat="48.24517" lon="7.32354">
        <ele>571</ele>
        <time>2022-04-06T08:24:26Z</time>
      </trkpt>
      <trkpt lat="48.24506" lon="7.32367">
        <ele>572</ele>
        <time>2022-04-06T08:24:29Z</time>
      </trkpt>
      <trkpt lat="48.24499" lon="7.3237">
        <ele>573</ele>
        <time>2022-04-06T08:24:30Z</time>
      </trkpt>
      <trkpt lat="48.24485" lon="7.32372">
        <ele>576</ele>
        <time>2022-04-06T08:24:33Z</time>
      </trkpt>
      <trkpt lat="48.2444" lon="7.32359">
        <ele>589</ele>
        <time>2022-04-06T08:24:41Z</time>
      </trkpt>
      <trkpt lat="48.24425" lon="7.32359">
        <ele>592</ele>
        <time>2022-04-06T08:24:43Z</time>
      </trkpt>
      <trkpt lat="48.24416" lon="7.3236">
        <ele>594</ele>
        <time>2022-04-06T08:24:45Z</time>
      </trkpt>
      <trkpt lat="48.24409" lon="7.32366">
        <ele>596</ele>
        <time>2022-04-06T08:24:46Z</time>
      </trkpt>
      <trkpt lat="48.24405" lon="7.32374">
        <ele>597</ele>
        <time>2022-04-06T08:24:48Z</time>
      </trkpt>
      <trkpt lat="48.24401" lon="7.32387">
        <ele>597</ele>
        <time>2022-04-06T08:24:49Z</time>
      </trkpt>
      <trkpt lat="48.24401" lon="7.32403">
        <ele>595</ele>
        <time>2022-04-06T08:24:51Z</time>
      </trkpt>
      <trkpt lat="48.24405" lon="7.32632">
        <ele>581</ele>
        <time>2022-04-06T08:25:18Z</time>
      </trkpt>
      <trkpt lat="48.24404" lon="7.32642">
        <ele>581</ele>
        <time>2022-04-06T08:25:20Z</time>
      </trkpt>
      <trkpt lat="48.24396" lon="7.32661">
        <ele>581</ele>
        <time>2022-04-06T08:25:22Z</time>
      </trkpt>
      <trkpt lat="48.24411" lon="7.32693">
        <ele>580</ele>
        <time>2022-04-06T08:25:27Z</time>
      </trkpt>
      <trkpt lat="48.24418" lon="7.32718">
        <ele>580</ele>
        <time>2022-04-06T08:25:30Z</time>
      </trkpt>
      <trkpt lat="48.24427" lon="7.32805">
        <ele>575</ele>
        <time>2022-04-06T08:25:41Z</time>
      </trkpt>
      <trkpt lat="48.24434" lon="7.32827">
        <ele>575</ele>
        <time>2022-04-06T08:25:43Z</time>
      </trkpt>
      <trkpt lat="48.24458" lon="7.3288">
        <ele>571</ele>
        <time>2022-04-06T08:25:51Z</time>
      </trkpt>
      <trkpt lat="48.24481" lon="7.32935">
        <ele>570</ele>
        <time>2022-04-06T08:25:59Z</time>
      </trkpt>
      <trkpt lat="48.24489" lon="7.3297">
        <ele>568</ele>
        <time>2022-04-06T08:26:03Z</time>
      </trkpt>
      <trkpt lat="48.24494" lon="7.33005">
        <ele>566</ele>
        <time>2022-04-06T08:26:07Z</time>
      </trkpt>
      <trkpt lat="48.24498" lon="7.33069">
        <ele>564</ele>
        <time>2022-04-06T08:26:15Z</time>
      </trkpt>
      <trkpt lat="48.24499" lon="7.33133">
        <ele>563</ele>
        <time>2022-04-06T08:26:23Z</time>
      </trkpt>
      <trkpt lat="48.24492" lon="7.33218">
        <ele>559</ele>
        <time>2022-04-06T08:26:33Z</time>
      </trkpt>
      <trkpt lat="48.24482" lon="7.3329">
        <ele>553</ele>
        <time>2022-04-06T08:26:41Z</time>
      </trkpt>
      <trkpt lat="48.24481" lon="7.33325">
        <ele>551</ele>
        <time>2022-04-06T08:26:46Z</time>
      </trkpt>
      <trkpt lat="48.24487" lon="7.33387">
        <ele>550</ele>
        <time>2022-04-06T08:26:53Z</time>
      </trkpt>
      <trkpt lat="48.24491" lon="7.3354">
        <ele>541</ele>
        <time>2022-04-06T08:27:11Z</time>
      </trkpt>
      <trkpt lat="48.2449" lon="7.33559">
        <ele>539</ele>
        <time>2022-04-06T08:27:13Z</time>
      </trkpt>
      <trkpt lat="48.24472" lon="7.33699">
        <ele>530</ele>
        <time>2022-04-06T08:27:30Z</time>
      </trkpt>
      <trkpt lat="48.24479" lon="7.33702">
        <ele>533</ele>
        <time>2022-04-06T08:27:32Z</time>
      </trkpt>
      <trkpt lat="48.24485" lon="7.33713">
        <ele>535</ele>
        <time>2022-04-06T08:27:33Z</time>
      </trkpt>
      <trkpt lat="48.24488" lon="7.33735">
        <ele>536</ele>
        <time>2022-04-06T08:27:36Z</time>
      </trkpt>
      <trkpt lat="48.2449" lon="7.33789">
        <ele>534</ele>
        <time>2022-04-06T08:27:42Z</time>
      </trkpt>
      <trkpt lat="48.24492" lon="7.33806">
        <ele>534</ele>
        <time>2022-04-06T08:27:44Z</time>
      </trkpt>
      <trkpt lat="48.24498" lon="7.33819">
        <ele>535</ele>
        <time>2022-04-06T08:27:46Z</time>
      </trkpt>
      <trkpt lat="48.24514" lon="7.33839">
        <ele>540</ele>
        <time>2022-04-06T08:27:50Z</time>
      </trkpt>
      <trkpt lat="48.24523" lon="7.3386">
        <ele>543</ele>
        <time>2022-04-06T08:27:53Z</time>
      </trkpt>
      <trkpt lat="48.24526" lon="7.33877">
        <ele>543</ele>
        <time>2022-04-06T08:27:55Z</time>
      </trkpt>
      <trkpt lat="48.24526" lon="7.33895">
        <ele>542</ele>
        <time>2022-04-06T08:27:57Z</time>
      </trkpt>
      <trkpt lat="48.24521" lon="7.33972">
        <ele>541</ele>
        <time>2022-04-06T08:28:06Z</time>
      </trkpt>
      <trkpt lat="48.24523" lon="7.34002">
        <ele>542</ele>
        <time>2022-04-06T08:28:10Z</time>
      </trkpt>
      <trkpt lat="48.24553" lon="7.34129">
        <ele>554</ele>
        <time>2022-04-06T08:28:26Z</time>
      </trkpt>
      <trkpt lat="48.24575" lon="7.34342">
        <ele>560</ele>
        <time>2022-04-06T08:28:51Z</time>
      </trkpt>
      <trkpt lat="48.24585" lon="7.34381">
        <ele>560</ele>
        <time>2022-04-06T08:28:56Z</time>
      </trkpt>
      <trkpt lat="48.24626" lon="7.34488">
        <ele>563</ele>
        <time>2022-04-06T08:29:11Z</time>
      </trkpt>
      <trkpt lat="48.24632" lon="7.34507">
        <ele>564</ele>
        <time>2022-04-06T08:29:13Z</time>
      </trkpt>
      <trkpt lat="48.24649" lon="7.34611">
        <ele>560</ele>
        <time>2022-04-06T08:29:26Z</time>
      </trkpt>
      <trkpt lat="48.24648" lon="7.34627">
        <ele>559</ele>
        <time>2022-04-06T08:29:28Z</time>
      </trkpt>
      <trkpt lat="48.24642" lon="7.34667">
        <ele>554</ele>
        <time>2022-04-06T08:29:33Z</time>
      </trkpt>
      <trkpt lat="48.24642" lon="7.3468">
        <ele>553</ele>
        <time>2022-04-06T08:29:34Z</time>
      </trkpt>
      <trkpt lat="48.24646" lon="7.3469">
        <ele>553</ele>
        <time>2022-04-06T08:29:36Z</time>
      </trkpt>
      <trkpt lat="48.24649" lon="7.34695">
        <ele>553</ele>
        <time>2022-04-06T08:29:37Z</time>
      </trkpt>
      <trkpt lat="48.24662" lon="7.347">
        <ele>557</ele>
        <time>2022-04-06T08:29:39Z</time>
      </trkpt>
      <trkpt lat="48.24676" lon="7.34701">
        <ele>561</ele>
        <time>2022-04-06T08:29:42Z</time>
      </trkpt>
      <trkpt lat="48.24675" lon="7.34693">
        <ele>562</ele>
        <time>2022-04-06T08:29:42Z</time>
      </trkpt>
      <trkpt lat="48.24673" lon="7.34679">
        <ele>562</ele>
        <time>2022-04-06T08:29:44Z</time>
      </trkpt>
      <trkpt lat="48.24672" lon="7.34664">
        <ele>564</ele>
        <time>2022-04-06T08:29:46Z</time>
      </trkpt>
      <trkpt lat="48.24671" lon="7.3466">
        <ele>563</ele>
        <time>2022-04-06T08:29:46Z</time>
      </trkpt>
      <trkpt lat="48.24669" lon="7.34568">
        <ele>572</ele>
        <time>2022-04-06T08:29:57Z</time>
      </trkpt>
      <trkpt lat="48.24664" lon="7.34509">
        <ele>575</ele>
        <time>2022-04-06T08:30:04Z</time>
      </trkpt>
      <trkpt lat="48.24663" lon="7.34477">
        <ele>578</ele>
        <time>2022-04-06T08:30:08Z</time>
      </trkpt>
      <trkpt lat="48.24662" lon="7.3446">
        <ele>579</ele>
        <time>2022-04-06T08:30:10Z</time>
      </trkpt>
      <trkpt lat="48.24661" lon="7.34402">
        <ele>584</ele>
        <time>2022-04-06T08:30:17Z</time>
      </trkpt>
      <trkpt lat="48.24662" lon="7.34323">
        <ele>590</ele>
        <time>2022-04-06T08:30:26Z</time>
      </trkpt>
      <trkpt lat="48.24656" lon="7.34216">
        <ele>592</ele>
        <time>2022-04-06T08:30:39Z</time>
      </trkpt>
      <trkpt lat="48.24657" lon="7.34182">
        <ele>594</ele>
        <time>2022-04-06T08:30:43Z</time>
      </trkpt>
      <trkpt lat="48.2466" lon="7.34148">
        <ele>596</ele>
        <time>2022-04-06T08:30:47Z</time>
      </trkpt>
      <trkpt lat="48.24662" lon="7.34104">
        <ele>598</ele>
        <time>2022-04-06T08:30:53Z</time>
      </trkpt>
      <trkpt lat="48.24667" lon="7.34055">
        <ele>600</ele>
        <time>2022-04-06T08:30:58Z</time>
      </trkpt>
      <trkpt lat="48.24669" lon="7.33971">
        <ele>601</ele>
        <time>2022-04-06T08:31:08Z</time>
      </trkpt>
      <trkpt lat="48.24677" lon="7.33873">
        <ele>610</ele>
        <time>2022-04-06T08:31:20Z</time>
      </trkpt>
      <trkpt lat="48.2468" lon="7.33762">
        <ele>618</ele>
        <time>2022-04-06T08:31:33Z</time>
      </trkpt>
      <trkpt lat="48.24679" lon="7.33745">
        <ele>619</ele>
        <time>2022-04-06T08:31:35Z</time>
      </trkpt>
      <trkpt lat="48.24679" lon="7.33737">
        <ele>619</ele>
        <time>2022-04-06T08:31:36Z</time>
      </trkpt>
      <trkpt lat="48.24677" lon="7.33664">
        <ele>620</ele>
        <time>2022-04-06T08:31:45Z</time>
      </trkpt>
      <trkpt lat="48.24682" lon="7.33578">
        <ele>622</ele>
        <time>2022-04-06T08:31:55Z</time>
      </trkpt>
      <trkpt lat="48.24682" lon="7.33506">
        <ele>621</ele>
        <time>2022-04-06T08:32:04Z</time>
      </trkpt>
      <trkpt lat="48.24686" lon="7.33452">
        <ele>625</ele>
        <time>2022-04-06T08:32:10Z</time>
      </trkpt>
      <trkpt lat="48.24696" lon="7.3339">
        <ele>629</ele>
        <time>2022-04-06T08:32:18Z</time>
      </trkpt>
      <trkpt lat="48.24702" lon="7.33369">
        <ele>629</ele>
        <time>2022-04-06T08:32:20Z</time>
      </trkpt>
      <trkpt lat="48.24707" lon="7.33357">
        <ele>630</ele>
        <time>2022-04-06T08:32:22Z</time>
      </trkpt>
      <trkpt lat="48.24711" lon="7.33351">
        <ele>630</ele>
        <time>2022-04-06T08:32:23Z</time>
      </trkpt>
      <trkpt lat="48.2472" lon="7.33342">
        <ele>631</ele>
        <time>2022-04-06T08:32:25Z</time>
      </trkpt>
      <trkpt lat="48.24727" lon="7.3334">
        <ele>633</ele>
        <time>2022-04-06T08:32:26Z</time>
      </trkpt>
      <trkpt lat="48.24735" lon="7.3334">
        <ele>634</ele>
        <time>2022-04-06T08:32:28Z</time>
      </trkpt>
      <trkpt lat="48.24759" lon="7.33355">
        <ele>639</ele>
        <time>2022-04-06T08:32:32Z</time>
      </trkpt>
      <trkpt lat="48.24841" lon="7.33442">
        <ele>652</ele>
        <time>2022-04-06T08:32:50Z</time>
      </trkpt>
      <trkpt lat="48.2485" lon="7.33455">
        <ele>652</ele>
        <time>2022-04-06T08:32:52Z</time>
      </trkpt>
      <trkpt lat="48.24851" lon="7.33459">
        <ele>652</ele>
        <time>2022-04-06T08:32:53Z</time>
      </trkpt>
      <trkpt lat="48.24853" lon="7.33476">
        <ele>654</ele>
        <time>2022-04-06T08:32:55Z</time>
      </trkpt>
      <trkpt lat="48.2485" lon="7.33485">
        <ele>655</ele>
        <time>2022-04-06T08:32:56Z</time>
      </trkpt>
      <trkpt lat="48.24841" lon="7.33491">
        <ele>657</ele>
        <time>2022-04-06T08:32:58Z</time>
      </trkpt>
      <trkpt lat="48.24802" lon="7.33486">
        <ele>654</ele>
        <time>2022-04-06T08:33:05Z</time>
      </trkpt>
      <trkpt lat="48.24788" lon="7.33488">
        <ele>653</ele>
        <time>2022-04-06T08:33:07Z</time>
      </trkpt>
      <trkpt lat="48.24779" lon="7.33492">
        <ele>652</ele>
        <time>2022-04-06T08:33:09Z</time>
      </trkpt>
      <trkpt lat="48.24771" lon="7.33499">
        <ele>651</ele>
        <time>2022-04-06T08:33:11Z</time>
      </trkpt>
      <trkpt lat="48.24765" lon="7.33508">
        <ele>651</ele>
        <time>2022-04-06T08:33:12Z</time>
      </trkpt>
      <trkpt lat="48.24762" lon="7.33523">
        <ele>652</ele>
        <time>2022-04-06T08:33:14Z</time>
      </trkpt>
      <trkpt lat="48.24761" lon="7.33537">
        <ele>653</ele>
        <time>2022-04-06T08:33:16Z</time>
      </trkpt>
      <trkpt lat="48.24761" lon="7.33538">
        <ele>653</ele>
        <time>2022-04-06T08:33:16Z</time>
      </trkpt>
      <trkpt lat="48.2476" lon="7.33559">
        <ele>654</ele>
        <time>2022-04-06T08:33:18Z</time>
      </trkpt>
      <trkpt lat="48.2476" lon="7.33577">
        <ele>655</ele>
        <time>2022-04-06T08:33:20Z</time>
      </trkpt>
      <trkpt lat="48.24765" lon="7.33647">
        <ele>660</ele>
        <time>2022-04-06T08:33:29Z</time>
      </trkpt>
      <trkpt lat="48.24772" lon="7.33717">
        <ele>666</ele>
        <time>2022-04-06T08:33:37Z</time>
      </trkpt>
      <trkpt lat="48.24789" lon="7.33841">
        <ele>671</ele>
        <time>2022-04-06T08:33:52Z</time>
      </trkpt>
      <trkpt lat="48.24798" lon="7.33891">
        <ele>674</ele>
        <time>2022-04-06T08:33:58Z</time>
      </trkpt>
      <trkpt lat="48.2481" lon="7.33973">
        <ele>680</ele>
        <time>2022-04-06T08:34:08Z</time>
      </trkpt>
      <trkpt lat="48.24816" lon="7.3401">
        <ele>684</ele>
        <time>2022-04-06T08:34:13Z</time>
      </trkpt>
      <trkpt lat="48.24829" lon="7.34095">
        <ele>687</ele>
        <time>2022-04-06T08:34:23Z</time>
      </trkpt>
      <trkpt lat="48.24863" lon="7.34343">
        <ele>694</ele>
        <time>2022-04-06T08:34:53Z</time>
      </trkpt>
      <trkpt lat="48.24874" lon="7.34402">
        <ele>696</ele>
        <time>2022-04-06T08:35:00Z</time>
      </trkpt>
      <trkpt lat="48.24887" lon="7.34462">
        <ele>698</ele>
        <time>2022-04-06T08:35:08Z</time>
      </trkpt>
      <trkpt lat="48.24907" lon="7.34545">
        <ele>698</ele>
        <time>2022-04-06T08:35:18Z</time>
      </trkpt>
      <trkpt lat="48.24924" lon="7.346">
        <ele>694</ele>
        <time>2022-04-06T08:35:25Z</time>
      </trkpt>
      <trkpt lat="48.2494" lon="7.34627">
        <ele>690</ele>
        <time>2022-04-06T08:35:30Z</time>
      </trkpt>
      <trkpt lat="48.24949" lon="7.34629">
        <ele>690</ele>
        <time>2022-04-06T08:35:31Z</time>
      </trkpt>
      <trkpt lat="48.24955" lon="7.34626">
        <ele>691</ele>
        <time>2022-04-06T08:35:32Z</time>
      </trkpt>
      <trkpt lat="48.24961" lon="7.34621">
        <ele>693</ele>
        <time>2022-04-06T08:35:34Z</time>
      </trkpt>
      <trkpt lat="48.24968" lon="7.34613">
        <ele>695</ele>
        <time>2022-04-06T08:35:35Z</time>
      </trkpt>
      <trkpt lat="48.24975" lon="7.34601">
        <ele>698</ele>
        <time>2022-04-06T08:35:37Z</time>
      </trkpt>
      <trkpt lat="48.24982" lon="7.34583">
        <ele>702</ele>
        <time>2022-04-06T08:35:40Z</time>
      </trkpt>
      <trkpt lat="48.24996" lon="7.34524">
        <ele>709</ele>
        <time>2022-04-06T08:35:47Z</time>
      </trkpt>
      <trkpt lat="48.25002" lon="7.34477">
        <ele>711</ele>
        <time>2022-04-06T08:35:53Z</time>
      </trkpt>
      <trkpt lat="48.25008" lon="7.34366">
        <ele>711</ele>
        <time>2022-04-06T08:36:06Z</time>
      </trkpt>
      <trkpt lat="48.25008" lon="7.34275">
        <ele>711</ele>
        <time>2022-04-06T08:36:17Z</time>
      </trkpt>
      <trkpt lat="48.25008" lon="7.34262">
        <ele>711</ele>
        <time>2022-04-06T08:36:18Z</time>
      </trkpt>
      <trkpt lat="48.25008" lon="7.34215">
        <ele>710</ele>
        <time>2022-04-06T08:36:24Z</time>
      </trkpt>
      <trkpt lat="48.25024" lon="7.33904">
        <ele>687</ele>
        <time>2022-04-06T08:37:01Z</time>
      </trkpt>
      <trkpt lat="48.25021" lon="7.3382">
        <ele>678</ele>
        <time>2022-04-06T08:37:11Z</time>
      </trkpt>
      <trkpt lat="48.25015" lon="7.33758">
        <ele>672</ele>
        <time>2022-04-06T08:37:18Z</time>
      </trkpt>
      <trkpt lat="48.24998" lon="7.33701">
        <ele>669</ele>
        <time>2022-04-06T08:37:25Z</time>
      </trkpt>
      <trkpt lat="48.24947" lon="7.33617">
        <ele>666</ele>
        <time>2022-04-06T08:37:39Z</time>
      </trkpt>
      <trkpt lat="48.24887" lon="7.33531">
        <ele>660</ele>
        <time>2022-04-06T08:37:54Z</time>
      </trkpt>
      <trkpt lat="48.24851" lon="7.33459">
        <ele>652</ele>
        <time>2022-04-06T08:38:04Z</time>
      </trkpt>
      <trkpt lat="48.2485" lon="7.33455">
        <ele>652</ele>
        <time>2022-04-06T08:38:05Z</time>
      </trkpt>
      <trkpt lat="48.24841" lon="7.33442">
        <ele>652</ele>
        <time>2022-04-06T08:38:07Z</time>
      </trkpt>
      <trkpt lat="48.24759" lon="7.33355">
        <ele>639</ele>
        <time>2022-04-06T08:38:25Z</time>
      </trkpt>
      <trkpt lat="48.24735" lon="7.3334">
        <ele>634</ele>
        <time>2022-04-06T08:38:30Z</time>
      </trkpt>
      <trkpt lat="48.24727" lon="7.3334">
        <ele>633</ele>
        <time>2022-04-06T08:38:31Z</time>
      </trkpt>
      <trkpt lat="48.2472" lon="7.33342">
        <ele>631</ele>
        <time>2022-04-06T08:38:32Z</time>
      </trkpt>
      <trkpt lat="48.24711" lon="7.33351">
        <ele>630</ele>
        <time>2022-04-06T08:38:34Z</time>
      </trkpt>
      <trkpt lat="48.24707" lon="7.33357">
        <ele>630</ele>
        <time>2022-04-06T08:38:35Z</time>
      </trkpt>
      <trkpt lat="48.24702" lon="7.33369">
        <ele>629</ele>
        <time>2022-04-06T08:38:37Z</time>
      </trkpt>
      <trkpt lat="48.24696" lon="7.3339">
        <ele>629</ele>
        <time>2022-04-06T08:38:40Z</time>
      </trkpt>
      <trkpt lat="48.24686" lon="7.33452">
        <ele>625</ele>
        <time>2022-04-06T08:38:47Z</time>
      </trkpt>
      <trkpt lat="48.24682" lon="7.33506">
        <ele>621</ele>
        <time>2022-04-06T08:38:54Z</time>
      </trkpt>
      <trkpt lat="48.24682" lon="7.33578">
        <ele>622</ele>
        <time>2022-04-06T08:39:02Z</time>
      </trkpt>
      <trkpt lat="48.24677" lon="7.33664">
        <ele>620</ele>
        <time>2022-04-06T08:39:12Z</time>
      </trkpt>
      <trkpt lat="48.24679" lon="7.33737">
        <ele>619</ele>
        <time>2022-04-06T08:39:21Z</time>
      </trkpt>
      <trkpt lat="48.24679" lon="7.33745">
        <ele>619</ele>
        <time>2022-04-06T08:39:22Z</time>
      </trkpt>
      <trkpt lat="48.2468" lon="7.33762">
        <ele>618</ele>
        <time>2022-04-06T08:39:24Z</time>
      </trkpt>
      <trkpt lat="48.24677" lon="7.33873">
        <ele>610</ele>
        <time>2022-04-06T08:39:37Z</time>
      </trkpt>
      <trkpt lat="48.24669" lon="7.33971">
        <ele>601</ele>
        <time>2022-04-06T08:39:49Z</time>
      </trkpt>
      <trkpt lat="48.24667" lon="7.34055">
        <ele>600</ele>
        <time>2022-04-06T08:39:59Z</time>
      </trkpt>
      <trkpt lat="48.24662" lon="7.34104">
        <ele>598</ele>
        <time>2022-04-06T08:40:05Z</time>
      </trkpt>
      <trkpt lat="48.2466" lon="7.34148">
        <ele>596</ele>
        <time>2022-04-06T08:40:10Z</time>
      </trkpt>
      <trkpt lat="48.24657" lon="7.34182">
        <ele>594</ele>
        <time>2022-04-06T08:40:14Z</time>
      </trkpt>
      <trkpt lat="48.24656" lon="7.34216">
        <ele>592</ele>
        <time>2022-04-06T08:40:18Z</time>
      </trkpt>
      <trkpt lat="48.24662" lon="7.34323">
        <ele>590</ele>
        <time>2022-04-06T08:40:31Z</time>
      </trkpt>
      <trkpt lat="48.24661" lon="7.34402">
        <ele>584</ele>
        <time>2022-04-06T08:40:40Z</time>
      </trkpt>
      <trkpt lat="48.24662" lon="7.3446">
        <ele>579</ele>
        <time>2022-04-06T08:40:47Z</time>
      </trkpt>
      <trkpt lat="48.24663" lon="7.34477">
        <ele>578</ele>
        <time>2022-04-06T08:40:49Z</time>
      </trkpt>
      <trkpt lat="48.24664" lon="7.34509">
        <ele>575</ele>
        <time>2022-04-06T08:40:53Z</time>
      </trkpt>
      <trkpt lat="48.24669" lon="7.34568">
        <ele>572</ele>
        <time>2022-04-06T08:41:00Z</time>
      </trkpt>
      <trkpt lat="48.24671" lon="7.3466">
        <ele>563</ele>
        <time>2022-04-06T08:41:11Z</time>
      </trkpt>
      <trkpt lat="48.24672" lon="7.34664">
        <ele>564</ele>
        <time>2022-04-06T08:41:11Z</time>
      </trkpt>
      <trkpt lat="48.24673" lon="7.34679">
        <ele>562</ele>
        <time>2022-04-06T08:41:13Z</time>
      </trkpt>
      <trkpt lat="48.24675" lon="7.34693">
        <ele>562</ele>
        <time>2022-04-06T08:41:15Z</time>
      </trkpt>
      <trkpt lat="48.24676" lon="7.34701">
        <ele>561</ele>
        <time>2022-04-06T08:41:16Z</time>
      </trkpt>
      <trkpt lat="48.24662" lon="7.347">
        <ele>557</ele>
        <time>2022-04-06T08:41:18Z</time>
      </trkpt>
      <trkpt lat="48.24649" lon="7.34695">
        <ele>553</ele>
        <time>2022-04-06T08:41:21Z</time>
      </trkpt>
      <trkpt lat="48.24646" lon="7.3469">
        <ele>553</ele>
        <time>2022-04-06T08:41:21Z</time>
      </trkpt>
      <trkpt lat="48.24642" lon="7.3468">
        <ele>553</ele>
        <time>2022-04-06T08:41:23Z</time>
      </trkpt>
      <trkpt lat="48.24642" lon="7.34667">
        <ele>554</ele>
        <time>2022-04-06T08:41:24Z</time>
      </trkpt>
      <trkpt lat="48.24648" lon="7.34627">
        <ele>559</ele>
        <time>2022-04-06T08:41:29Z</time>
      </trkpt>
      <trkpt lat="48.24649" lon="7.34611">
        <ele>560</ele>
        <time>2022-04-06T08:41:31Z</time>
      </trkpt>
      <trkpt lat="48.24632" lon="7.34507">
        <ele>564</ele>
        <time>2022-04-06T08:41:44Z</time>
      </trkpt>
      <trkpt lat="48.24626" lon="7.34488">
        <ele>563</ele>
        <time>2022-04-06T08:41:46Z</time>
      </trkpt>
      <trkpt lat="48.24585" lon="7.34381">
        <ele>560</ele>
        <time>2022-04-06T08:42:01Z</time>
      </trkpt>
      <trkpt lat="48.24575" lon="7.34342">
        <ele>560</ele>
        <time>2022-04-06T08:42:06Z</time>
      </trkpt>
      <trkpt lat="48.24553" lon="7.34129">
        <ele>554</ele>
        <time>2022-04-06T08:42:31Z</time>
      </trkpt>
      <trkpt lat="48.24523" lon="7.34002">
        <ele>542</ele>
        <time>2022-04-06T08:42:47Z</time>
      </trkpt>
      <trkpt lat="48.24521" lon="7.33972">
        <ele>541</ele>
        <time>2022-04-06T08:42:51Z</time>
      </trkpt>
      <trkpt lat="48.24526" lon="7.33895">
        <ele>542</ele>
        <time>2022-04-06T08:43:00Z</time>
      </trkpt>
      <trkpt lat="48.24526" lon="7.33877">
        <ele>543</ele>
        <time>2022-04-06T08:43:02Z</time>
      </trkpt>
      <trkpt lat="48.24523" lon="7.3386">
        <ele>543</ele>
        <time>2022-04-06T08:43:04Z</time>
      </trkpt>
      <trkpt lat="48.24514" lon="7.33839">
        <ele>540</ele>
        <time>2022-04-06T08:43:07Z</time>
      </trkpt>
      <trkpt lat="48.24498" lon="7.33819">
        <ele>535</ele>
        <time>2022-04-06T08:43:11Z</time>
      </trkpt>
      <trkpt lat="48.24492" lon="7.33806">
        <ele>534</ele>
        <time>2022-04-06T08:43:13Z</time>
      </trkpt>
      <trkpt lat="48.2449" lon="7.33789">
        <ele>534</ele>
        <time>2022-04-06T08:43:15Z</time>
      </trkpt>
      <trkpt lat="48.24488" lon="7.33735">
        <ele>536</ele>
        <time>2022-04-06T08:43:21Z</time>
      </trkpt>
      <trkpt lat="48.24485" lon="7.33713">
        <ele>535</ele>
        <time>2022-04-06T08:43:24Z</time>
      </trkpt>
      <trkpt lat="48.24479" lon="7.33702">
        <ele>533</ele>
        <time>2022-04-06T08:43:26Z</time>
      </trkpt>
      <trkpt lat="48.24472" lon="7.33699">
        <ele>530</ele>
        <time>2022-04-06T08:43:27Z</time>
      </trkpt>
      <trkpt lat="48.2449" lon="7.33559">
        <ele>539</ele>
        <time>2022-04-06T08:43:44Z</time>
      </trkpt>
      <trkpt lat="48.24491" lon="7.3354">
        <ele>541</ele>
        <time>2022-04-06T08:43:46Z</time>
      </trkpt>
      <trkpt lat="48.24487" lon="7.33387">
        <ele>550</ele>
        <time>2022-04-06T08:44:04Z</time>
      </trkpt>
      <trkpt lat="48.24481" lon="7.33325">
        <ele>551</ele>
        <time>2022-04-06T08:44:12Z</time>
      </trkpt>
      <trkpt lat="48.24482" lon="7.3329">
        <ele>553</ele>
        <time>2022-04-06T08:44:16Z</time>
      </trkpt>
      <trkpt lat="48.24492" lon="7.33218">
        <ele>559</ele>
        <time>2022-04-06T08:44:25Z</time>
      </trkpt>
      <trkpt lat="48.24499" lon="7.33133">
        <ele>563</ele>
        <time>2022-04-06T08:44:35Z</time>
      </trkpt>
      <trkpt lat="48.24498" lon="7.33069">
        <ele>564</ele>
        <time>2022-04-06T08:44:42Z</time>
      </trkpt>
      <trkpt lat="48.24494" lon="7.33005">
        <ele>566</ele>
        <time>2022-04-06T08:44:50Z</time>
      </trkpt>
      <trkpt lat="48.24489" lon="7.3297">
        <ele>568</ele>
        <time>2022-04-06T08:44:54Z</time>
      </trkpt>
      <trkpt lat="48.24481" lon="7.32935">
        <ele>570</ele>
        <time>2022-04-06T08:44:58Z</time>
      </trkpt>
      <trkpt lat="48.24458" lon="7.3288">
        <ele>571</ele>
        <time>2022-04-06T08:45:06Z</time>
      </trkpt>
      <trkpt lat="48.24434" lon="7.32827">
        <ele>575</ele>
        <time>2022-04-06T08:45:14Z</time>
      </trkpt>
      <trkpt lat="48.24427" lon="7.32805">
        <ele>575</ele>
        <time>2022-04-06T08:45:17Z</time>
      </trkpt>
      <trkpt lat="48.24418" lon="7.32718">
        <ele>580</ele>
        <time>2022-04-06T08:45:27Z</time>
      </trkpt>
      <trkpt lat="48.24411" lon="7.32693">
        <ele>580</ele>
        <time>2022-04-06T08:45:30Z</time>
      </trkpt>
      <trkpt lat="48.24396" lon="7.32661">
        <ele>581</ele>
        <time>2022-04-06T08:45:35Z</time>
      </trkpt>
      <trkpt lat="48.24387" lon="7.32647">
        <ele>581</ele>
        <time>2022-04-06T08:45:37Z</time>
      </trkpt>
      <trkpt lat="48.24375" lon="7.32635">
        <ele>582</ele>
        <time>2022-04-06T08:45:40Z</time>
      </trkpt>
      <trkpt lat="48.24372" lon="7.32632">
        <ele>582</ele>
        <time>2022-04-06T08:45:40Z</time>
      </trkpt>
      <trkpt lat="48.2436" lon="7.32618">
        <ele>584</ele>
        <time>2022-04-06T08:45:43Z</time>
      </trkpt>
      <trkpt lat="48.24334" lon="7.32603">
        <ele>588</ele>
        <time>2022-04-06T08:45:48Z</time>
      </trkpt>
      <trkpt lat="48.24327" lon="7.32598">
        <ele>589</ele>
        <time>2022-04-06T08:45:49Z</time>
      </trkpt>
      <trkpt lat="48.24287" lon="7.32586">
        <ele>589</ele>
        <time>2022-04-06T08:45:57Z</time>
      </trkpt>
      <trkpt lat="48.24224" lon="7.32564">
        <ele>588</ele>
        <time>2022-04-06T08:46:08Z</time>
      </trkpt>
      <trkpt lat="48.242" lon="7.32555">
        <ele>587</ele>
        <time>2022-04-06T08:46:13Z</time>
      </trkpt>
      <trkpt lat="48.2418" lon="7.32548">
        <ele>585</ele>
        <time>2022-04-06T08:46:16Z</time>
      </trkpt>
      <trkpt lat="48.24175" lon="7.32546">
        <ele>585</ele>
        <time>2022-04-06T08:46:17Z</time>
      </trkpt>
      <trkpt lat="48.24131" lon="7.3253">
        <ele>584</ele>
        <time>2022-04-06T08:46:25Z</time>
      </trkpt>
      <trkpt lat="48.24095" lon="7.32508">
        <ele>584</ele>
        <time>2022-04-06T08:46:32Z</time>
      </trkpt>
      <trkpt lat="48.24049" lon="7.32471">
        <ele>587</ele>
        <time>2022-04-06T08:46:41Z</time>
      </trkpt>
      <trkpt lat="48.24034" lon="7.32461">
        <ele>588</ele>
        <time>2022-04-06T08:46:44Z</time>
      </trkpt>
      <trkpt lat="48.23961" lon="7.32438">
        <ele>586</ele>
        <time>2022-04-06T08:46:58Z</time>
      </trkpt>
      <trkpt lat="48.23955" lon="7.32434">
        <ele>586</ele>
        <time>2022-04-06T08:46:59Z</time>
      </trkpt>
      <trkpt lat="48.23947" lon="7.32424">
        <ele>586</ele>
        <time>2022-04-06T08:47:01Z</time>
      </trkpt>
      <trkpt lat="48.23945" lon="7.32421">
        <ele>585</ele>
        <time>2022-04-06T08:47:01Z</time>
      </trkpt>
      <trkpt lat="48.23939" lon="7.32406">
        <ele>585</ele>
        <time>2022-04-06T08:47:03Z</time>
      </trkpt>
      <trkpt lat="48.23929" lon="7.32365">
        <ele>581</ele>
        <time>2022-04-06T08:47:08Z</time>
      </trkpt>
      <trkpt lat="48.23924" lon="7.32329">
        <ele>577</ele>
        <time>2022-04-06T08:47:13Z</time>
      </trkpt>
      <trkpt lat="48.2393" lon="7.32264">
        <ele>579</ele>
        <time>2022-04-06T08:47:21Z</time>
      </trkpt>
      <trkpt lat="48.2393" lon="7.32213">
        <ele>576</ele>
        <time>2022-04-06T08:47:27Z</time>
      </trkpt>
      <trkpt lat="48.2392" lon="7.32128">
        <ele>567</ele>
        <time>2022-04-06T08:47:37Z</time>
      </trkpt>
      <trkpt lat="48.23919" lon="7.32084">
        <ele>564</ele>
        <time>2022-04-06T08:47:42Z</time>
      </trkpt>
      <trkpt lat="48.23921" lon="7.32062">
        <ele>564</ele>
        <time>2022-04-06T08:47:45Z</time>
      </trkpt>
      <trkpt lat="48.23934" lon="7.31997">
        <ele>565</ele>
        <time>2022-04-06T08:47:53Z</time>
      </trkpt>
      <trkpt lat="48.23939" lon="7.3198">
        <ele>567</ele>
        <time>2022-04-06T08:47:55Z</time>
      </trkpt>
      <trkpt lat="48.23951" lon="7.31958">
        <ele>571</ele>
        <time>2022-04-06T08:47:58Z</time>
      </trkpt>
      <trkpt lat="48.23956" lon="7.31945">
        <ele>573</ele>
        <time>2022-04-06T08:48:00Z</time>
      </trkpt>
      <trkpt lat="48.23956" lon="7.31933">
        <ele>574</ele>
        <time>2022-04-06T08:48:02Z</time>
      </trkpt>
      <trkpt lat="48.23954" lon="7.31924">
        <ele>574</ele>
        <time>2022-04-06T08:48:03Z</time>
      </trkpt>
      <trkpt lat="48.23943" lon="7.31903">
        <ele>572</ele>
        <time>2022-04-06T08:48:06Z</time>
      </trkpt>
      <trkpt lat="48.23917" lon="7.3187">
        <ele>567</ele>
        <time>2022-04-06T08:48:12Z</time>
      </trkpt>
      <trkpt lat="48.23905" lon="7.31863">
        <ele>566</ele>
        <time>2022-04-06T08:48:14Z</time>
      </trkpt>
      <trkpt lat="48.23886" lon="7.31858">
        <ele>564</ele>
        <time>2022-04-06T08:48:18Z</time>
      </trkpt>
      <trkpt lat="48.23832" lon="7.31863">
        <ele>557</ele>
        <time>2022-04-06T08:48:27Z</time>
      </trkpt>
      <trkpt lat="48.23789" lon="7.31872">
        <ele>551</ele>
        <time>2022-04-06T08:48:35Z</time>
      </trkpt>
      <trkpt lat="48.23773" lon="7.31873">
        <ele>549</ele>
        <time>2022-04-06T08:48:38Z</time>
      </trkpt>
      <trkpt lat="48.23763" lon="7.31871">
        <ele>548</ele>
        <time>2022-04-06T08:48:40Z</time>
      </trkpt>
      <trkpt lat="48.23757" lon="7.31866">
        <ele>548</ele>
        <time>2022-04-06T08:48:41Z</time>
      </trkpt>
      <trkpt lat="48.23751" lon="7.31856">
        <ele>548</ele>
        <time>2022-04-06T08:48:42Z</time>
      </trkpt>
      <trkpt lat="48.23749" lon="7.31845">
        <ele>549</ele>
        <time>2022-04-06T08:48:44Z</time>
      </trkpt>
      <trkpt lat="48.2375" lon="7.31831">
        <ele>551</ele>
        <time>2022-04-06T08:48:45Z</time>
      </trkpt>
      <trkpt lat="48.23756" lon="7.31816">
        <ele>552</ele>
        <time>2022-04-06T08:48:47Z</time>
      </trkpt>
      <trkpt lat="48.23783" lon="7.31772">
        <ele>554</ele>
        <time>2022-04-06T08:48:55Z</time>
      </trkpt>
      <trkpt lat="48.23788" lon="7.31751">
        <ele>555</ele>
        <time>2022-04-06T08:48:57Z</time>
      </trkpt>
      <trkpt lat="48.23798" lon="7.31678">
        <ele>551</ele>
        <time>2022-04-06T08:49:06Z</time>
      </trkpt>
      <trkpt lat="48.2381" lon="7.31643">
        <ele>552</ele>
        <time>2022-04-06T08:49:11Z</time>
      </trkpt>
      <trkpt lat="48.23818" lon="7.31625">
        <ele>553</ele>
        <time>2022-04-06T08:49:13Z</time>
      </trkpt>
      <trkpt lat="48.23819" lon="7.31613">
        <ele>554</ele>
        <time>2022-04-06T08:49:15Z</time>
      </trkpt>
      <trkpt lat="48.2382" lon="7.31609">
        <ele>554</ele>
        <time>2022-04-06T08:49:15Z</time>
      </trkpt>
      <trkpt lat="48.23817" lon="7.31598">
        <ele>554</ele>
        <time>2022-04-06T08:49:17Z</time>
      </trkpt>
      <trkpt lat="48.2381" lon="7.31592">
        <ele>555</ele>
        <time>2022-04-06T08:49:18Z</time>
      </trkpt>
      <trkpt lat="48.23802" lon="7.31595">
        <ele>555</ele>
        <time>2022-04-06T08:49:20Z</time>
      </trkpt>
      <trkpt lat="48.2376" lon="7.31626">
        <ele>552</ele>
        <time>2022-04-06T08:49:28Z</time>
      </trkpt>
      <trkpt lat="48.23691" lon="7.31669">
        <ele>540</ele>
        <time>2022-04-06T08:49:41Z</time>
      </trkpt>
      <trkpt lat="48.23673" lon="7.31678">
        <ele>538</ele>
        <time>2022-04-06T08:49:45Z</time>
      </trkpt>
      <trkpt lat="48.23645" lon="7.31684">
        <ele>534</ele>
        <time>2022-04-06T08:49:50Z</time>
      </trkpt>
      <trkpt lat="48.23631" lon="7.3168">
        <ele>532</ele>
        <time>2022-04-06T08:49:52Z</time>
      </trkpt>
      <trkpt lat="48.23617" lon="7.31673">
        <ele>530</ele>
        <time>2022-04-06T08:49:55Z</time>
      </trkpt>
      <trkpt lat="48.23608" lon="7.31668">
        <ele>529</ele>
        <time>2022-04-06T08:49:56Z</time>
      </trkpt>
      <trkpt lat="48.23583" lon="7.31652">
        <ele>526</ele>
        <time>2022-04-06T08:50:01Z</time>
      </trkpt>
      <trkpt lat="48.23541" lon="7.31628">
        <ele>522</ele>
        <time>2022-04-06T08:50:09Z</time>
      </trkpt>
      <trkpt lat="48.23525" lon="7.31609">
        <ele>521</ele>
        <time>2022-04-06T08:50:13Z</time>
      </trkpt>
      <trkpt lat="48.23519" lon="7.31595">
        <ele>521</ele>
        <time>2022-04-06T08:50:15Z</time>
      </trkpt>
      <trkpt lat="48.23515" lon="7.31581">
        <ele>521</ele>
        <time>2022-04-06T08:50:17Z</time>
      </trkpt>
      <trkpt lat="48.23515" lon="7.3155">
        <ele>520</ele>
        <time>2022-04-06T08:50:20Z</time>
      </trkpt>
      <trkpt lat="48.23523" lon="7.31526">
        <ele>520</ele>
        <time>2022-04-06T08:50:24Z</time>
      </trkpt>
      <trkpt lat="48.23531" lon="7.31513">
        <ele>521</ele>
        <time>2022-04-06T08:50:26Z</time>
      </trkpt>
      <trkpt lat="48.23542" lon="7.31497">
        <ele>521</ele>
        <time>2022-04-06T08:50:28Z</time>
      </trkpt>
      <trkpt lat="48.23554" lon="7.3148">
        <ele>521</ele>
        <time>2022-04-06T08:50:31Z</time>
      </trkpt>
      <trkpt lat="48.23563" lon="7.31459">
        <ele>521</ele>
        <time>2022-04-06T08:50:34Z</time>
      </trkpt>
      <trkpt lat="48.23567" lon="7.31443">
        <ele>520</ele>
        <time>2022-04-06T08:50:36Z</time>
      </trkpt>
      <trkpt lat="48.23604" lon="7.31251">
        <ele>512</ele>
        <time>2022-04-06T08:51:00Z</time>
      </trkpt>
      <trkpt lat="48.236" lon="7.31237">
        <ele>510</ele>
        <time>2022-04-06T08:51:02Z</time>
      </trkpt>
      <trkpt lat="48.23572" lon="7.31179">
        <ele>502</ele>
        <time>2022-04-06T08:51:10Z</time>
      </trkpt>
      <trkpt lat="48.23567" lon="7.31161">
        <ele>501</ele>
        <time>2022-04-06T08:51:13Z</time>
      </trkpt>
      <trkpt lat="48.23557" lon="7.31002">
        <ele>492</ele>
        <time>2022-04-06T08:51:31Z</time>
      </trkpt>
      <trkpt lat="48.23553" lon="7.30941">
        <ele>487</ele>
        <time>2022-04-06T08:51:39Z</time>
      </trkpt>
      <trkpt lat="48.23553" lon="7.3093">
        <ele>486</ele>
        <time>2022-04-06T08:51:40Z</time>
      </trkpt>
      <trkpt lat="48.23553" lon="7.30928">
        <ele>486</ele>
        <time>2022-04-06T08:51:40Z</time>
      </trkpt>
      <trkpt lat="48.23552" lon="7.30902">
        <ele>485</ele>
        <time>2022-04-06T08:51:43Z</time>
      </trkpt>
      <trkpt lat="48.23548" lon="7.30875">
        <ele>484</ele>
        <time>2022-04-06T08:51:47Z</time>
      </trkpt>
      <trkpt lat="48.23545" lon="7.30866">
        <ele>483</ele>
        <time>2022-04-06T08:51:48Z</time>
      </trkpt>
      <trkpt lat="48.2354" lon="7.30858">
        <ele>482</ele>
        <time>2022-04-06T08:51:49Z</time>
      </trkpt>
      <trkpt lat="48.23509" lon="7.30828">
        <ele>477</ele>
        <time>2022-04-06T08:51:56Z</time>
      </trkpt>
      <trkpt lat="48.23494" lon="7.30807">
        <ele>475</ele>
        <time>2022-04-06T08:51:59Z</time>
      </trkpt>
      <trkpt lat="48.23487" lon="7.30794">
        <ele>475</ele>
        <time>2022-04-06T08:52:01Z</time>
      </trkpt>
      <trkpt lat="48.23477" lon="7.30769">
        <ele>475</ele>
        <time>2022-04-06T08:52:05Z</time>
      </trkpt>
      <trkpt lat="48.23472" lon="7.3075">
        <ele>475</ele>
        <time>2022-04-06T08:52:07Z</time>
      </trkpt>
      <trkpt lat="48.23461" lon="7.30684">
        <ele>476</ele>
        <time>2022-04-06T08:52:15Z</time>
      </trkpt>
      <trkpt lat="48.23458" lon="7.30674">
        <ele>476</ele>
        <time>2022-04-06T08:52:17Z</time>
      </trkpt>
      <trkpt lat="48.23453" lon="7.30662">
        <ele>476</ele>
        <time>2022-04-06T08:52:18Z</time>
      </trkpt>
      <trkpt lat="48.23442" lon="7.30646">
        <ele>475</ele>
        <time>2022-04-06T08:52:21Z</time>
      </trkpt>
      <trkpt lat="48.23429" lon="7.30638">
        <ele>474</ele>
        <time>2022-04-06T08:52:23Z</time>
      </trkpt>
      <trkpt lat="48.23413" lon="7.30639">
        <ele>473</ele>
        <time>2022-04-06T08:52:26Z</time>
      </trkpt>
      <trkpt lat="48.23372" lon="7.30656">
        <ele>473</ele>
        <time>2022-04-06T08:52:34Z</time>
      </trkpt>
      <trkpt lat="48.23355" lon="7.3066">
        <ele>473</ele>
        <time>2022-04-06T08:52:37Z</time>
      </trkpt>
      <trkpt lat="48.23338" lon="7.30657">
        <ele>474</ele>
        <time>2022-04-06T08:52:40Z</time>
      </trkpt>
      <trkpt lat="48.2332" lon="7.30649">
        <ele>474</ele>
        <time>2022-04-06T08:52:43Z</time>
      </trkpt>
      <trkpt lat="48.23301" lon="7.30636">
        <ele>473</ele>
        <time>2022-04-06T08:52:47Z</time>
      </trkpt>
      <trkpt lat="48.23286" lon="7.30619">
        <ele>473</ele>
        <time>2022-04-06T08:52:50Z</time>
      </trkpt>
      <trkpt lat="48.23278" lon="7.30602">
        <ele>473</ele>
        <time>2022-04-06T08:52:53Z</time>
      </trkpt>
      <trkpt lat="48.23275" lon="7.30576">
        <ele>474</ele>
        <time>2022-04-06T08:52:56Z</time>
      </trkpt>
      <trkpt lat="48.23267" lon="7.30342">
        <ele>482</ele>
        <time>2022-04-06T08:53:24Z</time>
      </trkpt>
      <trkpt lat="48.23263" lon="7.30287">
        <ele>483</ele>
        <time>2022-04-06T08:53:30Z</time>
      </trkpt>
      <trkpt lat="48.23258" lon="7.30255">
        <ele>483</ele>
        <time>2022-04-06T08:53:34Z</time>
      </trkpt>
      <trkpt lat="48.23234" lon="7.3013">
        <ele>486</ele>
        <time>2022-04-06T08:53:50Z</time>
      </trkpt>
      <trkpt lat="48.23214" lon="7.30046">
        <ele>488</ele>
        <time>2022-04-06T08:54:00Z</time>
      </trkpt>
      <trkpt lat="48.23209" lon="7.30036">
        <ele>488</ele>
        <time>2022-04-06T08:54:02Z</time>
      </trkpt>
      <trkpt lat="48.23201" lon="7.30028">
        <ele>488</ele>
        <time>2022-04-06T08:54:03Z</time>
      </trkpt>
      <trkpt lat="48.23188" lon="7.30026">
        <ele>486</ele>
        <time>2022-04-06T08:54:06Z</time>
      </trkpt>
      <trkpt lat="48.23178" lon="7.30033">
        <ele>485</ele>
        <time>2022-04-06T08:54:08Z</time>
      </trkpt>
      <trkpt lat="48.23174" lon="7.30041">
        <ele>484</ele>
        <time>2022-04-06T08:54:09Z</time>
      </trkpt>
      <trkpt lat="48.23156" lon="7.30086">
        <ele>480</ele>
        <time>2022-04-06T08:54:15Z</time>
      </trkpt>
      <trkpt lat="48.2315" lon="7.30097">
        <ele>480</ele>
        <time>2022-04-06T08:54:17Z</time>
      </trkpt>
      <trkpt lat="48.23141" lon="7.30105">
        <ele>479</ele>
        <time>2022-04-06T08:54:19Z</time>
      </trkpt>
      <trkpt lat="48.23074" lon="7.30145">
        <ele>481</ele>
        <time>2022-04-06T08:54:31Z</time>
      </trkpt>
      <trkpt lat="48.23069" lon="7.30154">
        <ele>481</ele>
        <time>2022-04-06T08:54:33Z</time>
      </trkpt>
      <trkpt lat="48.23048" lon="7.30218">
        <ele>480</ele>
        <time>2022-04-06T08:54:41Z</time>
      </trkpt>
      <trkpt lat="48.23032" lon="7.30255">
        <ele>481</ele>
        <time>2022-04-06T08:54:47Z</time>
      </trkpt>
      <trkpt lat="48.22935" lon="7.30428">
        <ele>474</ele>
        <time>2022-04-06T08:55:13Z</time>
      </trkpt>
      <trkpt lat="48.22899" lon="7.30486">
        <ele>475</ele>
        <time>2022-04-06T08:55:23Z</time>
      </trkpt>
      <trkpt lat="48.22886" lon="7.30502">
        <ele>475</ele>
        <time>2022-04-06T08:55:26Z</time>
      </trkpt>
      <trkpt lat="48.22844" lon="7.30546">
        <ele>474</ele>
        <time>2022-04-06T08:55:35Z</time>
      </trkpt>
      <trkpt lat="48.22835" lon="7.30554">
        <ele>474</ele>
        <time>2022-04-06T08:55:37Z</time>
      </trkpt>
      <trkpt lat="48.22828" lon="7.30555">
        <ele>473</ele>
        <time>2022-04-06T08:55:38Z</time>
      </trkpt>
      <trkpt lat="48.22805" lon="7.3055">
        <ele>471</ele>
        <time>2022-04-06T08:55:42Z</time>
      </trkpt>
      <trkpt lat="48.22794" lon="7.30542">
        <ele>470</ele>
        <time>2022-04-06T08:55:44Z</time>
      </trkpt>
      <trkpt lat="48.22753" lon="7.3046">
        <ele>469</ele>
        <time>2022-04-06T08:55:56Z</time>
      </trkpt>
      <trkpt lat="48.22747" lon="7.30451">
        <ele>469</ele>
        <time>2022-04-06T08:55:58Z</time>
      </trkpt>
      <trkpt lat="48.22733" lon="7.3044">
        <ele>468</ele>
        <time>2022-04-06T08:56:01Z</time>
      </trkpt>
      <trkpt lat="48.22711" lon="7.30437">
        <ele>467</ele>
        <time>2022-04-06T08:56:05Z</time>
      </trkpt>
      <trkpt lat="48.227" lon="7.30445">
        <ele>465</ele>
        <time>2022-04-06T08:56:07Z</time>
      </trkpt>
      <trkpt lat="48.22698" lon="7.3045">
        <ele>465</ele>
        <time>2022-04-06T08:56:08Z</time>
      </trkpt>
      <trkpt lat="48.22696" lon="7.30456">
        <ele>464</ele>
        <time>2022-04-06T08:56:08Z</time>
      </trkpt>
      <trkpt lat="48.22697" lon="7.3047">
        <ele>463</ele>
        <time>2022-04-06T08:56:10Z</time>
      </trkpt>
      <trkpt lat="48.22703" lon="7.30481">
        <ele>463</ele>
        <time>2022-04-06T08:56:12Z</time>
      </trkpt>
      <trkpt lat="48.22719" lon="7.30488">
        <ele>464</ele>
        <time>2022-04-06T08:56:15Z</time>
      </trkpt>
      <trkpt lat="48.22728" lon="7.30494">
        <ele>464</ele>
        <time>2022-04-06T08:56:16Z</time>
      </trkpt>
      <trkpt lat="48.22734" lon="7.30505">
        <ele>464</ele>
        <time>2022-04-06T08:56:18Z</time>
      </trkpt>
      <trkpt lat="48.22734" lon="7.30517">
        <ele>464</ele>
        <time>2022-04-06T08:56:20Z</time>
      </trkpt>
      <trkpt lat="48.22729" lon="7.3053">
        <ele>463</ele>
        <time>2022-04-06T08:56:21Z</time>
      </trkpt>
      <trkpt lat="48.22707" lon="7.30561">
        <ele>459</ele>
        <time>2022-04-06T08:56:27Z</time>
      </trkpt>
      <trkpt lat="48.22701" lon="7.30569">
        <ele>458</ele>
        <time>2022-04-06T08:56:28Z</time>
      </trkpt>
      <trkpt lat="48.22673" lon="7.30618">
        <ele>455</ele>
        <time>2022-04-06T08:56:36Z</time>
      </trkpt>
      <trkpt lat="48.22672" lon="7.3062">
        <ele>454</ele>
        <time>2022-04-06T08:56:36Z</time>
      </trkpt>
      <trkpt lat="48.22646" lon="7.30649">
        <ele>452</ele>
        <time>2022-04-06T08:56:42Z</time>
      </trkpt>
      <trkpt lat="48.22636" lon="7.30667">
        <ele>450</ele>
        <time>2022-04-06T08:56:45Z</time>
      </trkpt>
      <trkpt lat="48.22634" lon="7.30686">
        <ele>448</ele>
        <time>2022-04-06T08:56:47Z</time>
      </trkpt>
      <trkpt lat="48.22636" lon="7.30712">
        <ele>446</ele>
        <time>2022-04-06T08:56:50Z</time>
      </trkpt>
      <trkpt lat="48.22645" lon="7.30743">
        <ele>445</ele>
        <time>2022-04-06T08:56:54Z</time>
      </trkpt>
      <trkpt lat="48.22649" lon="7.30752">
        <ele>445</ele>
        <time>2022-04-06T08:56:55Z</time>
      </trkpt>
      <trkpt lat="48.22658" lon="7.30774">
        <ele>444</ele>
        <time>2022-04-06T08:56:58Z</time>
      </trkpt>
      <trkpt lat="48.22671" lon="7.30801">
        <ele>442</ele>
        <time>2022-04-06T08:57:02Z</time>
      </trkpt>
      <trkpt lat="48.22688" lon="7.30839">
        <ele>439</ele>
        <time>2022-04-06T08:57:08Z</time>
      </trkpt>
      <trkpt lat="48.22708" lon="7.30871">
        <ele>435</ele>
        <time>2022-04-06T08:57:13Z</time>
      </trkpt>
      <trkpt lat="48.22727" lon="7.30893">
        <ele>432</ele>
        <time>2022-04-06T08:57:17Z</time>
      </trkpt>
      <trkpt lat="48.22745" lon="7.30901">
        <ele>432</ele>
        <time>2022-04-06T08:57:21Z</time>
      </trkpt>
      <trkpt lat="48.22749" lon="7.30899">
        <ele>432</ele>
        <time>2022-04-06T08:57:21Z</time>
      </trkpt>
      <trkpt lat="48.22763" lon="7.30898">
        <ele>431</ele>
        <time>2022-04-06T08:57:24Z</time>
      </trkpt>
      <trkpt lat="48.22783" lon="7.30884">
        <ele>431</ele>
        <time>2022-04-06T08:57:28Z</time>
      </trkpt>
      <trkpt lat="48.22844" lon="7.3083">
        <ele>437</ele>
        <time>2022-04-06T08:57:40Z</time>
      </trkpt>
      <trkpt lat="48.22926" lon="7.30795">
        <ele>438</ele>
        <time>2022-04-06T08:57:55Z</time>
      </trkpt>
      <trkpt lat="48.22979" lon="7.30784">
        <ele>438</ele>
        <time>2022-04-06T08:58:05Z</time>
      </trkpt>
      <trkpt lat="48.2299" lon="7.30784">
        <ele>437</ele>
        <time>2022-04-06T08:58:07Z</time>
      </trkpt>
      <trkpt lat="48.22998" lon="7.30793">
        <ele>436</ele>
        <time>2022-04-06T08:58:09Z</time>
      </trkpt>
      <trkpt lat="48.23002" lon="7.30801">
        <ele>435</ele>
        <time>2022-04-06T08:58:10Z</time>
      </trkpt>
      <trkpt lat="48.23004" lon="7.30816">
        <ele>434</ele>
        <time>2022-04-06T08:58:12Z</time>
      </trkpt>
      <trkpt lat="48.23003" lon="7.30826">
        <ele>433</ele>
        <time>2022-04-06T08:58:13Z</time>
      </trkpt>
      <trkpt lat="48.22997" lon="7.30837">
        <ele>433</ele>
        <time>2022-04-06T08:58:15Z</time>
      </trkpt>
      <trkpt lat="48.22987" lon="7.30847">
        <ele>435</ele>
        <time>2022-04-06T08:58:17Z</time>
      </trkpt>
      <trkpt lat="48.22929" lon="7.30862">
        <ele>431</ele>
        <time>2022-04-06T08:58:27Z</time>
      </trkpt>
      <trkpt lat="48.22916" lon="7.30869">
        <ele>429</ele>
        <time>2022-04-06T08:58:30Z</time>
      </trkpt>
      <trkpt lat="48.2286" lon="7.30924">
        <ele>423</ele>
        <time>2022-04-06T08:58:42Z</time>
      </trkpt>
      <trkpt lat="48.22839" lon="7.3095">
        <ele>421</ele>
        <time>2022-04-06T08:58:46Z</time>
      </trkpt>
      <trkpt lat="48.22824" lon="7.30974">
        <ele>420</ele>
        <time>2022-04-06T08:58:50Z</time>
      </trkpt>
      <trkpt lat="48.22808" lon="7.31007">
        <ele>420</ele>
        <time>2022-04-06T08:58:55Z</time>
      </trkpt>
      <trkpt lat="48.22792" lon="7.3103">
        <ele>420</ele>
        <time>2022-04-06T08:58:59Z</time>
      </trkpt>
      <trkpt lat="48.22768" lon="7.31049">
        <ele>416</ele>
        <time>2022-04-06T08:59:04Z</time>
      </trkpt>
      <trkpt lat="48.22748" lon="7.31069">
        <ele>411</ele>
        <time>2022-04-06T08:59:08Z</time>
      </trkpt>
      <trkpt lat="48.22719" lon="7.31119">
        <ele>414</ele>
        <time>2022-04-06T08:59:16Z</time>
      </trkpt>
      <trkpt lat="48.22712" lon="7.31125">
        <ele>414</ele>
        <time>2022-04-06T08:59:17Z</time>
      </trkpt>
      <trkpt lat="48.22704" lon="7.31128">
        <ele>413</ele>
        <time>2022-04-06T08:59:19Z</time>
      </trkpt>
      <trkpt lat="48.22697" lon="7.31126">
        <ele>411</ele>
        <time>2022-04-06T08:59:20Z</time>
      </trkpt>
      <trkpt lat="48.22691" lon="7.3112">
        <ele>408</ele>
        <time>2022-04-06T08:59:22Z</time>
      </trkpt>
      <trkpt lat="48.22685" lon="7.31111">
        <ele>406</ele>
        <time>2022-04-06T08:59:23Z</time>
      </trkpt>
      <trkpt lat="48.22682" lon="7.311">
        <ele>403</ele>
        <time>2022-04-06T08:59:24Z</time>
      </trkpt>
      <trkpt lat="48.2268" lon="7.31043">
        <ele>402</ele>
        <time>2022-04-06T08:59:31Z</time>
      </trkpt>
      <trkpt lat="48.22678" lon="7.3103">
        <ele>402</ele>
        <time>2022-04-06T08:59:33Z</time>
      </trkpt>
      <trkpt lat="48.22674" lon="7.31019">
        <ele>402</ele>
        <time>2022-04-06T08:59:34Z</time>
      </trkpt>
      <trkpt lat="48.22666" lon="7.31009">
        <ele>402</ele>
        <time>2022-04-06T08:59:36Z</time>
      </trkpt>
      <trkpt lat="48.22658" lon="7.31006">
        <ele>402</ele>
        <time>2022-04-06T08:59:38Z</time>
      </trkpt>
      <trkpt lat="48.2265" lon="7.31007">
        <ele>403</ele>
        <time>2022-04-06T08:59:39Z</time>
      </trkpt>
      <trkpt lat="48.22642" lon="7.31013">
        <ele>403</ele>
        <time>2022-04-06T08:59:41Z</time>
      </trkpt>
      <trkpt lat="48.22631" lon="7.31031">
        <ele>402</ele>
        <time>2022-04-06T08:59:43Z</time>
      </trkpt>
      <trkpt lat="48.22593" lon="7.31082">
        <ele>397</ele>
        <time>2022-04-06T08:59:53Z</time>
      </trkpt>
      <trkpt lat="48.22589" lon="7.31095">
        <ele>396</ele>
        <time>2022-04-06T08:59:54Z</time>
      </trkpt>
      <trkpt lat="48.22589" lon="7.31125">
        <ele>394</ele>
        <time>2022-04-06T08:59:58Z</time>
      </trkpt>
      <trkpt lat="48.22592" lon="7.31148">
        <ele>393</ele>
        <time>2022-04-06T09:00:01Z</time>
      </trkpt>
      <trkpt lat="48.22591" lon="7.31184">
        <ele>392</ele>
        <time>2022-04-06T09:00:05Z</time>
      </trkpt>
      <trkpt lat="48.2257" lon="7.31288">
        <ele>391</ele>
        <time>2022-04-06T09:00:18Z</time>
      </trkpt>
      <trkpt lat="48.22559" lon="7.31323">
        <ele>390</ele>
        <time>2022-04-06T09:00:22Z</time>
      </trkpt>
      <trkpt lat="48.22546" lon="7.31343">
        <ele>389</ele>
        <time>2022-04-06T09:00:26Z</time>
      </trkpt>
      <trkpt lat="48.22533" lon="7.31354">
        <ele>388</ele>
        <time>2022-04-06T09:00:28Z</time>
      </trkpt>
      <trkpt lat="48.22499" lon="7.31365">
        <ele>383</ele>
        <time>2022-04-06T09:00:34Z</time>
      </trkpt>
      <trkpt lat="48.22482" lon="7.31374">
        <ele>381</ele>
        <time>2022-04-06T09:00:38Z</time>
      </trkpt>
      <trkpt lat="48.2246" lon="7.31394">
        <ele>377</ele>
        <time>2022-04-06T09:00:42Z</time>
      </trkpt>
      <trkpt lat="48.22426" lon="7.31428">
        <ele>370</ele>
        <time>2022-04-06T09:00:50Z</time>
      </trkpt>
      <trkpt lat="48.22418" lon="7.31432">
        <ele>368</ele>
        <time>2022-04-06T09:00:51Z</time>
      </trkpt>
      <trkpt lat="48.2241" lon="7.3143">
        <ele>368</ele>
        <time>2022-04-06T09:00:52Z</time>
      </trkpt>
      <trkpt lat="48.22393" lon="7.31415">
        <ele>370</ele>
        <time>2022-04-06T09:00:56Z</time>
      </trkpt>
      <trkpt lat="48.2238" lon="7.31399">
        <ele>373</ele>
        <time>2022-04-06T09:00:59Z</time>
      </trkpt>
      <trkpt lat="48.22369" lon="7.31398">
        <ele>374</ele>
        <time>2022-04-06T09:01:01Z</time>
      </trkpt>
      <trkpt lat="48.22362" lon="7.31402">
        <ele>374</ele>
        <time>2022-04-06T09:01:02Z</time>
      </trkpt>
      <trkpt lat="48.22357" lon="7.31412">
        <ele>372</ele>
        <time>2022-04-06T09:01:04Z</time>
      </trkpt>
      <trkpt lat="48.22351" lon="7.3143">
        <ele>371</ele>
        <time>2022-04-06T09:01:06Z</time>
      </trkpt>
      <trkpt lat="48.22351" lon="7.31455">
        <ele>368</ele>
        <time>2022-04-06T09:01:09Z</time>
      </trkpt>
      <trkpt lat="48.22359" lon="7.31501">
        <ele>364</ele>
        <time>2022-04-06T09:01:15Z</time>
      </trkpt>
      <trkpt lat="48.22359" lon="7.31521">
        <ele>362</ele>
        <time>2022-04-06T09:01:17Z</time>
      </trkpt>
      <trkpt lat="48.22343" lon="7.31591">
        <ele>351</ele>
        <time>2022-04-06T09:01:26Z</time>
      </trkpt>
      <trkpt lat="48.22336" lon="7.31612">
        <ele>348</ele>
        <time>2022-04-06T09:01:29Z</time>
      </trkpt>
      <trkpt lat="48.2233" lon="7.3162">
        <ele>347</ele>
        <time>2022-04-06T09:01:30Z</time>
      </trkpt>
      <trkpt lat="48.2232" lon="7.31625">
        <ele>347</ele>
        <time>2022-04-06T09:01:32Z</time>
      </trkpt>
      <trkpt lat="48.22248" lon="7.31639">
        <ele>345</ele>
        <time>2022-04-06T09:01:45Z</time>
      </trkpt>
      <trkpt lat="48.22214" lon="7.3165">
        <ele>345</ele>
        <time>2022-04-06T09:01:51Z</time>
      </trkpt>
      <trkpt lat="48.22202" lon="7.31661">
        <ele>344</ele>
        <time>2022-04-06T09:01:54Z</time>
      </trkpt>
      <trkpt lat="48.22195" lon="7.31675">
        <ele>343</ele>
        <time>2022-04-06T09:01:56Z</time>
      </trkpt>
      <trkpt lat="48.22189" lon="7.31696">
        <ele>342</ele>
        <time>2022-04-06T09:01:58Z</time>
      </trkpt>
      <trkpt lat="48.22184" lon="7.31722">
        <ele>340</ele>
        <time>2022-04-06T09:02:02Z</time>
      </trkpt>
      <trkpt lat="48.22177" lon="7.31783">
        <ele>334</ele>
        <time>2022-04-06T09:02:09Z</time>
      </trkpt>
      <trkpt lat="48.22177" lon="7.3181">
        <ele>333</ele>
        <time>2022-04-06T09:02:12Z</time>
      </trkpt>
      <trkpt lat="48.22181" lon="7.31838">
        <ele>333</ele>
        <time>2022-04-06T09:02:16Z</time>
      </trkpt>
      <trkpt lat="48.22191" lon="7.31882">
        <ele>335</ele>
        <time>2022-04-06T09:02:21Z</time>
      </trkpt>
      <trkpt lat="48.22203" lon="7.31922">
        <ele>336</ele>
        <time>2022-04-06T09:02:26Z</time>
      </trkpt>
      <trkpt lat="48.22219" lon="7.31966">
        <ele>333</ele>
        <time>2022-04-06T09:02:32Z</time>
      </trkpt>
      <trkpt lat="48.22226" lon="7.31996">
        <ele>330</ele>
        <time>2022-04-06T09:02:36Z</time>
      </trkpt>
      <trkpt lat="48.22231" lon="7.32021">
        <ele>329</ele>
        <time>2022-04-06T09:02:39Z</time>
      </trkpt>
      <trkpt lat="48.22233" lon="7.32046">
        <ele>327</ele>
        <time>2022-04-06T09:02:42Z</time>
      </trkpt>
      <trkpt lat="48.22232" lon="7.3208">
        <ele>326</ele>
        <time>2022-04-06T09:02:46Z</time>
      </trkpt>
      <trkpt lat="48.22231" lon="7.32105">
        <ele>327</ele>
        <time>2022-04-06T09:02:49Z</time>
      </trkpt>
      <trkpt lat="48.22222" lon="7.3214">
        <ele>329</ele>
        <time>2022-04-06T09:02:53Z</time>
      </trkpt>
      <trkpt lat="48.2221" lon="7.32172">
        <ele>330</ele>
        <time>2022-04-06T09:02:58Z</time>
      </trkpt>
      <trkpt lat="48.22194" lon="7.32197">
        <ele>330</ele>
        <time>2022-04-06T09:03:02Z</time>
      </trkpt>
      <trkpt lat="48.22168" lon="7.32221">
        <ele>324</ele>
        <time>2022-04-06T09:03:07Z</time>
      </trkpt>
      <trkpt lat="48.22155" lon="7.32242">
        <ele>325</ele>
        <time>2022-04-06T09:03:11Z</time>
      </trkpt>
      <trkpt lat="48.22152" lon="7.32261">
        <ele>325</ele>
        <time>2022-04-06T09:03:13Z</time>
      </trkpt>
      <trkpt lat="48.22145" lon="7.32418">
        <ele>322</ele>
        <time>2022-04-06T09:03:32Z</time>
      </trkpt>
      <trkpt lat="48.22138" lon="7.32463">
        <ele>317</ele>
        <time>2022-04-06T09:03:37Z</time>
      </trkpt>
      <trkpt lat="48.22127" lon="7.32514">
        <ele>310</ele>
        <time>2022-04-06T09:03:44Z</time>
      </trkpt>
      <trkpt lat="48.22108" lon="7.32572">
        <ele>302</ele>
        <time>2022-04-06T09:03:51Z</time>
      </trkpt>
      <trkpt lat="48.22096" lon="7.32597">
        <ele>300</ele>
        <time>2022-04-06T09:03:55Z</time>
      </trkpt>
      <trkpt lat="48.22062" lon="7.32671">
        <ele>301</ele>
        <time>2022-04-06T09:04:06Z</time>
      </trkpt>
      <trkpt lat="48.22042" lon="7.32707">
        <ele>301</ele>
        <time>2022-04-06T09:04:11Z</time>
      </trkpt>
      <trkpt lat="48.22001" lon="7.3276">
        <ele>294</ele>
        <time>2022-04-06T09:04:21Z</time>
      </trkpt>
      <trkpt lat="48.21977" lon="7.32791">
        <ele>299</ele>
        <time>2022-04-06T09:04:26Z</time>
      </trkpt>
      <trkpt lat="48.21922" lon="7.32888">
        <ele>295</ele>
        <time>2022-04-06T09:04:41Z</time>
      </trkpt>
      <trkpt lat="48.21833" lon="7.33061">
        <ele>293</ele>
        <time>2022-04-06T09:05:07Z</time>
      </trkpt>
      <trkpt lat="48.21802" lon="7.33112">
        <ele>294</ele>
        <time>2022-04-06T09:05:16Z</time>
      </trkpt>
      <trkpt lat="48.2178" lon="7.33154">
        <ele>294</ele>
        <time>2022-04-06T09:05:22Z</time>
      </trkpt>
      <trkpt lat="48.2177" lon="7.3318">
        <ele>292</ele>
        <time>2022-04-06T09:05:25Z</time>
      </trkpt>
      <trkpt lat="48.21762" lon="7.33209">
        <ele>290</ele>
        <time>2022-04-06T09:05:29Z</time>
      </trkpt>
      <trkpt lat="48.21757" lon="7.33239">
        <ele>288</ele>
        <time>2022-04-06T09:05:33Z</time>
      </trkpt>
      <trkpt lat="48.21752" lon="7.33268">
        <ele>287</ele>
        <time>2022-04-06T09:05:36Z</time>
      </trkpt>
      <trkpt lat="48.21744" lon="7.333">
        <ele>289</ele>
        <time>2022-04-06T09:05:40Z</time>
      </trkpt>
      <trkpt lat="48.21731" lon="7.33333">
        <ele>289</ele>
        <time>2022-04-06T09:05:45Z</time>
      </trkpt>
      <trkpt lat="48.21724" lon="7.33344">
        <ele>290</ele>
        <time>2022-04-06T09:05:47Z</time>
      </trkpt>
      <trkpt lat="48.21711" lon="7.33364">
        <ele>291</ele>
        <time>2022-04-06T09:05:50Z</time>
      </trkpt>
      <trkpt lat="48.21685" lon="7.33397">
        <ele>288</ele>
        <time>2022-04-06T09:05:56Z</time>
      </trkpt>
      <trkpt lat="48.21604" lon="7.33513">
        <ele>274</ele>
        <time>2022-04-06T09:06:16Z</time>
      </trkpt>
      <trkpt lat="48.21538" lon="7.33571">
        <ele>270</ele>
        <time>2022-04-06T09:06:30Z</time>
      </trkpt>
      <trkpt lat="48.21497" lon="7.33614">
        <ele>269</ele>
        <time>2022-04-06T09:06:39Z</time>
      </trkpt>
      <trkpt lat="48.21454" lon="7.33649">
        <ele>270</ele>
        <time>2022-04-06T09:06:47Z</time>
      </trkpt>
      <trkpt lat="48.21444" lon="7.33655">
        <ele>269</ele>
        <time>2022-04-06T09:06:49Z</time>
      </trkpt>
      <trkpt lat="48.21427" lon="7.33666">
        <ele>268</ele>
        <time>2022-04-06T09:06:52Z</time>
      </trkpt>
      <trkpt lat="48.21406" lon="7.33686">
        <ele>269</ele>
        <time>2022-04-06T09:06:57Z</time>
      </trkpt>
      <trkpt lat="48.21374" lon="7.33748">
        <ele>267</ele>
        <time>2022-04-06T09:07:06Z</time>
      </trkpt>
      <trkpt lat="48.2136" lon="7.33771">
        <ele>264</ele>
        <time>2022-04-06T09:07:10Z</time>
      </trkpt>
      <trkpt lat="48.21357" lon="7.33775">
        <ele>263</ele>
        <time>2022-04-06T09:07:11Z</time>
      </trkpt>
      <trkpt lat="48.21349" lon="7.33785">
        <ele>262</ele>
        <time>2022-04-06T09:07:12Z</time>
      </trkpt>
      <trkpt lat="48.21339" lon="7.33801">
        <ele>260</ele>
        <time>2022-04-06T09:07:15Z</time>
      </trkpt>
      <trkpt lat="48.21334" lon="7.33814">
        <ele>259</ele>
        <time>2022-04-06T09:07:17Z</time>
      </trkpt>
      <trkpt lat="48.21326" lon="7.33836">
        <ele>258</ele>
        <time>2022-04-06T09:07:20Z</time>
      </trkpt>
      <trkpt lat="48.21294" lon="7.33931">
        <ele>256</ele>
        <time>2022-04-06T09:07:32Z</time>
      </trkpt>
      <trkpt lat="48.21273" lon="7.33989">
        <ele>254</ele>
        <time>2022-04-06T09:07:40Z</time>
      </trkpt>
      <trkpt lat="48.21227" lon="7.34077">
        <ele>252</ele>
        <time>2022-04-06T09:07:54Z</time>
      </trkpt>
      <trkpt lat="48.21188" lon="7.34143">
        <ele>252</ele>
        <time>2022-04-06T09:08:04Z</time>
      </trkpt>
      <trkpt lat="48.21148" lon="7.34195">
        <ele>250</ele>
        <time>2022-04-06T09:08:13Z</time>
      </trkpt>
      <trkpt lat="48.21109" lon="7.3424">
        <ele>247</ele>
        <time>2022-04-06T09:08:22Z</time>
      </trkpt>
      <trkpt lat="48.21068" lon="7.34281">
        <ele>244</ele>
        <time>2022-04-06T09:08:31Z</time>
      </trkpt>
      <trkpt lat="48.21034" lon="7.34318">
        <ele>242</ele>
        <time>2022-04-06T09:08:38Z</time>
      </trkpt>
      <trkpt lat="48.21023" lon="7.3433">
        <ele>241</ele>
        <time>2022-04-06T09:08:41Z</time>
      </trkpt>
      <trkpt lat="48.21006" lon="7.34349">
        <ele>240</ele>
        <time>2022-04-06T09:08:45Z</time>
      </trkpt>
      <trkpt lat="48.20993" lon="7.3436">
        <ele>240</ele>
        <time>2022-04-06T09:08:47Z</time>
      </trkpt>
      <trkpt lat="48.20976" lon="7.3437">
        <ele>240</ele>
        <time>2022-04-06T09:08:50Z</time>
      </trkpt>
      <trkpt lat="48.20939" lon="7.34382">
        <ele>240</ele>
        <time>2022-04-06T09:08:57Z</time>
      </trkpt>
      <trkpt lat="48.20924" lon="7.3439">
        <ele>240</ele>
        <time>2022-04-06T09:09:00Z</time>
      </trkpt>
      <trkpt lat="48.20893" lon="7.34417">
        <ele>238</ele>
        <time>2022-04-06T09:09:06Z</time>
      </trkpt>
      <trkpt lat="48.20878" lon="7.34438">
        <ele>237</ele>
        <time>2022-04-06T09:09:10Z</time>
      </trkpt>
      <trkpt lat="48.20855" lon="7.3448">
        <ele>235</ele>
        <time>2022-04-06T09:09:17Z</time>
      </trkpt>
      <trkpt lat="48.20847" lon="7.34501">
        <ele>234</ele>
        <time>2022-04-06T09:09:19Z</time>
      </trkpt>
      <trkpt lat="48.20839" lon="7.34531">
        <ele>234</ele>
        <time>2022-04-06T09:09:23Z</time>
      </trkpt>
      <trkpt lat="48.20826" lon="7.34598">
        <ele>233</ele>
        <time>2022-04-06T09:09:32Z</time>
      </trkpt>
      <trkpt lat="48.20807" lon="7.34662">
        <ele>231</ele>
        <time>2022-04-06T09:09:40Z</time>
      </trkpt>
      <trkpt lat="48.20803" lon="7.3468">
        <ele>230</ele>
        <time>2022-04-06T09:09:42Z</time>
      </trkpt>
      <trkpt lat="48.208" lon="7.34706">
        <ele>230</ele>
        <time>2022-04-06T09:09:45Z</time>
      </trkpt>
      <trkpt lat="48.20797" lon="7.34733">
        <ele>229</ele>
        <time>2022-04-06T09:09:48Z</time>
      </trkpt>
      <trkpt lat="48.20788" lon="7.34798">
        <ele>228</ele>
        <time>2022-04-06T09:09:56Z</time>
      </trkpt>
      <trkpt lat="48.20788" lon="7.34813">
        <ele>228</ele>
        <time>2022-04-06T09:09:58Z</time>
      </trkpt>
      <trkpt lat="48.20791" lon="7.34905">
        <ele>228</ele>
        <time>2022-04-06T09:10:09Z</time>
      </trkpt>
      <trkpt lat="48.20789" lon="7.34922">
        <ele>227</ele>
        <time>2022-04-06T09:10:11Z</time>
      </trkpt>
      <trkpt lat="48.20781" lon="7.3496">
        <ele>226</ele>
        <time>2022-04-06T09:10:16Z</time>
      </trkpt>
      <trkpt lat="48.20754" lon="7.35035">
        <ele>223</ele>
        <time>2022-04-06T09:10:26Z</time>
      </trkpt>
      <trkpt lat="48.20742" lon="7.35082">
        <ele>223</ele>
        <time>2022-04-06T09:10:32Z</time>
      </trkpt>
      <trkpt lat="48.20725" lon="7.35124">
        <ele>224</ele>
        <time>2022-04-06T09:10:38Z</time>
      </trkpt>
      <trkpt lat="48.20714" lon="7.35153">
        <ele>224</ele>
        <time>2022-04-06T09:10:42Z</time>
      </trkpt>
      <trkpt lat="48.20671" lon="7.35356">
        <ele>219</ele>
        <time>2022-04-06T09:11:07Z</time>
      </trkpt>
      <trkpt lat="48.20663" lon="7.35421">
        <ele>217</ele>
        <time>2022-04-06T09:11:15Z</time>
      </trkpt>
      <trkpt lat="48.20662" lon="7.35427">
        <ele>217</ele>
        <time>2022-04-06T09:11:15Z</time>
      </trkpt>
      <trkpt lat="48.20656" lon="7.3547">
        <ele>217</ele>
        <time>2022-04-06T09:11:21Z</time>
      </trkpt>
      <trkpt lat="48.20651" lon="7.35493">
        <ele>217</ele>
        <time>2022-04-06T09:11:24Z</time>
      </trkpt>
      <trkpt lat="48.20646" lon="7.35513">
        <ele>217</ele>
        <time>2022-04-06T09:11:26Z</time>
      </trkpt>
      <trkpt lat="48.20635" lon="7.3555">
        <ele>216</ele>
        <time>2022-04-06T09:11:31Z</time>
      </trkpt>
      <trkpt lat="48.20609" lon="7.35634">
        <ele>215</ele>
        <time>2022-04-06T09:11:42Z</time>
      </trkpt>
      <trkpt lat="48.20601" lon="7.35662">
        <ele>215</ele>
        <time>2022-04-06T09:11:45Z</time>
      </trkpt>
      <trkpt lat="48.2059" lon="7.35697">
        <ele>215</ele>
        <time>2022-04-06T09:11:50Z</time>
      </trkpt>
      <trkpt lat="48.20586" lon="7.35711">
        <ele>214</ele>
        <time>2022-04-06T09:11:52Z</time>
      </trkpt>
      <trkpt lat="48.20583" lon="7.35726">
        <ele>214</ele>
        <time>2022-04-06T09:11:54Z</time>
      </trkpt>
      <trkpt lat="48.20584" lon="7.35751">
        <ele>214</ele>
        <time>2022-04-06T09:11:57Z</time>
      </trkpt>
      <trkpt lat="48.20585" lon="7.35766">
        <ele>214</ele>
        <time>2022-04-06T09:11:58Z</time>
      </trkpt>
      <trkpt lat="48.20582" lon="7.35767">
        <ele>214</ele>
        <time>2022-04-06T09:11:59Z</time>
      </trkpt>
      <trkpt lat="48.2058" lon="7.3577">
        <ele>214</ele>
        <time>2022-04-06T09:12:00Z</time>
      </trkpt>
      <trkpt lat="48.20577" lon="7.35764">
        <ele>214</ele>
        <time>2022-04-06T09:12:00Z</time>
      </trkpt>
      <trkpt lat="48.20572" lon="7.35759">
        <ele>214</ele>
        <time>2022-04-06T09:12:02Z</time>
      </trkpt>
      <trkpt lat="48.20562" lon="7.35754">
        <ele>214</ele>
        <time>2022-04-06T09:12:03Z</time>
      </trkpt>
      <trkpt lat="48.20549" lon="7.35739">
        <ele>214</ele>
        <time>2022-04-06T09:12:06Z</time>
      </trkpt>
      <trkpt lat="48.20536" lon="7.35721">
        <ele>214</ele>
        <time>2022-04-06T09:12:09Z</time>
      </trkpt>
      <trkpt lat="48.20523" lon="7.35703">
        <ele>215</ele>
        <time>2022-04-06T09:12:13Z</time>
      </trkpt>
      <trkpt lat="48.20518" lon="7.35694">
        <ele>215</ele>
        <time>2022-04-06T09:12:14Z</time>
      </trkpt>
      <trkpt lat="48.20513" lon="7.35685">
        <ele>215</ele>
        <time>2022-04-06T09:12:15Z</time>
      </trkpt>
      <trkpt lat="48.2051" lon="7.35676">
        <ele>215</ele>
        <time>2022-04-06T09:12:17Z</time>
      </trkpt>
      <trkpt lat="48.20505" lon="7.35651">
        <ele>216</ele>
        <time>2022-04-06T09:12:20Z</time>
      </trkpt>
      <trkpt lat="48.20504" lon="7.35607">
        <ele>218</ele>
        <time>2022-04-06T09:12:25Z</time>
      </trkpt>
      <trkpt lat="48.20506" lon="7.35577">
        <ele>219</ele>
        <time>2022-04-06T09:12:28Z</time>
      </trkpt>
      <trkpt lat="48.20511" lon="7.35535">
        <ele>218</ele>
        <time>2022-04-06T09:12:34Z</time>
      </trkpt>
      <trkpt lat="48.20517" lon="7.35482">
        <ele>218</ele>
        <time>2022-04-06T09:12:40Z</time>
      </trkpt>
      <trkpt lat="48.20519" lon="7.35463">
        <ele>218</ele>
        <time>2022-04-06T09:12:42Z</time>
      </trkpt>
      <trkpt lat="48.20517" lon="7.35445">
        <ele>218</ele>
        <time>2022-04-06T09:12:44Z</time>
      </trkpt>
      <trkpt lat="48.20513" lon="7.35429">
        <ele>219</ele>
        <time>2022-04-06T09:12:46Z</time>
      </trkpt>
      <trkpt lat="48.20508" lon="7.35415">
        <ele>219</ele>
        <time>2022-04-06T09:12:48Z</time>
      </trkpt>
      <trkpt lat="48.205" lon="7.35397">
        <ele>219</ele>
        <time>2022-04-06T09:12:51Z</time>
      </trkpt>
      <trkpt lat="48.20491" lon="7.3537">
        <ele>220</ele>
        <time>2022-04-06T09:12:54Z</time>
      </trkpt>
      <trkpt lat="48.20485" lon="7.35343">
        <ele>220</ele>
        <time>2022-04-06T09:12:58Z</time>
      </trkpt>
      <trkpt lat="48.20482" lon="7.35305">
        <ele>221</ele>
        <time>2022-04-06T09:13:02Z</time>
      </trkpt>
      <trkpt lat="48.2048" lon="7.3517">
        <ele>225</ele>
        <time>2022-04-06T09:13:18Z</time>
      </trkpt>
      <trkpt lat="48.20478" lon="7.35133">
        <ele>225</ele>
        <time>2022-04-06T09:13:23Z</time>
      </trkpt>
      <trkpt lat="48.20475" lon="7.35111">
        <ele>225</ele>
        <time>2022-04-06T09:13:25Z</time>
      </trkpt>
      <trkpt lat="48.20469" lon="7.35087">
        <ele>226</ele>
        <time>2022-04-06T09:13:28Z</time>
      </trkpt>
      <trkpt lat="48.20459" lon="7.35062">
        <ele>226</ele>
        <time>2022-04-06T09:13:32Z</time>
      </trkpt>
      <trkpt lat="48.20421" lon="7.34998">
        <ele>228</ele>
        <time>2022-04-06T09:13:42Z</time>
      </trkpt>
      <trkpt lat="48.20409" lon="7.34963">
        <ele>228</ele>
        <time>2022-04-06T09:13:47Z</time>
      </trkpt>
      <trkpt lat="48.20393" lon="7.34905">
        <ele>228</ele>
        <time>2022-04-06T09:13:54Z</time>
      </trkpt>
      <trkpt lat="48.2038" lon="7.34874">
        <ele>228</ele>
        <time>2022-04-06T09:13:58Z</time>
      </trkpt>
      <trkpt lat="48.20367" lon="7.34851">
        <ele>229</ele>
        <time>2022-04-06T09:14:02Z</time>
      </trkpt>
      <trkpt lat="48.2035" lon="7.34826">
        <ele>231</ele>
        <time>2022-04-06T09:14:06Z</time>
      </trkpt>
      <trkpt lat="48.20295" lon="7.34771">
        <ele>236</ele>
        <time>2022-04-06T09:14:18Z</time>
      </trkpt>
      <trkpt lat="48.20281" lon="7.34755">
        <ele>238</ele>
        <time>2022-04-06T09:14:21Z</time>
      </trkpt>
      <trkpt lat="48.20264" lon="7.34729">
        <ele>239</ele>
        <time>2022-04-06T09:14:26Z</time>
      </trkpt>
      <trkpt lat="48.20231" lon="7.34667">
        <ele>241</ele>
        <time>2022-04-06T09:14:35Z</time>
      </trkpt>
      <trkpt lat="48.20205" lon="7.34604">
        <ele>240</ele>
        <time>2022-04-06T09:14:44Z</time>
      </trkpt>
      <trkpt lat="48.20184" lon="7.34532">
        <ele>240</ele>
        <time>2022-04-06T09:14:53Z</time>
      </trkpt>
      <trkpt lat="48.20157" lon="7.34461">
        <ele>240</ele>
        <time>2022-04-06T09:15:03Z</time>
      </trkpt>
      <trkpt lat="48.2015" lon="7.34431">
        <ele>240</ele>
        <time>2022-04-06T09:15:07Z</time>
      </trkpt>
      <trkpt lat="48.20147" lon="7.34397">
        <ele>239</ele>
        <time>2022-04-06T09:15:11Z</time>
      </trkpt>
      <trkpt lat="48.20144" lon="7.34297">
        <ele>238</ele>
        <time>2022-04-06T09:15:22Z</time>
      </trkpt>
      <trkpt lat="48.20137" lon="7.34183">
        <ele>239</ele>
        <time>2022-04-06T09:15:36Z</time>
      </trkpt>
      <trkpt lat="48.20127" lon="7.34109">
        <ele>239</ele>
        <time>2022-04-06T09:15:45Z</time>
      </trkpt>
      <trkpt lat="48.20119" lon="7.34078">
        <ele>239</ele>
        <time>2022-04-06T09:15:49Z</time>
      </trkpt>
      <trkpt lat="48.20109" lon="7.34054">
        <ele>239</ele>
        <time>2022-04-06T09:15:52Z</time>
      </trkpt>
      <trkpt lat="48.20086" lon="7.34018">
        <ele>238</ele>
        <time>2022-04-06T09:15:58Z</time>
      </trkpt>
      <trkpt lat="48.20021" lon="7.33931">
        <ele>238</ele>
        <time>2022-04-06T09:16:14Z</time>
      </trkpt>
      <trkpt lat="48.20012" lon="7.33915">
        <ele>238</ele>
        <time>2022-04-06T09:16:16Z</time>
      </trkpt>
      <trkpt lat="48.19981" lon="7.33841">
        <ele>235</ele>
        <time>2022-04-06T09:16:27Z</time>
      </trkpt>
      <trkpt lat="48.19968" lon="7.33818">
        <ele>234</ele>
        <time>2022-04-06T09:16:30Z</time>
      </trkpt>
      <trkpt lat="48.19955" lon="7.33802">
        <ele>233</ele>
        <time>2022-04-06T09:16:33Z</time>
      </trkpt>
      <trkpt lat="48.19889" lon="7.3375">
        <ele>229</ele>
        <time>2022-04-06T09:16:46Z</time>
      </trkpt>
      <trkpt lat="48.1987" lon="7.33725">
        <ele>229</ele>
        <time>2022-04-06T09:16:51Z</time>
      </trkpt>
      <trkpt lat="48.19853" lon="7.33694">
        <ele>229</ele>
        <time>2022-04-06T09:16:56Z</time>
      </trkpt>
      <trkpt lat="48.19815" lon="7.33609">
        <ele>228</ele>
        <time>2022-04-06T09:17:08Z</time>
      </trkpt>
      <trkpt lat="48.19807" lon="7.33587">
        <ele>228</ele>
        <time>2022-04-06T09:17:11Z</time>
      </trkpt>
      <trkpt lat="48.19785" lon="7.33488">
        <ele>229</ele>
        <time>2022-04-06T09:17:23Z</time>
      </trkpt>
      <trkpt lat="48.19771" lon="7.33452">
        <ele>228</ele>
        <time>2022-04-06T09:17:28Z</time>
      </trkpt>
      <trkpt lat="48.19732" lon="7.33396">
        <ele>229</ele>
        <time>2022-04-06T09:17:38Z</time>
      </trkpt>
      <trkpt lat="48.19636" lon="7.33278">
        <ele>234</ele>
        <time>2022-04-06T09:18:00Z</time>
      </trkpt>
      <trkpt lat="48.19619" lon="7.33253">
        <ele>234</ele>
        <time>2022-04-06T09:18:04Z</time>
      </trkpt>
      <trkpt lat="48.19584" lon="7.33184">
        <ele>236</ele>
        <time>2022-04-06T09:18:14Z</time>
      </trkpt>
      <trkpt lat="48.19521" lon="7.33081">
        <ele>237</ele>
        <time>2022-04-06T09:18:31Z</time>
      </trkpt>
      <trkpt lat="48.195" lon="7.33037">
        <ele>236</ele>
        <time>2022-04-06T09:18:37Z</time>
      </trkpt>
      <trkpt lat="48.19486" lon="7.32997">
        <ele>236</ele>
        <time>2022-04-06T09:18:43Z</time>
      </trkpt>
      <trkpt lat="48.1948" lon="7.32979">
        <ele>236</ele>
        <time>2022-04-06T09:18:45Z</time>
      </trkpt>
      <trkpt lat="48.19475" lon="7.32959">
        <ele>236</ele>
        <time>2022-04-06T09:18:48Z</time>
      </trkpt>
      <trkpt lat="48.19471" lon="7.32946">
        <ele>236</ele>
        <time>2022-04-06T09:18:49Z</time>
      </trkpt>
      <trkpt lat="48.19468" lon="7.32927">
        <ele>236</ele>
        <time>2022-04-06T09:18:52Z</time>
      </trkpt>
      <trkpt lat="48.19466" lon="7.32909">
        <ele>236</ele>
        <time>2022-04-06T09:18:54Z</time>
      </trkpt>
      <trkpt lat="48.19462" lon="7.32879">
        <ele>237</ele>
        <time>2022-04-06T09:18:57Z</time>
      </trkpt>
      <trkpt lat="48.19454" lon="7.32784">
        <ele>239</ele>
        <time>2022-04-06T09:19:09Z</time>
      </trkpt>
      <trkpt lat="48.19447" lon="7.32604">
        <ele>244</ele>
        <time>2022-04-06T09:19:30Z</time>
      </trkpt>
      <trkpt lat="48.19444" lon="7.32579">
        <ele>244</ele>
        <time>2022-04-06T09:19:33Z</time>
      </trkpt>
      <trkpt lat="48.19439" lon="7.3255">
        <ele>244</ele>
        <time>2022-04-06T09:19:37Z</time>
      </trkpt>
      <trkpt lat="48.19435" lon="7.32536">
        <ele>243</ele>
        <time>2022-04-06T09:19:38Z</time>
      </trkpt>
      <trkpt lat="48.19429" lon="7.32514">
        <ele>243</ele>
        <time>2022-04-06T09:19:41Z</time>
      </trkpt>
      <trkpt lat="48.19426" lon="7.32507">
        <ele>242</ele>
        <time>2022-04-06T09:19:42Z</time>
      </trkpt>
      <trkpt lat="48.19422" lon="7.32503">
        <ele>242</ele>
        <time>2022-04-06T09:19:43Z</time>
      </trkpt>
      <trkpt lat="48.19407" lon="7.32495">
        <ele>241</ele>
        <time>2022-04-06T09:19:46Z</time>
      </trkpt>
      <trkpt lat="48.19358" lon="7.32476">
        <ele>241</ele>
        <time>2022-04-06T09:19:55Z</time>
      </trkpt>
      <trkpt lat="48.19331" lon="7.32466">
        <ele>241</ele>
        <time>2022-04-06T09:20:00Z</time>
      </trkpt>
      <trkpt lat="48.19328" lon="7.32465">
        <ele>241</ele>
        <time>2022-04-06T09:20:00Z</time>
      </trkpt>
      <trkpt lat="48.19319" lon="7.32462">
        <ele>241</ele>
        <time>2022-04-06T09:20:02Z</time>
      </trkpt>
      <trkpt lat="48.19297" lon="7.32454">
        <ele>241</ele>
        <time>2022-04-06T09:20:06Z</time>
      </trkpt>
      <trkpt lat="48.1929" lon="7.32456">
        <ele>240</ele>
        <time>2022-04-06T09:20:07Z</time>
      </trkpt>
      <trkpt lat="48.19282" lon="7.3246">
        <ele>240</ele>
        <time>2022-04-06T09:20:09Z</time>
      </trkpt>
      <trkpt lat="48.19267" lon="7.32462">
        <ele>239</ele>
        <time>2022-04-06T09:20:12Z</time>
      </trkpt>
      <trkpt lat="48.19257" lon="7.32464">
        <ele>239</ele>
        <time>2022-04-06T09:20:13Z</time>
      </trkpt>
      <trkpt lat="48.1925" lon="7.32467">
        <ele>239</ele>
        <time>2022-04-06T09:20:15Z</time>
      </trkpt>
      <trkpt lat="48.19247" lon="7.32466">
        <ele>239</ele>
        <time>2022-04-06T09:20:15Z</time>
      </trkpt>
      <trkpt lat="48.19243" lon="7.32466">
        <ele>239</ele>
        <time>2022-04-06T09:20:16Z</time>
      </trkpt>
      <trkpt lat="48.19235" lon="7.32463">
        <ele>239</ele>
        <time>2022-04-06T09:20:17Z</time>
      </trkpt>
      <trkpt lat="48.19224" lon="7.32461">
        <ele>239</ele>
        <time>2022-04-06T09:20:19Z</time>
      </trkpt>
      <trkpt lat="48.19196" lon="7.32464">
        <ele>239</ele>
        <time>2022-04-06T09:20:24Z</time>
      </trkpt>
      <trkpt lat="48.19184" lon="7.32466">
        <ele>239</ele>
        <time>2022-04-06T09:20:26Z</time>
      </trkpt>
      <trkpt lat="48.19175" lon="7.32468">
        <ele>238</ele>
        <time>2022-04-06T09:20:28Z</time>
      </trkpt>
      <trkpt lat="48.19169" lon="7.32466">
        <ele>238</ele>
        <time>2022-04-06T09:20:29Z</time>
      </trkpt>
      <trkpt lat="48.19165" lon="7.32464">
        <ele>239</ele>
        <time>2022-04-06T09:20:30Z</time>
      </trkpt>
      <trkpt lat="48.19164" lon="7.32462">
        <ele>239</ele>
        <time>2022-04-06T09:20:30Z</time>
      </trkpt>
      <trkpt lat="48.19163" lon="7.3246">
        <ele>239</ele>
        <time>2022-04-06T09:20:31Z</time>
      </trkpt>
      <trkpt lat="48.19162" lon="7.32459">
        <ele>239</ele>
        <time>2022-04-06T09:20:31Z</time>
      </trkpt>
      <trkpt lat="48.19162" lon="7.32445">
        <ele>240</ele>
        <time>2022-04-06T09:20:32Z</time>
      </trkpt>
      <trkpt lat="48.19162" lon="7.32434">
        <ele>241</ele>
        <time>2022-04-06T09:20:34Z</time>
      </trkpt>
      <trkpt lat="48.19161" lon="7.32421">
        <ele>242</ele>
        <time>2022-04-06T09:20:35Z</time>
      </trkpt>
      <trkpt lat="48.19171" lon="7.3235">
        <ele>245</ele>
        <time>2022-04-06T09:20:44Z</time>
      </trkpt>
      <trkpt lat="48.19173" lon="7.32335">
        <ele>246</ele>
        <time>2022-04-06T09:20:46Z</time>
      </trkpt>
      <trkpt lat="48.19208" lon="7.32173">
        <ele>252</ele>
        <time>2022-04-06T09:21:06Z</time>
      </trkpt>
      <trkpt lat="48.19217" lon="7.32133">
        <ele>254</ele>
        <time>2022-04-06T09:21:11Z</time>
      </trkpt>
      <trkpt lat="48.19247" lon="7.31988">
        <ele>262</ele>
        <time>2022-04-06T09:21:29Z</time>
      </trkpt>
      <trkpt lat="48.19259" lon="7.31932">
        <ele>263</ele>
        <time>2022-04-06T09:21:36Z</time>
      </trkpt>
      <trkpt lat="48.19261" lon="7.31925">
        <ele>263</ele>
        <time>2022-04-06T09:21:37Z</time>
      </trkpt>
      <trkpt lat="48.19263" lon="7.31916">
        <ele>263</ele>
        <time>2022-04-06T09:21:38Z</time>
      </trkpt>
      <trkpt lat="48.19273" lon="7.31868">
        <ele>265</ele>
        <time>2022-04-06T09:21:44Z</time>
      </trkpt>
      <trkpt lat="48.19285" lon="7.31815">
        <ele>266</ele>
        <time>2022-04-06T09:21:51Z</time>
      </trkpt>
      <trkpt lat="48.19306" lon="7.31715">
        <ele>268</ele>
        <time>2022-04-06T09:22:03Z</time>
      </trkpt>
      <trkpt lat="48.19311" lon="7.31683">
        <ele>270</ele>
        <time>2022-04-06T09:22:07Z</time>
      </trkpt>
      <trkpt lat="48.19316" lon="7.31644">
        <ele>271</ele>
        <time>2022-04-06T09:22:12Z</time>
      </trkpt>
      <trkpt lat="48.1932" lon="7.31607">
        <ele>271</ele>
        <time>2022-04-06T09:22:16Z</time>
      </trkpt>
      <trkpt lat="48.19326" lon="7.3156">
        <ele>271</ele>
        <time>2022-04-06T09:22:22Z</time>
      </trkpt>
      <trkpt lat="48.19334" lon="7.31522">
        <ele>271</ele>
        <time>2022-04-06T09:22:26Z</time>
      </trkpt>
      <trkpt lat="48.19346" lon="7.31488">
        <ele>270</ele>
        <time>2022-04-06T09:22:31Z</time>
      </trkpt>
      <trkpt lat="48.19392" lon="7.31401">
        <ele>269</ele>
        <time>2022-04-06T09:22:44Z</time>
      </trkpt>
      <trkpt lat="48.19397" lon="7.3139">
        <ele>269</ele>
        <time>2022-04-06T09:22:46Z</time>
      </trkpt>
      <trkpt lat="48.19393" lon="7.31389">
        <ele>269</ele>
        <time>2022-04-06T09:22:46Z</time>
      </trkpt>
      <trkpt lat="48.19373" lon="7.31374">
        <ele>271</ele>
        <time>2022-04-06T09:22:50Z</time>
      </trkpt>
      <trkpt lat="48.19336" lon="7.3133">
        <ele>274</ele>
        <time>2022-04-06T09:22:59Z</time>
      </trkpt>
      <trkpt lat="48.1928" lon="7.31281">
        <ele>279</ele>
        <time>2022-04-06T09:23:10Z</time>
      </trkpt>
      <trkpt lat="48.19272" lon="7.31269">
        <ele>280</ele>
        <time>2022-04-06T09:23:12Z</time>
      </trkpt>
      <trkpt lat="48.19255" lon="7.31235">
        <ele>282</ele>
        <time>2022-04-06T09:23:17Z</time>
      </trkpt>
      <trkpt lat="48.19248" lon="7.31227">
        <ele>283</ele>
        <time>2022-04-06T09:23:19Z</time>
      </trkpt>
      <trkpt lat="48.19238" lon="7.31221">
        <ele>283</ele>
        <time>2022-04-06T09:23:21Z</time>
      </trkpt>
      <trkpt lat="48.19221" lon="7.31217">
        <ele>284</ele>
        <time>2022-04-06T09:23:24Z</time>
      </trkpt>
      <trkpt lat="48.19195" lon="7.31204">
        <ele>284</ele>
        <time>2022-04-06T09:23:29Z</time>
      </trkpt>
      <trkpt lat="48.19082" lon="7.31135">
        <ele>296</ele>
        <time>2022-04-06T09:23:51Z</time>
      </trkpt>
      <trkpt lat="48.19056" lon="7.31125">
        <ele>298</ele>
        <time>2022-04-06T09:23:55Z</time>
      </trkpt>
      <trkpt lat="48.19009" lon="7.31115">
        <ele>303</ele>
        <time>2022-04-06T09:24:04Z</time>
      </trkpt>
      <trkpt lat="48.19" lon="7.31116">
        <ele>304</ele>
        <time>2022-04-06T09:24:05Z</time>
      </trkpt>
      <trkpt lat="48.18987" lon="7.31122">
        <ele>304</ele>
        <time>2022-04-06T09:24:08Z</time>
      </trkpt>
      <trkpt lat="48.18939" lon="7.31111">
        <ele>306</ele>
        <time>2022-04-06T09:24:16Z</time>
      </trkpt>
      <trkpt lat="48.18893" lon="7.31094">
        <ele>306</ele>
        <time>2022-04-06T09:24:25Z</time>
      </trkpt>
      <trkpt lat="48.18835" lon="7.31076">
        <ele>304</ele>
        <time>2022-04-06T09:24:35Z</time>
      </trkpt>
      <trkpt lat="48.18791" lon="7.31054">
        <ele>301</ele>
        <time>2022-04-06T09:24:44Z</time>
      </trkpt>
      <trkpt lat="48.18677" lon="7.3102">
        <ele>296</ele>
        <time>2022-04-06T09:25:04Z</time>
      </trkpt>
      <trkpt lat="48.18656" lon="7.31015">
        <ele>296</ele>
        <time>2022-04-06T09:25:08Z</time>
      </trkpt>
      <trkpt lat="48.18597" lon="7.31007">
        <ele>297</ele>
        <time>2022-04-06T09:25:19Z</time>
      </trkpt>
      <trkpt lat="48.18502" lon="7.30984">
        <ele>300</ele>
        <time>2022-04-06T09:25:36Z</time>
      </trkpt>
      <trkpt lat="48.18331" lon="7.30884">
        <ele>293</ele>
        <time>2022-04-06T09:26:08Z</time>
      </trkpt>
      <trkpt lat="48.18284" lon="7.30865">
        <ele>290</ele>
        <time>2022-04-06T09:26:17Z</time>
      </trkpt>
      <trkpt lat="48.18212" lon="7.30853">
        <ele>286</ele>
        <time>2022-04-06T09:26:30Z</time>
      </trkpt>
      <trkpt lat="48.18147" lon="7.30854">
        <ele>281</ele>
        <time>2022-04-06T09:26:42Z</time>
      </trkpt>
      <trkpt lat="48.18128" lon="7.30853">
        <ele>281</ele>
        <time>2022-04-06T09:26:45Z</time>
      </trkpt>
      <trkpt lat="48.18042" lon="7.30831">
        <ele>282</ele>
        <time>2022-04-06T09:27:00Z</time>
      </trkpt>
      <trkpt lat="48.18011" lon="7.30826">
        <ele>282</ele>
        <time>2022-04-06T09:27:06Z</time>
      </trkpt>
      <trkpt lat="48.17995" lon="7.30826">
        <ele>282</ele>
        <time>2022-04-06T09:27:09Z</time>
      </trkpt>
      <trkpt lat="48.17995" lon="7.30833">
        <ele>282</ele>
        <time>2022-04-06T09:27:10Z</time>
      </trkpt>
      <trkpt lat="48.17955" lon="7.30832">
        <ele>283</ele>
        <time>2022-04-06T09:27:17Z</time>
      </trkpt>
      <trkpt lat="48.17963" lon="7.30738">
        <ele>288</ele>
        <time>2022-04-06T09:27:28Z</time>
      </trkpt>
      <trkpt lat="48.17949" lon="7.30734">
        <ele>289</ele>
        <time>2022-04-06T09:27:31Z</time>
      </trkpt>
      <trkpt lat="48.17933" lon="7.30726">
        <ele>290</ele>
        <time>2022-04-06T09:27:34Z</time>
      </trkpt>
      <trkpt lat="48.17911" lon="7.30707">
        <ele>291</ele>
        <time>2022-04-06T09:27:38Z</time>
      </trkpt>
      <trkpt lat="48.17883" lon="7.30679">
        <ele>295</ele>
        <time>2022-04-06T09:27:44Z</time>
      </trkpt>
      <trkpt lat="48.17862" lon="7.30656">
        <ele>298</ele>
        <time>2022-04-06T09:27:49Z</time>
      </trkpt>
      <trkpt lat="48.17836" lon="7.30623">
        <ele>301</ele>
        <time>2022-04-06T09:27:55Z</time>
      </trkpt>
      <trkpt lat="48.1782" lon="7.3059">
        <ele>303</ele>
        <time>2022-04-06T09:28:00Z</time>
      </trkpt>
      <trkpt lat="48.17802" lon="7.30532">
        <ele>307</ele>
        <time>2022-04-06T09:28:07Z</time>
      </trkpt>
      <trkpt lat="48.17795" lon="7.3048">
        <ele>311</ele>
        <time>2022-04-06T09:28:14Z</time>
      </trkpt>
      <trkpt lat="48.1779" lon="7.30464">
        <ele>313</ele>
        <time>2022-04-06T09:28:16Z</time>
      </trkpt>
      <trkpt lat="48.17784" lon="7.30452">
        <ele>314</ele>
        <time>2022-04-06T09:28:17Z</time>
      </trkpt>
      <trkpt lat="48.17765" lon="7.30413">
        <ele>316</ele>
        <time>2022-04-06T09:28:23Z</time>
      </trkpt>
      <trkpt lat="48.17737" lon="7.30353">
        <ele>319</ele>
        <time>2022-04-06T09:28:32Z</time>
      </trkpt>
      <trkpt lat="48.17723" lon="7.30329">
        <ele>320</ele>
        <time>2022-04-06T09:28:36Z</time>
      </trkpt>
      <trkpt lat="48.17674" lon="7.30259">
        <ele>322</ele>
        <time>2022-04-06T09:28:48Z</time>
      </trkpt>
      <trkpt lat="48.17664" lon="7.30242">
        <ele>323</ele>
        <time>2022-04-06T09:28:50Z</time>
      </trkpt>
      <trkpt lat="48.17633" lon="7.30175">
        <ele>331</ele>
        <time>2022-04-06T09:29:00Z</time>
      </trkpt>
      <trkpt lat="48.17611" lon="7.30124">
        <ele>334</ele>
        <time>2022-04-06T09:29:07Z</time>
      </trkpt>
      <trkpt lat="48.17601" lon="7.30095">
        <ele>336</ele>
        <time>2022-04-06T09:29:11Z</time>
      </trkpt>
      <trkpt lat="48.17585" lon="7.30061">
        <ele>338</ele>
        <time>2022-04-06T09:29:16Z</time>
      </trkpt>
      <trkpt lat="48.17579" lon="7.30052">
        <ele>339</ele>
        <time>2022-04-06T09:29:18Z</time>
      </trkpt>
      <trkpt lat="48.17572" lon="7.30044">
        <ele>340</ele>
        <time>2022-04-06T09:29:19Z</time>
      </trkpt>
      <trkpt lat="48.17543" lon="7.30015">
        <ele>344</ele>
        <time>2022-04-06T09:29:25Z</time>
      </trkpt>
      <trkpt lat="48.17531" lon="7.29998">
        <ele>346</ele>
        <time>2022-04-06T09:29:28Z</time>
      </trkpt>
      <trkpt lat="48.17499" lon="7.29921">
        <ele>356</ele>
        <time>2022-04-06T09:29:39Z</time>
      </trkpt>
      <trkpt lat="48.17468" lon="7.29868">
        <ele>365</ele>
        <time>2022-04-06T09:29:47Z</time>
      </trkpt>
      <trkpt lat="48.17454" lon="7.29847">
        <ele>368</ele>
        <time>2022-04-06T09:29:51Z</time>
      </trkpt>
      <trkpt lat="48.17419" lon="7.29807">
        <ele>372</ele>
        <time>2022-04-06T09:29:59Z</time>
      </trkpt>
      <trkpt lat="48.17383" lon="7.29753">
        <ele>377</ele>
        <time>2022-04-06T09:30:08Z</time>
      </trkpt>
      <trkpt lat="48.17357" lon="7.29713">
        <ele>379</ele>
        <time>2022-04-06T09:30:14Z</time>
      </trkpt>
      <trkpt lat="48.17348" lon="7.29699">
        <ele>379</ele>
        <time>2022-04-06T09:30:17Z</time>
      </trkpt>
      <trkpt lat="48.17324" lon="7.29655">
        <ele>380</ele>
        <time>2022-04-06T09:30:23Z</time>
      </trkpt>
      <trkpt lat="48.17281" lon="7.2959">
        <ele>376</ele>
        <time>2022-04-06T09:30:34Z</time>
      </trkpt>
      <trkpt lat="48.17217" lon="7.29502">
        <ele>370</ele>
        <time>2022-04-06T09:30:50Z</time>
      </trkpt>
      <trkpt lat="48.17205" lon="7.29491">
        <ele>368</ele>
        <time>2022-04-06T09:30:52Z</time>
      </trkpt>
      <trkpt lat="48.1719" lon="7.29481">
        <ele>366</ele>
        <time>2022-04-06T09:30:55Z</time>
      </trkpt>
      <trkpt lat="48.17154" lon="7.29468">
        <ele>361</ele>
        <time>2022-04-06T09:31:02Z</time>
      </trkpt>
      <trkpt lat="48.17129" lon="7.2946">
        <ele>358</ele>
        <time>2022-04-06T09:31:06Z</time>
      </trkpt>
      <trkpt lat="48.1711" lon="7.29455">
        <ele>355</ele>
        <time>2022-04-06T09:31:10Z</time>
      </trkpt>
      <trkpt lat="48.17106" lon="7.29454">
        <ele>354</ele>
        <time>2022-04-06T09:31:10Z</time>
      </trkpt>
      <trkpt lat="48.17107" lon="7.29438">
        <ele>354</ele>
        <time>2022-04-06T09:31:12Z</time>
      </trkpt>
      <trkpt lat="48.17106" lon="7.29412">
        <ele>354</ele>
        <time>2022-04-06T09:31:15Z</time>
      </trkpt>
      <trkpt lat="48.17099" lon="7.29386">
        <ele>354</ele>
        <time>2022-04-06T09:31:19Z</time>
      </trkpt>
      <trkpt lat="48.17094" lon="7.29375">
        <ele>353</ele>
        <time>2022-04-06T09:31:20Z</time>
      </trkpt>
      <trkpt lat="48.17067" lon="7.29332">
        <ele>350</ele>
        <time>2022-04-06T09:31:27Z</time>
      </trkpt>
      <trkpt lat="48.17045" lon="7.29291">
        <ele>350</ele>
        <time>2022-04-06T09:31:34Z</time>
      </trkpt>
      <trkpt lat="48.17032" lon="7.29258">
        <ele>350</ele>
        <time>2022-04-06T09:31:38Z</time>
      </trkpt>
      <trkpt lat="48.1703" lon="7.29245">
        <ele>350</ele>
        <time>2022-04-06T09:31:40Z</time>
      </trkpt>
      <trkpt lat="48.17028" lon="7.29216">
        <ele>352</ele>
        <time>2022-04-06T09:31:43Z</time>
      </trkpt>
      <trkpt lat="48.1703" lon="7.29168">
        <ele>355</ele>
        <time>2022-04-06T09:31:49Z</time>
      </trkpt>
      <trkpt lat="48.17028" lon="7.29154">
        <ele>355</ele>
        <time>2022-04-06T09:31:51Z</time>
      </trkpt>
      <trkpt lat="48.17019" lon="7.29134">
        <ele>355</ele>
        <time>2022-04-06T09:31:53Z</time>
      </trkpt>
      <trkpt lat="48.17016" lon="7.2913">
        <ele>355</ele>
        <time>2022-04-06T09:31:54Z</time>
      </trkpt>
      <trkpt lat="48.17011" lon="7.29127">
        <ele>355</ele>
        <time>2022-04-06T09:31:55Z</time>
      </trkpt>
      <trkpt lat="48.17006" lon="7.29125">
        <ele>355</ele>
        <time>2022-04-06T09:31:56Z</time>
      </trkpt>
      <trkpt lat="48.17009" lon="7.29116">
        <ele>355</ele>
        <time>2022-04-06T09:31:57Z</time>
      </trkpt>
      <trkpt lat="48.17025" lon="7.29067">
        <ele>360</ele>
        <time>2022-04-06T09:32:04Z</time>
      </trkpt>
      <trkpt lat="48.17038" lon="7.2904">
        <ele>362</ele>
        <time>2022-04-06T09:32:08Z</time>
      </trkpt>
      <trkpt lat="48.17073" lon="7.28982">
        <ele>366</ele>
        <time>2022-04-06T09:32:17Z</time>
      </trkpt>
      <trkpt lat="48.17092" lon="7.28944">
        <ele>371</ele>
        <time>2022-04-06T09:32:23Z</time>
      </trkpt>
      <trkpt lat="48.17098" lon="7.28927">
        <ele>373</ele>
        <time>2022-04-06T09:32:25Z</time>
      </trkpt>
      <trkpt lat="48.171" lon="7.28918">
        <ele>374</ele>
        <time>2022-04-06T09:32:26Z</time>
      </trkpt>
      <trkpt lat="48.17099" lon="7.28911">
        <ele>375</ele>
        <time>2022-04-06T09:32:27Z</time>
      </trkpt>
      <trkpt lat="48.17094" lon="7.28905">
        <ele>375</ele>
        <time>2022-04-06T09:32:28Z</time>
      </trkpt>
      <trkpt lat="48.17088" lon="7.28902">
        <ele>376</ele>
        <time>2022-04-06T09:32:29Z</time>
      </trkpt>
      <trkpt lat="48.17081" lon="7.28906">
        <ele>374</ele>
        <time>2022-04-06T09:32:30Z</time>
      </trkpt>
      <trkpt lat="48.17054" lon="7.28936">
        <ele>372</ele>
        <time>2022-04-06T09:32:36Z</time>
      </trkpt>
      <trkpt lat="48.17015" lon="7.28986">
        <ele>368</ele>
        <time>2022-04-06T09:32:46Z</time>
      </trkpt>
      <trkpt lat="48.17002" lon="7.29006">
        <ele>366</ele>
        <time>2022-04-06T09:32:49Z</time>
      </trkpt>
      <trkpt lat="48.16993" lon="7.29014">
        <ele>365</ele>
        <time>2022-04-06T09:32:51Z</time>
      </trkpt>
      <trkpt lat="48.16987" lon="7.29016">
        <ele>364</ele>
        <time>2022-04-06T09:32:52Z</time>
      </trkpt>
      <trkpt lat="48.16985" lon="7.29014">
        <ele>364</ele>
        <time>2022-04-06T09:32:52Z</time>
      </trkpt>
      <trkpt lat="48.16983" lon="7.2901">
        <ele>365</ele>
        <time>2022-04-06T09:32:53Z</time>
      </trkpt>
      <trkpt lat="48.16983" lon="7.29002">
        <ele>365</ele>
        <time>2022-04-06T09:32:54Z</time>
      </trkpt>
      <trkpt lat="48.16986" lon="7.28992">
        <ele>367</ele>
        <time>2022-04-06T09:32:55Z</time>
      </trkpt>
      <trkpt lat="48.16993" lon="7.28984">
        <ele>369</ele>
        <time>2022-04-06T09:32:57Z</time>
      </trkpt>
      <trkpt lat="48.17001" lon="7.28971">
        <ele>371</ele>
        <time>2022-04-06T09:32:59Z</time>
      </trkpt>
      <trkpt lat="48.17007" lon="7.28955">
        <ele>373</ele>
        <time>2022-04-06T09:33:01Z</time>
      </trkpt>
      <trkpt lat="48.17022" lon="7.28891">
        <ele>383</ele>
        <time>2022-04-06T09:33:09Z</time>
      </trkpt>
      <trkpt lat="48.17029" lon="7.28878">
        <ele>385</ele>
        <time>2022-04-06T09:33:11Z</time>
      </trkpt>
      <trkpt lat="48.17042" lon="7.28863">
        <ele>388</ele>
        <time>2022-04-06T09:33:14Z</time>
      </trkpt>
      <trkpt lat="48.17063" lon="7.28847">
        <ele>389</ele>
        <time>2022-04-06T09:33:18Z</time>
      </trkpt>
      <trkpt lat="48.17076" lon="7.2883">
        <ele>392</ele>
        <time>2022-04-06T09:33:21Z</time>
      </trkpt>
      <trkpt lat="48.17084" lon="7.28803">
        <ele>399</ele>
        <time>2022-04-06T09:33:25Z</time>
      </trkpt>
      <trkpt lat="48.17093" lon="7.28778">
        <ele>403</ele>
        <time>2022-04-06T09:33:28Z</time>
      </trkpt>
      <trkpt lat="48.17115" lon="7.28734">
        <ele>407</ele>
        <time>2022-04-06T09:33:35Z</time>
      </trkpt>
      <trkpt lat="48.17143" lon="7.28695">
        <ele>404</ele>
        <time>2022-04-06T09:33:41Z</time>
      </trkpt>
      <trkpt lat="48.1715" lon="7.28679">
        <ele>404</ele>
        <time>2022-04-06T09:33:44Z</time>
      </trkpt>
      <trkpt lat="48.17158" lon="7.28634">
        <ele>410</ele>
        <time>2022-04-06T09:33:49Z</time>
      </trkpt>
      <trkpt lat="48.17165" lon="7.28609">
        <ele>414</ele>
        <time>2022-04-06T09:33:52Z</time>
      </trkpt>
      <trkpt lat="48.17177" lon="7.28591">
        <ele>417</ele>
        <time>2022-04-06T09:33:55Z</time>
      </trkpt>
      <trkpt lat="48.17249" lon="7.28531">
        <ele>423</ele>
        <time>2022-04-06T09:34:10Z</time>
      </trkpt>
      <trkpt lat="48.17279" lon="7.28513">
        <ele>425</ele>
        <time>2022-04-06T09:34:16Z</time>
      </trkpt>
      <trkpt lat="48.17304" lon="7.28502">
        <ele>425</ele>
        <time>2022-04-06T09:34:20Z</time>
      </trkpt>
      <trkpt lat="48.17363" lon="7.28459">
        <ele>430</ele>
        <time>2022-04-06T09:34:32Z</time>
      </trkpt>
      <trkpt lat="48.17385" lon="7.2844">
        <ele>433</ele>
        <time>2022-04-06T09:34:37Z</time>
      </trkpt>
      <trkpt lat="48.174" lon="7.28421">
        <ele>436</ele>
        <time>2022-04-06T09:34:40Z</time>
      </trkpt>
      <trkpt lat="48.17427" lon="7.2836">
        <ele>457</ele>
        <time>2022-04-06T09:34:49Z</time>
      </trkpt>
      <trkpt lat="48.1745" lon="7.28313">
        <ele>465</ele>
        <time>2022-04-06T09:34:56Z</time>
      </trkpt>
      <trkpt lat="48.1748" lon="7.28281">
        <ele>464</ele>
        <time>2022-04-06T09:35:02Z</time>
      </trkpt>
      <trkpt lat="48.17493" lon="7.28262">
        <ele>464</ele>
        <time>2022-04-06T09:35:06Z</time>
      </trkpt>
      <trkpt lat="48.17502" lon="7.2824">
        <ele>467</ele>
        <time>2022-04-06T09:35:09Z</time>
      </trkpt>
      <trkpt lat="48.17513" lon="7.28173">
        <ele>477</ele>
        <time>2022-04-06T09:35:17Z</time>
      </trkpt>
      <trkpt lat="48.17521" lon="7.28143">
        <ele>479</ele>
        <time>2022-04-06T09:35:21Z</time>
      </trkpt>
      <trkpt lat="48.17541" lon="7.28104">
        <ele>477</ele>
        <time>2022-04-06T09:35:26Z</time>
      </trkpt>
      <trkpt lat="48.17546" lon="7.2809">
        <ele>477</ele>
        <time>2022-04-06T09:35:28Z</time>
      </trkpt>
      <trkpt lat="48.17549" lon="7.28072">
        <ele>478</ele>
        <time>2022-04-06T09:35:31Z</time>
      </trkpt>
      <trkpt lat="48.17549" lon="7.28055">
        <ele>480</ele>
        <time>2022-04-06T09:35:33Z</time>
      </trkpt>
      <trkpt lat="48.17541" lon="7.28008">
        <ele>488</ele>
        <time>2022-04-06T09:35:38Z</time>
      </trkpt>
      <trkpt lat="48.17527" lon="7.27962">
        <ele>496</ele>
        <time>2022-04-06T09:35:44Z</time>
      </trkpt>
      <trkpt lat="48.17525" lon="7.2795">
        <ele>497</ele>
        <time>2022-04-06T09:35:46Z</time>
      </trkpt>
      <trkpt lat="48.17525" lon="7.2794">
        <ele>498</ele>
        <time>2022-04-06T09:35:47Z</time>
      </trkpt>
      <trkpt lat="48.17527" lon="7.2793">
        <ele>498</ele>
        <time>2022-04-06T09:35:48Z</time>
      </trkpt>
      <trkpt lat="48.17532" lon="7.27924">
        <ele>498</ele>
        <time>2022-04-06T09:35:49Z</time>
      </trkpt>
      <trkpt lat="48.17539" lon="7.27924">
        <ele>498</ele>
        <time>2022-04-06T09:35:51Z</time>
      </trkpt>
      <trkpt lat="48.17603" lon="7.27953">
        <ele>492</ele>
        <time>2022-04-06T09:36:02Z</time>
      </trkpt>
      <trkpt lat="48.17609" lon="7.2796">
        <ele>491</ele>
        <time>2022-04-06T09:36:04Z</time>
      </trkpt>
      <trkpt lat="48.17629" lon="7.27992">
        <ele>485</ele>
        <time>2022-04-06T09:36:09Z</time>
      </trkpt>
      <trkpt lat="48.17634" lon="7.28">
        <ele>483</ele>
        <time>2022-04-06T09:36:10Z</time>
      </trkpt>
      <trkpt lat="48.17641" lon="7.28003">
        <ele>482</ele>
        <time>2022-04-06T09:36:12Z</time>
      </trkpt>
      <trkpt lat="48.17652" lon="7.28002">
        <ele>483</ele>
        <time>2022-04-06T09:36:14Z</time>
      </trkpt>
      <trkpt lat="48.17658" lon="7.27995">
        <ele>486</ele>
        <time>2022-04-06T09:36:15Z</time>
      </trkpt>
      <trkpt lat="48.17678" lon="7.27965">
        <ele>497</ele>
        <time>2022-04-06T09:36:20Z</time>
      </trkpt>
      <trkpt lat="48.17684" lon="7.27962">
        <ele>498</ele>
        <time>2022-04-06T09:36:21Z</time>
      </trkpt>
      <trkpt lat="48.17702" lon="7.27971">
        <ele>495</ele>
        <time>2022-04-06T09:36:24Z</time>
      </trkpt>
      <trkpt lat="48.1771" lon="7.27973">
        <ele>495</ele>
        <time>2022-04-06T09:36:26Z</time>
      </trkpt>
      <trkpt lat="48.17716" lon="7.27971">
        <ele>495</ele>
        <time>2022-04-06T09:36:27Z</time>
      </trkpt>
      <trkpt lat="48.17724" lon="7.27962">
        <ele>498</ele>
        <time>2022-04-06T09:36:29Z</time>
      </trkpt>
      <trkpt lat="48.17729" lon="7.27952">
        <ele>501</ele>
        <time>2022-04-06T09:36:30Z</time>
      </trkpt>
      <trkpt lat="48.17751" lon="7.27906">
        <ele>514</ele>
        <time>2022-04-06T09:36:37Z</time>
      </trkpt>
      <trkpt lat="48.17754" lon="7.27903">
        <ele>514</ele>
        <time>2022-04-06T09:36:38Z</time>
      </trkpt>
      <trkpt lat="48.17778" lon="7.27871">
        <ele>519</ele>
        <time>2022-04-06T09:36:43Z</time>
      </trkpt>
      <trkpt lat="48.1781" lon="7.27832">
        <ele>522</ele>
        <time>2022-04-06T09:36:51Z</time>
      </trkpt>
      <trkpt lat="48.17848" lon="7.27794">
        <ele>523</ele>
        <time>2022-04-06T09:36:59Z</time>
      </trkpt>
      <trkpt lat="48.17879" lon="7.27756">
        <ele>522</ele>
        <time>2022-04-06T09:37:06Z</time>
      </trkpt>
      <trkpt lat="48.17897" lon="7.27725">
        <ele>520</ele>
        <time>2022-04-06T09:37:11Z</time>
      </trkpt>
      <trkpt lat="48.17904" lon="7.27709">
        <ele>518</ele>
        <time>2022-04-06T09:37:13Z</time>
      </trkpt>
      <trkpt lat="48.17913" lon="7.27676">
        <ele>516</ele>
        <time>2022-04-06T09:37:17Z</time>
      </trkpt>
      <trkpt lat="48.17916" lon="7.27651">
        <ele>517</ele>
        <time>2022-04-06T09:37:20Z</time>
      </trkpt>
      <trkpt lat="48.17915" lon="7.27608">
        <ele>523</ele>
        <time>2022-04-06T09:37:25Z</time>
      </trkpt>
      <trkpt lat="48.17901" lon="7.27469">
        <ele>536</ele>
        <time>2022-04-06T09:37:42Z</time>
      </trkpt>
      <trkpt lat="48.17882" lon="7.27392">
        <ele>547</ele>
        <time>2022-04-06T09:37:52Z</time>
      </trkpt>
      <trkpt lat="48.17872" lon="7.27339">
        <ele>554</ele>
        <time>2022-04-06T09:37:58Z</time>
      </trkpt>
      <trkpt lat="48.17867" lon="7.27299">
        <ele>558</ele>
        <time>2022-04-06T09:38:03Z</time>
      </trkpt>
      <trkpt lat="48.17865" lon="7.27252">
        <ele>562</ele>
        <time>2022-04-06T09:38:09Z</time>
      </trkpt>
      <trkpt lat="48.17867" lon="7.27228">
        <ele>566</ele>
        <time>2022-04-06T09:38:12Z</time>
      </trkpt>
      <trkpt lat="48.17871" lon="7.27223">
        <ele>567</ele>
        <time>2022-04-06T09:38:13Z</time>
      </trkpt>
      <trkpt lat="48.17875" lon="7.27224">
        <ele>567</ele>
        <time>2022-04-06T09:38:13Z</time>
      </trkpt>
      <trkpt lat="48.17879" lon="7.27227">
        <ele>567</ele>
        <time>2022-04-06T09:38:14Z</time>
      </trkpt>
      <trkpt lat="48.17906" lon="7.27284">
        <ele>558</ele>
        <time>2022-04-06T09:38:22Z</time>
      </trkpt>
      <trkpt lat="48.17919" lon="7.27307">
        <ele>553</ele>
        <time>2022-04-06T09:38:26Z</time>
      </trkpt>
      <trkpt lat="48.17934" lon="7.27325">
        <ele>552</ele>
        <time>2022-04-06T09:38:29Z</time>
      </trkpt>
      <trkpt lat="48.18005" lon="7.27371">
        <ele>553</ele>
        <time>2022-04-06T09:38:43Z</time>
      </trkpt>
      <trkpt lat="48.18016" lon="7.27372">
        <ele>553</ele>
        <time>2022-04-06T09:38:45Z</time>
      </trkpt>
      <trkpt lat="48.18041" lon="7.27367">
        <ele>555</ele>
        <time>2022-04-06T09:38:50Z</time>
      </trkpt>
      <trkpt lat="48.18098" lon="7.27337">
        <ele>558</ele>
        <time>2022-04-06T09:39:00Z</time>
      </trkpt>
      <trkpt lat="48.18134" lon="7.27303">
        <ele>557</ele>
        <time>2022-04-06T09:39:08Z</time>
      </trkpt>
      <trkpt lat="48.18173" lon="7.2726">
        <ele>555</ele>
        <time>2022-04-06T09:39:17Z</time>
      </trkpt>
      <trkpt lat="48.18194" lon="7.27243">
        <ele>556</ele>
        <time>2022-04-06T09:39:21Z</time>
      </trkpt>
      <trkpt lat="48.18255" lon="7.27223">
        <ele>552</ele>
        <time>2022-04-06T09:39:32Z</time>
      </trkpt>
      <trkpt lat="48.18275" lon="7.27211">
        <ele>554</ele>
        <time>2022-04-06T09:39:36Z</time>
      </trkpt>
      <trkpt lat="48.18297" lon="7.27191">
        <ele>556</ele>
        <time>2022-04-06T09:39:40Z</time>
      </trkpt>
      <trkpt lat="48.18314" lon="7.27168">
        <ele>557</ele>
        <time>2022-04-06T09:39:44Z</time>
      </trkpt>
      <trkpt lat="48.18334" lon="7.27127">
        <ele>559</ele>
        <time>2022-04-06T09:39:50Z</time>
      </trkpt>
      <trkpt lat="48.18339" lon="7.27103">
        <ele>563</ele>
        <time>2022-04-06T09:39:53Z</time>
      </trkpt>
      <trkpt lat="48.18346" lon="7.27054">
        <ele>569</ele>
        <time>2022-04-06T09:39:59Z</time>
      </trkpt>
      <trkpt lat="48.18349" lon="7.27029">
        <ele>571</ele>
        <time>2022-04-06T09:40:02Z</time>
      </trkpt>
      <trkpt lat="48.18354" lon="7.2699">
        <ele>573</ele>
        <time>2022-04-06T09:40:07Z</time>
      </trkpt>
      <trkpt lat="48.1836" lon="7.26964">
        <ele>575</ele>
        <time>2022-04-06T09:40:10Z</time>
      </trkpt>
      <trkpt lat="48.18392" lon="7.26863">
        <ele>577</ele>
        <time>2022-04-06T09:40:24Z</time>
      </trkpt>
      <trkpt lat="48.18393" lon="7.26861">
        <ele>577</ele>
        <time>2022-04-06T09:40:24Z</time>
      </trkpt>
      <trkpt lat="48.18414" lon="7.26811">
        <ele>576</ele>
        <time>2022-04-06T09:40:31Z</time>
      </trkpt>
      <trkpt lat="48.1842" lon="7.26787">
        <ele>577</ele>
        <time>2022-04-06T09:40:34Z</time>
      </trkpt>
      <trkpt lat="48.18432" lon="7.26714">
        <ele>585</ele>
        <time>2022-04-06T09:40:43Z</time>
      </trkpt>
      <trkpt lat="48.18439" lon="7.26651">
        <ele>590</ele>
        <time>2022-04-06T09:40:50Z</time>
      </trkpt>
      <trkpt lat="48.18437" lon="7.266">
        <ele>595</ele>
        <time>2022-04-06T09:40:57Z</time>
      </trkpt>
      <trkpt lat="48.18429" lon="7.2655">
        <ele>602</ele>
        <time>2022-04-06T09:41:03Z</time>
      </trkpt>
      <trkpt lat="48.1843" lon="7.26536">
        <ele>603</ele>
        <time>2022-04-06T09:41:04Z</time>
      </trkpt>
      <trkpt lat="48.18433" lon="7.26518">
        <ele>605</ele>
        <time>2022-04-06T09:41:06Z</time>
      </trkpt>
      <trkpt lat="48.1847" lon="7.26403">
        <ele>613</ele>
        <time>2022-04-06T09:41:22Z</time>
      </trkpt>
      <trkpt lat="48.1849" lon="7.26351">
        <ele>616</ele>
        <time>2022-04-06T09:41:29Z</time>
      </trkpt>
      <trkpt lat="48.18499" lon="7.26304">
        <ele>618</ele>
        <time>2022-04-06T09:41:35Z</time>
      </trkpt>
      <trkpt lat="48.18519" lon="7.26222">
        <ele>626</ele>
        <time>2022-04-06T09:41:45Z</time>
      </trkpt>
      <trkpt lat="48.18543" lon="7.26093">
        <ele>640</ele>
        <time>2022-04-06T09:42:01Z</time>
      </trkpt>
      <trkpt lat="48.18557" lon="7.26048">
        <ele>642</ele>
        <time>2022-04-06T09:42:07Z</time>
      </trkpt>
      <trkpt lat="48.18568" lon="7.26025">
        <ele>643</ele>
        <time>2022-04-06T09:42:10Z</time>
      </trkpt>
      <trkpt lat="48.18588" lon="7.26">
        <ele>644</ele>
        <time>2022-04-06T09:42:15Z</time>
      </trkpt>
      <trkpt lat="48.18589" lon="7.25997">
        <ele>645</ele>
        <time>2022-04-06T09:42:15Z</time>
      </trkpt>
      <trkpt lat="48.1859" lon="7.25993">
        <ele>645</ele>
        <time>2022-04-06T09:42:16Z</time>
      </trkpt>
      <trkpt lat="48.18589" lon="7.25981">
        <ele>646</ele>
        <time>2022-04-06T09:42:17Z</time>
      </trkpt>
      <trkpt lat="48.18583" lon="7.25971">
        <ele>645</ele>
        <time>2022-04-06T09:42:19Z</time>
      </trkpt>
      <trkpt lat="48.18572" lon="7.2597">
        <ele>647</ele>
        <time>2022-04-06T09:42:21Z</time>
      </trkpt>
      <trkpt lat="48.18565" lon="7.25975">
        <ele>647</ele>
        <time>2022-04-06T09:42:22Z</time>
      </trkpt>
      <trkpt lat="48.18557" lon="7.25986">
        <ele>648</ele>
        <time>2022-04-06T09:42:24Z</time>
      </trkpt>
      <trkpt lat="48.18528" lon="7.26036">
        <ele>647</ele>
        <time>2022-04-06T09:42:32Z</time>
      </trkpt>
      <trkpt lat="48.18464" lon="7.2611">
        <ele>650</ele>
        <time>2022-04-06T09:42:46Z</time>
      </trkpt>
      <trkpt lat="48.1846" lon="7.26113">
        <ele>651</ele>
        <time>2022-04-06T09:42:47Z</time>
      </trkpt>
      <trkpt lat="48.18454" lon="7.26112">
        <ele>652</ele>
        <time>2022-04-06T09:42:48Z</time>
      </trkpt>
      <trkpt lat="48.1845" lon="7.26108">
        <ele>653</ele>
        <time>2022-04-06T09:42:49Z</time>
      </trkpt>
      <trkpt lat="48.18449" lon="7.26104">
        <ele>654</ele>
        <time>2022-04-06T09:42:49Z</time>
      </trkpt>
      <trkpt lat="48.18447" lon="7.26099">
        <ele>655</ele>
        <time>2022-04-06T09:42:50Z</time>
      </trkpt>
      <trkpt lat="48.18454" lon="7.26075">
        <ele>656</ele>
        <time>2022-04-06T09:42:53Z</time>
      </trkpt>
      <trkpt lat="48.18474" lon="7.2602">
        <ele>657</ele>
        <time>2022-04-06T09:43:01Z</time>
      </trkpt>
      <trkpt lat="48.18496" lon="7.25944">
        <ele>661</ele>
        <time>2022-04-06T09:43:10Z</time>
      </trkpt>
      <trkpt lat="48.18513" lon="7.25895">
        <ele>665</ele>
        <time>2022-04-06T09:43:17Z</time>
      </trkpt>
      <trkpt lat="48.18513" lon="7.25883">
        <ele>666</ele>
        <time>2022-04-06T09:43:18Z</time>
      </trkpt>
      <trkpt lat="48.18507" lon="7.25875">
        <ele>669</ele>
        <time>2022-04-06T09:43:20Z</time>
      </trkpt>
      <trkpt lat="48.18499" lon="7.25879">
        <ele>670</ele>
        <time>2022-04-06T09:43:21Z</time>
      </trkpt>
      <trkpt lat="48.18439" lon="7.25921">
        <ele>672</ele>
        <time>2022-04-06T09:43:33Z</time>
      </trkpt>
      <trkpt lat="48.18404" lon="7.25947">
        <ele>677</ele>
        <time>2022-04-06T09:43:40Z</time>
      </trkpt>
      <trkpt lat="48.18393" lon="7.25963">
        <ele>678</ele>
        <time>2022-04-06T09:43:43Z</time>
      </trkpt>
      <trkpt lat="48.18379" lon="7.25989">
        <ele>679</ele>
        <time>2022-04-06T09:43:47Z</time>
      </trkpt>
      <trkpt lat="48.18321" lon="7.26073">
        <ele>686</ele>
        <time>2022-04-06T09:44:01Z</time>
      </trkpt>
      <trkpt lat="48.18293" lon="7.26099">
        <ele>689</ele>
        <time>2022-04-06T09:44:07Z</time>
      </trkpt>
      <trkpt lat="48.18278" lon="7.26098">
        <ele>690</ele>
        <time>2022-04-06T09:44:10Z</time>
      </trkpt>
      <trkpt lat="48.18275" lon="7.26096">
        <ele>691</ele>
        <time>2022-04-06T09:44:10Z</time>
      </trkpt>
      <trkpt lat="48.18273" lon="7.26094">
        <ele>691</ele>
        <time>2022-04-06T09:44:11Z</time>
      </trkpt>
      <trkpt lat="48.18269" lon="7.26091">
        <ele>691</ele>
        <time>2022-04-06T09:44:11Z</time>
      </trkpt>
      <trkpt lat="48.18265" lon="7.26081">
        <ele>691</ele>
        <time>2022-04-06T09:44:13Z</time>
      </trkpt>
      <trkpt lat="48.18263" lon="7.26068">
        <ele>692</ele>
        <time>2022-04-06T09:44:14Z</time>
      </trkpt>
      <trkpt lat="48.18268" lon="7.26037">
        <ele>692</ele>
        <time>2022-04-06T09:44:18Z</time>
      </trkpt>
      <trkpt lat="48.18268" lon="7.25971">
        <ele>694</ele>
        <time>2022-04-06T09:44:26Z</time>
      </trkpt>
      <trkpt lat="48.18267" lon="7.25961">
        <ele>694</ele>
        <time>2022-04-06T09:44:27Z</time>
      </trkpt>
      <trkpt lat="48.18261" lon="7.25948">
        <ele>696</ele>
        <time>2022-04-06T09:44:29Z</time>
      </trkpt>
      <trkpt lat="48.18258" lon="7.25945">
        <ele>696</ele>
        <time>2022-04-06T09:44:30Z</time>
      </trkpt>
      <trkpt lat="48.18169" lon="7.25857">
        <ele>697</ele>
        <time>2022-04-06T09:44:49Z</time>
      </trkpt>
      <trkpt lat="48.18163" lon="7.25849">
        <ele>698</ele>
        <time>2022-04-06T09:44:50Z</time>
      </trkpt>
      <trkpt lat="48.1816" lon="7.25846">
        <ele>697</ele>
        <time>2022-04-06T09:44:51Z</time>
      </trkpt>
      <trkpt lat="48.1813" lon="7.25738">
        <ele>700</ele>
        <time>2022-04-06T09:45:05Z</time>
      </trkpt>
      <trkpt lat="48.18118" lon="7.25709">
        <ele>702</ele>
        <time>2022-04-06T09:45:09Z</time>
      </trkpt>
      <trkpt lat="48.18107" lon="7.25688">
        <ele>702</ele>
        <time>2022-04-06T09:45:12Z</time>
      </trkpt>
      <trkpt lat="48.18067" lon="7.25624">
        <ele>703</ele>
        <time>2022-04-06T09:45:22Z</time>
      </trkpt>
      <trkpt lat="48.18028" lon="7.25558">
        <ele>703</ele>
        <time>2022-04-06T09:45:33Z</time>
      </trkpt>
      <trkpt lat="48.18012" lon="7.25523">
        <ele>704</ele>
        <time>2022-04-06T09:45:38Z</time>
      </trkpt>
      <trkpt lat="48.17998" lon="7.25484">
        <ele>704</ele>
        <time>2022-04-06T09:45:43Z</time>
      </trkpt>
      <trkpt lat="48.17963" lon="7.25346">
        <ele>709</ele>
        <time>2022-04-06T09:46:01Z</time>
      </trkpt>
      <trkpt lat="48.17951" lon="7.25305">
        <ele>710</ele>
        <time>2022-04-06T09:46:06Z</time>
      </trkpt>
      <trkpt lat="48.17921" lon="7.25222">
        <ele>708</ele>
        <time>2022-04-06T09:46:17Z</time>
      </trkpt>
      <trkpt lat="48.17916" lon="7.25199">
        <ele>709</ele>
        <time>2022-04-06T09:46:20Z</time>
      </trkpt>
      <trkpt lat="48.17908" lon="7.25147">
        <ele>713</ele>
        <time>2022-04-06T09:46:26Z</time>
      </trkpt>
      <trkpt lat="48.17905" lon="7.25126">
        <ele>715</ele>
        <time>2022-04-06T09:46:29Z</time>
      </trkpt>
      <trkpt lat="48.17903" lon="7.25109">
        <ele>716</ele>
        <time>2022-04-06T09:46:31Z</time>
      </trkpt>
      <trkpt lat="48.17902" lon="7.2509">
        <ele>717</ele>
        <time>2022-04-06T09:46:33Z</time>
      </trkpt>
      <trkpt lat="48.17902" lon="7.25073">
        <ele>718</ele>
        <time>2022-04-06T09:46:35Z</time>
      </trkpt>
      <trkpt lat="48.17918" lon="7.24937">
        <ele>722</ele>
        <time>2022-04-06T09:46:52Z</time>
      </trkpt>
      <trkpt lat="48.17935" lon="7.24863">
        <ele>725</ele>
        <time>2022-04-06T09:47:01Z</time>
      </trkpt>
      <trkpt lat="48.17947" lon="7.24828">
        <ele>726</ele>
        <time>2022-04-06T09:47:05Z</time>
      </trkpt>
      <trkpt lat="48.17964" lon="7.24792">
        <ele>728</ele>
        <time>2022-04-06T09:47:11Z</time>
      </trkpt>
      <trkpt lat="48.17974" lon="7.24773">
        <ele>729</ele>
        <time>2022-04-06T09:47:14Z</time>
      </trkpt>
      <trkpt lat="48.17986" lon="7.24757">
        <ele>730</ele>
        <time>2022-04-06T09:47:16Z</time>
      </trkpt>
      <trkpt lat="48.18011" lon="7.24733">
        <ele>730</ele>
        <time>2022-04-06T09:47:22Z</time>
      </trkpt>
      <trkpt lat="48.18146" lon="7.24614">
        <ele>733</ele>
        <time>2022-04-06T09:47:50Z</time>
      </trkpt>
      <trkpt lat="48.18161" lon="7.24598">
        <ele>734</ele>
        <time>2022-04-06T09:47:53Z</time>
      </trkpt>
      <trkpt lat="48.18178" lon="7.24575">
        <ele>737</ele>
        <time>2022-04-06T09:47:57Z</time>
      </trkpt>
      <trkpt lat="48.18185" lon="7.24562">
        <ele>738</ele>
        <time>2022-04-06T09:47:59Z</time>
      </trkpt>
      <trkpt lat="48.18191" lon="7.24547">
        <ele>738</ele>
        <time>2022-04-06T09:48:01Z</time>
      </trkpt>
      <trkpt lat="48.182" lon="7.24492">
        <ele>734</ele>
        <time>2022-04-06T09:48:08Z</time>
      </trkpt>
      <trkpt lat="48.18203" lon="7.24478">
        <ele>733</ele>
        <time>2022-04-06T09:48:09Z</time>
      </trkpt>
      <trkpt lat="48.18208" lon="7.24466">
        <ele>733</ele>
        <time>2022-04-06T09:48:11Z</time>
      </trkpt>
      <trkpt lat="48.18248" lon="7.24404">
        <ele>739</ele>
        <time>2022-04-06T09:48:21Z</time>
      </trkpt>
      <trkpt lat="48.18255" lon="7.2439">
        <ele>741</ele>
        <time>2022-04-06T09:48:23Z</time>
      </trkpt>
      <trkpt lat="48.18269" lon="7.24326">
        <ele>745</ele>
        <time>2022-04-06T09:48:31Z</time>
      </trkpt>
      <trkpt lat="48.18269" lon="7.24313">
        <ele>746</ele>
        <time>2022-04-06T09:48:33Z</time>
      </trkpt>
      <trkpt lat="48.18267" lon="7.243">
        <ele>745</ele>
        <time>2022-04-06T09:48:35Z</time>
      </trkpt>
      <trkpt lat="48.18259" lon="7.24275">
        <ele>741</ele>
        <time>2022-04-06T09:48:38Z</time>
      </trkpt>
      <trkpt lat="48.18247" lon="7.24245">
        <ele>735</ele>
        <time>2022-04-06T09:48:42Z</time>
      </trkpt>
      <trkpt lat="48.18242" lon="7.24211">
        <ele>733</ele>
        <time>2022-04-06T09:48:46Z</time>
      </trkpt>
      <trkpt lat="48.18237" lon="7.24168">
        <ele>732</ele>
        <time>2022-04-06T09:48:51Z</time>
      </trkpt>
      <trkpt lat="48.18239" lon="7.24137">
        <ele>734</ele>
        <time>2022-04-06T09:48:55Z</time>
      </trkpt>
      <trkpt lat="48.18246" lon="7.24069">
        <ele>736</ele>
        <time>2022-04-06T09:49:03Z</time>
      </trkpt>
      <trkpt lat="48.18253" lon="7.24031">
        <ele>736</ele>
        <time>2022-04-06T09:49:08Z</time>
      </trkpt>
      <trkpt lat="48.18264" lon="7.23997">
        <ele>737</ele>
        <time>2022-04-06T09:49:12Z</time>
      </trkpt>
      <trkpt lat="48.18278" lon="7.23965">
        <ele>736</ele>
        <time>2022-04-06T09:49:17Z</time>
      </trkpt>
      <trkpt lat="48.1831" lon="7.23913">
        <ele>735</ele>
        <time>2022-04-06T09:49:25Z</time>
      </trkpt>
      <trkpt lat="48.18332" lon="7.23874">
        <ele>734</ele>
        <time>2022-04-06T09:49:31Z</time>
      </trkpt>
      <trkpt lat="48.18356" lon="7.23845">
        <ele>732</ele>
        <time>2022-04-06T09:49:37Z</time>
      </trkpt>
      <trkpt lat="48.18382" lon="7.23829">
        <ele>731</ele>
        <time>2022-04-06T09:49:42Z</time>
      </trkpt>
      <trkpt lat="48.18412" lon="7.23814">
        <ele>730</ele>
        <time>2022-04-06T09:49:47Z</time>
      </trkpt>
      <trkpt lat="48.18514" lon="7.23781">
        <ele>729</ele>
        <time>2022-04-06T09:50:06Z</time>
      </trkpt>
      <trkpt lat="48.18525" lon="7.23774">
        <ele>731</ele>
        <time>2022-04-06T09:50:08Z</time>
      </trkpt>
      <trkpt lat="48.18534" lon="7.23757">
        <ele>730</ele>
        <time>2022-04-06T09:50:11Z</time>
      </trkpt>
      <trkpt lat="48.18535" lon="7.23734">
        <ele>728</ele>
        <time>2022-04-06T09:50:13Z</time>
      </trkpt>
      <trkpt lat="48.18532" lon="7.23709">
        <ele>727</ele>
        <time>2022-04-06T09:50:16Z</time>
      </trkpt>
      <trkpt lat="48.18524" lon="7.23679">
        <ele>722</ele>
        <time>2022-04-06T09:50:20Z</time>
      </trkpt>
      <trkpt lat="48.1851" lon="7.23643">
        <ele>716</ele>
        <time>2022-04-06T09:50:25Z</time>
      </trkpt>
      <trkpt lat="48.18501" lon="7.23625">
        <ele>712</ele>
        <time>2022-04-06T09:50:28Z</time>
      </trkpt>
      <trkpt lat="48.18489" lon="7.2359">
        <ele>709</ele>
        <time>2022-04-06T09:50:33Z</time>
      </trkpt>
      <trkpt lat="48.18482" lon="7.23477">
        <ele>709</ele>
        <time>2022-04-06T09:50:46Z</time>
      </trkpt>
      <trkpt lat="48.18475" lon="7.23431">
        <ele>711</ele>
        <time>2022-04-06T09:50:52Z</time>
      </trkpt>
      <trkpt lat="48.18467" lon="7.23397">
        <ele>712</ele>
        <time>2022-04-06T09:50:56Z</time>
      </trkpt>
      <trkpt lat="48.18464" lon="7.23374">
        <ele>714</ele>
        <time>2022-04-06T09:50:59Z</time>
      </trkpt>
      <trkpt lat="48.18458" lon="7.23314">
        <ele>718</ele>
        <time>2022-04-06T09:51:06Z</time>
      </trkpt>
      <trkpt lat="48.18454" lon="7.2329">
        <ele>718</ele>
        <time>2022-04-06T09:51:09Z</time>
      </trkpt>
      <trkpt lat="48.18435" lon="7.23229">
        <ele>716</ele>
        <time>2022-04-06T09:51:17Z</time>
      </trkpt>
      <trkpt lat="48.18423" lon="7.23196">
        <ele>715</ele>
        <time>2022-04-06T09:51:21Z</time>
      </trkpt>
      <trkpt lat="48.18397" lon="7.23146">
        <ele>712</ele>
        <time>2022-04-06T09:51:29Z</time>
      </trkpt>
      <trkpt lat="48.18384" lon="7.23094">
        <ele>716</ele>
        <time>2022-04-06T09:51:35Z</time>
      </trkpt>
      <trkpt lat="48.18377" lon="7.23074">
        <ele>717</ele>
        <time>2022-04-06T09:51:38Z</time>
      </trkpt>
      <trkpt lat="48.18367" lon="7.23057">
        <ele>716</ele>
        <time>2022-04-06T09:51:41Z</time>
      </trkpt>
      <trkpt lat="48.18356" lon="7.23033">
        <ele>717</ele>
        <time>2022-04-06T09:51:44Z</time>
      </trkpt>
      <trkpt lat="48.18297" lon="7.2288">
        <ele>718</ele>
        <time>2022-04-06T09:52:05Z</time>
      </trkpt>
      <trkpt lat="48.18282" lon="7.22848">
        <ele>719</ele>
        <time>2022-04-06T09:52:10Z</time>
      </trkpt>
      <trkpt lat="48.1824" lon="7.22773">
        <ele>717</ele>
        <time>2022-04-06T09:52:21Z</time>
      </trkpt>
      <trkpt lat="48.18228" lon="7.22744">
        <ele>718</ele>
        <time>2022-04-06T09:52:25Z</time>
      </trkpt>
      <trkpt lat="48.18205" lon="7.22659">
        <ele>720</ele>
        <time>2022-04-06T09:52:36Z</time>
      </trkpt>
      <trkpt lat="48.18195" lon="7.22617">
        <ele>717</ele>
        <time>2022-04-06T09:52:42Z</time>
      </trkpt>
      <trkpt lat="48.18189" lon="7.22573">
        <ele>716</ele>
        <time>2022-04-06T09:52:47Z</time>
      </trkpt>
      <trkpt lat="48.18185" lon="7.22524">
        <ele>715</ele>
        <time>2022-04-06T09:52:53Z</time>
      </trkpt>
      <trkpt lat="48.18179" lon="7.22484">
        <ele>716</ele>
        <time>2022-04-06T09:52:58Z</time>
      </trkpt>
      <trkpt lat="48.18172" lon="7.2246">
        <ele>719</ele>
        <time>2022-04-06T09:53:01Z</time>
      </trkpt>
      <trkpt lat="48.18163" lon="7.22443">
        <ele>721</ele>
        <time>2022-04-06T09:53:03Z</time>
      </trkpt>
      <trkpt lat="48.1813" lon="7.22413">
        <ele>724</ele>
        <time>2022-04-06T09:53:10Z</time>
      </trkpt>
      <trkpt lat="48.18114" lon="7.22403">
        <ele>726</ele>
        <time>2022-04-06T09:53:13Z</time>
      </trkpt>
      <trkpt lat="48.18104" lon="7.22401">
        <ele>725</ele>
        <time>2022-04-06T09:53:15Z</time>
      </trkpt>
      <trkpt lat="48.18095" lon="7.22402">
        <ele>723</ele>
        <time>2022-04-06T09:53:17Z</time>
      </trkpt>
      <trkpt lat="48.18063" lon="7.22418">
        <ele>719</ele>
        <time>2022-04-06T09:53:23Z</time>
      </trkpt>
      <trkpt lat="48.17939" lon="7.22462">
        <ele>716</ele>
        <time>2022-04-06T09:53:45Z</time>
      </trkpt>
      <trkpt lat="48.17928" lon="7.22462">
        <ele>716</ele>
        <time>2022-04-06T09:53:47Z</time>
      </trkpt>
      <trkpt lat="48.17916" lon="7.2246">
        <ele>716</ele>
        <time>2022-04-06T09:53:50Z</time>
      </trkpt>
      <trkpt lat="48.17888" lon="7.22449">
        <ele>714</ele>
        <time>2022-04-06T09:53:55Z</time>
      </trkpt>
      <trkpt lat="48.17875" lon="7.2244">
        <ele>714</ele>
        <time>2022-04-06T09:53:57Z</time>
      </trkpt>
      <trkpt lat="48.17823" lon="7.22396">
        <ele>713</ele>
        <time>2022-04-06T09:54:08Z</time>
      </trkpt>
      <trkpt lat="48.17788" lon="7.22353">
        <ele>714</ele>
        <time>2022-04-06T09:54:16Z</time>
      </trkpt>
      <trkpt lat="48.17701" lon="7.22194">
        <ele>724</ele>
        <time>2022-04-06T09:54:40Z</time>
      </trkpt>
      <trkpt lat="48.17692" lon="7.2218">
        <ele>724</ele>
        <time>2022-04-06T09:54:43Z</time>
      </trkpt>
      <trkpt lat="48.17687" lon="7.22176">
        <ele>724</ele>
        <time>2022-04-06T09:54:44Z</time>
      </trkpt>
      <trkpt lat="48.17669" lon="7.22171">
        <ele>719</ele>
        <time>2022-04-06T09:54:47Z</time>
      </trkpt>
      <trkpt lat="48.17659" lon="7.22165">
        <ele>719</ele>
        <time>2022-04-06T09:54:49Z</time>
      </trkpt>
      <trkpt lat="48.17637" lon="7.22139">
        <ele>726</ele>
        <time>2022-04-06T09:54:54Z</time>
      </trkpt>
      <trkpt lat="48.17625" lon="7.22131">
        <ele>728</ele>
        <time>2022-04-06T09:54:56Z</time>
      </trkpt>
      <trkpt lat="48.17614" lon="7.22131">
        <ele>727</ele>
        <time>2022-04-06T09:54:58Z</time>
      </trkpt>
      <trkpt lat="48.17604" lon="7.22136">
        <ele>724</ele>
        <time>2022-04-06T09:55:00Z</time>
      </trkpt>
      <trkpt lat="48.17561" lon="7.22178">
        <ele>710</ele>
        <time>2022-04-06T09:55:09Z</time>
      </trkpt>
      <trkpt lat="48.17502" lon="7.22241">
        <ele>701</ele>
        <time>2022-04-06T09:55:22Z</time>
      </trkpt>
      <trkpt lat="48.17491" lon="7.2225">
        <ele>699</ele>
        <time>2022-04-06T09:55:24Z</time>
      </trkpt>
      <trkpt lat="48.17475" lon="7.22254">
        <ele>699</ele>
        <time>2022-04-06T09:55:27Z</time>
      </trkpt>
      <trkpt lat="48.17455" lon="7.22253">
        <ele>699</ele>
        <time>2022-04-06T09:55:31Z</time>
      </trkpt>
      <trkpt lat="48.17445" lon="7.22251">
        <ele>700</ele>
        <time>2022-04-06T09:55:32Z</time>
      </trkpt>
      <trkpt lat="48.17416" lon="7.22236">
        <ele>702</ele>
        <time>2022-04-06T09:55:38Z</time>
      </trkpt>
      <trkpt lat="48.17407" lon="7.22232">
        <ele>702</ele>
        <time>2022-04-06T09:55:40Z</time>
      </trkpt>
      <trkpt lat="48.17389" lon="7.22217">
        <ele>704</ele>
        <time>2022-04-06T09:55:43Z</time>
      </trkpt>
      <trkpt lat="48.17371" lon="7.22196">
        <ele>705</ele>
        <time>2022-04-06T09:55:47Z</time>
      </trkpt>
      <trkpt lat="48.17352" lon="7.22165">
        <ele>707</ele>
        <time>2022-04-06T09:55:52Z</time>
      </trkpt>
      <trkpt lat="48.1734" lon="7.22129">
        <ele>709</ele>
        <time>2022-04-06T09:55:57Z</time>
      </trkpt>
      <trkpt lat="48.17327" lon="7.22085">
        <ele>710</ele>
        <time>2022-04-06T09:56:03Z</time>
      </trkpt>
      <trkpt lat="48.17286" lon="7.21994">
        <ele>707</ele>
        <time>2022-04-06T09:56:16Z</time>
      </trkpt>
      <trkpt lat="48.17283" lon="7.21975">
        <ele>708</ele>
        <time>2022-04-06T09:56:18Z</time>
      </trkpt>
      <trkpt lat="48.17284" lon="7.21961">
        <ele>710</ele>
        <time>2022-04-06T09:56:20Z</time>
      </trkpt>
      <trkpt lat="48.17282" lon="7.21933">
        <ele>712</ele>
        <time>2022-04-06T09:56:23Z</time>
      </trkpt>
      <trkpt lat="48.17268" lon="7.21877">
        <ele>713</ele>
        <time>2022-04-06T09:56:30Z</time>
      </trkpt>
      <trkpt lat="48.17255" lon="7.21776">
        <ele>723</ele>
        <time>2022-04-06T09:56:42Z</time>
      </trkpt>
      <trkpt lat="48.1725" lon="7.21747">
        <ele>726</ele>
        <time>2022-04-06T09:56:46Z</time>
      </trkpt>
      <trkpt lat="48.17242" lon="7.21719">
        <ele>728</ele>
        <time>2022-04-06T09:56:50Z</time>
      </trkpt>
      <trkpt lat="48.17233" lon="7.21693">
        <ele>729</ele>
        <time>2022-04-06T09:56:53Z</time>
      </trkpt>
      <trkpt lat="48.17209" lon="7.21646">
        <ele>727</ele>
        <time>2022-04-06T09:57:00Z</time>
      </trkpt>
      <trkpt lat="48.17199" lon="7.21614">
        <ele>727</ele>
        <time>2022-04-06T09:57:04Z</time>
      </trkpt>
      <trkpt lat="48.17195" lon="7.21593">
        <ele>728</ele>
        <time>2022-04-06T09:57:07Z</time>
      </trkpt>
      <trkpt lat="48.17185" lon="7.21503">
        <ele>733</ele>
        <time>2022-04-06T09:57:18Z</time>
      </trkpt>
      <trkpt lat="48.17172" lon="7.21433">
        <ele>733</ele>
        <time>2022-04-06T09:57:26Z</time>
      </trkpt>
      <trkpt lat="48.17172" lon="7.2142">
        <ele>734</ele>
        <time>2022-04-06T09:57:28Z</time>
      </trkpt>
      <trkpt lat="48.17175" lon="7.21406">
        <ele>735</ele>
        <time>2022-04-06T09:57:30Z</time>
      </trkpt>
      <trkpt lat="48.17188" lon="7.21377">
        <ele>739</ele>
        <time>2022-04-06T09:57:34Z</time>
      </trkpt>
      <trkpt lat="48.17196" lon="7.21365">
        <ele>742</ele>
        <time>2022-04-06T09:57:36Z</time>
      </trkpt>
      <trkpt lat="48.17201" lon="7.21357">
        <ele>743</ele>
        <time>2022-04-06T09:57:37Z</time>
      </trkpt>
      <trkpt lat="48.17204" lon="7.2135">
        <ele>744</ele>
        <time>2022-04-06T09:57:38Z</time>
      </trkpt>
      <trkpt lat="48.17205" lon="7.2134">
        <ele>745</ele>
        <time>2022-04-06T09:57:39Z</time>
      </trkpt>
      <trkpt lat="48.17206" lon="7.21249">
        <ele>740</ele>
        <time>2022-04-06T09:57:50Z</time>
      </trkpt>
      <trkpt lat="48.17215" lon="7.21203">
        <ele>738</ele>
        <time>2022-04-06T09:57:56Z</time>
      </trkpt>
      <trkpt lat="48.17222" lon="7.21174">
        <ele>737</ele>
        <time>2022-04-06T09:57:59Z</time>
      </trkpt>
      <trkpt lat="48.17232" lon="7.21155">
        <ele>737</ele>
        <time>2022-04-06T09:58:02Z</time>
      </trkpt>
      <trkpt lat="48.17252" lon="7.21134">
        <ele>738</ele>
        <time>2022-04-06T09:58:07Z</time>
      </trkpt>
      <trkpt lat="48.17284" lon="7.21109">
        <ele>742</ele>
        <time>2022-04-06T09:58:13Z</time>
      </trkpt>
      <trkpt lat="48.17311" lon="7.2109">
        <ele>746</ele>
        <time>2022-04-06T09:58:18Z</time>
      </trkpt>
      <trkpt lat="48.17319" lon="7.21084">
        <ele>747</ele>
        <time>2022-04-06T09:58:20Z</time>
      </trkpt>
      <trkpt lat="48.17362" lon="7.2105">
        <ele>747</ele>
        <time>2022-04-06T09:58:29Z</time>
      </trkpt>
      <trkpt lat="48.17375" lon="7.21039">
        <ele>748</ele>
        <time>2022-04-06T09:58:31Z</time>
      </trkpt>
      <trkpt lat="48.17387" lon="7.21029">
        <ele>748</ele>
        <time>2022-04-06T09:58:34Z</time>
      </trkpt>
      <trkpt lat="48.1743" lon="7.20997">
        <ele>748</ele>
        <time>2022-04-06T09:58:42Z</time>
      </trkpt>
      <trkpt lat="48.17454" lon="7.20989">
        <ele>749</ele>
        <time>2022-04-06T09:58:47Z</time>
      </trkpt>
      <trkpt lat="48.17516" lon="7.20988">
        <ele>756</ele>
        <time>2022-04-06T09:58:58Z</time>
      </trkpt>
      <trkpt lat="48.17578" lon="7.20981">
        <ele>761</ele>
        <time>2022-04-06T09:59:09Z</time>
      </trkpt>
      <trkpt lat="48.17607" lon="7.20974">
        <ele>762</ele>
        <time>2022-04-06T09:59:14Z</time>
      </trkpt>
      <trkpt lat="48.17716" lon="7.20939">
        <ele>758</ele>
        <time>2022-04-06T09:59:34Z</time>
      </trkpt>
      <trkpt lat="48.17744" lon="7.20936">
        <ele>758</ele>
        <time>2022-04-06T09:59:39Z</time>
      </trkpt>
      <trkpt lat="48.1777" lon="7.20941">
        <ele>757</ele>
        <time>2022-04-06T09:59:43Z</time>
      </trkpt>
      <trkpt lat="48.17873" lon="7.20968">
        <ele>756</ele>
        <time>2022-04-06T10:00:02Z</time>
      </trkpt>
      <trkpt lat="48.17952" lon="7.21002">
        <ele>755</ele>
        <time>2022-04-06T10:00:17Z</time>
      </trkpt>
      <trkpt lat="48.17979" lon="7.21019">
        <ele>755</ele>
        <time>2022-04-06T10:00:22Z</time>
      </trkpt>
      <trkpt lat="48.18008" lon="7.21046">
        <ele>755</ele>
        <time>2022-04-06T10:00:28Z</time>
      </trkpt>
      <trkpt lat="48.18032" lon="7.21075">
        <ele>754</ele>
        <time>2022-04-06T10:00:33Z</time>
      </trkpt>
      <trkpt lat="48.1804" lon="7.21079">
        <ele>753</ele>
        <time>2022-04-06T10:00:35Z</time>
      </trkpt>
      <trkpt lat="48.18045" lon="7.21077">
        <ele>751</ele>
        <time>2022-04-06T10:00:36Z</time>
      </trkpt>
      <trkpt lat="48.18021" lon="7.21046">
        <ele>751</ele>
        <time>2022-04-06T10:00:41Z</time>
      </trkpt>
      <trkpt lat="48.17946" lon="7.2096">
        <ele>748</ele>
        <time>2022-04-06T10:00:58Z</time>
      </trkpt>
      <trkpt lat="48.17868" lon="7.20903">
        <ele>744</ele>
        <time>2022-04-06T10:01:14Z</time>
      </trkpt>
      <trkpt lat="48.17813" lon="7.20871">
        <ele>741</ele>
        <time>2022-04-06T10:01:24Z</time>
      </trkpt>
      <trkpt lat="48.17775" lon="7.20845">
        <ele>738</ele>
        <time>2022-04-06T10:01:32Z</time>
      </trkpt>
      <trkpt lat="48.17756" lon="7.20829">
        <ele>736</ele>
        <time>2022-04-06T10:01:35Z</time>
      </trkpt>
      <trkpt lat="48.17747" lon="7.20819">
        <ele>734</ele>
        <time>2022-04-06T10:01:37Z</time>
      </trkpt>
      <trkpt lat="48.17745" lon="7.20809">
        <ele>731</ele>
        <time>2022-04-06T10:01:39Z</time>
      </trkpt>
      <trkpt lat="48.17747" lon="7.20798">
        <ele>728</ele>
        <time>2022-04-06T10:01:40Z</time>
      </trkpt>
      <trkpt lat="48.17751" lon="7.20792">
        <ele>727</ele>
        <time>2022-04-06T10:01:41Z</time>
      </trkpt>
      <trkpt lat="48.17759" lon="7.20789">
        <ele>725</ele>
        <time>2022-04-06T10:01:43Z</time>
      </trkpt>
      <trkpt lat="48.17769" lon="7.20796">
        <ele>726</ele>
        <time>2022-04-06T10:01:45Z</time>
      </trkpt>
      <trkpt lat="48.17788" lon="7.20819">
        <ele>730</ele>
        <time>2022-04-06T10:01:49Z</time>
      </trkpt>
      <trkpt lat="48.17801" lon="7.2083">
        <ele>732</ele>
        <time>2022-04-06T10:01:52Z</time>
      </trkpt>
      <trkpt lat="48.17815" lon="7.20836">
        <ele>732</ele>
        <time>2022-04-06T10:01:54Z</time>
      </trkpt>
      <trkpt lat="48.17843" lon="7.20841">
        <ele>731</ele>
        <time>2022-04-06T10:01:59Z</time>
      </trkpt>
      <trkpt lat="48.17907" lon="7.20841">
        <ele>724</ele>
        <time>2022-04-06T10:02:11Z</time>
      </trkpt>
      <trkpt lat="48.18008" lon="7.20836">
        <ele>707</ele>
        <time>2022-04-06T10:02:28Z</time>
      </trkpt>
      <trkpt lat="48.18022" lon="7.20838">
        <ele>703</ele>
        <time>2022-04-06T10:02:31Z</time>
      </trkpt>
      <trkpt lat="48.18034" lon="7.20846">
        <ele>702</ele>
        <time>2022-04-06T10:02:33Z</time>
      </trkpt>
      <trkpt lat="48.18044" lon="7.20856">
        <ele>701</ele>
        <time>2022-04-06T10:02:35Z</time>
      </trkpt>
      <trkpt lat="48.18112" lon="7.20953">
        <ele>707</ele>
        <time>2022-04-06T10:02:52Z</time>
      </trkpt>
      <trkpt lat="48.18121" lon="7.20963">
        <ele>708</ele>
        <time>2022-04-06T10:02:54Z</time>
      </trkpt>
      <trkpt lat="48.1813" lon="7.20968">
        <ele>709</ele>
        <time>2022-04-06T10:02:56Z</time>
      </trkpt>
      <trkpt lat="48.18141" lon="7.20969">
        <ele>708</ele>
        <time>2022-04-06T10:02:58Z</time>
      </trkpt>
      <trkpt lat="48.18148" lon="7.20965">
        <ele>706</ele>
        <time>2022-04-06T10:02:59Z</time>
      </trkpt>
      <trkpt lat="48.18192" lon="7.20904">
        <ele>687</ele>
        <time>2022-04-06T10:03:10Z</time>
      </trkpt>
      <trkpt lat="48.182" lon="7.20898">
        <ele>685</ele>
        <time>2022-04-06T10:03:11Z</time>
      </trkpt>
      <trkpt lat="48.18209" lon="7.20897">
        <ele>685</ele>
        <time>2022-04-06T10:03:13Z</time>
      </trkpt>
      <trkpt lat="48.18256" lon="7.20899">
        <ele>688</ele>
        <time>2022-04-06T10:03:21Z</time>
      </trkpt>
      <trkpt lat="48.18268" lon="7.20894">
        <ele>688</ele>
        <time>2022-04-06T10:03:24Z</time>
      </trkpt>
      <trkpt lat="48.1828" lon="7.20885">
        <ele>687</ele>
        <time>2022-04-06T10:03:26Z</time>
      </trkpt>
      <trkpt lat="48.18297" lon="7.20861">
        <ele>682</ele>
        <time>2022-04-06T10:03:30Z</time>
      </trkpt>
      <trkpt lat="48.18301" lon="7.20848">
        <ele>678</ele>
        <time>2022-04-06T10:03:32Z</time>
      </trkpt>
      <trkpt lat="48.18304" lon="7.20831">
        <ele>674</ele>
        <time>2022-04-06T10:03:34Z</time>
      </trkpt>
      <trkpt lat="48.18299" lon="7.20792">
        <ele>665</ele>
        <time>2022-04-06T10:03:39Z</time>
      </trkpt>
      <trkpt lat="48.183" lon="7.20779">
        <ele>662</ele>
        <time>2022-04-06T10:03:40Z</time>
      </trkpt>
      <trkpt lat="48.18302" lon="7.20771">
        <ele>660</ele>
        <time>2022-04-06T10:03:41Z</time>
      </trkpt>
      <trkpt lat="48.18308" lon="7.20765">
        <ele>660</ele>
        <time>2022-04-06T10:03:42Z</time>
      </trkpt>
      <trkpt lat="48.18316" lon="7.20765">
        <ele>661</ele>
        <time>2022-04-06T10:03:44Z</time>
      </trkpt>
      <trkpt lat="48.18379" lon="7.20795">
        <ele>673</ele>
        <time>2022-04-06T10:03:56Z</time>
      </trkpt>
      <trkpt lat="48.18392" lon="7.20795">
        <ele>674</ele>
        <time>2022-04-06T10:03:58Z</time>
      </trkpt>
      <trkpt lat="48.184" lon="7.20791">
        <ele>674</ele>
        <time>2022-04-06T10:03:59Z</time>
      </trkpt>
      <trkpt lat="48.18403" lon="7.20787">
        <ele>674</ele>
        <time>2022-04-06T10:04:00Z</time>
      </trkpt>
      <trkpt lat="48.1841" lon="7.2077">
        <ele>672</ele>
        <time>2022-04-06T10:04:03Z</time>
      </trkpt>
      <trkpt lat="48.1841" lon="7.20759">
        <ele>671</ele>
        <time>2022-04-06T10:04:04Z</time>
      </trkpt>
      <trkpt lat="48.18407" lon="7.20746">
        <ele>670</ele>
        <time>2022-04-06T10:04:06Z</time>
      </trkpt>
      <trkpt lat="48.18357" lon="7.20656">
        <ele>661</ele>
        <time>2022-04-06T10:04:19Z</time>
      </trkpt>
      <trkpt lat="48.18343" lon="7.20608">
        <ele>660</ele>
        <time>2022-04-06T10:04:26Z</time>
      </trkpt>
      <trkpt lat="48.18332" lon="7.20589">
        <ele>656</ele>
        <time>2022-04-06T10:04:29Z</time>
      </trkpt>
      <trkpt lat="48.18317" lon="7.20569">
        <ele>657</ele>
        <time>2022-04-06T10:04:32Z</time>
      </trkpt>
      <trkpt lat="48.18298" lon="7.2055">
        <ele>658</ele>
        <time>2022-04-06T10:04:36Z</time>
      </trkpt>
      <trkpt lat="48.18285" lon="7.20542">
        <ele>657</ele>
        <time>2022-04-06T10:04:39Z</time>
      </trkpt>
      <trkpt lat="48.18269" lon="7.20536">
        <ele>654</ele>
        <time>2022-04-06T10:04:42Z</time>
      </trkpt>
      <trkpt lat="48.18224" lon="7.20531">
        <ele>639</ele>
        <time>2022-04-06T10:04:50Z</time>
      </trkpt>
      <trkpt lat="48.18218" lon="7.20527">
        <ele>638</ele>
        <time>2022-04-06T10:04:51Z</time>
      </trkpt>
      <trkpt lat="48.18208" lon="7.20512">
        <ele>636</ele>
        <time>2022-04-06T10:04:53Z</time>
      </trkpt>
      <trkpt lat="48.182" lon="7.20494">
        <ele>636</ele>
        <time>2022-04-06T10:04:56Z</time>
      </trkpt>
      <trkpt lat="48.18148" lon="7.20342">
        <ele>630</ele>
        <time>2022-04-06T10:05:16Z</time>
      </trkpt>
      <trkpt lat="48.18142" lon="7.20317">
        <ele>629</ele>
        <time>2022-04-06T10:05:19Z</time>
      </trkpt>
      <trkpt lat="48.18138" lon="7.20295">
        <ele>628</ele>
        <time>2022-04-06T10:05:22Z</time>
      </trkpt>
      <trkpt lat="48.18136" lon="7.20194">
        <ele>633</ele>
        <time>2022-04-06T10:05:34Z</time>
      </trkpt>
      <trkpt lat="48.1813" lon="7.20145">
        <ele>633</ele>
        <time>2022-04-06T10:05:40Z</time>
      </trkpt>
      <trkpt lat="48.18105" lon="7.20074">
        <ele>626</ele>
        <time>2022-04-06T10:05:50Z</time>
      </trkpt>
      <trkpt lat="48.18036" lon="7.19948">
        <ele>608</ele>
        <time>2022-04-06T10:06:09Z</time>
      </trkpt>
      <trkpt lat="48.18029" lon="7.1993">
        <ele>606</ele>
        <time>2022-04-06T10:06:11Z</time>
      </trkpt>
      <trkpt lat="48.18028" lon="7.19916">
        <ele>607</ele>
        <time>2022-04-06T10:06:13Z</time>
      </trkpt>
      <trkpt lat="48.18033" lon="7.19869">
        <ele>612</ele>
        <time>2022-04-06T10:06:19Z</time>
      </trkpt>
      <trkpt lat="48.18032" lon="7.19851">
        <ele>612</ele>
        <time>2022-04-06T10:06:21Z</time>
      </trkpt>
      <trkpt lat="48.18026" lon="7.19831">
        <ele>610</ele>
        <time>2022-04-06T10:06:23Z</time>
      </trkpt>
      <trkpt lat="48.18015" lon="7.19811">
        <ele>608</ele>
        <time>2022-04-06T10:06:26Z</time>
      </trkpt>
      <trkpt lat="48.1797" lon="7.19751">
        <ele>595</ele>
        <time>2022-04-06T10:06:37Z</time>
      </trkpt>
      <trkpt lat="48.1796" lon="7.19731">
        <ele>592</ele>
        <time>2022-04-06T10:06:40Z</time>
      </trkpt>
      <trkpt lat="48.17889" lon="7.19469">
        <ele>578</ele>
        <time>2022-04-06T10:07:14Z</time>
      </trkpt>
      <trkpt lat="48.17871" lon="7.19423">
        <ele>574</ele>
        <time>2022-04-06T10:07:20Z</time>
      </trkpt>
      <trkpt lat="48.17819" lon="7.19334">
        <ele>563</ele>
        <time>2022-04-06T10:07:34Z</time>
      </trkpt>
      <trkpt lat="48.17814" lon="7.19319">
        <ele>562</ele>
        <time>2022-04-06T10:07:36Z</time>
      </trkpt>
      <trkpt lat="48.17811" lon="7.19302">
        <ele>561</ele>
        <time>2022-04-06T10:07:38Z</time>
      </trkpt>
      <trkpt lat="48.17812" lon="7.19283">
        <ele>561</ele>
        <time>2022-04-06T10:07:40Z</time>
      </trkpt>
      <trkpt lat="48.17819" lon="7.19264">
        <ele>564</ele>
        <time>2022-04-06T10:07:43Z</time>
      </trkpt>
      <trkpt lat="48.17841" lon="7.19233">
        <ele>569</ele>
        <time>2022-04-06T10:07:48Z</time>
      </trkpt>
      <trkpt lat="48.17845" lon="7.19221">
        <ele>568</ele>
        <time>2022-04-06T10:07:50Z</time>
      </trkpt>
      <trkpt lat="48.17847" lon="7.19208">
        <ele>567</ele>
        <time>2022-04-06T10:07:52Z</time>
      </trkpt>
      <trkpt lat="48.17843" lon="7.19178">
        <ele>562</ele>
        <time>2022-04-06T10:07:55Z</time>
      </trkpt>
      <trkpt lat="48.17843" lon="7.19161">
        <ele>559</ele>
        <time>2022-04-06T10:07:57Z</time>
      </trkpt>
      <trkpt lat="48.17847" lon="7.19145">
        <ele>555</ele>
        <time>2022-04-06T10:07:59Z</time>
      </trkpt>
      <trkpt lat="48.17858" lon="7.1912">
        <ele>550</ele>
        <time>2022-04-06T10:08:03Z</time>
      </trkpt>
      <trkpt lat="48.17874" lon="7.191">
        <ele>549</ele>
        <time>2022-04-06T10:08:06Z</time>
      </trkpt>
      <trkpt lat="48.17898" lon="7.19086">
        <ele>550</ele>
        <time>2022-04-06T10:08:11Z</time>
      </trkpt>
      <trkpt lat="48.17942" lon="7.19072">
        <ele>548</ele>
        <time>2022-04-06T10:08:19Z</time>
      </trkpt>
      <trkpt lat="48.17971" lon="7.19066">
        <ele>543</ele>
        <time>2022-04-06T10:08:24Z</time>
      </trkpt>
      <trkpt lat="48.1799" lon="7.19067">
        <ele>542</ele>
        <time>2022-04-06T10:08:28Z</time>
      </trkpt>
      <trkpt lat="48.18006" lon="7.19073">
        <ele>542</ele>
        <time>2022-04-06T10:08:31Z</time>
      </trkpt>
      <trkpt lat="48.18025" lon="7.19089">
        <ele>541</ele>
        <time>2022-04-06T10:08:34Z</time>
      </trkpt>
      <trkpt lat="48.18104" lon="7.19172">
        <ele>542</ele>
        <time>2022-04-06T10:08:52Z</time>
      </trkpt>
      <trkpt lat="48.18121" lon="7.19184">
        <ele>541</ele>
        <time>2022-04-06T10:08:55Z</time>
      </trkpt>
      <trkpt lat="48.18227" lon="7.19248">
        <ele>540</ele>
        <time>2022-04-06T10:09:15Z</time>
      </trkpt>
      <trkpt lat="48.18235" lon="7.19249">
        <ele>539</ele>
        <time>2022-04-06T10:09:17Z</time>
      </trkpt>
      <trkpt lat="48.1824" lon="7.19247">
        <ele>539</ele>
        <time>2022-04-06T10:09:18Z</time>
      </trkpt>
      <trkpt lat="48.18245" lon="7.19242">
        <ele>540</ele>
        <time>2022-04-06T10:09:19Z</time>
      </trkpt>
      <trkpt lat="48.18247" lon="7.1923">
        <ele>543</ele>
        <time>2022-04-06T10:09:20Z</time>
      </trkpt>
      <trkpt lat="48.18246" lon="7.19219">
        <ele>545</ele>
        <time>2022-04-06T10:09:21Z</time>
      </trkpt>
      <trkpt lat="48.18241" lon="7.19209">
        <ele>547</ele>
        <time>2022-04-06T10:09:23Z</time>
      </trkpt>
      <trkpt lat="48.18185" lon="7.1914">
        <ele>538</ele>
        <time>2022-04-06T10:09:36Z</time>
      </trkpt>
      <trkpt lat="48.18173" lon="7.19118">
        <ele>535</ele>
        <time>2022-04-06T10:09:39Z</time>
      </trkpt>
      <trkpt lat="48.18164" lon="7.19095">
        <ele>533</ele>
        <time>2022-04-06T10:09:42Z</time>
      </trkpt>
      <trkpt lat="48.18154" lon="7.19054">
        <ele>536</ele>
        <time>2022-04-06T10:09:48Z</time>
      </trkpt>
      <trkpt lat="48.18139" lon="7.19015">
        <ele>534</ele>
        <time>2022-04-06T10:09:53Z</time>
      </trkpt>
      <trkpt lat="48.18096" lon="7.18929">
        <ele>529</ele>
        <time>2022-04-06T10:10:06Z</time>
      </trkpt>
      <trkpt lat="48.1808" lon="7.18908">
        <ele>526</ele>
        <time>2022-04-06T10:10:09Z</time>
      </trkpt>
      <trkpt lat="48.18024" lon="7.1886">
        <ele>524</ele>
        <time>2022-04-06T10:10:21Z</time>
      </trkpt>
      <trkpt lat="48.17972" lon="7.18812">
        <ele>514</ele>
        <time>2022-04-06T10:10:32Z</time>
      </trkpt>
      <trkpt lat="48.17915" lon="7.18776">
        <ele>498</ele>
        <time>2022-04-06T10:10:43Z</time>
      </trkpt>
      <trkpt lat="48.17908" lon="7.18767">
        <ele>498</ele>
        <time>2022-04-06T10:10:44Z</time>
      </trkpt>
      <trkpt lat="48.17905" lon="7.18756">
        <ele>499</ele>
        <time>2022-04-06T10:10:46Z</time>
      </trkpt>
      <trkpt lat="48.17904" lon="7.18747">
        <ele>499</ele>
        <time>2022-04-06T10:10:47Z</time>
      </trkpt>
      <trkpt lat="48.17906" lon="7.18735">
        <ele>499</ele>
        <time>2022-04-06T10:10:48Z</time>
      </trkpt>
      <trkpt lat="48.17914" lon="7.18716">
        <ele>497</ele>
        <time>2022-04-06T10:10:51Z</time>
      </trkpt>
      <trkpt lat="48.17959" lon="7.18651">
        <ele>504</ele>
        <time>2022-04-06T10:11:02Z</time>
      </trkpt>
      <trkpt lat="48.17963" lon="7.18642">
        <ele>505</ele>
        <time>2022-04-06T10:11:03Z</time>
      </trkpt>
      <trkpt lat="48.17965" lon="7.18631">
        <ele>505</ele>
        <time>2022-04-06T10:11:05Z</time>
      </trkpt>
      <trkpt lat="48.17969" lon="7.1863">
        <ele>506</ele>
        <time>2022-04-06T10:11:06Z</time>
      </trkpt>
      <trkpt lat="48.17991" lon="7.18621">
        <ele>508</ele>
        <time>2022-04-06T10:11:10Z</time>
      </trkpt>
      <trkpt lat="48.18037" lon="7.18582">
        <ele>511</ele>
        <time>2022-04-06T10:11:19Z</time>
      </trkpt>
      <trkpt lat="48.18065" lon="7.18559">
        <ele>516</ele>
        <time>2022-04-06T10:11:25Z</time>
      </trkpt>
      <trkpt lat="48.18082" lon="7.18543">
        <ele>517</ele>
        <time>2022-04-06T10:11:28Z</time>
      </trkpt>
      <trkpt lat="48.18147" lon="7.18482">
        <ele>522</ele>
        <time>2022-04-06T10:11:42Z</time>
      </trkpt>
      <trkpt lat="48.18155" lon="7.18474">
        <ele>523</ele>
        <time>2022-04-06T10:11:44Z</time>
      </trkpt>
      <trkpt lat="48.18162" lon="7.18467">
        <ele>523</ele>
        <time>2022-04-06T10:11:45Z</time>
      </trkpt>
      <trkpt lat="48.1819" lon="7.18425">
        <ele>525</ele>
        <time>2022-04-06T10:11:52Z</time>
      </trkpt>
      <trkpt lat="48.18232" lon="7.18348">
        <ele>532</ele>
        <time>2022-04-06T10:12:04Z</time>
      </trkpt>
      <trkpt lat="48.18241" lon="7.18324">
        <ele>532</ele>
        <time>2022-04-06T10:12:07Z</time>
      </trkpt>
      <trkpt lat="48.18247" lon="7.18312">
        <ele>533</ele>
        <time>2022-04-06T10:12:09Z</time>
      </trkpt>
      <trkpt lat="48.18281" lon="7.18283">
        <ele>543</ele>
        <time>2022-04-06T10:12:16Z</time>
      </trkpt>
      <trkpt lat="48.18323" lon="7.18254">
        <ele>548</ele>
        <time>2022-04-06T10:12:24Z</time>
      </trkpt>
      <trkpt lat="48.18369" lon="7.18225">
        <ele>558</ele>
        <time>2022-04-06T10:12:33Z</time>
      </trkpt>
      <trkpt lat="48.18378" lon="7.18218">
        <ele>559</ele>
        <time>2022-04-06T10:12:35Z</time>
      </trkpt>
      <trkpt lat="48.18385" lon="7.18209">
        <ele>559</ele>
        <time>2022-04-06T10:12:37Z</time>
      </trkpt>
      <trkpt lat="48.18393" lon="7.18195">
        <ele>559</ele>
        <time>2022-04-06T10:12:39Z</time>
      </trkpt>
      <trkpt lat="48.18426" lon="7.18159">
        <ele>557</ele>
        <time>2022-04-06T10:12:46Z</time>
      </trkpt>
      <trkpt lat="48.18447" lon="7.18125">
        <ele>565</ele>
        <time>2022-04-06T10:12:51Z</time>
      </trkpt>
      <trkpt lat="48.18461" lon="7.18106">
        <ele>566</ele>
        <time>2022-04-06T10:12:55Z</time>
      </trkpt>
      <trkpt lat="48.18477" lon="7.18079">
        <ele>567</ele>
        <time>2022-04-06T10:12:59Z</time>
      </trkpt>
      <trkpt lat="48.18484" lon="7.18071">
        <ele>568</ele>
        <time>2022-04-06T10:13:01Z</time>
      </trkpt>
      <trkpt lat="48.18531" lon="7.18025">
        <ele>577</ele>
        <time>2022-04-06T10:13:11Z</time>
      </trkpt>
      <trkpt lat="48.18638" lon="7.17956">
        <ele>589</ele>
        <time>2022-04-06T10:13:31Z</time>
      </trkpt>
      <trkpt lat="48.18656" lon="7.17949">
        <ele>590</ele>
        <time>2022-04-06T10:13:35Z</time>
      </trkpt>
      <trkpt lat="48.18654" lon="7.17942">
        <ele>590</ele>
        <time>2022-04-06T10:13:36Z</time>
      </trkpt>
      <trkpt lat="48.18651" lon="7.1794">
        <ele>591</ele>
        <time>2022-04-06T10:13:36Z</time>
      </trkpt>
      <trkpt lat="48.18603" lon="7.17948">
        <ele>589</ele>
        <time>2022-04-06T10:13:45Z</time>
      </trkpt>
      <trkpt lat="48.18597" lon="7.17946">
        <ele>589</ele>
        <time>2022-04-06T10:13:46Z</time>
      </trkpt>
      <trkpt lat="48.18587" lon="7.1793">
        <ele>592</ele>
        <time>2022-04-06T10:13:48Z</time>
      </trkpt>
      <trkpt lat="48.18581" lon="7.17924">
        <ele>594</ele>
        <time>2022-04-06T10:13:50Z</time>
      </trkpt>
      <trkpt lat="48.18576" lon="7.17924">
        <ele>595</ele>
        <time>2022-04-06T10:13:51Z</time>
      </trkpt>
      <trkpt lat="48.18554" lon="7.17939">
        <ele>595</ele>
        <time>2022-04-06T10:13:55Z</time>
      </trkpt>
      <trkpt lat="48.18514" lon="7.17958">
        <ele>596</ele>
        <time>2022-04-06T10:14:02Z</time>
      </trkpt>
      <trkpt lat="48.18483" lon="7.17981">
        <ele>594</ele>
        <time>2022-04-06T10:14:09Z</time>
      </trkpt>
      <trkpt lat="48.18468" lon="7.17988">
        <ele>596</ele>
        <time>2022-04-06T10:14:11Z</time>
      </trkpt>
      <trkpt lat="48.18453" lon="7.1799">
        <ele>599</ele>
        <time>2022-04-06T10:14:14Z</time>
      </trkpt>
      <trkpt lat="48.18445" lon="7.17987">
        <ele>603</ele>
        <time>2022-04-06T10:14:15Z</time>
      </trkpt>
      <trkpt lat="48.18407" lon="7.17948">
        <ele>627</ele>
        <time>2022-04-06T10:14:24Z</time>
      </trkpt>
      <trkpt lat="48.18389" lon="7.1794">
        <ele>633</ele>
        <time>2022-04-06T10:14:27Z</time>
      </trkpt>
      <trkpt lat="48.18381" lon="7.17941">
        <ele>634</ele>
        <time>2022-04-06T10:14:28Z</time>
      </trkpt>
      <trkpt lat="48.18373" lon="7.17951">
        <ele>632</ele>
        <time>2022-04-06T10:14:30Z</time>
      </trkpt>
      <trkpt lat="48.18367" lon="7.17973">
        <ele>627</ele>
        <time>2022-04-06T10:14:33Z</time>
      </trkpt>
      <trkpt lat="48.18352" lon="7.17995">
        <ele>624</ele>
        <time>2022-04-06T10:14:37Z</time>
      </trkpt>
      <trkpt lat="48.18317" lon="7.18038">
        <ele>614</ele>
        <time>2022-04-06T10:14:45Z</time>
      </trkpt>
      <trkpt lat="48.18269" lon="7.18063">
        <ele>611</ele>
        <time>2022-04-06T10:14:54Z</time>
      </trkpt>
      <trkpt lat="48.18259" lon="7.18061">
        <ele>613</ele>
        <time>2022-04-06T10:14:56Z</time>
      </trkpt>
      <trkpt lat="48.18255" lon="7.18057">
        <ele>615</ele>
        <time>2022-04-06T10:14:57Z</time>
      </trkpt>
      <trkpt lat="48.18245" lon="7.18032">
        <ele>625</ele>
        <time>2022-04-06T10:15:00Z</time>
      </trkpt>
      <trkpt lat="48.18235" lon="7.18016">
        <ele>631</ele>
        <time>2022-04-06T10:15:03Z</time>
      </trkpt>
      <trkpt lat="48.18223" lon="7.18009">
        <ele>633</ele>
        <time>2022-04-06T10:15:05Z</time>
      </trkpt>
      <trkpt lat="48.18181" lon="7.17997">
        <ele>637</ele>
        <time>2022-04-06T10:15:13Z</time>
      </trkpt>
      <trkpt lat="48.18166" lon="7.17997">
        <ele>637</ele>
        <time>2022-04-06T10:15:15Z</time>
      </trkpt>
      <trkpt lat="48.18155" lon="7.18001">
        <ele>636</ele>
        <time>2022-04-06T10:15:17Z</time>
      </trkpt>
      <trkpt lat="48.18138" lon="7.18013">
        <ele>634</ele>
        <time>2022-04-06T10:15:21Z</time>
      </trkpt>
      <trkpt lat="48.18102" lon="7.18048">
        <ele>628</ele>
        <time>2022-04-06T10:15:28Z</time>
      </trkpt>
      <trkpt lat="48.18089" lon="7.18054">
        <ele>627</ele>
        <time>2022-04-06T10:15:31Z</time>
      </trkpt>
      <trkpt lat="48.18078" lon="7.18053">
        <ele>626</ele>
        <time>2022-04-06T10:15:33Z</time>
      </trkpt>
      <trkpt lat="48.18065" lon="7.18046">
        <ele>625</ele>
        <time>2022-04-06T10:15:35Z</time>
      </trkpt>
      <trkpt lat="48.1798" lon="7.17961">
        <ele>633</ele>
        <time>2022-04-06T10:15:53Z</time>
      </trkpt>
      <trkpt lat="48.17967" lon="7.17951">
        <ele>634</ele>
        <time>2022-04-06T10:15:56Z</time>
      </trkpt>
      <trkpt lat="48.1795" lon="7.17942">
        <ele>634</ele>
        <time>2022-04-06T10:15:59Z</time>
      </trkpt>
      <trkpt lat="48.17911" lon="7.1793">
        <ele>630</ele>
        <time>2022-04-06T10:16:06Z</time>
      </trkpt>
      <trkpt lat="48.17898" lon="7.17922">
        <ele>631</ele>
        <time>2022-04-06T10:16:09Z</time>
      </trkpt>
      <trkpt lat="48.17868" lon="7.17896">
        <ele>635</ele>
        <time>2022-04-06T10:16:15Z</time>
      </trkpt>
      <trkpt lat="48.17827" lon="7.17867">
        <ele>637</ele>
        <time>2022-04-06T10:16:23Z</time>
      </trkpt>
      <trkpt lat="48.1782" lon="7.17868">
        <ele>639</ele>
        <time>2022-04-06T10:16:24Z</time>
      </trkpt>
      <trkpt lat="48.17798" lon="7.17914">
        <ele>636</ele>
        <time>2022-04-06T10:16:31Z</time>
      </trkpt>
      <trkpt lat="48.17764" lon="7.17968">
        <ele>629</ele>
        <time>2022-04-06T10:16:40Z</time>
      </trkpt>
      <trkpt lat="48.17756" lon="7.17995">
        <ele>623</ele>
        <time>2022-04-06T10:16:43Z</time>
      </trkpt>
      <trkpt lat="48.17756" lon="7.18019">
        <ele>620</ele>
        <time>2022-04-06T10:16:46Z</time>
      </trkpt>
      <trkpt lat="48.17763" lon="7.18065">
        <ele>615</ele>
        <time>2022-04-06T10:16:52Z</time>
      </trkpt>
      <trkpt lat="48.17766" lon="7.18218">
        <ele>617</ele>
        <time>2022-04-06T10:17:10Z</time>
      </trkpt>
      <trkpt lat="48.17763" lon="7.18233">
        <ele>617</ele>
        <time>2022-04-06T10:17:12Z</time>
      </trkpt>
      <trkpt lat="48.17755" lon="7.18247">
        <ele>618</ele>
        <time>2022-04-06T10:17:14Z</time>
      </trkpt>
      <trkpt lat="48.17747" lon="7.18256">
        <ele>618</ele>
        <time>2022-04-06T10:17:16Z</time>
      </trkpt>
      <trkpt lat="48.17735" lon="7.18258">
        <ele>617</ele>
        <time>2022-04-06T10:17:18Z</time>
      </trkpt>
      <trkpt lat="48.17726" lon="7.18254">
        <ele>616</ele>
        <time>2022-04-06T10:17:19Z</time>
      </trkpt>
      <trkpt lat="48.17657" lon="7.1818">
        <ele>619</ele>
        <time>2022-04-06T10:17:34Z</time>
      </trkpt>
      <trkpt lat="48.17649" lon="7.18167">
        <ele>619</ele>
        <time>2022-04-06T10:17:37Z</time>
      </trkpt>
      <trkpt lat="48.17627" lon="7.18125">
        <ele>619</ele>
        <time>2022-04-06T10:17:43Z</time>
      </trkpt>
      <trkpt lat="48.17607" lon="7.1808">
        <ele>620</ele>
        <time>2022-04-06T10:17:49Z</time>
      </trkpt>
      <trkpt lat="48.17593" lon="7.18043">
        <ele>620</ele>
        <time>2022-04-06T10:17:54Z</time>
      </trkpt>
      <trkpt lat="48.17584" lon="7.18009">
        <ele>622</ele>
        <time>2022-04-06T10:17:59Z</time>
      </trkpt>
      <trkpt lat="48.17576" lon="7.1797">
        <ele>623</ele>
        <time>2022-04-06T10:18:04Z</time>
      </trkpt>
      <trkpt lat="48.17573" lon="7.17929">
        <ele>625</ele>
        <time>2022-04-06T10:18:08Z</time>
      </trkpt>
      <trkpt lat="48.1757" lon="7.1791">
        <ele>626</ele>
        <time>2022-04-06T10:18:11Z</time>
      </trkpt>
      <trkpt lat="48.17547" lon="7.17833">
        <ele>629</ele>
        <time>2022-04-06T10:18:21Z</time>
      </trkpt>
      <trkpt lat="48.17533" lon="7.17803">
        <ele>630</ele>
        <time>2022-04-06T10:18:25Z</time>
      </trkpt>
      <trkpt lat="48.17511" lon="7.17778">
        <ele>628</ele>
        <time>2022-04-06T10:18:30Z</time>
      </trkpt>
      <trkpt lat="48.17492" lon="7.17766">
        <ele>627</ele>
        <time>2022-04-06T10:18:34Z</time>
      </trkpt>
      <trkpt lat="48.17484" lon="7.17766">
        <ele>627</ele>
        <time>2022-04-06T10:18:35Z</time>
      </trkpt>
      <trkpt lat="48.17453" lon="7.17773">
        <ele>627</ele>
        <time>2022-04-06T10:18:41Z</time>
      </trkpt>
      <trkpt lat="48.17445" lon="7.17778">
        <ele>627</ele>
        <time>2022-04-06T10:18:42Z</time>
      </trkpt>
      <trkpt lat="48.1744" lon="7.17787">
        <ele>626</ele>
        <time>2022-04-06T10:18:44Z</time>
      </trkpt>
      <trkpt lat="48.17434" lon="7.17807">
        <ele>624</ele>
        <time>2022-04-06T10:18:46Z</time>
      </trkpt>
      <trkpt lat="48.17421" lon="7.17872">
        <ele>615</ele>
        <time>2022-04-06T10:18:54Z</time>
      </trkpt>
      <trkpt lat="48.17412" lon="7.17928">
        <ele>608</ele>
        <time>2022-04-06T10:19:01Z</time>
      </trkpt>
      <trkpt lat="48.17398" lon="7.17967">
        <ele>606</ele>
        <time>2022-04-06T10:19:06Z</time>
      </trkpt>
      <trkpt lat="48.17391" lon="7.17971">
        <ele>607</ele>
        <time>2022-04-06T10:19:08Z</time>
      </trkpt>
      <trkpt lat="48.17365" lon="7.17967">
        <ele>611</ele>
        <time>2022-04-06T10:19:12Z</time>
      </trkpt>
      <trkpt lat="48.17292" lon="7.17946">
        <ele>626</ele>
        <time>2022-04-06T10:19:26Z</time>
      </trkpt>
      <trkpt lat="48.17284" lon="7.17949">
        <ele>627</ele>
        <time>2022-04-06T10:19:27Z</time>
      </trkpt>
      <trkpt lat="48.17277" lon="7.17959">
        <ele>627</ele>
        <time>2022-04-06T10:19:29Z</time>
      </trkpt>
      <trkpt lat="48.17274" lon="7.17977">
        <ele>626</ele>
        <time>2022-04-06T10:19:31Z</time>
      </trkpt>
      <trkpt lat="48.17273" lon="7.17996">
        <ele>624</ele>
        <time>2022-04-06T10:19:33Z</time>
      </trkpt>
      <trkpt lat="48.1728" lon="7.18061">
        <ele>621</ele>
        <time>2022-04-06T10:19:41Z</time>
      </trkpt>
      <trkpt lat="48.17281" lon="7.18115">
        <ele>621</ele>
        <time>2022-04-06T10:19:47Z</time>
      </trkpt>
      <trkpt lat="48.17283" lon="7.18137">
        <ele>621</ele>
        <time>2022-04-06T10:19:50Z</time>
      </trkpt>
      <trkpt lat="48.17292" lon="7.18188">
        <ele>618</ele>
        <time>2022-04-06T10:19:56Z</time>
      </trkpt>
      <trkpt lat="48.17305" lon="7.18242">
        <ele>615</ele>
        <time>2022-04-06T10:20:03Z</time>
      </trkpt>
      <trkpt lat="48.17305" lon="7.18277">
        <ele>618</ele>
        <time>2022-04-06T10:20:07Z</time>
      </trkpt>
      <trkpt lat="48.17311" lon="7.18382">
        <ele>623</ele>
        <time>2022-04-06T10:20:20Z</time>
      </trkpt>
      <trkpt lat="48.17316" lon="7.18461">
        <ele>626</ele>
        <time>2022-04-06T10:20:29Z</time>
      </trkpt>
      <trkpt lat="48.17321" lon="7.1851">
        <ele>627</ele>
        <time>2022-04-06T10:20:35Z</time>
      </trkpt>
      <trkpt lat="48.17319" lon="7.18522">
        <ele>627</ele>
        <time>2022-04-06T10:20:37Z</time>
      </trkpt>
      <trkpt lat="48.17315" lon="7.18528">
        <ele>628</ele>
        <time>2022-04-06T10:20:38Z</time>
      </trkpt>
      <trkpt lat="48.17291" lon="7.18444">
        <ele>633</ele>
        <time>2022-04-06T10:20:48Z</time>
      </trkpt>
      <trkpt lat="48.17274" lon="7.18361">
        <ele>638</ele>
        <time>2022-04-06T10:20:59Z</time>
      </trkpt>
      <trkpt lat="48.17268" lon="7.18288">
        <ele>638</ele>
        <time>2022-04-06T10:21:07Z</time>
      </trkpt>
      <trkpt lat="48.17265" lon="7.18268">
        <ele>638</ele>
        <time>2022-04-06T10:21:10Z</time>
      </trkpt>
      <trkpt lat="48.17245" lon="7.18223">
        <ele>645</ele>
        <time>2022-04-06T10:21:16Z</time>
      </trkpt>
      <trkpt lat="48.17208" lon="7.18121">
        <ele>655</ele>
        <time>2022-04-06T10:21:30Z</time>
      </trkpt>
      <trkpt lat="48.17201" lon="7.18072">
        <ele>655</ele>
        <time>2022-04-06T10:21:36Z</time>
      </trkpt>
      <trkpt lat="48.17166" lon="7.1796">
        <ele>656</ele>
        <time>2022-04-06T10:21:51Z</time>
      </trkpt>
      <trkpt lat="48.17159" lon="7.17921">
        <ele>654</ele>
        <time>2022-04-06T10:21:56Z</time>
      </trkpt>
      <trkpt lat="48.17149" lon="7.17817">
        <ele>662</ele>
        <time>2022-04-06T10:22:08Z</time>
      </trkpt>
      <trkpt lat="48.1715" lon="7.17804">
        <ele>664</ele>
        <time>2022-04-06T10:22:10Z</time>
      </trkpt>
      <trkpt lat="48.17155" lon="7.17789">
        <ele>665</ele>
        <time>2022-04-06T10:22:12Z</time>
      </trkpt>
      <trkpt lat="48.17163" lon="7.17775">
        <ele>665</ele>
        <time>2022-04-06T10:22:14Z</time>
      </trkpt>
      <trkpt lat="48.17176" lon="7.17764">
        <ele>665</ele>
        <time>2022-04-06T10:22:16Z</time>
      </trkpt>
      <trkpt lat="48.17219" lon="7.17737">
        <ele>664</ele>
        <time>2022-04-06T10:22:25Z</time>
      </trkpt>
      <trkpt lat="48.1723" lon="7.1772">
        <ele>664</ele>
        <time>2022-04-06T10:22:27Z</time>
      </trkpt>
      <trkpt lat="48.17243" lon="7.17696">
        <ele>666</ele>
        <time>2022-04-06T10:22:31Z</time>
      </trkpt>
      <trkpt lat="48.17271" lon="7.17656">
        <ele>668</ele>
        <time>2022-04-06T10:22:38Z</time>
      </trkpt>
      <trkpt lat="48.17272" lon="7.17646">
        <ele>670</ele>
        <time>2022-04-06T10:22:39Z</time>
      </trkpt>
      <trkpt lat="48.17271" lon="7.17631">
        <ele>672</ele>
        <time>2022-04-06T10:22:41Z</time>
      </trkpt>
      <trkpt lat="48.17262" lon="7.17605">
        <ele>676</ele>
        <time>2022-04-06T10:22:44Z</time>
      </trkpt>
      <trkpt lat="48.17254" lon="7.17594">
        <ele>678</ele>
        <time>2022-04-06T10:22:46Z</time>
      </trkpt>
      <trkpt lat="48.17245" lon="7.17585">
        <ele>679</ele>
        <time>2022-04-06T10:22:48Z</time>
      </trkpt>
      <trkpt lat="48.17201" lon="7.1757">
        <ele>680</ele>
        <time>2022-04-06T10:22:56Z</time>
      </trkpt>
      <trkpt lat="48.17187" lon="7.17572">
        <ele>680</ele>
        <time>2022-04-06T10:22:59Z</time>
      </trkpt>
      <trkpt lat="48.17183" lon="7.1757">
        <ele>680</ele>
        <time>2022-04-06T10:23:00Z</time>
      </trkpt>
      <trkpt lat="48.17177" lon="7.17557">
        <ele>680</ele>
        <time>2022-04-06T10:23:02Z</time>
      </trkpt>
      <trkpt lat="48.17162" lon="7.17519">
        <ele>677</ele>
        <time>2022-04-06T10:23:07Z</time>
      </trkpt>
      <trkpt lat="48.1715" lon="7.17499">
        <ele>676</ele>
        <time>2022-04-06T10:23:10Z</time>
      </trkpt>
      <trkpt lat="48.17132" lon="7.1748">
        <ele>673</ele>
        <time>2022-04-06T10:23:14Z</time>
      </trkpt>
      <trkpt lat="48.17108" lon="7.17459">
        <ele>669</ele>
        <time>2022-04-06T10:23:19Z</time>
      </trkpt>
      <trkpt lat="48.17081" lon="7.17446">
        <ele>666</ele>
        <time>2022-04-06T10:23:24Z</time>
      </trkpt>
      <trkpt lat="48.17044" lon="7.17433">
        <ele>662</ele>
        <time>2022-04-06T10:23:31Z</time>
      </trkpt>
      <trkpt lat="48.17011" lon="7.17428">
        <ele>659</ele>
        <time>2022-04-06T10:23:37Z</time>
      </trkpt>
      <trkpt lat="48.1699" lon="7.17429">
        <ele>658</ele>
        <time>2022-04-06T10:23:40Z</time>
      </trkpt>
      <trkpt lat="48.1696" lon="7.17436">
        <ele>656</ele>
        <time>2022-04-06T10:23:46Z</time>
      </trkpt>
      <trkpt lat="48.16903" lon="7.17428">
        <ele>649</ele>
        <time>2022-04-06T10:23:56Z</time>
      </trkpt>
      <trkpt lat="48.16892" lon="7.17427">
        <ele>648</ele>
        <time>2022-04-06T10:23:58Z</time>
      </trkpt>
      <trkpt lat="48.1684" lon="7.17412">
        <ele>641</ele>
        <time>2022-04-06T10:24:07Z</time>
      </trkpt>
      <trkpt lat="48.16781" lon="7.17415">
        <ele>636</ele>
        <time>2022-04-06T10:24:18Z</time>
      </trkpt>
      <trkpt lat="48.16769" lon="7.17419">
        <ele>635</ele>
        <time>2022-04-06T10:24:20Z</time>
      </trkpt>
      <trkpt lat="48.16759" lon="7.17426">
        <ele>635</ele>
        <time>2022-04-06T10:24:22Z</time>
      </trkpt>
      <trkpt lat="48.16748" lon="7.1745">
        <ele>636</ele>
        <time>2022-04-06T10:24:25Z</time>
      </trkpt>
      <trkpt lat="48.1674" lon="7.17462">
        <ele>635</ele>
        <time>2022-04-06T10:24:27Z</time>
      </trkpt>
      <trkpt lat="48.16733" lon="7.17463">
        <ele>634</ele>
        <time>2022-04-06T10:24:29Z</time>
      </trkpt>
      <trkpt lat="48.1673" lon="7.17459">
        <ele>633</ele>
        <time>2022-04-06T10:24:29Z</time>
      </trkpt>
      <trkpt lat="48.1672" lon="7.17353">
        <ele>624</ele>
        <time>2022-04-06T10:24:42Z</time>
      </trkpt>
      <trkpt lat="48.16716" lon="7.17291">
        <ele>620</ele>
        <time>2022-04-06T10:24:49Z</time>
      </trkpt>
      <trkpt lat="48.16711" lon="7.17241">
        <ele>616</ele>
        <time>2022-04-06T10:24:55Z</time>
      </trkpt>
      <trkpt lat="48.16716" lon="7.17228">
        <ele>615</ele>
        <time>2022-04-06T10:24:57Z</time>
      </trkpt>
      <trkpt lat="48.16727" lon="7.17221">
        <ele>615</ele>
        <time>2022-04-06T10:24:59Z</time>
      </trkpt>
      <trkpt lat="48.1674" lon="7.17217">
        <ele>616</ele>
        <time>2022-04-06T10:25:02Z</time>
      </trkpt>
      <trkpt lat="48.16757" lon="7.17216">
        <ele>616</ele>
        <time>2022-04-06T10:25:05Z</time>
      </trkpt>
      <trkpt lat="48.16777" lon="7.17222">
        <ele>615</ele>
        <time>2022-04-06T10:25:08Z</time>
      </trkpt>
      <trkpt lat="48.16812" lon="7.17243">
        <ele>615</ele>
        <time>2022-04-06T10:25:15Z</time>
      </trkpt>
      <trkpt lat="48.16818" lon="7.17244">
        <ele>614</ele>
        <time>2022-04-06T10:25:16Z</time>
      </trkpt>
      <trkpt lat="48.16822" lon="7.17236">
        <ele>612</ele>
        <time>2022-04-06T10:25:17Z</time>
      </trkpt>
      <trkpt lat="48.16819" lon="7.17223">
        <ele>611</ele>
        <time>2022-04-06T10:25:19Z</time>
      </trkpt>
      <trkpt lat="48.16776" lon="7.17162">
        <ele>606</ele>
        <time>2022-04-06T10:25:29Z</time>
      </trkpt>
      <trkpt lat="48.16739" lon="7.17128">
        <ele>602</ele>
        <time>2022-04-06T10:25:37Z</time>
      </trkpt>
      <trkpt lat="48.16702" lon="7.17092">
        <ele>598</ele>
        <time>2022-04-06T10:25:45Z</time>
      </trkpt>
      <trkpt lat="48.16623" lon="7.17025">
        <ele>590</ele>
        <time>2022-04-06T10:26:01Z</time>
      </trkpt>
      <trkpt lat="48.1659" lon="7.17002">
        <ele>588</ele>
        <time>2022-04-06T10:26:08Z</time>
      </trkpt>
      <trkpt lat="48.16584" lon="7.16989">
        <ele>587</ele>
        <time>2022-04-06T10:26:10Z</time>
      </trkpt>
      <trkpt lat="48.16582" lon="7.16978">
        <ele>586</ele>
        <time>2022-04-06T10:26:11Z</time>
      </trkpt>
      <trkpt lat="48.16579" lon="7.16931">
        <ele>582</ele>
        <time>2022-04-06T10:26:16Z</time>
      </trkpt>
      <trkpt lat="48.1658" lon="7.16912">
        <ele>580</ele>
        <time>2022-04-06T10:26:19Z</time>
      </trkpt>
      <trkpt lat="48.16584" lon="7.16901">
        <ele>580</ele>
        <time>2022-04-06T10:26:20Z</time>
      </trkpt>
      <trkpt lat="48.16591" lon="7.16896">
        <ele>578</ele>
        <time>2022-04-06T10:26:22Z</time>
      </trkpt>
      <trkpt lat="48.16652" lon="7.16916">
        <ele>574</ele>
        <time>2022-04-06T10:26:33Z</time>
      </trkpt>
      <trkpt lat="48.16663" lon="7.16921">
        <ele>573</ele>
        <time>2022-04-06T10:26:35Z</time>
      </trkpt>
      <trkpt lat="48.16677" lon="7.16932">
        <ele>576</ele>
        <time>2022-04-06T10:26:38Z</time>
      </trkpt>
      <trkpt lat="48.16684" lon="7.16933">
        <ele>577</ele>
        <time>2022-04-06T10:26:39Z</time>
      </trkpt>
      <trkpt lat="48.16688" lon="7.16928">
        <ele>577</ele>
        <time>2022-04-06T10:26:40Z</time>
      </trkpt>
      <trkpt lat="48.16689" lon="7.16918">
        <ele>575</ele>
        <time>2022-04-06T10:26:41Z</time>
      </trkpt>
      <trkpt lat="48.16688" lon="7.16874">
        <ele>571</ele>
        <time>2022-04-06T10:26:46Z</time>
      </trkpt>
      <trkpt lat="48.16693" lon="7.16847">
        <ele>570</ele>
        <time>2022-04-06T10:26:50Z</time>
      </trkpt>
      <trkpt lat="48.16702" lon="7.16819">
        <ele>569</ele>
        <time>2022-04-06T10:26:53Z</time>
      </trkpt>
      <trkpt lat="48.16707" lon="7.16788">
        <ele>567</ele>
        <time>2022-04-06T10:26:57Z</time>
      </trkpt>
      <trkpt lat="48.16713" lon="7.16759">
        <ele>566</ele>
        <time>2022-04-06T10:27:01Z</time>
      </trkpt>
      <trkpt lat="48.1672" lon="7.16738">
        <ele>566</ele>
        <time>2022-04-06T10:27:03Z</time>
      </trkpt>
      <trkpt lat="48.16735" lon="7.16719">
        <ele>569</ele>
        <time>2022-04-06T10:27:07Z</time>
      </trkpt>
      <trkpt lat="48.16737" lon="7.16712">
        <ele>569</ele>
        <time>2022-04-06T10:27:08Z</time>
      </trkpt>
      <trkpt lat="48.16736" lon="7.16703">
        <ele>569</ele>
        <time>2022-04-06T10:27:09Z</time>
      </trkpt>
      <trkpt lat="48.16731" lon="7.16696">
        <ele>568</ele>
        <time>2022-04-06T10:27:10Z</time>
      </trkpt>
      <trkpt lat="48.16723" lon="7.16697">
        <ele>567</ele>
        <time>2022-04-06T10:27:12Z</time>
      </trkpt>
      <trkpt lat="48.16711" lon="7.167">
        <ele>565</ele>
        <time>2022-04-06T10:27:14Z</time>
      </trkpt>
      <trkpt lat="48.16702" lon="7.16706">
        <ele>564</ele>
        <time>2022-04-06T10:27:15Z</time>
      </trkpt>
      <trkpt lat="48.16657" lon="7.16741">
        <ele>558</ele>
        <time>2022-04-06T10:27:24Z</time>
      </trkpt>
      <trkpt lat="48.16633" lon="7.16747">
        <ele>559</ele>
        <time>2022-04-06T10:27:29Z</time>
      </trkpt>
      <trkpt lat="48.16624" lon="7.16744">
        <ele>559</ele>
        <time>2022-04-06T10:27:30Z</time>
      </trkpt>
      <trkpt lat="48.16596" lon="7.16714">
        <ele>556</ele>
        <time>2022-04-06T10:27:37Z</time>
      </trkpt>
      <trkpt lat="48.16527" lon="7.16657">
        <ele>548</ele>
        <time>2022-04-06T10:27:51Z</time>
      </trkpt>
      <trkpt lat="48.165" lon="7.16639">
        <ele>544</ele>
        <time>2022-04-06T10:27:56Z</time>
      </trkpt>
      <trkpt lat="48.16429" lon="7.16619">
        <ele>532</ele>
        <time>2022-04-06T10:28:09Z</time>
      </trkpt>
      <trkpt lat="48.16408" lon="7.16617">
        <ele>529</ele>
        <time>2022-04-06T10:28:12Z</time>
      </trkpt>
      <trkpt lat="48.16387" lon="7.16612">
        <ele>524</ele>
        <time>2022-04-06T10:28:16Z</time>
      </trkpt>
      <trkpt lat="48.16382" lon="7.16609">
        <ele>523</ele>
        <time>2022-04-06T10:28:17Z</time>
      </trkpt>
      <trkpt lat="48.16379" lon="7.16605">
        <ele>522</ele>
        <time>2022-04-06T10:28:18Z</time>
      </trkpt>
      <trkpt lat="48.16381" lon="7.16596">
        <ele>521</ele>
        <time>2022-04-06T10:28:19Z</time>
      </trkpt>
      <trkpt lat="48.16387" lon="7.16592">
        <ele>522</ele>
        <time>2022-04-06T10:28:20Z</time>
      </trkpt>
      <trkpt lat="48.16402" lon="7.16597">
        <ele>525</ele>
        <time>2022-04-06T10:28:23Z</time>
      </trkpt>
      <trkpt lat="48.16422" lon="7.16597">
        <ele>528</ele>
        <time>2022-04-06T10:28:26Z</time>
      </trkpt>
      <trkpt lat="48.16456" lon="7.16577">
        <ele>530</ele>
        <time>2022-04-06T10:28:33Z</time>
      </trkpt>
      <trkpt lat="48.1646" lon="7.16561">
        <ele>532</ele>
        <time>2022-04-06T10:28:35Z</time>
      </trkpt>
      <trkpt lat="48.16456" lon="7.16551">
        <ele>532</ele>
        <time>2022-04-06T10:28:36Z</time>
      </trkpt>
      <trkpt lat="48.16446" lon="7.16544">
        <ele>531</ele>
        <time>2022-04-06T10:28:38Z</time>
      </trkpt>
      <trkpt lat="48.16417" lon="7.16546">
        <ele>526</ele>
        <time>2022-04-06T10:28:43Z</time>
      </trkpt>
      <trkpt lat="48.16408" lon="7.16542">
        <ele>524</ele>
        <time>2022-04-06T10:28:45Z</time>
      </trkpt>
      <trkpt lat="48.16388" lon="7.16516">
        <ele>520</ele>
        <time>2022-04-06T10:28:50Z</time>
      </trkpt>
      <trkpt lat="48.1637" lon="7.16508">
        <ele>516</ele>
        <time>2022-04-06T10:28:53Z</time>
      </trkpt>
      <trkpt lat="48.16361" lon="7.165">
        <ele>514</ele>
        <time>2022-04-06T10:28:55Z</time>
      </trkpt>
      <trkpt lat="48.16357" lon="7.16491">
        <ele>513</ele>
        <time>2022-04-06T10:28:56Z</time>
      </trkpt>
      <trkpt lat="48.16354" lon="7.16471">
        <ele>511</ele>
        <time>2022-04-06T10:28:59Z</time>
      </trkpt>
      <trkpt lat="48.16355" lon="7.16407">
        <ele>509</ele>
        <time>2022-04-06T10:29:06Z</time>
      </trkpt>
      <trkpt lat="48.16353" lon="7.16382">
        <ele>507</ele>
        <time>2022-04-06T10:29:09Z</time>
      </trkpt>
      <trkpt lat="48.16347" lon="7.16356">
        <ele>504</ele>
        <time>2022-04-06T10:29:13Z</time>
      </trkpt>
      <trkpt lat="48.16331" lon="7.16323">
        <ele>496</ele>
        <time>2022-04-06T10:29:17Z</time>
      </trkpt>
      <trkpt lat="48.16319" lon="7.1631">
        <ele>497</ele>
        <time>2022-04-06T10:29:20Z</time>
      </trkpt>
      <trkpt lat="48.16297" lon="7.16348">
        <ele>494</ele>
        <time>2022-04-06T10:29:26Z</time>
      </trkpt>
      <trkpt lat="48.16259" lon="7.16387">
        <ele>488</ele>
        <time>2022-04-06T10:29:34Z</time>
      </trkpt>
      <trkpt lat="48.16212" lon="7.16462">
        <ele>482</ele>
        <time>2022-04-06T10:29:46Z</time>
      </trkpt>
      <trkpt lat="48.16198" lon="7.16479">
        <ele>480</ele>
        <time>2022-04-06T10:29:50Z</time>
      </trkpt>
      <trkpt lat="48.16183" lon="7.16504">
        <ele>476</ele>
        <time>2022-04-06T10:29:54Z</time>
      </trkpt>
      <trkpt lat="48.16168" lon="7.16519">
        <ele>473</ele>
        <time>2022-04-06T10:29:57Z</time>
      </trkpt>
      <trkpt lat="48.16149" lon="7.16545">
        <ele>472</ele>
        <time>2022-04-06T10:30:01Z</time>
      </trkpt>
      <trkpt lat="48.16134" lon="7.16558">
        <ele>471</ele>
        <time>2022-04-06T10:30:05Z</time>
      </trkpt>
      <trkpt lat="48.16111" lon="7.1657">
        <ele>469</ele>
        <time>2022-04-06T10:30:09Z</time>
      </trkpt>
      <trkpt lat="48.16091" lon="7.16571">
        <ele>468</ele>
        <time>2022-04-06T10:30:12Z</time>
      </trkpt>
      <trkpt lat="48.16081" lon="7.16572">
        <ele>467</ele>
        <time>2022-04-06T10:30:14Z</time>
      </trkpt>
      <trkpt lat="48.16071" lon="7.16573">
        <ele>467</ele>
        <time>2022-04-06T10:30:16Z</time>
      </trkpt>
      <trkpt lat="48.15959" lon="7.16582">
        <ele>461</ele>
        <time>2022-04-06T10:30:36Z</time>
      </trkpt>
      <trkpt lat="48.15809" lon="7.16588">
        <ele>449</ele>
        <time>2022-04-06T10:31:03Z</time>
      </trkpt>
      <trkpt lat="48.15779" lon="7.16586">
        <ele>447</ele>
        <time>2022-04-06T10:31:08Z</time>
      </trkpt>
      <trkpt lat="48.15733" lon="7.16583">
        <ele>444</ele>
        <time>2022-04-06T10:31:16Z</time>
      </trkpt>
      <trkpt lat="48.15714" lon="7.16588">
        <ele>444</ele>
        <time>2022-04-06T10:31:20Z</time>
      </trkpt>
      <trkpt lat="48.15695" lon="7.16592">
        <ele>443</ele>
        <time>2022-04-06T10:31:23Z</time>
      </trkpt>
      <trkpt lat="48.15668" lon="7.16605">
        <ele>441</ele>
        <time>2022-04-06T10:31:28Z</time>
      </trkpt>
      <trkpt lat="48.15661" lon="7.16611">
        <ele>441</ele>
        <time>2022-04-06T10:31:30Z</time>
      </trkpt>
      <trkpt lat="48.15632" lon="7.16638">
        <ele>438</ele>
        <time>2022-04-06T10:31:36Z</time>
      </trkpt>
      <trkpt lat="48.15609" lon="7.16648">
        <ele>437</ele>
        <time>2022-04-06T10:31:40Z</time>
      </trkpt>
      <trkpt lat="48.15566" lon="7.16665">
        <ele>434</ele>
        <time>2022-04-06T10:31:48Z</time>
      </trkpt>
      <trkpt lat="48.15531" lon="7.16684">
        <ele>433</ele>
        <time>2022-04-06T10:31:54Z</time>
      </trkpt>
      <trkpt lat="48.15505" lon="7.16706">
        <ele>431</ele>
        <time>2022-04-06T10:32:00Z</time>
      </trkpt>
      <trkpt lat="48.1549" lon="7.16726">
        <ele>430</ele>
        <time>2022-04-06T10:32:03Z</time>
      </trkpt>
      <trkpt lat="48.15473" lon="7.16745">
        <ele>429</ele>
        <time>2022-04-06T10:32:07Z</time>
      </trkpt>
      <trkpt lat="48.15456" lon="7.16772">
        <ele>428</ele>
        <time>2022-04-06T10:32:11Z</time>
      </trkpt>
      <trkpt lat="48.15448" lon="7.16777">
        <ele>428</ele>
        <time>2022-04-06T10:32:13Z</time>
      </trkpt>
      <trkpt lat="48.15441" lon="7.16779">
        <ele>428</ele>
        <time>2022-04-06T10:32:14Z</time>
      </trkpt>
      <trkpt lat="48.15417" lon="7.16778">
        <ele>427</ele>
        <time>2022-04-06T10:32:19Z</time>
      </trkpt>
      <trkpt lat="48.15394" lon="7.16777">
        <ele>426</ele>
        <time>2022-04-06T10:32:23Z</time>
      </trkpt>
      <trkpt lat="48.1537" lon="7.16784">
        <ele>425</ele>
        <time>2022-04-06T10:32:27Z</time>
      </trkpt>
      <trkpt lat="48.15344" lon="7.16797">
        <ele>424</ele>
        <time>2022-04-06T10:32:32Z</time>
      </trkpt>
      <trkpt lat="48.15315" lon="7.16813">
        <ele>423</ele>
        <time>2022-04-06T10:32:37Z</time>
      </trkpt>
      <trkpt lat="48.15302" lon="7.16823">
        <ele>423</ele>
        <time>2022-04-06T10:32:40Z</time>
      </trkpt>
      <trkpt lat="48.15291" lon="7.16837">
        <ele>422</ele>
        <time>2022-04-06T10:32:43Z</time>
      </trkpt>
      <trkpt lat="48.15279" lon="7.16851">
        <ele>422</ele>
        <time>2022-04-06T10:32:45Z</time>
      </trkpt>
      <trkpt lat="48.15267" lon="7.16869">
        <ele>421</ele>
        <time>2022-04-06T10:32:48Z</time>
      </trkpt>
      <trkpt lat="48.15261" lon="7.16877">
        <ele>421</ele>
        <time>2022-04-06T10:32:50Z</time>
      </trkpt>
      <trkpt lat="48.15255" lon="7.16887">
        <ele>420</ele>
        <time>2022-04-06T10:32:51Z</time>
      </trkpt>
      <trkpt lat="48.15246" lon="7.16893">
        <ele>420</ele>
        <time>2022-04-06T10:32:53Z</time>
      </trkpt>
      <trkpt lat="48.1524" lon="7.16898">
        <ele>420</ele>
        <time>2022-04-06T10:32:54Z</time>
      </trkpt>
      <trkpt lat="48.15235" lon="7.16901">
        <ele>420</ele>
        <time>2022-04-06T10:32:55Z</time>
      </trkpt>
      <trkpt lat="48.15224" lon="7.16834">
        <ele>424</ele>
        <time>2022-04-06T10:33:03Z</time>
      </trkpt>
      <trkpt lat="48.15216" lon="7.16773">
        <ele>426</ele>
        <time>2022-04-06T10:33:11Z</time>
      </trkpt>
      <trkpt lat="48.15212" lon="7.1676">
        <ele>427</ele>
        <time>2022-04-06T10:33:12Z</time>
      </trkpt>
      <trkpt lat="48.15211" lon="7.16747">
        <ele>427</ele>
        <time>2022-04-06T10:33:14Z</time>
      </trkpt>
      <trkpt lat="48.15164" lon="7.16676">
        <ele>438</ele>
        <time>2022-04-06T10:33:26Z</time>
      </trkpt>
      <trkpt lat="48.15108" lon="7.16609">
        <ele>442</ele>
        <time>2022-04-06T10:33:39Z</time>
      </trkpt>
      <trkpt lat="48.15097" lon="7.16589">
        <ele>442</ele>
        <time>2022-04-06T10:33:42Z</time>
      </trkpt>
      <trkpt lat="48.15063" lon="7.16502">
        <ele>446</ele>
        <time>2022-04-06T10:33:54Z</time>
      </trkpt>
      <trkpt lat="48.15024" lon="7.16453">
        <ele>447</ele>
        <time>2022-04-06T10:34:03Z</time>
      </trkpt>
      <trkpt lat="48.14971" lon="7.16353">
        <ele>453</ele>
        <time>2022-04-06T10:34:18Z</time>
      </trkpt>
      <trkpt lat="48.14969" lon="7.16342">
        <ele>454</ele>
        <time>2022-04-06T10:34:19Z</time>
      </trkpt>
      <trkpt lat="48.14925" lon="7.16338">
        <ele>456</ele>
        <time>2022-04-06T10:34:27Z</time>
      </trkpt>
      <trkpt lat="48.14918" lon="7.16343">
        <ele>456</ele>
        <time>2022-04-06T10:34:29Z</time>
      </trkpt>
      <trkpt lat="48.14916" lon="7.16347">
        <ele>456</ele>
        <time>2022-04-06T10:34:29Z</time>
      </trkpt>
      <trkpt lat="48.1492" lon="7.16367">
        <ele>456</ele>
        <time>2022-04-06T10:34:32Z</time>
      </trkpt>
      <trkpt lat="48.14938" lon="7.16428">
        <ele>454</ele>
        <time>2022-04-06T10:34:39Z</time>
      </trkpt>
      <trkpt lat="48.14958" lon="7.16473">
        <ele>451</ele>
        <time>2022-04-06T10:34:46Z</time>
      </trkpt>
      <trkpt lat="48.14973" lon="7.16531">
        <ele>449</ele>
        <time>2022-04-06T10:34:53Z</time>
      </trkpt>
      <trkpt lat="48.14971" lon="7.16542">
        <ele>449</ele>
        <time>2022-04-06T10:34:55Z</time>
      </trkpt>
      <trkpt lat="48.14976" lon="7.16573">
        <ele>449</ele>
        <time>2022-04-06T10:34:58Z</time>
      </trkpt>
      <trkpt lat="48.14976" lon="7.16581">
        <ele>449</ele>
        <time>2022-04-06T10:34:59Z</time>
      </trkpt>
      <trkpt lat="48.14974" lon="7.16584">
        <ele>449</ele>
        <time>2022-04-06T10:35:00Z</time>
      </trkpt>
      <trkpt lat="48.14969" lon="7.16586">
        <ele>450</ele>
        <time>2022-04-06T10:35:01Z</time>
      </trkpt>
      <trkpt lat="48.14962" lon="7.1658">
        <ele>451</ele>
        <time>2022-04-06T10:35:02Z</time>
      </trkpt>
      <trkpt lat="48.14947" lon="7.16554">
        <ele>454</ele>
        <time>2022-04-06T10:35:06Z</time>
      </trkpt>
      <trkpt lat="48.14929" lon="7.16508">
        <ele>455</ele>
        <time>2022-04-06T10:35:13Z</time>
      </trkpt>
      <trkpt lat="48.14866" lon="7.16414">
        <ele>468</ele>
        <time>2022-04-06T10:35:28Z</time>
      </trkpt>
      <trkpt lat="48.14831" lon="7.16368">
        <ele>474</ele>
        <time>2022-04-06T10:35:37Z</time>
      </trkpt>
      <trkpt lat="48.14816" lon="7.16343">
        <ele>477</ele>
        <time>2022-04-06T10:35:41Z</time>
      </trkpt>
      <trkpt lat="48.14802" lon="7.16318">
        <ele>479</ele>
        <time>2022-04-06T10:35:45Z</time>
      </trkpt>
      <trkpt lat="48.14791" lon="7.16297">
        <ele>481</ele>
        <time>2022-04-06T10:35:48Z</time>
      </trkpt>
      <trkpt lat="48.14776" lon="7.16272">
        <ele>483</ele>
        <time>2022-04-06T10:35:52Z</time>
      </trkpt>
      <trkpt lat="48.1477" lon="7.16262">
        <ele>483</ele>
        <time>2022-04-06T10:35:53Z</time>
      </trkpt>
      <trkpt lat="48.14762" lon="7.16252">
        <ele>485</ele>
        <time>2022-04-06T10:35:55Z</time>
      </trkpt>
      <trkpt lat="48.14746" lon="7.1622">
        <ele>489</ele>
        <time>2022-04-06T10:36:00Z</time>
      </trkpt>
      <trkpt lat="48.14737" lon="7.16195">
        <ele>492</ele>
        <time>2022-04-06T10:36:03Z</time>
      </trkpt>
      <trkpt lat="48.14732" lon="7.16172">
        <ele>494</ele>
        <time>2022-04-06T10:36:06Z</time>
      </trkpt>
      <trkpt lat="48.14729" lon="7.16113">
        <ele>494</ele>
        <time>2022-04-06T10:36:13Z</time>
      </trkpt>
      <trkpt lat="48.14726" lon="7.16099">
        <ele>495</ele>
        <time>2022-04-06T10:36:15Z</time>
      </trkpt>
      <trkpt lat="48.14722" lon="7.16084">
        <ele>496</ele>
        <time>2022-04-06T10:36:17Z</time>
      </trkpt>
      <trkpt lat="48.14705" lon="7.16052">
        <ele>500</ele>
        <time>2022-04-06T10:36:22Z</time>
      </trkpt>
      <trkpt lat="48.147" lon="7.16045">
        <ele>501</ele>
        <time>2022-04-06T10:36:23Z</time>
      </trkpt>
      <trkpt lat="48.14691" lon="7.16027">
        <ele>503</ele>
        <time>2022-04-06T10:36:26Z</time>
      </trkpt>
      <trkpt lat="48.14679" lon="7.16001">
        <ele>504</ele>
        <time>2022-04-06T10:36:29Z</time>
      </trkpt>
      <trkpt lat="48.14666" lon="7.15977">
        <ele>506</ele>
        <time>2022-04-06T10:36:33Z</time>
      </trkpt>
      <trkpt lat="48.14626" lon="7.15926">
        <ele>513</ele>
        <time>2022-04-06T10:36:42Z</time>
      </trkpt>
      <trkpt lat="48.1461" lon="7.15902">
        <ele>516</ele>
        <time>2022-04-06T10:36:46Z</time>
      </trkpt>
      <trkpt lat="48.14569" lon="7.15834">
        <ele>518</ele>
        <time>2022-04-06T10:36:57Z</time>
      </trkpt>
      <trkpt lat="48.14547" lon="7.15806">
        <ele>522</ele>
        <time>2022-04-06T10:37:02Z</time>
      </trkpt>
      <trkpt lat="48.14541" lon="7.15794">
        <ele>523</ele>
        <time>2022-04-06T10:37:04Z</time>
      </trkpt>
      <trkpt lat="48.1453" lon="7.15767">
        <ele>524</ele>
        <time>2022-04-06T10:37:08Z</time>
      </trkpt>
      <trkpt lat="48.1449" lon="7.15692">
        <ele>529</ele>
        <time>2022-04-06T10:37:19Z</time>
      </trkpt>
      <trkpt lat="48.1444" lon="7.15613">
        <ele>537</ele>
        <time>2022-04-06T10:37:32Z</time>
      </trkpt>
      <trkpt lat="48.14428" lon="7.15599">
        <ele>538</ele>
        <time>2022-04-06T10:37:35Z</time>
      </trkpt>
      <trkpt lat="48.14419" lon="7.15593">
        <ele>538</ele>
        <time>2022-04-06T10:37:37Z</time>
      </trkpt>
      <trkpt lat="48.14415" lon="7.1559">
        <ele>539</ele>
        <time>2022-04-06T10:37:38Z</time>
      </trkpt>
      <trkpt lat="48.14396" lon="7.15575">
        <ele>541</ele>
        <time>2022-04-06T10:37:41Z</time>
      </trkpt>
      <trkpt lat="48.14359" lon="7.15551">
        <ele>547</ele>
        <time>2022-04-06T10:37:49Z</time>
      </trkpt>
      <trkpt lat="48.14342" lon="7.15547">
        <ele>550</ele>
        <time>2022-04-06T10:37:52Z</time>
      </trkpt>
      <trkpt lat="48.14308" lon="7.15545">
        <ele>554</ele>
        <time>2022-04-06T10:37:58Z</time>
      </trkpt>
      <trkpt lat="48.14285" lon="7.15536">
        <ele>556</ele>
        <time>2022-04-06T10:38:02Z</time>
      </trkpt>
      <trkpt lat="48.14246" lon="7.15515">
        <ele>560</ele>
        <time>2022-04-06T10:38:09Z</time>
      </trkpt>
      <trkpt lat="48.14233" lon="7.15498">
        <ele>562</ele>
        <time>2022-04-06T10:38:12Z</time>
      </trkpt>
      <trkpt lat="48.14216" lon="7.15456">
        <ele>567</ele>
        <time>2022-04-06T10:38:18Z</time>
      </trkpt>
      <trkpt lat="48.14204" lon="7.15434">
        <ele>568</ele>
        <time>2022-04-06T10:38:22Z</time>
      </trkpt>
      <trkpt lat="48.14186" lon="7.15413">
        <ele>569</ele>
        <time>2022-04-06T10:38:26Z</time>
      </trkpt>
      <trkpt lat="48.14173" lon="7.154">
        <ele>570</ele>
        <time>2022-04-06T10:38:28Z</time>
      </trkpt>
      <trkpt lat="48.14158" lon="7.15394">
        <ele>571</ele>
        <time>2022-04-06T10:38:31Z</time>
      </trkpt>
      <trkpt lat="48.14143" lon="7.15393">
        <ele>572</ele>
        <time>2022-04-06T10:38:34Z</time>
      </trkpt>
      <trkpt lat="48.14132" lon="7.15393">
        <ele>573</ele>
        <time>2022-04-06T10:38:36Z</time>
      </trkpt>
      <trkpt lat="48.1412" lon="7.15387">
        <ele>574</ele>
        <time>2022-04-06T10:38:38Z</time>
      </trkpt>
      <trkpt lat="48.1411" lon="7.15379">
        <ele>575</ele>
        <time>2022-04-06T10:38:40Z</time>
      </trkpt>
      <trkpt lat="48.14098" lon="7.15363">
        <ele>576</ele>
        <time>2022-04-06T10:38:43Z</time>
      </trkpt>
      <trkpt lat="48.14096" lon="7.15352">
        <ele>576</ele>
        <time>2022-04-06T10:38:44Z</time>
      </trkpt>
      <trkpt lat="48.14098" lon="7.15342">
        <ele>576</ele>
        <time>2022-04-06T10:38:46Z</time>
      </trkpt>
      <trkpt lat="48.14101" lon="7.15337">
        <ele>576</ele>
        <time>2022-04-06T10:38:46Z</time>
      </trkpt>
      <trkpt lat="48.14119" lon="7.15323">
        <ele>577</ele>
        <time>2022-04-06T10:38:50Z</time>
      </trkpt>
      <trkpt lat="48.14125" lon="7.15307">
        <ele>579</ele>
        <time>2022-04-06T10:38:52Z</time>
      </trkpt>
      <trkpt lat="48.14124" lon="7.15293">
        <ele>580</ele>
        <time>2022-04-06T10:38:54Z</time>
      </trkpt>
      <trkpt lat="48.14119" lon="7.15268">
        <ele>583</ele>
        <time>2022-04-06T10:38:57Z</time>
      </trkpt>
      <trkpt lat="48.14116" lon="7.1524">
        <ele>586</ele>
        <time>2022-04-06T10:39:00Z</time>
      </trkpt>
      <trkpt lat="48.14117" lon="7.15217">
        <ele>589</ele>
        <time>2022-04-06T10:39:03Z</time>
      </trkpt>
      <trkpt lat="48.14123" lon="7.15194">
        <ele>592</ele>
        <time>2022-04-06T10:39:06Z</time>
      </trkpt>
      <trkpt lat="48.14128" lon="7.15187">
        <ele>593</ele>
        <time>2022-04-06T10:39:07Z</time>
      </trkpt>
      <trkpt lat="48.14131" lon="7.15186">
        <ele>594</ele>
        <time>2022-04-06T10:39:08Z</time>
      </trkpt>
      <trkpt lat="48.1415" lon="7.15187">
        <ele>594</ele>
        <time>2022-04-06T10:39:11Z</time>
      </trkpt>
      <trkpt lat="48.14163" lon="7.15191">
        <ele>593</ele>
        <time>2022-04-06T10:39:13Z</time>
      </trkpt>
      <trkpt lat="48.14186" lon="7.15192">
        <ele>595</ele>
        <time>2022-04-06T10:39:18Z</time>
      </trkpt>
      <trkpt lat="48.14189" lon="7.15191">
        <ele>595</ele>
        <time>2022-04-06T10:39:18Z</time>
      </trkpt>
      <trkpt lat="48.14203" lon="7.1519">
        <ele>596</ele>
        <time>2022-04-06T10:39:21Z</time>
      </trkpt>
      <trkpt lat="48.14217" lon="7.15183">
        <ele>598</ele>
        <time>2022-04-06T10:39:23Z</time>
      </trkpt>
      <trkpt lat="48.14234" lon="7.15166">
        <ele>602</ele>
        <time>2022-04-06T10:39:27Z</time>
      </trkpt>
      <trkpt lat="48.14247" lon="7.15158">
        <ele>605</ele>
        <time>2022-04-06T10:39:29Z</time>
      </trkpt>
      <trkpt lat="48.1425" lon="7.15157">
        <ele>605</ele>
        <time>2022-04-06T10:39:30Z</time>
      </trkpt>
      <trkpt lat="48.14261" lon="7.15157">
        <ele>606</ele>
        <time>2022-04-06T10:39:32Z</time>
      </trkpt>
      <trkpt lat="48.14275" lon="7.15159">
        <ele>608</ele>
        <time>2022-04-06T10:39:34Z</time>
      </trkpt>
      <trkpt lat="48.14285" lon="7.15166">
        <ele>607</ele>
        <time>2022-04-06T10:39:36Z</time>
      </trkpt>
      <trkpt lat="48.14298" lon="7.15186">
        <ele>606</ele>
        <time>2022-04-06T10:39:40Z</time>
      </trkpt>
      <trkpt lat="48.14315" lon="7.15197">
        <ele>607</ele>
        <time>2022-04-06T10:39:43Z</time>
      </trkpt>
      <trkpt lat="48.14357" lon="7.15213">
        <ele>609</ele>
        <time>2022-04-06T10:39:51Z</time>
      </trkpt>
      <trkpt lat="48.14368" lon="7.1521">
        <ele>610</ele>
        <time>2022-04-06T10:39:53Z</time>
      </trkpt>
      <trkpt lat="48.14383" lon="7.152">
        <ele>612</ele>
        <time>2022-04-06T10:39:56Z</time>
      </trkpt>
      <trkpt lat="48.14423" lon="7.15159">
        <ele>621</ele>
        <time>2022-04-06T10:40:04Z</time>
      </trkpt>
      <trkpt lat="48.14441" lon="7.15145">
        <ele>621</ele>
        <time>2022-04-06T10:40:08Z</time>
      </trkpt>
      <trkpt lat="48.14447" lon="7.15137">
        <ele>622</ele>
        <time>2022-04-06T10:40:09Z</time>
      </trkpt>
      <trkpt lat="48.14456" lon="7.15122">
        <ele>623</ele>
        <time>2022-04-06T10:40:12Z</time>
      </trkpt>
      <trkpt lat="48.14524" lon="7.1499">
        <ele>639</ele>
        <time>2022-04-06T10:40:31Z</time>
      </trkpt>
      <trkpt lat="48.14532" lon="7.14966">
        <ele>641</ele>
        <time>2022-04-06T10:40:35Z</time>
      </trkpt>
      <trkpt lat="48.14533" lon="7.14952">
        <ele>643</ele>
        <time>2022-04-06T10:40:36Z</time>
      </trkpt>
      <trkpt lat="48.14523" lon="7.14959">
        <ele>644</ele>
        <time>2022-04-06T10:40:38Z</time>
      </trkpt>
      <trkpt lat="48.14506" lon="7.14975">
        <ele>645</ele>
        <time>2022-04-06T10:40:42Z</time>
      </trkpt>
      <trkpt lat="48.14476" lon="7.14994">
        <ele>645</ele>
        <time>2022-04-06T10:40:48Z</time>
      </trkpt>
      <trkpt lat="48.14456" lon="7.14993">
        <ele>647</ele>
        <time>2022-04-06T10:40:51Z</time>
      </trkpt>
      <trkpt lat="48.14447" lon="7.1499">
        <ele>648</ele>
        <time>2022-04-06T10:40:53Z</time>
      </trkpt>
      <trkpt lat="48.14417" lon="7.14972">
        <ele>654</ele>
        <time>2022-04-06T10:40:59Z</time>
      </trkpt>
      <trkpt lat="48.14394" lon="7.14956">
        <ele>656</ele>
        <time>2022-04-06T10:41:03Z</time>
      </trkpt>
      <trkpt lat="48.14371" lon="7.14948">
        <ele>657</ele>
        <time>2022-04-06T10:41:07Z</time>
      </trkpt>
      <trkpt lat="48.14362" lon="7.14947">
        <ele>657</ele>
        <time>2022-04-06T10:41:09Z</time>
      </trkpt>
      <trkpt lat="48.14342" lon="7.1495">
        <ele>655</ele>
        <time>2022-04-06T10:41:12Z</time>
      </trkpt>
      <trkpt lat="48.14329" lon="7.14949">
        <ele>654</ele>
        <time>2022-04-06T10:41:15Z</time>
      </trkpt>
      <trkpt lat="48.14304" lon="7.14945">
        <ele>653</ele>
        <time>2022-04-06T10:41:19Z</time>
      </trkpt>
      <trkpt lat="48.14277" lon="7.14952">
        <ele>649</ele>
        <time>2022-04-06T10:41:24Z</time>
      </trkpt>
      <trkpt lat="48.14268" lon="7.14952">
        <ele>648</ele>
        <time>2022-04-06T10:41:26Z</time>
      </trkpt>
      <trkpt lat="48.14241" lon="7.14947">
        <ele>648</ele>
        <time>2022-04-06T10:41:31Z</time>
      </trkpt>
      <trkpt lat="48.14228" lon="7.14947">
        <ele>648</ele>
        <time>2022-04-06T10:41:33Z</time>
      </trkpt>
      <trkpt lat="48.14192" lon="7.14952">
        <ele>647</ele>
        <time>2022-04-06T10:41:39Z</time>
      </trkpt>
      <trkpt lat="48.14157" lon="7.14951">
        <ele>648</ele>
        <time>2022-04-06T10:41:45Z</time>
      </trkpt>
      <trkpt lat="48.14135" lon="7.14956">
        <ele>646</ele>
        <time>2022-04-06T10:41:49Z</time>
      </trkpt>
      <trkpt lat="48.14085" lon="7.14958">
        <ele>644</ele>
        <time>2022-04-06T10:41:58Z</time>
      </trkpt>
      <trkpt lat="48.14065" lon="7.14952">
        <ele>645</ele>
        <time>2022-04-06T10:42:02Z</time>
      </trkpt>
      <trkpt lat="48.14032" lon="7.14937">
        <ele>646</ele>
        <time>2022-04-06T10:42:08Z</time>
      </trkpt>
      <trkpt lat="48.14003" lon="7.14933">
        <ele>644</ele>
        <time>2022-04-06T10:42:13Z</time>
      </trkpt>
      <trkpt lat="48.13982" lon="7.14927">
        <ele>645</ele>
        <time>2022-04-06T10:42:17Z</time>
      </trkpt>
      <trkpt lat="48.13961" lon="7.14921">
        <ele>646</ele>
        <time>2022-04-06T10:42:21Z</time>
      </trkpt>
      <trkpt lat="48.13945" lon="7.14922">
        <ele>645</ele>
        <time>2022-04-06T10:42:24Z</time>
      </trkpt>
      <trkpt lat="48.13916" lon="7.14927">
        <ele>644</ele>
        <time>2022-04-06T10:42:29Z</time>
      </trkpt>
      <trkpt lat="48.13896" lon="7.14934">
        <ele>644</ele>
        <time>2022-04-06T10:42:33Z</time>
      </trkpt>
      <trkpt lat="48.13839" lon="7.14977">
        <ele>642</ele>
        <time>2022-04-06T10:42:44Z</time>
      </trkpt>
      <trkpt lat="48.13821" lon="7.14983">
        <ele>642</ele>
        <time>2022-04-06T10:42:47Z</time>
      </trkpt>
      <trkpt lat="48.13805" lon="7.14983">
        <ele>642</ele>
        <time>2022-04-06T10:42:50Z</time>
      </trkpt>
      <trkpt lat="48.13768" lon="7.14974">
        <ele>644</ele>
        <time>2022-04-06T10:42:57Z</time>
      </trkpt>
      <trkpt lat="48.13727" lon="7.14959">
        <ele>644</ele>
        <time>2022-04-06T10:43:04Z</time>
      </trkpt>
      <trkpt lat="48.13719" lon="7.14975">
        <ele>644</ele>
        <time>2022-04-06T10:43:07Z</time>
      </trkpt>
      <trkpt lat="48.13712" lon="7.14974">
        <ele>644</ele>
        <time>2022-04-06T10:43:08Z</time>
      </trkpt>
      <trkpt lat="48.13694" lon="7.14945">
        <ele>642</ele>
        <time>2022-04-06T10:43:13Z</time>
      </trkpt>
      <trkpt lat="48.13676" lon="7.14913">
        <ele>639</ele>
        <time>2022-04-06T10:43:18Z</time>
      </trkpt>
      <trkpt lat="48.13667" lon="7.14905">
        <ele>637</ele>
        <time>2022-04-06T10:43:19Z</time>
      </trkpt>
      <trkpt lat="48.1363" lon="7.14881">
        <ele>636</ele>
        <time>2022-04-06T10:43:27Z</time>
      </trkpt>
      <trkpt lat="48.13625" lon="7.14875">
        <ele>635</ele>
        <time>2022-04-06T10:43:28Z</time>
      </trkpt>
      <trkpt lat="48.13625" lon="7.14864">
        <ele>634</ele>
        <time>2022-04-06T10:43:29Z</time>
      </trkpt>
      <trkpt lat="48.13644" lon="7.14842">
        <ele>632</ele>
        <time>2022-04-06T10:43:33Z</time>
      </trkpt>
      <trkpt lat="48.13651" lon="7.14828">
        <ele>632</ele>
        <time>2022-04-06T10:43:35Z</time>
      </trkpt>
      <trkpt lat="48.1365" lon="7.14811">
        <ele>632</ele>
        <time>2022-04-06T10:43:37Z</time>
      </trkpt>
      <trkpt lat="48.13643" lon="7.14801">
        <ele>630</ele>
        <time>2022-04-06T10:43:39Z</time>
      </trkpt>
      <trkpt lat="48.13634" lon="7.14799">
        <ele>629</ele>
        <time>2022-04-06T10:43:41Z</time>
      </trkpt>
      <trkpt lat="48.13615" lon="7.14802">
        <ele>626</ele>
        <time>2022-04-06T10:43:44Z</time>
      </trkpt>
      <trkpt lat="48.13602" lon="7.14799">
        <ele>623</ele>
        <time>2022-04-06T10:43:46Z</time>
      </trkpt>
      <trkpt lat="48.13586" lon="7.14783">
        <ele>618</ele>
        <time>2022-04-06T10:43:50Z</time>
      </trkpt>
      <trkpt lat="48.13533" lon="7.14742">
        <ele>610</ele>
        <time>2022-04-06T10:44:01Z</time>
      </trkpt>
      <trkpt lat="48.13477" lon="7.14705">
        <ele>602</ele>
        <time>2022-04-06T10:44:11Z</time>
      </trkpt>
      <trkpt lat="48.13447" lon="7.14694">
        <ele>599</ele>
        <time>2022-04-06T10:44:17Z</time>
      </trkpt>
      <trkpt lat="48.1344" lon="7.14688">
        <ele>598</ele>
        <time>2022-04-06T10:44:18Z</time>
      </trkpt>
      <trkpt lat="48.13437" lon="7.1468">
        <ele>596</ele>
        <time>2022-04-06T10:44:19Z</time>
      </trkpt>
      <trkpt lat="48.13438" lon="7.14669">
        <ele>593</ele>
        <time>2022-04-06T10:44:21Z</time>
      </trkpt>
      <trkpt lat="48.13442" lon="7.14656">
        <ele>592</ele>
        <time>2022-04-06T10:44:22Z</time>
      </trkpt>
      <trkpt lat="48.13454" lon="7.14632">
        <ele>592</ele>
        <time>2022-04-06T10:44:26Z</time>
      </trkpt>
      <trkpt lat="48.13459" lon="7.14612">
        <ele>592</ele>
        <time>2022-04-06T10:44:29Z</time>
      </trkpt>
      <trkpt lat="48.13458" lon="7.14601">
        <ele>591</ele>
        <time>2022-04-06T10:44:30Z</time>
      </trkpt>
      <trkpt lat="48.1345" lon="7.14581">
        <ele>589</ele>
        <time>2022-04-06T10:44:33Z</time>
      </trkpt>
      <trkpt lat="48.13432" lon="7.14541">
        <ele>588</ele>
        <time>2022-04-06T10:44:38Z</time>
      </trkpt>
      <trkpt lat="48.13428" lon="7.14518">
        <ele>588</ele>
        <time>2022-04-06T10:44:41Z</time>
      </trkpt>
      <trkpt lat="48.13427" lon="7.14512">
        <ele>588</ele>
        <time>2022-04-06T10:44:42Z</time>
      </trkpt>
      <trkpt lat="48.13422" lon="7.14506">
        <ele>588</ele>
        <time>2022-04-06T10:44:43Z</time>
      </trkpt>
      <trkpt lat="48.13394" lon="7.14496">
        <ele>586</ele>
        <time>2022-04-06T10:44:48Z</time>
      </trkpt>
      <trkpt lat="48.13389" lon="7.14493">
        <ele>586</ele>
        <time>2022-04-06T10:44:49Z</time>
      </trkpt>
      <trkpt lat="48.13382" lon="7.14498">
        <ele>584</ele>
        <time>2022-04-06T10:44:51Z</time>
      </trkpt>
      <trkpt lat="48.13369" lon="7.14507">
        <ele>582</ele>
        <time>2022-04-06T10:44:53Z</time>
      </trkpt>
      <trkpt lat="48.13357" lon="7.14519">
        <ele>580</ele>
        <time>2022-04-06T10:44:56Z</time>
      </trkpt>
      <trkpt lat="48.13259" lon="7.14596">
        <ele>570</ele>
        <time>2022-04-06T10:45:15Z</time>
      </trkpt>
      <trkpt lat="48.13235" lon="7.14611">
        <ele>569</ele>
        <time>2022-04-06T10:45:20Z</time>
      </trkpt>
      <trkpt lat="48.1319" lon="7.14633">
        <ele>566</ele>
        <time>2022-04-06T10:45:28Z</time>
      </trkpt>
      <trkpt lat="48.13161" lon="7.14647">
        <ele>564</ele>
        <time>2022-04-06T10:45:34Z</time>
      </trkpt>
      <trkpt lat="48.13061" lon="7.14707">
        <ele>566</ele>
        <time>2022-04-06T10:45:53Z</time>
      </trkpt>
      <trkpt lat="48.13027" lon="7.14731">
        <ele>569</ele>
        <time>2022-04-06T10:46:00Z</time>
      </trkpt>
      <trkpt lat="48.12984" lon="7.14772">
        <ele>567</ele>
        <time>2022-04-06T10:46:09Z</time>
      </trkpt>
      <trkpt lat="48.12917" lon="7.14841">
        <ele>548</ele>
        <time>2022-04-06T10:46:23Z</time>
      </trkpt>
      <trkpt lat="48.12882" lon="7.14872">
        <ele>542</ele>
        <time>2022-04-06T10:46:30Z</time>
      </trkpt>
      <trkpt lat="48.1285" lon="7.14918">
        <ele>534</ele>
        <time>2022-04-06T10:46:38Z</time>
      </trkpt>
      <trkpt lat="48.12822" lon="7.14975">
        <ele>531</ele>
        <time>2022-04-06T10:46:47Z</time>
      </trkpt>
      <trkpt lat="48.12805" lon="7.15002">
        <ele>530</ele>
        <time>2022-04-06T10:46:51Z</time>
      </trkpt>
      <trkpt lat="48.12782" lon="7.15021">
        <ele>529</ele>
        <time>2022-04-06T10:46:56Z</time>
      </trkpt>
      <trkpt lat="48.12773" lon="7.15036">
        <ele>528</ele>
        <time>2022-04-06T10:46:58Z</time>
      </trkpt>
      <trkpt lat="48.12769" lon="7.15063">
        <ele>527</ele>
        <time>2022-04-06T10:47:01Z</time>
      </trkpt>
      <trkpt lat="48.12759" lon="7.15084">
        <ele>525</ele>
        <time>2022-04-06T10:47:05Z</time>
      </trkpt>
      <trkpt lat="48.12745" lon="7.1511">
        <ele>524</ele>
        <time>2022-04-06T10:47:09Z</time>
      </trkpt>
      <trkpt lat="48.12731" lon="7.15126">
        <ele>523</ele>
        <time>2022-04-06T10:47:12Z</time>
      </trkpt>
      <trkpt lat="48.12723" lon="7.15139">
        <ele>523</ele>
        <time>2022-04-06T10:47:14Z</time>
      </trkpt>
      <trkpt lat="48.12718" lon="7.15154">
        <ele>522</ele>
        <time>2022-04-06T10:47:16Z</time>
      </trkpt>
      <trkpt lat="48.12715" lon="7.15171">
        <ele>521</ele>
        <time>2022-04-06T10:47:18Z</time>
      </trkpt>
      <trkpt lat="48.12713" lon="7.1521">
        <ele>519</ele>
        <time>2022-04-06T10:47:22Z</time>
      </trkpt>
      <trkpt lat="48.12706" lon="7.15267">
        <ele>517</ele>
        <time>2022-04-06T10:47:29Z</time>
      </trkpt>
      <trkpt lat="48.12703" lon="7.15281">
        <ele>517</ele>
        <time>2022-04-06T10:47:31Z</time>
      </trkpt>
      <trkpt lat="48.12691" lon="7.1531">
        <ele>516</ele>
        <time>2022-04-06T10:47:35Z</time>
      </trkpt>
      <trkpt lat="48.12631" lon="7.15413">
        <ele>509</ele>
        <time>2022-04-06T10:47:51Z</time>
      </trkpt>
      <trkpt lat="48.12614" lon="7.15436">
        <ele>508</ele>
        <time>2022-04-06T10:47:55Z</time>
      </trkpt>
      <trkpt lat="48.12606" lon="7.1544">
        <ele>507</ele>
        <time>2022-04-06T10:47:57Z</time>
      </trkpt>
      <trkpt lat="48.12603" lon="7.15439">
        <ele>507</ele>
        <time>2022-04-06T10:47:58Z</time>
      </trkpt>
      <trkpt lat="48.12589" lon="7.15455">
        <ele>506</ele>
        <time>2022-04-06T10:48:01Z</time>
      </trkpt>
      <trkpt lat="48.12575" lon="7.15468">
        <ele>505</ele>
        <time>2022-04-06T10:48:04Z</time>
      </trkpt>
      <trkpt lat="48.12563" lon="7.15472">
        <ele>505</ele>
        <time>2022-04-06T10:48:06Z</time>
      </trkpt>
      <trkpt lat="48.12546" lon="7.15473">
        <ele>505</ele>
        <time>2022-04-06T10:48:09Z</time>
      </trkpt>
      <trkpt lat="48.12546" lon="7.15459">
        <ele>505</ele>
        <time>2022-04-06T10:48:10Z</time>
      </trkpt>
      <trkpt lat="48.12546" lon="7.15456">
        <ele>506</ele>
        <time>2022-04-06T10:48:11Z</time>
      </trkpt>
      <trkpt lat="48.12544" lon="7.15441">
        <ele>506</ele>
        <time>2022-04-06T10:48:13Z</time>
      </trkpt>
      <trkpt lat="48.12541" lon="7.1542">
        <ele>507</ele>
        <time>2022-04-06T10:48:15Z</time>
      </trkpt>
      <trkpt lat="48.12537" lon="7.15406">
        <ele>508</ele>
        <time>2022-04-06T10:48:17Z</time>
      </trkpt>
      <trkpt lat="48.12534" lon="7.15396">
        <ele>508</ele>
        <time>2022-04-06T10:48:18Z</time>
      </trkpt>
      <trkpt lat="48.12531" lon="7.15387">
        <ele>509</ele>
        <time>2022-04-06T10:48:19Z</time>
      </trkpt>
      <trkpt lat="48.12528" lon="7.15379">
        <ele>509</ele>
        <time>2022-04-06T10:48:21Z</time>
      </trkpt>
      <trkpt lat="48.12523" lon="7.15367">
        <ele>509</ele>
        <time>2022-04-06T10:48:22Z</time>
      </trkpt>
      <trkpt lat="48.12517" lon="7.15354">
        <ele>510</ele>
        <time>2022-04-06T10:48:24Z</time>
      </trkpt>
      <trkpt lat="48.12514" lon="7.15349">
        <ele>510</ele>
        <time>2022-04-06T10:48:25Z</time>
      </trkpt>
      <trkpt lat="48.12503" lon="7.15332">
        <ele>511</ele>
        <time>2022-04-06T10:48:28Z</time>
      </trkpt>
      <trkpt lat="48.12494" lon="7.1532">
        <ele>512</ele>
        <time>2022-04-06T10:48:30Z</time>
      </trkpt>
      <trkpt lat="48.12483" lon="7.15307">
        <ele>513</ele>
        <time>2022-04-06T10:48:32Z</time>
      </trkpt>
      <trkpt lat="48.12475" lon="7.15301">
        <ele>513</ele>
        <time>2022-04-06T10:48:34Z</time>
      </trkpt>
      <trkpt lat="48.12464" lon="7.15296">
        <ele>513</ele>
        <time>2022-04-06T10:48:36Z</time>
      </trkpt>
      <trkpt lat="48.12459" lon="7.15295">
        <ele>513</ele>
        <time>2022-04-06T10:48:37Z</time>
      </trkpt>
      <trkpt lat="48.12455" lon="7.15293">
        <ele>513</ele>
        <time>2022-04-06T10:48:38Z</time>
      </trkpt>
      <trkpt lat="48.1245" lon="7.15292">
        <ele>513</ele>
        <time>2022-04-06T10:48:39Z</time>
      </trkpt>
      <trkpt lat="48.12437" lon="7.15288">
        <ele>513</ele>
        <time>2022-04-06T10:48:41Z</time>
      </trkpt>
      <trkpt lat="48.12426" lon="7.15286">
        <ele>513</ele>
        <time>2022-04-06T10:48:43Z</time>
      </trkpt>
      <trkpt lat="48.12406" lon="7.15282">
        <ele>513</ele>
        <time>2022-04-06T10:48:46Z</time>
      </trkpt>
      <trkpt lat="48.1237" lon="7.15276">
        <ele>514</ele>
        <time>2022-04-06T10:48:53Z</time>
      </trkpt>
      <trkpt lat="48.12356" lon="7.15272">
        <ele>514</ele>
        <time>2022-04-06T10:48:55Z</time>
      </trkpt>
      <trkpt lat="48.12351" lon="7.15269">
        <ele>514</ele>
        <time>2022-04-06T10:48:56Z</time>
      </trkpt>
      <trkpt lat="48.12342" lon="7.15264">
        <ele>514</ele>
        <time>2022-04-06T10:48:58Z</time>
      </trkpt>
      <trkpt lat="48.1234" lon="7.15263">
        <ele>514</ele>
        <time>2022-04-06T10:48:59Z</time>
      </trkpt>
      <trkpt lat="48.12332" lon="7.15256">
        <ele>514</ele>
        <time>2022-04-06T10:49:00Z</time>
      </trkpt>
      <trkpt lat="48.12328" lon="7.15252">
        <ele>514</ele>
        <time>2022-04-06T10:49:01Z</time>
      </trkpt>
      <trkpt lat="48.12327" lon="7.1525">
        <ele>514</ele>
        <time>2022-04-06T10:49:01Z</time>
      </trkpt>
      <trkpt lat="48.12316" lon="7.15234">
        <ele>516</ele>
        <time>2022-04-06T10:49:04Z</time>
      </trkpt>
      <trkpt lat="48.12313" lon="7.15228">
        <ele>516</ele>
        <time>2022-04-06T10:49:05Z</time>
      </trkpt>
      <trkpt lat="48.12301" lon="7.15206">
        <ele>517</ele>
        <time>2022-04-06T10:49:08Z</time>
      </trkpt>
      <trkpt lat="48.12286" lon="7.15179">
        <ele>518</ele>
        <time>2022-04-06T10:49:12Z</time>
      </trkpt>
      <trkpt lat="48.12278" lon="7.15165">
        <ele>519</ele>
        <time>2022-04-06T10:49:15Z</time>
      </trkpt>
      <trkpt lat="48.12265" lon="7.15144">
        <ele>520</ele>
        <time>2022-04-06T10:49:18Z</time>
      </trkpt>
      <trkpt lat="48.1225" lon="7.15116">
        <ele>521</ele>
        <time>2022-04-06T10:49:22Z</time>
      </trkpt>
      <trkpt lat="48.12243" lon="7.15103">
        <ele>522</ele>
        <time>2022-04-06T10:49:24Z</time>
      </trkpt>
      <trkpt lat="48.1224" lon="7.15096">
        <ele>522</ele>
        <time>2022-04-06T10:49:25Z</time>
      </trkpt>
      <trkpt lat="48.12232" lon="7.1508">
        <ele>523</ele>
        <time>2022-04-06T10:49:28Z</time>
      </trkpt>
      <trkpt lat="48.12224" lon="7.15063">
        <ele>524</ele>
        <time>2022-04-06T10:49:30Z</time>
      </trkpt>
      <trkpt lat="48.12215" lon="7.15048">
        <ele>524</ele>
        <time>2022-04-06T10:49:33Z</time>
      </trkpt>
      <trkpt lat="48.12212" lon="7.15043">
        <ele>525</ele>
        <time>2022-04-06T10:49:33Z</time>
      </trkpt>
      <trkpt lat="48.12199" lon="7.15018">
        <ele>526</ele>
        <time>2022-04-06T10:49:37Z</time>
      </trkpt>
      <trkpt lat="48.12193" lon="7.1501">
        <ele>526</ele>
        <time>2022-04-06T10:49:39Z</time>
      </trkpt>
      <trkpt lat="48.12191" lon="7.15006">
        <ele>526</ele>
        <time>2022-04-06T10:49:39Z</time>
      </trkpt>
      <trkpt lat="48.12178" lon="7.14985">
        <ele>527</ele>
        <time>2022-04-06T10:49:43Z</time>
      </trkpt>
      <trkpt lat="48.12176" lon="7.14982">
        <ele>528</ele>
        <time>2022-04-06T10:49:43Z</time>
      </trkpt>
      <trkpt lat="48.12165" lon="7.14964">
        <ele>529</ele>
        <time>2022-04-06T10:49:46Z</time>
      </trkpt>
      <trkpt lat="48.12162" lon="7.14959">
        <ele>529</ele>
        <time>2022-04-06T10:49:47Z</time>
      </trkpt>
      <trkpt lat="48.12143" lon="7.14921">
        <ele>532</ele>
        <time>2022-04-06T10:49:52Z</time>
      </trkpt>
      <trkpt lat="48.1214" lon="7.14915">
        <ele>532</ele>
        <time>2022-04-06T10:49:53Z</time>
      </trkpt>
      <trkpt lat="48.12139" lon="7.14913">
        <ele>532</ele>
        <time>2022-04-06T10:49:54Z</time>
      </trkpt>
      <trkpt lat="48.1212" lon="7.1488">
        <ele>534</ele>
        <time>2022-04-06T10:49:59Z</time>
      </trkpt>
      <trkpt lat="48.12114" lon="7.1487">
        <ele>535</ele>
        <time>2022-04-06T10:50:00Z</time>
      </trkpt>
      <trkpt lat="48.12106" lon="7.14855">
        <ele>535</ele>
        <time>2022-04-06T10:50:03Z</time>
      </trkpt>
      <trkpt lat="48.12092" lon="7.14828">
        <ele>536</ele>
        <time>2022-04-06T10:50:07Z</time>
      </trkpt>
      <trkpt lat="48.1209" lon="7.14824">
        <ele>536</ele>
        <time>2022-04-06T10:50:07Z</time>
      </trkpt>
      <trkpt lat="48.12081" lon="7.14805">
        <ele>538</ele>
        <time>2022-04-06T10:50:10Z</time>
      </trkpt>
      <trkpt lat="48.12072" lon="7.14788">
        <ele>540</ele>
        <time>2022-04-06T10:50:13Z</time>
      </trkpt>
      <trkpt lat="48.12066" lon="7.14772">
        <ele>541</ele>
        <time>2022-04-06T10:50:15Z</time>
      </trkpt>
      <trkpt lat="48.12065" lon="7.14771">
        <ele>541</ele>
        <time>2022-04-06T10:50:15Z</time>
      </trkpt>
      <trkpt lat="48.12049" lon="7.1473">
        <ele>543</ele>
        <time>2022-04-06T10:50:21Z</time>
      </trkpt>
      <trkpt lat="48.12045" lon="7.1472">
        <ele>543</ele>
        <time>2022-04-06T10:50:22Z</time>
      </trkpt>
      <trkpt lat="48.1204" lon="7.14713">
        <ele>544</ele>
        <time>2022-04-06T10:50:23Z</time>
      </trkpt>
      <trkpt lat="48.12026" lon="7.14688">
        <ele>544</ele>
        <time>2022-04-06T10:50:27Z</time>
      </trkpt>
      <trkpt lat="48.12024" lon="7.14686">
        <ele>544</ele>
        <time>2022-04-06T10:50:28Z</time>
      </trkpt>
      <trkpt lat="48.12002" lon="7.14647">
        <ele>544</ele>
        <time>2022-04-06T10:50:34Z</time>
      </trkpt>
      <trkpt lat="48.11993" lon="7.1463">
        <ele>546</ele>
        <time>2022-04-06T10:50:36Z</time>
      </trkpt>
      <trkpt lat="48.11971" lon="7.14585">
        <ele>550</ele>
        <time>2022-04-06T10:50:43Z</time>
      </trkpt>
      <trkpt lat="48.11963" lon="7.1457">
        <ele>551</ele>
        <time>2022-04-06T10:50:45Z</time>
      </trkpt>
      <trkpt lat="48.11961" lon="7.14567">
        <ele>551</ele>
        <time>2022-04-06T10:50:46Z</time>
      </trkpt>
      <trkpt lat="48.11952" lon="7.14557">
        <ele>552</ele>
        <time>2022-04-06T10:50:48Z</time>
      </trkpt>
      <trkpt lat="48.11945" lon="7.1455">
        <ele>552</ele>
        <time>2022-04-06T10:50:49Z</time>
      </trkpt>
      <trkpt lat="48.11942" lon="7.14548">
        <ele>552</ele>
        <time>2022-04-06T10:50:50Z</time>
      </trkpt>
      <trkpt lat="48.11922" lon="7.14532">
        <ele>553</ele>
        <time>2022-04-06T10:50:54Z</time>
      </trkpt>
      <trkpt lat="48.11902" lon="7.14517">
        <ele>554</ele>
        <time>2022-04-06T10:50:58Z</time>
      </trkpt>
      <trkpt lat="48.11897" lon="7.14514">
        <ele>554</ele>
        <time>2022-04-06T10:50:59Z</time>
      </trkpt>
      <trkpt lat="48.11888" lon="7.14507">
        <ele>555</ele>
        <time>2022-04-06T10:51:00Z</time>
      </trkpt>
      <trkpt lat="48.11886" lon="7.14506">
        <ele>555</ele>
        <time>2022-04-06T10:51:01Z</time>
      </trkpt>
      <trkpt lat="48.11874" lon="7.14495">
        <ele>555</ele>
        <time>2022-04-06T10:51:03Z</time>
      </trkpt>
      <trkpt lat="48.11873" lon="7.14494">
        <ele>555</ele>
        <time>2022-04-06T10:51:04Z</time>
      </trkpt>
      <trkpt lat="48.11864" lon="7.14482">
        <ele>556</ele>
        <time>2022-04-06T10:51:06Z</time>
      </trkpt>
      <trkpt lat="48.11848" lon="7.14463">
        <ele>557</ele>
        <time>2022-04-06T10:51:09Z</time>
      </trkpt>
      <trkpt lat="48.11838" lon="7.14452">
        <ele>557</ele>
        <time>2022-04-06T10:51:12Z</time>
      </trkpt>
      <trkpt lat="48.11836" lon="7.14449">
        <ele>558</ele>
        <time>2022-04-06T10:51:12Z</time>
      </trkpt>
      <trkpt lat="48.11828" lon="7.14435">
        <ele>558</ele>
        <time>2022-04-06T10:51:14Z</time>
      </trkpt>
      <trkpt lat="48.11824" lon="7.14427">
        <ele>558</ele>
        <time>2022-04-06T10:51:15Z</time>
      </trkpt>
      <trkpt lat="48.11823" lon="7.14423">
        <ele>558</ele>
        <time>2022-04-06T10:51:16Z</time>
      </trkpt>
      <trkpt lat="48.11818" lon="7.14411">
        <ele>559</ele>
        <time>2022-04-06T10:51:18Z</time>
      </trkpt>
      <trkpt lat="48.11815" lon="7.14401">
        <ele>559</ele>
        <time>2022-04-06T10:51:19Z</time>
      </trkpt>
      <trkpt lat="48.11813" lon="7.14394">
        <ele>559</ele>
        <time>2022-04-06T10:51:20Z</time>
      </trkpt>
      <trkpt lat="48.11811" lon="7.14388">
        <ele>560</ele>
        <time>2022-04-06T10:51:21Z</time>
      </trkpt>
      <trkpt lat="48.11807" lon="7.14371">
        <ele>560</ele>
        <time>2022-04-06T10:51:23Z</time>
      </trkpt>
      <trkpt lat="48.11805" lon="7.14361">
        <ele>561</ele>
        <time>2022-04-06T10:51:24Z</time>
      </trkpt>
      <trkpt lat="48.11803" lon="7.14351">
        <ele>561</ele>
        <time>2022-04-06T10:51:25Z</time>
      </trkpt>
      <trkpt lat="48.11803" lon="7.14343">
        <ele>561</ele>
        <time>2022-04-06T10:51:26Z</time>
      </trkpt>
      <trkpt lat="48.11802" lon="7.14336">
        <ele>562</ele>
        <time>2022-04-06T10:51:27Z</time>
      </trkpt>
      <trkpt lat="48.11802" lon="7.14329">
        <ele>562</ele>
        <time>2022-04-06T10:51:28Z</time>
      </trkpt>
      <trkpt lat="48.11801" lon="7.14318">
        <ele>562</ele>
        <time>2022-04-06T10:51:29Z</time>
      </trkpt>
      <trkpt lat="48.11779" lon="7.14335">
        <ele>562</ele>
        <time>2022-04-06T10:51:34Z</time>
      </trkpt>
      <trkpt lat="48.11768" lon="7.14344">
        <ele>562</ele>
        <time>2022-04-06T10:51:36Z</time>
      </trkpt>
      <trkpt lat="48.11766" lon="7.14345">
        <ele>562</ele>
        <time>2022-04-06T10:51:36Z</time>
      </trkpt>
      <trkpt lat="48.11754" lon="7.14351">
        <ele>562</ele>
        <time>2022-04-06T10:51:38Z</time>
      </trkpt>
      <trkpt lat="48.11741" lon="7.14357">
        <ele>563</ele>
        <time>2022-04-06T10:51:41Z</time>
      </trkpt>
      <trkpt lat="48.11722" lon="7.14365">
        <ele>564</ele>
        <time>2022-04-06T10:51:44Z</time>
      </trkpt>
      <trkpt lat="48.11719" lon="7.14366">
        <ele>564</ele>
        <time>2022-04-06T10:51:45Z</time>
      </trkpt>
      <trkpt lat="48.11713" lon="7.14369">
        <ele>564</ele>
        <time>2022-04-06T10:51:46Z</time>
      </trkpt>
      <trkpt lat="48.11708" lon="7.1437">
        <ele>564</ele>
        <time>2022-04-06T10:51:47Z</time>
      </trkpt>
      <trkpt lat="48.11676" lon="7.14382">
        <ele>565</ele>
        <time>2022-04-06T10:51:53Z</time>
      </trkpt>
      <trkpt lat="48.11658" lon="7.14388">
        <ele>565</ele>
        <time>2022-04-06T10:51:56Z</time>
      </trkpt>
      <trkpt lat="48.11613" lon="7.14405">
        <ele>568</ele>
        <time>2022-04-06T10:52:04Z</time>
      </trkpt>
      <trkpt lat="48.11596" lon="7.14409">
        <ele>569</ele>
        <time>2022-04-06T10:52:07Z</time>
      </trkpt>
      <trkpt lat="48.1158" lon="7.14407">
        <ele>570</ele>
        <time>2022-04-06T10:52:10Z</time>
      </trkpt>
      <trkpt lat="48.11543" lon="7.14389">
        <ele>573</ele>
        <time>2022-04-06T10:52:17Z</time>
      </trkpt>
      <trkpt lat="48.11515" lon="7.14379">
        <ele>575</ele>
        <time>2022-04-06T10:52:22Z</time>
      </trkpt>
      <trkpt lat="48.11499" lon="7.14381">
        <ele>576</ele>
        <time>2022-04-06T10:52:25Z</time>
      </trkpt>
      <trkpt lat="48.11473" lon="7.14393">
        <ele>577</ele>
        <time>2022-04-06T10:52:30Z</time>
      </trkpt>
      <trkpt lat="48.11454" lon="7.14405">
        <ele>577</ele>
        <time>2022-04-06T10:52:34Z</time>
      </trkpt>
      <trkpt lat="48.11416" lon="7.14431">
        <ele>578</ele>
        <time>2022-04-06T10:52:41Z</time>
      </trkpt>
      <trkpt lat="48.11395" lon="7.14435">
        <ele>578</ele>
        <time>2022-04-06T10:52:45Z</time>
      </trkpt>
      <trkpt lat="48.1138" lon="7.14434">
        <ele>578</ele>
        <time>2022-04-06T10:52:48Z</time>
      </trkpt>
      <trkpt lat="48.11284" lon="7.14396">
        <ele>584</ele>
        <time>2022-04-06T10:53:05Z</time>
      </trkpt>
      <trkpt lat="48.11257" lon="7.14389">
        <ele>585</ele>
        <time>2022-04-06T10:53:10Z</time>
      </trkpt>
      <trkpt lat="48.1124" lon="7.14388">
        <ele>586</ele>
        <time>2022-04-06T10:53:13Z</time>
      </trkpt>
      <trkpt lat="48.11135" lon="7.14393">
        <ele>588</ele>
        <time>2022-04-06T10:53:32Z</time>
      </trkpt>
      <trkpt lat="48.11115" lon="7.14394">
        <ele>587</ele>
        <time>2022-04-06T10:53:35Z</time>
      </trkpt>
      <trkpt lat="48.11091" lon="7.144">
        <ele>586</ele>
        <time>2022-04-06T10:53:40Z</time>
      </trkpt>
      <trkpt lat="48.11067" lon="7.14413">
        <ele>585</ele>
        <time>2022-04-06T10:53:44Z</time>
      </trkpt>
      <trkpt lat="48.11055" lon="7.14416">
        <ele>585</ele>
        <time>2022-04-06T10:53:46Z</time>
      </trkpt>
      <trkpt lat="48.11048" lon="7.14419">
        <ele>585</ele>
        <time>2022-04-06T10:53:48Z</time>
      </trkpt>
      <trkpt lat="48.11025" lon="7.1442">
        <ele>587</ele>
        <time>2022-04-06T10:53:52Z</time>
      </trkpt>
      <trkpt lat="48.11" lon="7.14417">
        <ele>589</ele>
        <time>2022-04-06T10:53:56Z</time>
      </trkpt>
      <trkpt lat="48.10926" lon="7.14391">
        <ele>596</ele>
        <time>2022-04-06T10:54:10Z</time>
      </trkpt>
      <trkpt lat="48.109" lon="7.14378">
        <ele>598</ele>
        <time>2022-04-06T10:54:15Z</time>
      </trkpt>
      <trkpt lat="48.1083" lon="7.1433">
        <ele>603</ele>
        <time>2022-04-06T10:54:28Z</time>
      </trkpt>
      <trkpt lat="48.10756" lon="7.14266">
        <ele>607</ele>
        <time>2022-04-06T10:54:44Z</time>
      </trkpt>
      <trkpt lat="48.10715" lon="7.14234">
        <ele>609</ele>
        <time>2022-04-06T10:54:52Z</time>
      </trkpt>
      <trkpt lat="48.10697" lon="7.14209">
        <ele>611</ele>
        <time>2022-04-06T10:54:56Z</time>
      </trkpt>
      <trkpt lat="48.10633" lon="7.14085">
        <ele>618</ele>
        <time>2022-04-06T10:55:15Z</time>
      </trkpt>
      <trkpt lat="48.1062" lon="7.14068">
        <ele>618</ele>
        <time>2022-04-06T10:55:18Z</time>
      </trkpt>
      <trkpt lat="48.10604" lon="7.14051">
        <ele>618</ele>
        <time>2022-04-06T10:55:21Z</time>
      </trkpt>
      <trkpt lat="48.10581" lon="7.14027">
        <ele>617</ele>
        <time>2022-04-06T10:55:26Z</time>
      </trkpt>
      <trkpt lat="48.10509" lon="7.13951">
        <ele>624</ele>
        <time>2022-04-06T10:55:42Z</time>
      </trkpt>
      <trkpt lat="48.10488" lon="7.13931">
        <ele>625</ele>
        <time>2022-04-06T10:55:46Z</time>
      </trkpt>
      <trkpt lat="48.10468" lon="7.13913">
        <ele>627</ele>
        <time>2022-04-06T10:55:51Z</time>
      </trkpt>
      <trkpt lat="48.10417" lon="7.13885">
        <ele>634</ele>
        <time>2022-04-06T10:56:00Z</time>
      </trkpt>
      <trkpt lat="48.10407" lon="7.13874">
        <ele>637</ele>
        <time>2022-04-06T10:56:02Z</time>
      </trkpt>
      <trkpt lat="48.10368" lon="7.13808">
        <ele>651</ele>
        <time>2022-04-06T10:56:13Z</time>
      </trkpt>
      <trkpt lat="48.10359" lon="7.13797">
        <ele>653</ele>
        <time>2022-04-06T10:56:15Z</time>
      </trkpt>
      <trkpt lat="48.10294" lon="7.13725">
        <ele>661</ele>
        <time>2022-04-06T10:56:29Z</time>
      </trkpt>
      <trkpt lat="48.1028" lon="7.13705">
        <ele>661</ele>
        <time>2022-04-06T10:56:33Z</time>
      </trkpt>
      <trkpt lat="48.10265" lon="7.1368">
        <ele>658</ele>
        <time>2022-04-06T10:56:37Z</time>
      </trkpt>
      <trkpt lat="48.10236" lon="7.13603">
        <ele>657</ele>
        <time>2022-04-06T10:56:47Z</time>
      </trkpt>
      <trkpt lat="48.10225" lon="7.1359">
        <ele>656</ele>
        <time>2022-04-06T10:56:50Z</time>
      </trkpt>
      <trkpt lat="48.10202" lon="7.13577">
        <ele>655</ele>
        <time>2022-04-06T10:56:54Z</time>
      </trkpt>
      <trkpt lat="48.10174" lon="7.13569">
        <ele>654</ele>
        <time>2022-04-06T10:56:59Z</time>
      </trkpt>
      <trkpt lat="48.1009" lon="7.13561">
        <ele>659</ele>
        <time>2022-04-06T10:57:14Z</time>
      </trkpt>
      <trkpt lat="48.10054" lon="7.13562">
        <ele>662</ele>
        <time>2022-04-06T10:57:21Z</time>
      </trkpt>
      <trkpt lat="48.10014" lon="7.13567">
        <ele>664</ele>
        <time>2022-04-06T10:57:28Z</time>
      </trkpt>
      <trkpt lat="48.09973" lon="7.13574">
        <ele>670</ele>
        <time>2022-04-06T10:57:35Z</time>
      </trkpt>
      <trkpt lat="48.09932" lon="7.13589">
        <ele>676</ele>
        <time>2022-04-06T10:57:43Z</time>
      </trkpt>
      <trkpt lat="48.09922" lon="7.13597">
        <ele>678</ele>
        <time>2022-04-06T10:57:45Z</time>
      </trkpt>
      <trkpt lat="48.09878" lon="7.13651">
        <ele>682</ele>
        <time>2022-04-06T10:57:55Z</time>
      </trkpt>
      <trkpt lat="48.09857" lon="7.13674">
        <ele>682</ele>
        <time>2022-04-06T10:57:59Z</time>
      </trkpt>
      <trkpt lat="48.09843" lon="7.13685">
        <ele>683</ele>
        <time>2022-04-06T10:58:02Z</time>
      </trkpt>
      <trkpt lat="48.09829" lon="7.13694">
        <ele>683</ele>
        <time>2022-04-06T10:58:05Z</time>
      </trkpt>
      <trkpt lat="48.09816" lon="7.137">
        <ele>683</ele>
        <time>2022-04-06T10:58:07Z</time>
      </trkpt>
      <trkpt lat="48.09802" lon="7.13701">
        <ele>682</ele>
        <time>2022-04-06T10:58:10Z</time>
      </trkpt>
      <trkpt lat="48.09774" lon="7.13698">
        <ele>683</ele>
        <time>2022-04-06T10:58:15Z</time>
      </trkpt>
      <trkpt lat="48.09769" lon="7.137">
        <ele>682</ele>
        <time>2022-04-06T10:58:16Z</time>
      </trkpt>
      <trkpt lat="48.09755" lon="7.13705">
        <ele>682</ele>
        <time>2022-04-06T10:58:18Z</time>
      </trkpt>
      <trkpt lat="48.09747" lon="7.13707">
        <ele>682</ele>
        <time>2022-04-06T10:58:20Z</time>
      </trkpt>
      <trkpt lat="48.09715" lon="7.13717">
        <ele>683</ele>
        <time>2022-04-06T10:58:26Z</time>
      </trkpt>
      <trkpt lat="48.09703" lon="7.1372">
        <ele>683</ele>
        <time>2022-04-06T10:58:28Z</time>
      </trkpt>
      <trkpt lat="48.09698" lon="7.13721">
        <ele>684</ele>
        <time>2022-04-06T10:58:29Z</time>
      </trkpt>
      <trkpt lat="48.09696" lon="7.13721">
        <ele>684</ele>
        <time>2022-04-06T10:58:29Z</time>
      </trkpt>
      <trkpt lat="48.09691" lon="7.13718">
        <ele>684</ele>
        <time>2022-04-06T10:58:30Z</time>
      </trkpt>
      <trkpt lat="48.09689" lon="7.13715">
        <ele>684</ele>
        <time>2022-04-06T10:58:30Z</time>
      </trkpt>
      <trkpt lat="48.09687" lon="7.13711">
        <ele>685</ele>
        <time>2022-04-06T10:58:31Z</time>
      </trkpt>
      <trkpt lat="48.09682" lon="7.13695">
        <ele>685</ele>
        <time>2022-04-06T10:58:33Z</time>
      </trkpt>
      <trkpt lat="48.0968" lon="7.13689">
        <ele>686</ele>
        <time>2022-04-06T10:58:34Z</time>
      </trkpt>
      <trkpt lat="48.09676" lon="7.13668">
        <ele>687</ele>
        <time>2022-04-06T10:58:37Z</time>
      </trkpt>
      <trkpt lat="48.09637" lon="7.13469">
        <ele>703</ele>
        <time>2022-04-06T10:59:01Z</time>
      </trkpt>
      <trkpt lat="48.09627" lon="7.1339">
        <ele>708</ele>
        <time>2022-04-06T10:59:11Z</time>
      </trkpt>
      <trkpt lat="48.09626" lon="7.13362">
        <ele>709</ele>
        <time>2022-04-06T10:59:14Z</time>
      </trkpt>
      <trkpt lat="48.09629" lon="7.13354">
        <ele>709</ele>
        <time>2022-04-06T10:59:15Z</time>
      </trkpt>
      <trkpt lat="48.09632" lon="7.13347">
        <ele>709</ele>
        <time>2022-04-06T10:59:16Z</time>
      </trkpt>
      <trkpt lat="48.09639" lon="7.13341">
        <ele>710</ele>
        <time>2022-04-06T10:59:18Z</time>
      </trkpt>
      <trkpt lat="48.09651" lon="7.13341">
        <ele>709</ele>
        <time>2022-04-06T10:59:20Z</time>
      </trkpt>
      <trkpt lat="48.0966" lon="7.13349">
        <ele>708</ele>
        <time>2022-04-06T10:59:22Z</time>
      </trkpt>
      <trkpt lat="48.09667" lon="7.13364">
        <ele>707</ele>
        <time>2022-04-06T10:59:24Z</time>
      </trkpt>
      <trkpt lat="48.09692" lon="7.13431">
        <ele>706</ele>
        <time>2022-04-06T10:59:33Z</time>
      </trkpt>
      <trkpt lat="48.09715" lon="7.13504">
        <ele>705</ele>
        <time>2022-04-06T10:59:42Z</time>
      </trkpt>
      <trkpt lat="48.09726" lon="7.13533">
        <ele>704</ele>
        <time>2022-04-06T10:59:46Z</time>
      </trkpt>
      <trkpt lat="48.09731" lon="7.13542">
        <ele>704</ele>
        <time>2022-04-06T10:59:48Z</time>
      </trkpt>
      <trkpt lat="48.09746" lon="7.13558">
        <ele>705</ele>
        <time>2022-04-06T10:59:51Z</time>
      </trkpt>
      <trkpt lat="48.098" lon="7.13586">
        <ele>707</ele>
        <time>2022-04-06T11:00:01Z</time>
      </trkpt>
      <trkpt lat="48.09806" lon="7.13587">
        <ele>707</ele>
        <time>2022-04-06T11:00:02Z</time>
      </trkpt>
      <trkpt lat="48.09814" lon="7.13585">
        <ele>708</ele>
        <time>2022-04-06T11:00:04Z</time>
      </trkpt>
      <trkpt lat="48.09823" lon="7.13573">
        <ele>711</ele>
        <time>2022-04-06T11:00:06Z</time>
      </trkpt>
      <trkpt lat="48.09827" lon="7.13566">
        <ele>712</ele>
        <time>2022-04-06T11:00:07Z</time>
      </trkpt>
      <trkpt lat="48.09848" lon="7.13477">
        <ele>719</ele>
        <time>2022-04-06T11:00:18Z</time>
      </trkpt>
      <trkpt lat="48.09855" lon="7.13458">
        <ele>720</ele>
        <time>2022-04-06T11:00:21Z</time>
      </trkpt>
      <trkpt lat="48.09865" lon="7.13441">
        <ele>720</ele>
        <time>2022-04-06T11:00:24Z</time>
      </trkpt>
      <trkpt lat="48.09873" lon="7.1343">
        <ele>721</ele>
        <time>2022-04-06T11:00:25Z</time>
      </trkpt>
      <trkpt lat="48.09883" lon="7.1342">
        <ele>722</ele>
        <time>2022-04-06T11:00:28Z</time>
      </trkpt>
      <trkpt lat="48.099" lon="7.13412">
        <ele>722</ele>
        <time>2022-04-06T11:00:31Z</time>
      </trkpt>
      <trkpt lat="48.09966" lon="7.13388">
        <ele>724</ele>
        <time>2022-04-06T11:00:43Z</time>
      </trkpt>
      <trkpt lat="48.09995" lon="7.13373">
        <ele>726</ele>
        <time>2022-04-06T11:00:48Z</time>
      </trkpt>
      <trkpt lat="48.10004" lon="7.13366">
        <ele>727</ele>
        <time>2022-04-06T11:00:50Z</time>
      </trkpt>
      <trkpt lat="48.1005" lon="7.1331">
        <ele>728</ele>
        <time>2022-04-06T11:01:01Z</time>
      </trkpt>
      <trkpt lat="48.10067" lon="7.13292">
        <ele>728</ele>
        <time>2022-04-06T11:01:04Z</time>
      </trkpt>
      <trkpt lat="48.10128" lon="7.13234">
        <ele>735</ele>
        <time>2022-04-06T11:01:17Z</time>
      </trkpt>
      <trkpt lat="48.10136" lon="7.13228">
        <ele>736</ele>
        <time>2022-04-06T11:01:19Z</time>
      </trkpt>
      <trkpt lat="48.1014" lon="7.13225">
        <ele>736</ele>
        <time>2022-04-06T11:01:20Z</time>
      </trkpt>
      <trkpt lat="48.10152" lon="7.13221">
        <ele>736</ele>
        <time>2022-04-06T11:01:22Z</time>
      </trkpt>
      <trkpt lat="48.102" lon="7.13215">
        <ele>735</ele>
        <time>2022-04-06T11:01:30Z</time>
      </trkpt>
      <trkpt lat="48.10212" lon="7.13212">
        <ele>736</ele>
        <time>2022-04-06T11:01:33Z</time>
      </trkpt>
      <trkpt lat="48.10234" lon="7.13197">
        <ele>739</ele>
        <time>2022-04-06T11:01:37Z</time>
      </trkpt>
      <trkpt lat="48.10253" lon="7.13175">
        <ele>743</ele>
        <time>2022-04-06T11:01:41Z</time>
      </trkpt>
      <trkpt lat="48.10256" lon="7.13172">
        <ele>744</ele>
        <time>2022-04-06T11:01:42Z</time>
      </trkpt>
      <trkpt lat="48.10288" lon="7.13138">
        <ele>747</ele>
        <time>2022-04-06T11:01:49Z</time>
      </trkpt>
      <trkpt lat="48.10308" lon="7.13115">
        <ele>748</ele>
        <time>2022-04-06T11:01:53Z</time>
      </trkpt>
      <trkpt lat="48.10311" lon="7.13112">
        <ele>748</ele>
        <time>2022-04-06T11:01:54Z</time>
      </trkpt>
      <trkpt lat="48.10329" lon="7.13089">
        <ele>749</ele>
        <time>2022-04-06T11:01:58Z</time>
      </trkpt>
      <trkpt lat="48.10347" lon="7.13063">
        <ele>749</ele>
        <time>2022-04-06T11:02:03Z</time>
      </trkpt>
      <trkpt lat="48.10348" lon="7.13062">
        <ele>749</ele>
        <time>2022-04-06T11:02:03Z</time>
      </trkpt>
      <trkpt lat="48.10365" lon="7.13027">
        <ele>750</ele>
        <time>2022-04-06T11:02:08Z</time>
      </trkpt>
      <trkpt lat="48.10381" lon="7.12988">
        <ele>751</ele>
        <time>2022-04-06T11:02:13Z</time>
      </trkpt>
      <trkpt lat="48.10408" lon="7.12909">
        <ele>756</ele>
        <time>2022-04-06T11:02:24Z</time>
      </trkpt>
      <trkpt lat="48.10412" lon="7.12894">
        <ele>756</ele>
        <time>2022-04-06T11:02:26Z</time>
      </trkpt>
      <trkpt lat="48.10418" lon="7.12871">
        <ele>756</ele>
        <time>2022-04-06T11:02:29Z</time>
      </trkpt>
      <trkpt lat="48.10428" lon="7.12839">
        <ele>757</ele>
        <time>2022-04-06T11:02:33Z</time>
      </trkpt>
      <trkpt lat="48.10436" lon="7.12823">
        <ele>759</ele>
        <time>2022-04-06T11:02:35Z</time>
      </trkpt>
      <trkpt lat="48.10445" lon="7.1281">
        <ele>760</ele>
        <time>2022-04-06T11:02:37Z</time>
      </trkpt>
      <trkpt lat="48.10466" lon="7.12791">
        <ele>763</ele>
        <time>2022-04-06T11:02:42Z</time>
      </trkpt>
      <trkpt lat="48.10599" lon="7.12698">
        <ele>773</ele>
        <time>2022-04-06T11:03:08Z</time>
      </trkpt>
      <trkpt lat="48.10615" lon="7.12678">
        <ele>774</ele>
        <time>2022-04-06T11:03:12Z</time>
      </trkpt>
      <trkpt lat="48.10633" lon="7.12643">
        <ele>776</ele>
        <time>2022-04-06T11:03:17Z</time>
      </trkpt>
      <trkpt lat="48.1064" lon="7.12626">
        <ele>777</ele>
        <time>2022-04-06T11:03:19Z</time>
      </trkpt>
      <trkpt lat="48.10645" lon="7.12606">
        <ele>777</ele>
        <time>2022-04-06T11:03:22Z</time>
      </trkpt>
      <trkpt lat="48.10645" lon="7.12577">
        <ele>778</ele>
        <time>2022-04-06T11:03:25Z</time>
      </trkpt>
      <trkpt lat="48.10643" lon="7.12548">
        <ele>779</ele>
        <time>2022-04-06T11:03:29Z</time>
      </trkpt>
      <trkpt lat="48.10626" lon="7.12462">
        <ele>780</ele>
        <time>2022-04-06T11:03:39Z</time>
      </trkpt>
      <trkpt lat="48.10622" lon="7.12442">
        <ele>779</ele>
        <time>2022-04-06T11:03:42Z</time>
      </trkpt>
      <trkpt lat="48.10604" lon="7.1236">
        <ele>779</ele>
        <time>2022-04-06T11:03:52Z</time>
      </trkpt>
      <trkpt lat="48.10594" lon="7.12306">
        <ele>781</ele>
        <time>2022-04-06T11:03:59Z</time>
      </trkpt>
      <trkpt lat="48.10587" lon="7.12281">
        <ele>781</ele>
        <time>2022-04-06T11:04:02Z</time>
      </trkpt>
      <trkpt lat="48.10581" lon="7.12268">
        <ele>781</ele>
        <time>2022-04-06T11:04:04Z</time>
      </trkpt>
      <trkpt lat="48.10576" lon="7.1226">
        <ele>782</ele>
        <time>2022-04-06T11:04:05Z</time>
      </trkpt>
      <trkpt lat="48.1057" lon="7.12266">
        <ele>782</ele>
        <time>2022-04-06T11:04:06Z</time>
      </trkpt>
      <trkpt lat="48.10488" lon="7.12339">
        <ele>782</ele>
        <time>2022-04-06T11:04:23Z</time>
      </trkpt>
      <trkpt lat="48.10443" lon="7.12375">
        <ele>786</ele>
        <time>2022-04-06T11:04:33Z</time>
      </trkpt>
      <trkpt lat="48.10425" lon="7.12381">
        <ele>788</ele>
        <time>2022-04-06T11:04:36Z</time>
      </trkpt>
      <trkpt lat="48.10366" lon="7.12392">
        <ele>791</ele>
        <time>2022-04-06T11:04:46Z</time>
      </trkpt>
      <trkpt lat="48.10344" lon="7.12403">
        <ele>791</ele>
        <time>2022-04-06T11:04:51Z</time>
      </trkpt>
      <trkpt lat="48.103" lon="7.12447">
        <ele>791</ele>
        <time>2022-04-06T11:05:00Z</time>
      </trkpt>
      <trkpt lat="48.10281" lon="7.1247">
        <ele>793</ele>
        <time>2022-04-06T11:05:04Z</time>
      </trkpt>
      <trkpt lat="48.10258" lon="7.12498">
        <ele>795</ele>
        <time>2022-04-06T11:05:10Z</time>
      </trkpt>
      <trkpt lat="48.10246" lon="7.12517">
        <ele>797</ele>
        <time>2022-04-06T11:05:13Z</time>
      </trkpt>
      <trkpt lat="48.10231" lon="7.12552">
        <ele>802</ele>
        <time>2022-04-06T11:05:18Z</time>
      </trkpt>
      <trkpt lat="48.10211" lon="7.12602">
        <ele>807</ele>
        <time>2022-04-06T11:05:25Z</time>
      </trkpt>
      <trkpt lat="48.10195" lon="7.12676">
        <ele>809</ele>
        <time>2022-04-06T11:05:34Z</time>
      </trkpt>
      <trkpt lat="48.10175" lon="7.12758">
        <ele>811</ele>
        <time>2022-04-06T11:05:44Z</time>
      </trkpt>
      <trkpt lat="48.10134" lon="7.12887">
        <ele>815</ele>
        <time>2022-04-06T11:06:01Z</time>
      </trkpt>
      <trkpt lat="48.10122" lon="7.12908">
        <ele>815</ele>
        <time>2022-04-06T11:06:04Z</time>
      </trkpt>
      <trkpt lat="48.10113" lon="7.12917">
        <ele>816</ele>
        <time>2022-04-06T11:06:06Z</time>
      </trkpt>
      <trkpt lat="48.10103" lon="7.12925">
        <ele>816</ele>
        <time>2022-04-06T11:06:08Z</time>
      </trkpt>
      <trkpt lat="48.10074" lon="7.12939">
        <ele>817</ele>
        <time>2022-04-06T11:06:14Z</time>
      </trkpt>
      <trkpt lat="48.10035" lon="7.12944">
        <ele>821</ele>
        <time>2022-04-06T11:06:21Z</time>
      </trkpt>
      <trkpt lat="48.10025" lon="7.1295">
        <ele>820</ele>
        <time>2022-04-06T11:06:23Z</time>
      </trkpt>
      <trkpt lat="48.10008" lon="7.12965">
        <ele>818</ele>
        <time>2022-04-06T11:06:26Z</time>
      </trkpt>
      <trkpt lat="48.09992" lon="7.12972">
        <ele>817</ele>
        <time>2022-04-06T11:06:29Z</time>
      </trkpt>
      <trkpt lat="48.09982" lon="7.12973">
        <ele>817</ele>
        <time>2022-04-06T11:06:31Z</time>
      </trkpt>
      <trkpt lat="48.09939" lon="7.12962">
        <ele>818</ele>
        <time>2022-04-06T11:06:39Z</time>
      </trkpt>
      <trkpt lat="48.09923" lon="7.12954">
        <ele>820</ele>
        <time>2022-04-06T11:06:42Z</time>
      </trkpt>
      <trkpt lat="48.09903" lon="7.12937">
        <ele>820</ele>
        <time>2022-04-06T11:06:46Z</time>
      </trkpt>
      <trkpt lat="48.09888" lon="7.12915">
        <ele>821</ele>
        <time>2022-04-06T11:06:50Z</time>
      </trkpt>
      <trkpt lat="48.09844" lon="7.12813">
        <ele>826</ele>
        <time>2022-04-06T11:07:04Z</time>
      </trkpt>
      <trkpt lat="48.09813" lon="7.12707">
        <ele>831</ele>
        <time>2022-04-06T11:07:18Z</time>
      </trkpt>
      <trkpt lat="48.09781" lon="7.12645">
        <ele>832</ele>
        <time>2022-04-06T11:07:27Z</time>
      </trkpt>
      <trkpt lat="48.09706" lon="7.12463">
        <ele>838</ele>
        <time>2022-04-06T11:07:52Z</time>
      </trkpt>
      <trkpt lat="48.09673" lon="7.12398">
        <ele>837</ele>
        <time>2022-04-06T11:08:02Z</time>
      </trkpt>
      <trkpt lat="48.09663" lon="7.1237">
        <ele>837</ele>
        <time>2022-04-06T11:08:06Z</time>
      </trkpt>
      <trkpt lat="48.09639" lon="7.12281">
        <ele>836</ele>
        <time>2022-04-06T11:08:17Z</time>
      </trkpt>
      <trkpt lat="48.0963" lon="7.12242">
        <ele>836</ele>
        <time>2022-04-06T11:08:22Z</time>
      </trkpt>
      <trkpt lat="48.0955" lon="7.11851">
        <ele>848</ele>
        <time>2022-04-06T11:09:11Z</time>
      </trkpt>
      <trkpt lat="48.09544" lon="7.11831">
        <ele>850</ele>
        <time>2022-04-06T11:09:13Z</time>
      </trkpt>
      <trkpt lat="48.09535" lon="7.11817">
        <ele>851</ele>
        <time>2022-04-06T11:09:16Z</time>
      </trkpt>
      <trkpt lat="48.09524" lon="7.11809">
        <ele>853</ele>
        <time>2022-04-06T11:09:18Z</time>
      </trkpt>
      <trkpt lat="48.09514" lon="7.11806">
        <ele>854</ele>
        <time>2022-04-06T11:09:20Z</time>
      </trkpt>
      <trkpt lat="48.09506" lon="7.11809">
        <ele>854</ele>
        <time>2022-04-06T11:09:21Z</time>
      </trkpt>
      <trkpt lat="48.09491" lon="7.11818">
        <ele>856</ele>
        <time>2022-04-06T11:09:24Z</time>
      </trkpt>
      <trkpt lat="48.09456" lon="7.11852">
        <ele>862</ele>
        <time>2022-04-06T11:09:31Z</time>
      </trkpt>
      <trkpt lat="48.09445" lon="7.11867">
        <ele>864</ele>
        <time>2022-04-06T11:09:34Z</time>
      </trkpt>
      <trkpt lat="48.09438" lon="7.11881">
        <ele>864</ele>
        <time>2022-04-06T11:09:36Z</time>
      </trkpt>
      <trkpt lat="48.0941" lon="7.11951">
        <ele>864</ele>
        <time>2022-04-06T11:09:46Z</time>
      </trkpt>
      <trkpt lat="48.09403" lon="7.11975">
        <ele>864</ele>
        <time>2022-04-06T11:09:49Z</time>
      </trkpt>
      <trkpt lat="48.09398" lon="7.12005">
        <ele>862</ele>
        <time>2022-04-06T11:09:53Z</time>
      </trkpt>
      <trkpt lat="48.09394" lon="7.12051">
        <ele>859</ele>
        <time>2022-04-06T11:09:58Z</time>
      </trkpt>
      <trkpt lat="48.0939" lon="7.12073">
        <ele>859</ele>
        <time>2022-04-06T11:10:01Z</time>
      </trkpt>
      <trkpt lat="48.09385" lon="7.12094">
        <ele>859</ele>
        <time>2022-04-06T11:10:04Z</time>
      </trkpt>
      <trkpt lat="48.0937" lon="7.12138">
        <ele>862</ele>
        <time>2022-04-06T11:10:09Z</time>
      </trkpt>
      <trkpt lat="48.09343" lon="7.1221">
        <ele>864</ele>
        <time>2022-04-06T11:10:19Z</time>
      </trkpt>
      <trkpt lat="48.09328" lon="7.12236">
        <ele>864</ele>
        <time>2022-04-06T11:10:23Z</time>
      </trkpt>
      <trkpt lat="48.09317" lon="7.12252">
        <ele>864</ele>
        <time>2022-04-06T11:10:26Z</time>
      </trkpt>
      <trkpt lat="48.09294" lon="7.12274">
        <ele>863</ele>
        <time>2022-04-06T11:10:31Z</time>
      </trkpt>
      <trkpt lat="48.09244" lon="7.123">
        <ele>865</ele>
        <time>2022-04-06T11:10:40Z</time>
      </trkpt>
      <trkpt lat="48.0923" lon="7.12301">
        <ele>863</ele>
        <time>2022-04-06T11:10:43Z</time>
      </trkpt>
      <trkpt lat="48.09216" lon="7.12295">
        <ele>862</ele>
        <time>2022-04-06T11:10:45Z</time>
      </trkpt>
      <trkpt lat="48.092" lon="7.12276">
        <ele>863</ele>
        <time>2022-04-06T11:10:49Z</time>
      </trkpt>
      <trkpt lat="48.09187" lon="7.12248">
        <ele>865</ele>
        <time>2022-04-06T11:10:53Z</time>
      </trkpt>
      <trkpt lat="48.09176" lon="7.12213">
        <ele>866</ele>
        <time>2022-04-06T11:10:58Z</time>
      </trkpt>
      <trkpt lat="48.09163" lon="7.12144">
        <ele>869</ele>
        <time>2022-04-06T11:11:06Z</time>
      </trkpt>
      <trkpt lat="48.09146" lon="7.12024">
        <ele>872</ele>
        <time>2022-04-06T11:11:21Z</time>
      </trkpt>
      <trkpt lat="48.09127" lon="7.11866">
        <ele>887</ele>
        <time>2022-04-06T11:11:40Z</time>
      </trkpt>
      <trkpt lat="48.09124" lon="7.1185">
        <ele>890</ele>
        <time>2022-04-06T11:11:42Z</time>
      </trkpt>
      <trkpt lat="48.09119" lon="7.11842">
        <ele>890</ele>
        <time>2022-04-06T11:11:43Z</time>
      </trkpt>
      <trkpt lat="48.09108" lon="7.11837">
        <ele>890</ele>
        <time>2022-04-06T11:11:45Z</time>
      </trkpt>
      <trkpt lat="48.09058" lon="7.11835">
        <ele>887</ele>
        <time>2022-04-06T11:11:54Z</time>
      </trkpt>
      <trkpt lat="48.09029" lon="7.11828">
        <ele>886</ele>
        <time>2022-04-06T11:11:59Z</time>
      </trkpt>
      <trkpt lat="48.09007" lon="7.11821">
        <ele>886</ele>
        <time>2022-04-06T11:12:03Z</time>
      </trkpt>
      <trkpt lat="48.0899" lon="7.11811">
        <ele>888</ele>
        <time>2022-04-06T11:12:07Z</time>
      </trkpt>
      <trkpt lat="48.08971" lon="7.11799">
        <ele>889</ele>
        <time>2022-04-06T11:12:10Z</time>
      </trkpt>
      <trkpt lat="48.08928" lon="7.11771">
        <ele>890</ele>
        <time>2022-04-06T11:12:19Z</time>
      </trkpt>
      <trkpt lat="48.08872" lon="7.11735">
        <ele>889</ele>
        <time>2022-04-06T11:12:29Z</time>
      </trkpt>
      <trkpt lat="48.08854" lon="7.11723">
        <ele>888</ele>
        <time>2022-04-06T11:12:33Z</time>
      </trkpt>
      <trkpt lat="48.08844" lon="7.11717">
        <ele>888</ele>
        <time>2022-04-06T11:12:35Z</time>
      </trkpt>
      <trkpt lat="48.0883" lon="7.11706">
        <ele>888</ele>
        <time>2022-04-06T11:12:38Z</time>
      </trkpt>
      <trkpt lat="48.08819" lon="7.11695">
        <ele>889</ele>
        <time>2022-04-06T11:12:40Z</time>
      </trkpt>
      <trkpt lat="48.08807" lon="7.1167">
        <ele>890</ele>
        <time>2022-04-06T11:12:44Z</time>
      </trkpt>
      <trkpt lat="48.08791" lon="7.11619">
        <ele>889</ele>
        <time>2022-04-06T11:12:50Z</time>
      </trkpt>
      <trkpt lat="48.08771" lon="7.11633">
        <ele>888</ele>
        <time>2022-04-06T11:12:54Z</time>
      </trkpt>
      <trkpt lat="48.08749" lon="7.11655">
        <ele>888</ele>
        <time>2022-04-06T11:12:59Z</time>
      </trkpt>
      <trkpt lat="48.08724" lon="7.11683">
        <ele>893</ele>
        <time>2022-04-06T11:13:05Z</time>
      </trkpt>
      <trkpt lat="48.08712" lon="7.11699">
        <ele>894</ele>
        <time>2022-04-06T11:13:07Z</time>
      </trkpt>
      <trkpt lat="48.08699" lon="7.11722">
        <ele>896</ele>
        <time>2022-04-06T11:13:11Z</time>
      </trkpt>
      <trkpt lat="48.08697" lon="7.11725">
        <ele>896</ele>
        <time>2022-04-06T11:13:12Z</time>
      </trkpt>
      <trkpt lat="48.08634" lon="7.11856">
        <ele>906</ele>
        <time>2022-04-06T11:13:31Z</time>
      </trkpt>
      <trkpt lat="48.08627" lon="7.11877">
        <ele>907</ele>
        <time>2022-04-06T11:13:33Z</time>
      </trkpt>
      <trkpt lat="48.08622" lon="7.11901">
        <ele>907</ele>
        <time>2022-04-06T11:13:36Z</time>
      </trkpt>
      <trkpt lat="48.08621" lon="7.11919">
        <ele>908</ele>
        <time>2022-04-06T11:13:39Z</time>
      </trkpt>
      <trkpt lat="48.08634" lon="7.12045">
        <ele>909</ele>
        <time>2022-04-06T11:13:54Z</time>
      </trkpt>
      <trkpt lat="48.08629" lon="7.1211">
        <ele>912</ele>
        <time>2022-04-06T11:14:02Z</time>
      </trkpt>
      <trkpt lat="48.08632" lon="7.122">
        <ele>914</ele>
        <time>2022-04-06T11:14:12Z</time>
      </trkpt>
      <trkpt lat="48.08627" lon="7.12279">
        <ele>916</ele>
        <time>2022-04-06T11:14:22Z</time>
      </trkpt>
      <trkpt lat="48.08616" lon="7.12337">
        <ele>920</ele>
        <time>2022-04-06T11:14:29Z</time>
      </trkpt>
      <trkpt lat="48.08609" lon="7.12408">
        <ele>922</ele>
        <time>2022-04-06T11:14:37Z</time>
      </trkpt>
      <trkpt lat="48.08594" lon="7.12456">
        <ele>925</ele>
        <time>2022-04-06T11:14:44Z</time>
      </trkpt>
      <trkpt lat="48.08585" lon="7.1248">
        <ele>926</ele>
        <time>2022-04-06T11:14:47Z</time>
      </trkpt>
      <trkpt lat="48.08576" lon="7.12498">
        <ele>927</ele>
        <time>2022-04-06T11:14:50Z</time>
      </trkpt>
      <trkpt lat="48.08556" lon="7.12524">
        <ele>928</ele>
        <time>2022-04-06T11:14:54Z</time>
      </trkpt>
      <trkpt lat="48.08531" lon="7.12544">
        <ele>929</ele>
        <time>2022-04-06T11:14:59Z</time>
      </trkpt>
      <trkpt lat="48.08424" lon="7.12593">
        <ele>933</ele>
        <time>2022-04-06T11:15:19Z</time>
      </trkpt>
      <trkpt lat="48.0836" lon="7.12608">
        <ele>934</ele>
        <time>2022-04-06T11:15:31Z</time>
      </trkpt>
      <trkpt lat="48.0835" lon="7.12608">
        <ele>934</ele>
        <time>2022-04-06T11:15:33Z</time>
      </trkpt>
      <trkpt lat="48.08341" lon="7.12605">
        <ele>935</ele>
        <time>2022-04-06T11:15:34Z</time>
      </trkpt>
      <trkpt lat="48.08324" lon="7.12596">
        <ele>935</ele>
        <time>2022-04-06T11:15:37Z</time>
      </trkpt>
      <trkpt lat="48.08288" lon="7.12568">
        <ele>937</ele>
        <time>2022-04-06T11:15:45Z</time>
      </trkpt>
      <trkpt lat="48.08281" lon="7.12565">
        <ele>937</ele>
        <time>2022-04-06T11:15:46Z</time>
      </trkpt>
      <trkpt lat="48.08266" lon="7.12562">
        <ele>937</ele>
        <time>2022-04-06T11:15:49Z</time>
      </trkpt>
      <trkpt lat="48.08245" lon="7.12567">
        <ele>935</ele>
        <time>2022-04-06T11:15:52Z</time>
      </trkpt>
      <trkpt lat="48.08206" lon="7.12598">
        <ele>930</ele>
        <time>2022-04-06T11:16:00Z</time>
      </trkpt>
      <trkpt lat="48.08191" lon="7.12603">
        <ele>929</ele>
        <time>2022-04-06T11:16:03Z</time>
      </trkpt>
      <trkpt lat="48.0818" lon="7.12602">
        <ele>929</ele>
        <time>2022-04-06T11:16:05Z</time>
      </trkpt>
      <trkpt lat="48.08129" lon="7.12594">
        <ele>931</ele>
        <time>2022-04-06T11:16:14Z</time>
      </trkpt>
      <trkpt lat="48.08109" lon="7.12592">
        <ele>932</ele>
        <time>2022-04-06T11:16:18Z</time>
      </trkpt>
      <trkpt lat="48.08079" lon="7.1259">
        <ele>933</ele>
        <time>2022-04-06T11:16:23Z</time>
      </trkpt>
      <trkpt lat="48.08071" lon="7.12592">
        <ele>934</ele>
        <time>2022-04-06T11:16:24Z</time>
      </trkpt>
      <trkpt lat="48.08064" lon="7.12596">
        <ele>934</ele>
        <time>2022-04-06T11:16:26Z</time>
      </trkpt>
      <trkpt lat="48.08061" lon="7.12599">
        <ele>934</ele>
        <time>2022-04-06T11:16:26Z</time>
      </trkpt>
      <trkpt lat="48.08059" lon="7.12603">
        <ele>934</ele>
        <time>2022-04-06T11:16:27Z</time>
      </trkpt>
      <trkpt lat="48.08053" lon="7.1262">
        <ele>935</ele>
        <time>2022-04-06T11:16:29Z</time>
      </trkpt>
      <trkpt lat="48.08051" lon="7.12637">
        <ele>936</ele>
        <time>2022-04-06T11:16:31Z</time>
      </trkpt>
      <trkpt lat="48.0806" lon="7.1272">
        <ele>937</ele>
        <time>2022-04-06T11:16:41Z</time>
      </trkpt>
      <trkpt lat="48.08059" lon="7.12755">
        <ele>939</ele>
        <time>2022-04-06T11:16:46Z</time>
      </trkpt>
      <trkpt lat="48.08053" lon="7.12811">
        <ele>940</ele>
        <time>2022-04-06T11:16:52Z</time>
      </trkpt>
      <trkpt lat="48.08049" lon="7.12832">
        <ele>941</ele>
        <time>2022-04-06T11:16:55Z</time>
      </trkpt>
      <trkpt lat="48.08045" lon="7.12849">
        <ele>941</ele>
        <time>2022-04-06T11:16:57Z</time>
      </trkpt>
      <trkpt lat="48.08039" lon="7.12863">
        <ele>941</ele>
        <time>2022-04-06T11:16:59Z</time>
      </trkpt>
      <trkpt lat="48.08023" lon="7.12891">
        <ele>941</ele>
        <time>2022-04-06T11:17:03Z</time>
      </trkpt>
      <trkpt lat="48.07992" lon="7.12939">
        <ele>944</ele>
        <time>2022-04-06T11:17:11Z</time>
      </trkpt>
      <trkpt lat="48.07986" lon="7.12953">
        <ele>944</ele>
        <time>2022-04-06T11:17:13Z</time>
      </trkpt>
      <trkpt lat="48.07982" lon="7.12967">
        <ele>944</ele>
        <time>2022-04-06T11:17:15Z</time>
      </trkpt>
      <trkpt lat="48.0798" lon="7.1298">
        <ele>944</ele>
        <time>2022-04-06T11:17:17Z</time>
      </trkpt>
      <trkpt lat="48.07972" lon="7.13059">
        <ele>945</ele>
        <time>2022-04-06T11:17:26Z</time>
      </trkpt>
      <trkpt lat="48.0797" lon="7.13069">
        <ele>945</ele>
        <time>2022-04-06T11:17:27Z</time>
      </trkpt>
      <trkpt lat="48.07967" lon="7.1308">
        <ele>946</ele>
        <time>2022-04-06T11:17:29Z</time>
      </trkpt>
      <trkpt lat="48.07964" lon="7.13091">
        <ele>946</ele>
        <time>2022-04-06T11:17:30Z</time>
      </trkpt>
      <trkpt lat="48.07961" lon="7.13099">
        <ele>947</ele>
        <time>2022-04-06T11:17:31Z</time>
      </trkpt>
      <trkpt lat="48.07942" lon="7.13152">
        <ele>950</ele>
        <time>2022-04-06T11:17:38Z</time>
      </trkpt>
      <trkpt lat="48.07939" lon="7.13168">
        <ele>951</ele>
        <time>2022-04-06T11:17:40Z</time>
      </trkpt>
      <trkpt lat="48.07938" lon="7.13184">
        <ele>952</ele>
        <time>2022-04-06T11:17:42Z</time>
      </trkpt>
      <trkpt lat="48.07939" lon="7.132">
        <ele>954</ele>
        <time>2022-04-06T11:17:44Z</time>
      </trkpt>
      <trkpt lat="48.07942" lon="7.13214">
        <ele>955</ele>
        <time>2022-04-06T11:17:46Z</time>
      </trkpt>
      <trkpt lat="48.07948" lon="7.1323">
        <ele>955</ele>
        <time>2022-04-06T11:17:48Z</time>
      </trkpt>
      <trkpt lat="48.07961" lon="7.13254">
        <ele>957</ele>
        <time>2022-04-06T11:17:52Z</time>
      </trkpt>
      <trkpt lat="48.0801" lon="7.13347">
        <ele>966</ele>
        <time>2022-04-06T11:18:06Z</time>
      </trkpt>
      <trkpt lat="48.08034" lon="7.1339">
        <ele>969</ele>
        <time>2022-04-06T11:18:13Z</time>
      </trkpt>
      <trkpt lat="48.08073" lon="7.1344">
        <ele>970</ele>
        <time>2022-04-06T11:18:22Z</time>
      </trkpt>
      <trkpt lat="48.0809" lon="7.13467">
        <ele>971</ele>
        <time>2022-04-06T11:18:26Z</time>
      </trkpt>
      <trkpt lat="48.08179" lon="7.13646">
        <ele>979</ele>
        <time>2022-04-06T11:18:53Z</time>
      </trkpt>
      <trkpt lat="48.08202" lon="7.13713">
        <ele>985</ele>
        <time>2022-04-06T11:19:02Z</time>
      </trkpt>
      <trkpt lat="48.08213" lon="7.13738">
        <ele>987</ele>
        <time>2022-04-06T11:19:05Z</time>
      </trkpt>
      <trkpt lat="48.08226" lon="7.13761">
        <ele>987</ele>
        <time>2022-04-06T11:19:09Z</time>
      </trkpt>
      <trkpt lat="48.08321" lon="7.13911">
        <ele>984</ele>
        <time>2022-04-06T11:19:33Z</time>
      </trkpt>
      <trkpt lat="48.08339" lon="7.13943">
        <ele>982</ele>
        <time>2022-04-06T11:19:38Z</time>
      </trkpt>
      <trkpt lat="48.08341" lon="7.13948">
        <ele>982</ele>
        <time>2022-04-06T11:19:39Z</time>
      </trkpt>
      <trkpt lat="48.08342" lon="7.13953">
        <ele>982</ele>
        <time>2022-04-06T11:19:40Z</time>
      </trkpt>
      <trkpt lat="48.08343" lon="7.13968">
        <ele>983</ele>
        <time>2022-04-06T11:19:41Z</time>
      </trkpt>
      <trkpt lat="48.08341" lon="7.13979">
        <ele>984</ele>
        <time>2022-04-06T11:19:43Z</time>
      </trkpt>
      <trkpt lat="48.08339" lon="7.13983">
        <ele>985</ele>
        <time>2022-04-06T11:19:43Z</time>
      </trkpt>
      <trkpt lat="48.08337" lon="7.13988">
        <ele>985</ele>
        <time>2022-04-06T11:19:44Z</time>
      </trkpt>
      <trkpt lat="48.08328" lon="7.13998">
        <ele>986</ele>
        <time>2022-04-06T11:19:46Z</time>
      </trkpt>
      <trkpt lat="48.08322" lon="7.14001">
        <ele>987</ele>
        <time>2022-04-06T11:19:47Z</time>
      </trkpt>
      <trkpt lat="48.08319" lon="7.14002">
        <ele>987</ele>
        <time>2022-04-06T11:19:48Z</time>
      </trkpt>
      <trkpt lat="48.08306" lon="7.14002">
        <ele>989</ele>
        <time>2022-04-06T11:19:50Z</time>
      </trkpt>
      <trkpt lat="48.0826" lon="7.13989">
        <ele>995</ele>
        <time>2022-04-06T11:19:58Z</time>
      </trkpt>
      <trkpt lat="48.08234" lon="7.13986">
        <ele>997</ele>
        <time>2022-04-06T11:20:03Z</time>
      </trkpt>
      <trkpt lat="48.08221" lon="7.13987">
        <ele>998</ele>
        <time>2022-04-06T11:20:05Z</time>
      </trkpt>
      <trkpt lat="48.0817" lon="7.14001">
        <ele>999</ele>
        <time>2022-04-06T11:20:15Z</time>
      </trkpt>
      <trkpt lat="48.08157" lon="7.14008">
        <ele>999</ele>
        <time>2022-04-06T11:20:17Z</time>
      </trkpt>
      <trkpt lat="48.08138" lon="7.14022">
        <ele>999</ele>
        <time>2022-04-06T11:20:21Z</time>
      </trkpt>
      <trkpt lat="48.08116" lon="7.14042">
        <ele>999</ele>
        <time>2022-04-06T11:20:25Z</time>
      </trkpt>
      <trkpt lat="48.081" lon="7.14063">
        <ele>998</ele>
        <time>2022-04-06T11:20:29Z</time>
      </trkpt>
      <trkpt lat="48.08089" lon="7.14083">
        <ele>996</ele>
        <time>2022-04-06T11:20:32Z</time>
      </trkpt>
      <trkpt lat="48.0808" lon="7.14107">
        <ele>995</ele>
        <time>2022-04-06T11:20:36Z</time>
      </trkpt>
      <trkpt lat="48.08073" lon="7.14136">
        <ele>994</ele>
        <time>2022-04-06T11:20:39Z</time>
      </trkpt>
      <trkpt lat="48.08057" lon="7.14219">
        <ele>988</ele>
        <time>2022-04-06T11:20:49Z</time>
      </trkpt>
      <trkpt lat="48.08052" lon="7.14234">
        <ele>987</ele>
        <time>2022-04-06T11:20:51Z</time>
      </trkpt>
      <trkpt lat="48.08045" lon="7.14247">
        <ele>986</ele>
        <time>2022-04-06T11:20:53Z</time>
      </trkpt>
      <trkpt lat="48.08028" lon="7.14268">
        <ele>987</ele>
        <time>2022-04-06T11:20:57Z</time>
      </trkpt>
      <trkpt lat="48.08016" lon="7.14276">
        <ele>987</ele>
        <time>2022-04-06T11:21:00Z</time>
      </trkpt>
      <trkpt lat="48.07953" lon="7.14302">
        <ele>986</ele>
        <time>2022-04-06T11:21:11Z</time>
      </trkpt>
      <trkpt lat="48.0794" lon="7.14316">
        <ele>984</ele>
        <time>2022-04-06T11:21:14Z</time>
      </trkpt>
      <trkpt lat="48.07932" lon="7.14327">
        <ele>983</ele>
        <time>2022-04-06T11:21:16Z</time>
      </trkpt>
      <trkpt lat="48.07927" lon="7.14338">
        <ele>982</ele>
        <time>2022-04-06T11:21:18Z</time>
      </trkpt>
      <trkpt lat="48.07924" lon="7.14347">
        <ele>981</ele>
        <time>2022-04-06T11:21:19Z</time>
      </trkpt>
      <trkpt lat="48.07922" lon="7.14353">
        <ele>981</ele>
        <time>2022-04-06T11:21:20Z</time>
      </trkpt>
      <trkpt lat="48.0792" lon="7.14354">
        <ele>981</ele>
        <time>2022-04-06T11:21:20Z</time>
      </trkpt>
      <trkpt lat="48.07911" lon="7.14356">
        <ele>981</ele>
        <time>2022-04-06T11:21:22Z</time>
      </trkpt>
      <trkpt lat="48.079" lon="7.14349">
        <ele>980</ele>
        <time>2022-04-06T11:21:24Z</time>
      </trkpt>
      <trkpt lat="48.07897" lon="7.14345">
        <ele>979</ele>
        <time>2022-04-06T11:21:24Z</time>
      </trkpt>
      <trkpt lat="48.07893" lon="7.14335">
        <ele>979</ele>
        <time>2022-04-06T11:21:26Z</time>
      </trkpt>
      <trkpt lat="48.07889" lon="7.14326">
        <ele>979</ele>
        <time>2022-04-06T11:21:27Z</time>
      </trkpt>
      <trkpt lat="48.07885" lon="7.14316">
        <ele>979</ele>
        <time>2022-04-06T11:21:29Z</time>
      </trkpt>
      <trkpt lat="48.07878" lon="7.14297">
        <ele>979</ele>
        <time>2022-04-06T11:21:31Z</time>
      </trkpt>
      <trkpt lat="48.0785" lon="7.14183">
        <ele>978</ele>
        <time>2022-04-06T11:21:46Z</time>
      </trkpt>
      <trkpt lat="48.07835" lon="7.14136">
        <ele>980</ele>
        <time>2022-04-06T11:21:52Z</time>
      </trkpt>
      <trkpt lat="48.07828" lon="7.14119">
        <ele>980</ele>
        <time>2022-04-06T11:21:54Z</time>
      </trkpt>
      <trkpt lat="48.07816" lon="7.14099">
        <ele>979</ele>
        <time>2022-04-06T11:21:57Z</time>
      </trkpt>
      <trkpt lat="48.07806" lon="7.14085">
        <ele>978</ele>
        <time>2022-04-06T11:22:00Z</time>
      </trkpt>
      <trkpt lat="48.07739" lon="7.14018">
        <ele>966</ele>
        <time>2022-04-06T11:22:14Z</time>
      </trkpt>
      <trkpt lat="48.07731" lon="7.14007">
        <ele>965</ele>
        <time>2022-04-06T11:22:16Z</time>
      </trkpt>
      <trkpt lat="48.07724" lon="7.13992">
        <ele>964</ele>
        <time>2022-04-06T11:22:18Z</time>
      </trkpt>
      <trkpt lat="48.07713" lon="7.13959">
        <ele>962</ele>
        <time>2022-04-06T11:22:23Z</time>
      </trkpt>
      <trkpt lat="48.0771" lon="7.13941">
        <ele>961</ele>
        <time>2022-04-06T11:22:25Z</time>
      </trkpt>
      <trkpt lat="48.07709" lon="7.1392">
        <ele>962</ele>
        <time>2022-04-06T11:22:27Z</time>
      </trkpt>
      <trkpt lat="48.07722" lon="7.1381">
        <ele>960</ele>
        <time>2022-04-06T11:22:41Z</time>
      </trkpt>
      <trkpt lat="48.07723" lon="7.13784">
        <ele>960</ele>
        <time>2022-04-06T11:22:44Z</time>
      </trkpt>
      <trkpt lat="48.07721" lon="7.13759">
        <ele>958</ele>
        <time>2022-04-06T11:22:47Z</time>
      </trkpt>
      <trkpt lat="48.07717" lon="7.1374">
        <ele>956</ele>
        <time>2022-04-06T11:22:49Z</time>
      </trkpt>
      <trkpt lat="48.07713" lon="7.13723">
        <ele>956</ele>
        <time>2022-04-06T11:22:51Z</time>
      </trkpt>
      <trkpt lat="48.07706" lon="7.13698">
        <ele>954</ele>
        <time>2022-04-06T11:22:54Z</time>
      </trkpt>
      <trkpt lat="48.07681" lon="7.13626">
        <ele>951</ele>
        <time>2022-04-06T11:23:04Z</time>
      </trkpt>
      <trkpt lat="48.07668" lon="7.13602">
        <ele>950</ele>
        <time>2022-04-06T11:23:08Z</time>
      </trkpt>
      <trkpt lat="48.07639" lon="7.13561">
        <ele>948</ele>
        <time>2022-04-06T11:23:15Z</time>
      </trkpt>
      <trkpt lat="48.07617" lon="7.13532">
        <ele>947</ele>
        <time>2022-04-06T11:23:20Z</time>
      </trkpt>
      <trkpt lat="48.07579" lon="7.13488">
        <ele>949</ele>
        <time>2022-04-06T11:23:29Z</time>
      </trkpt>
      <trkpt lat="48.07568" lon="7.13481">
        <ele>949</ele>
        <time>2022-04-06T11:23:31Z</time>
      </trkpt>
      <trkpt lat="48.07557" lon="7.13476">
        <ele>949</ele>
        <time>2022-04-06T11:23:33Z</time>
      </trkpt>
      <trkpt lat="48.07535" lon="7.13475">
        <ele>946</ele>
        <time>2022-04-06T11:23:37Z</time>
      </trkpt>
      <trkpt lat="48.07522" lon="7.13478">
        <ele>944</ele>
        <time>2022-04-06T11:23:39Z</time>
      </trkpt>
      <trkpt lat="48.07511" lon="7.13484">
        <ele>940</ele>
        <time>2022-04-06T11:23:41Z</time>
      </trkpt>
      <trkpt lat="48.07474" lon="7.13513">
        <ele>924</ele>
        <time>2022-04-06T11:23:49Z</time>
      </trkpt>
      <trkpt lat="48.07466" lon="7.13515">
        <ele>922</ele>
        <time>2022-04-06T11:23:50Z</time>
      </trkpt>
      <trkpt lat="48.07456" lon="7.13515">
        <ele>920</ele>
        <time>2022-04-06T11:23:52Z</time>
      </trkpt>
      <trkpt lat="48.07448" lon="7.13509">
        <ele>920</ele>
        <time>2022-04-06T11:23:53Z</time>
      </trkpt>
      <trkpt lat="48.07437" lon="7.13491">
        <ele>922</ele>
        <time>2022-04-06T11:23:56Z</time>
      </trkpt>
      <trkpt lat="48.07408" lon="7.13401">
        <ele>931</ele>
        <time>2022-04-06T11:24:08Z</time>
      </trkpt>
      <trkpt lat="48.07398" lon="7.13376">
        <ele>932</ele>
        <time>2022-04-06T11:24:12Z</time>
      </trkpt>
      <trkpt lat="48.07381" lon="7.13344">
        <ele>933</ele>
        <time>2022-04-06T11:24:16Z</time>
      </trkpt>
      <trkpt lat="48.07374" lon="7.13333">
        <ele>933</ele>
        <time>2022-04-06T11:24:18Z</time>
      </trkpt>
      <trkpt lat="48.07365" lon="7.1332">
        <ele>933</ele>
        <time>2022-04-06T11:24:20Z</time>
      </trkpt>
      <trkpt lat="48.07353" lon="7.13304">
        <ele>932</ele>
        <time>2022-04-06T11:24:23Z</time>
      </trkpt>
      <trkpt lat="48.07327" lon="7.1328">
        <ele>929</ele>
        <time>2022-04-06T11:24:29Z</time>
      </trkpt>
      <trkpt lat="48.07269" lon="7.13246">
        <ele>924</ele>
        <time>2022-04-06T11:24:40Z</time>
      </trkpt>
      <trkpt lat="48.07262" lon="7.13244">
        <ele>923</ele>
        <time>2022-04-06T11:24:41Z</time>
      </trkpt>
      <trkpt lat="48.07226" lon="7.13238">
        <ele>919</ele>
        <time>2022-04-06T11:24:48Z</time>
      </trkpt>
      <trkpt lat="48.0719" lon="7.1324">
        <ele>915</ele>
        <time>2022-04-06T11:24:54Z</time>
      </trkpt>
      <trkpt lat="48.07127" lon="7.13246">
        <ele>908</ele>
        <time>2022-04-06T11:25:05Z</time>
      </trkpt>
      <trkpt lat="48.07108" lon="7.13249">
        <ele>906</ele>
        <time>2022-04-06T11:25:09Z</time>
      </trkpt>
      <trkpt lat="48.07071" lon="7.13255">
        <ele>902</ele>
        <time>2022-04-06T11:25:15Z</time>
      </trkpt>
      <trkpt lat="48.06946" lon="7.13279">
        <ele>885</ele>
        <time>2022-04-06T11:25:38Z</time>
      </trkpt>
      <trkpt lat="48.06889" lon="7.13282">
        <ele>879</ele>
        <time>2022-04-06T11:25:48Z</time>
      </trkpt>
      <trkpt lat="48.06876" lon="7.13285">
        <ele>877</ele>
        <time>2022-04-06T11:25:50Z</time>
      </trkpt>
      <trkpt lat="48.06852" lon="7.13297">
        <ele>873</ele>
        <time>2022-04-06T11:25:55Z</time>
      </trkpt>
      <trkpt lat="48.06799" lon="7.13335">
        <ele>861</ele>
        <time>2022-04-06T11:26:05Z</time>
      </trkpt>
      <trkpt lat="48.06781" lon="7.13343">
        <ele>859</ele>
        <time>2022-04-06T11:26:08Z</time>
      </trkpt>
      <trkpt lat="48.06756" lon="7.13342">
        <ele>857</ele>
        <time>2022-04-06T11:26:13Z</time>
      </trkpt>
      <trkpt lat="48.06741" lon="7.13332">
        <ele>855</ele>
        <time>2022-04-06T11:26:16Z</time>
      </trkpt>
      <trkpt lat="48.06733" lon="7.13323">
        <ele>853</ele>
        <time>2022-04-06T11:26:18Z</time>
      </trkpt>
      <trkpt lat="48.0673" lon="7.13318">
        <ele>853</ele>
        <time>2022-04-06T11:26:18Z</time>
      </trkpt>
      <trkpt lat="48.06726" lon="7.13311">
        <ele>852</ele>
        <time>2022-04-06T11:26:19Z</time>
      </trkpt>
      <trkpt lat="48.06717" lon="7.13283">
        <ele>851</ele>
        <time>2022-04-06T11:26:23Z</time>
      </trkpt>
      <trkpt lat="48.06713" lon="7.13265">
        <ele>850</ele>
        <time>2022-04-06T11:26:25Z</time>
      </trkpt>
      <trkpt lat="48.06702" lon="7.13">
        <ele>841</ele>
        <time>2022-04-06T11:26:57Z</time>
      </trkpt>
      <trkpt lat="48.06705" lon="7.12954">
        <ele>836</ele>
        <time>2022-04-06T11:27:03Z</time>
      </trkpt>
      <trkpt lat="48.0671" lon="7.12927">
        <ele>834</ele>
        <time>2022-04-06T11:27:06Z</time>
      </trkpt>
      <trkpt lat="48.06741" lon="7.12796">
        <ele>828</ele>
        <time>2022-04-06T11:27:22Z</time>
      </trkpt>
      <trkpt lat="48.06744" lon="7.12773">
        <ele>826</ele>
        <time>2022-04-06T11:27:25Z</time>
      </trkpt>
      <trkpt lat="48.06747" lon="7.12734">
        <ele>824</ele>
        <time>2022-04-06T11:27:30Z</time>
      </trkpt>
      <trkpt lat="48.06746" lon="7.12728">
        <ele>824</ele>
        <time>2022-04-06T11:27:31Z</time>
      </trkpt>
      <trkpt lat="48.06745" lon="7.12707">
        <ele>823</ele>
        <time>2022-04-06T11:27:33Z</time>
      </trkpt>
      <trkpt lat="48.06741" lon="7.12679">
        <ele>821</ele>
        <time>2022-04-06T11:27:36Z</time>
      </trkpt>
      <trkpt lat="48.06732" lon="7.12647">
        <ele>819</ele>
        <time>2022-04-06T11:27:41Z</time>
      </trkpt>
      <trkpt lat="48.06723" lon="7.12614">
        <ele>817</ele>
        <time>2022-04-06T11:27:45Z</time>
      </trkpt>
      <trkpt lat="48.06719" lon="7.12602">
        <ele>817</ele>
        <time>2022-04-06T11:27:46Z</time>
      </trkpt>
      <trkpt lat="48.06716" lon="7.1259">
        <ele>817</ele>
        <time>2022-04-06T11:27:48Z</time>
      </trkpt>
      <trkpt lat="48.06707" lon="7.12559">
        <ele>816</ele>
        <time>2022-04-06T11:27:52Z</time>
      </trkpt>
      <trkpt lat="48.06689" lon="7.12497">
        <ele>814</ele>
        <time>2022-04-06T11:28:00Z</time>
      </trkpt>
      <trkpt lat="48.06681" lon="7.12473">
        <ele>811</ele>
        <time>2022-04-06T11:28:03Z</time>
      </trkpt>
      <trkpt lat="48.06667" lon="7.12449">
        <ele>807</ele>
        <time>2022-04-06T11:28:07Z</time>
      </trkpt>
      <trkpt lat="48.06654" lon="7.12435">
        <ele>804</ele>
        <time>2022-04-06T11:28:10Z</time>
      </trkpt>
      <trkpt lat="48.0665" lon="7.12433">
        <ele>804</ele>
        <time>2022-04-06T11:28:11Z</time>
      </trkpt>
      <trkpt lat="48.06645" lon="7.1243">
        <ele>803</ele>
        <time>2022-04-06T11:28:12Z</time>
      </trkpt>
      <trkpt lat="48.06625" lon="7.12426">
        <ele>802</ele>
        <time>2022-04-06T11:28:15Z</time>
      </trkpt>
      <trkpt lat="48.06603" lon="7.12432">
        <ele>800</ele>
        <time>2022-04-06T11:28:19Z</time>
      </trkpt>
      <trkpt lat="48.06594" lon="7.12438">
        <ele>800</ele>
        <time>2022-04-06T11:28:21Z</time>
      </trkpt>
      <trkpt lat="48.06589" lon="7.12444">
        <ele>799</ele>
        <time>2022-04-06T11:28:22Z</time>
      </trkpt>
      <trkpt lat="48.06575" lon="7.12466">
        <ele>798</ele>
        <time>2022-04-06T11:28:26Z</time>
      </trkpt>
      <trkpt lat="48.06567" lon="7.1249">
        <ele>797</ele>
        <time>2022-04-06T11:28:29Z</time>
      </trkpt>
      <trkpt lat="48.06564" lon="7.12522">
        <ele>795</ele>
        <time>2022-04-06T11:28:33Z</time>
      </trkpt>
      <trkpt lat="48.06569" lon="7.12554">
        <ele>795</ele>
        <time>2022-04-06T11:28:37Z</time>
      </trkpt>
      <trkpt lat="48.06572" lon="7.12567">
        <ele>794</ele>
        <time>2022-04-06T11:28:38Z</time>
      </trkpt>
      <trkpt lat="48.0658" lon="7.12595">
        <ele>794</ele>
        <time>2022-04-06T11:28:42Z</time>
      </trkpt>
      <trkpt lat="48.06596" lon="7.12641">
        <ele>793</ele>
        <time>2022-04-06T11:28:48Z</time>
      </trkpt>
      <trkpt lat="48.0661" lon="7.12672">
        <ele>793</ele>
        <time>2022-04-06T11:28:52Z</time>
      </trkpt>
      <trkpt lat="48.06654" lon="7.1275">
        <ele>798</ele>
        <time>2022-04-06T11:29:05Z</time>
      </trkpt>
      <trkpt lat="48.06655" lon="7.12755">
        <ele>799</ele>
        <time>2022-04-06T11:29:05Z</time>
      </trkpt>
      <trkpt lat="48.06655" lon="7.12756">
        <ele>799</ele>
        <time>2022-04-06T11:29:05Z</time>
      </trkpt>
      <trkpt lat="48.06655" lon="7.12759">
        <ele>799</ele>
        <time>2022-04-06T11:29:06Z</time>
      </trkpt>
      <trkpt lat="48.06653" lon="7.1277">
        <ele>799</ele>
        <time>2022-04-06T11:29:07Z</time>
      </trkpt>
      <trkpt lat="48.06649" lon="7.12787">
        <ele>798</ele>
        <time>2022-04-06T11:29:09Z</time>
      </trkpt>
      <trkpt lat="48.06638" lon="7.12826">
        <ele>796</ele>
        <time>2022-04-06T11:29:14Z</time>
      </trkpt>
      <trkpt lat="48.06637" lon="7.12828">
        <ele>795</ele>
        <time>2022-04-06T11:29:14Z</time>
      </trkpt>
      <trkpt lat="48.06636" lon="7.12831">
        <ele>795</ele>
        <time>2022-04-06T11:29:15Z</time>
      </trkpt>
      <trkpt lat="48.06634" lon="7.12834">
        <ele>795</ele>
        <time>2022-04-06T11:29:15Z</time>
      </trkpt>
      <trkpt lat="48.06628" lon="7.12842">
        <ele>794</ele>
        <time>2022-04-06T11:29:17Z</time>
      </trkpt>
      <trkpt lat="48.06571" lon="7.12905">
        <ele>783</ele>
        <time>2022-04-06T11:29:29Z</time>
      </trkpt>
      <trkpt lat="48.0656" lon="7.12918">
        <ele>782</ele>
        <time>2022-04-06T11:29:32Z</time>
      </trkpt>
      <trkpt lat="48.0655" lon="7.12931">
        <ele>781</ele>
        <time>2022-04-06T11:29:34Z</time>
      </trkpt>
      <trkpt lat="48.06541" lon="7.12945">
        <ele>780</ele>
        <time>2022-04-06T11:29:37Z</time>
      </trkpt>
      <trkpt lat="48.06529" lon="7.12973">
        <ele>781</ele>
        <time>2022-04-06T11:29:41Z</time>
      </trkpt>
      <trkpt lat="48.06522" lon="7.12994">
        <ele>781</ele>
        <time>2022-04-06T11:29:43Z</time>
      </trkpt>
      <trkpt lat="48.06517" lon="7.13015">
        <ele>781</ele>
        <time>2022-04-06T11:29:46Z</time>
      </trkpt>
      <trkpt lat="48.06503" lon="7.131">
        <ele>778</ele>
        <time>2022-04-06T11:29:56Z</time>
      </trkpt>
      <trkpt lat="48.06501" lon="7.13106">
        <ele>777</ele>
        <time>2022-04-06T11:29:57Z</time>
      </trkpt>
      <trkpt lat="48.06494" lon="7.13148">
        <ele>774</ele>
        <time>2022-04-06T11:30:02Z</time>
      </trkpt>
      <trkpt lat="48.0649" lon="7.13168">
        <ele>772</ele>
        <time>2022-04-06T11:30:05Z</time>
      </trkpt>
      <trkpt lat="48.06489" lon="7.13175">
        <ele>771</ele>
        <time>2022-04-06T11:30:06Z</time>
      </trkpt>
      <trkpt lat="48.06488" lon="7.13197">
        <ele>769</ele>
        <time>2022-04-06T11:30:08Z</time>
      </trkpt>
      <trkpt lat="48.06489" lon="7.1322">
        <ele>768</ele>
        <time>2022-04-06T11:30:11Z</time>
      </trkpt>
      <trkpt lat="48.06489" lon="7.13226">
        <ele>767</ele>
        <time>2022-04-06T11:30:12Z</time>
      </trkpt>
      <trkpt lat="48.0649" lon="7.13231">
        <ele>767</ele>
        <time>2022-04-06T11:30:12Z</time>
      </trkpt>
      <trkpt lat="48.06498" lon="7.13264">
        <ele>767</ele>
        <time>2022-04-06T11:30:17Z</time>
      </trkpt>
      <trkpt lat="48.06517" lon="7.13307">
        <ele>769</ele>
        <time>2022-04-06T11:30:23Z</time>
      </trkpt>
      <trkpt lat="48.06521" lon="7.13323">
        <ele>769</ele>
        <time>2022-04-06T11:30:25Z</time>
      </trkpt>
      <trkpt lat="48.06527" lon="7.13399">
        <ele>762</ele>
        <time>2022-04-06T11:30:34Z</time>
      </trkpt>
      <trkpt lat="48.06528" lon="7.13419">
        <ele>760</ele>
        <time>2022-04-06T11:30:36Z</time>
      </trkpt>
      <trkpt lat="48.06528" lon="7.13423">
        <ele>760</ele>
        <time>2022-04-06T11:30:37Z</time>
      </trkpt>
      <trkpt lat="48.06527" lon="7.13436">
        <ele>760</ele>
        <time>2022-04-06T11:30:38Z</time>
      </trkpt>
      <trkpt lat="48.06524" lon="7.13456">
        <ele>759</ele>
        <time>2022-04-06T11:30:41Z</time>
      </trkpt>
      <trkpt lat="48.06517" lon="7.13478">
        <ele>756</ele>
        <time>2022-04-06T11:30:44Z</time>
      </trkpt>
      <trkpt lat="48.06507" lon="7.13503">
        <ele>752</ele>
        <time>2022-04-06T11:30:47Z</time>
      </trkpt>
      <trkpt lat="48.06489" lon="7.13547">
        <ele>748</ele>
        <time>2022-04-06T11:30:53Z</time>
      </trkpt>
      <trkpt lat="48.06486" lon="7.13557">
        <ele>747</ele>
        <time>2022-04-06T11:30:54Z</time>
      </trkpt>
      <trkpt lat="48.06483" lon="7.13572">
        <ele>747</ele>
        <time>2022-04-06T11:30:56Z</time>
      </trkpt>
      <trkpt lat="48.06476" lon="7.13621">
        <ele>749</ele>
        <time>2022-04-06T11:31:02Z</time>
      </trkpt>
      <trkpt lat="48.06475" lon="7.13622">
        <ele>749</ele>
        <time>2022-04-06T11:31:02Z</time>
      </trkpt>
      <trkpt lat="48.06468" lon="7.13652">
        <ele>750</ele>
        <time>2022-04-06T11:31:06Z</time>
      </trkpt>
      <trkpt lat="48.06462" lon="7.13663">
        <ele>748</ele>
        <time>2022-04-06T11:31:08Z</time>
      </trkpt>
      <trkpt lat="48.06459" lon="7.13668">
        <ele>748</ele>
        <time>2022-04-06T11:31:09Z</time>
      </trkpt>
      <trkpt lat="48.0644" lon="7.1369">
        <ele>746</ele>
        <time>2022-04-06T11:31:13Z</time>
      </trkpt>
      <trkpt lat="48.06426" lon="7.13702">
        <ele>744</ele>
        <time>2022-04-06T11:31:16Z</time>
      </trkpt>
      <trkpt lat="48.06395" lon="7.13722">
        <ele>742</ele>
        <time>2022-04-06T11:31:22Z</time>
      </trkpt>
      <trkpt lat="48.06364" lon="7.13737">
        <ele>741</ele>
        <time>2022-04-06T11:31:28Z</time>
      </trkpt>
      <trkpt lat="48.06357" lon="7.13739">
        <ele>740</ele>
        <time>2022-04-06T11:31:29Z</time>
      </trkpt>
      <trkpt lat="48.06312" lon="7.13743">
        <ele>735</ele>
        <time>2022-04-06T11:31:37Z</time>
      </trkpt>
      <trkpt lat="48.06271" lon="7.13754">
        <ele>732</ele>
        <time>2022-04-06T11:31:44Z</time>
      </trkpt>
      <trkpt lat="48.0625" lon="7.13761">
        <ele>731</ele>
        <time>2022-04-06T11:31:48Z</time>
      </trkpt>
      <trkpt lat="48.0623" lon="7.13767">
        <ele>729</ele>
        <time>2022-04-06T11:31:52Z</time>
      </trkpt>
      <trkpt lat="48.06218" lon="7.13772">
        <ele>728</ele>
        <time>2022-04-06T11:31:54Z</time>
      </trkpt>
      <trkpt lat="48.06196" lon="7.13786">
        <ele>727</ele>
        <time>2022-04-06T11:31:58Z</time>
      </trkpt>
      <trkpt lat="48.06177" lon="7.13802">
        <ele>725</ele>
        <time>2022-04-06T11:32:02Z</time>
      </trkpt>
      <trkpt lat="48.06174" lon="7.13806">
        <ele>725</ele>
        <time>2022-04-06T11:32:03Z</time>
      </trkpt>
      <trkpt lat="48.06157" lon="7.13827">
        <ele>722</ele>
        <time>2022-04-06T11:32:07Z</time>
      </trkpt>
      <trkpt lat="48.06151" lon="7.13836">
        <ele>720</ele>
        <time>2022-04-06T11:32:08Z</time>
      </trkpt>
      <trkpt lat="48.06145" lon="7.13852">
        <ele>719</ele>
        <time>2022-04-06T11:32:11Z</time>
      </trkpt>
      <trkpt lat="48.06143" lon="7.13858">
        <ele>718</ele>
        <time>2022-04-06T11:32:11Z</time>
      </trkpt>
      <trkpt lat="48.06142" lon="7.13865">
        <ele>718</ele>
        <time>2022-04-06T11:32:12Z</time>
      </trkpt>
      <trkpt lat="48.06142" lon="7.13888">
        <ele>719</ele>
        <time>2022-04-06T11:32:15Z</time>
      </trkpt>
      <trkpt lat="48.0615" lon="7.13933">
        <ele>723</ele>
        <time>2022-04-06T11:32:20Z</time>
      </trkpt>
      <trkpt lat="48.0615" lon="7.13935">
        <ele>723</ele>
        <time>2022-04-06T11:32:21Z</time>
      </trkpt>
      <trkpt lat="48.06149" lon="7.13943">
        <ele>722</ele>
        <time>2022-04-06T11:32:22Z</time>
      </trkpt>
      <trkpt lat="48.06143" lon="7.13947">
        <ele>719</ele>
        <time>2022-04-06T11:32:23Z</time>
      </trkpt>
      <trkpt lat="48.06142" lon="7.13947">
        <ele>719</ele>
        <time>2022-04-06T11:32:23Z</time>
      </trkpt>
      <trkpt lat="48.06141" lon="7.13947">
        <ele>718</ele>
        <time>2022-04-06T11:32:23Z</time>
      </trkpt>
      <trkpt lat="48.06138" lon="7.13945">
        <ele>717</ele>
        <time>2022-04-06T11:32:24Z</time>
      </trkpt>
      <trkpt lat="48.06136" lon="7.1394">
        <ele>716</ele>
        <time>2022-04-06T11:32:24Z</time>
      </trkpt>
      <trkpt lat="48.06135" lon="7.13908">
        <ele>716</ele>
        <time>2022-04-06T11:32:28Z</time>
      </trkpt>
      <trkpt lat="48.06132" lon="7.13892">
        <ele>715</ele>
        <time>2022-04-06T11:32:30Z</time>
      </trkpt>
      <trkpt lat="48.06099" lon="7.13772">
        <ele>707</ele>
        <time>2022-04-06T11:32:46Z</time>
      </trkpt>
      <trkpt lat="48.06094" lon="7.13754">
        <ele>707</ele>
        <time>2022-04-06T11:32:48Z</time>
      </trkpt>
      <trkpt lat="48.06092" lon="7.1375">
        <ele>707</ele>
        <time>2022-04-06T11:32:49Z</time>
      </trkpt>
      <trkpt lat="48.06072" lon="7.13688">
        <ele>702</ele>
        <time>2022-04-06T11:32:57Z</time>
      </trkpt>
      <trkpt lat="48.06063" lon="7.1367">
        <ele>700</ele>
        <time>2022-04-06T11:32:59Z</time>
      </trkpt>
      <trkpt lat="48.06051" lon="7.13657">
        <ele>697</ele>
        <time>2022-04-06T11:33:02Z</time>
      </trkpt>
      <trkpt lat="48.06045" lon="7.13653">
        <ele>695</ele>
        <time>2022-04-06T11:33:03Z</time>
      </trkpt>
      <trkpt lat="48.06035" lon="7.1365">
        <ele>693</ele>
        <time>2022-04-06T11:33:05Z</time>
      </trkpt>
      <trkpt lat="48.0603" lon="7.13648">
        <ele>692</ele>
        <time>2022-04-06T11:33:06Z</time>
      </trkpt>
      <trkpt lat="48.06029" lon="7.13648">
        <ele>692</ele>
        <time>2022-04-06T11:33:06Z</time>
      </trkpt>
      <trkpt lat="48.06021" lon="7.13645">
        <ele>691</ele>
        <time>2022-04-06T11:33:08Z</time>
      </trkpt>
      <trkpt lat="48.06012" lon="7.13636">
        <ele>690</ele>
        <time>2022-04-06T11:33:10Z</time>
      </trkpt>
      <trkpt lat="48.06006" lon="7.13625">
        <ele>689</ele>
        <time>2022-04-06T11:33:11Z</time>
      </trkpt>
      <trkpt lat="48.06002" lon="7.13609">
        <ele>690</ele>
        <time>2022-04-06T11:33:13Z</time>
      </trkpt>
      <trkpt lat="48.06002" lon="7.13591">
        <ele>691</ele>
        <time>2022-04-06T11:33:15Z</time>
      </trkpt>
      <trkpt lat="48.06005" lon="7.1358">
        <ele>692</ele>
        <time>2022-04-06T11:33:17Z</time>
      </trkpt>
      <trkpt lat="48.06011" lon="7.13571">
        <ele>691</ele>
        <time>2022-04-06T11:33:18Z</time>
      </trkpt>
      <trkpt lat="48.06034" lon="7.13559">
        <ele>689</ele>
        <time>2022-04-06T11:33:23Z</time>
      </trkpt>
      <trkpt lat="48.06039" lon="7.13554">
        <ele>688</ele>
        <time>2022-04-06T11:33:24Z</time>
      </trkpt>
      <trkpt lat="48.06043" lon="7.13542">
        <ele>686</ele>
        <time>2022-04-06T11:33:25Z</time>
      </trkpt>
      <trkpt lat="48.06041" lon="7.13532">
        <ele>685</ele>
        <time>2022-04-06T11:33:27Z</time>
      </trkpt>
      <trkpt lat="48.06041" lon="7.13531">
        <ele>684</ele>
        <time>2022-04-06T11:33:27Z</time>
      </trkpt>
      <trkpt lat="48.0604" lon="7.13529">
        <ele>684</ele>
        <time>2022-04-06T11:33:27Z</time>
      </trkpt>
      <trkpt lat="48.06035" lon="7.1352">
        <ele>683</ele>
        <time>2022-04-06T11:33:28Z</time>
      </trkpt>
      <trkpt lat="48.06028" lon="7.13514">
        <ele>682</ele>
        <time>2022-04-06T11:33:30Z</time>
      </trkpt>
      <trkpt lat="48.06016" lon="7.13508">
        <ele>682</ele>
        <time>2022-04-06T11:33:32Z</time>
      </trkpt>
      <trkpt lat="48.06003" lon="7.13505">
        <ele>682</ele>
        <time>2022-04-06T11:33:34Z</time>
      </trkpt>
      <trkpt lat="48.05996" lon="7.13504">
        <ele>682</ele>
        <time>2022-04-06T11:33:36Z</time>
      </trkpt>
      <trkpt lat="48.05991" lon="7.13504">
        <ele>681</ele>
        <time>2022-04-06T11:33:37Z</time>
      </trkpt>
      <trkpt lat="48.05983" lon="7.13504">
        <ele>680</ele>
        <time>2022-04-06T11:33:38Z</time>
      </trkpt>
      <trkpt lat="48.05973" lon="7.13507">
        <ele>678</ele>
        <time>2022-04-06T11:33:40Z</time>
      </trkpt>
      <trkpt lat="48.05964" lon="7.13516">
        <ele>677</ele>
        <time>2022-04-06T11:33:42Z</time>
      </trkpt>
      <trkpt lat="48.05962" lon="7.1352">
        <ele>677</ele>
        <time>2022-04-06T11:33:42Z</time>
      </trkpt>
      <trkpt lat="48.05962" lon="7.13522">
        <ele>677</ele>
        <time>2022-04-06T11:33:43Z</time>
      </trkpt>
      <trkpt lat="48.05958" lon="7.13535">
        <ele>676</ele>
        <time>2022-04-06T11:33:44Z</time>
      </trkpt>
      <trkpt lat="48.05958" lon="7.13549">
        <ele>676</ele>
        <time>2022-04-06T11:33:46Z</time>
      </trkpt>
      <trkpt lat="48.05968" lon="7.13605">
        <ele>678</ele>
        <time>2022-04-06T11:33:53Z</time>
      </trkpt>
      <trkpt lat="48.05974" lon="7.13626">
        <ele>678</ele>
        <time>2022-04-06T11:33:56Z</time>
      </trkpt>
      <trkpt lat="48.06001" lon="7.13695">
        <ele>682</ele>
        <time>2022-04-06T11:34:05Z</time>
      </trkpt>
      <trkpt lat="48.06006" lon="7.13712">
        <ele>681</ele>
        <time>2022-04-06T11:34:07Z</time>
      </trkpt>
      <trkpt lat="48.06009" lon="7.13721">
        <ele>681</ele>
        <time>2022-04-06T11:34:08Z</time>
      </trkpt>
      <trkpt lat="48.06011" lon="7.13739">
        <ele>680</ele>
        <time>2022-04-06T11:34:11Z</time>
      </trkpt>
      <trkpt lat="48.06012" lon="7.13773">
        <ele>677</ele>
        <time>2022-04-06T11:34:15Z</time>
      </trkpt>
      <trkpt lat="48.06011" lon="7.13785">
        <ele>676</ele>
        <time>2022-04-06T11:34:16Z</time>
      </trkpt>
      <trkpt lat="48.06007" lon="7.13792">
        <ele>674</ele>
        <time>2022-04-06T11:34:17Z</time>
      </trkpt>
      <trkpt lat="48.06005" lon="7.13794">
        <ele>673</ele>
        <time>2022-04-06T11:34:18Z</time>
      </trkpt>
      <trkpt lat="48.06004" lon="7.13795">
        <ele>672</ele>
        <time>2022-04-06T11:34:18Z</time>
      </trkpt>
      <trkpt lat="48.06" lon="7.13795">
        <ele>671</ele>
        <time>2022-04-06T11:34:19Z</time>
      </trkpt>
      <trkpt lat="48.05995" lon="7.13792">
        <ele>669</ele>
        <time>2022-04-06T11:34:20Z</time>
      </trkpt>
      <trkpt lat="48.0599" lon="7.13782">
        <ele>668</ele>
        <time>2022-04-06T11:34:21Z</time>
      </trkpt>
      <trkpt lat="48.05989" lon="7.1377">
        <ele>668</ele>
        <time>2022-04-06T11:34:22Z</time>
      </trkpt>
      <trkpt lat="48.0599" lon="7.13738">
        <ele>672</ele>
        <time>2022-04-06T11:34:26Z</time>
      </trkpt>
      <trkpt lat="48.05986" lon="7.13721">
        <ele>672</ele>
        <time>2022-04-06T11:34:28Z</time>
      </trkpt>
      <trkpt lat="48.05934" lon="7.13607">
        <ele>664</ele>
        <time>2022-04-06T11:34:45Z</time>
      </trkpt>
      <trkpt lat="48.05924" lon="7.1359">
        <ele>663</ele>
        <time>2022-04-06T11:34:47Z</time>
      </trkpt>
      <trkpt lat="48.05895" lon="7.13554">
        <ele>656</ele>
        <time>2022-04-06T11:34:54Z</time>
      </trkpt>
      <trkpt lat="48.0588" lon="7.13532">
        <ele>653</ele>
        <time>2022-04-06T11:34:58Z</time>
      </trkpt>
      <trkpt lat="48.05868" lon="7.13506">
        <ele>652</ele>
        <time>2022-04-06T11:35:02Z</time>
      </trkpt>
      <trkpt lat="48.05865" lon="7.13481">
        <ele>652</ele>
        <time>2022-04-06T11:35:05Z</time>
      </trkpt>
      <trkpt lat="48.05866" lon="7.13406">
        <ele>649</ele>
        <time>2022-04-06T11:35:14Z</time>
      </trkpt>
      <trkpt lat="48.05867" lon="7.13387">
        <ele>646</ele>
        <time>2022-04-06T11:35:16Z</time>
      </trkpt>
      <trkpt lat="48.05873" lon="7.13369">
        <ele>644</ele>
        <time>2022-04-06T11:35:18Z</time>
      </trkpt>
      <trkpt lat="48.05875" lon="7.13365">
        <ele>643</ele>
        <time>2022-04-06T11:35:19Z</time>
      </trkpt>
      <trkpt lat="48.05878" lon="7.1336">
        <ele>643</ele>
        <time>2022-04-06T11:35:20Z</time>
      </trkpt>
      <trkpt lat="48.05888" lon="7.13351">
        <ele>642</ele>
        <time>2022-04-06T11:35:22Z</time>
      </trkpt>
      <trkpt lat="48.05899" lon="7.13346">
        <ele>642</ele>
        <time>2022-04-06T11:35:24Z</time>
      </trkpt>
      <trkpt lat="48.05936" lon="7.13341">
        <ele>640</ele>
        <time>2022-04-06T11:35:30Z</time>
      </trkpt>
      <trkpt lat="48.05969" lon="7.13344">
        <ele>638</ele>
        <time>2022-04-06T11:35:36Z</time>
      </trkpt>
      <trkpt lat="48.06018" lon="7.13358">
        <ele>639</ele>
        <time>2022-04-06T11:35:45Z</time>
      </trkpt>
      <trkpt lat="48.061" lon="7.13388">
        <ele>644</ele>
        <time>2022-04-06T11:36:00Z</time>
      </trkpt>
      <trkpt lat="48.06103" lon="7.13388">
        <ele>644</ele>
        <time>2022-04-06T11:36:01Z</time>
      </trkpt>
      <trkpt lat="48.06107" lon="7.13383">
        <ele>643</ele>
        <time>2022-04-06T11:36:02Z</time>
      </trkpt>
      <trkpt lat="48.06108" lon="7.13376">
        <ele>642</ele>
        <time>2022-04-06T11:36:03Z</time>
      </trkpt>
      <trkpt lat="48.06105" lon="7.13369">
        <ele>641</ele>
        <time>2022-04-06T11:36:04Z</time>
      </trkpt>
      <trkpt lat="48.06094" lon="7.13363">
        <ele>638</ele>
        <time>2022-04-06T11:36:06Z</time>
      </trkpt>
      <trkpt lat="48.06072" lon="7.13357">
        <ele>636</ele>
        <time>2022-04-06T11:36:10Z</time>
      </trkpt>
      <trkpt lat="48.05974" lon="7.13294">
        <ele>622</ele>
        <time>2022-04-06T11:36:29Z</time>
      </trkpt>
      <trkpt lat="48.05924" lon="7.13264">
        <ele>615</ele>
        <time>2022-04-06T11:36:38Z</time>
      </trkpt>
      <trkpt lat="48.05809" lon="7.13217">
        <ele>603</ele>
        <time>2022-04-06T11:36:59Z</time>
      </trkpt>
      <trkpt lat="48.05789" lon="7.13207">
        <ele>601</ele>
        <time>2022-04-06T11:37:03Z</time>
      </trkpt>
      <trkpt lat="48.0569" lon="7.13145">
        <ele>588</ele>
        <time>2022-04-06T11:37:22Z</time>
      </trkpt>
      <trkpt lat="48.05678" lon="7.13141">
        <ele>588</ele>
        <time>2022-04-06T11:37:24Z</time>
      </trkpt>
      <trkpt lat="48.0567" lon="7.1314">
        <ele>588</ele>
        <time>2022-04-06T11:37:26Z</time>
      </trkpt>
      <trkpt lat="48.05569" lon="7.1315">
        <ele>583</ele>
        <time>2022-04-06T11:37:44Z</time>
      </trkpt>
      <trkpt lat="48.05556" lon="7.13153">
        <ele>582</ele>
        <time>2022-04-06T11:37:46Z</time>
      </trkpt>
      <trkpt lat="48.05546" lon="7.1316">
        <ele>581</ele>
        <time>2022-04-06T11:37:48Z</time>
      </trkpt>
      <trkpt lat="48.05535" lon="7.13177">
        <ele>580</ele>
        <time>2022-04-06T11:37:51Z</time>
      </trkpt>
      <trkpt lat="48.05532" lon="7.13198">
        <ele>580</ele>
        <time>2022-04-06T11:37:53Z</time>
      </trkpt>
      <trkpt lat="48.05534" lon="7.13212">
        <ele>580</ele>
        <time>2022-04-06T11:37:55Z</time>
      </trkpt>
      <trkpt lat="48.05542" lon="7.13237">
        <ele>581</ele>
        <time>2022-04-06T11:37:58Z</time>
      </trkpt>
      <trkpt lat="48.05542" lon="7.13249">
        <ele>581</ele>
        <time>2022-04-06T11:38:00Z</time>
      </trkpt>
      <trkpt lat="48.0554" lon="7.13253">
        <ele>580</ele>
        <time>2022-04-06T11:38:01Z</time>
      </trkpt>
      <trkpt lat="48.05535" lon="7.13257">
        <ele>579</ele>
        <time>2022-04-06T11:38:02Z</time>
      </trkpt>
      <trkpt lat="48.05528" lon="7.13255">
        <ele>577</ele>
        <time>2022-04-06T11:38:03Z</time>
      </trkpt>
      <trkpt lat="48.05523" lon="7.13249">
        <ele>577</ele>
        <time>2022-04-06T11:38:04Z</time>
      </trkpt>
      <trkpt lat="48.05497" lon="7.13189">
        <ele>574</ele>
        <time>2022-04-06T11:38:12Z</time>
      </trkpt>
      <trkpt lat="48.05492" lon="7.13169">
        <ele>573</ele>
        <time>2022-04-06T11:38:15Z</time>
      </trkpt>
      <trkpt lat="48.05489" lon="7.13149">
        <ele>572</ele>
        <time>2022-04-06T11:38:17Z</time>
      </trkpt>
      <trkpt lat="48.05491" lon="7.13123">
        <ele>571</ele>
        <time>2022-04-06T11:38:21Z</time>
      </trkpt>
      <trkpt lat="48.05496" lon="7.13102">
        <ele>571</ele>
        <time>2022-04-06T11:38:23Z</time>
      </trkpt>
      <trkpt lat="48.05508" lon="7.13076">
        <ele>569</ele>
        <time>2022-04-06T11:38:27Z</time>
      </trkpt>
      <trkpt lat="48.05521" lon="7.13058">
        <ele>566</ele>
        <time>2022-04-06T11:38:30Z</time>
      </trkpt>
      <trkpt lat="48.05528" lon="7.13053">
        <ele>565</ele>
        <time>2022-04-06T11:38:31Z</time>
      </trkpt>
      <trkpt lat="48.05535" lon="7.13049">
        <ele>564</ele>
        <time>2022-04-06T11:38:33Z</time>
      </trkpt>
      <trkpt lat="48.05539" lon="7.13048">
        <ele>564</ele>
        <time>2022-04-06T11:38:34Z</time>
      </trkpt>
      <trkpt lat="48.05558" lon="7.13044">
        <ele>563</ele>
        <time>2022-04-06T11:38:37Z</time>
      </trkpt>
      <trkpt lat="48.05616" lon="7.1304">
        <ele>560</ele>
        <time>2022-04-06T11:38:47Z</time>
      </trkpt>
      <trkpt lat="48.05644" lon="7.13038">
        <ele>559</ele>
        <time>2022-04-06T11:38:52Z</time>
      </trkpt>
      <trkpt lat="48.05667" lon="7.13034">
        <ele>557</ele>
        <time>2022-04-06T11:38:56Z</time>
      </trkpt>
      <trkpt lat="48.05697" lon="7.1303">
        <ele>556</ele>
        <time>2022-04-06T11:39:02Z</time>
      </trkpt>
      <trkpt lat="48.05735" lon="7.13027">
        <ele>555</ele>
        <time>2022-04-06T11:39:08Z</time>
      </trkpt>
      <trkpt lat="48.05756" lon="7.13032">
        <ele>556</ele>
        <time>2022-04-06T11:39:12Z</time>
      </trkpt>
      <trkpt lat="48.05787" lon="7.13043">
        <ele>561</ele>
        <time>2022-04-06T11:39:18Z</time>
      </trkpt>
      <trkpt lat="48.05795" lon="7.13043">
        <ele>561</ele>
        <time>2022-04-06T11:39:19Z</time>
      </trkpt>
      <trkpt lat="48.058" lon="7.1304">
        <ele>561</ele>
        <time>2022-04-06T11:39:20Z</time>
      </trkpt>
      <trkpt lat="48.05804" lon="7.13032">
        <ele>561</ele>
        <time>2022-04-06T11:39:22Z</time>
      </trkpt>
      <trkpt lat="48.05804" lon="7.13024">
        <ele>560</ele>
        <time>2022-04-06T11:39:22Z</time>
      </trkpt>
      <trkpt lat="48.058" lon="7.13017">
        <ele>559</ele>
        <time>2022-04-06T11:39:24Z</time>
      </trkpt>
      <trkpt lat="48.05792" lon="7.13014">
        <ele>558</ele>
        <time>2022-04-06T11:39:25Z</time>
      </trkpt>
      <trkpt lat="48.05786" lon="7.13011">
        <ele>557</ele>
        <time>2022-04-06T11:39:26Z</time>
      </trkpt>
      <trkpt lat="48.05691" lon="7.12991">
        <ele>546</ele>
        <time>2022-04-06T11:39:43Z</time>
      </trkpt>
      <trkpt lat="48.05664" lon="7.1298">
        <ele>543</ele>
        <time>2022-04-06T11:39:48Z</time>
      </trkpt>
      <trkpt lat="48.05616" lon="7.12955">
        <ele>538</ele>
        <time>2022-04-06T11:39:57Z</time>
      </trkpt>
      <trkpt lat="48.05594" lon="7.1294">
        <ele>534</ele>
        <time>2022-04-06T11:40:02Z</time>
      </trkpt>
      <trkpt lat="48.05576" lon="7.12923">
        <ele>530</ele>
        <time>2022-04-06T11:40:05Z</time>
      </trkpt>
      <trkpt lat="48.05523" lon="7.1286">
        <ele>525</ele>
        <time>2022-04-06T11:40:17Z</time>
      </trkpt>
      <trkpt lat="48.05498" lon="7.12834">
        <ele>518</ele>
        <time>2022-04-06T11:40:23Z</time>
      </trkpt>
      <trkpt lat="48.05482" lon="7.12821">
        <ele>516</ele>
        <time>2022-04-06T11:40:26Z</time>
      </trkpt>
      <trkpt lat="48.05459" lon="7.12809">
        <ele>515</ele>
        <time>2022-04-06T11:40:30Z</time>
      </trkpt>
      <trkpt lat="48.0545" lon="7.12806">
        <ele>514</ele>
        <time>2022-04-06T11:40:32Z</time>
      </trkpt>
      <trkpt lat="48.05412" lon="7.12796">
        <ele>513</ele>
        <time>2022-04-06T11:40:39Z</time>
      </trkpt>
      <trkpt lat="48.05376" lon="7.12777">
        <ele>512</ele>
        <time>2022-04-06T11:40:46Z</time>
      </trkpt>
      <trkpt lat="48.05341" lon="7.1275">
        <ele>510</ele>
        <time>2022-04-06T11:40:53Z</time>
      </trkpt>
      <trkpt lat="48.05336" lon="7.12741">
        <ele>509</ele>
        <time>2022-04-06T11:40:54Z</time>
      </trkpt>
      <trkpt lat="48.05335" lon="7.12733">
        <ele>507</ele>
        <time>2022-04-06T11:40:55Z</time>
      </trkpt>
      <trkpt lat="48.05336" lon="7.12732">
        <ele>507</ele>
        <time>2022-04-06T11:40:55Z</time>
      </trkpt>
      <trkpt lat="48.05336" lon="7.1273">
        <ele>507</ele>
        <time>2022-04-06T11:40:55Z</time>
      </trkpt>
      <trkpt lat="48.0534" lon="7.12724">
        <ele>505</ele>
        <time>2022-04-06T11:40:56Z</time>
      </trkpt>
      <trkpt lat="48.05347" lon="7.12723">
        <ele>504</ele>
        <time>2022-04-06T11:40:58Z</time>
      </trkpt>
      <trkpt lat="48.05375" lon="7.1275">
        <ele>505</ele>
        <time>2022-04-06T11:41:04Z</time>
      </trkpt>
      <trkpt lat="48.05384" lon="7.12755">
        <ele>506</ele>
        <time>2022-04-06T11:41:05Z</time>
      </trkpt>
      <trkpt lat="48.05397" lon="7.12756">
        <ele>504</ele>
        <time>2022-04-06T11:41:08Z</time>
      </trkpt>
      <trkpt lat="48.05413" lon="7.12751">
        <ele>501</ele>
        <time>2022-04-06T11:41:11Z</time>
      </trkpt>
      <trkpt lat="48.05426" lon="7.12746">
        <ele>500</ele>
        <time>2022-04-06T11:41:13Z</time>
      </trkpt>
      <trkpt lat="48.05453" lon="7.12735">
        <ele>499</ele>
        <time>2022-04-06T11:41:18Z</time>
      </trkpt>
      <trkpt lat="48.05455" lon="7.12735">
        <ele>499</ele>
        <time>2022-04-06T11:41:18Z</time>
      </trkpt>
      <trkpt lat="48.05457" lon="7.12734">
        <ele>499</ele>
        <time>2022-04-06T11:41:19Z</time>
      </trkpt>
      <trkpt lat="48.05492" lon="7.12733">
        <ele>501</ele>
        <time>2022-04-06T11:41:25Z</time>
      </trkpt>
      <trkpt lat="48.05493" lon="7.12732">
        <ele>501</ele>
        <time>2022-04-06T11:41:25Z</time>
      </trkpt>
      <trkpt lat="48.05494" lon="7.1273">
        <ele>501</ele>
        <time>2022-04-06T11:41:25Z</time>
      </trkpt>
      <trkpt lat="48.05496" lon="7.12722">
        <ele>501</ele>
        <time>2022-04-06T11:41:26Z</time>
      </trkpt>
      <trkpt lat="48.0549" lon="7.12707">
        <ele>500</ele>
        <time>2022-04-06T11:41:29Z</time>
      </trkpt>
      <trkpt lat="48.05482" lon="7.12693">
        <ele>498</ele>
        <time>2022-04-06T11:41:31Z</time>
      </trkpt>
      <trkpt lat="48.05463" lon="7.12665">
        <ele>494</ele>
        <time>2022-04-06T11:41:35Z</time>
      </trkpt>
      <trkpt lat="48.05454" lon="7.12646">
        <ele>492</ele>
        <time>2022-04-06T11:41:38Z</time>
      </trkpt>
      <trkpt lat="48.05447" lon="7.12624">
        <ele>491</ele>
        <time>2022-04-06T11:41:41Z</time>
      </trkpt>
      <trkpt lat="48.05442" lon="7.12569">
        <ele>491</ele>
        <time>2022-04-06T11:41:48Z</time>
      </trkpt>
      <trkpt lat="48.0544" lon="7.12533">
        <ele>491</ele>
        <time>2022-04-06T11:41:52Z</time>
      </trkpt>
      <trkpt lat="48.0544" lon="7.12529">
        <ele>491</ele>
        <time>2022-04-06T11:41:53Z</time>
      </trkpt>
      <trkpt lat="48.05436" lon="7.12518">
        <ele>491</ele>
        <time>2022-04-06T11:41:54Z</time>
      </trkpt>
      <trkpt lat="48.05428" lon="7.12503">
        <ele>489</ele>
        <time>2022-04-06T11:41:56Z</time>
      </trkpt>
      <trkpt lat="48.05406" lon="7.1247">
        <ele>484</ele>
        <time>2022-04-06T11:42:02Z</time>
      </trkpt>
      <trkpt lat="48.05379" lon="7.1244">
        <ele>479</ele>
        <time>2022-04-06T11:42:08Z</time>
      </trkpt>
      <trkpt lat="48.05375" lon="7.12428">
        <ele>478</ele>
        <time>2022-04-06T11:42:09Z</time>
      </trkpt>
      <trkpt lat="48.05376" lon="7.12406">
        <ele>477</ele>
        <time>2022-04-06T11:42:12Z</time>
      </trkpt>
      <trkpt lat="48.05389" lon="7.12335">
        <ele>474</ele>
        <time>2022-04-06T11:42:21Z</time>
      </trkpt>
      <trkpt lat="48.05395" lon="7.12323">
        <ele>474</ele>
        <time>2022-04-06T11:42:23Z</time>
      </trkpt>
      <trkpt lat="48.05411" lon="7.12302">
        <ele>474</ele>
        <time>2022-04-06T11:42:26Z</time>
      </trkpt>
      <trkpt lat="48.05412" lon="7.1229">
        <ele>473</ele>
        <time>2022-04-06T11:42:28Z</time>
      </trkpt>
      <trkpt lat="48.05406" lon="7.12278">
        <ele>470</ele>
        <time>2022-04-06T11:42:30Z</time>
      </trkpt>
      <trkpt lat="48.05398" lon="7.12276">
        <ele>469</ele>
        <time>2022-04-06T11:42:31Z</time>
      </trkpt>
      <trkpt lat="48.05391" lon="7.1228">
        <ele>468</ele>
        <time>2022-04-06T11:42:32Z</time>
      </trkpt>
      <trkpt lat="48.05372" lon="7.12299">
        <ele>468</ele>
        <time>2022-04-06T11:42:36Z</time>
      </trkpt>
      <trkpt lat="48.05313" lon="7.12367">
        <ele>464</ele>
        <time>2022-04-06T11:42:50Z</time>
      </trkpt>
      <trkpt lat="48.05301" lon="7.12386">
        <ele>464</ele>
        <time>2022-04-06T11:42:53Z</time>
      </trkpt>
      <trkpt lat="48.05284" lon="7.12418">
        <ele>465</ele>
        <time>2022-04-06T11:42:58Z</time>
      </trkpt>
      <trkpt lat="48.05273" lon="7.12425">
        <ele>465</ele>
        <time>2022-04-06T11:43:00Z</time>
      </trkpt>
      <trkpt lat="48.05268" lon="7.12425">
        <ele>465</ele>
        <time>2022-04-06T11:43:01Z</time>
      </trkpt>
      <trkpt lat="48.05264" lon="7.12425">
        <ele>465</ele>
        <time>2022-04-06T11:43:01Z</time>
      </trkpt>
      <trkpt lat="48.05254" lon="7.12417">
        <ele>463</ele>
        <time>2022-04-06T11:43:03Z</time>
      </trkpt>
      <trkpt lat="48.05236" lon="7.12377">
        <ele>459</ele>
        <time>2022-04-06T11:43:09Z</time>
      </trkpt>
      <trkpt lat="48.05216" lon="7.12347">
        <ele>454</ele>
        <time>2022-04-06T11:43:14Z</time>
      </trkpt>
      <trkpt lat="48.05201" lon="7.12328">
        <ele>451</ele>
        <time>2022-04-06T11:43:18Z</time>
      </trkpt>
      <trkpt lat="48.05175" lon="7.12307">
        <ele>448</ele>
        <time>2022-04-06T11:43:23Z</time>
      </trkpt>
      <trkpt lat="48.05165" lon="7.12295">
        <ele>446</ele>
        <time>2022-04-06T11:43:25Z</time>
      </trkpt>
      <trkpt lat="48.05137" lon="7.12254">
        <ele>445</ele>
        <time>2022-04-06T11:43:32Z</time>
      </trkpt>
      <trkpt lat="48.05098" lon="7.1219">
        <ele>441</ele>
        <time>2022-04-06T11:43:42Z</time>
      </trkpt>
      <trkpt lat="48.05048" lon="7.12099">
        <ele>433</ele>
        <time>2022-04-06T11:43:56Z</time>
      </trkpt>
      <trkpt lat="48.05032" lon="7.12076">
        <ele>432</ele>
        <time>2022-04-06T11:44:00Z</time>
      </trkpt>
      <trkpt lat="48.05015" lon="7.12054">
        <ele>431</ele>
        <time>2022-04-06T11:44:04Z</time>
      </trkpt>
      <trkpt lat="48.05001" lon="7.12038">
        <ele>429</ele>
        <time>2022-04-06T11:44:08Z</time>
      </trkpt>
      <trkpt lat="48.04976" lon="7.12017">
        <ele>425</ele>
        <time>2022-04-06T11:44:13Z</time>
      </trkpt>
      <trkpt lat="48.04909" lon="7.11978">
        <ele>420</ele>
        <time>2022-04-06T11:44:25Z</time>
      </trkpt>
      <trkpt lat="48.04847" lon="7.11945">
        <ele>412</ele>
        <time>2022-04-06T11:44:37Z</time>
      </trkpt>
      <trkpt lat="48.04834" lon="7.11938">
        <ele>411</ele>
        <time>2022-04-06T11:44:40Z</time>
      </trkpt>
      <trkpt lat="48.04815" lon="7.11924">
        <ele>411</ele>
        <time>2022-04-06T11:44:43Z</time>
      </trkpt>
      <trkpt lat="48.04798" lon="7.119">
        <ele>412</ele>
        <time>2022-04-06T11:44:48Z</time>
      </trkpt>
      <trkpt lat="48.04792" lon="7.1189">
        <ele>412</ele>
        <time>2022-04-06T11:44:49Z</time>
      </trkpt>
      <trkpt lat="48.04789" lon="7.11888">
        <ele>413</ele>
        <time>2022-04-06T11:44:50Z</time>
      </trkpt>
      <trkpt lat="48.0478" lon="7.11917">
        <ele>412</ele>
        <time>2022-04-06T11:44:54Z</time>
      </trkpt>
      <trkpt lat="48.04769" lon="7.1195">
        <ele>412</ele>
        <time>2022-04-06T11:44:58Z</time>
      </trkpt>
      <trkpt lat="48.04761" lon="7.11974">
        <ele>412</ele>
        <time>2022-04-06T11:45:01Z</time>
      </trkpt>
      <trkpt lat="48.04757" lon="7.11986">
        <ele>411</ele>
        <time>2022-04-06T11:45:03Z</time>
      </trkpt>
      <trkpt lat="48.04742" lon="7.12034">
        <ele>411</ele>
        <time>2022-04-06T11:45:09Z</time>
      </trkpt>
      <trkpt lat="48.04732" lon="7.12065">
        <ele>410</ele>
        <time>2022-04-06T11:45:13Z</time>
      </trkpt>
      <trkpt lat="48.04721" lon="7.12092">
        <ele>410</ele>
        <time>2022-04-06T11:45:17Z</time>
      </trkpt>
      <trkpt lat="48.04705" lon="7.12121">
        <ele>409</ele>
        <time>2022-04-06T11:45:21Z</time>
      </trkpt>
      <trkpt lat="48.04675" lon="7.12171">
        <ele>409</ele>
        <time>2022-04-06T11:45:29Z</time>
      </trkpt>
      <trkpt lat="48.04649" lon="7.12214">
        <ele>408</ele>
        <time>2022-04-06T11:45:36Z</time>
      </trkpt>
      <trkpt lat="48.04613" lon="7.12273">
        <ele>407</ele>
        <time>2022-04-06T11:45:46Z</time>
      </trkpt>
      <trkpt lat="48.04551" lon="7.12374">
        <ele>406</ele>
        <time>2022-04-06T11:46:02Z</time>
      </trkpt>
      <trkpt lat="48.04543" lon="7.12387">
        <ele>406</ele>
        <time>2022-04-06T11:46:04Z</time>
      </trkpt>
      <trkpt lat="48.04516" lon="7.12438">
        <ele>405</ele>
        <time>2022-04-06T11:46:12Z</time>
      </trkpt>
      <trkpt lat="48.04495" lon="7.12501">
        <ele>403</ele>
        <time>2022-04-06T11:46:20Z</time>
      </trkpt>
      <trkpt lat="48.04446" lon="7.12624">
        <ele>400</ele>
        <time>2022-04-06T11:46:37Z</time>
      </trkpt>
      <trkpt lat="48.04415" lon="7.12682">
        <ele>399</ele>
        <time>2022-04-06T11:46:46Z</time>
      </trkpt>
      <trkpt lat="48.04354" lon="7.1277">
        <ele>396</ele>
        <time>2022-04-06T11:47:01Z</time>
      </trkpt>
      <trkpt lat="48.04309" lon="7.12832">
        <ele>395</ele>
        <time>2022-04-06T11:47:12Z</time>
      </trkpt>
      <trkpt lat="48.04293" lon="7.12859">
        <ele>395</ele>
        <time>2022-04-06T11:47:16Z</time>
      </trkpt>
      <trkpt lat="48.04283" lon="7.1288">
        <ele>395</ele>
        <time>2022-04-06T11:47:19Z</time>
      </trkpt>
      <trkpt lat="48.04214" lon="7.13086">
        <ele>391</ele>
        <time>2022-04-06T11:47:47Z</time>
      </trkpt>
      <trkpt lat="48.04188" lon="7.13158">
        <ele>391</ele>
        <time>2022-04-06T11:47:57Z</time>
      </trkpt>
      <trkpt lat="48.04176" lon="7.1319">
        <ele>390</ele>
        <time>2022-04-06T11:48:01Z</time>
      </trkpt>
      <trkpt lat="48.04164" lon="7.13216">
        <ele>390</ele>
        <time>2022-04-06T11:48:05Z</time>
      </trkpt>
      <trkpt lat="48.04158" lon="7.13225">
        <ele>389</ele>
        <time>2022-04-06T11:48:06Z</time>
      </trkpt>
      <trkpt lat="48.04113" lon="7.1319">
        <ele>389</ele>
        <time>2022-04-06T11:48:15Z</time>
      </trkpt>
      <trkpt lat="48.04099" lon="7.13169">
        <ele>389</ele>
        <time>2022-04-06T11:48:19Z</time>
      </trkpt>
      <trkpt lat="48.04054" lon="7.13071">
        <ele>391</ele>
        <time>2022-04-06T11:48:33Z</time>
      </trkpt>
      <trkpt lat="48.0398" lon="7.12877">
        <ele>396</ele>
        <time>2022-04-06T11:48:59Z</time>
      </trkpt>
      <trkpt lat="48.03982" lon="7.12872">
        <ele>397</ele>
        <time>2022-04-06T11:49:00Z</time>
      </trkpt>
      <trkpt lat="48.03981" lon="7.12865">
        <ele>397</ele>
        <time>2022-04-06T11:49:01Z</time>
      </trkpt>
      <trkpt lat="48.03979" lon="7.12859">
        <ele>397</ele>
        <time>2022-04-06T11:49:02Z</time>
      </trkpt>
      <trkpt lat="48.03974" lon="7.12857">
        <ele>396</ele>
        <time>2022-04-06T11:49:03Z</time>
      </trkpt>
      <trkpt lat="48.0397" lon="7.12858">
        <ele>396</ele>
        <time>2022-04-06T11:49:03Z</time>
      </trkpt>
      <trkpt lat="48.03951" lon="7.12798">
        <ele>396</ele>
        <time>2022-04-06T11:49:11Z</time>
      </trkpt>
      <trkpt lat="48.03934" lon="7.12755">
        <ele>395</ele>
        <time>2022-04-06T11:49:17Z</time>
      </trkpt>
      <trkpt lat="48.03864" lon="7.12617">
        <ele>399</ele>
        <time>2022-04-06T11:49:38Z</time>
      </trkpt>
      <trkpt lat="48.03847" lon="7.12579">
        <ele>399</ele>
        <time>2022-04-06T11:49:43Z</time>
      </trkpt>
      <trkpt lat="48.03831" lon="7.12548">
        <ele>398</ele>
        <time>2022-04-06T11:49:48Z</time>
      </trkpt>
      <trkpt lat="48.03787" lon="7.12476">
        <ele>399</ele>
        <time>2022-04-06T11:50:00Z</time>
      </trkpt>
      <trkpt lat="48.03771" lon="7.12436">
        <ele>400</ele>
        <time>2022-04-06T11:50:05Z</time>
      </trkpt>
      <trkpt lat="48.03764" lon="7.12411">
        <ele>400</ele>
        <time>2022-04-06T11:50:08Z</time>
      </trkpt>
      <trkpt lat="48.03698" lon="7.12113">
        <ele>404</ele>
        <time>2022-04-06T11:50:46Z</time>
      </trkpt>
      <trkpt lat="48.03684" lon="7.1206">
        <ele>406</ele>
        <time>2022-04-06T11:50:53Z</time>
      </trkpt>
      <trkpt lat="48.03673" lon="7.12025">
        <ele>406</ele>
        <time>2022-04-06T11:50:57Z</time>
      </trkpt>
      <trkpt lat="48.03651" lon="7.11977">
        <ele>408</ele>
        <time>2022-04-06T11:51:04Z</time>
      </trkpt>
      <trkpt lat="48.03641" lon="7.11958">
        <ele>409</ele>
        <time>2022-04-06T11:51:07Z</time>
      </trkpt>
      <trkpt lat="48.03628" lon="7.11938">
        <ele>409</ele>
        <time>2022-04-06T11:51:10Z</time>
      </trkpt>
      <trkpt lat="48.03602" lon="7.11902">
        <ele>408</ele>
        <time>2022-04-06T11:51:17Z</time>
      </trkpt>
      <trkpt lat="48.03594" lon="7.11912">
        <ele>405</ele>
        <time>2022-04-06T11:51:18Z</time>
      </trkpt>
      <trkpt lat="48.03568" lon="7.11922">
        <ele>402</ele>
        <time>2022-04-06T11:51:23Z</time>
      </trkpt>
      <trkpt lat="48.03553" lon="7.11929">
        <ele>401</ele>
        <time>2022-04-06T11:51:26Z</time>
      </trkpt>
      <trkpt lat="48.03548" lon="7.11932">
        <ele>401</ele>
        <time>2022-04-06T11:51:27Z</time>
      </trkpt>
      <trkpt lat="48.03536" lon="7.1194">
        <ele>400</ele>
        <time>2022-04-06T11:51:29Z</time>
      </trkpt>
      <trkpt lat="48.03503" lon="7.11962">
        <ele>399</ele>
        <time>2022-04-06T11:51:36Z</time>
      </trkpt>
      <trkpt lat="48.03477" lon="7.11972">
        <ele>399</ele>
        <time>2022-04-06T11:51:40Z</time>
      </trkpt>
      <trkpt lat="48.03417" lon="7.11991">
        <ele>400</ele>
        <time>2022-04-06T11:51:51Z</time>
      </trkpt>
      <trkpt lat="48.0336" lon="7.12008">
        <ele>399</ele>
        <time>2022-04-06T11:52:02Z</time>
      </trkpt>
      <trkpt lat="48.03337" lon="7.12011">
        <ele>398</ele>
        <time>2022-04-06T11:52:06Z</time>
      </trkpt>
      <trkpt lat="48.03331" lon="7.12007">
        <ele>398</ele>
        <time>2022-04-06T11:52:07Z</time>
      </trkpt>
      <trkpt lat="48.03309" lon="7.11963">
        <ele>398</ele>
        <time>2022-04-06T11:52:14Z</time>
      </trkpt>
      <trkpt lat="48.03303" lon="7.11953">
        <ele>399</ele>
        <time>2022-04-06T11:52:15Z</time>
      </trkpt>
      <trkpt lat="48.03304" lon="7.11939">
        <ele>399</ele>
        <time>2022-04-06T11:52:17Z</time>
      </trkpt>
      <trkpt lat="48.03299" lon="7.1193">
        <ele>399</ele>
        <time>2022-04-06T11:52:18Z</time>
      </trkpt>
      <trkpt lat="48.0329" lon="7.11924">
        <ele>399</ele>
        <time>2022-04-06T11:52:20Z</time>
      </trkpt>
      <trkpt lat="48.03291" lon="7.11948">
        <ele>399</ele>
        <time>2022-04-06T11:52:23Z</time>
      </trkpt>
      <trkpt lat="48.03287" lon="7.11947">
        <ele>399</ele>
        <time>2022-04-06T11:52:24Z</time>
      </trkpt>
      <trkpt lat="48.03268" lon="7.11941">
        <ele>399</ele>
        <time>2022-04-06T11:52:27Z</time>
      </trkpt>
      <trkpt lat="48.03251" lon="7.11931">
        <ele>399</ele>
        <time>2022-04-06T11:52:30Z</time>
      </trkpt>
      <trkpt lat="48.03238" lon="7.11921">
        <ele>401</ele>
        <time>2022-04-06T11:52:33Z</time>
      </trkpt>
      <trkpt lat="48.03232" lon="7.11911">
        <ele>402</ele>
        <time>2022-04-06T11:52:34Z</time>
      </trkpt>
      <trkpt lat="48.03224" lon="7.11897">
        <ele>403</ele>
        <time>2022-04-06T11:52:37Z</time>
      </trkpt>
      <trkpt lat="48.03213" lon="7.11886">
        <ele>404</ele>
        <time>2022-04-06T11:52:39Z</time>
      </trkpt>
      <trkpt lat="48.03203" lon="7.11879">
        <ele>406</ele>
        <time>2022-04-06T11:52:41Z</time>
      </trkpt>
      <trkpt lat="48.03186" lon="7.11872">
        <ele>408</ele>
        <time>2022-04-06T11:52:44Z</time>
      </trkpt>
      <trkpt lat="48.03166" lon="7.11863">
        <ele>410</ele>
        <time>2022-04-06T11:52:48Z</time>
      </trkpt>
      <trkpt lat="48.03151" lon="7.11855">
        <ele>411</ele>
        <time>2022-04-06T11:52:51Z</time>
      </trkpt>
      <trkpt lat="48.03144" lon="7.11857">
        <ele>412</ele>
        <time>2022-04-06T11:52:52Z</time>
      </trkpt>
      <trkpt lat="48.03134" lon="7.11861">
        <ele>413</ele>
        <time>2022-04-06T11:52:54Z</time>
      </trkpt>
      <trkpt lat="48.03128" lon="7.11864">
        <ele>414</ele>
        <time>2022-04-06T11:52:55Z</time>
      </trkpt>
      <trkpt lat="48.03113" lon="7.11868">
        <ele>416</ele>
        <time>2022-04-06T11:52:58Z</time>
      </trkpt>
      <trkpt lat="48.03098" lon="7.11874">
        <ele>417</ele>
        <time>2022-04-06T11:53:00Z</time>
      </trkpt>
      <trkpt lat="48.03086" lon="7.11884">
        <ele>419</ele>
        <time>2022-04-06T11:53:03Z</time>
      </trkpt>
      <trkpt lat="48.03075" lon="7.11899">
        <ele>420</ele>
        <time>2022-04-06T11:53:05Z</time>
      </trkpt>
      <trkpt lat="48.03058" lon="7.11928">
        <ele>423</ele>
        <time>2022-04-06T11:53:10Z</time>
      </trkpt>
      <trkpt lat="48.03051" lon="7.11944">
        <ele>425</ele>
        <time>2022-04-06T11:53:12Z</time>
      </trkpt>
      <trkpt lat="48.03026" lon="7.11985">
        <ele>431</ele>
        <time>2022-04-06T11:53:19Z</time>
      </trkpt>
      <trkpt lat="48.03018" lon="7.11993">
        <ele>433</ele>
        <time>2022-04-06T11:53:21Z</time>
      </trkpt>
      <trkpt lat="48.03006" lon="7.11996">
        <ele>436</ele>
        <time>2022-04-06T11:53:23Z</time>
      </trkpt>
      <trkpt lat="48.02986" lon="7.11999">
        <ele>438</ele>
        <time>2022-04-06T11:53:26Z</time>
      </trkpt>
      <trkpt lat="48.02948" lon="7.12004">
        <ele>441</ele>
        <time>2022-04-06T11:53:33Z</time>
      </trkpt>
      <trkpt lat="48.02929" lon="7.12012">
        <ele>444</ele>
        <time>2022-04-06T11:53:37Z</time>
      </trkpt>
      <trkpt lat="48.02909" lon="7.12026">
        <ele>449</ele>
        <time>2022-04-06T11:53:41Z</time>
      </trkpt>
      <trkpt lat="48.02892" lon="7.12042">
        <ele>453</ele>
        <time>2022-04-06T11:53:44Z</time>
      </trkpt>
      <trkpt lat="48.02889" lon="7.12051">
        <ele>455</ele>
        <time>2022-04-06T11:53:45Z</time>
      </trkpt>
      <trkpt lat="48.0289" lon="7.12057">
        <ele>456</ele>
        <time>2022-04-06T11:53:46Z</time>
      </trkpt>
      <trkpt lat="48.02895" lon="7.12061">
        <ele>457</ele>
        <time>2022-04-06T11:53:47Z</time>
      </trkpt>
      <trkpt lat="48.02907" lon="7.12057">
        <ele>456</ele>
        <time>2022-04-06T11:53:49Z</time>
      </trkpt>
      <trkpt lat="48.02921" lon="7.12048">
        <ele>453</ele>
        <time>2022-04-06T11:53:52Z</time>
      </trkpt>
      <trkpt lat="48.02931" lon="7.12046">
        <ele>452</ele>
        <time>2022-04-06T11:53:54Z</time>
      </trkpt>
      <trkpt lat="48.02942" lon="7.12046">
        <ele>451</ele>
        <time>2022-04-06T11:53:56Z</time>
      </trkpt>
      <trkpt lat="48.02958" lon="7.12052">
        <ele>451</ele>
        <time>2022-04-06T11:53:59Z</time>
      </trkpt>
      <trkpt lat="48.02975" lon="7.12065">
        <ele>452</ele>
        <time>2022-04-06T11:54:02Z</time>
      </trkpt>
      <trkpt lat="48.03023" lon="7.12123">
        <ele>459</ele>
        <time>2022-04-06T11:54:13Z</time>
      </trkpt>
      <trkpt lat="48.03036" lon="7.12142">
        <ele>458</ele>
        <time>2022-04-06T11:54:16Z</time>
      </trkpt>
      <trkpt lat="48.03053" lon="7.12192">
        <ele>462</ele>
        <time>2022-04-06T11:54:23Z</time>
      </trkpt>
      <trkpt lat="48.03056" lon="7.12212">
        <ele>465</ele>
        <time>2022-04-06T11:54:25Z</time>
      </trkpt>
      <trkpt lat="48.03058" lon="7.1225">
        <ele>472</ele>
        <time>2022-04-06T11:54:30Z</time>
      </trkpt>
      <trkpt lat="48.03059" lon="7.12262">
        <ele>474</ele>
        <time>2022-04-06T11:54:31Z</time>
      </trkpt>
      <trkpt lat="48.03073" lon="7.12314">
        <ele>474</ele>
        <time>2022-04-06T11:54:38Z</time>
      </trkpt>
      <trkpt lat="48.03075" lon="7.12336">
        <ele>476</ele>
        <time>2022-04-06T11:54:41Z</time>
      </trkpt>
      <trkpt lat="48.03066" lon="7.12421">
        <ele>488</ele>
        <time>2022-04-06T11:54:51Z</time>
      </trkpt>
      <trkpt lat="48.03055" lon="7.12479">
        <ele>500</ele>
        <time>2022-04-06T11:54:58Z</time>
      </trkpt>
      <trkpt lat="48.03052" lon="7.12535">
        <ele>504</ele>
        <time>2022-04-06T11:55:05Z</time>
      </trkpt>
      <trkpt lat="48.03055" lon="7.12584">
        <ele>504</ele>
        <time>2022-04-06T11:55:11Z</time>
      </trkpt>
      <trkpt lat="48.03052" lon="7.12618">
        <ele>504</ele>
        <time>2022-04-06T11:55:15Z</time>
      </trkpt>
      <trkpt lat="48.03046" lon="7.12641">
        <ele>507</ele>
        <time>2022-04-06T11:55:18Z</time>
      </trkpt>
      <trkpt lat="48.03029" lon="7.12681">
        <ele>513</ele>
        <time>2022-04-06T11:55:23Z</time>
      </trkpt>
      <trkpt lat="48.02997" lon="7.1275">
        <ele>520</ele>
        <time>2022-04-06T11:55:33Z</time>
      </trkpt>
      <trkpt lat="48.0299" lon="7.1276">
        <ele>520</ele>
        <time>2022-04-06T11:55:35Z</time>
      </trkpt>
      <trkpt lat="48.0298" lon="7.12765">
        <ele>522</ele>
        <time>2022-04-06T11:55:37Z</time>
      </trkpt>
      <trkpt lat="48.02976" lon="7.12764">
        <ele>524</ele>
        <time>2022-04-06T11:55:38Z</time>
      </trkpt>
      <trkpt lat="48.02972" lon="7.1276">
        <ele>526</ele>
        <time>2022-04-06T11:55:38Z</time>
      </trkpt>
      <trkpt lat="48.02971" lon="7.12753">
        <ele>528</ele>
        <time>2022-04-06T11:55:39Z</time>
      </trkpt>
      <trkpt lat="48.02973" lon="7.12743">
        <ele>529</ele>
        <time>2022-04-06T11:55:41Z</time>
      </trkpt>
      <trkpt lat="48.02985" lon="7.12705">
        <ele>529</ele>
        <time>2022-04-06T11:55:46Z</time>
      </trkpt>
      <trkpt lat="48.02994" lon="7.12656">
        <ele>532</ele>
        <time>2022-04-06T11:55:52Z</time>
      </trkpt>
      <trkpt lat="48.02997" lon="7.12628">
        <ele>532</ele>
        <time>2022-04-06T11:55:55Z</time>
      </trkpt>
      <trkpt lat="48.02997" lon="7.12595">
        <ele>533</ele>
        <time>2022-04-06T11:55:59Z</time>
      </trkpt>
      <trkpt lat="48.02983" lon="7.12531">
        <ele>536</ele>
        <time>2022-04-06T11:56:07Z</time>
      </trkpt>
      <trkpt lat="48.02975" lon="7.12448">
        <ele>533</ele>
        <time>2022-04-06T11:56:17Z</time>
      </trkpt>
      <trkpt lat="48.02962" lon="7.12408">
        <ele>532</ele>
        <time>2022-04-06T11:56:22Z</time>
      </trkpt>
      <trkpt lat="48.02954" lon="7.12397">
        <ele>533</ele>
        <time>2022-04-06T11:56:24Z</time>
      </trkpt>
      <trkpt lat="48.0295" lon="7.12394">
        <ele>533</ele>
        <time>2022-04-06T11:56:25Z</time>
      </trkpt>
      <trkpt lat="48.02946" lon="7.12393">
        <ele>534</ele>
        <time>2022-04-06T11:56:26Z</time>
      </trkpt>
      <trkpt lat="48.0294" lon="7.12395">
        <ele>536</ele>
        <time>2022-04-06T11:56:27Z</time>
      </trkpt>
      <trkpt lat="48.02938" lon="7.12398">
        <ele>537</ele>
        <time>2022-04-06T11:56:27Z</time>
      </trkpt>
      <trkpt lat="48.02937" lon="7.12405">
        <ele>538</ele>
        <time>2022-04-06T11:56:28Z</time>
      </trkpt>
      <trkpt lat="48.02939" lon="7.12414">
        <ele>539</ele>
        <time>2022-04-06T11:56:29Z</time>
      </trkpt>
      <trkpt lat="48.02952" lon="7.1244">
        <ele>538</ele>
        <time>2022-04-06T11:56:33Z</time>
      </trkpt>
      <trkpt lat="48.02958" lon="7.12471">
        <ele>540</ele>
        <time>2022-04-06T11:56:37Z</time>
      </trkpt>
      <trkpt lat="48.02957" lon="7.12495">
        <ele>543</ele>
        <time>2022-04-06T11:56:40Z</time>
      </trkpt>
      <trkpt lat="48.02949" lon="7.12541">
        <ele>548</ele>
        <time>2022-04-06T11:56:45Z</time>
      </trkpt>
      <trkpt lat="48.02936" lon="7.12585">
        <ele>554</ele>
        <time>2022-04-06T11:56:51Z</time>
      </trkpt>
      <trkpt lat="48.02905" lon="7.12665">
        <ele>558</ele>
        <time>2022-04-06T11:57:02Z</time>
      </trkpt>
      <trkpt lat="48.02893" lon="7.12684">
        <ele>557</ele>
        <time>2022-04-06T11:57:05Z</time>
      </trkpt>
      <trkpt lat="48.02885" lon="7.12693">
        <ele>557</ele>
        <time>2022-04-06T11:57:07Z</time>
      </trkpt>
      <trkpt lat="48.02878" lon="7.12697">
        <ele>558</ele>
        <time>2022-04-06T11:57:08Z</time>
      </trkpt>
      <trkpt lat="48.02876" lon="7.12698">
        <ele>558</ele>
        <time>2022-04-06T11:57:09Z</time>
      </trkpt>
      <trkpt lat="48.02862" lon="7.12701">
        <ele>560</ele>
        <time>2022-04-06T11:57:11Z</time>
      </trkpt>
      <trkpt lat="48.02848" lon="7.12702">
        <ele>561</ele>
        <time>2022-04-06T11:57:14Z</time>
      </trkpt>
      <trkpt lat="48.02838" lon="7.12703">
        <ele>563</ele>
        <time>2022-04-06T11:57:16Z</time>
      </trkpt>
      <trkpt lat="48.02819" lon="7.12702">
        <ele>565</ele>
        <time>2022-04-06T11:57:19Z</time>
      </trkpt>
      <trkpt lat="48.02773" lon="7.12693">
        <ele>568</ele>
        <time>2022-04-06T11:57:27Z</time>
      </trkpt>
      <trkpt lat="48.02763" lon="7.12694">
        <ele>569</ele>
        <time>2022-04-06T11:57:29Z</time>
      </trkpt>
      <trkpt lat="48.02754" lon="7.12695">
        <ele>569</ele>
        <time>2022-04-06T11:57:31Z</time>
      </trkpt>
      <trkpt lat="48.02728" lon="7.12701">
        <ele>573</ele>
        <time>2022-04-06T11:57:35Z</time>
      </trkpt>
      <trkpt lat="48.02653" lon="7.1271">
        <ele>579</ele>
        <time>2022-04-06T11:57:49Z</time>
      </trkpt>
      <trkpt lat="48.02632" lon="7.12717">
        <ele>579</ele>
        <time>2022-04-06T11:57:53Z</time>
      </trkpt>
      <trkpt lat="48.02606" lon="7.12732">
        <ele>581</ele>
        <time>2022-04-06T11:57:57Z</time>
      </trkpt>
      <trkpt lat="48.02588" lon="7.12747">
        <ele>583</ele>
        <time>2022-04-06T11:58:01Z</time>
      </trkpt>
      <trkpt lat="48.02575" lon="7.12763">
        <ele>586</ele>
        <time>2022-04-06T11:58:04Z</time>
      </trkpt>
      <trkpt lat="48.02543" lon="7.12819">
        <ele>601</ele>
        <time>2022-04-06T11:58:13Z</time>
      </trkpt>
      <trkpt lat="48.02525" lon="7.12835">
        <ele>605</ele>
        <time>2022-04-06T11:58:17Z</time>
      </trkpt>
      <trkpt lat="48.02503" lon="7.12837">
        <ele>603</ele>
        <time>2022-04-06T11:58:21Z</time>
      </trkpt>
      <trkpt lat="48.02469" lon="7.1283">
        <ele>604</ele>
        <time>2022-04-06T11:58:27Z</time>
      </trkpt>
      <trkpt lat="48.02424" lon="7.12828">
        <ele>607</ele>
        <time>2022-04-06T11:58:35Z</time>
      </trkpt>
      <trkpt lat="48.0239" lon="7.12833">
        <ele>613</ele>
        <time>2022-04-06T11:58:41Z</time>
      </trkpt>
      <trkpt lat="48.02368" lon="7.12834">
        <ele>616</ele>
        <time>2022-04-06T11:58:45Z</time>
      </trkpt>
      <trkpt lat="48.02299" lon="7.12814">
        <ele>619</ele>
        <time>2022-04-06T11:58:57Z</time>
      </trkpt>
      <trkpt lat="48.02292" lon="7.12814">
        <ele>621</ele>
        <time>2022-04-06T11:58:58Z</time>
      </trkpt>
      <trkpt lat="48.02289" lon="7.12817">
        <ele>623</ele>
        <time>2022-04-06T11:58:59Z</time>
      </trkpt>
      <trkpt lat="48.02287" lon="7.1282">
        <ele>624</ele>
        <time>2022-04-06T11:59:00Z</time>
      </trkpt>
      <trkpt lat="48.02288" lon="7.12826">
        <ele>627</ele>
        <time>2022-04-06T11:59:00Z</time>
      </trkpt>
      <trkpt lat="48.02291" lon="7.12833">
        <ele>629</ele>
        <time>2022-04-06T11:59:01Z</time>
      </trkpt>
      <trkpt lat="48.02306" lon="7.12846">
        <ele>630</ele>
        <time>2022-04-06T11:59:04Z</time>
      </trkpt>
      <trkpt lat="48.02404" lon="7.12926">
        <ele>640</ele>
        <time>2022-04-06T11:59:24Z</time>
      </trkpt>
      <trkpt lat="48.02426" lon="7.12941">
        <ele>642</ele>
        <time>2022-04-06T11:59:29Z</time>
      </trkpt>
      <trkpt lat="48.02536" lon="7.13014">
        <ele>653</ele>
        <time>2022-04-06T11:59:50Z</time>
      </trkpt>
      <trkpt lat="48.02556" lon="7.13032">
        <ele>656</ele>
        <time>2022-04-06T11:59:54Z</time>
      </trkpt>
      <trkpt lat="48.02557" lon="7.13032">
        <ele>656</ele>
        <time>2022-04-06T11:59:54Z</time>
      </trkpt>
      <trkpt lat="48.02571" lon="7.13035">
        <ele>655</ele>
        <time>2022-04-06T11:59:57Z</time>
      </trkpt>
      <trkpt lat="48.0259" lon="7.13036">
        <ele>653</ele>
        <time>2022-04-06T12:00:00Z</time>
      </trkpt>
      <trkpt lat="48.02602" lon="7.1304">
        <ele>651</ele>
        <time>2022-04-06T12:00:02Z</time>
      </trkpt>
      <trkpt lat="48.02622" lon="7.13056">
        <ele>650</ele>
        <time>2022-04-06T12:00:06Z</time>
      </trkpt>
      <trkpt lat="48.02634" lon="7.13076">
        <ele>650</ele>
        <time>2022-04-06T12:00:10Z</time>
      </trkpt>
      <trkpt lat="48.02648" lon="7.13121">
        <ele>656</ele>
        <time>2022-04-06T12:00:16Z</time>
      </trkpt>
      <trkpt lat="48.0267" lon="7.13213">
        <ele>664</ele>
        <time>2022-04-06T12:00:27Z</time>
      </trkpt>
      <trkpt lat="48.02678" lon="7.13263">
        <ele>666</ele>
        <time>2022-04-06T12:00:33Z</time>
      </trkpt>
      <trkpt lat="48.02681" lon="7.13298">
        <ele>666</ele>
        <time>2022-04-06T12:00:37Z</time>
      </trkpt>
      <trkpt lat="48.02678" lon="7.13326">
        <ele>669</ele>
        <time>2022-04-06T12:00:41Z</time>
      </trkpt>
      <trkpt lat="48.02675" lon="7.13346">
        <ele>669</ele>
        <time>2022-04-06T12:00:43Z</time>
      </trkpt>
      <trkpt lat="48.02671" lon="7.13354">
        <ele>670</ele>
        <time>2022-04-06T12:00:44Z</time>
      </trkpt>
      <trkpt lat="48.02664" lon="7.13357">
        <ele>672</ele>
        <time>2022-04-06T12:00:46Z</time>
      </trkpt>
      <trkpt lat="48.02658" lon="7.13355">
        <ele>674</ele>
        <time>2022-04-06T12:00:47Z</time>
      </trkpt>
      <trkpt lat="48.02656" lon="7.13349">
        <ele>675</ele>
        <time>2022-04-06T12:00:48Z</time>
      </trkpt>
      <trkpt lat="48.02655" lon="7.13286">
        <ele>675</ele>
        <time>2022-04-06T12:00:55Z</time>
      </trkpt>
      <trkpt lat="48.02651" lon="7.13268">
        <ele>676</ele>
        <time>2022-04-06T12:00:57Z</time>
      </trkpt>
      <trkpt lat="48.02646" lon="7.13256">
        <ele>677</ele>
        <time>2022-04-06T12:00:59Z</time>
      </trkpt>
      <trkpt lat="48.02641" lon="7.13248">
        <ele>678</ele>
        <time>2022-04-06T12:01:00Z</time>
      </trkpt>
      <trkpt lat="48.02627" lon="7.13226">
        <ele>680</ele>
        <time>2022-04-06T12:01:04Z</time>
      </trkpt>
      <trkpt lat="48.02571" lon="7.13172">
        <ele>688</ele>
        <time>2022-04-06T12:01:16Z</time>
      </trkpt>
      <trkpt lat="48.02562" lon="7.13167">
        <ele>688</ele>
        <time>2022-04-06T12:01:18Z</time>
      </trkpt>
      <trkpt lat="48.0248" lon="7.13161">
        <ele>698</ele>
        <time>2022-04-06T12:01:32Z</time>
      </trkpt>
      <trkpt lat="48.02433" lon="7.13162">
        <ele>702</ele>
        <time>2022-04-06T12:01:41Z</time>
      </trkpt>
      <trkpt lat="48.02363" lon="7.1317">
        <ele>715</ele>
        <time>2022-04-06T12:01:53Z</time>
      </trkpt>
      <trkpt lat="48.02323" lon="7.13163">
        <ele>721</ele>
        <time>2022-04-06T12:02:00Z</time>
      </trkpt>
      <trkpt lat="48.02309" lon="7.13158">
        <ele>723</ele>
        <time>2022-04-06T12:02:03Z</time>
      </trkpt>
      <trkpt lat="48.02259" lon="7.13112">
        <ele>723</ele>
        <time>2022-04-06T12:02:13Z</time>
      </trkpt>
      <trkpt lat="48.02218" lon="7.13087">
        <ele>722</ele>
        <time>2022-04-06T12:02:21Z</time>
      </trkpt>
      <trkpt lat="48.02199" lon="7.13083">
        <ele>723</ele>
        <time>2022-04-06T12:02:24Z</time>
      </trkpt>
      <trkpt lat="48.02187" lon="7.13082">
        <ele>724</ele>
        <time>2022-04-06T12:02:27Z</time>
      </trkpt>
      <trkpt lat="48.02153" lon="7.13089">
        <ele>729</ele>
        <time>2022-04-06T12:02:33Z</time>
      </trkpt>
      <trkpt lat="48.02119" lon="7.13101">
        <ele>732</ele>
        <time>2022-04-06T12:02:39Z</time>
      </trkpt>
      <trkpt lat="48.02089" lon="7.13119">
        <ele>737</ele>
        <time>2022-04-06T12:02:45Z</time>
      </trkpt>
      <trkpt lat="48.02047" lon="7.13147">
        <ele>745</ele>
        <time>2022-04-06T12:02:53Z</time>
      </trkpt>
      <trkpt lat="48.02032" lon="7.13153">
        <ele>747</ele>
        <time>2022-04-06T12:02:56Z</time>
      </trkpt>
      <trkpt lat="48.02015" lon="7.13155">
        <ele>748</ele>
        <time>2022-04-06T12:02:59Z</time>
      </trkpt>
      <trkpt lat="48.01937" lon="7.13147">
        <ele>752</ele>
        <time>2022-04-06T12:03:13Z</time>
      </trkpt>
      <trkpt lat="48.01917" lon="7.13152">
        <ele>756</ele>
        <time>2022-04-06T12:03:16Z</time>
      </trkpt>
      <trkpt lat="48.01861" lon="7.13181">
        <ele>766</ele>
        <time>2022-04-06T12:03:27Z</time>
      </trkpt>
      <trkpt lat="48.01829" lon="7.13189">
        <ele>770</ele>
        <time>2022-04-06T12:03:33Z</time>
      </trkpt>
      <trkpt lat="48.01812" lon="7.13189">
        <ele>772</ele>
        <time>2022-04-06T12:03:36Z</time>
      </trkpt>
      <trkpt lat="48.01752" lon="7.13177">
        <ele>778</ele>
        <time>2022-04-06T12:03:46Z</time>
      </trkpt>
      <trkpt lat="48.01736" lon="7.13176">
        <ele>780</ele>
        <time>2022-04-06T12:03:49Z</time>
      </trkpt>
      <trkpt lat="48.01706" lon="7.13174">
        <ele>783</ele>
        <time>2022-04-06T12:03:54Z</time>
      </trkpt>
      <trkpt lat="48.01653" lon="7.13169">
        <ele>787</ele>
        <time>2022-04-06T12:04:04Z</time>
      </trkpt>
      <trkpt lat="48.01633" lon="7.1317">
        <ele>787</ele>
        <time>2022-04-06T12:04:08Z</time>
      </trkpt>
      <trkpt lat="48.01616" lon="7.13178">
        <ele>789</ele>
        <time>2022-04-06T12:04:11Z</time>
      </trkpt>
      <trkpt lat="48.0161" lon="7.13182">
        <ele>790</ele>
        <time>2022-04-06T12:04:12Z</time>
      </trkpt>
      <trkpt lat="48.01587" lon="7.13202">
        <ele>797</ele>
        <time>2022-04-06T12:04:17Z</time>
      </trkpt>
      <trkpt lat="48.01582" lon="7.13206">
        <ele>798</ele>
        <time>2022-04-06T12:04:18Z</time>
      </trkpt>
      <trkpt lat="48.01568" lon="7.13216">
        <ele>801</ele>
        <time>2022-04-06T12:04:20Z</time>
      </trkpt>
      <trkpt lat="48.0155" lon="7.13222">
        <ele>802</ele>
        <time>2022-04-06T12:04:24Z</time>
      </trkpt>
      <trkpt lat="48.01509" lon="7.13228">
        <ele>803</ele>
        <time>2022-04-06T12:04:31Z</time>
      </trkpt>
      <trkpt lat="48.01462" lon="7.13252">
        <ele>806</ele>
        <time>2022-04-06T12:04:40Z</time>
      </trkpt>
      <trkpt lat="48.01433" lon="7.13274">
        <ele>808</ele>
        <time>2022-04-06T12:04:46Z</time>
      </trkpt>
      <trkpt lat="48.01417" lon="7.13294">
        <ele>810</ele>
        <time>2022-04-06T12:04:49Z</time>
      </trkpt>
      <trkpt lat="48.01395" lon="7.13341">
        <ele>814</ele>
        <time>2022-04-06T12:04:56Z</time>
      </trkpt>
      <trkpt lat="48.01312" lon="7.13473">
        <ele>824</ele>
        <time>2022-04-06T12:05:18Z</time>
      </trkpt>
      <trkpt lat="48.01279" lon="7.13513">
        <ele>827</ele>
        <time>2022-04-06T12:05:25Z</time>
      </trkpt>
      <trkpt lat="48.01236" lon="7.13557">
        <ele>831</ele>
        <time>2022-04-06T12:05:35Z</time>
      </trkpt>
      <trkpt lat="48.01207" lon="7.13593">
        <ele>836</ele>
        <time>2022-04-06T12:05:41Z</time>
      </trkpt>
      <trkpt lat="48.01195" lon="7.136">
        <ele>837</ele>
        <time>2022-04-06T12:05:44Z</time>
      </trkpt>
      <trkpt lat="48.01167" lon="7.13604">
        <ele>837</ele>
        <time>2022-04-06T12:05:49Z</time>
      </trkpt>
      <trkpt lat="48.01102" lon="7.13594">
        <ele>848</ele>
        <time>2022-04-06T12:06:00Z</time>
      </trkpt>
      <trkpt lat="48.01047" lon="7.13582">
        <ele>859</ele>
        <time>2022-04-06T12:06:10Z</time>
      </trkpt>
      <trkpt lat="48.0103" lon="7.13574">
        <ele>862</ele>
        <time>2022-04-06T12:06:13Z</time>
      </trkpt>
      <trkpt lat="48.01014" lon="7.13563">
        <ele>865</ele>
        <time>2022-04-06T12:06:16Z</time>
      </trkpt>
      <trkpt lat="48.01001" lon="7.13547">
        <ele>867</ele>
        <time>2022-04-06T12:06:19Z</time>
      </trkpt>
      <trkpt lat="48.0099" lon="7.1353">
        <ele>868</ele>
        <time>2022-04-06T12:06:22Z</time>
      </trkpt>
      <trkpt lat="48.00972" lon="7.13485">
        <ele>870</ele>
        <time>2022-04-06T12:06:28Z</time>
      </trkpt>
      <trkpt lat="48.00915" lon="7.13377">
        <ele>877</ele>
        <time>2022-04-06T12:06:45Z</time>
      </trkpt>
      <trkpt lat="48.00905" lon="7.13361">
        <ele>877</ele>
        <time>2022-04-06T12:06:47Z</time>
      </trkpt>
      <trkpt lat="48.00893" lon="7.13347">
        <ele>878</ele>
        <time>2022-04-06T12:06:50Z</time>
      </trkpt>
      <trkpt lat="48.00867" lon="7.13326">
        <ele>879</ele>
        <time>2022-04-06T12:06:55Z</time>
      </trkpt>
      <trkpt lat="48.00836" lon="7.13326">
        <ele>881</ele>
        <time>2022-04-06T12:07:01Z</time>
      </trkpt>
      <trkpt lat="48.00817" lon="7.13321">
        <ele>882</ele>
        <time>2022-04-06T12:07:04Z</time>
      </trkpt>
      <trkpt lat="48.00801" lon="7.13314">
        <ele>883</ele>
        <time>2022-04-06T12:07:07Z</time>
      </trkpt>
      <trkpt lat="48.00769" lon="7.13293">
        <ele>883</ele>
        <time>2022-04-06T12:07:13Z</time>
      </trkpt>
      <trkpt lat="48.00745" lon="7.13292">
        <ele>884</ele>
        <time>2022-04-06T12:07:18Z</time>
      </trkpt>
      <trkpt lat="48.00737" lon="7.13297">
        <ele>884</ele>
        <time>2022-04-06T12:07:19Z</time>
      </trkpt>
      <trkpt lat="48.00713" lon="7.13315">
        <ele>884</ele>
        <time>2022-04-06T12:07:24Z</time>
      </trkpt>
      <trkpt lat="48.0065" lon="7.13386">
        <ele>891</ele>
        <time>2022-04-06T12:07:38Z</time>
      </trkpt>
      <trkpt lat="48.00599" lon="7.13452">
        <ele>892</ele>
        <time>2022-04-06T12:07:50Z</time>
      </trkpt>
      <trkpt lat="48.00593" lon="7.13458">
        <ele>891</ele>
        <time>2022-04-06T12:07:51Z</time>
      </trkpt>
      <trkpt lat="48.00588" lon="7.13464">
        <ele>891</ele>
        <time>2022-04-06T12:07:53Z</time>
      </trkpt>
      <trkpt lat="48.00577" lon="7.13474">
        <ele>890</ele>
        <time>2022-04-06T12:07:55Z</time>
      </trkpt>
      <trkpt lat="48.00563" lon="7.13481">
        <ele>891</ele>
        <time>2022-04-06T12:07:57Z</time>
      </trkpt>
      <trkpt lat="48.00546" lon="7.13485">
        <ele>890</ele>
        <time>2022-04-06T12:08:01Z</time>
      </trkpt>
      <trkpt lat="48.00519" lon="7.13484">
        <ele>890</ele>
        <time>2022-04-06T12:08:05Z</time>
      </trkpt>
      <trkpt lat="48.00507" lon="7.13481">
        <ele>890</ele>
        <time>2022-04-06T12:08:07Z</time>
      </trkpt>
      <trkpt lat="48.00489" lon="7.13476">
        <ele>891</ele>
        <time>2022-04-06T12:08:11Z</time>
      </trkpt>
      <trkpt lat="48.00448" lon="7.13455">
        <ele>893</ele>
        <time>2022-04-06T12:08:18Z</time>
      </trkpt>
      <trkpt lat="48.00425" lon="7.13438">
        <ele>893</ele>
        <time>2022-04-06T12:08:23Z</time>
      </trkpt>
      <trkpt lat="48.00415" lon="7.13436">
        <ele>894</ele>
        <time>2022-04-06T12:08:25Z</time>
      </trkpt>
      <trkpt lat="48.00405" lon="7.13438">
        <ele>895</ele>
        <time>2022-04-06T12:08:27Z</time>
      </trkpt>
      <trkpt lat="48.00395" lon="7.13433">
        <ele>896</ele>
        <time>2022-04-06T12:08:28Z</time>
      </trkpt>
      <trkpt lat="48.00369" lon="7.13418">
        <ele>897</ele>
        <time>2022-04-06T12:08:33Z</time>
      </trkpt>
      <trkpt lat="48.00338" lon="7.13395">
        <ele>898</ele>
        <time>2022-04-06T12:08:40Z</time>
      </trkpt>
      <trkpt lat="48.00321" lon="7.13381">
        <ele>901</ele>
        <time>2022-04-06T12:08:43Z</time>
      </trkpt>
      <trkpt lat="48.00287" lon="7.13343">
        <ele>906</ele>
        <time>2022-04-06T12:08:51Z</time>
      </trkpt>
      <trkpt lat="48.00271" lon="7.1333">
        <ele>908</ele>
        <time>2022-04-06T12:08:54Z</time>
      </trkpt>
      <trkpt lat="48.00226" lon="7.13306">
        <ele>915</ele>
        <time>2022-04-06T12:09:02Z</time>
      </trkpt>
      <trkpt lat="48.00172" lon="7.13262">
        <ele>920</ele>
        <time>2022-04-06T12:09:13Z</time>
      </trkpt>
      <trkpt lat="48.00115" lon="7.13209">
        <ele>925</ele>
        <time>2022-04-06T12:09:25Z</time>
      </trkpt>
      <trkpt lat="48.0008" lon="7.13173">
        <ele>928</ele>
        <time>2022-04-06T12:09:33Z</time>
      </trkpt>
      <trkpt lat="48.00044" lon="7.13138">
        <ele>933</ele>
        <time>2022-04-06T12:09:40Z</time>
      </trkpt>
      <trkpt lat="48.00009" lon="7.13103">
        <ele>936</ele>
        <time>2022-04-06T12:09:48Z</time>
      </trkpt>
      <trkpt lat="47.99982" lon="7.13079">
        <ele>939</ele>
        <time>2022-04-06T12:09:54Z</time>
      </trkpt>
      <trkpt lat="47.99947" lon="7.13053">
        <ele>943</ele>
        <time>2022-04-06T12:10:00Z</time>
      </trkpt>
      <trkpt lat="47.99909" lon="7.1303">
        <ele>947</ele>
        <time>2022-04-06T12:10:08Z</time>
      </trkpt>
      <trkpt lat="47.99829" lon="7.12965">
        <ele>953</ele>
        <time>2022-04-06T12:10:24Z</time>
      </trkpt>
      <trkpt lat="47.99797" lon="7.12943">
        <ele>954</ele>
        <time>2022-04-06T12:10:30Z</time>
      </trkpt>
      <trkpt lat="47.99778" lon="7.12934">
        <ele>954</ele>
        <time>2022-04-06T12:10:34Z</time>
      </trkpt>
      <trkpt lat="47.99758" lon="7.1293">
        <ele>955</ele>
        <time>2022-04-06T12:10:37Z</time>
      </trkpt>
      <trkpt lat="47.9974" lon="7.12932">
        <ele>957</ele>
        <time>2022-04-06T12:10:41Z</time>
      </trkpt>
      <trkpt lat="47.99728" lon="7.12938">
        <ele>960</ele>
        <time>2022-04-06T12:10:43Z</time>
      </trkpt>
      <trkpt lat="47.99687" lon="7.12964">
        <ele>968</ele>
        <time>2022-04-06T12:10:51Z</time>
      </trkpt>
      <trkpt lat="47.99673" lon="7.1297">
        <ele>970</ele>
        <time>2022-04-06T12:10:53Z</time>
      </trkpt>
      <trkpt lat="47.99644" lon="7.12976">
        <ele>974</ele>
        <time>2022-04-06T12:10:59Z</time>
      </trkpt>
      <trkpt lat="47.99631" lon="7.12976">
        <ele>975</ele>
        <time>2022-04-06T12:11:01Z</time>
      </trkpt>
      <trkpt lat="47.99618" lon="7.12975">
        <ele>977</ele>
        <time>2022-04-06T12:11:03Z</time>
      </trkpt>
      <trkpt lat="47.99589" lon="7.12969">
        <ele>979</ele>
        <time>2022-04-06T12:11:08Z</time>
      </trkpt>
      <trkpt lat="47.99566" lon="7.12964">
        <ele>981</ele>
        <time>2022-04-06T12:11:13Z</time>
      </trkpt>
      <trkpt lat="47.99514" lon="7.1296">
        <ele>987</ele>
        <time>2022-04-06T12:11:22Z</time>
      </trkpt>
      <trkpt lat="47.99459" lon="7.12949">
        <ele>993</ele>
        <time>2022-04-06T12:11:32Z</time>
      </trkpt>
      <trkpt lat="47.9942" lon="7.12933">
        <ele>995</ele>
        <time>2022-04-06T12:11:39Z</time>
      </trkpt>
      <trkpt lat="47.99402" lon="7.12923">
        <ele>995</ele>
        <time>2022-04-06T12:11:42Z</time>
      </trkpt>
      <trkpt lat="47.99384" lon="7.12917">
        <ele>996</ele>
        <time>2022-04-06T12:11:46Z</time>
      </trkpt>
      <trkpt lat="47.99349" lon="7.12914">
        <ele>998</ele>
        <time>2022-04-06T12:11:52Z</time>
      </trkpt>
      <trkpt lat="47.99305" lon="7.1292">
        <ele>1001</ele>
        <time>2022-04-06T12:12:00Z</time>
      </trkpt>
      <trkpt lat="47.99282" lon="7.12929">
        <ele>1002</ele>
        <time>2022-04-06T12:12:04Z</time>
      </trkpt>
      <trkpt lat="47.99266" lon="7.12939">
        <ele>1003</ele>
        <time>2022-04-06T12:12:07Z</time>
      </trkpt>
      <trkpt lat="47.99259" lon="7.12946">
        <ele>1004</ele>
        <time>2022-04-06T12:12:08Z</time>
      </trkpt>
      <trkpt lat="47.99255" lon="7.12953">
        <ele>1005</ele>
        <time>2022-04-06T12:12:10Z</time>
      </trkpt>
      <trkpt lat="47.99245" lon="7.13032">
        <ele>1012</ele>
        <time>2022-04-06T12:12:19Z</time>
      </trkpt>
      <trkpt lat="47.99242" lon="7.13044">
        <ele>1012</ele>
        <time>2022-04-06T12:12:21Z</time>
      </trkpt>
      <trkpt lat="47.9924" lon="7.13047">
        <ele>1012</ele>
        <time>2022-04-06T12:12:21Z</time>
      </trkpt>
      <trkpt lat="47.99238" lon="7.13049">
        <ele>1013</ele>
        <time>2022-04-06T12:12:22Z</time>
      </trkpt>
      <trkpt lat="47.99233" lon="7.13051">
        <ele>1013</ele>
        <time>2022-04-06T12:12:23Z</time>
      </trkpt>
      <trkpt lat="47.99229" lon="7.13049">
        <ele>1013</ele>
        <time>2022-04-06T12:12:23Z</time>
      </trkpt>
      <trkpt lat="47.99223" lon="7.13045">
        <ele>1014</ele>
        <time>2022-04-06T12:12:24Z</time>
      </trkpt>
      <trkpt lat="47.99214" lon="7.1303">
        <ele>1015</ele>
        <time>2022-04-06T12:12:27Z</time>
      </trkpt>
      <trkpt lat="47.99198" lon="7.1301">
        <ele>1015</ele>
        <time>2022-04-06T12:12:31Z</time>
      </trkpt>
      <trkpt lat="47.99148" lon="7.1296">
        <ele>1017</ele>
        <time>2022-04-06T12:12:41Z</time>
      </trkpt>
      <trkpt lat="47.99117" lon="7.1292">
        <ele>1021</ele>
        <time>2022-04-06T12:12:49Z</time>
      </trkpt>
      <trkpt lat="47.99047" lon="7.12845">
        <ele>1031</ele>
        <time>2022-04-06T12:13:04Z</time>
      </trkpt>
      <trkpt lat="47.99014" lon="7.12814">
        <ele>1038</ele>
        <time>2022-04-06T12:13:11Z</time>
      </trkpt>
      <trkpt lat="47.9899" lon="7.12795">
        <ele>1041</ele>
        <time>2022-04-06T12:13:16Z</time>
      </trkpt>
      <trkpt lat="47.9895" lon="7.12758">
        <ele>1044</ele>
        <time>2022-04-06T12:13:24Z</time>
      </trkpt>
      <trkpt lat="47.98889" lon="7.12694">
        <ele>1051</ele>
        <time>2022-04-06T12:13:37Z</time>
      </trkpt>
      <trkpt lat="47.98866" lon="7.12678">
        <ele>1055</ele>
        <time>2022-04-06T12:13:42Z</time>
      </trkpt>
      <trkpt lat="47.98862" lon="7.12672">
        <ele>1055</ele>
        <time>2022-04-06T12:13:43Z</time>
      </trkpt>
      <trkpt lat="47.98859" lon="7.12665">
        <ele>1055</ele>
        <time>2022-04-06T12:13:44Z</time>
      </trkpt>
      <trkpt lat="47.98859" lon="7.12654">
        <ele>1056</ele>
        <time>2022-04-06T12:13:45Z</time>
      </trkpt>
      <trkpt lat="47.98861" lon="7.12643">
        <ele>1056</ele>
        <time>2022-04-06T12:13:46Z</time>
      </trkpt>
      <trkpt lat="47.98874" lon="7.12589">
        <ele>1057</ele>
        <time>2022-04-06T12:13:53Z</time>
      </trkpt>
      <trkpt lat="47.98889" lon="7.12494">
        <ele>1067</ele>
        <time>2022-04-06T12:14:05Z</time>
      </trkpt>
      <trkpt lat="47.98901" lon="7.12466">
        <ele>1068</ele>
        <time>2022-04-06T12:14:09Z</time>
      </trkpt>
      <trkpt lat="47.98937" lon="7.12397">
        <ele>1073</ele>
        <time>2022-04-06T12:14:19Z</time>
      </trkpt>
      <trkpt lat="47.9894" lon="7.12392">
        <ele>1073</ele>
        <time>2022-04-06T12:14:20Z</time>
      </trkpt>
      <trkpt lat="47.98949" lon="7.12371">
        <ele>1076</ele>
        <time>2022-04-06T12:14:23Z</time>
      </trkpt>
      <trkpt lat="47.98972" lon="7.12343">
        <ele>1079</ele>
        <time>2022-04-06T12:14:28Z</time>
      </trkpt>
      <trkpt lat="47.98999" lon="7.12326">
        <ele>1083</ele>
        <time>2022-04-06T12:14:34Z</time>
      </trkpt>
      <trkpt lat="47.99005" lon="7.12323">
        <ele>1084</ele>
        <time>2022-04-06T12:14:35Z</time>
      </trkpt>
      <trkpt lat="47.99097" lon="7.12333">
        <ele>1091</ele>
        <time>2022-04-06T12:14:51Z</time>
      </trkpt>
      <trkpt lat="47.99115" lon="7.12331">
        <ele>1091</ele>
        <time>2022-04-06T12:14:54Z</time>
      </trkpt>
      <trkpt lat="47.99149" lon="7.12307">
        <ele>1096</ele>
        <time>2022-04-06T12:15:01Z</time>
      </trkpt>
      <trkpt lat="47.99201" lon="7.12256">
        <ele>1101</ele>
        <time>2022-04-06T12:15:12Z</time>
      </trkpt>
      <trkpt lat="47.99203" lon="7.12248">
        <ele>1102</ele>
        <time>2022-04-06T12:15:13Z</time>
      </trkpt>
      <trkpt lat="47.99202" lon="7.12239">
        <ele>1101</ele>
        <time>2022-04-06T12:15:14Z</time>
      </trkpt>
      <trkpt lat="47.99193" lon="7.12225">
        <ele>1101</ele>
        <time>2022-04-06T12:15:16Z</time>
      </trkpt>
      <trkpt lat="47.99176" lon="7.12211">
        <ele>1103</ele>
        <time>2022-04-06T12:15:20Z</time>
      </trkpt>
      <trkpt lat="47.99111" lon="7.12184">
        <ele>1109</ele>
        <time>2022-04-06T12:15:32Z</time>
      </trkpt>
      <trkpt lat="47.99065" lon="7.1215">
        <ele>1113</ele>
        <time>2022-04-06T12:15:41Z</time>
      </trkpt>
      <trkpt lat="47.9903" lon="7.12125">
        <ele>1116</ele>
        <time>2022-04-06T12:15:48Z</time>
      </trkpt>
      <trkpt lat="47.99005" lon="7.12114">
        <ele>1120</ele>
        <time>2022-04-06T12:15:53Z</time>
      </trkpt>
      <trkpt lat="47.98969" lon="7.12109">
        <ele>1122</ele>
        <time>2022-04-06T12:15:59Z</time>
      </trkpt>
      <trkpt lat="47.98943" lon="7.12101">
        <ele>1124</ele>
        <time>2022-04-06T12:16:04Z</time>
      </trkpt>
      <trkpt lat="47.98908" lon="7.12074">
        <ele>1130</ele>
        <time>2022-04-06T12:16:11Z</time>
      </trkpt>
      <trkpt lat="47.98882" lon="7.12061">
        <ele>1132</ele>
        <time>2022-04-06T12:16:16Z</time>
      </trkpt>
      <trkpt lat="47.9883" lon="7.12041">
        <ele>1135</ele>
        <time>2022-04-06T12:16:25Z</time>
      </trkpt>
      <trkpt lat="47.98808" lon="7.12038">
        <ele>1138</ele>
        <time>2022-04-06T12:16:29Z</time>
      </trkpt>
      <trkpt lat="47.98735" lon="7.1206">
        <ele>1141</ele>
        <time>2022-04-06T12:16:42Z</time>
      </trkpt>
      <trkpt lat="47.98669" lon="7.12074">
        <ele>1146</ele>
        <time>2022-04-06T12:16:54Z</time>
      </trkpt>
      <trkpt lat="47.98554" lon="7.12092">
        <ele>1156</ele>
        <time>2022-04-06T12:17:15Z</time>
      </trkpt>
      <trkpt lat="47.98536" lon="7.12095">
        <ele>1158</ele>
        <time>2022-04-06T12:17:18Z</time>
      </trkpt>
      <trkpt lat="47.98517" lon="7.12099">
        <ele>1161</ele>
        <time>2022-04-06T12:17:21Z</time>
      </trkpt>
      <trkpt lat="47.98511" lon="7.12097">
        <ele>1161</ele>
        <time>2022-04-06T12:17:23Z</time>
      </trkpt>
      <trkpt lat="47.98507" lon="7.1209">
        <ele>1162</ele>
        <time>2022-04-06T12:17:24Z</time>
      </trkpt>
      <trkpt lat="47.98498" lon="7.12054">
        <ele>1160</ele>
        <time>2022-04-06T12:17:28Z</time>
      </trkpt>
      <trkpt lat="47.98483" lon="7.12038">
        <ele>1159</ele>
        <time>2022-04-06T12:17:32Z</time>
      </trkpt>
      <trkpt lat="47.98473" lon="7.12032">
        <ele>1158</ele>
        <time>2022-04-06T12:17:33Z</time>
      </trkpt>
      <trkpt lat="47.98441" lon="7.12025">
        <ele>1155</ele>
        <time>2022-04-06T12:17:39Z</time>
      </trkpt>
      <trkpt lat="47.98423" lon="7.12026">
        <ele>1154</ele>
        <time>2022-04-06T12:17:42Z</time>
      </trkpt>
      <trkpt lat="47.98389" lon="7.12031">
        <ele>1154</ele>
        <time>2022-04-06T12:17:48Z</time>
      </trkpt>
      <trkpt lat="47.98341" lon="7.12041">
        <ele>1156</ele>
        <time>2022-04-06T12:17:57Z</time>
      </trkpt>
      <trkpt lat="47.98322" lon="7.12042">
        <ele>1156</ele>
        <time>2022-04-06T12:18:00Z</time>
      </trkpt>
      <trkpt lat="47.98289" lon="7.12033">
        <ele>1153</ele>
        <time>2022-04-06T12:18:06Z</time>
      </trkpt>
      <trkpt lat="47.98266" lon="7.12024">
        <ele>1151</ele>
        <time>2022-04-06T12:18:11Z</time>
      </trkpt>
      <trkpt lat="47.98243" lon="7.1201">
        <ele>1147</ele>
        <time>2022-04-06T12:18:15Z</time>
      </trkpt>
      <trkpt lat="47.9823" lon="7.12003">
        <ele>1146</ele>
        <time>2022-04-06T12:18:18Z</time>
      </trkpt>
      <trkpt lat="47.98203" lon="7.11996">
        <ele>1144</ele>
        <time>2022-04-06T12:18:22Z</time>
      </trkpt>
      <trkpt lat="47.98167" lon="7.1199">
        <ele>1142</ele>
        <time>2022-04-06T12:18:29Z</time>
      </trkpt>
      <trkpt lat="47.98146" lon="7.1199">
        <ele>1145</ele>
        <time>2022-04-06T12:18:33Z</time>
      </trkpt>
      <trkpt lat="47.9814" lon="7.11987">
        <ele>1145</ele>
        <time>2022-04-06T12:18:34Z</time>
      </trkpt>
      <trkpt lat="47.98117" lon="7.11975">
        <ele>1146</ele>
        <time>2022-04-06T12:18:38Z</time>
      </trkpt>
      <trkpt lat="47.98106" lon="7.11965">
        <ele>1146</ele>
        <time>2022-04-06T12:18:40Z</time>
      </trkpt>
      <trkpt lat="47.98097" lon="7.11951">
        <ele>1145</ele>
        <time>2022-04-06T12:18:43Z</time>
      </trkpt>
      <trkpt lat="47.98074" lon="7.11899">
        <ele>1142</ele>
        <time>2022-04-06T12:18:50Z</time>
      </trkpt>
      <trkpt lat="47.98054" lon="7.11856">
        <ele>1138</ele>
        <time>2022-04-06T12:18:56Z</time>
      </trkpt>
      <trkpt lat="47.98042" lon="7.11839">
        <ele>1139</ele>
        <time>2022-04-06T12:18:59Z</time>
      </trkpt>
      <trkpt lat="47.98014" lon="7.11812">
        <ele>1145</ele>
        <time>2022-04-06T12:19:05Z</time>
      </trkpt>
      <trkpt lat="47.9801" lon="7.11802">
        <ele>1145</ele>
        <time>2022-04-06T12:19:07Z</time>
      </trkpt>
      <trkpt lat="47.98009" lon="7.11789">
        <ele>1144</ele>
        <time>2022-04-06T12:19:08Z</time>
      </trkpt>
      <trkpt lat="47.98012" lon="7.11774">
        <ele>1141</ele>
        <time>2022-04-06T12:19:10Z</time>
      </trkpt>
      <trkpt lat="47.98025" lon="7.11738">
        <ele>1133</ele>
        <time>2022-04-06T12:19:15Z</time>
      </trkpt>
      <trkpt lat="47.98029" lon="7.11719">
        <ele>1131</ele>
        <time>2022-04-06T12:19:17Z</time>
      </trkpt>
      <trkpt lat="47.98031" lon="7.11685">
        <ele>1129</ele>
        <time>2022-04-06T12:19:21Z</time>
      </trkpt>
      <trkpt lat="47.98031" lon="7.11614">
        <ele>1127</ele>
        <time>2022-04-06T12:19:30Z</time>
      </trkpt>
      <trkpt lat="47.98032" lon="7.11563">
        <ele>1126</ele>
        <time>2022-04-06T12:19:36Z</time>
      </trkpt>
      <trkpt lat="47.98038" lon="7.11484">
        <ele>1121</ele>
        <time>2022-04-06T12:19:45Z</time>
      </trkpt>
      <trkpt lat="47.98038" lon="7.1141">
        <ele>1116</ele>
        <time>2022-04-06T12:19:54Z</time>
      </trkpt>
      <trkpt lat="47.98031" lon="7.11327">
        <ele>1112</ele>
        <time>2022-04-06T12:20:04Z</time>
      </trkpt>
      <trkpt lat="47.98021" lon="7.11246">
        <ele>1111</ele>
        <time>2022-04-06T12:20:14Z</time>
      </trkpt>
      <trkpt lat="47.98016" lon="7.11165">
        <ele>1104</ele>
        <time>2022-04-06T12:20:24Z</time>
      </trkpt>
      <trkpt lat="47.98016" lon="7.11125">
        <ele>1102</ele>
        <time>2022-04-06T12:20:28Z</time>
      </trkpt>
      <trkpt lat="47.9802" lon="7.11079">
        <ele>1097</ele>
        <time>2022-04-06T12:20:34Z</time>
      </trkpt>
      <trkpt lat="47.98023" lon="7.11038">
        <ele>1095</ele>
        <time>2022-04-06T12:20:39Z</time>
      </trkpt>
      <trkpt lat="47.98032" lon="7.10961">
        <ele>1090</ele>
        <time>2022-04-06T12:20:48Z</time>
      </trkpt>
      <trkpt lat="47.98034" lon="7.10928">
        <ele>1090</ele>
        <time>2022-04-06T12:20:52Z</time>
      </trkpt>
      <trkpt lat="47.98034" lon="7.10854">
        <ele>1088</ele>
        <time>2022-04-06T12:21:01Z</time>
      </trkpt>
      <trkpt lat="47.98029" lon="7.1076">
        <ele>1085</ele>
        <time>2022-04-06T12:21:12Z</time>
      </trkpt>
      <trkpt lat="47.98024" lon="7.10617">
        <ele>1073</ele>
        <time>2022-04-06T12:21:29Z</time>
      </trkpt>
      <trkpt lat="47.97998" lon="7.10462">
        <ele>1067</ele>
        <time>2022-04-06T12:21:48Z</time>
      </trkpt>
      <trkpt lat="47.9798" lon="7.10348">
        <ele>1060</ele>
        <time>2022-04-06T12:22:02Z</time>
      </trkpt>
      <trkpt lat="47.97981" lon="7.10308">
        <ele>1056</ele>
        <time>2022-04-06T12:22:07Z</time>
      </trkpt>
      <trkpt lat="47.97985" lon="7.10256">
        <ele>1051</ele>
        <time>2022-04-06T12:22:13Z</time>
      </trkpt>
      <trkpt lat="47.97986" lon="7.10216">
        <ele>1047</ele>
        <time>2022-04-06T12:22:18Z</time>
      </trkpt>
      <trkpt lat="47.97984" lon="7.10183">
        <ele>1046</ele>
        <time>2022-04-06T12:22:22Z</time>
      </trkpt>
      <trkpt lat="47.97979" lon="7.10149">
        <ele>1044</ele>
        <time>2022-04-06T12:22:26Z</time>
      </trkpt>
      <trkpt lat="47.97962" lon="7.10065">
        <ele>1037</ele>
        <time>2022-04-06T12:22:36Z</time>
      </trkpt>
      <trkpt lat="47.97957" lon="7.10047">
        <ele>1035</ele>
        <time>2022-04-06T12:22:39Z</time>
      </trkpt>
      <trkpt lat="47.97949" lon="7.10021">
        <ele>1031</ele>
        <time>2022-04-06T12:22:42Z</time>
      </trkpt>
      <trkpt lat="47.97939" lon="7.10002">
        <ele>1029</ele>
        <time>2022-04-06T12:22:45Z</time>
      </trkpt>
      <trkpt lat="47.97925" lon="7.09985">
        <ele>1028</ele>
        <time>2022-04-06T12:22:48Z</time>
      </trkpt>
      <trkpt lat="47.97901" lon="7.09969">
        <ele>1026</ele>
        <time>2022-04-06T12:22:53Z</time>
      </trkpt>
      <trkpt lat="47.97877" lon="7.0996">
        <ele>1026</ele>
        <time>2022-04-06T12:22:57Z</time>
      </trkpt>
      <trkpt lat="47.97831" lon="7.09949">
        <ele>1027</ele>
        <time>2022-04-06T12:23:06Z</time>
      </trkpt>
      <trkpt lat="47.97813" lon="7.09941">
        <ele>1025</ele>
        <time>2022-04-06T12:23:09Z</time>
      </trkpt>
      <trkpt lat="47.97743" lon="7.09906">
        <ele>1019</ele>
        <time>2022-04-06T12:23:22Z</time>
      </trkpt>
      <trkpt lat="47.97687" lon="7.09868">
        <ele>1014</ele>
        <time>2022-04-06T12:23:33Z</time>
      </trkpt>
      <trkpt lat="47.97664" lon="7.0985">
        <ele>1011</ele>
        <time>2022-04-06T12:23:38Z</time>
      </trkpt>
      <trkpt lat="47.97565" lon="7.09746">
        <ele>1005</ele>
        <time>2022-04-06T12:23:59Z</time>
      </trkpt>
      <trkpt lat="47.97549" lon="7.09731">
        <ele>1005</ele>
        <time>2022-04-06T12:24:03Z</time>
      </trkpt>
      <trkpt lat="47.97544" lon="7.09723">
        <ele>1005</ele>
        <time>2022-04-06T12:24:04Z</time>
      </trkpt>
      <trkpt lat="47.97544" lon="7.09717">
        <ele>1004</ele>
        <time>2022-04-06T12:24:05Z</time>
      </trkpt>
      <trkpt lat="47.97546" lon="7.09711">
        <ele>1003</ele>
        <time>2022-04-06T12:24:05Z</time>
      </trkpt>
      <trkpt lat="47.97548" lon="7.0971">
        <ele>1002</ele>
        <time>2022-04-06T12:24:06Z</time>
      </trkpt>
      <trkpt lat="47.97552" lon="7.09708">
        <ele>1001</ele>
        <time>2022-04-06T12:24:07Z</time>
      </trkpt>
      <trkpt lat="47.97558" lon="7.0971">
        <ele>1001</ele>
        <time>2022-04-06T12:24:08Z</time>
      </trkpt>
      <trkpt lat="47.97582" lon="7.09729">
        <ele>1000</ele>
        <time>2022-04-06T12:24:12Z</time>
      </trkpt>
      <trkpt lat="47.97602" lon="7.0974">
        <ele>999</ele>
        <time>2022-04-06T12:24:16Z</time>
      </trkpt>
      <trkpt lat="47.97621" lon="7.09745">
        <ele>997</ele>
        <time>2022-04-06T12:24:20Z</time>
      </trkpt>
      <trkpt lat="47.97724" lon="7.09762">
        <ele>986</ele>
        <time>2022-04-06T12:24:38Z</time>
      </trkpt>
      <trkpt lat="47.97779" lon="7.09765">
        <ele>981</ele>
        <time>2022-04-06T12:24:48Z</time>
      </trkpt>
      <trkpt lat="47.97824" lon="7.0978">
        <ele>980</ele>
        <time>2022-04-06T12:24:56Z</time>
      </trkpt>
      <trkpt lat="47.97829" lon="7.09779">
        <ele>979</ele>
        <time>2022-04-06T12:24:57Z</time>
      </trkpt>
      <trkpt lat="47.97834" lon="7.09774">
        <ele>977</ele>
        <time>2022-04-06T12:24:58Z</time>
      </trkpt>
      <trkpt lat="47.97835" lon="7.09769">
        <ele>976</ele>
        <time>2022-04-06T12:24:59Z</time>
      </trkpt>
      <trkpt lat="47.97834" lon="7.09764">
        <ele>975</ele>
        <time>2022-04-06T12:24:59Z</time>
      </trkpt>
      <trkpt lat="47.97829" lon="7.09755">
        <ele>974</ele>
        <time>2022-04-06T12:25:01Z</time>
      </trkpt>
      <trkpt lat="47.97823" lon="7.09751">
        <ele>973</ele>
        <time>2022-04-06T12:25:02Z</time>
      </trkpt>
      <trkpt lat="47.97766" lon="7.09727">
        <ele>973</ele>
        <time>2022-04-06T12:25:12Z</time>
      </trkpt>
      <trkpt lat="47.97684" lon="7.0968">
        <ele>974</ele>
        <time>2022-04-06T12:25:28Z</time>
      </trkpt>
      <trkpt lat="47.97638" lon="7.09641">
        <ele>971</ele>
        <time>2022-04-06T12:25:37Z</time>
      </trkpt>
      <trkpt lat="47.97582" lon="7.09585">
        <ele>964</ele>
        <time>2022-04-06T12:25:49Z</time>
      </trkpt>
      <trkpt lat="47.97557" lon="7.0955">
        <ele>958</ele>
        <time>2022-04-06T12:25:56Z</time>
      </trkpt>
      <trkpt lat="47.97544" lon="7.0954">
        <ele>957</ele>
        <time>2022-04-06T12:25:58Z</time>
      </trkpt>
      <trkpt lat="47.97514" lon="7.09526">
        <ele>958</ele>
        <time>2022-04-06T12:26:04Z</time>
      </trkpt>
      <trkpt lat="47.9748" lon="7.09506">
        <ele>960</ele>
        <time>2022-04-06T12:26:10Z</time>
      </trkpt>
      <trkpt lat="47.97453" lon="7.09483">
        <ele>962</ele>
        <time>2022-04-06T12:26:16Z</time>
      </trkpt>
      <trkpt lat="47.97434" lon="7.09458">
        <ele>961</ele>
        <time>2022-04-06T12:26:20Z</time>
      </trkpt>
      <trkpt lat="47.97417" lon="7.09424">
        <ele>957</ele>
        <time>2022-04-06T12:26:25Z</time>
      </trkpt>
      <trkpt lat="47.97403" lon="7.09392">
        <ele>955</ele>
        <time>2022-04-06T12:26:30Z</time>
      </trkpt>
      <trkpt lat="47.97381" lon="7.09321">
        <ele>951</ele>
        <time>2022-04-06T12:26:39Z</time>
      </trkpt>
      <trkpt lat="47.97377" lon="7.0931">
        <ele>951</ele>
        <time>2022-04-06T12:26:41Z</time>
      </trkpt>
      <trkpt lat="47.97364" lon="7.0926">
        <ele>951</ele>
        <time>2022-04-06T12:26:47Z</time>
      </trkpt>
      <trkpt lat="47.97352" lon="7.09199">
        <ele>951</ele>
        <time>2022-04-06T12:26:55Z</time>
      </trkpt>
      <trkpt lat="47.97329" lon="7.09054">
        <ele>953</ele>
        <time>2022-04-06T12:27:12Z</time>
      </trkpt>
      <trkpt lat="47.97327" lon="7.09008">
        <ele>952</ele>
        <time>2022-04-06T12:27:18Z</time>
      </trkpt>
      <trkpt lat="47.97326" lon="7.08952">
        <ele>951</ele>
        <time>2022-04-06T12:27:25Z</time>
      </trkpt>
      <trkpt lat="47.97331" lon="7.08927">
        <ele>948</ele>
        <time>2022-04-06T12:27:28Z</time>
      </trkpt>
      <trkpt lat="47.97336" lon="7.08904">
        <ele>949</ele>
        <time>2022-04-06T12:27:31Z</time>
      </trkpt>
      <trkpt lat="47.97346" lon="7.08888">
        <ele>951</ele>
        <time>2022-04-06T12:27:33Z</time>
      </trkpt>
      <trkpt lat="47.97355" lon="7.08884">
        <ele>950</ele>
        <time>2022-04-06T12:27:35Z</time>
      </trkpt>
      <trkpt lat="47.97431" lon="7.08892">
        <ele>936</ele>
        <time>2022-04-06T12:27:48Z</time>
      </trkpt>
      <trkpt lat="47.97505" lon="7.08907">
        <ele>922</ele>
        <time>2022-04-06T12:28:02Z</time>
      </trkpt>
      <trkpt lat="47.97537" lon="7.08893">
        <ele>918</ele>
        <time>2022-04-06T12:28:08Z</time>
      </trkpt>
      <trkpt lat="47.97551" lon="7.0888">
        <ele>917</ele>
        <time>2022-04-06T12:28:11Z</time>
      </trkpt>
      <trkpt lat="47.97565" lon="7.08849">
        <ele>917</ele>
        <time>2022-04-06T12:28:15Z</time>
      </trkpt>
      <trkpt lat="47.97578" lon="7.0881">
        <ele>914</ele>
        <time>2022-04-06T12:28:20Z</time>
      </trkpt>
      <trkpt lat="47.9759" lon="7.0877">
        <ele>911</ele>
        <time>2022-04-06T12:28:25Z</time>
      </trkpt>
      <trkpt lat="47.97594" lon="7.08725">
        <ele>916</ele>
        <time>2022-04-06T12:28:31Z</time>
      </trkpt>
      <trkpt lat="47.97599" lon="7.08711">
        <ele>918</ele>
        <time>2022-04-06T12:28:33Z</time>
      </trkpt>
      <trkpt lat="47.97625" lon="7.08679">
        <ele>917</ele>
        <time>2022-04-06T12:28:39Z</time>
      </trkpt>
      <trkpt lat="47.97667" lon="7.08635">
        <ele>916</ele>
        <time>2022-04-06T12:28:48Z</time>
      </trkpt>
      <trkpt lat="47.97711" lon="7.08608">
        <ele>915</ele>
        <time>2022-04-06T12:28:56Z</time>
      </trkpt>
      <trkpt lat="47.97789" lon="7.08583">
        <ele>908</ele>
        <time>2022-04-06T12:29:10Z</time>
      </trkpt>
      <trkpt lat="47.9782" lon="7.08579">
        <ele>903</ele>
        <time>2022-04-06T12:29:16Z</time>
      </trkpt>
      <trkpt lat="47.97895" lon="7.08589">
        <ele>895</ele>
        <time>2022-04-06T12:29:29Z</time>
      </trkpt>
      <trkpt lat="47.97913" lon="7.08583">
        <ele>896</ele>
        <time>2022-04-06T12:29:33Z</time>
      </trkpt>
      <trkpt lat="47.97929" lon="7.08565">
        <ele>893</ele>
        <time>2022-04-06T12:29:36Z</time>
      </trkpt>
      <trkpt lat="47.97941" lon="7.08542">
        <ele>890</ele>
        <time>2022-04-06T12:29:40Z</time>
      </trkpt>
      <trkpt lat="47.97951" lon="7.08507">
        <ele>888</ele>
        <time>2022-04-06T12:29:44Z</time>
      </trkpt>
      <trkpt lat="47.97988" lon="7.08306">
        <ele>879</ele>
        <time>2022-04-06T12:30:09Z</time>
      </trkpt>
      <trkpt lat="47.9802" lon="7.08198">
        <ele>873</ele>
        <time>2022-04-06T12:30:23Z</time>
      </trkpt>
      <trkpt lat="47.98066" lon="7.07989">
        <ele>862</ele>
        <time>2022-04-06T12:30:49Z</time>
      </trkpt>
      <trkpt lat="47.9807" lon="7.07962">
        <ele>860</ele>
        <time>2022-04-06T12:30:53Z</time>
      </trkpt>
      <trkpt lat="47.9807" lon="7.07934">
        <ele>858</ele>
        <time>2022-04-06T12:30:56Z</time>
      </trkpt>
      <trkpt lat="47.98066" lon="7.07909">
        <ele>859</ele>
        <time>2022-04-06T12:30:59Z</time>
      </trkpt>
      <trkpt lat="47.9806" lon="7.07884">
        <ele>860</ele>
        <time>2022-04-06T12:31:02Z</time>
      </trkpt>
      <trkpt lat="47.9805" lon="7.0786">
        <ele>863</ele>
        <time>2022-04-06T12:31:06Z</time>
      </trkpt>
      <trkpt lat="47.98042" lon="7.07837">
        <ele>864</ele>
        <time>2022-04-06T12:31:09Z</time>
      </trkpt>
      <trkpt lat="47.98042" lon="7.07831">
        <ele>864</ele>
        <time>2022-04-06T12:31:09Z</time>
      </trkpt>
      <trkpt lat="47.98044" lon="7.07826">
        <ele>864</ele>
        <time>2022-04-06T12:31:10Z</time>
      </trkpt>
      <trkpt lat="47.9805" lon="7.07824">
        <ele>862</ele>
        <time>2022-04-06T12:31:11Z</time>
      </trkpt>
      <trkpt lat="47.98055" lon="7.07827">
        <ele>861</ele>
        <time>2022-04-06T12:31:12Z</time>
      </trkpt>
      <trkpt lat="47.98071" lon="7.07853">
        <ele>857</ele>
        <time>2022-04-06T12:31:16Z</time>
      </trkpt>
      <trkpt lat="47.9811" lon="7.07899">
        <ele>848</ele>
        <time>2022-04-06T12:31:25Z</time>
      </trkpt>
      <trkpt lat="47.98119" lon="7.07916">
        <ele>846</ele>
        <time>2022-04-06T12:31:28Z</time>
      </trkpt>
      <trkpt lat="47.98143" lon="7.08045">
        <ele>844</ele>
        <time>2022-04-06T12:31:44Z</time>
      </trkpt>
      <trkpt lat="47.98147" lon="7.08074">
        <ele>844</ele>
        <time>2022-04-06T12:31:47Z</time>
      </trkpt>
      <trkpt lat="47.9815" lon="7.08088">
        <ele>844</ele>
        <time>2022-04-06T12:31:49Z</time>
      </trkpt>
      <trkpt lat="47.98155" lon="7.08097">
        <ele>842</ele>
        <time>2022-04-06T12:31:50Z</time>
      </trkpt>
      <trkpt lat="47.98162" lon="7.08098">
        <ele>841</ele>
        <time>2022-04-06T12:31:52Z</time>
      </trkpt>
      <trkpt lat="47.98166" lon="7.08091">
        <ele>840</ele>
        <time>2022-04-06T12:31:53Z</time>
      </trkpt>
      <trkpt lat="47.98166" lon="7.08075">
        <ele>840</ele>
        <time>2022-04-06T12:31:55Z</time>
      </trkpt>
      <trkpt lat="47.98157" lon="7.07978">
        <ele>839</ele>
        <time>2022-04-06T12:32:06Z</time>
      </trkpt>
      <trkpt lat="47.98148" lon="7.07816">
        <ele>837</ele>
        <time>2022-04-06T12:32:26Z</time>
      </trkpt>
      <trkpt lat="47.98143" lon="7.07784">
        <ele>836</ele>
        <time>2022-04-06T12:32:30Z</time>
      </trkpt>
      <trkpt lat="47.98135" lon="7.07756">
        <ele>837</ele>
        <time>2022-04-06T12:32:33Z</time>
      </trkpt>
      <trkpt lat="47.98127" lon="7.07739">
        <ele>837</ele>
        <time>2022-04-06T12:32:36Z</time>
      </trkpt>
      <trkpt lat="47.98124" lon="7.07733">
        <ele>837</ele>
        <time>2022-04-06T12:32:37Z</time>
      </trkpt>
      <trkpt lat="47.98076" lon="7.07669">
        <ele>836</ele>
        <time>2022-04-06T12:32:48Z</time>
      </trkpt>
      <trkpt lat="47.98063" lon="7.07642">
        <ele>837</ele>
        <time>2022-04-06T12:32:52Z</time>
      </trkpt>
      <trkpt lat="47.98058" lon="7.07617">
        <ele>836</ele>
        <time>2022-04-06T12:32:55Z</time>
      </trkpt>
      <trkpt lat="47.98056" lon="7.07584">
        <ele>832</ele>
        <time>2022-04-06T12:32:59Z</time>
      </trkpt>
      <trkpt lat="47.9806" lon="7.07522">
        <ele>824</ele>
        <time>2022-04-06T12:33:06Z</time>
      </trkpt>
      <trkpt lat="47.98041" lon="7.07409">
        <ele>818</ele>
        <time>2022-04-06T12:33:20Z</time>
      </trkpt>
      <trkpt lat="47.98031" lon="7.07379">
        <ele>815</ele>
        <time>2022-04-06T12:33:24Z</time>
      </trkpt>
      <trkpt lat="47.98033" lon="7.07368">
        <ele>812</ele>
        <time>2022-04-06T12:33:26Z</time>
      </trkpt>
      <trkpt lat="47.98038" lon="7.07362">
        <ele>810</ele>
        <time>2022-04-06T12:33:27Z</time>
      </trkpt>
      <trkpt lat="47.9805" lon="7.07364">
        <ele>807</ele>
        <time>2022-04-06T12:33:29Z</time>
      </trkpt>
      <trkpt lat="47.98061" lon="7.07378">
        <ele>806</ele>
        <time>2022-04-06T12:33:32Z</time>
      </trkpt>
      <trkpt lat="47.98068" lon="7.07403">
        <ele>808</ele>
        <time>2022-04-06T12:33:35Z</time>
      </trkpt>
      <trkpt lat="47.98073" lon="7.07448">
        <ele>811</ele>
        <time>2022-04-06T12:33:40Z</time>
      </trkpt>
      <trkpt lat="47.98102" lon="7.07542">
        <ele>812</ele>
        <time>2022-04-06T12:33:53Z</time>
      </trkpt>
      <trkpt lat="47.9811" lon="7.0756">
        <ele>812</ele>
        <time>2022-04-06T12:33:55Z</time>
      </trkpt>
      <trkpt lat="47.98123" lon="7.07575">
        <ele>811</ele>
        <time>2022-04-06T12:33:58Z</time>
      </trkpt>
      <trkpt lat="47.98137" lon="7.07579">
        <ele>809</ele>
        <time>2022-04-06T12:34:01Z</time>
      </trkpt>
      <trkpt lat="47.98152" lon="7.07577">
        <ele>806</ele>
        <time>2022-04-06T12:34:03Z</time>
      </trkpt>
      <trkpt lat="47.98168" lon="7.07566">
        <ele>801</ele>
        <time>2022-04-06T12:34:06Z</time>
      </trkpt>
      <trkpt lat="47.98174" lon="7.0756">
        <ele>800</ele>
        <time>2022-04-06T12:34:08Z</time>
      </trkpt>
      <trkpt lat="47.98183" lon="7.07551">
        <ele>799</ele>
        <time>2022-04-06T12:34:10Z</time>
      </trkpt>
      <trkpt lat="47.98196" lon="7.07526">
        <ele>796</ele>
        <time>2022-04-06T12:34:13Z</time>
      </trkpt>
      <trkpt lat="47.98215" lon="7.07483">
        <ele>789</ele>
        <time>2022-04-06T12:34:19Z</time>
      </trkpt>
      <trkpt lat="47.98226" lon="7.07467">
        <ele>786</ele>
        <time>2022-04-06T12:34:22Z</time>
      </trkpt>
      <trkpt lat="47.98239" lon="7.07455">
        <ele>783</ele>
        <time>2022-04-06T12:34:25Z</time>
      </trkpt>
      <trkpt lat="47.98294" lon="7.07419">
        <ele>775</ele>
        <time>2022-04-06T12:34:36Z</time>
      </trkpt>
      <trkpt lat="47.98312" lon="7.07409">
        <ele>773</ele>
        <time>2022-04-06T12:34:39Z</time>
      </trkpt>
      <trkpt lat="47.9833" lon="7.07405">
        <ele>772</ele>
        <time>2022-04-06T12:34:42Z</time>
      </trkpt>
      <trkpt lat="47.98348" lon="7.07405">
        <ele>770</ele>
        <time>2022-04-06T12:34:45Z</time>
      </trkpt>
      <trkpt lat="47.98366" lon="7.07413">
        <ele>769</ele>
        <time>2022-04-06T12:34:49Z</time>
      </trkpt>
      <trkpt lat="47.98425" lon="7.07457">
        <ele>774</ele>
        <time>2022-04-06T12:35:01Z</time>
      </trkpt>
      <trkpt lat="47.98446" lon="7.07468">
        <ele>773</ele>
        <time>2022-04-06T12:35:05Z</time>
      </trkpt>
      <trkpt lat="47.9851" lon="7.07483">
        <ele>765</ele>
        <time>2022-04-06T12:35:16Z</time>
      </trkpt>
      <trkpt lat="47.9854" lon="7.075">
        <ele>761</ele>
        <time>2022-04-06T12:35:22Z</time>
      </trkpt>
      <trkpt lat="47.98584" lon="7.07545">
        <ele>758</ele>
        <time>2022-04-06T12:35:31Z</time>
      </trkpt>
      <trkpt lat="47.98634" lon="7.07582">
        <ele>755</ele>
        <time>2022-04-06T12:35:41Z</time>
      </trkpt>
      <trkpt lat="47.98638" lon="7.07585">
        <ele>755</ele>
        <time>2022-04-06T12:35:42Z</time>
      </trkpt>
      <trkpt lat="47.98723" lon="7.07638">
        <ele>744</ele>
        <time>2022-04-06T12:35:58Z</time>
      </trkpt>
      <trkpt lat="47.98769" lon="7.07671">
        <ele>739</ele>
        <time>2022-04-06T12:36:07Z</time>
      </trkpt>
      <trkpt lat="47.98818" lon="7.07723">
        <ele>735</ele>
        <time>2022-04-06T12:36:18Z</time>
      </trkpt>
      <trkpt lat="47.98841" lon="7.07737">
        <ele>733</ele>
        <time>2022-04-06T12:36:23Z</time>
      </trkpt>
      <trkpt lat="47.98929" lon="7.07771">
        <ele>728</ele>
        <time>2022-04-06T12:36:39Z</time>
      </trkpt>
      <trkpt lat="47.99008" lon="7.07786">
        <ele>722</ele>
        <time>2022-04-06T12:36:53Z</time>
      </trkpt>
      <trkpt lat="47.9904" lon="7.07791">
        <ele>717</ele>
        <time>2022-04-06T12:36:59Z</time>
      </trkpt>
      <trkpt lat="47.99063" lon="7.07793">
        <ele>713</ele>
        <time>2022-04-06T12:37:03Z</time>
      </trkpt>
      <trkpt lat="47.99089" lon="7.07792">
        <ele>709</ele>
        <time>2022-04-06T12:37:07Z</time>
      </trkpt>
      <trkpt lat="47.99112" lon="7.07784">
        <ele>708</ele>
        <time>2022-04-06T12:37:12Z</time>
      </trkpt>
      <trkpt lat="47.99154" lon="7.07765">
        <ele>706</ele>
        <time>2022-04-06T12:37:19Z</time>
      </trkpt>
      <trkpt lat="47.99185" lon="7.07741">
        <ele>704</ele>
        <time>2022-04-06T12:37:26Z</time>
      </trkpt>
      <trkpt lat="47.99239" lon="7.07689">
        <ele>698</ele>
        <time>2022-04-06T12:37:37Z</time>
      </trkpt>
      <trkpt lat="47.99246" lon="7.07678">
        <ele>698</ele>
        <time>2022-04-06T12:37:39Z</time>
      </trkpt>
      <trkpt lat="47.99247" lon="7.07668">
        <ele>698</ele>
        <time>2022-04-06T12:37:40Z</time>
      </trkpt>
      <trkpt lat="47.99244" lon="7.07654">
        <ele>697</ele>
        <time>2022-04-06T12:37:42Z</time>
      </trkpt>
      <trkpt lat="47.99235" lon="7.07646">
        <ele>696</ele>
        <time>2022-04-06T12:37:44Z</time>
      </trkpt>
      <trkpt lat="47.99192" lon="7.07637">
        <ele>694</ele>
        <time>2022-04-06T12:37:51Z</time>
      </trkpt>
      <trkpt lat="47.99174" lon="7.07637">
        <ele>694</ele>
        <time>2022-04-06T12:37:55Z</time>
      </trkpt>
      <trkpt lat="47.9916" lon="7.07641">
        <ele>694</ele>
        <time>2022-04-06T12:37:57Z</time>
      </trkpt>
      <trkpt lat="47.99099" lon="7.07656">
        <ele>693</ele>
        <time>2022-04-06T12:38:08Z</time>
      </trkpt>
      <trkpt lat="47.99065" lon="7.07656">
        <ele>694</ele>
        <time>2022-04-06T12:38:14Z</time>
      </trkpt>
      <trkpt lat="47.99" lon="7.07633">
        <ele>693</ele>
        <time>2022-04-06T12:38:26Z</time>
      </trkpt>
      <trkpt lat="47.98966" lon="7.07612">
        <ele>690</ele>
        <time>2022-04-06T12:38:33Z</time>
      </trkpt>
      <trkpt lat="47.98912" lon="7.07567">
        <ele>682</ele>
        <time>2022-04-06T12:38:44Z</time>
      </trkpt>
      <trkpt lat="47.98759" lon="7.0742">
        <ele>674</ele>
        <time>2022-04-06T12:39:16Z</time>
      </trkpt>
      <trkpt lat="47.9856" lon="7.07262">
        <ele>668</ele>
        <time>2022-04-06T12:39:56Z</time>
      </trkpt>
      <trkpt lat="47.98398" lon="7.0715">
        <ele>657</ele>
        <time>2022-04-06T12:40:28Z</time>
      </trkpt>
      <trkpt lat="47.9833" lon="7.0708">
        <ele>654</ele>
        <time>2022-04-06T12:40:42Z</time>
      </trkpt>
      <trkpt lat="47.98262" lon="7.07025">
        <ele>648</ele>
        <time>2022-04-06T12:40:56Z</time>
      </trkpt>
      <trkpt lat="47.98223" lon="7.06988">
        <ele>644</ele>
        <time>2022-04-06T12:41:04Z</time>
      </trkpt>
      <trkpt lat="47.9822" lon="7.06984">
        <ele>644</ele>
        <time>2022-04-06T12:41:05Z</time>
      </trkpt>
      <trkpt lat="47.98164" lon="7.06913">
        <ele>637</ele>
        <time>2022-04-06T12:41:18Z</time>
      </trkpt>
      <trkpt lat="47.98125" lon="7.06857">
        <ele>631</ele>
        <time>2022-04-06T12:41:28Z</time>
      </trkpt>
      <trkpt lat="47.98119" lon="7.06841">
        <ele>628</ele>
        <time>2022-04-06T12:41:30Z</time>
      </trkpt>
      <trkpt lat="47.98118" lon="7.0683">
        <ele>626</ele>
        <time>2022-04-06T12:41:31Z</time>
      </trkpt>
      <trkpt lat="47.98119" lon="7.06824">
        <ele>625</ele>
        <time>2022-04-06T12:41:32Z</time>
      </trkpt>
      <trkpt lat="47.9812" lon="7.06818">
        <ele>624</ele>
        <time>2022-04-06T12:41:33Z</time>
      </trkpt>
      <trkpt lat="47.98131" lon="7.06797">
        <ele>620</ele>
        <time>2022-04-06T12:41:36Z</time>
      </trkpt>
      <trkpt lat="47.98148" lon="7.06775">
        <ele>616</ele>
        <time>2022-04-06T12:41:40Z</time>
      </trkpt>
      <trkpt lat="47.98161" lon="7.06763">
        <ele>614</ele>
        <time>2022-04-06T12:41:43Z</time>
      </trkpt>
      <trkpt lat="47.98175" lon="7.0676">
        <ele>614</ele>
        <time>2022-04-06T12:41:45Z</time>
      </trkpt>
      <trkpt lat="47.98243" lon="7.06751">
        <ele>613</ele>
        <time>2022-04-06T12:41:57Z</time>
      </trkpt>
      <trkpt lat="47.98255" lon="7.0675">
        <ele>613</ele>
        <time>2022-04-06T12:42:00Z</time>
      </trkpt>
      <trkpt lat="47.98283" lon="7.06746">
        <ele>616</ele>
        <time>2022-04-06T12:42:05Z</time>
      </trkpt>
      <trkpt lat="47.98301" lon="7.06747">
        <ele>618</ele>
        <time>2022-04-06T12:42:08Z</time>
      </trkpt>
      <trkpt lat="47.98332" lon="7.06753">
        <ele>619</ele>
        <time>2022-04-06T12:42:13Z</time>
      </trkpt>
      <trkpt lat="47.98391" lon="7.06789">
        <ele>617</ele>
        <time>2022-04-06T12:42:25Z</time>
      </trkpt>
      <trkpt lat="47.98484" lon="7.06842">
        <ele>607</ele>
        <time>2022-04-06T12:42:42Z</time>
      </trkpt>
      <trkpt lat="47.98579" lon="7.06896">
        <ele>601</ele>
        <time>2022-04-06T12:43:00Z</time>
      </trkpt>
      <trkpt lat="47.98656" lon="7.06926">
        <ele>600</ele>
        <time>2022-04-06T12:43:15Z</time>
      </trkpt>
      <trkpt lat="47.98715" lon="7.06945">
        <ele>599</ele>
        <time>2022-04-06T12:43:25Z</time>
      </trkpt>
      <trkpt lat="47.98752" lon="7.0695">
        <ele>599</ele>
        <time>2022-04-06T12:43:32Z</time>
      </trkpt>
      <trkpt lat="47.98808" lon="7.06934">
        <ele>596</ele>
        <time>2022-04-06T12:43:42Z</time>
      </trkpt>
      <trkpt lat="47.9884" lon="7.06931">
        <ele>594</ele>
        <time>2022-04-06T12:43:48Z</time>
      </trkpt>
      <trkpt lat="47.98878" lon="7.06919">
        <ele>593</ele>
        <time>2022-04-06T12:43:55Z</time>
      </trkpt>
      <trkpt lat="47.98898" lon="7.06916">
        <ele>592</ele>
        <time>2022-04-06T12:43:58Z</time>
      </trkpt>
      <trkpt lat="47.98903" lon="7.06912">
        <ele>592</ele>
        <time>2022-04-06T12:43:59Z</time>
      </trkpt>
      <trkpt lat="47.98876" lon="7.06905">
        <ele>594</ele>
        <time>2022-04-06T12:44:04Z</time>
      </trkpt>
      <trkpt lat="47.98858" lon="7.06892">
        <ele>596</ele>
        <time>2022-04-06T12:44:08Z</time>
      </trkpt>
      <trkpt lat="47.98849" lon="7.06876">
        <ele>598</ele>
        <time>2022-04-06T12:44:10Z</time>
      </trkpt>
      <trkpt lat="47.98843" lon="7.06857">
        <ele>600</ele>
        <time>2022-04-06T12:44:13Z</time>
      </trkpt>
      <trkpt lat="47.9884" lon="7.06842">
        <ele>602</ele>
        <time>2022-04-06T12:44:15Z</time>
      </trkpt>
      <trkpt lat="47.98841" lon="7.06812">
        <ele>607</ele>
        <time>2022-04-06T12:44:18Z</time>
      </trkpt>
      <trkpt lat="47.98846" lon="7.06793">
        <ele>610</ele>
        <time>2022-04-06T12:44:21Z</time>
      </trkpt>
      <trkpt lat="47.98855" lon="7.06775">
        <ele>613</ele>
        <time>2022-04-06T12:44:23Z</time>
      </trkpt>
      <trkpt lat="47.9887" lon="7.06758">
        <ele>614</ele>
        <time>2022-04-06T12:44:27Z</time>
      </trkpt>
      <trkpt lat="47.98976" lon="7.06671">
        <ele>624</ele>
        <time>2022-04-06T12:44:48Z</time>
      </trkpt>
      <trkpt lat="47.98995" lon="7.06659">
        <ele>623</ele>
        <time>2022-04-06T12:44:52Z</time>
      </trkpt>
      <trkpt lat="47.99013" lon="7.06654">
        <ele>624</ele>
        <time>2022-04-06T12:44:55Z</time>
      </trkpt>
      <trkpt lat="47.99049" lon="7.0666">
        <ele>627</ele>
        <time>2022-04-06T12:45:02Z</time>
      </trkpt>
      <trkpt lat="47.99099" lon="7.06679">
        <ele>627</ele>
        <time>2022-04-06T12:45:11Z</time>
      </trkpt>
      <trkpt lat="47.99116" lon="7.06683">
        <ele>629</ele>
        <time>2022-04-06T12:45:14Z</time>
      </trkpt>
      <trkpt lat="47.99135" lon="7.06681">
        <ele>632</ele>
        <time>2022-04-06T12:45:17Z</time>
      </trkpt>
      <trkpt lat="47.99175" lon="7.06664">
        <ele>643</ele>
        <time>2022-04-06T12:45:25Z</time>
      </trkpt>
      <trkpt lat="47.99197" lon="7.06661">
        <ele>648</ele>
        <time>2022-04-06T12:45:28Z</time>
      </trkpt>
      <trkpt lat="47.99237" lon="7.06669">
        <ele>654</ele>
        <time>2022-04-06T12:45:36Z</time>
      </trkpt>
      <trkpt lat="47.99295" lon="7.06687">
        <ele>659</ele>
        <time>2022-04-06T12:45:46Z</time>
      </trkpt>
      <trkpt lat="47.9934" lon="7.06694">
        <ele>662</ele>
        <time>2022-04-06T12:45:54Z</time>
      </trkpt>
      <trkpt lat="47.99369" lon="7.06689">
        <ele>661</ele>
        <time>2022-04-06T12:45:59Z</time>
      </trkpt>
      <trkpt lat="47.994" lon="7.06673">
        <ele>665</ele>
        <time>2022-04-06T12:46:05Z</time>
      </trkpt>
      <trkpt lat="47.99421" lon="7.06651">
        <ele>669</ele>
        <time>2022-04-06T12:46:10Z</time>
      </trkpt>
      <trkpt lat="47.99436" lon="7.06628">
        <ele>671</ele>
        <time>2022-04-06T12:46:14Z</time>
      </trkpt>
      <trkpt lat="47.99451" lon="7.06594">
        <ele>676</ele>
        <time>2022-04-06T12:46:19Z</time>
      </trkpt>
      <trkpt lat="47.99465" lon="7.06553">
        <ele>679</ele>
        <time>2022-04-06T12:46:24Z</time>
      </trkpt>
      <trkpt lat="47.99488" lon="7.06438">
        <ele>691</ele>
        <time>2022-04-06T12:46:38Z</time>
      </trkpt>
      <trkpt lat="47.99493" lon="7.06431">
        <ele>690</ele>
        <time>2022-04-06T12:46:40Z</time>
      </trkpt>
      <trkpt lat="47.99506" lon="7.06427">
        <ele>689</ele>
        <time>2022-04-06T12:46:42Z</time>
      </trkpt>
      <trkpt lat="47.99512" lon="7.06431">
        <ele>688</ele>
        <time>2022-04-06T12:46:43Z</time>
      </trkpt>
      <trkpt lat="47.99518" lon="7.0644">
        <ele>687</ele>
        <time>2022-04-06T12:46:45Z</time>
      </trkpt>
      <trkpt lat="47.99546" lon="7.06496">
        <ele>677</ele>
        <time>2022-04-06T12:46:53Z</time>
      </trkpt>
      <trkpt lat="47.99562" lon="7.06525">
        <ele>673</ele>
        <time>2022-04-06T12:46:57Z</time>
      </trkpt>
      <trkpt lat="47.99567" lon="7.06529">
        <ele>672</ele>
        <time>2022-04-06T12:46:58Z</time>
      </trkpt>
      <trkpt lat="47.99572" lon="7.0653">
        <ele>672</ele>
        <time>2022-04-06T12:46:59Z</time>
      </trkpt>
      <trkpt lat="47.99577" lon="7.06528">
        <ele>673</ele>
        <time>2022-04-06T12:47:00Z</time>
      </trkpt>
      <trkpt lat="47.9958" lon="7.06521">
        <ele>674</ele>
        <time>2022-04-06T12:47:01Z</time>
      </trkpt>
      <trkpt lat="47.99582" lon="7.06511">
        <ele>676</ele>
        <time>2022-04-06T12:47:02Z</time>
      </trkpt>
      <trkpt lat="47.99575" lon="7.06488">
        <ele>681</ele>
        <time>2022-04-06T12:47:05Z</time>
      </trkpt>
      <trkpt lat="47.99555" lon="7.06449">
        <ele>688</ele>
        <time>2022-04-06T12:47:11Z</time>
      </trkpt>
      <trkpt lat="47.99512" lon="7.06357">
        <ele>704</ele>
        <time>2022-04-06T12:47:25Z</time>
      </trkpt>
      <trkpt lat="47.995" lon="7.06334">
        <ele>707</ele>
        <time>2022-04-06T12:47:28Z</time>
      </trkpt>
      <trkpt lat="47.9949" lon="7.06329">
        <ele>712</ele>
        <time>2022-04-06T12:47:30Z</time>
      </trkpt>
      <trkpt lat="47.99481" lon="7.06331">
        <ele>715</ele>
        <time>2022-04-06T12:47:32Z</time>
      </trkpt>
      <trkpt lat="47.99476" lon="7.06336">
        <ele>716</ele>
        <time>2022-04-06T12:47:33Z</time>
      </trkpt>
      <trkpt lat="47.99408" lon="7.06491">
        <ele>713</ele>
        <time>2022-04-06T12:47:55Z</time>
      </trkpt>
      <trkpt lat="47.99391" lon="7.06515">
        <ele>711</ele>
        <time>2022-04-06T12:47:59Z</time>
      </trkpt>
      <trkpt lat="47.99379" lon="7.06524">
        <ele>711</ele>
        <time>2022-04-06T12:48:01Z</time>
      </trkpt>
      <trkpt lat="47.99363" lon="7.06527">
        <ele>713</ele>
        <time>2022-04-06T12:48:04Z</time>
      </trkpt>
      <trkpt lat="47.99346" lon="7.06522">
        <ele>717</ele>
        <time>2022-04-06T12:48:07Z</time>
      </trkpt>
      <trkpt lat="47.99288" lon="7.06491">
        <ele>724</ele>
        <time>2022-04-06T12:48:18Z</time>
      </trkpt>
      <trkpt lat="47.99248" lon="7.06457">
        <ele>730</ele>
        <time>2022-04-06T12:48:26Z</time>
      </trkpt>
      <trkpt lat="47.99214" lon="7.06419">
        <ele>733</ele>
        <time>2022-04-06T12:48:34Z</time>
      </trkpt>
      <trkpt lat="47.99189" lon="7.0637">
        <ele>739</ele>
        <time>2022-04-06T12:48:41Z</time>
      </trkpt>
      <trkpt lat="47.99166" lon="7.06315">
        <ele>744</ele>
        <time>2022-04-06T12:48:49Z</time>
      </trkpt>
      <trkpt lat="47.99141" lon="7.06218">
        <ele>751</ele>
        <time>2022-04-06T12:49:01Z</time>
      </trkpt>
      <trkpt lat="47.99106" lon="7.06095">
        <ele>757</ele>
        <time>2022-04-06T12:49:17Z</time>
      </trkpt>
      <trkpt lat="47.99077" lon="7.05971">
        <ele>769</ele>
        <time>2022-04-06T12:49:33Z</time>
      </trkpt>
      <trkpt lat="47.99054" lon="7.0589">
        <ele>782</ele>
        <time>2022-04-06T12:49:43Z</time>
      </trkpt>
      <trkpt lat="47.99032" lon="7.05835">
        <ele>793</ele>
        <time>2022-04-06T12:49:51Z</time>
      </trkpt>
      <trkpt lat="47.99004" lon="7.05781">
        <ele>798</ele>
        <time>2022-04-06T12:49:59Z</time>
      </trkpt>
      <trkpt lat="47.98985" lon="7.05766">
        <ele>802</ele>
        <time>2022-04-06T12:50:03Z</time>
      </trkpt>
      <trkpt lat="47.98973" lon="7.05768">
        <ele>802</ele>
        <time>2022-04-06T12:50:05Z</time>
      </trkpt>
      <trkpt lat="47.98958" lon="7.0578">
        <ele>802</ele>
        <time>2022-04-06T12:50:08Z</time>
      </trkpt>
      <trkpt lat="47.98915" lon="7.05824">
        <ele>800</ele>
        <time>2022-04-06T12:50:17Z</time>
      </trkpt>
      <trkpt lat="47.98866" lon="7.05853">
        <ele>807</ele>
        <time>2022-04-06T12:50:27Z</time>
      </trkpt>
      <trkpt lat="47.98804" lon="7.059">
        <ele>816</ele>
        <time>2022-04-06T12:50:39Z</time>
      </trkpt>
      <trkpt lat="47.98711" lon="7.06">
        <ele>815</ele>
        <time>2022-04-06T12:51:00Z</time>
      </trkpt>
      <trkpt lat="47.98694" lon="7.06005">
        <ele>816</ele>
        <time>2022-04-06T12:51:03Z</time>
      </trkpt>
      <trkpt lat="47.98665" lon="7.05992">
        <ele>822</ele>
        <time>2022-04-06T12:51:08Z</time>
      </trkpt>
      <trkpt lat="47.98639" lon="7.0597">
        <ele>822</ele>
        <time>2022-04-06T12:51:13Z</time>
      </trkpt>
      <trkpt lat="47.98614" lon="7.05943">
        <ele>824</ele>
        <time>2022-04-06T12:51:19Z</time>
      </trkpt>
      <trkpt lat="47.9856" lon="7.05861">
        <ele>837</ele>
        <time>2022-04-06T12:51:33Z</time>
      </trkpt>
      <trkpt lat="47.98445" lon="7.05748">
        <ele>851</ele>
        <time>2022-04-06T12:51:57Z</time>
      </trkpt>
      <trkpt lat="47.98428" lon="7.05735">
        <ele>852</ele>
        <time>2022-04-06T12:52:00Z</time>
      </trkpt>
      <trkpt lat="47.98423" lon="7.05725">
        <ele>854</ele>
        <time>2022-04-06T12:52:02Z</time>
      </trkpt>
      <trkpt lat="47.98423" lon="7.05711">
        <ele>858</ele>
        <time>2022-04-06T12:52:04Z</time>
      </trkpt>
      <trkpt lat="47.98429" lon="7.05704">
        <ele>861</ele>
        <time>2022-04-06T12:52:05Z</time>
      </trkpt>
      <trkpt lat="47.9844" lon="7.05707">
        <ele>862</ele>
        <time>2022-04-06T12:52:07Z</time>
      </trkpt>
      <trkpt lat="47.98467" lon="7.05727">
        <ele>861</ele>
        <time>2022-04-06T12:52:12Z</time>
      </trkpt>
      <trkpt lat="47.98561" lon="7.05777">
        <ele>861</ele>
        <time>2022-04-06T12:52:30Z</time>
      </trkpt>
      <trkpt lat="47.98609" lon="7.05793">
        <ele>862</ele>
        <time>2022-04-06T12:52:39Z</time>
      </trkpt>
      <trkpt lat="47.98638" lon="7.05796">
        <ele>863</ele>
        <time>2022-04-06T12:52:44Z</time>
      </trkpt>
      <trkpt lat="47.98657" lon="7.05793">
        <ele>865</ele>
        <time>2022-04-06T12:52:47Z</time>
      </trkpt>
      <trkpt lat="47.98672" lon="7.05783">
        <ele>867</ele>
        <time>2022-04-06T12:52:50Z</time>
      </trkpt>
      <trkpt lat="47.98685" lon="7.05763">
        <ele>870</ele>
        <time>2022-04-06T12:52:54Z</time>
      </trkpt>
      <trkpt lat="47.98718" lon="7.05685">
        <ele>878</ele>
        <time>2022-04-06T12:53:05Z</time>
      </trkpt>
      <trkpt lat="47.98746" lon="7.05627">
        <ele>880</ele>
        <time>2022-04-06T12:53:13Z</time>
      </trkpt>
      <trkpt lat="47.98773" lon="7.05583">
        <ele>878</ele>
        <time>2022-04-06T12:53:20Z</time>
      </trkpt>
      <trkpt lat="47.98785" lon="7.05557">
        <ele>878</ele>
        <time>2022-04-06T12:53:24Z</time>
      </trkpt>
      <trkpt lat="47.98787" lon="7.05546">
        <ele>879</ele>
        <time>2022-04-06T12:53:25Z</time>
      </trkpt>
      <trkpt lat="47.98785" lon="7.05534">
        <ele>881</ele>
        <time>2022-04-06T12:53:27Z</time>
      </trkpt>
      <trkpt lat="47.98776" lon="7.05531">
        <ele>884</ele>
        <time>2022-04-06T12:53:28Z</time>
      </trkpt>
      <trkpt lat="47.98765" lon="7.05534">
        <ele>887</ele>
        <time>2022-04-06T12:53:30Z</time>
      </trkpt>
      <trkpt lat="47.98735" lon="7.05583">
        <ele>888</ele>
        <time>2022-04-06T12:53:38Z</time>
      </trkpt>
      <trkpt lat="47.98689" lon="7.05625">
        <ele>893</ele>
        <time>2022-04-06T12:53:48Z</time>
      </trkpt>
      <trkpt lat="47.98635" lon="7.05647">
        <ele>897</ele>
        <time>2022-04-06T12:53:58Z</time>
      </trkpt>
      <trkpt lat="47.98587" lon="7.05625">
        <ele>904</ele>
        <time>2022-04-06T12:54:07Z</time>
      </trkpt>
      <trkpt lat="47.98519" lon="7.05565">
        <ele>912</ele>
        <time>2022-04-06T12:54:21Z</time>
      </trkpt>
      <trkpt lat="47.9846" lon="7.05495">
        <ele>923</ele>
        <time>2022-04-06T12:54:34Z</time>
      </trkpt>
      <trkpt lat="47.98421" lon="7.05468">
        <ele>927</ele>
        <time>2022-04-06T12:54:42Z</time>
      </trkpt>
      <trkpt lat="47.98332" lon="7.05468">
        <ele>933</ele>
        <time>2022-04-06T12:54:58Z</time>
      </trkpt>
      <trkpt lat="47.98303" lon="7.0546">
        <ele>937</ele>
        <time>2022-04-06T12:55:03Z</time>
      </trkpt>
      <trkpt lat="47.98184" lon="7.05394">
        <ele>949</ele>
        <time>2022-04-06T12:55:26Z</time>
      </trkpt>
      <trkpt lat="47.98133" lon="7.05335">
        <ele>959</ele>
        <time>2022-04-06T12:55:37Z</time>
      </trkpt>
      <trkpt lat="47.98118" lon="7.05322">
        <ele>963</ele>
        <time>2022-04-06T12:55:40Z</time>
      </trkpt>
      <trkpt lat="47.98106" lon="7.05318">
        <ele>964</ele>
        <time>2022-04-06T12:55:42Z</time>
      </trkpt>
      <trkpt lat="47.98051" lon="7.05326">
        <ele>971</ele>
        <time>2022-04-06T12:55:52Z</time>
      </trkpt>
      <trkpt lat="47.98001" lon="7.05344">
        <ele>981</ele>
        <time>2022-04-06T12:56:01Z</time>
      </trkpt>
      <trkpt lat="47.97981" lon="7.05364">
        <ele>986</ele>
        <time>2022-04-06T12:56:06Z</time>
      </trkpt>
      <trkpt lat="47.97907" lon="7.05507">
        <ele>990</ele>
        <time>2022-04-06T12:56:27Z</time>
      </trkpt>
      <trkpt lat="47.97866" lon="7.05553">
        <ele>988</ele>
        <time>2022-04-06T12:56:36Z</time>
      </trkpt>
      <trkpt lat="47.9785" lon="7.05556">
        <ele>991</ele>
        <time>2022-04-06T12:56:39Z</time>
      </trkpt>
      <trkpt lat="47.97845" lon="7.05549">
        <ele>994</ele>
        <time>2022-04-06T12:56:40Z</time>
      </trkpt>
      <trkpt lat="47.97844" lon="7.0554">
        <ele>997</ele>
        <time>2022-04-06T12:56:41Z</time>
      </trkpt>
      <trkpt lat="47.97849" lon="7.0553">
        <ele>998</ele>
        <time>2022-04-06T12:56:43Z</time>
      </trkpt>
      <trkpt lat="47.97867" lon="7.05514">
        <ele>998</ele>
        <time>2022-04-06T12:56:47Z</time>
      </trkpt>
      <trkpt lat="47.97891" lon="7.0548">
        <ele>1000</ele>
        <time>2022-04-06T12:56:53Z</time>
      </trkpt>
      <trkpt lat="47.97913" lon="7.05421">
        <ele>1008</ele>
        <time>2022-04-06T12:57:01Z</time>
      </trkpt>
      <trkpt lat="47.97951" lon="7.05273">
        <ele>1019</ele>
        <time>2022-04-06T12:57:19Z</time>
      </trkpt>
      <trkpt lat="47.97989" lon="7.05181">
        <ele>1022</ele>
        <time>2022-04-06T12:57:32Z</time>
      </trkpt>
      <trkpt lat="47.98013" lon="7.05139">
        <ele>1022</ele>
        <time>2022-04-06T12:57:39Z</time>
      </trkpt>
      <trkpt lat="47.98031" lon="7.05117">
        <ele>1023</ele>
        <time>2022-04-06T12:57:43Z</time>
      </trkpt>
      <trkpt lat="47.98056" lon="7.05098">
        <ele>1023</ele>
        <time>2022-04-06T12:57:48Z</time>
      </trkpt>
      <trkpt lat="47.98079" lon="7.05088">
        <ele>1023</ele>
        <time>2022-04-06T12:57:52Z</time>
      </trkpt>
      <trkpt lat="47.98133" lon="7.05087">
        <ele>1023</ele>
        <time>2022-04-06T12:58:02Z</time>
      </trkpt>
      <trkpt lat="47.98139" lon="7.05083">
        <ele>1024</ele>
        <time>2022-04-06T12:58:03Z</time>
      </trkpt>
      <trkpt lat="47.98146" lon="7.05072">
        <ele>1027</ele>
        <time>2022-04-06T12:58:05Z</time>
      </trkpt>
      <trkpt lat="47.98146" lon="7.05064">
        <ele>1029</ele>
        <time>2022-04-06T12:58:06Z</time>
      </trkpt>
      <trkpt lat="47.98143" lon="7.05054">
        <ele>1031</ele>
        <time>2022-04-06T12:58:07Z</time>
      </trkpt>
      <trkpt lat="47.98134" lon="7.0505">
        <ele>1031</ele>
        <time>2022-04-06T12:58:09Z</time>
      </trkpt>
      <trkpt lat="47.98108" lon="7.05061">
        <ele>1028</ele>
        <time>2022-04-06T12:58:14Z</time>
      </trkpt>
      <trkpt lat="47.98042" lon="7.05069">
        <ele>1029</ele>
        <time>2022-04-06T12:58:25Z</time>
      </trkpt>
      <trkpt lat="47.97986" lon="7.051">
        <ele>1033</ele>
        <time>2022-04-06T12:58:36Z</time>
      </trkpt>
      <trkpt lat="47.97963" lon="7.0512">
        <ele>1038</ele>
        <time>2022-04-06T12:58:41Z</time>
      </trkpt>
      <trkpt lat="47.97913" lon="7.05245">
        <ele>1037</ele>
        <time>2022-04-06T12:58:58Z</time>
      </trkpt>
      <trkpt lat="47.97882" lon="7.05292">
        <ele>1039</ele>
        <time>2022-04-06T12:59:06Z</time>
      </trkpt>
      <trkpt lat="47.97856" lon="7.05317">
        <ele>1043</ele>
        <time>2022-04-06T12:59:11Z</time>
      </trkpt>
      <trkpt lat="47.97825" lon="7.05324">
        <ele>1049</ele>
        <time>2022-04-06T12:59:17Z</time>
      </trkpt>
      <trkpt lat="47.97787" lon="7.05311">
        <ele>1053</ele>
        <time>2022-04-06T12:59:24Z</time>
      </trkpt>
      <trkpt lat="47.97752" lon="7.05286">
        <ele>1059</ele>
        <time>2022-04-06T12:59:31Z</time>
      </trkpt>
      <trkpt lat="47.97704" lon="7.05224">
        <ele>1063</ele>
        <time>2022-04-06T12:59:42Z</time>
      </trkpt>
      <trkpt lat="47.97657" lon="7.05136">
        <ele>1071</ele>
        <time>2022-04-06T12:59:56Z</time>
      </trkpt>
      <trkpt lat="47.97638" lon="7.05061">
        <ele>1077</ele>
        <time>2022-04-06T13:00:05Z</time>
      </trkpt>
      <trkpt lat="47.97625" lon="7.0496">
        <ele>1088</ele>
        <time>2022-04-06T13:00:17Z</time>
      </trkpt>
      <trkpt lat="47.97609" lon="7.04875">
        <ele>1100</ele>
        <time>2022-04-06T13:00:28Z</time>
      </trkpt>
      <trkpt lat="47.9757" lon="7.04799">
        <ele>1107</ele>
        <time>2022-04-06T13:00:39Z</time>
      </trkpt>
      <trkpt lat="47.97507" lon="7.04724">
        <ele>1112</ele>
        <time>2022-04-06T13:00:54Z</time>
      </trkpt>
      <trkpt lat="47.97428" lon="7.04667">
        <ele>1120</ele>
        <time>2022-04-06T13:01:09Z</time>
      </trkpt>
      <trkpt lat="47.97355" lon="7.04641">
        <ele>1131</ele>
        <time>2022-04-06T13:01:23Z</time>
      </trkpt>
      <trkpt lat="47.97304" lon="7.0461">
        <ele>1142</ele>
        <time>2022-04-06T13:01:32Z</time>
      </trkpt>
      <trkpt lat="47.97182" lon="7.04547">
        <ele>1154</ele>
        <time>2022-04-06T13:01:55Z</time>
      </trkpt>
      <trkpt lat="47.97089" lon="7.04483">
        <ele>1165</ele>
        <time>2022-04-06T13:02:14Z</time>
      </trkpt>
      <trkpt lat="47.97023" lon="7.04464">
        <ele>1170</ele>
        <time>2022-04-06T13:02:26Z</time>
      </trkpt>
      <trkpt lat="47.96993" lon="7.04444">
        <ele>1174</ele>
        <time>2022-04-06T13:02:31Z</time>
      </trkpt>
      <trkpt lat="47.96955" lon="7.04403">
        <ele>1180</ele>
        <time>2022-04-06T13:02:40Z</time>
      </trkpt>
      <trkpt lat="47.96944" lon="7.04387">
        <ele>1182</ele>
        <time>2022-04-06T13:02:42Z</time>
      </trkpt>
      <trkpt lat="47.96938" lon="7.0437">
        <ele>1185</ele>
        <time>2022-04-06T13:02:45Z</time>
      </trkpt>
      <trkpt lat="47.96935" lon="7.04351">
        <ele>1188</ele>
        <time>2022-04-06T13:02:47Z</time>
      </trkpt>
      <trkpt lat="47.96937" lon="7.04334">
        <ele>1191</ele>
        <time>2022-04-06T13:02:49Z</time>
      </trkpt>
      <trkpt lat="47.96955" lon="7.0426">
        <ele>1194</ele>
        <time>2022-04-06T13:02:59Z</time>
      </trkpt>
      <trkpt lat="47.96961" lon="7.04228">
        <ele>1192</ele>
        <time>2022-04-06T13:03:03Z</time>
      </trkpt>
      <trkpt lat="47.9696" lon="7.04214">
        <ele>1191</ele>
        <time>2022-04-06T13:03:04Z</time>
      </trkpt>
      <trkpt lat="47.96958" lon="7.04201">
        <ele>1190</ele>
        <time>2022-04-06T13:03:06Z</time>
      </trkpt>
      <trkpt lat="47.96945" lon="7.04173">
        <ele>1187</ele>
        <time>2022-04-06T13:03:10Z</time>
      </trkpt>
      <trkpt lat="47.9692" lon="7.04133">
        <ele>1184</ele>
        <time>2022-04-06T13:03:16Z</time>
      </trkpt>
      <trkpt lat="47.96882" lon="7.04079">
        <ele>1181</ele>
        <time>2022-04-06T13:03:26Z</time>
      </trkpt>
      <trkpt lat="47.96844" lon="7.0403">
        <ele>1178</ele>
        <time>2022-04-06T13:03:35Z</time>
      </trkpt>
      <trkpt lat="47.96824" lon="7.03977">
        <ele>1177</ele>
        <time>2022-04-06T13:03:42Z</time>
      </trkpt>
      <trkpt lat="47.96809" lon="7.03909">
        <ele>1179</ele>
        <time>2022-04-06T13:03:50Z</time>
      </trkpt>
      <trkpt lat="47.96803" lon="7.03874">
        <ele>1180</ele>
        <time>2022-04-06T13:03:55Z</time>
      </trkpt>
      <trkpt lat="47.96802" lon="7.03837">
        <ele>1179</ele>
        <time>2022-04-06T13:03:59Z</time>
      </trkpt>
      <trkpt lat="47.9681" lon="7.03739">
        <ele>1173</ele>
        <time>2022-04-06T13:04:11Z</time>
      </trkpt>
      <trkpt lat="47.96811" lon="7.03666">
        <ele>1170</ele>
        <time>2022-04-06T13:04:20Z</time>
      </trkpt>
      <trkpt lat="47.96807" lon="7.03626">
        <ele>1171</ele>
        <time>2022-04-06T13:04:24Z</time>
      </trkpt>
      <trkpt lat="47.96799" lon="7.03587">
        <ele>1172</ele>
        <time>2022-04-06T13:04:29Z</time>
      </trkpt>
      <trkpt lat="47.96777" lon="7.03501">
        <ele>1177</ele>
        <time>2022-04-06T13:04:40Z</time>
      </trkpt>
      <trkpt lat="47.96763" lon="7.03454">
        <ele>1179</ele>
        <time>2022-04-06T13:04:46Z</time>
      </trkpt>
      <trkpt lat="47.96739" lon="7.03409">
        <ele>1183</ele>
        <time>2022-04-06T13:04:53Z</time>
      </trkpt>
      <trkpt lat="47.96715" lon="7.03389">
        <ele>1185</ele>
        <time>2022-04-06T13:04:58Z</time>
      </trkpt>
      <trkpt lat="47.9669" lon="7.03379">
        <ele>1188</ele>
        <time>2022-04-06T13:05:03Z</time>
      </trkpt>
      <trkpt lat="47.96652" lon="7.03377">
        <ele>1192</ele>
        <time>2022-04-06T13:05:09Z</time>
      </trkpt>
      <trkpt lat="47.96603" lon="7.03389">
        <ele>1197</ele>
        <time>2022-04-06T13:05:18Z</time>
      </trkpt>
      <trkpt lat="47.96541" lon="7.03413">
        <ele>1203</ele>
        <time>2022-04-06T13:05:30Z</time>
      </trkpt>
      <trkpt lat="47.96468" lon="7.03457">
        <ele>1213</ele>
        <time>2022-04-06T13:05:44Z</time>
      </trkpt>
      <trkpt lat="47.96437" lon="7.03489">
        <ele>1219</ele>
        <time>2022-04-06T13:05:50Z</time>
      </trkpt>
      <trkpt lat="47.96365" lon="7.03585">
        <ele>1227</ele>
        <time>2022-04-06T13:06:08Z</time>
      </trkpt>
      <trkpt lat="47.96347" lon="7.03613">
        <ele>1227</ele>
        <time>2022-04-06T13:06:12Z</time>
      </trkpt>
      <trkpt lat="47.96337" lon="7.03639">
        <ele>1229</ele>
        <time>2022-04-06T13:06:16Z</time>
      </trkpt>
      <trkpt lat="47.96323" lon="7.03691">
        <ele>1234</ele>
        <time>2022-04-06T13:06:22Z</time>
      </trkpt>
      <trkpt lat="47.96313" lon="7.03709">
        <ele>1236</ele>
        <time>2022-04-06T13:06:25Z</time>
      </trkpt>
      <trkpt lat="47.96301" lon="7.03719">
        <ele>1238</ele>
        <time>2022-04-06T13:06:28Z</time>
      </trkpt>
      <trkpt lat="47.96288" lon="7.03722">
        <ele>1238</ele>
        <time>2022-04-06T13:06:30Z</time>
      </trkpt>
      <trkpt lat="47.96241" lon="7.03718">
        <ele>1238</ele>
        <time>2022-04-06T13:06:38Z</time>
      </trkpt>
      <trkpt lat="47.9622" lon="7.03719">
        <ele>1239</ele>
        <time>2022-04-06T13:06:42Z</time>
      </trkpt>
      <trkpt lat="47.9617" lon="7.03727">
        <ele>1242</ele>
        <time>2022-04-06T13:06:51Z</time>
      </trkpt>
      <trkpt lat="47.96121" lon="7.0374">
        <ele>1244</ele>
        <time>2022-04-06T13:07:00Z</time>
      </trkpt>
      <trkpt lat="47.9609" lon="7.03745">
        <ele>1245</ele>
        <time>2022-04-06T13:07:05Z</time>
      </trkpt>
      <trkpt lat="47.96059" lon="7.03744">
        <ele>1246</ele>
        <time>2022-04-06T13:07:11Z</time>
      </trkpt>
      <trkpt lat="47.96021" lon="7.03738">
        <ele>1246</ele>
        <time>2022-04-06T13:07:18Z</time>
      </trkpt>
      <trkpt lat="47.95875" lon="7.03699">
        <ele>1246</ele>
        <time>2022-04-06T13:07:44Z</time>
      </trkpt>
      <trkpt lat="47.95796" lon="7.03652">
        <ele>1247</ele>
        <time>2022-04-06T13:07:59Z</time>
      </trkpt>
      <trkpt lat="47.95721" lon="7.03593">
        <ele>1247</ele>
        <time>2022-04-06T13:08:14Z</time>
      </trkpt>
      <trkpt lat="47.95654" lon="7.03531">
        <ele>1248</ele>
        <time>2022-04-06T13:08:28Z</time>
      </trkpt>
      <trkpt lat="47.95625" lon="7.03489">
        <ele>1247</ele>
        <time>2022-04-06T13:08:36Z</time>
      </trkpt>
      <trkpt lat="47.95574" lon="7.03379">
        <ele>1243</ele>
        <time>2022-04-06T13:08:52Z</time>
      </trkpt>
      <trkpt lat="47.95559" lon="7.03356">
        <ele>1242</ele>
        <time>2022-04-06T13:08:55Z</time>
      </trkpt>
      <trkpt lat="47.95538" lon="7.03336">
        <ele>1242</ele>
        <time>2022-04-06T13:09:00Z</time>
      </trkpt>
      <trkpt lat="47.95522" lon="7.03324">
        <ele>1241</ele>
        <time>2022-04-06T13:09:03Z</time>
      </trkpt>
      <trkpt lat="47.95506" lon="7.03316">
        <ele>1241</ele>
        <time>2022-04-06T13:09:06Z</time>
      </trkpt>
      <trkpt lat="47.95491" lon="7.03314">
        <ele>1241</ele>
        <time>2022-04-06T13:09:09Z</time>
      </trkpt>
      <trkpt lat="47.95469" lon="7.03315">
        <ele>1241</ele>
        <time>2022-04-06T13:09:13Z</time>
      </trkpt>
      <trkpt lat="47.95263" lon="7.03376">
        <ele>1245</ele>
        <time>2022-04-06T13:09:50Z</time>
      </trkpt>
      <trkpt lat="47.95242" lon="7.03377">
        <ele>1245</ele>
        <time>2022-04-06T13:09:54Z</time>
      </trkpt>
      <trkpt lat="47.95216" lon="7.03366">
        <ele>1246</ele>
        <time>2022-04-06T13:09:59Z</time>
      </trkpt>
      <trkpt lat="47.95188" lon="7.03343">
        <ele>1249</ele>
        <time>2022-04-06T13:10:04Z</time>
      </trkpt>
      <trkpt lat="47.95136" lon="7.03298">
        <ele>1254</ele>
        <time>2022-04-06T13:10:15Z</time>
      </trkpt>
      <trkpt lat="47.95077" lon="7.0324">
        <ele>1260</ele>
        <time>2022-04-06T13:10:27Z</time>
      </trkpt>
      <trkpt lat="47.95011" lon="7.03158">
        <ele>1266</ele>
        <time>2022-04-06T13:10:43Z</time>
      </trkpt>
      <trkpt lat="47.94958" lon="7.03082">
        <ele>1272</ele>
        <time>2022-04-06T13:10:56Z</time>
      </trkpt>
      <trkpt lat="47.94912" lon="7.03008">
        <ele>1275</ele>
        <time>2022-04-06T13:11:08Z</time>
      </trkpt>
      <trkpt lat="47.94882" lon="7.0295">
        <ele>1276</ele>
        <time>2022-04-06T13:11:17Z</time>
      </trkpt>
      <trkpt lat="47.94847" lon="7.02896">
        <ele>1277</ele>
        <time>2022-04-06T13:11:26Z</time>
      </trkpt>
      <trkpt lat="47.94831" lon="7.02875">
        <ele>1277</ele>
        <time>2022-04-06T13:11:29Z</time>
      </trkpt>
      <trkpt lat="47.94699" lon="7.0273">
        <ele>1276</ele>
        <time>2022-04-06T13:11:58Z</time>
      </trkpt>
      <trkpt lat="47.94642" lon="7.02637">
        <ele>1273</ele>
        <time>2022-04-06T13:12:14Z</time>
      </trkpt>
      <trkpt lat="47.94619" lon="7.02582">
        <ele>1270</ele>
        <time>2022-04-06T13:12:21Z</time>
      </trkpt>
      <trkpt lat="47.94606" lon="7.02526">
        <ele>1269</ele>
        <time>2022-04-06T13:12:28Z</time>
      </trkpt>
      <trkpt lat="47.94565" lon="7.02315">
        <ele>1260</ele>
        <time>2022-04-06T13:12:54Z</time>
      </trkpt>
      <trkpt lat="47.94548" lon="7.02243">
        <ele>1257</ele>
        <time>2022-04-06T13:13:04Z</time>
      </trkpt>
      <trkpt lat="47.94528" lon="7.02193">
        <ele>1252</ele>
        <time>2022-04-06T13:13:11Z</time>
      </trkpt>
      <trkpt lat="47.94491" lon="7.02134">
        <ele>1248</ele>
        <time>2022-04-06T13:13:20Z</time>
      </trkpt>
      <trkpt lat="47.9446" lon="7.02065">
        <ele>1241</ele>
        <time>2022-04-06T13:13:30Z</time>
      </trkpt>
      <trkpt lat="47.94436" lon="7.02016">
        <ele>1237</ele>
        <time>2022-04-06T13:13:37Z</time>
      </trkpt>
      <trkpt lat="47.94412" lon="7.01998">
        <ele>1236</ele>
        <time>2022-04-06T13:13:42Z</time>
      </trkpt>
      <trkpt lat="47.94382" lon="7.01994">
        <ele>1233</ele>
        <time>2022-04-06T13:13:47Z</time>
      </trkpt>
      <trkpt lat="47.94349" lon="7.02005">
        <ele>1232</ele>
        <time>2022-04-06T13:13:53Z</time>
      </trkpt>
      <trkpt lat="47.94319" lon="7.02025">
        <ele>1229</ele>
        <time>2022-04-06T13:13:59Z</time>
      </trkpt>
      <trkpt lat="47.94274" lon="7.02091">
        <ele>1225</ele>
        <time>2022-04-06T13:14:11Z</time>
      </trkpt>
      <trkpt lat="47.94257" lon="7.02088">
        <ele>1221</ele>
        <time>2022-04-06T13:14:14Z</time>
      </trkpt>
      <trkpt lat="47.94217" lon="7.02195">
        <ele>1218</ele>
        <time>2022-04-06T13:14:28Z</time>
      </trkpt>
      <trkpt lat="47.94194" lon="7.02268">
        <ele>1218</ele>
        <time>2022-04-06T13:14:38Z</time>
      </trkpt>
      <trkpt lat="47.94188" lon="7.02282">
        <ele>1217</ele>
        <time>2022-04-06T13:14:40Z</time>
      </trkpt>
      <trkpt lat="47.94174" lon="7.02299">
        <ele>1215</ele>
        <time>2022-04-06T13:14:43Z</time>
      </trkpt>
      <trkpt lat="47.94157" lon="7.02308">
        <ele>1214</ele>
        <time>2022-04-06T13:14:46Z</time>
      </trkpt>
      <trkpt lat="47.9415" lon="7.02309">
        <ele>1214</ele>
        <time>2022-04-06T13:14:47Z</time>
      </trkpt>
      <trkpt lat="47.94142" lon="7.02309">
        <ele>1214</ele>
        <time>2022-04-06T13:14:49Z</time>
      </trkpt>
      <trkpt lat="47.94132" lon="7.02304">
        <ele>1214</ele>
        <time>2022-04-06T13:14:51Z</time>
      </trkpt>
      <trkpt lat="47.94119" lon="7.02291">
        <ele>1214</ele>
        <time>2022-04-06T13:14:54Z</time>
      </trkpt>
      <trkpt lat="47.94113" lon="7.02282">
        <ele>1213</ele>
        <time>2022-04-06T13:14:55Z</time>
      </trkpt>
      <trkpt lat="47.94081" lon="7.0222">
        <ele>1208</ele>
        <time>2022-04-06T13:15:04Z</time>
      </trkpt>
      <trkpt lat="47.9407" lon="7.02203">
        <ele>1208</ele>
        <time>2022-04-06T13:15:07Z</time>
      </trkpt>
      <trkpt lat="47.94057" lon="7.02187">
        <ele>1208</ele>
        <time>2022-04-06T13:15:10Z</time>
      </trkpt>
      <trkpt lat="47.93985" lon="7.0212">
        <ele>1207</ele>
        <time>2022-04-06T13:15:25Z</time>
      </trkpt>
      <trkpt lat="47.93965" lon="7.02112">
        <ele>1206</ele>
        <time>2022-04-06T13:15:29Z</time>
      </trkpt>
      <trkpt lat="47.93946" lon="7.0211">
        <ele>1206</ele>
        <time>2022-04-06T13:15:32Z</time>
      </trkpt>
      <trkpt lat="47.9393" lon="7.02113">
        <ele>1206</ele>
        <time>2022-04-06T13:15:35Z</time>
      </trkpt>
      <trkpt lat="47.93911" lon="7.02123">
        <ele>1206</ele>
        <time>2022-04-06T13:15:39Z</time>
      </trkpt>
      <trkpt lat="47.93825" lon="7.02202">
        <ele>1206</ele>
        <time>2022-04-06T13:15:57Z</time>
      </trkpt>
      <trkpt lat="47.9381" lon="7.0221">
        <ele>1206</ele>
        <time>2022-04-06T13:16:00Z</time>
      </trkpt>
      <trkpt lat="47.93802" lon="7.02211">
        <ele>1206</ele>
        <time>2022-04-06T13:16:01Z</time>
      </trkpt>
      <trkpt lat="47.93794" lon="7.0221">
        <ele>1206</ele>
        <time>2022-04-06T13:16:02Z</time>
      </trkpt>
      <trkpt lat="47.93786" lon="7.02205">
        <ele>1206</ele>
        <time>2022-04-06T13:16:04Z</time>
      </trkpt>
      <trkpt lat="47.93776" lon="7.02195">
        <ele>1205</ele>
        <time>2022-04-06T13:16:06Z</time>
      </trkpt>
      <trkpt lat="47.93736" lon="7.0213">
        <ele>1205</ele>
        <time>2022-04-06T13:16:17Z</time>
      </trkpt>
      <trkpt lat="47.93711" lon="7.02102">
        <ele>1206</ele>
        <time>2022-04-06T13:16:22Z</time>
      </trkpt>
      <trkpt lat="47.93672" lon="7.02073">
        <ele>1207</ele>
        <time>2022-04-06T13:16:30Z</time>
      </trkpt>
      <trkpt lat="47.9342" lon="7.01911">
        <ele>1207</ele>
        <time>2022-04-06T13:17:19Z</time>
      </trkpt>
      <trkpt lat="47.93394" lon="7.01896">
        <ele>1205</ele>
        <time>2022-04-06T13:17:24Z</time>
      </trkpt>
      <trkpt lat="47.93376" lon="7.0189">
        <ele>1205</ele>
        <time>2022-04-06T13:17:27Z</time>
      </trkpt>
      <trkpt lat="47.93339" lon="7.01884">
        <ele>1205</ele>
        <time>2022-04-06T13:17:34Z</time>
      </trkpt>
      <trkpt lat="47.93308" lon="7.01887">
        <ele>1205</ele>
        <time>2022-04-06T13:17:39Z</time>
      </trkpt>
      <trkpt lat="47.93286" lon="7.01893">
        <ele>1205</ele>
        <time>2022-04-06T13:17:43Z</time>
      </trkpt>
      <trkpt lat="47.93261" lon="7.01906">
        <ele>1206</ele>
        <time>2022-04-06T13:17:48Z</time>
      </trkpt>
      <trkpt lat="47.93154" lon="7.01988">
        <ele>1209</ele>
        <time>2022-04-06T13:18:09Z</time>
      </trkpt>
      <trkpt lat="47.93133" lon="7.02002">
        <ele>1209</ele>
        <time>2022-04-06T13:18:13Z</time>
      </trkpt>
      <trkpt lat="47.93119" lon="7.02008">
        <ele>1209</ele>
        <time>2022-04-06T13:18:16Z</time>
      </trkpt>
      <trkpt lat="47.93102" lon="7.02014">
        <ele>1209</ele>
        <time>2022-04-06T13:18:19Z</time>
      </trkpt>
      <trkpt lat="47.93084" lon="7.02016">
        <ele>1209</ele>
        <time>2022-04-06T13:18:22Z</time>
      </trkpt>
      <trkpt lat="47.92975" lon="7.02016">
        <ele>1211</ele>
        <time>2022-04-06T13:18:42Z</time>
      </trkpt>
      <trkpt lat="47.92956" lon="7.02011">
        <ele>1212</ele>
        <time>2022-04-06T13:18:45Z</time>
      </trkpt>
      <trkpt lat="47.92851" lon="7.01969">
        <ele>1219</ele>
        <time>2022-04-06T13:19:04Z</time>
      </trkpt>
      <trkpt lat="47.92818" lon="7.01967">
        <ele>1221</ele>
        <time>2022-04-06T13:19:10Z</time>
      </trkpt>
      <trkpt lat="47.92811" lon="7.0197">
        <ele>1222</ele>
        <time>2022-04-06T13:19:12Z</time>
      </trkpt>
      <trkpt lat="47.92799" lon="7.01981">
        <ele>1223</ele>
        <time>2022-04-06T13:19:14Z</time>
      </trkpt>
      <trkpt lat="47.92793" lon="7.0199">
        <ele>1223</ele>
        <time>2022-04-06T13:19:16Z</time>
      </trkpt>
      <trkpt lat="47.9279" lon="7.02006">
        <ele>1222</ele>
        <time>2022-04-06T13:19:18Z</time>
      </trkpt>
      <trkpt lat="47.9279" lon="7.02017">
        <ele>1221</ele>
        <time>2022-04-06T13:19:19Z</time>
      </trkpt>
      <trkpt lat="47.92793" lon="7.02032">
        <ele>1220</ele>
        <time>2022-04-06T13:19:21Z</time>
      </trkpt>
      <trkpt lat="47.92837" lon="7.02179">
        <ele>1210</ele>
        <time>2022-04-06T13:19:40Z</time>
      </trkpt>
      <trkpt lat="47.92844" lon="7.02213">
        <ele>1209</ele>
        <time>2022-04-06T13:19:44Z</time>
      </trkpt>
      <trkpt lat="47.92845" lon="7.02251">
        <ele>1210</ele>
        <time>2022-04-06T13:19:49Z</time>
      </trkpt>
      <trkpt lat="47.92833" lon="7.02414">
        <ele>1212</ele>
        <time>2022-04-06T13:20:08Z</time>
      </trkpt>
      <trkpt lat="47.92821" lon="7.0247">
        <ele>1212</ele>
        <time>2022-04-06T13:20:15Z</time>
      </trkpt>
      <trkpt lat="47.92808" lon="7.02514">
        <ele>1212</ele>
        <time>2022-04-06T13:20:21Z</time>
      </trkpt>
      <trkpt lat="47.92797" lon="7.02542">
        <ele>1212</ele>
        <time>2022-04-06T13:20:25Z</time>
      </trkpt>
      <trkpt lat="47.92752" lon="7.02625">
        <ele>1212</ele>
        <time>2022-04-06T13:20:38Z</time>
      </trkpt>
      <trkpt lat="47.92748" lon="7.02635">
        <ele>1212</ele>
        <time>2022-04-06T13:20:39Z</time>
      </trkpt>
      <trkpt lat="47.92745" lon="7.02661">
        <ele>1209</ele>
        <time>2022-04-06T13:20:42Z</time>
      </trkpt>
      <trkpt lat="47.92742" lon="7.02832">
        <ele>1205</ele>
        <time>2022-04-06T13:21:03Z</time>
      </trkpt>
      <trkpt lat="47.92741" lon="7.02844">
        <ele>1204</ele>
        <time>2022-04-06T13:21:04Z</time>
      </trkpt>
      <trkpt lat="47.92734" lon="7.02871">
        <ele>1202</ele>
        <time>2022-04-06T13:21:07Z</time>
      </trkpt>
      <trkpt lat="47.92719" lon="7.02904">
        <ele>1199</ele>
        <time>2022-04-06T13:21:12Z</time>
      </trkpt>
      <trkpt lat="47.92694" lon="7.02926">
        <ele>1197</ele>
        <time>2022-04-06T13:21:17Z</time>
      </trkpt>
      <trkpt lat="47.9267" lon="7.02937">
        <ele>1197</ele>
        <time>2022-04-06T13:21:22Z</time>
      </trkpt>
      <trkpt lat="47.9245" lon="7.02998">
        <ele>1190</ele>
        <time>2022-04-06T13:22:02Z</time>
      </trkpt>
      <trkpt lat="47.92422" lon="7.03017">
        <ele>1189</ele>
        <time>2022-04-06T13:22:07Z</time>
      </trkpt>
      <trkpt lat="47.92387" lon="7.03053">
        <ele>1187</ele>
        <time>2022-04-06T13:22:15Z</time>
      </trkpt>
      <trkpt lat="47.92361" lon="7.03082">
        <ele>1185</ele>
        <time>2022-04-06T13:22:21Z</time>
      </trkpt>
      <trkpt lat="47.92344" lon="7.03104">
        <ele>1185</ele>
        <time>2022-04-06T13:22:25Z</time>
      </trkpt>
      <trkpt lat="47.9233" lon="7.03129">
        <ele>1184</ele>
        <time>2022-04-06T13:22:28Z</time>
      </trkpt>
      <trkpt lat="47.92316" lon="7.03172">
        <ele>1182</ele>
        <time>2022-04-06T13:22:34Z</time>
      </trkpt>
      <trkpt lat="47.92307" lon="7.03208">
        <ele>1182</ele>
        <time>2022-04-06T13:22:39Z</time>
      </trkpt>
      <trkpt lat="47.92268" lon="7.034">
        <ele>1172</ele>
        <time>2022-04-06T13:23:03Z</time>
      </trkpt>
      <trkpt lat="47.92269" lon="7.0344">
        <ele>1170</ele>
        <time>2022-04-06T13:23:07Z</time>
      </trkpt>
      <trkpt lat="47.92275" lon="7.03526">
        <ele>1165</ele>
        <time>2022-04-06T13:23:18Z</time>
      </trkpt>
      <trkpt lat="47.92281" lon="7.03572">
        <ele>1165</ele>
        <time>2022-04-06T13:23:23Z</time>
      </trkpt>
      <trkpt lat="47.92283" lon="7.03605">
        <ele>1167</ele>
        <time>2022-04-06T13:23:27Z</time>
      </trkpt>
      <trkpt lat="47.92282" lon="7.03627">
        <ele>1168</ele>
        <time>2022-04-06T13:23:30Z</time>
      </trkpt>
      <trkpt lat="47.9228" lon="7.03643">
        <ele>1169</ele>
        <time>2022-04-06T13:23:32Z</time>
      </trkpt>
      <trkpt lat="47.92274" lon="7.03662">
        <ele>1170</ele>
        <time>2022-04-06T13:23:34Z</time>
      </trkpt>
      <trkpt lat="47.92243" lon="7.03715">
        <ele>1169</ele>
        <time>2022-04-06T13:23:43Z</time>
      </trkpt>
      <trkpt lat="47.92218" lon="7.03755">
        <ele>1167</ele>
        <time>2022-04-06T13:23:49Z</time>
      </trkpt>
      <trkpt lat="47.92148" lon="7.03856">
        <ele>1169</ele>
        <time>2022-04-06T13:24:07Z</time>
      </trkpt>
      <trkpt lat="47.92132" lon="7.03883">
        <ele>1171</ele>
        <time>2022-04-06T13:24:11Z</time>
      </trkpt>
      <trkpt lat="47.92114" lon="7.03922">
        <ele>1176</ele>
        <time>2022-04-06T13:24:16Z</time>
      </trkpt>
      <trkpt lat="47.92105" lon="7.03936">
        <ele>1178</ele>
        <time>2022-04-06T13:24:19Z</time>
      </trkpt>
      <trkpt lat="47.92085" lon="7.0395">
        <ele>1177</ele>
        <time>2022-04-06T13:24:23Z</time>
      </trkpt>
      <trkpt lat="47.92014" lon="7.03983">
        <ele>1175</ele>
        <time>2022-04-06T13:24:36Z</time>
      </trkpt>
      <trkpt lat="47.91953" lon="7.04026">
        <ele>1177</ele>
        <time>2022-04-06T13:24:48Z</time>
      </trkpt>
      <trkpt lat="47.91908" lon="7.04062">
        <ele>1179</ele>
        <time>2022-04-06T13:24:57Z</time>
      </trkpt>
      <trkpt lat="47.91865" lon="7.04087">
        <ele>1179</ele>
        <time>2022-04-06T13:25:05Z</time>
      </trkpt>
      <trkpt lat="47.91823" lon="7.04094">
        <ele>1173</ele>
        <time>2022-04-06T13:25:13Z</time>
      </trkpt>
      <trkpt lat="47.91807" lon="7.04099">
        <ele>1170</ele>
        <time>2022-04-06T13:25:16Z</time>
      </trkpt>
      <trkpt lat="47.91797" lon="7.04106">
        <ele>1170</ele>
        <time>2022-04-06T13:25:18Z</time>
      </trkpt>
      <trkpt lat="47.91788" lon="7.04115">
        <ele>1170</ele>
        <time>2022-04-06T13:25:20Z</time>
      </trkpt>
      <trkpt lat="47.9174" lon="7.0418">
        <ele>1175</ele>
        <time>2022-04-06T13:25:31Z</time>
      </trkpt>
      <trkpt lat="47.91689" lon="7.04244">
        <ele>1174</ele>
        <time>2022-04-06T13:25:43Z</time>
      </trkpt>
      <trkpt lat="47.91647" lon="7.04293">
        <ele>1177</ele>
        <time>2022-04-06T13:25:52Z</time>
      </trkpt>
      <trkpt lat="47.91615" lon="7.04319">
        <ele>1177</ele>
        <time>2022-04-06T13:25:59Z</time>
      </trkpt>
      <trkpt lat="47.91583" lon="7.04342">
        <ele>1176</ele>
        <time>2022-04-06T13:26:05Z</time>
      </trkpt>
      <trkpt lat="47.91557" lon="7.04357">
        <ele>1178</ele>
        <time>2022-04-06T13:26:10Z</time>
      </trkpt>
      <trkpt lat="47.91535" lon="7.04364">
        <ele>1177</ele>
        <time>2022-04-06T13:26:14Z</time>
      </trkpt>
      <trkpt lat="47.91498" lon="7.04369">
        <ele>1174</ele>
        <time>2022-04-06T13:26:21Z</time>
      </trkpt>
      <trkpt lat="47.91454" lon="7.04381">
        <ele>1173</ele>
        <time>2022-04-06T13:26:29Z</time>
      </trkpt>
      <trkpt lat="47.91416" lon="7.04396">
        <ele>1174</ele>
        <time>2022-04-06T13:26:36Z</time>
      </trkpt>
      <trkpt lat="47.91396" lon="7.04408">
        <ele>1170</ele>
        <time>2022-04-06T13:26:40Z</time>
      </trkpt>
      <trkpt lat="47.91379" lon="7.04429">
        <ele>1169</ele>
        <time>2022-04-06T13:26:44Z</time>
      </trkpt>
      <trkpt lat="47.91367" lon="7.04453">
        <ele>1168</ele>
        <time>2022-04-06T13:26:47Z</time>
      </trkpt>
      <trkpt lat="47.91333" lon="7.04536">
        <ele>1170</ele>
        <time>2022-04-06T13:26:59Z</time>
      </trkpt>
      <trkpt lat="47.91317" lon="7.0457">
        <ele>1171</ele>
        <time>2022-04-06T13:27:04Z</time>
      </trkpt>
      <trkpt lat="47.91262" lon="7.04661">
        <ele>1166</ele>
        <time>2022-04-06T13:27:18Z</time>
      </trkpt>
      <trkpt lat="47.91255" lon="7.04677">
        <ele>1165</ele>
        <time>2022-04-06T13:27:21Z</time>
      </trkpt>
      <trkpt lat="47.91245" lon="7.04709">
        <ele>1165</ele>
        <time>2022-04-06T13:27:25Z</time>
      </trkpt>
      <trkpt lat="47.91244" lon="7.04725">
        <ele>1166</ele>
        <time>2022-04-06T13:27:27Z</time>
      </trkpt>
      <trkpt lat="47.91243" lon="7.04789">
        <ele>1170</ele>
        <time>2022-04-06T13:27:34Z</time>
      </trkpt>
      <trkpt lat="47.91241" lon="7.04801">
        <ele>1170</ele>
        <time>2022-04-06T13:27:36Z</time>
      </trkpt>
      <trkpt lat="47.91238" lon="7.04814">
        <ele>1170</ele>
        <time>2022-04-06T13:27:37Z</time>
      </trkpt>
      <trkpt lat="47.91226" lon="7.04834">
        <ele>1168</ele>
        <time>2022-04-06T13:27:41Z</time>
      </trkpt>
      <trkpt lat="47.91165" lon="7.04923">
        <ele>1168</ele>
        <time>2022-04-06T13:27:56Z</time>
      </trkpt>
      <trkpt lat="47.91143" lon="7.04947">
        <ele>1170</ele>
        <time>2022-04-06T13:28:01Z</time>
      </trkpt>
      <trkpt lat="47.9113" lon="7.04956">
        <ele>1172</ele>
        <time>2022-04-06T13:28:03Z</time>
      </trkpt>
      <trkpt lat="47.91118" lon="7.0496">
        <ele>1173</ele>
        <time>2022-04-06T13:28:05Z</time>
      </trkpt>
      <trkpt lat="47.91106" lon="7.04962">
        <ele>1173</ele>
        <time>2022-04-06T13:28:08Z</time>
      </trkpt>
      <trkpt lat="47.91049" lon="7.04951">
        <ele>1172</ele>
        <time>2022-04-06T13:28:18Z</time>
      </trkpt>
      <trkpt lat="47.91031" lon="7.04951">
        <ele>1172</ele>
        <time>2022-04-06T13:28:21Z</time>
      </trkpt>
      <trkpt lat="47.9102" lon="7.04954">
        <ele>1173</ele>
        <time>2022-04-06T13:28:23Z</time>
      </trkpt>
      <trkpt lat="47.91004" lon="7.04966">
        <ele>1175</ele>
        <time>2022-04-06T13:28:26Z</time>
      </trkpt>
      <trkpt lat="47.90999" lon="7.04973">
        <ele>1176</ele>
        <time>2022-04-06T13:28:27Z</time>
      </trkpt>
      <trkpt lat="47.90995" lon="7.04979">
        <ele>1176</ele>
        <time>2022-04-06T13:28:28Z</time>
      </trkpt>
      <trkpt lat="47.90989" lon="7.04996">
        <ele>1177</ele>
        <time>2022-04-06T13:28:31Z</time>
      </trkpt>
      <trkpt lat="47.90986" lon="7.05017">
        <ele>1176</ele>
        <time>2022-04-06T13:28:33Z</time>
      </trkpt>
      <trkpt lat="47.90987" lon="7.05054">
        <ele>1176</ele>
        <time>2022-04-06T13:28:38Z</time>
      </trkpt>
      <trkpt lat="47.90991" lon="7.05079">
        <ele>1176</ele>
        <time>2022-04-06T13:28:41Z</time>
      </trkpt>
      <trkpt lat="47.90996" lon="7.05102">
        <ele>1177</ele>
        <time>2022-04-06T13:28:44Z</time>
      </trkpt>
      <trkpt lat="47.91036" lon="7.05188">
        <ele>1176</ele>
        <time>2022-04-06T13:28:56Z</time>
      </trkpt>
      <trkpt lat="47.9104" lon="7.05201">
        <ele>1177</ele>
        <time>2022-04-06T13:28:58Z</time>
      </trkpt>
      <trkpt lat="47.91041" lon="7.05214">
        <ele>1177</ele>
        <time>2022-04-06T13:28:59Z</time>
      </trkpt>
      <trkpt lat="47.91041" lon="7.0523">
        <ele>1178</ele>
        <time>2022-04-06T13:29:01Z</time>
      </trkpt>
      <trkpt lat="47.91038" lon="7.05245">
        <ele>1178</ele>
        <time>2022-04-06T13:29:03Z</time>
      </trkpt>
      <trkpt lat="47.91018" lon="7.05311">
        <ele>1180</ele>
        <time>2022-04-06T13:29:12Z</time>
      </trkpt>
      <trkpt lat="47.91006" lon="7.05375">
        <ele>1183</ele>
        <time>2022-04-06T13:29:20Z</time>
      </trkpt>
      <trkpt lat="47.90997" lon="7.05467">
        <ele>1185</ele>
        <time>2022-04-06T13:29:31Z</time>
      </trkpt>
      <trkpt lat="47.90997" lon="7.05509">
        <ele>1186</ele>
        <time>2022-04-06T13:29:36Z</time>
      </trkpt>
      <trkpt lat="47.90999" lon="7.05524">
        <ele>1186</ele>
        <time>2022-04-06T13:29:38Z</time>
      </trkpt>
      <trkpt lat="47.91009" lon="7.05561">
        <ele>1187</ele>
        <time>2022-04-06T13:29:42Z</time>
      </trkpt>
      <trkpt lat="47.91021" lon="7.05595">
        <ele>1188</ele>
        <time>2022-04-06T13:29:47Z</time>
      </trkpt>
      <trkpt lat="47.91041" lon="7.05641">
        <ele>1193</ele>
        <time>2022-04-06T13:29:53Z</time>
      </trkpt>
      <trkpt lat="47.91046" lon="7.05663">
        <ele>1195</ele>
        <time>2022-04-06T13:29:56Z</time>
      </trkpt>
      <trkpt lat="47.91054" lon="7.05729">
        <ele>1190</ele>
        <time>2022-04-06T13:30:04Z</time>
      </trkpt>
      <trkpt lat="47.91054" lon="7.05781">
        <ele>1186</ele>
        <time>2022-04-06T13:30:10Z</time>
      </trkpt>
      <trkpt lat="47.91056" lon="7.05801">
        <ele>1186</ele>
        <time>2022-04-06T13:30:13Z</time>
      </trkpt>
      <trkpt lat="47.91068" lon="7.05883">
        <ele>1187</ele>
        <time>2022-04-06T13:30:23Z</time>
      </trkpt>
      <trkpt lat="47.91097" lon="7.05974">
        <ele>1188</ele>
        <time>2022-04-06T13:30:35Z</time>
      </trkpt>
      <trkpt lat="47.91123" lon="7.06025">
        <ele>1190</ele>
        <time>2022-04-06T13:30:43Z</time>
      </trkpt>
      <trkpt lat="47.91129" lon="7.06044">
        <ele>1192</ele>
        <time>2022-04-06T13:30:45Z</time>
      </trkpt>
      <trkpt lat="47.9113" lon="7.06071">
        <ele>1193</ele>
        <time>2022-04-06T13:30:48Z</time>
      </trkpt>
      <trkpt lat="47.91126" lon="7.06119">
        <ele>1194</ele>
        <time>2022-04-06T13:30:54Z</time>
      </trkpt>
      <trkpt lat="47.91102" lon="7.06242">
        <ele>1190</ele>
        <time>2022-04-06T13:31:09Z</time>
      </trkpt>
      <trkpt lat="47.91092" lon="7.06322">
        <ele>1191</ele>
        <time>2022-04-06T13:31:19Z</time>
      </trkpt>
      <trkpt lat="47.91085" lon="7.06351">
        <ele>1191</ele>
        <time>2022-04-06T13:31:23Z</time>
      </trkpt>
      <trkpt lat="47.91073" lon="7.06387">
        <ele>1192</ele>
        <time>2022-04-06T13:31:27Z</time>
      </trkpt>
      <trkpt lat="47.91007" lon="7.06529">
        <ele>1190</ele>
        <time>2022-04-06T13:31:48Z</time>
      </trkpt>
      <trkpt lat="47.90984" lon="7.06564">
        <ele>1189</ele>
        <time>2022-04-06T13:31:54Z</time>
      </trkpt>
      <trkpt lat="47.90964" lon="7.06592">
        <ele>1188</ele>
        <time>2022-04-06T13:31:59Z</time>
      </trkpt>
      <trkpt lat="47.90956" lon="7.06606">
        <ele>1188</ele>
        <time>2022-04-06T13:32:01Z</time>
      </trkpt>
      <trkpt lat="47.90939" lon="7.06653">
        <ele>1190</ele>
        <time>2022-04-06T13:32:07Z</time>
      </trkpt>
      <trkpt lat="47.9093" lon="7.0667">
        <ele>1191</ele>
        <time>2022-04-06T13:32:10Z</time>
      </trkpt>
      <trkpt lat="47.90919" lon="7.06687">
        <ele>1189</ele>
        <time>2022-04-06T13:32:13Z</time>
      </trkpt>
      <trkpt lat="47.90884" lon="7.06714">
        <ele>1188</ele>
        <time>2022-04-06T13:32:20Z</time>
      </trkpt>
      <trkpt lat="47.90873" lon="7.06724">
        <ele>1187</ele>
        <time>2022-04-06T13:32:22Z</time>
      </trkpt>
      <trkpt lat="47.90801" lon="7.06824">
        <ele>1193</ele>
        <time>2022-04-06T13:32:40Z</time>
      </trkpt>
      <trkpt lat="47.90791" lon="7.06844">
        <ele>1195</ele>
        <time>2022-04-06T13:32:43Z</time>
      </trkpt>
      <trkpt lat="47.90782" lon="7.06865">
        <ele>1196</ele>
        <time>2022-04-06T13:32:46Z</time>
      </trkpt>
      <trkpt lat="47.90776" lon="7.0689">
        <ele>1197</ele>
        <time>2022-04-06T13:32:49Z</time>
      </trkpt>
      <trkpt lat="47.90751" lon="7.0703">
        <ele>1197</ele>
        <time>2022-04-06T13:33:06Z</time>
      </trkpt>
      <trkpt lat="47.90735" lon="7.0709">
        <ele>1200</ele>
        <time>2022-04-06T13:33:14Z</time>
      </trkpt>
      <trkpt lat="47.90728" lon="7.07129">
        <ele>1202</ele>
        <time>2022-04-06T13:33:19Z</time>
      </trkpt>
      <trkpt lat="47.90724" lon="7.0724">
        <ele>1203</ele>
        <time>2022-04-06T13:33:32Z</time>
      </trkpt>
      <trkpt lat="47.90722" lon="7.07264">
        <ele>1204</ele>
        <time>2022-04-06T13:33:35Z</time>
      </trkpt>
      <trkpt lat="47.90714" lon="7.0732">
        <ele>1208</ele>
        <time>2022-04-06T13:33:41Z</time>
      </trkpt>
      <trkpt lat="47.90712" lon="7.07355">
        <ele>1211</ele>
        <time>2022-04-06T13:33:46Z</time>
      </trkpt>
      <trkpt lat="47.90713" lon="7.07389">
        <ele>1213</ele>
        <time>2022-04-06T13:33:50Z</time>
      </trkpt>
      <trkpt lat="47.90718" lon="7.07456">
        <ele>1216</ele>
        <time>2022-04-06T13:33:58Z</time>
      </trkpt>
      <trkpt lat="47.90724" lon="7.07492">
        <ele>1216</ele>
        <time>2022-04-06T13:34:02Z</time>
      </trkpt>
      <trkpt lat="47.90765" lon="7.07626">
        <ele>1219</ele>
        <time>2022-04-06T13:34:20Z</time>
      </trkpt>
      <trkpt lat="47.90772" lon="7.07658">
        <ele>1220</ele>
        <time>2022-04-06T13:34:24Z</time>
      </trkpt>
      <trkpt lat="47.90776" lon="7.07702">
        <ele>1223</ele>
        <time>2022-04-06T13:34:29Z</time>
      </trkpt>
      <trkpt lat="47.90774" lon="7.07802">
        <ele>1230</ele>
        <time>2022-04-06T13:34:41Z</time>
      </trkpt>
      <trkpt lat="47.90786" lon="7.07915">
        <ele>1229</ele>
        <time>2022-04-06T13:34:55Z</time>
      </trkpt>
      <trkpt lat="47.90783" lon="7.07946">
        <ele>1230</ele>
        <time>2022-04-06T13:34:58Z</time>
      </trkpt>
      <trkpt lat="47.90773" lon="7.07994">
        <ele>1236</ele>
        <time>2022-04-06T13:35:04Z</time>
      </trkpt>
      <trkpt lat="47.90764" lon="7.08049">
        <ele>1239</ele>
        <time>2022-04-06T13:35:11Z</time>
      </trkpt>
      <trkpt lat="47.90763" lon="7.08067">
        <ele>1238</ele>
        <time>2022-04-06T13:35:13Z</time>
      </trkpt>
      <trkpt lat="47.90767" lon="7.08111">
        <ele>1234</ele>
        <time>2022-04-06T13:35:19Z</time>
      </trkpt>
      <trkpt lat="47.90767" lon="7.08203">
        <ele>1233</ele>
        <time>2022-04-06T13:35:30Z</time>
      </trkpt>
      <trkpt lat="47.90769" lon="7.08245">
        <ele>1235</ele>
        <time>2022-04-06T13:35:35Z</time>
      </trkpt>
      <trkpt lat="47.90789" lon="7.08374">
        <ele>1234</ele>
        <time>2022-04-06T13:35:50Z</time>
      </trkpt>
      <trkpt lat="47.90798" lon="7.08413">
        <ele>1232</ele>
        <time>2022-04-06T13:35:55Z</time>
      </trkpt>
      <trkpt lat="47.90813" lon="7.08459">
        <ele>1230</ele>
        <time>2022-04-06T13:36:01Z</time>
      </trkpt>
      <trkpt lat="47.90815" lon="7.0847">
        <ele>1230</ele>
        <time>2022-04-06T13:36:03Z</time>
      </trkpt>
      <trkpt lat="47.90814" lon="7.08498">
        <ele>1232</ele>
        <time>2022-04-06T13:36:06Z</time>
      </trkpt>
      <trkpt lat="47.90805" lon="7.08571">
        <ele>1232</ele>
        <time>2022-04-06T13:36:15Z</time>
      </trkpt>
      <trkpt lat="47.90795" lon="7.08609">
        <ele>1230</ele>
        <time>2022-04-06T13:36:20Z</time>
      </trkpt>
      <trkpt lat="47.90785" lon="7.08628">
        <ele>1229</ele>
        <time>2022-04-06T13:36:23Z</time>
      </trkpt>
      <trkpt lat="47.90773" lon="7.08636">
        <ele>1230</ele>
        <time>2022-04-06T13:36:25Z</time>
      </trkpt>
      <trkpt lat="47.90717" lon="7.08635">
        <ele>1240</ele>
        <time>2022-04-06T13:36:35Z</time>
      </trkpt>
      <trkpt lat="47.90695" lon="7.0864">
        <ele>1242</ele>
        <time>2022-04-06T13:36:39Z</time>
      </trkpt>
      <trkpt lat="47.90657" lon="7.08665">
        <ele>1239</ele>
        <time>2022-04-06T13:36:46Z</time>
      </trkpt>
      <trkpt lat="47.90628" lon="7.08691">
        <ele>1243</ele>
        <time>2022-04-06T13:36:52Z</time>
      </trkpt>
      <trkpt lat="47.90614" lon="7.08717">
        <ele>1243</ele>
        <time>2022-04-06T13:36:56Z</time>
      </trkpt>
      <trkpt lat="47.90607" lon="7.08746">
        <ele>1240</ele>
        <time>2022-04-06T13:37:00Z</time>
      </trkpt>
      <trkpt lat="47.90593" lon="7.08841">
        <ele>1232</ele>
        <time>2022-04-06T13:37:12Z</time>
      </trkpt>
      <trkpt lat="47.90583" lon="7.08933">
        <ele>1226</ele>
        <time>2022-04-06T13:37:23Z</time>
      </trkpt>
      <trkpt lat="47.90578" lon="7.08959">
        <ele>1223</ele>
        <time>2022-04-06T13:37:26Z</time>
      </trkpt>
      <trkpt lat="47.90573" lon="7.08971">
        <ele>1222</ele>
        <time>2022-04-06T13:37:28Z</time>
      </trkpt>
      <trkpt lat="47.90561" lon="7.08989">
        <ele>1221</ele>
        <time>2022-04-06T13:37:31Z</time>
      </trkpt>
      <trkpt lat="47.90533" lon="7.09011">
        <ele>1223</ele>
        <time>2022-04-06T13:37:36Z</time>
      </trkpt>
      <trkpt lat="47.90513" lon="7.09031">
        <ele>1226</ele>
        <time>2022-04-06T13:37:41Z</time>
      </trkpt>
      <trkpt lat="47.90486" lon="7.09066">
        <ele>1229</ele>
        <time>2022-04-06T13:37:47Z</time>
      </trkpt>
      <trkpt lat="47.90466" lon="7.09095">
        <ele>1230</ele>
        <time>2022-04-06T13:37:52Z</time>
      </trkpt>
      <trkpt lat="47.90463" lon="7.09104">
        <ele>1231</ele>
        <time>2022-04-06T13:37:53Z</time>
      </trkpt>
      <trkpt lat="47.90457" lon="7.09124">
        <ele>1233</ele>
        <time>2022-04-06T13:37:56Z</time>
      </trkpt>
      <trkpt lat="47.90457" lon="7.09154">
        <ele>1237</ele>
        <time>2022-04-06T13:37:59Z</time>
      </trkpt>
      <trkpt lat="47.90462" lon="7.09187">
        <ele>1239</ele>
        <time>2022-04-06T13:38:03Z</time>
      </trkpt>
      <trkpt lat="47.90477" lon="7.09251">
        <ele>1243</ele>
        <time>2022-04-06T13:38:11Z</time>
      </trkpt>
      <trkpt lat="47.90486" lon="7.09279">
        <ele>1246</ele>
        <time>2022-04-06T13:38:15Z</time>
      </trkpt>
      <trkpt lat="47.90527" lon="7.09389">
        <ele>1255</ele>
        <time>2022-04-06T13:38:30Z</time>
      </trkpt>
      <trkpt lat="47.90537" lon="7.09424">
        <ele>1259</ele>
        <time>2022-04-06T13:38:35Z</time>
      </trkpt>
      <trkpt lat="47.90566" lon="7.09533">
        <ele>1267</ele>
        <time>2022-04-06T13:38:49Z</time>
      </trkpt>
      <trkpt lat="47.90569" lon="7.09553">
        <ele>1268</ele>
        <time>2022-04-06T13:38:51Z</time>
      </trkpt>
      <trkpt lat="47.90573" lon="7.09634">
        <ele>1272</ele>
        <time>2022-04-06T13:39:01Z</time>
      </trkpt>
      <trkpt lat="47.90573" lon="7.0966">
        <ele>1274</ele>
        <time>2022-04-06T13:39:04Z</time>
      </trkpt>
      <trkpt lat="47.90569" lon="7.09708">
        <ele>1279</ele>
        <time>2022-04-06T13:39:10Z</time>
      </trkpt>
      <trkpt lat="47.90568" lon="7.09725">
        <ele>1281</ele>
        <time>2022-04-06T13:39:12Z</time>
      </trkpt>
      <trkpt lat="47.90575" lon="7.09803">
        <ele>1285</ele>
        <time>2022-04-06T13:39:21Z</time>
      </trkpt>
      <trkpt lat="47.90578" lon="7.09858">
        <ele>1288</ele>
        <time>2022-04-06T13:39:28Z</time>
      </trkpt>
      <trkpt lat="47.9058" lon="7.10025">
        <ele>1297</ele>
        <time>2022-04-06T13:39:48Z</time>
      </trkpt>
      <trkpt lat="47.90584" lon="7.10088">
        <ele>1299</ele>
        <time>2022-04-06T13:39:55Z</time>
      </trkpt>
      <trkpt lat="47.90583" lon="7.10144">
        <ele>1304</ele>
        <time>2022-04-06T13:40:02Z</time>
      </trkpt>
      <trkpt lat="47.90585" lon="7.10182">
        <ele>1307</ele>
        <time>2022-04-06T13:40:06Z</time>
      </trkpt>
      <trkpt lat="47.90605" lon="7.10267">
        <ele>1310</ele>
        <time>2022-04-06T13:40:17Z</time>
      </trkpt>
      <trkpt lat="47.90615" lon="7.10301">
        <ele>1312</ele>
        <time>2022-04-06T13:40:22Z</time>
      </trkpt>
      <trkpt lat="47.90628" lon="7.10337">
        <ele>1315</ele>
        <time>2022-04-06T13:40:26Z</time>
      </trkpt>
      <trkpt lat="47.90637" lon="7.10353">
        <ele>1315</ele>
        <time>2022-04-06T13:40:29Z</time>
      </trkpt>
      <trkpt lat="47.90642" lon="7.10359">
        <ele>1315</ele>
        <time>2022-04-06T13:40:30Z</time>
      </trkpt>
      <trkpt lat="47.90673" lon="7.10383">
        <ele>1314</ele>
        <time>2022-04-06T13:40:36Z</time>
      </trkpt>
      <trkpt lat="47.90677" lon="7.10388">
        <ele>1314</ele>
        <time>2022-04-06T13:40:37Z</time>
      </trkpt>
      <trkpt lat="47.90681" lon="7.10398">
        <ele>1314</ele>
        <time>2022-04-06T13:40:39Z</time>
      </trkpt>
      <trkpt lat="47.90681" lon="7.10408">
        <ele>1316</ele>
        <time>2022-04-06T13:40:40Z</time>
      </trkpt>
      <trkpt lat="47.90678" lon="7.10414">
        <ele>1317</ele>
        <time>2022-04-06T13:40:41Z</time>
      </trkpt>
      <trkpt lat="47.90671" lon="7.1042">
        <ele>1318</ele>
        <time>2022-04-06T13:40:42Z</time>
      </trkpt>
      <trkpt lat="47.90666" lon="7.10422">
        <ele>1319</ele>
        <time>2022-04-06T13:40:43Z</time>
      </trkpt>
      <trkpt lat="47.90658" lon="7.10421">
        <ele>1319</ele>
        <time>2022-04-06T13:40:44Z</time>
      </trkpt>
      <trkpt lat="47.90611" lon="7.10394">
        <ele>1322</ele>
        <time>2022-04-06T13:40:53Z</time>
      </trkpt>
      <trkpt lat="47.90569" lon="7.10362">
        <ele>1325</ele>
        <time>2022-04-06T13:41:02Z</time>
      </trkpt>
      <trkpt lat="47.90543" lon="7.10337">
        <ele>1327</ele>
        <time>2022-04-06T13:41:07Z</time>
      </trkpt>
      <trkpt lat="47.90519" lon="7.10303">
        <ele>1329</ele>
        <time>2022-04-06T13:41:13Z</time>
      </trkpt>
      <trkpt lat="47.90511" lon="7.10298">
        <ele>1330</ele>
        <time>2022-04-06T13:41:15Z</time>
      </trkpt>
      <trkpt lat="47.90504" lon="7.103">
        <ele>1332</ele>
        <time>2022-04-06T13:41:16Z</time>
      </trkpt>
      <trkpt lat="47.90479" lon="7.10325">
        <ele>1334</ele>
        <time>2022-04-06T13:41:21Z</time>
      </trkpt>
      <trkpt lat="47.90469" lon="7.10333">
        <ele>1334</ele>
        <time>2022-04-06T13:41:23Z</time>
      </trkpt>
      <trkpt lat="47.90462" lon="7.10334">
        <ele>1334</ele>
        <time>2022-04-06T13:41:25Z</time>
      </trkpt>
      <trkpt lat="47.9038" lon="7.10326">
        <ele>1338</ele>
        <time>2022-04-06T13:41:39Z</time>
      </trkpt>
      <trkpt lat="47.90321" lon="7.10325">
        <ele>1338</ele>
        <time>2022-04-06T13:41:50Z</time>
      </trkpt>
      <trkpt lat="47.90259" lon="7.10332">
        <ele>1331</ele>
        <time>2022-04-06T13:42:01Z</time>
      </trkpt>
      <trkpt lat="47.90204" lon="7.10329">
        <ele>1326</ele>
        <time>2022-04-06T13:42:11Z</time>
      </trkpt>
      <trkpt lat="47.90128" lon="7.10329">
        <ele>1319</ele>
        <time>2022-04-06T13:42:24Z</time>
      </trkpt>
      <trkpt lat="47.90116" lon="7.10327">
        <ele>1318</ele>
        <time>2022-04-06T13:42:26Z</time>
      </trkpt>
      <trkpt lat="47.90082" lon="7.10313">
        <ele>1317</ele>
        <time>2022-04-06T13:42:33Z</time>
      </trkpt>
      <trkpt lat="47.90048" lon="7.10307">
        <ele>1317</ele>
        <time>2022-04-06T13:42:39Z</time>
      </trkpt>
      <trkpt lat="47.89867" lon="7.10334">
        <ele>1298</ele>
        <time>2022-04-06T13:43:11Z</time>
      </trkpt>
      <trkpt lat="47.89831" lon="7.10334">
        <ele>1295</ele>
        <time>2022-04-06T13:43:17Z</time>
      </trkpt>
      <trkpt lat="47.89777" lon="7.10326">
        <ele>1286</ele>
        <time>2022-04-06T13:43:27Z</time>
      </trkpt>
      <trkpt lat="47.89725" lon="7.10324">
        <ele>1277</ele>
        <time>2022-04-06T13:43:36Z</time>
      </trkpt>
      <trkpt lat="47.89701" lon="7.10332">
        <ele>1273</ele>
        <time>2022-04-06T13:43:41Z</time>
      </trkpt>
      <trkpt lat="47.89684" lon="7.1035">
        <ele>1271</ele>
        <time>2022-04-06T13:43:44Z</time>
      </trkpt>
      <trkpt lat="47.89654" lon="7.10394">
        <ele>1270</ele>
        <time>2022-04-06T13:43:52Z</time>
      </trkpt>
      <trkpt lat="47.89554" lon="7.10524">
        <ele>1260</ele>
        <time>2022-04-06T13:44:16Z</time>
      </trkpt>
      <trkpt lat="47.8954" lon="7.10546">
        <ele>1257</ele>
        <time>2022-04-06T13:44:19Z</time>
      </trkpt>
      <trkpt lat="47.89524" lon="7.10576">
        <ele>1254</ele>
        <time>2022-04-06T13:44:24Z</time>
      </trkpt>
      <trkpt lat="47.8947" lon="7.10691">
        <ele>1243</ele>
        <time>2022-04-06T13:44:40Z</time>
      </trkpt>
      <trkpt lat="47.89452" lon="7.1072">
        <ele>1241</ele>
        <time>2022-04-06T13:44:45Z</time>
      </trkpt>
      <trkpt lat="47.89442" lon="7.1073">
        <ele>1241</ele>
        <time>2022-04-06T13:44:47Z</time>
      </trkpt>
      <trkpt lat="47.89429" lon="7.10739">
        <ele>1240</ele>
        <time>2022-04-06T13:44:50Z</time>
      </trkpt>
      <trkpt lat="47.89416" lon="7.10742">
        <ele>1240</ele>
        <time>2022-04-06T13:44:52Z</time>
      </trkpt>
      <trkpt lat="47.89406" lon="7.1074">
        <ele>1239</ele>
        <time>2022-04-06T13:44:54Z</time>
      </trkpt>
      <trkpt lat="47.89396" lon="7.10734">
        <ele>1238</ele>
        <time>2022-04-06T13:44:56Z</time>
      </trkpt>
      <trkpt lat="47.89381" lon="7.10715">
        <ele>1236</ele>
        <time>2022-04-06T13:44:59Z</time>
      </trkpt>
      <trkpt lat="47.89373" lon="7.10689">
        <ele>1235</ele>
        <time>2022-04-06T13:45:03Z</time>
      </trkpt>
      <trkpt lat="47.89373" lon="7.10675">
        <ele>1236</ele>
        <time>2022-04-06T13:45:05Z</time>
      </trkpt>
      <trkpt lat="47.89375" lon="7.10661">
        <ele>1236</ele>
        <time>2022-04-06T13:45:06Z</time>
      </trkpt>
      <trkpt lat="47.89399" lon="7.10596">
        <ele>1234</ele>
        <time>2022-04-06T13:45:15Z</time>
      </trkpt>
      <trkpt lat="47.89401" lon="7.10587">
        <ele>1234</ele>
        <time>2022-04-06T13:45:16Z</time>
      </trkpt>
      <trkpt lat="47.89398" lon="7.10573">
        <ele>1232</ele>
        <time>2022-04-06T13:45:18Z</time>
      </trkpt>
      <trkpt lat="47.89394" lon="7.10568">
        <ele>1231</ele>
        <time>2022-04-06T13:45:19Z</time>
      </trkpt>
      <trkpt lat="47.89384" lon="7.10568">
        <ele>1229</ele>
        <time>2022-04-06T13:45:21Z</time>
      </trkpt>
      <trkpt lat="47.89375" lon="7.1058">
        <ele>1229</ele>
        <time>2022-04-06T13:45:23Z</time>
      </trkpt>
      <trkpt lat="47.89361" lon="7.10608">
        <ele>1229</ele>
        <time>2022-04-06T13:45:27Z</time>
      </trkpt>
      <trkpt lat="47.89348" lon="7.10625">
        <ele>1229</ele>
        <time>2022-04-06T13:45:30Z</time>
      </trkpt>
      <trkpt lat="47.89289" lon="7.10688">
        <ele>1223</ele>
        <time>2022-04-06T13:45:43Z</time>
      </trkpt>
      <trkpt lat="47.89269" lon="7.10703">
        <ele>1221</ele>
        <time>2022-04-06T13:45:47Z</time>
      </trkpt>
      <trkpt lat="47.89246" lon="7.10716">
        <ele>1218</ele>
        <time>2022-04-06T13:45:51Z</time>
      </trkpt>
      <trkpt lat="47.8911" lon="7.10779">
        <ele>1201</ele>
        <time>2022-04-06T13:46:17Z</time>
      </trkpt>
      <trkpt lat="47.8908" lon="7.10799">
        <ele>1199</ele>
        <time>2022-04-06T13:46:23Z</time>
      </trkpt>
      <trkpt lat="47.89068" lon="7.10809">
        <ele>1198</ele>
        <time>2022-04-06T13:46:25Z</time>
      </trkpt>
      <trkpt lat="47.89042" lon="7.10838">
        <ele>1196</ele>
        <time>2022-04-06T13:46:31Z</time>
      </trkpt>
      <trkpt lat="47.88983" lon="7.10896">
        <ele>1187</ele>
        <time>2022-04-06T13:46:43Z</time>
      </trkpt>
      <trkpt lat="47.88976" lon="7.10906">
        <ele>1186</ele>
        <time>2022-04-06T13:46:45Z</time>
      </trkpt>
      <trkpt lat="47.88967" lon="7.10924">
        <ele>1184</ele>
        <time>2022-04-06T13:46:48Z</time>
      </trkpt>
      <trkpt lat="47.88956" lon="7.10968">
        <ele>1180</ele>
        <time>2022-04-06T13:46:53Z</time>
      </trkpt>
      <trkpt lat="47.88954" lon="7.10984">
        <ele>1179</ele>
        <time>2022-04-06T13:46:55Z</time>
      </trkpt>
      <trkpt lat="47.88955" lon="7.10995">
        <ele>1179</ele>
        <time>2022-04-06T13:46:57Z</time>
      </trkpt>
      <trkpt lat="47.88958" lon="7.11009">
        <ele>1178</ele>
        <time>2022-04-06T13:46:58Z</time>
      </trkpt>
      <trkpt lat="47.88965" lon="7.11024">
        <ele>1178</ele>
        <time>2022-04-06T13:47:01Z</time>
      </trkpt>
      <trkpt lat="47.88993" lon="7.11081">
        <ele>1177</ele>
        <time>2022-04-06T13:47:09Z</time>
      </trkpt>
      <trkpt lat="47.89033" lon="7.11146">
        <ele>1173</ele>
        <time>2022-04-06T13:47:19Z</time>
      </trkpt>
      <trkpt lat="47.89061" lon="7.11177">
        <ele>1169</ele>
        <time>2022-04-06T13:47:26Z</time>
      </trkpt>
      <trkpt lat="47.89099" lon="7.11209">
        <ele>1165</ele>
        <time>2022-04-06T13:47:33Z</time>
      </trkpt>
      <trkpt lat="47.89156" lon="7.11244">
        <ele>1163</ele>
        <time>2022-04-06T13:47:44Z</time>
      </trkpt>
      <trkpt lat="47.89162" lon="7.11252">
        <ele>1162</ele>
        <time>2022-04-06T13:47:46Z</time>
      </trkpt>
      <trkpt lat="47.89164" lon="7.11262">
        <ele>1161</ele>
        <time>2022-04-06T13:47:47Z</time>
      </trkpt>
      <trkpt lat="47.89163" lon="7.1127">
        <ele>1160</ele>
        <time>2022-04-06T13:47:48Z</time>
      </trkpt>
      <trkpt lat="47.89159" lon="7.11276">
        <ele>1158</ele>
        <time>2022-04-06T13:47:49Z</time>
      </trkpt>
      <trkpt lat="47.89152" lon="7.11279">
        <ele>1157</ele>
        <time>2022-04-06T13:47:50Z</time>
      </trkpt>
      <trkpt lat="47.89144" lon="7.1128">
        <ele>1156</ele>
        <time>2022-04-06T13:47:52Z</time>
      </trkpt>
      <trkpt lat="47.89116" lon="7.11273">
        <ele>1154</ele>
        <time>2022-04-06T13:47:57Z</time>
      </trkpt>
      <trkpt lat="47.89097" lon="7.11273">
        <ele>1153</ele>
        <time>2022-04-06T13:48:00Z</time>
      </trkpt>
      <trkpt lat="47.89069" lon="7.11278">
        <ele>1149</ele>
        <time>2022-04-06T13:48:05Z</time>
      </trkpt>
      <trkpt lat="47.89045" lon="7.11288">
        <ele>1146</ele>
        <time>2022-04-06T13:48:10Z</time>
      </trkpt>
      <trkpt lat="47.89017" lon="7.11309">
        <ele>1142</ele>
        <time>2022-04-06T13:48:15Z</time>
      </trkpt>
      <trkpt lat="47.89006" lon="7.11321">
        <ele>1141</ele>
        <time>2022-04-06T13:48:18Z</time>
      </trkpt>
      <trkpt lat="47.88994" lon="7.11346">
        <ele>1137</ele>
        <time>2022-04-06T13:48:21Z</time>
      </trkpt>
      <trkpt lat="47.88986" lon="7.11379">
        <ele>1134</ele>
        <time>2022-04-06T13:48:26Z</time>
      </trkpt>
      <trkpt lat="47.88984" lon="7.1141">
        <ele>1132</ele>
        <time>2022-04-06T13:48:29Z</time>
      </trkpt>
      <trkpt lat="47.88985" lon="7.11426">
        <ele>1131</ele>
        <time>2022-04-06T13:48:31Z</time>
      </trkpt>
      <trkpt lat="47.88991" lon="7.11449">
        <ele>1131</ele>
        <time>2022-04-06T13:48:34Z</time>
      </trkpt>
      <trkpt lat="47.89" lon="7.11462">
        <ele>1131</ele>
        <time>2022-04-06T13:48:36Z</time>
      </trkpt>
      <trkpt lat="47.89018" lon="7.11475">
        <ele>1129</ele>
        <time>2022-04-06T13:48:40Z</time>
      </trkpt>
      <trkpt lat="47.89037" lon="7.11482">
        <ele>1127</ele>
        <time>2022-04-06T13:48:43Z</time>
      </trkpt>
      <trkpt lat="47.89061" lon="7.11486">
        <ele>1126</ele>
        <time>2022-04-06T13:48:48Z</time>
      </trkpt>
      <trkpt lat="47.89076" lon="7.11491">
        <ele>1124</ele>
        <time>2022-04-06T13:48:50Z</time>
      </trkpt>
      <trkpt lat="47.89094" lon="7.11505">
        <ele>1123</ele>
        <time>2022-04-06T13:48:54Z</time>
      </trkpt>
      <trkpt lat="47.89127" lon="7.11542">
        <ele>1118</ele>
        <time>2022-04-06T13:49:01Z</time>
      </trkpt>
      <trkpt lat="47.8922" lon="7.11656">
        <ele>1105</ele>
        <time>2022-04-06T13:49:23Z</time>
      </trkpt>
      <trkpt lat="47.89245" lon="7.11684">
        <ele>1101</ele>
        <time>2022-04-06T13:49:28Z</time>
      </trkpt>
      <trkpt lat="47.89281" lon="7.11711">
        <ele>1098</ele>
        <time>2022-04-06T13:49:36Z</time>
      </trkpt>
      <trkpt lat="47.89306" lon="7.11725">
        <ele>1097</ele>
        <time>2022-04-06T13:49:40Z</time>
      </trkpt>
      <trkpt lat="47.89353" lon="7.11742">
        <ele>1097</ele>
        <time>2022-04-06T13:49:49Z</time>
      </trkpt>
      <trkpt lat="47.89363" lon="7.11753">
        <ele>1096</ele>
        <time>2022-04-06T13:49:51Z</time>
      </trkpt>
      <trkpt lat="47.89366" lon="7.1176">
        <ele>1095</ele>
        <time>2022-04-06T13:49:52Z</time>
      </trkpt>
      <trkpt lat="47.89366" lon="7.11768">
        <ele>1094</ele>
        <time>2022-04-06T13:49:53Z</time>
      </trkpt>
      <trkpt lat="47.89364" lon="7.11776">
        <ele>1093</ele>
        <time>2022-04-06T13:49:54Z</time>
      </trkpt>
      <trkpt lat="47.89355" lon="7.11782">
        <ele>1092</ele>
        <time>2022-04-06T13:49:56Z</time>
      </trkpt>
      <trkpt lat="47.8933" lon="7.11782">
        <ele>1091</ele>
        <time>2022-04-06T13:50:00Z</time>
      </trkpt>
      <trkpt lat="47.89305" lon="7.11784">
        <ele>1089</ele>
        <time>2022-04-06T13:50:05Z</time>
      </trkpt>
      <trkpt lat="47.89245" lon="7.11812">
        <ele>1083</ele>
        <time>2022-04-06T13:50:16Z</time>
      </trkpt>
      <trkpt lat="47.89206" lon="7.11817">
        <ele>1082</ele>
        <time>2022-04-06T13:50:23Z</time>
      </trkpt>
      <trkpt lat="47.89186" lon="7.11828">
        <ele>1080</ele>
        <time>2022-04-06T13:50:27Z</time>
      </trkpt>
      <trkpt lat="47.89175" lon="7.11839">
        <ele>1079</ele>
        <time>2022-04-06T13:50:29Z</time>
      </trkpt>
      <trkpt lat="47.89137" lon="7.11898">
        <ele>1073</ele>
        <time>2022-04-06T13:50:39Z</time>
      </trkpt>
      <trkpt lat="47.89112" lon="7.11931">
        <ele>1068</ele>
        <time>2022-04-06T13:50:45Z</time>
      </trkpt>
      <trkpt lat="47.89094" lon="7.11948">
        <ele>1066</ele>
        <time>2022-04-06T13:50:49Z</time>
      </trkpt>
      <trkpt lat="47.89034" lon="7.11995">
        <ele>1062</ele>
        <time>2022-04-06T13:51:01Z</time>
      </trkpt>
      <trkpt lat="47.88953" lon="7.12045">
        <ele>1058</ele>
        <time>2022-04-06T13:51:16Z</time>
      </trkpt>
      <trkpt lat="47.88919" lon="7.12072">
        <ele>1057</ele>
        <time>2022-04-06T13:51:23Z</time>
      </trkpt>
      <trkpt lat="47.88885" lon="7.12104">
        <ele>1053</ele>
        <time>2022-04-06T13:51:30Z</time>
      </trkpt>
      <trkpt lat="47.88865" lon="7.12131">
        <ele>1050</ele>
        <time>2022-04-06T13:51:35Z</time>
      </trkpt>
      <trkpt lat="47.8882" lon="7.12202">
        <ele>1045</ele>
        <time>2022-04-06T13:51:47Z</time>
      </trkpt>
      <trkpt lat="47.88807" lon="7.12235">
        <ele>1040</ele>
        <time>2022-04-06T13:51:51Z</time>
      </trkpt>
      <trkpt lat="47.88782" lon="7.12328">
        <ele>1030</ele>
        <time>2022-04-06T13:52:03Z</time>
      </trkpt>
      <trkpt lat="47.88772" lon="7.12348">
        <ele>1028</ele>
        <time>2022-04-06T13:52:06Z</time>
      </trkpt>
      <trkpt lat="47.88761" lon="7.12358">
        <ele>1027</ele>
        <time>2022-04-06T13:52:08Z</time>
      </trkpt>
      <trkpt lat="47.8875" lon="7.12364">
        <ele>1028</ele>
        <time>2022-04-06T13:52:10Z</time>
      </trkpt>
      <trkpt lat="47.88735" lon="7.12365">
        <ele>1024</ele>
        <time>2022-04-06T13:52:13Z</time>
      </trkpt>
      <trkpt lat="47.88724" lon="7.12361">
        <ele>1022</ele>
        <time>2022-04-06T13:52:15Z</time>
      </trkpt>
      <trkpt lat="47.88709" lon="7.12351">
        <ele>1021</ele>
        <time>2022-04-06T13:52:18Z</time>
      </trkpt>
      <trkpt lat="47.88683" lon="7.12324">
        <ele>1019</ele>
        <time>2022-04-06T13:52:24Z</time>
      </trkpt>
      <trkpt lat="47.88644" lon="7.12271">
        <ele>1014</ele>
        <time>2022-04-06T13:52:33Z</time>
      </trkpt>
      <trkpt lat="47.88629" lon="7.12247">
        <ele>1012</ele>
        <time>2022-04-06T13:52:37Z</time>
      </trkpt>
      <trkpt lat="47.88566" lon="7.12106">
        <ele>1002</ele>
        <time>2022-04-06T13:52:57Z</time>
      </trkpt>
      <trkpt lat="47.88552" lon="7.12067">
        <ele>998</ele>
        <time>2022-04-06T13:53:03Z</time>
      </trkpt>
      <trkpt lat="47.88549" lon="7.12044">
        <ele>997</ele>
        <time>2022-04-06T13:53:05Z</time>
      </trkpt>
      <trkpt lat="47.88551" lon="7.12018">
        <ele>997</ele>
        <time>2022-04-06T13:53:08Z</time>
      </trkpt>
      <trkpt lat="47.88556" lon="7.11993">
        <ele>999</ele>
        <time>2022-04-06T13:53:12Z</time>
      </trkpt>
      <trkpt lat="47.88565" lon="7.11967">
        <ele>1002</ele>
        <time>2022-04-06T13:53:15Z</time>
      </trkpt>
      <trkpt lat="47.88565" lon="7.11955">
        <ele>1002</ele>
        <time>2022-04-06T13:53:16Z</time>
      </trkpt>
      <trkpt lat="47.88563" lon="7.11946">
        <ele>1002</ele>
        <time>2022-04-06T13:53:18Z</time>
      </trkpt>
      <trkpt lat="47.88557" lon="7.11942">
        <ele>999</ele>
        <time>2022-04-06T13:53:19Z</time>
      </trkpt>
      <trkpt lat="47.88551" lon="7.11943">
        <ele>997</ele>
        <time>2022-04-06T13:53:20Z</time>
      </trkpt>
      <trkpt lat="47.88545" lon="7.11951">
        <ele>995</ele>
        <time>2022-04-06T13:53:21Z</time>
      </trkpt>
      <trkpt lat="47.8854" lon="7.11972">
        <ele>993</ele>
        <time>2022-04-06T13:53:24Z</time>
      </trkpt>
      <trkpt lat="47.88538" lon="7.11993">
        <ele>993</ele>
        <time>2022-04-06T13:53:26Z</time>
      </trkpt>
      <trkpt lat="47.88522" lon="7.12053">
        <ele>988</ele>
        <time>2022-04-06T13:53:34Z</time>
      </trkpt>
      <trkpt lat="47.8852" lon="7.12069">
        <ele>988</ele>
        <time>2022-04-06T13:53:36Z</time>
      </trkpt>
      <trkpt lat="47.88519" lon="7.1209">
        <ele>987</ele>
        <time>2022-04-06T13:53:39Z</time>
      </trkpt>
      <trkpt lat="47.88525" lon="7.12144">
        <ele>985</ele>
        <time>2022-04-06T13:53:45Z</time>
      </trkpt>
      <trkpt lat="47.88543" lon="7.12289">
        <ele>971</ele>
        <time>2022-04-06T13:54:03Z</time>
      </trkpt>
      <trkpt lat="47.88553" lon="7.12344">
        <ele>967</ele>
        <time>2022-04-06T13:54:10Z</time>
      </trkpt>
      <trkpt lat="47.88567" lon="7.12398">
        <ele>965</ele>
        <time>2022-04-06T13:54:16Z</time>
      </trkpt>
      <trkpt lat="47.88572" lon="7.12429">
        <ele>962</ele>
        <time>2022-04-06T13:54:20Z</time>
      </trkpt>
      <trkpt lat="47.88586" lon="7.12546">
        <ele>948</ele>
        <time>2022-04-06T13:54:34Z</time>
      </trkpt>
      <trkpt lat="47.88599" lon="7.126">
        <ele>944</ele>
        <time>2022-04-06T13:54:41Z</time>
      </trkpt>
      <trkpt lat="47.88601" lon="7.12623">
        <ele>943</ele>
        <time>2022-04-06T13:54:44Z</time>
      </trkpt>
      <trkpt lat="47.88606" lon="7.12707">
        <ele>939</ele>
        <time>2022-04-06T13:54:54Z</time>
      </trkpt>
      <trkpt lat="47.88604" lon="7.12739">
        <ele>939</ele>
        <time>2022-04-06T13:54:58Z</time>
      </trkpt>
      <trkpt lat="47.886" lon="7.12756">
        <ele>939</ele>
        <time>2022-04-06T13:55:00Z</time>
      </trkpt>
      <trkpt lat="47.88596" lon="7.12766">
        <ele>941</ele>
        <time>2022-04-06T13:55:02Z</time>
      </trkpt>
      <trkpt lat="47.88588" lon="7.12777">
        <ele>942</ele>
        <time>2022-04-06T13:55:03Z</time>
      </trkpt>
      <trkpt lat="47.88581" lon="7.12784">
        <ele>942</ele>
        <time>2022-04-06T13:55:05Z</time>
      </trkpt>
      <trkpt lat="47.8856" lon="7.12796">
        <ele>943</ele>
        <time>2022-04-06T13:55:09Z</time>
      </trkpt>
      <trkpt lat="47.88502" lon="7.12813">
        <ele>942</ele>
        <time>2022-04-06T13:55:19Z</time>
      </trkpt>
      <trkpt lat="47.88482" lon="7.12824">
        <ele>939</ele>
        <time>2022-04-06T13:55:23Z</time>
      </trkpt>
      <trkpt lat="47.88469" lon="7.12836">
        <ele>939</ele>
        <time>2022-04-06T13:55:26Z</time>
      </trkpt>
      <trkpt lat="47.88428" lon="7.12899">
        <ele>941</ele>
        <time>2022-04-06T13:55:36Z</time>
      </trkpt>
      <trkpt lat="47.88417" lon="7.12912">
        <ele>941</ele>
        <time>2022-04-06T13:55:39Z</time>
      </trkpt>
      <trkpt lat="47.88399" lon="7.1292">
        <ele>942</ele>
        <time>2022-04-06T13:55:42Z</time>
      </trkpt>
      <trkpt lat="47.88385" lon="7.12921">
        <ele>941</ele>
        <time>2022-04-06T13:55:45Z</time>
      </trkpt>
      <trkpt lat="47.8837" lon="7.12918">
        <ele>939</ele>
        <time>2022-04-06T13:55:47Z</time>
      </trkpt>
      <trkpt lat="47.8833" lon="7.12898">
        <ele>931</ele>
        <time>2022-04-06T13:55:55Z</time>
      </trkpt>
      <trkpt lat="47.88308" lon="7.12889">
        <ele>927</ele>
        <time>2022-04-06T13:55:59Z</time>
      </trkpt>
      <trkpt lat="47.88235" lon="7.12872">
        <ele>918</ele>
        <time>2022-04-06T13:56:12Z</time>
      </trkpt>
      <trkpt lat="47.88146" lon="7.12832">
        <ele>905</ele>
        <time>2022-04-06T13:56:29Z</time>
      </trkpt>
      <trkpt lat="47.88115" lon="7.1283">
        <ele>902</ele>
        <time>2022-04-06T13:56:34Z</time>
      </trkpt>
      <trkpt lat="47.88105" lon="7.12834">
        <ele>902</ele>
        <time>2022-04-06T13:56:36Z</time>
      </trkpt>
      <trkpt lat="47.88099" lon="7.12839">
        <ele>902</ele>
        <time>2022-04-06T13:56:37Z</time>
      </trkpt>
      <trkpt lat="47.88085" lon="7.12867">
        <ele>903</ele>
        <time>2022-04-06T13:56:41Z</time>
      </trkpt>
      <trkpt lat="47.88078" lon="7.12875">
        <ele>903</ele>
        <time>2022-04-06T13:56:43Z</time>
      </trkpt>
      <trkpt lat="47.88067" lon="7.1288">
        <ele>902</ele>
        <time>2022-04-06T13:56:45Z</time>
      </trkpt>
      <trkpt lat="47.88056" lon="7.12879">
        <ele>901</ele>
        <time>2022-04-06T13:56:47Z</time>
      </trkpt>
      <trkpt lat="47.87992" lon="7.12855">
        <ele>895</ele>
        <time>2022-04-06T13:56:59Z</time>
      </trkpt>
      <trkpt lat="47.87979" lon="7.12846">
        <ele>892</ele>
        <time>2022-04-06T13:57:01Z</time>
      </trkpt>
      <trkpt lat="47.87917" lon="7.12787">
        <ele>882</ele>
        <time>2022-04-06T13:57:14Z</time>
      </trkpt>
      <trkpt lat="47.87908" lon="7.12774">
        <ele>881</ele>
        <time>2022-04-06T13:57:17Z</time>
      </trkpt>
      <trkpt lat="47.87905" lon="7.12759">
        <ele>881</ele>
        <time>2022-04-06T13:57:19Z</time>
      </trkpt>
      <trkpt lat="47.87908" lon="7.12742">
        <ele>881</ele>
        <time>2022-04-06T13:57:21Z</time>
      </trkpt>
      <trkpt lat="47.87919" lon="7.1273">
        <ele>881</ele>
        <time>2022-04-06T13:57:23Z</time>
      </trkpt>
      <trkpt lat="47.87931" lon="7.12725">
        <ele>880</ele>
        <time>2022-04-06T13:57:25Z</time>
      </trkpt>
      <trkpt lat="47.87953" lon="7.12723">
        <ele>881</ele>
        <time>2022-04-06T13:57:29Z</time>
      </trkpt>
      <trkpt lat="47.87984" lon="7.12727">
        <ele>882</ele>
        <time>2022-04-06T13:57:35Z</time>
      </trkpt>
      <trkpt lat="47.87992" lon="7.12724">
        <ele>882</ele>
        <time>2022-04-06T13:57:36Z</time>
      </trkpt>
      <trkpt lat="47.87996" lon="7.12713">
        <ele>880</ele>
        <time>2022-04-06T13:57:38Z</time>
      </trkpt>
      <trkpt lat="47.87996" lon="7.12704">
        <ele>878</ele>
        <time>2022-04-06T13:57:39Z</time>
      </trkpt>
      <trkpt lat="47.87992" lon="7.12697">
        <ele>877</ele>
        <time>2022-04-06T13:57:40Z</time>
      </trkpt>
      <trkpt lat="47.87983" lon="7.12692">
        <ele>876</ele>
        <time>2022-04-06T13:57:42Z</time>
      </trkpt>
      <trkpt lat="47.87963" lon="7.12692">
        <ele>875</ele>
        <time>2022-04-06T13:57:45Z</time>
      </trkpt>
      <trkpt lat="47.87947" lon="7.12688">
        <ele>875</ele>
        <time>2022-04-06T13:57:48Z</time>
      </trkpt>
      <trkpt lat="47.87917" lon="7.1267">
        <ele>872</ele>
        <time>2022-04-06T13:57:54Z</time>
      </trkpt>
      <trkpt lat="47.87897" lon="7.12664">
        <ele>868</ele>
        <time>2022-04-06T13:57:57Z</time>
      </trkpt>
      <trkpt lat="47.87881" lon="7.12662">
        <ele>865</ele>
        <time>2022-04-06T13:58:00Z</time>
      </trkpt>
      <trkpt lat="47.87827" lon="7.1267">
        <ele>860</ele>
        <time>2022-04-06T13:58:10Z</time>
      </trkpt>
      <trkpt lat="47.87793" lon="7.12666">
        <ele>853</ele>
        <time>2022-04-06T13:58:16Z</time>
      </trkpt>
      <trkpt lat="47.87779" lon="7.12667">
        <ele>851</ele>
        <time>2022-04-06T13:58:18Z</time>
      </trkpt>
      <trkpt lat="47.87745" lon="7.12684">
        <ele>846</ele>
        <time>2022-04-06T13:58:25Z</time>
      </trkpt>
      <trkpt lat="47.87724" lon="7.12686">
        <ele>845</ele>
        <time>2022-04-06T13:58:29Z</time>
      </trkpt>
      <trkpt lat="47.87668" lon="7.12665">
        <ele>842</ele>
        <time>2022-04-06T13:58:39Z</time>
      </trkpt>
      <trkpt lat="47.8765" lon="7.12663">
        <ele>839</ele>
        <time>2022-04-06T13:58:42Z</time>
      </trkpt>
      <trkpt lat="47.87628" lon="7.12664">
        <ele>835</ele>
        <time>2022-04-06T13:58:46Z</time>
      </trkpt>
      <trkpt lat="47.87599" lon="7.12674">
        <ele>831</ele>
        <time>2022-04-06T13:58:51Z</time>
      </trkpt>
      <trkpt lat="47.87585" lon="7.12685">
        <ele>828</ele>
        <time>2022-04-06T13:58:54Z</time>
      </trkpt>
      <trkpt lat="47.8757" lon="7.12702">
        <ele>827</ele>
        <time>2022-04-06T13:58:57Z</time>
      </trkpt>
      <trkpt lat="47.87557" lon="7.12722">
        <ele>827</ele>
        <time>2022-04-06T13:59:01Z</time>
      </trkpt>
      <trkpt lat="47.87531" lon="7.12755">
        <ele>827</ele>
        <time>2022-04-06T13:59:07Z</time>
      </trkpt>
      <trkpt lat="47.87469" lon="7.12795">
        <ele>831</ele>
        <time>2022-04-06T13:59:19Z</time>
      </trkpt>
      <trkpt lat="47.87459" lon="7.1281">
        <ele>833</ele>
        <time>2022-04-06T13:59:21Z</time>
      </trkpt>
      <trkpt lat="47.87429" lon="7.12859">
        <ele>837</ele>
        <time>2022-04-06T13:59:29Z</time>
      </trkpt>
      <trkpt lat="47.8742" lon="7.12863">
        <ele>839</ele>
        <time>2022-04-06T13:59:31Z</time>
      </trkpt>
      <trkpt lat="47.87399" lon="7.12861">
        <ele>842</ele>
        <time>2022-04-06T13:59:35Z</time>
      </trkpt>
      <trkpt lat="47.87378" lon="7.12851">
        <ele>846</ele>
        <time>2022-04-06T13:59:39Z</time>
      </trkpt>
      <trkpt lat="47.87363" lon="7.12847">
        <ele>848</ele>
        <time>2022-04-06T13:59:41Z</time>
      </trkpt>
      <trkpt lat="47.87355" lon="7.12848">
        <ele>849</ele>
        <time>2022-04-06T13:59:43Z</time>
      </trkpt>
      <trkpt lat="47.87344" lon="7.12852">
        <ele>850</ele>
        <time>2022-04-06T13:59:45Z</time>
      </trkpt>
      <trkpt lat="47.87335" lon="7.12864">
        <ele>850</ele>
        <time>2022-04-06T13:59:47Z</time>
      </trkpt>
      <trkpt lat="47.87323" lon="7.12894">
        <ele>849</ele>
        <time>2022-04-06T13:59:51Z</time>
      </trkpt>
      <trkpt lat="47.87317" lon="7.12904">
        <ele>850</ele>
        <time>2022-04-06T13:59:53Z</time>
      </trkpt>
      <trkpt lat="47.87311" lon="7.12909">
        <ele>850</ele>
        <time>2022-04-06T13:59:54Z</time>
      </trkpt>
      <trkpt lat="47.87304" lon="7.12908">
        <ele>852</ele>
        <time>2022-04-06T13:59:55Z</time>
      </trkpt>
      <trkpt lat="47.87299" lon="7.12901">
        <ele>854</ele>
        <time>2022-04-06T13:59:56Z</time>
      </trkpt>
      <trkpt lat="47.87299" lon="7.12892">
        <ele>854</ele>
        <time>2022-04-06T13:59:58Z</time>
      </trkpt>
      <trkpt lat="47.873" lon="7.12881">
        <ele>855</ele>
        <time>2022-04-06T13:59:59Z</time>
      </trkpt>
      <trkpt lat="47.87315" lon="7.1283">
        <ele>856</ele>
        <time>2022-04-06T14:00:05Z</time>
      </trkpt>
      <trkpt lat="47.87315" lon="7.12818">
        <ele>857</ele>
        <time>2022-04-06T14:00:07Z</time>
      </trkpt>
      <trkpt lat="47.8731" lon="7.12794">
        <ele>858</ele>
        <time>2022-04-06T14:00:10Z</time>
      </trkpt>
      <trkpt lat="47.87298" lon="7.12774">
        <ele>859</ele>
        <time>2022-04-06T14:00:13Z</time>
      </trkpt>
      <trkpt lat="47.87276" lon="7.12752">
        <ele>860</ele>
        <time>2022-04-06T14:00:18Z</time>
      </trkpt>
      <trkpt lat="47.87231" lon="7.12727">
        <ele>859</ele>
        <time>2022-04-06T14:00:26Z</time>
      </trkpt>
      <trkpt lat="47.8722" lon="7.12716">
        <ele>859</ele>
        <time>2022-04-06T14:00:29Z</time>
      </trkpt>
      <trkpt lat="47.87212" lon="7.12704">
        <ele>859</ele>
        <time>2022-04-06T14:00:31Z</time>
      </trkpt>
      <trkpt lat="47.87134" lon="7.12529">
        <ele>864</ele>
        <time>2022-04-06T14:00:56Z</time>
      </trkpt>
      <trkpt lat="47.87093" lon="7.12411">
        <ele>867</ele>
        <time>2022-04-06T14:01:12Z</time>
      </trkpt>
      <trkpt lat="47.87087" lon="7.12381">
        <ele>865</ele>
        <time>2022-04-06T14:01:15Z</time>
      </trkpt>
      <trkpt lat="47.87085" lon="7.12342">
        <ele>861</ele>
        <time>2022-04-06T14:01:20Z</time>
      </trkpt>
      <trkpt lat="47.87086" lon="7.12286">
        <ele>855</ele>
        <time>2022-04-06T14:01:27Z</time>
      </trkpt>
      <trkpt lat="47.87083" lon="7.1227">
        <ele>854</ele>
        <time>2022-04-06T14:01:29Z</time>
      </trkpt>
      <trkpt lat="47.87077" lon="7.12255">
        <ele>854</ele>
        <time>2022-04-06T14:01:31Z</time>
      </trkpt>
      <trkpt lat="47.87067" lon="7.12248">
        <ele>855</ele>
        <time>2022-04-06T14:01:33Z</time>
      </trkpt>
      <trkpt lat="47.87025" lon="7.12238">
        <ele>861</ele>
        <time>2022-04-06T14:01:40Z</time>
      </trkpt>
      <trkpt lat="47.87006" lon="7.12231">
        <ele>863</ele>
        <time>2022-04-06T14:01:44Z</time>
      </trkpt>
      <trkpt lat="47.86949" lon="7.12194">
        <ele>856</ele>
        <time>2022-04-06T14:01:55Z</time>
      </trkpt>
      <trkpt lat="47.86929" lon="7.12183">
        <ele>855</ele>
        <time>2022-04-06T14:01:59Z</time>
      </trkpt>
      <trkpt lat="47.86916" lon="7.12183">
        <ele>855</ele>
        <time>2022-04-06T14:02:01Z</time>
      </trkpt>
      <trkpt lat="47.869" lon="7.1219">
        <ele>854</ele>
        <time>2022-04-06T14:02:04Z</time>
      </trkpt>
      <trkpt lat="47.86853" lon="7.12256">
        <ele>859</ele>
        <time>2022-04-06T14:02:16Z</time>
      </trkpt>
      <trkpt lat="47.86839" lon="7.12269">
        <ele>858</ele>
        <time>2022-04-06T14:02:18Z</time>
      </trkpt>
      <trkpt lat="47.86829" lon="7.12273">
        <ele>857</ele>
        <time>2022-04-06T14:02:20Z</time>
      </trkpt>
      <trkpt lat="47.86818" lon="7.12272">
        <ele>858</ele>
        <time>2022-04-06T14:02:22Z</time>
      </trkpt>
      <trkpt lat="47.86806" lon="7.12267">
        <ele>858</ele>
        <time>2022-04-06T14:02:24Z</time>
      </trkpt>
      <trkpt lat="47.86793" lon="7.12257">
        <ele>858</ele>
        <time>2022-04-06T14:02:27Z</time>
      </trkpt>
      <trkpt lat="47.86711" lon="7.1217">
        <ele>853</ele>
        <time>2022-04-06T14:02:45Z</time>
      </trkpt>
      <trkpt lat="47.86697" lon="7.12163">
        <ele>853</ele>
        <time>2022-04-06T14:02:48Z</time>
      </trkpt>
      <trkpt lat="47.86691" lon="7.12163">
        <ele>853</ele>
        <time>2022-04-06T14:02:49Z</time>
      </trkpt>
      <trkpt lat="47.86684" lon="7.12165">
        <ele>854</ele>
        <time>2022-04-06T14:02:50Z</time>
      </trkpt>
      <trkpt lat="47.86674" lon="7.12177">
        <ele>855</ele>
        <time>2022-04-06T14:02:52Z</time>
      </trkpt>
      <trkpt lat="47.86671" lon="7.12186">
        <ele>856</ele>
        <time>2022-04-06T14:02:53Z</time>
      </trkpt>
      <trkpt lat="47.86669" lon="7.12209">
        <ele>857</ele>
        <time>2022-04-06T14:02:56Z</time>
      </trkpt>
      <trkpt lat="47.86674" lon="7.12251">
        <ele>859</ele>
        <time>2022-04-06T14:03:01Z</time>
      </trkpt>
      <trkpt lat="47.86677" lon="7.12264">
        <ele>860</ele>
        <time>2022-04-06T14:03:03Z</time>
      </trkpt>
      <trkpt lat="47.86687" lon="7.12288">
        <ele>862</ele>
        <time>2022-04-06T14:03:06Z</time>
      </trkpt>
      <trkpt lat="47.86708" lon="7.12317">
        <ele>864</ele>
        <time>2022-04-06T14:03:11Z</time>
      </trkpt>
      <trkpt lat="47.86711" lon="7.12325">
        <ele>865</ele>
        <time>2022-04-06T14:03:12Z</time>
      </trkpt>
      <trkpt lat="47.86714" lon="7.12343">
        <ele>865</ele>
        <time>2022-04-06T14:03:15Z</time>
      </trkpt>
      <trkpt lat="47.86711" lon="7.12364">
        <ele>867</ele>
        <time>2022-04-06T14:03:17Z</time>
      </trkpt>
      <trkpt lat="47.86707" lon="7.1237">
        <ele>867</ele>
        <time>2022-04-06T14:03:18Z</time>
      </trkpt>
      <trkpt lat="47.86695" lon="7.12382">
        <ele>869</ele>
        <time>2022-04-06T14:03:21Z</time>
      </trkpt>
      <trkpt lat="47.86661" lon="7.12399">
        <ele>874</ele>
        <time>2022-04-06T14:03:27Z</time>
      </trkpt>
      <trkpt lat="47.8663" lon="7.12411">
        <ele>877</ele>
        <time>2022-04-06T14:03:33Z</time>
      </trkpt>
      <trkpt lat="47.86595" lon="7.12419">
        <ele>880</ele>
        <time>2022-04-06T14:03:39Z</time>
      </trkpt>
      <trkpt lat="47.8656" lon="7.12422">
        <ele>883</ele>
        <time>2022-04-06T14:03:45Z</time>
      </trkpt>
      <trkpt lat="47.86452" lon="7.12419">
        <ele>896</ele>
        <time>2022-04-06T14:04:05Z</time>
      </trkpt>
      <trkpt lat="47.86443" lon="7.12416">
        <ele>897</ele>
        <time>2022-04-06T14:04:06Z</time>
      </trkpt>
      <trkpt lat="47.86437" lon="7.12411">
        <ele>897</ele>
        <time>2022-04-06T14:04:08Z</time>
      </trkpt>
      <trkpt lat="47.86425" lon="7.12395">
        <ele>897</ele>
        <time>2022-04-06T14:04:10Z</time>
      </trkpt>
      <trkpt lat="47.86414" lon="7.12389">
        <ele>898</ele>
        <time>2022-04-06T14:04:12Z</time>
      </trkpt>
      <trkpt lat="47.86407" lon="7.12389">
        <ele>900</ele>
        <time>2022-04-06T14:04:14Z</time>
      </trkpt>
      <trkpt lat="47.86404" lon="7.12392">
        <ele>901</ele>
        <time>2022-04-06T14:04:14Z</time>
      </trkpt>
      <trkpt lat="47.86402" lon="7.12402">
        <ele>904</ele>
        <time>2022-04-06T14:04:16Z</time>
      </trkpt>
      <trkpt lat="47.86404" lon="7.1241">
        <ele>905</ele>
        <time>2022-04-06T14:04:17Z</time>
      </trkpt>
      <trkpt lat="47.86408" lon="7.12418">
        <ele>906</ele>
        <time>2022-04-06T14:04:18Z</time>
      </trkpt>
      <trkpt lat="47.86414" lon="7.12427">
        <ele>906</ele>
        <time>2022-04-06T14:04:19Z</time>
      </trkpt>
      <trkpt lat="47.86466" lon="7.12454">
        <ele>902</ele>
        <time>2022-04-06T14:04:29Z</time>
      </trkpt>
      <trkpt lat="47.86491" lon="7.1247">
        <ele>901</ele>
        <time>2022-04-06T14:04:34Z</time>
      </trkpt>
      <trkpt lat="47.86505" lon="7.12486">
        <ele>903</ele>
        <time>2022-04-06T14:04:37Z</time>
      </trkpt>
      <trkpt lat="47.86532" lon="7.12536">
        <ele>908</ele>
        <time>2022-04-06T14:04:45Z</time>
      </trkpt>
      <trkpt lat="47.86537" lon="7.1255">
        <ele>909</ele>
        <time>2022-04-06T14:04:47Z</time>
      </trkpt>
      <trkpt lat="47.86541" lon="7.12574">
        <ele>912</ele>
        <time>2022-04-06T14:04:50Z</time>
      </trkpt>
      <trkpt lat="47.8654" lon="7.12623">
        <ele>911</ele>
        <time>2022-04-06T14:04:55Z</time>
      </trkpt>
      <trkpt lat="47.86537" lon="7.12637">
        <ele>911</ele>
        <time>2022-04-06T14:04:57Z</time>
      </trkpt>
      <trkpt lat="47.86531" lon="7.12648">
        <ele>912</ele>
        <time>2022-04-06T14:04:59Z</time>
      </trkpt>
      <trkpt lat="47.86523" lon="7.12655">
        <ele>914</ele>
        <time>2022-04-06T14:05:01Z</time>
      </trkpt>
      <trkpt lat="47.86483" lon="7.12675">
        <ele>924</ele>
        <time>2022-04-06T14:05:08Z</time>
      </trkpt>
      <trkpt lat="47.86474" lon="7.12684">
        <ele>926</ele>
        <time>2022-04-06T14:05:10Z</time>
      </trkpt>
      <trkpt lat="47.86422" lon="7.12768">
        <ele>932</ele>
        <time>2022-04-06T14:05:24Z</time>
      </trkpt>
      <trkpt lat="47.86419" lon="7.12782">
        <ele>932</ele>
        <time>2022-04-06T14:05:25Z</time>
      </trkpt>
      <trkpt lat="47.86418" lon="7.12852">
        <ele>925</ele>
        <time>2022-04-06T14:05:34Z</time>
      </trkpt>
      <trkpt lat="47.86415" lon="7.12876">
        <ele>924</ele>
        <time>2022-04-06T14:05:37Z</time>
      </trkpt>
      <trkpt lat="47.8641" lon="7.12899">
        <ele>925</ele>
        <time>2022-04-06T14:05:40Z</time>
      </trkpt>
      <trkpt lat="47.86373" lon="7.13008">
        <ele>930</ele>
        <time>2022-04-06T14:05:54Z</time>
      </trkpt>
      <trkpt lat="47.86368" lon="7.13045">
        <ele>929</ele>
        <time>2022-04-06T14:05:59Z</time>
      </trkpt>
      <trkpt lat="47.86364" lon="7.13126">
        <ele>919</ele>
        <time>2022-04-06T14:06:08Z</time>
      </trkpt>
      <trkpt lat="47.86355" lon="7.13177">
        <ele>914</ele>
        <time>2022-04-06T14:06:15Z</time>
      </trkpt>
      <trkpt lat="47.8635" lon="7.13195">
        <ele>911</ele>
        <time>2022-04-06T14:06:17Z</time>
      </trkpt>
      <trkpt lat="47.8634" lon="7.13214">
        <ele>909</ele>
        <time>2022-04-06T14:06:20Z</time>
      </trkpt>
      <trkpt lat="47.86324" lon="7.1323">
        <ele>907</ele>
        <time>2022-04-06T14:06:23Z</time>
      </trkpt>
      <trkpt lat="47.86303" lon="7.13245">
        <ele>905</ele>
        <time>2022-04-06T14:06:27Z</time>
      </trkpt>
      <trkpt lat="47.86288" lon="7.1325">
        <ele>905</ele>
        <time>2022-04-06T14:06:30Z</time>
      </trkpt>
      <trkpt lat="47.86276" lon="7.1325">
        <ele>907</ele>
        <time>2022-04-06T14:06:32Z</time>
      </trkpt>
      <trkpt lat="47.86157" lon="7.13232">
        <ele>911</ele>
        <time>2022-04-06T14:06:54Z</time>
      </trkpt>
      <trkpt lat="47.86145" lon="7.13228">
        <ele>913</ele>
        <time>2022-04-06T14:06:56Z</time>
      </trkpt>
      <trkpt lat="47.86119" lon="7.13211">
        <ele>922</ele>
        <time>2022-04-06T14:07:01Z</time>
      </trkpt>
      <trkpt lat="47.86108" lon="7.13208">
        <ele>923</ele>
        <time>2022-04-06T14:07:03Z</time>
      </trkpt>
      <trkpt lat="47.86092" lon="7.1321">
        <ele>923</ele>
        <time>2022-04-06T14:07:06Z</time>
      </trkpt>
      <trkpt lat="47.86078" lon="7.13217">
        <ele>922</ele>
        <time>2022-04-06T14:07:08Z</time>
      </trkpt>
      <trkpt lat="47.86065" lon="7.13229">
        <ele>924</ele>
        <time>2022-04-06T14:07:11Z</time>
      </trkpt>
      <trkpt lat="47.86055" lon="7.13245">
        <ele>924</ele>
        <time>2022-04-06T14:07:14Z</time>
      </trkpt>
      <trkpt lat="47.86005" lon="7.13408">
        <ele>913</ele>
        <time>2022-04-06T14:07:35Z</time>
      </trkpt>
      <trkpt lat="47.85985" lon="7.13466">
        <ele>917</ele>
        <time>2022-04-06T14:07:43Z</time>
      </trkpt>
      <trkpt lat="47.85979" lon="7.13514">
        <ele>915</ele>
        <time>2022-04-06T14:07:49Z</time>
      </trkpt>
      <trkpt lat="47.8598" lon="7.13585">
        <ele>906</ele>
        <time>2022-04-06T14:07:57Z</time>
      </trkpt>
      <trkpt lat="47.85985" lon="7.13698">
        <ele>908</ele>
        <time>2022-04-06T14:08:11Z</time>
      </trkpt>
      <trkpt lat="47.85991" lon="7.1374">
        <ele>907</ele>
        <time>2022-04-06T14:08:16Z</time>
      </trkpt>
      <trkpt lat="47.85992" lon="7.13765">
        <ele>906</ele>
        <time>2022-04-06T14:08:19Z</time>
      </trkpt>
      <trkpt lat="47.8599" lon="7.13784">
        <ele>906</ele>
        <time>2022-04-06T14:08:21Z</time>
      </trkpt>
      <trkpt lat="47.85982" lon="7.13801">
        <ele>909</ele>
        <time>2022-04-06T14:08:24Z</time>
      </trkpt>
      <trkpt lat="47.85962" lon="7.13838">
        <ele>917</ele>
        <time>2022-04-06T14:08:29Z</time>
      </trkpt>
      <trkpt lat="47.85931" lon="7.13918">
        <ele>923</ele>
        <time>2022-04-06T14:08:40Z</time>
      </trkpt>
      <trkpt lat="47.85924" lon="7.13943">
        <ele>924</ele>
        <time>2022-04-06T14:08:43Z</time>
      </trkpt>
      <trkpt lat="47.85919" lon="7.13979">
        <ele>924</ele>
        <time>2022-04-06T14:08:48Z</time>
      </trkpt>
      <trkpt lat="47.85919" lon="7.14058">
        <ele>921</ele>
        <time>2022-04-06T14:08:57Z</time>
      </trkpt>
      <trkpt lat="47.85923" lon="7.1412">
        <ele>919</ele>
        <time>2022-04-06T14:09:05Z</time>
      </trkpt>
      <trkpt lat="47.85951" lon="7.14267">
        <ele>912</ele>
        <time>2022-04-06T14:09:23Z</time>
      </trkpt>
      <trkpt lat="47.85971" lon="7.14398">
        <ele>909</ele>
        <time>2022-04-06T14:09:39Z</time>
      </trkpt>
      <trkpt lat="47.85972" lon="7.1442">
        <ele>909</ele>
        <time>2022-04-06T14:09:42Z</time>
      </trkpt>
      <trkpt lat="47.85969" lon="7.14444">
        <ele>909</ele>
        <time>2022-04-06T14:09:45Z</time>
      </trkpt>
      <trkpt lat="47.85963" lon="7.14476">
        <ele>911</ele>
        <time>2022-04-06T14:09:49Z</time>
      </trkpt>
      <trkpt lat="47.85903" lon="7.14627">
        <ele>919</ele>
        <time>2022-04-06T14:10:09Z</time>
      </trkpt>
      <trkpt lat="47.85896" lon="7.14655">
        <ele>915</ele>
        <time>2022-04-06T14:10:13Z</time>
      </trkpt>
      <trkpt lat="47.85889" lon="7.14745">
        <ele>907</ele>
        <time>2022-04-06T14:10:24Z</time>
      </trkpt>
      <trkpt lat="47.85884" lon="7.14784">
        <ele>904</ele>
        <time>2022-04-06T14:10:29Z</time>
      </trkpt>
      <trkpt lat="47.85875" lon="7.14822">
        <ele>903</ele>
        <time>2022-04-06T14:10:33Z</time>
      </trkpt>
      <trkpt lat="47.85867" lon="7.14841">
        <ele>902</ele>
        <time>2022-04-06T14:10:36Z</time>
      </trkpt>
      <trkpt lat="47.85859" lon="7.14855">
        <ele>903</ele>
        <time>2022-04-06T14:10:38Z</time>
      </trkpt>
      <trkpt lat="47.8585" lon="7.14863">
        <ele>904</ele>
        <time>2022-04-06T14:10:40Z</time>
      </trkpt>
      <trkpt lat="47.85823" lon="7.14874">
        <ele>903</ele>
        <time>2022-04-06T14:10:45Z</time>
      </trkpt>
      <trkpt lat="47.85805" lon="7.14872">
        <ele>901</ele>
        <time>2022-04-06T14:10:48Z</time>
      </trkpt>
      <trkpt lat="47.85746" lon="7.14818">
        <ele>900</ele>
        <time>2022-04-06T14:11:01Z</time>
      </trkpt>
      <trkpt lat="47.8565" lon="7.1474">
        <ele>890</ele>
        <time>2022-04-06T14:11:20Z</time>
      </trkpt>
      <trkpt lat="47.85634" lon="7.14724">
        <ele>888</ele>
        <time>2022-04-06T14:11:24Z</time>
      </trkpt>
      <trkpt lat="47.85625" lon="7.1471">
        <ele>887</ele>
        <time>2022-04-06T14:11:26Z</time>
      </trkpt>
      <trkpt lat="47.85563" lon="7.14593">
        <ele>879</ele>
        <time>2022-04-06T14:11:44Z</time>
      </trkpt>
      <trkpt lat="47.8552" lon="7.14504">
        <ele>876</ele>
        <time>2022-04-06T14:11:57Z</time>
      </trkpt>
      <trkpt lat="47.8546" lon="7.14362">
        <ele>866</ele>
        <time>2022-04-06T14:12:17Z</time>
      </trkpt>
      <trkpt lat="47.85445" lon="7.14323">
        <ele>868</ele>
        <time>2022-04-06T14:12:22Z</time>
      </trkpt>
      <trkpt lat="47.85439" lon="7.14312">
        <ele>868</ele>
        <time>2022-04-06T14:12:24Z</time>
      </trkpt>
      <trkpt lat="47.85431" lon="7.14306">
        <ele>868</ele>
        <time>2022-04-06T14:12:25Z</time>
      </trkpt>
      <trkpt lat="47.85422" lon="7.14304">
        <ele>866</ele>
        <time>2022-04-06T14:12:27Z</time>
      </trkpt>
      <trkpt lat="47.85413" lon="7.14304">
        <ele>865</ele>
        <time>2022-04-06T14:12:29Z</time>
      </trkpt>
      <trkpt lat="47.85406" lon="7.14308">
        <ele>866</ele>
        <time>2022-04-06T14:12:30Z</time>
      </trkpt>
      <trkpt lat="47.85395" lon="7.14322">
        <ele>866</ele>
        <time>2022-04-06T14:12:33Z</time>
      </trkpt>
      <trkpt lat="47.85316" lon="7.14438">
        <ele>855</ele>
        <time>2022-04-06T14:12:52Z</time>
      </trkpt>
      <trkpt lat="47.85298" lon="7.14467">
        <ele>853</ele>
        <time>2022-04-06T14:12:57Z</time>
      </trkpt>
      <trkpt lat="47.85258" lon="7.14542">
        <ele>847</ele>
        <time>2022-04-06T14:13:08Z</time>
      </trkpt>
      <trkpt lat="47.85223" lon="7.14586">
        <ele>845</ele>
        <time>2022-04-06T14:13:17Z</time>
      </trkpt>
      <trkpt lat="47.85094" lon="7.14725">
        <ele>841</ele>
        <time>2022-04-06T14:13:45Z</time>
      </trkpt>
      <trkpt lat="47.85038" lon="7.14765">
        <ele>833</ele>
        <time>2022-04-06T14:13:56Z</time>
      </trkpt>
      <trkpt lat="47.84966" lon="7.14808">
        <ele>823</ele>
        <time>2022-04-06T14:14:10Z</time>
      </trkpt>
      <trkpt lat="47.84959" lon="7.14809">
        <ele>822</ele>
        <time>2022-04-06T14:14:11Z</time>
      </trkpt>
      <trkpt lat="47.84947" lon="7.14803">
        <ele>822</ele>
        <time>2022-04-06T14:14:13Z</time>
      </trkpt>
      <trkpt lat="47.84942" lon="7.14795">
        <ele>823</ele>
        <time>2022-04-06T14:14:15Z</time>
      </trkpt>
      <trkpt lat="47.84936" lon="7.14782">
        <ele>824</ele>
        <time>2022-04-06T14:14:16Z</time>
      </trkpt>
      <trkpt lat="47.84918" lon="7.14693">
        <ele>835</ele>
        <time>2022-04-06T14:14:28Z</time>
      </trkpt>
      <trkpt lat="47.84908" lon="7.14669">
        <ele>835</ele>
        <time>2022-04-06T14:14:31Z</time>
      </trkpt>
      <trkpt lat="47.84898" lon="7.14654">
        <ele>836</ele>
        <time>2022-04-06T14:14:33Z</time>
      </trkpt>
      <trkpt lat="47.84762" lon="7.14495">
        <ele>834</ele>
        <time>2022-04-06T14:15:04Z</time>
      </trkpt>
      <trkpt lat="47.84698" lon="7.14398">
        <ele>842</ele>
        <time>2022-04-06T14:15:20Z</time>
      </trkpt>
      <trkpt lat="47.84691" lon="7.14381">
        <ele>843</ele>
        <time>2022-04-06T14:15:23Z</time>
      </trkpt>
      <trkpt lat="47.84684" lon="7.14351">
        <ele>847</ele>
        <time>2022-04-06T14:15:27Z</time>
      </trkpt>
      <trkpt lat="47.84678" lon="7.14331">
        <ele>849</ele>
        <time>2022-04-06T14:15:29Z</time>
      </trkpt>
      <trkpt lat="47.8467" lon="7.14321">
        <ele>849</ele>
        <time>2022-04-06T14:15:31Z</time>
      </trkpt>
      <trkpt lat="47.8466" lon="7.14315">
        <ele>849</ele>
        <time>2022-04-06T14:15:33Z</time>
      </trkpt>
      <trkpt lat="47.84648" lon="7.14316">
        <ele>847</ele>
        <time>2022-04-06T14:15:35Z</time>
      </trkpt>
      <trkpt lat="47.84611" lon="7.14335">
        <ele>841</ele>
        <time>2022-04-06T14:15:42Z</time>
      </trkpt>
      <trkpt lat="47.846" lon="7.14336">
        <ele>840</ele>
        <time>2022-04-06T14:15:44Z</time>
      </trkpt>
      <trkpt lat="47.84568" lon="7.14329">
        <ele>840</ele>
        <time>2022-04-06T14:15:50Z</time>
      </trkpt>
      <trkpt lat="47.84561" lon="7.14331">
        <ele>841</ele>
        <time>2022-04-06T14:15:51Z</time>
      </trkpt>
      <trkpt lat="47.84553" lon="7.14336">
        <ele>841</ele>
        <time>2022-04-06T14:15:53Z</time>
      </trkpt>
      <trkpt lat="47.84547" lon="7.14344">
        <ele>841</ele>
        <time>2022-04-06T14:15:54Z</time>
      </trkpt>
      <trkpt lat="47.84542" lon="7.14353">
        <ele>841</ele>
        <time>2022-04-06T14:15:55Z</time>
      </trkpt>
      <trkpt lat="47.84539" lon="7.14368">
        <ele>841</ele>
        <time>2022-04-06T14:15:57Z</time>
      </trkpt>
      <trkpt lat="47.84523" lon="7.14452">
        <ele>840</ele>
        <time>2022-04-06T14:16:08Z</time>
      </trkpt>
      <trkpt lat="47.84517" lon="7.14473">
        <ele>841</ele>
        <time>2022-04-06T14:16:10Z</time>
      </trkpt>
      <trkpt lat="47.84487" lon="7.14552">
        <ele>844</ele>
        <time>2022-04-06T14:16:21Z</time>
      </trkpt>
      <trkpt lat="47.84476" lon="7.14568">
        <ele>845</ele>
        <time>2022-04-06T14:16:24Z</time>
      </trkpt>
      <trkpt lat="47.84466" lon="7.14576">
        <ele>846</ele>
        <time>2022-04-06T14:16:26Z</time>
      </trkpt>
      <trkpt lat="47.84456" lon="7.14579">
        <ele>847</ele>
        <time>2022-04-06T14:16:28Z</time>
      </trkpt>
      <trkpt lat="47.84376" lon="7.14579">
        <ele>851</ele>
        <time>2022-04-06T14:16:42Z</time>
      </trkpt>
      <trkpt lat="47.84359" lon="7.14583">
        <ele>850</ele>
        <time>2022-04-06T14:16:45Z</time>
      </trkpt>
      <trkpt lat="47.8434" lon="7.14592">
        <ele>848</ele>
        <time>2022-04-06T14:16:49Z</time>
      </trkpt>
      <trkpt lat="47.84324" lon="7.14591">
        <ele>845</ele>
        <time>2022-04-06T14:16:52Z</time>
      </trkpt>
      <trkpt lat="47.84316" lon="7.14586">
        <ele>843</ele>
        <time>2022-04-06T14:16:53Z</time>
      </trkpt>
      <trkpt lat="47.8431" lon="7.14578">
        <ele>842</ele>
        <time>2022-04-06T14:16:55Z</time>
      </trkpt>
      <trkpt lat="47.84303" lon="7.1456">
        <ele>840</ele>
        <time>2022-04-06T14:16:57Z</time>
      </trkpt>
      <trkpt lat="47.84303" lon="7.14549">
        <ele>840</ele>
        <time>2022-04-06T14:16:58Z</time>
      </trkpt>
      <trkpt lat="47.84306" lon="7.14537">
        <ele>841</ele>
        <time>2022-04-06T14:17:00Z</time>
      </trkpt>
      <trkpt lat="47.84355" lon="7.14397">
        <ele>837</ele>
        <time>2022-04-06T14:17:19Z</time>
      </trkpt>
      <trkpt lat="47.84368" lon="7.14339">
        <ele>831</ele>
        <time>2022-04-06T14:17:26Z</time>
      </trkpt>
      <trkpt lat="47.84378" lon="7.14315">
        <ele>829</ele>
        <time>2022-04-06T14:17:29Z</time>
      </trkpt>
      <trkpt lat="47.84386" lon="7.14299">
        <ele>827</ele>
        <time>2022-04-06T14:17:32Z</time>
      </trkpt>
      <trkpt lat="47.84401" lon="7.14276">
        <ele>827</ele>
        <time>2022-04-06T14:17:36Z</time>
      </trkpt>
      <trkpt lat="47.84415" lon="7.14263">
        <ele>828</ele>
        <time>2022-04-06T14:17:39Z</time>
      </trkpt>
      <trkpt lat="47.84444" lon="7.14248">
        <ele>827</ele>
        <time>2022-04-06T14:17:44Z</time>
      </trkpt>
      <trkpt lat="47.84493" lon="7.14229">
        <ele>827</ele>
        <time>2022-04-06T14:17:53Z</time>
      </trkpt>
      <trkpt lat="47.84504" lon="7.14221">
        <ele>827</ele>
        <time>2022-04-06T14:17:55Z</time>
      </trkpt>
      <trkpt lat="47.84512" lon="7.14213">
        <ele>828</ele>
        <time>2022-04-06T14:17:57Z</time>
      </trkpt>
      <trkpt lat="47.8452" lon="7.14203">
        <ele>828</ele>
        <time>2022-04-06T14:17:59Z</time>
      </trkpt>
      <trkpt lat="47.84526" lon="7.14193">
        <ele>828</ele>
        <time>2022-04-06T14:18:00Z</time>
      </trkpt>
      <trkpt lat="47.84538" lon="7.14158">
        <ele>826</ele>
        <time>2022-04-06T14:18:05Z</time>
      </trkpt>
      <trkpt lat="47.8454" lon="7.1414">
        <ele>823</ele>
        <time>2022-04-06T14:18:07Z</time>
      </trkpt>
      <trkpt lat="47.84554" lon="7.14006">
        <ele>812</ele>
        <time>2022-04-06T14:18:23Z</time>
      </trkpt>
      <trkpt lat="47.84565" lon="7.1397">
        <ele>813</ele>
        <time>2022-04-06T14:18:28Z</time>
      </trkpt>
      <trkpt lat="47.84565" lon="7.13961">
        <ele>813</ele>
        <time>2022-04-06T14:18:29Z</time>
      </trkpt>
      <trkpt lat="47.84563" lon="7.13954">
        <ele>811</ele>
        <time>2022-04-06T14:18:30Z</time>
      </trkpt>
      <trkpt lat="47.8456" lon="7.13948">
        <ele>809</ele>
        <time>2022-04-06T14:18:31Z</time>
      </trkpt>
      <trkpt lat="47.84555" lon="7.13946">
        <ele>807</ele>
        <time>2022-04-06T14:18:32Z</time>
      </trkpt>
      <trkpt lat="47.84546" lon="7.13952">
        <ele>803</ele>
        <time>2022-04-06T14:18:34Z</time>
      </trkpt>
      <trkpt lat="47.84543" lon="7.13959">
        <ele>803</ele>
        <time>2022-04-06T14:18:35Z</time>
      </trkpt>
      <trkpt lat="47.84531" lon="7.14026">
        <ele>804</ele>
        <time>2022-04-06T14:18:43Z</time>
      </trkpt>
      <trkpt lat="47.84521" lon="7.14062">
        <ele>805</ele>
        <time>2022-04-06T14:18:48Z</time>
      </trkpt>
      <trkpt lat="47.8451" lon="7.14091">
        <ele>805</ele>
        <time>2022-04-06T14:18:52Z</time>
      </trkpt>
      <trkpt lat="47.845" lon="7.14106">
        <ele>804</ele>
        <time>2022-04-06T14:18:54Z</time>
      </trkpt>
      <trkpt lat="47.84488" lon="7.14113">
        <ele>804</ele>
        <time>2022-04-06T14:18:56Z</time>
      </trkpt>
      <trkpt lat="47.84448" lon="7.14111">
        <ele>796</ele>
        <time>2022-04-06T14:19:04Z</time>
      </trkpt>
      <trkpt lat="47.84364" lon="7.14122">
        <ele>780</ele>
        <time>2022-04-06T14:19:19Z</time>
      </trkpt>
      <trkpt lat="47.84343" lon="7.14129">
        <ele>776</ele>
        <time>2022-04-06T14:19:22Z</time>
      </trkpt>
      <trkpt lat="47.84322" lon="7.14146">
        <ele>774</ele>
        <time>2022-04-06T14:19:27Z</time>
      </trkpt>
      <trkpt lat="47.84228" lon="7.14269">
        <ele>767</ele>
        <time>2022-04-06T14:19:49Z</time>
      </trkpt>
      <trkpt lat="47.84171" lon="7.14323">
        <ele>759</ele>
        <time>2022-04-06T14:20:01Z</time>
      </trkpt>
      <trkpt lat="47.8413" lon="7.14354">
        <ele>753</ele>
        <time>2022-04-06T14:20:09Z</time>
      </trkpt>
      <trkpt lat="47.84111" lon="7.14373">
        <ele>751</ele>
        <time>2022-04-06T14:20:13Z</time>
      </trkpt>
      <trkpt lat="47.84091" lon="7.144">
        <ele>749</ele>
        <time>2022-04-06T14:20:18Z</time>
      </trkpt>
      <trkpt lat="47.84077" lon="7.14424">
        <ele>748</ele>
        <time>2022-04-06T14:20:22Z</time>
      </trkpt>
      <trkpt lat="47.84068" lon="7.14445">
        <ele>744</ele>
        <time>2022-04-06T14:20:25Z</time>
      </trkpt>
      <trkpt lat="47.84068" lon="7.14472">
        <ele>744</ele>
        <time>2022-04-06T14:20:28Z</time>
      </trkpt>
      <trkpt lat="47.8407" lon="7.14482">
        <ele>745</ele>
        <time>2022-04-06T14:20:29Z</time>
      </trkpt>
      <trkpt lat="47.84075" lon="7.14491">
        <ele>747</ele>
        <time>2022-04-06T14:20:31Z</time>
      </trkpt>
      <trkpt lat="47.84105" lon="7.14507">
        <ele>758</ele>
        <time>2022-04-06T14:20:36Z</time>
      </trkpt>
      <trkpt lat="47.84113" lon="7.14519">
        <ele>759</ele>
        <time>2022-04-06T14:20:38Z</time>
      </trkpt>
      <trkpt lat="47.84119" lon="7.14534">
        <ele>759</ele>
        <time>2022-04-06T14:20:40Z</time>
      </trkpt>
      <trkpt lat="47.84123" lon="7.14551">
        <ele>758</ele>
        <time>2022-04-06T14:20:43Z</time>
      </trkpt>
      <trkpt lat="47.84129" lon="7.14631">
        <ele>751</ele>
        <time>2022-04-06T14:20:52Z</time>
      </trkpt>
      <trkpt lat="47.84129" lon="7.14662">
        <ele>747</ele>
        <time>2022-04-06T14:20:56Z</time>
      </trkpt>
      <trkpt lat="47.84126" lon="7.14681">
        <ele>746</ele>
        <time>2022-04-06T14:20:58Z</time>
      </trkpt>
      <trkpt lat="47.84086" lon="7.14781">
        <ele>730</ele>
        <time>2022-04-06T14:21:12Z</time>
      </trkpt>
      <trkpt lat="47.84068" lon="7.14841">
        <ele>728</ele>
        <time>2022-04-06T14:21:20Z</time>
      </trkpt>
      <trkpt lat="47.8405" lon="7.14908">
        <ele>726</ele>
        <time>2022-04-06T14:21:29Z</time>
      </trkpt>
      <trkpt lat="47.84021" lon="7.15027">
        <ele>712</ele>
        <time>2022-04-06T14:21:44Z</time>
      </trkpt>
      <trkpt lat="47.8402" lon="7.15043">
        <ele>711</ele>
        <time>2022-04-06T14:21:46Z</time>
      </trkpt>
      <trkpt lat="47.84023" lon="7.15057">
        <ele>711</ele>
        <time>2022-04-06T14:21:47Z</time>
      </trkpt>
      <trkpt lat="47.84035" lon="7.15079">
        <ele>714</ele>
        <time>2022-04-06T14:21:51Z</time>
      </trkpt>
      <trkpt lat="47.84043" lon="7.15086">
        <ele>715</ele>
        <time>2022-04-06T14:21:52Z</time>
      </trkpt>
      <trkpt lat="47.84077" lon="7.15096">
        <ele>721</ele>
        <time>2022-04-06T14:21:59Z</time>
      </trkpt>
      <trkpt lat="47.84084" lon="7.151">
        <ele>722</ele>
        <time>2022-04-06T14:22:00Z</time>
      </trkpt>
      <trkpt lat="47.8409" lon="7.15107">
        <ele>722</ele>
        <time>2022-04-06T14:22:01Z</time>
      </trkpt>
      <trkpt lat="47.84096" lon="7.1512">
        <ele>721</ele>
        <time>2022-04-06T14:22:03Z</time>
      </trkpt>
      <trkpt lat="47.84103" lon="7.15151">
        <ele>716</ele>
        <time>2022-04-06T14:22:07Z</time>
      </trkpt>
      <trkpt lat="47.84108" lon="7.15183">
        <ele>711</ele>
        <time>2022-04-06T14:22:11Z</time>
      </trkpt>
      <trkpt lat="47.84114" lon="7.15303">
        <ele>694</ele>
        <time>2022-04-06T14:22:25Z</time>
      </trkpt>
      <trkpt lat="47.84122" lon="7.15334">
        <ele>693</ele>
        <time>2022-04-06T14:22:29Z</time>
      </trkpt>
      <trkpt lat="47.84131" lon="7.15358">
        <ele>691</ele>
        <time>2022-04-06T14:22:33Z</time>
      </trkpt>
      <trkpt lat="47.84133" lon="7.15371">
        <ele>689</ele>
        <time>2022-04-06T14:22:34Z</time>
      </trkpt>
      <trkpt lat="47.84131" lon="7.15378">
        <ele>688</ele>
        <time>2022-04-06T14:22:35Z</time>
      </trkpt>
      <trkpt lat="47.84128" lon="7.15384">
        <ele>686</ele>
        <time>2022-04-06T14:22:36Z</time>
      </trkpt>
      <trkpt lat="47.84119" lon="7.15387">
        <ele>683</ele>
        <time>2022-04-06T14:22:38Z</time>
      </trkpt>
      <trkpt lat="47.84112" lon="7.15381">
        <ele>682</ele>
        <time>2022-04-06T14:22:39Z</time>
      </trkpt>
      <trkpt lat="47.84109" lon="7.15372">
        <ele>683</ele>
        <time>2022-04-06T14:22:40Z</time>
      </trkpt>
      <trkpt lat="47.84105" lon="7.15339">
        <ele>686</ele>
        <time>2022-04-06T14:22:44Z</time>
      </trkpt>
      <trkpt lat="47.84087" lon="7.1527">
        <ele>688</ele>
        <time>2022-04-06T14:22:53Z</time>
      </trkpt>
      <trkpt lat="47.84084" lon="7.15249">
        <ele>689</ele>
        <time>2022-04-06T14:22:56Z</time>
      </trkpt>
      <trkpt lat="47.84083" lon="7.15224">
        <ele>694</ele>
        <time>2022-04-06T14:22:59Z</time>
      </trkpt>
      <trkpt lat="47.84079" lon="7.15214">
        <ele>695</ele>
        <time>2022-04-06T14:23:00Z</time>
      </trkpt>
      <trkpt lat="47.84074" lon="7.15208">
        <ele>695</ele>
        <time>2022-04-06T14:23:01Z</time>
      </trkpt>
      <trkpt lat="47.84069" lon="7.15206">
        <ele>695</ele>
        <time>2022-04-06T14:23:02Z</time>
      </trkpt>
      <trkpt lat="47.84064" lon="7.15208">
        <ele>693</ele>
        <time>2022-04-06T14:23:03Z</time>
      </trkpt>
      <trkpt lat="47.84061" lon="7.15211">
        <ele>692</ele>
        <time>2022-04-06T14:23:04Z</time>
      </trkpt>
      <trkpt lat="47.84058" lon="7.1522">
        <ele>689</ele>
        <time>2022-04-06T14:23:05Z</time>
      </trkpt>
      <trkpt lat="47.84058" lon="7.15232">
        <ele>687</ele>
        <time>2022-04-06T14:23:06Z</time>
      </trkpt>
      <trkpt lat="47.84071" lon="7.15284">
        <ele>682</ele>
        <time>2022-04-06T14:23:13Z</time>
      </trkpt>
      <trkpt lat="47.84074" lon="7.15301">
        <ele>681</ele>
        <time>2022-04-06T14:23:15Z</time>
      </trkpt>
      <trkpt lat="47.84075" lon="7.15369">
        <ele>674</ele>
        <time>2022-04-06T14:23:23Z</time>
      </trkpt>
      <trkpt lat="47.8408" lon="7.15397">
        <ele>672</ele>
        <time>2022-04-06T14:23:27Z</time>
      </trkpt>
      <trkpt lat="47.84092" lon="7.15425">
        <ele>671</ele>
        <time>2022-04-06T14:23:31Z</time>
      </trkpt>
      <trkpt lat="47.841" lon="7.15439">
        <ele>670</ele>
        <time>2022-04-06T14:23:33Z</time>
      </trkpt>
      <trkpt lat="47.84133" lon="7.15468">
        <ele>670</ele>
        <time>2022-04-06T14:23:40Z</time>
      </trkpt>
      <trkpt lat="47.84137" lon="7.1548">
        <ele>668</ele>
        <time>2022-04-06T14:23:41Z</time>
      </trkpt>
      <trkpt lat="47.84137" lon="7.15486">
        <ele>667</ele>
        <time>2022-04-06T14:23:42Z</time>
      </trkpt>
      <trkpt lat="47.84133" lon="7.15493">
        <ele>665</ele>
        <time>2022-04-06T14:23:43Z</time>
      </trkpt>
      <trkpt lat="47.84129" lon="7.15496">
        <ele>664</ele>
        <time>2022-04-06T14:23:44Z</time>
      </trkpt>
      <trkpt lat="47.84123" lon="7.15496">
        <ele>664</ele>
        <time>2022-04-06T14:23:45Z</time>
      </trkpt>
      <trkpt lat="47.84117" lon="7.15492">
        <ele>664</ele>
        <time>2022-04-06T14:23:46Z</time>
      </trkpt>
      <trkpt lat="47.84068" lon="7.15424">
        <ele>665</ele>
        <time>2022-04-06T14:23:58Z</time>
      </trkpt>
      <trkpt lat="47.84035" lon="7.15389">
        <ele>661</ele>
        <time>2022-04-06T14:24:05Z</time>
      </trkpt>
      <trkpt lat="47.84022" lon="7.15363">
        <ele>660</ele>
        <time>2022-04-06T14:24:09Z</time>
      </trkpt>
      <trkpt lat="47.84009" lon="7.15315">
        <ele>662</ele>
        <time>2022-04-06T14:24:15Z</time>
      </trkpt>
      <trkpt lat="47.84003" lon="7.15302">
        <ele>662</ele>
        <time>2022-04-06T14:24:17Z</time>
      </trkpt>
      <trkpt lat="47.83995" lon="7.15294">
        <ele>661</ele>
        <time>2022-04-06T14:24:19Z</time>
      </trkpt>
      <trkpt lat="47.83986" lon="7.15292">
        <ele>660</ele>
        <time>2022-04-06T14:24:20Z</time>
      </trkpt>
      <trkpt lat="47.83971" lon="7.15296">
        <ele>656</ele>
        <time>2022-04-06T14:24:23Z</time>
      </trkpt>
      <trkpt lat="47.83934" lon="7.15323">
        <ele>644</ele>
        <time>2022-04-06T14:24:30Z</time>
      </trkpt>
      <trkpt lat="47.83923" lon="7.15325">
        <ele>641</ele>
        <time>2022-04-06T14:24:32Z</time>
      </trkpt>
      <trkpt lat="47.83913" lon="7.15322">
        <ele>640</ele>
        <time>2022-04-06T14:24:34Z</time>
      </trkpt>
      <trkpt lat="47.839" lon="7.15315">
        <ele>639</ele>
        <time>2022-04-06T14:24:37Z</time>
      </trkpt>
      <trkpt lat="47.83851" lon="7.15275">
        <ele>635</ele>
        <time>2022-04-06T14:24:47Z</time>
      </trkpt>
      <trkpt lat="47.83818" lon="7.15234">
        <ele>631</ele>
        <time>2022-04-06T14:24:54Z</time>
      </trkpt>
      <trkpt lat="47.83802" lon="7.15199">
        <ele>627</ele>
        <time>2022-04-06T14:24:59Z</time>
      </trkpt>
      <trkpt lat="47.83799" lon="7.15187">
        <ele>627</ele>
        <time>2022-04-06T14:25:01Z</time>
      </trkpt>
      <trkpt lat="47.83797" lon="7.15173">
        <ele>627</ele>
        <time>2022-04-06T14:25:03Z</time>
      </trkpt>
      <trkpt lat="47.83798" lon="7.15158">
        <ele>627</ele>
        <time>2022-04-06T14:25:04Z</time>
      </trkpt>
      <trkpt lat="47.83804" lon="7.15123">
        <ele>628</ele>
        <time>2022-04-06T14:25:09Z</time>
      </trkpt>
      <trkpt lat="47.83805" lon="7.1511">
        <ele>627</ele>
        <time>2022-04-06T14:25:10Z</time>
      </trkpt>
      <trkpt lat="47.838" lon="7.15096">
        <ele>625</ele>
        <time>2022-04-06T14:25:12Z</time>
      </trkpt>
      <trkpt lat="47.83796" lon="7.15093">
        <ele>623</ele>
        <time>2022-04-06T14:25:13Z</time>
      </trkpt>
      <trkpt lat="47.8379" lon="7.15093">
        <ele>621</ele>
        <time>2022-04-06T14:25:14Z</time>
      </trkpt>
      <trkpt lat="47.83786" lon="7.15095">
        <ele>620</ele>
        <time>2022-04-06T14:25:15Z</time>
      </trkpt>
      <trkpt lat="47.83782" lon="7.15103">
        <ele>619</ele>
        <time>2022-04-06T14:25:16Z</time>
      </trkpt>
      <trkpt lat="47.8378" lon="7.15112">
        <ele>619</ele>
        <time>2022-04-06T14:25:17Z</time>
      </trkpt>
      <trkpt lat="47.83778" lon="7.15222">
        <ele>619</ele>
        <time>2022-04-06T14:25:30Z</time>
      </trkpt>
      <trkpt lat="47.8378" lon="7.15252">
        <ele>618</ele>
        <time>2022-04-06T14:25:34Z</time>
      </trkpt>
      <trkpt lat="47.83786" lon="7.15294">
        <ele>616</ele>
        <time>2022-04-06T14:25:39Z</time>
      </trkpt>
      <trkpt lat="47.83796" lon="7.15335">
        <ele>614</ele>
        <time>2022-04-06T14:25:44Z</time>
      </trkpt>
      <trkpt lat="47.83838" lon="7.15447">
        <ele>608</ele>
        <time>2022-04-06T14:26:00Z</time>
      </trkpt>
      <trkpt lat="47.83842" lon="7.15479">
        <ele>606</ele>
        <time>2022-04-06T14:26:03Z</time>
      </trkpt>
      <trkpt lat="47.83841" lon="7.15511">
        <ele>603</ele>
        <time>2022-04-06T14:26:07Z</time>
      </trkpt>
      <trkpt lat="47.83837" lon="7.15555">
        <ele>598</ele>
        <time>2022-04-06T14:26:13Z</time>
      </trkpt>
      <trkpt lat="47.83836" lon="7.15591">
        <ele>595</ele>
        <time>2022-04-06T14:26:17Z</time>
      </trkpt>
      <trkpt lat="47.83838" lon="7.15613">
        <ele>592</ele>
        <time>2022-04-06T14:26:20Z</time>
      </trkpt>
      <trkpt lat="47.8384" lon="7.15628">
        <ele>591</ele>
        <time>2022-04-06T14:26:21Z</time>
      </trkpt>
      <trkpt lat="47.83848" lon="7.15652">
        <ele>590</ele>
        <time>2022-04-06T14:26:25Z</time>
      </trkpt>
      <trkpt lat="47.83858" lon="7.15668">
        <ele>590</ele>
        <time>2022-04-06T14:26:27Z</time>
      </trkpt>
      <trkpt lat="47.83876" lon="7.15694">
        <ele>591</ele>
        <time>2022-04-06T14:26:32Z</time>
      </trkpt>
      <trkpt lat="47.8388" lon="7.15702">
        <ele>591</ele>
        <time>2022-04-06T14:26:33Z</time>
      </trkpt>
      <trkpt lat="47.83882" lon="7.15709">
        <ele>591</ele>
        <time>2022-04-06T14:26:34Z</time>
      </trkpt>
      <trkpt lat="47.8388" lon="7.15717">
        <ele>589</ele>
        <time>2022-04-06T14:26:35Z</time>
      </trkpt>
      <trkpt lat="47.83878" lon="7.15723">
        <ele>588</ele>
        <time>2022-04-06T14:26:36Z</time>
      </trkpt>
      <trkpt lat="47.83868" lon="7.15725">
        <ele>585</ele>
        <time>2022-04-06T14:26:37Z</time>
      </trkpt>
      <trkpt lat="47.83862" lon="7.15722">
        <ele>584</ele>
        <time>2022-04-06T14:26:38Z</time>
      </trkpt>
      <trkpt lat="47.8383" lon="7.15675">
        <ele>583</ele>
        <time>2022-04-06T14:26:46Z</time>
      </trkpt>
      <trkpt lat="47.83812" lon="7.15655">
        <ele>584</ele>
        <time>2022-04-06T14:26:50Z</time>
      </trkpt>
      <trkpt lat="47.83801" lon="7.15646">
        <ele>584</ele>
        <time>2022-04-06T14:26:53Z</time>
      </trkpt>
      <trkpt lat="47.83787" lon="7.15642">
        <ele>584</ele>
        <time>2022-04-06T14:26:55Z</time>
      </trkpt>
      <trkpt lat="47.83773" lon="7.15641">
        <ele>583</ele>
        <time>2022-04-06T14:26:58Z</time>
      </trkpt>
      <trkpt lat="47.83758" lon="7.15648">
        <ele>581</ele>
        <time>2022-04-06T14:27:01Z</time>
      </trkpt>
      <trkpt lat="47.83748" lon="7.15657">
        <ele>579</ele>
        <time>2022-04-06T14:27:03Z</time>
      </trkpt>
      <trkpt lat="47.83722" lon="7.15701">
        <ele>575</ele>
        <time>2022-04-06T14:27:10Z</time>
      </trkpt>
      <trkpt lat="47.83718" lon="7.15706">
        <ele>574</ele>
        <time>2022-04-06T14:27:11Z</time>
      </trkpt>
      <trkpt lat="47.83708" lon="7.1571">
        <ele>574</ele>
        <time>2022-04-06T14:27:12Z</time>
      </trkpt>
      <trkpt lat="47.83699" lon="7.1571">
        <ele>573</ele>
        <time>2022-04-06T14:27:14Z</time>
      </trkpt>
      <trkpt lat="47.83689" lon="7.15705">
        <ele>573</ele>
        <time>2022-04-06T14:27:16Z</time>
      </trkpt>
      <trkpt lat="47.83678" lon="7.15693">
        <ele>573</ele>
        <time>2022-04-06T14:27:18Z</time>
      </trkpt>
      <trkpt lat="47.83644" lon="7.15621">
        <ele>573</ele>
        <time>2022-04-06T14:27:29Z</time>
      </trkpt>
      <trkpt lat="47.83625" lon="7.15588">
        <ele>571</ele>
        <time>2022-04-06T14:27:34Z</time>
      </trkpt>
      <trkpt lat="47.8359" lon="7.15537">
        <ele>565</ele>
        <time>2022-04-06T14:27:43Z</time>
      </trkpt>
      <trkpt lat="47.8355" lon="7.15489">
        <ele>559</ele>
        <time>2022-04-06T14:27:52Z</time>
      </trkpt>
      <trkpt lat="47.83527" lon="7.15456">
        <ele>555</ele>
        <time>2022-04-06T14:27:57Z</time>
      </trkpt>
      <trkpt lat="47.83507" lon="7.15411">
        <ele>551</ele>
        <time>2022-04-06T14:28:04Z</time>
      </trkpt>
      <trkpt lat="47.835" lon="7.15384">
        <ele>549</ele>
        <time>2022-04-06T14:28:07Z</time>
      </trkpt>
      <trkpt lat="47.83493" lon="7.15349">
        <ele>548</ele>
        <time>2022-04-06T14:28:12Z</time>
      </trkpt>
      <trkpt lat="47.83488" lon="7.15338">
        <ele>547</ele>
        <time>2022-04-06T14:28:13Z</time>
      </trkpt>
      <trkpt lat="47.83482" lon="7.15333">
        <ele>546</ele>
        <time>2022-04-06T14:28:15Z</time>
      </trkpt>
      <trkpt lat="47.83475" lon="7.15333">
        <ele>545</ele>
        <time>2022-04-06T14:28:16Z</time>
      </trkpt>
      <trkpt lat="47.8347" lon="7.15338">
        <ele>545</ele>
        <time>2022-04-06T14:28:17Z</time>
      </trkpt>
      <trkpt lat="47.83454" lon="7.15392">
        <ele>545</ele>
        <time>2022-04-06T14:28:24Z</time>
      </trkpt>
      <trkpt lat="47.83309" lon="7.15735">
        <ele>524</ele>
        <time>2022-04-06T14:29:12Z</time>
      </trkpt>
      <trkpt lat="47.83289" lon="7.15771">
        <ele>523</ele>
        <time>2022-04-06T14:29:18Z</time>
      </trkpt>
      <trkpt lat="47.83238" lon="7.15855">
        <ele>518</ele>
        <time>2022-04-06T14:29:31Z</time>
      </trkpt>
      <trkpt lat="47.83139" lon="7.16001">
        <ele>510</ele>
        <time>2022-04-06T14:29:56Z</time>
      </trkpt>
      <trkpt lat="47.82996" lon="7.16218">
        <ele>490</ele>
        <time>2022-04-06T14:30:33Z</time>
      </trkpt>
      <trkpt lat="47.82954" lon="7.16295">
        <ele>482</ele>
        <time>2022-04-06T14:30:44Z</time>
      </trkpt>
      <trkpt lat="47.82946" lon="7.16307">
        <ele>480</ele>
        <time>2022-04-06T14:30:46Z</time>
      </trkpt>
      <trkpt lat="47.82938" lon="7.16312">
        <ele>479</ele>
        <time>2022-04-06T14:30:48Z</time>
      </trkpt>
      <trkpt lat="47.82921" lon="7.16307">
        <ele>477</ele>
        <time>2022-04-06T14:30:51Z</time>
      </trkpt>
      <trkpt lat="47.82912" lon="7.16297">
        <ele>476</ele>
        <time>2022-04-06T14:30:53Z</time>
      </trkpt>
      <trkpt lat="47.82906" lon="7.16278">
        <ele>475</ele>
        <time>2022-04-06T14:30:56Z</time>
      </trkpt>
      <trkpt lat="47.82901" lon="7.1624">
        <ele>475</ele>
        <time>2022-04-06T14:31:00Z</time>
      </trkpt>
      <trkpt lat="47.82894" lon="7.16209">
        <ele>473</ele>
        <time>2022-04-06T14:31:04Z</time>
      </trkpt>
      <trkpt lat="47.82871" lon="7.16154">
        <ele>467</ele>
        <time>2022-04-06T14:31:12Z</time>
      </trkpt>
      <trkpt lat="47.82867" lon="7.16137">
        <ele>465</ele>
        <time>2022-04-06T14:31:14Z</time>
      </trkpt>
      <trkpt lat="47.82866" lon="7.16093">
        <ele>462</ele>
        <time>2022-04-06T14:31:19Z</time>
      </trkpt>
      <trkpt lat="47.82879" lon="7.1602">
        <ele>461</ele>
        <time>2022-04-06T14:31:28Z</time>
      </trkpt>
      <trkpt lat="47.82882" lon="7.15991">
        <ele>461</ele>
        <time>2022-04-06T14:31:32Z</time>
      </trkpt>
      <trkpt lat="47.82882" lon="7.15913">
        <ele>457</ele>
        <time>2022-04-06T14:31:41Z</time>
      </trkpt>
      <trkpt lat="47.82881" lon="7.15872">
        <ele>459</ele>
        <time>2022-04-06T14:31:46Z</time>
      </trkpt>
      <trkpt lat="47.82878" lon="7.15857">
        <ele>460</ele>
        <time>2022-04-06T14:31:48Z</time>
      </trkpt>
      <trkpt lat="47.82871" lon="7.15848">
        <ele>460</ele>
        <time>2022-04-06T14:31:50Z</time>
      </trkpt>
      <trkpt lat="47.82863" lon="7.15843">
        <ele>459</ele>
        <time>2022-04-06T14:31:51Z</time>
      </trkpt>
      <trkpt lat="47.8285" lon="7.15846">
        <ele>458</ele>
        <time>2022-04-06T14:31:53Z</time>
      </trkpt>
      <trkpt lat="47.82827" lon="7.15856">
        <ele>455</ele>
        <time>2022-04-06T14:31:58Z</time>
      </trkpt>
      <trkpt lat="47.82777" lon="7.15883">
        <ele>450</ele>
        <time>2022-04-06T14:32:07Z</time>
      </trkpt>
      <trkpt lat="47.82635" lon="7.15999">
        <ele>430</ele>
        <time>2022-04-06T14:32:36Z</time>
      </trkpt>
      <trkpt lat="47.82577" lon="7.16038">
        <ele>422</ele>
        <time>2022-04-06T14:32:47Z</time>
      </trkpt>
      <trkpt lat="47.82565" lon="7.16036">
        <ele>419</ele>
        <time>2022-04-06T14:32:49Z</time>
      </trkpt>
      <trkpt lat="47.82556" lon="7.16029">
        <ele>417</ele>
        <time>2022-04-06T14:32:51Z</time>
      </trkpt>
      <trkpt lat="47.82551" lon="7.16016">
        <ele>416</ele>
        <time>2022-04-06T14:32:53Z</time>
      </trkpt>
      <trkpt lat="47.8255" lon="7.15998">
        <ele>416</ele>
        <time>2022-04-06T14:32:55Z</time>
      </trkpt>
      <trkpt lat="47.82558" lon="7.15916">
        <ele>415</ele>
        <time>2022-04-06T14:33:05Z</time>
      </trkpt>
      <trkpt lat="47.82563" lon="7.15852">
        <ele>416</ele>
        <time>2022-04-06T14:33:13Z</time>
      </trkpt>
      <trkpt lat="47.82565" lon="7.15814">
        <ele>416</ele>
        <time>2022-04-06T14:33:17Z</time>
      </trkpt>
      <trkpt lat="47.82559" lon="7.15709">
        <ele>411</ele>
        <time>2022-04-06T14:33:30Z</time>
      </trkpt>
      <trkpt lat="47.82558" lon="7.15623">
        <ele>410</ele>
        <time>2022-04-06T14:33:40Z</time>
      </trkpt>
      <trkpt lat="47.82556" lon="7.15603">
        <ele>409</ele>
        <time>2022-04-06T14:33:43Z</time>
      </trkpt>
      <trkpt lat="47.82551" lon="7.15596">
        <ele>409</ele>
        <time>2022-04-06T14:33:44Z</time>
      </trkpt>
      <trkpt lat="47.82544" lon="7.15594">
        <ele>408</ele>
        <time>2022-04-06T14:33:45Z</time>
      </trkpt>
      <trkpt lat="47.82537" lon="7.15599">
        <ele>407</ele>
        <time>2022-04-06T14:33:46Z</time>
      </trkpt>
      <trkpt lat="47.82532" lon="7.1561">
        <ele>406</ele>
        <time>2022-04-06T14:33:48Z</time>
      </trkpt>
      <trkpt lat="47.82529" lon="7.15653">
        <ele>405</ele>
        <time>2022-04-06T14:33:53Z</time>
      </trkpt>
      <trkpt lat="47.82523" lon="7.15687">
        <ele>403</ele>
        <time>2022-04-06T14:33:57Z</time>
      </trkpt>
      <trkpt lat="47.82514" lon="7.15727">
        <ele>400</ele>
        <time>2022-04-06T14:34:02Z</time>
      </trkpt>
      <trkpt lat="47.82476" lon="7.15838">
        <ele>391</ele>
        <time>2022-04-06T14:34:17Z</time>
      </trkpt>
      <trkpt lat="47.82443" lon="7.15942">
        <ele>384</ele>
        <time>2022-04-06T14:34:31Z</time>
      </trkpt>
      <trkpt lat="47.82429" lon="7.15992">
        <ele>381</ele>
        <time>2022-04-06T14:34:38Z</time>
      </trkpt>
      <trkpt lat="47.82347" lon="7.16398">
        <ele>360</ele>
        <time>2022-04-06T14:35:28Z</time>
      </trkpt>
      <trkpt lat="47.82303" lon="7.16625">
        <ele>351</ele>
        <time>2022-04-06T14:35:56Z</time>
      </trkpt>
      <trkpt lat="47.82289" lon="7.16716">
        <ele>348</ele>
        <time>2022-04-06T14:36:08Z</time>
      </trkpt>
      <trkpt lat="47.82265" lon="7.1694">
        <ele>341</ele>
        <time>2022-04-06T14:36:35Z</time>
      </trkpt>
      <trkpt lat="47.82253" lon="7.17037">
        <ele>337</ele>
        <time>2022-04-06T14:36:46Z</time>
      </trkpt>
      <trkpt lat="47.82242" lon="7.17079">
        <ele>334</ele>
        <time>2022-04-06T14:36:52Z</time>
      </trkpt>
      <trkpt lat="47.8221" lon="7.17163">
        <ele>329</ele>
        <time>2022-04-06T14:37:03Z</time>
      </trkpt>
      <trkpt lat="47.82167" lon="7.1723">
        <ele>325</ele>
        <time>2022-04-06T14:37:14Z</time>
      </trkpt>
      <trkpt lat="47.82145" lon="7.17288">
        <ele>325</ele>
        <time>2022-04-06T14:37:22Z</time>
      </trkpt>
      <trkpt lat="47.82125" lon="7.17357">
        <ele>323</ele>
        <time>2022-04-06T14:37:31Z</time>
      </trkpt>
      <trkpt lat="47.82088" lon="7.17501">
        <ele>319</ele>
        <time>2022-04-06T14:37:50Z</time>
      </trkpt>
      <trkpt lat="47.82084" lon="7.1753">
        <ele>318</ele>
        <time>2022-04-06T14:37:53Z</time>
      </trkpt>
      <trkpt lat="47.82084" lon="7.1758">
        <ele>316</ele>
        <time>2022-04-06T14:37:59Z</time>
      </trkpt>
      <trkpt lat="47.82081" lon="7.17618">
        <ele>315</ele>
        <time>2022-04-06T14:38:04Z</time>
      </trkpt>
      <trkpt lat="47.82076" lon="7.17642">
        <ele>314</ele>
        <time>2022-04-06T14:38:07Z</time>
      </trkpt>
      <trkpt lat="47.82065" lon="7.17668">
        <ele>314</ele>
        <time>2022-04-06T14:38:11Z</time>
      </trkpt>
      <trkpt lat="47.82019" lon="7.17729">
        <ele>312</ele>
        <time>2022-04-06T14:38:22Z</time>
      </trkpt>
      <trkpt lat="47.82003" lon="7.17751">
        <ele>311</ele>
        <time>2022-04-06T14:38:25Z</time>
      </trkpt>
      <trkpt lat="47.81991" lon="7.17772">
        <ele>310</ele>
        <time>2022-04-06T14:38:29Z</time>
      </trkpt>
      <trkpt lat="47.81985" lon="7.17785">
        <ele>310</ele>
        <time>2022-04-06T14:38:31Z</time>
      </trkpt>
      <trkpt lat="47.81943" lon="7.17893">
        <ele>306</ele>
        <time>2022-04-06T14:38:45Z</time>
      </trkpt>
      <trkpt lat="47.81927" lon="7.17921">
        <ele>305</ele>
        <time>2022-04-06T14:38:50Z</time>
      </trkpt>
      <trkpt lat="47.81888" lon="7.17963">
        <ele>304</ele>
        <time>2022-04-06T14:38:58Z</time>
      </trkpt>
      <trkpt lat="47.81861" lon="7.17987">
        <ele>303</ele>
        <time>2022-04-06T14:39:04Z</time>
      </trkpt>
      <trkpt lat="47.81806" lon="7.18049">
        <ele>301</ele>
        <time>2022-04-06T14:39:16Z</time>
      </trkpt>
      <trkpt lat="47.81786" lon="7.18012">
        <ele>302</ele>
        <time>2022-04-06T14:39:22Z</time>
      </trkpt>
      <trkpt lat="47.81745" lon="7.17926">
        <ele>301</ele>
        <time>2022-04-06T14:39:35Z</time>
      </trkpt>
      <trkpt lat="47.81692" lon="7.17843">
        <ele>298</ele>
        <time>2022-04-06T14:39:48Z</time>
      </trkpt>
      <trkpt lat="47.81671" lon="7.17823">
        <ele>297</ele>
        <time>2022-04-06T14:39:53Z</time>
      </trkpt>
      <trkpt lat="47.81649" lon="7.17813">
        <ele>296</ele>
        <time>2022-04-06T14:39:57Z</time>
      </trkpt>
      <trkpt lat="47.81632" lon="7.1781">
        <ele>296</ele>
        <time>2022-04-06T14:40:00Z</time>
      </trkpt>
      <trkpt lat="47.8161" lon="7.1781">
        <ele>296</ele>
        <time>2022-04-06T14:40:04Z</time>
      </trkpt>
      <trkpt lat="47.81547" lon="7.17816">
        <ele>295</ele>
        <time>2022-04-06T14:40:15Z</time>
      </trkpt>
      <trkpt lat="47.81488" lon="7.17829">
        <ele>295</ele>
        <time>2022-04-06T14:40:26Z</time>
      </trkpt>
      <trkpt lat="47.81485" lon="7.17826">
        <ele>295</ele>
        <time>2022-04-06T14:40:26Z</time>
      </trkpt>
      <trkpt lat="47.81479" lon="7.17824">
        <ele>295</ele>
        <time>2022-04-06T14:40:27Z</time>
      </trkpt>
      <trkpt lat="47.81475" lon="7.17825">
        <ele>295</ele>
        <time>2022-04-06T14:40:28Z</time>
      </trkpt>
      <trkpt lat="47.8147" lon="7.17832">
        <ele>295</ele>
        <time>2022-04-06T14:40:29Z</time>
      </trkpt>
      <trkpt lat="47.81469" lon="7.17842">
        <ele>294</ele>
        <time>2022-04-06T14:40:31Z</time>
      </trkpt>
      <trkpt lat="47.8147" lon="7.17847">
        <ele>294</ele>
        <time>2022-04-06T14:40:31Z</time>
      </trkpt>
      <trkpt lat="47.81466" lon="7.17858">
        <ele>294</ele>
        <time>2022-04-06T14:40:33Z</time>
      </trkpt>
      <trkpt lat="47.81464" lon="7.17871">
        <ele>294</ele>
        <time>2022-04-06T14:40:34Z</time>
      </trkpt>
      <trkpt lat="47.8146" lon="7.17881">
        <ele>294</ele>
        <time>2022-04-06T14:40:36Z</time>
      </trkpt>
      <trkpt lat="47.81452" lon="7.1789">
        <ele>293</ele>
        <time>2022-04-06T14:40:37Z</time>
      </trkpt>
      <trkpt lat="47.81435" lon="7.17906">
        <ele>293</ele>
        <time>2022-04-06T14:40:41Z</time>
      </trkpt>
      <trkpt lat="47.81421" lon="7.17916">
        <ele>293</ele>
        <time>2022-04-06T14:40:44Z</time>
      </trkpt>
      <trkpt lat="47.81412" lon="7.1792">
        <ele>293</ele>
        <time>2022-04-06T14:40:45Z</time>
      </trkpt>
      <trkpt lat="47.81398" lon="7.1792">
        <ele>293</ele>
        <time>2022-04-06T14:40:48Z</time>
      </trkpt>
      <trkpt lat="47.81332" lon="7.17912">
        <ele>292</ele>
        <time>2022-04-06T14:41:00Z</time>
      </trkpt>
      <trkpt lat="47.81309" lon="7.17919">
        <ele>292</ele>
        <time>2022-04-06T14:41:04Z</time>
      </trkpt>
    </trkseg>
  </trk>
</gpx>